<?xml version="1.0" encoding="UTF-8" ?>
<gpx xmlns="http://www.topografix.com/GPX/1/1" version="1.1" creator="RouteGadget GPS Tracking" xmlns:xsi="http://www.w3.org/2001/XMLSchema-instance" xmlns:tp1="http://www.garmin.com/xmlschemas/TrackPointExtension/v1" xsi:schemaLocation="http://www.topografix.com/GPX/1/1 http://www.topografix.com/GPX/1/1/gpx.xsd http://www.garmin.com/xmlschemas/TrackPointExtension/v1 http://www.garmin.com/xmlschemas/TrackPointExtensionv1.xsd">
<trk>
<trkseg><trkpt lat="50.076706" lon="13.44804">
<time>2021-08-22T09:19:57Z</time>
</trkpt>
<trkpt lat="50.076707" lon="13.448048">
<time>2021-08-22T09:19:58Z</time>
</trkpt>
<trkpt lat="50.076706" lon="13.44805">
<time>2021-08-22T09:19:59Z</time>
</trkpt>
<trkpt lat="50.076706" lon="13.44805">
<time>2021-08-22T09:20:00Z</time>
</trkpt>
<trkpt lat="50.076706" lon="13.44805">
<time>2021-08-22T09:20:01Z</time>
</trkpt>
<trkpt lat="50.076703" lon="13.448046">
<time>2021-08-22T09:20:02Z</time>
</trkpt>
<trkpt lat="50.076693" lon="13.448028">
<time>2021-08-22T09:20:03Z</time>
</trkpt>
<trkpt lat="50.076684" lon="13.447999">
<time>2021-08-22T09:20:04Z</time>
</trkpt>
<trkpt lat="50.076678" lon="13.447959">
<time>2021-08-22T09:20:05Z</time>
</trkpt>
<trkpt lat="50.076645" lon="13.447894">
<time>2021-08-22T09:20:06Z</time>
</trkpt>
<trkpt lat="50.076611" lon="13.447832">
<time>2021-08-22T09:20:07Z</time>
</trkpt>
<trkpt lat="50.076568" lon="13.447765">
<time>2021-08-22T09:20:08Z</time>
</trkpt>
<trkpt lat="50.076516" lon="13.447682">
<time>2021-08-22T09:20:09Z</time>
</trkpt>
<trkpt lat="50.076459" lon="13.447579">
<time>2021-08-22T09:20:10Z</time>
</trkpt>
<trkpt lat="50.076404" lon="13.447489">
<time>2021-08-22T09:20:11Z</time>
</trkpt>
<trkpt lat="50.076356" lon="13.447406">
<time>2021-08-22T09:20:12Z</time>
</trkpt>
<trkpt lat="50.076298" lon="13.447345">
<time>2021-08-22T09:20:13Z</time>
</trkpt>
<trkpt lat="50.07623" lon="13.447286">
<time>2021-08-22T09:20:14Z</time>
</trkpt>
<trkpt lat="50.076166" lon="13.447233">
<time>2021-08-22T09:20:15Z</time>
</trkpt>
<trkpt lat="50.076096" lon="13.447193">
<time>2021-08-22T09:20:16Z</time>
</trkpt>
<trkpt lat="50.076008" lon="13.447181">
<time>2021-08-22T09:20:17Z</time>
</trkpt>
<trkpt lat="50.075935" lon="13.447157">
<time>2021-08-22T09:20:18Z</time>
</trkpt>
<trkpt lat="50.075879" lon="13.447144">
<time>2021-08-22T09:20:19Z</time>
</trkpt>
<trkpt lat="50.075828" lon="13.447121">
<time>2021-08-22T09:20:20Z</time>
</trkpt>
<trkpt lat="50.07578" lon="13.447096">
<time>2021-08-22T09:20:21Z</time>
</trkpt>
<trkpt lat="50.075734" lon="13.447057">
<time>2021-08-22T09:20:22Z</time>
</trkpt>
<trkpt lat="50.075698" lon="13.446995">
<time>2021-08-22T09:20:23Z</time>
</trkpt>
<trkpt lat="50.075663" lon="13.446911">
<time>2021-08-22T09:20:24Z</time>
</trkpt>
<trkpt lat="50.075627" lon="13.44682">
<time>2021-08-22T09:20:25Z</time>
</trkpt>
<trkpt lat="50.075598" lon="13.446726">
<time>2021-08-22T09:20:26Z</time>
</trkpt>
<trkpt lat="50.075572" lon="13.446627">
<time>2021-08-22T09:20:27Z</time>
</trkpt>
<trkpt lat="50.075553" lon="13.446522">
<time>2021-08-22T09:20:28Z</time>
</trkpt>
<trkpt lat="50.075531" lon="13.446413">
<time>2021-08-22T09:20:29Z</time>
</trkpt>
<trkpt lat="50.075502" lon="13.446301">
<time>2021-08-22T09:20:30Z</time>
</trkpt>
<trkpt lat="50.07547" lon="13.446191">
<time>2021-08-22T09:20:31Z</time>
</trkpt>
<trkpt lat="50.075433" lon="13.446083">
<time>2021-08-22T09:20:32Z</time>
</trkpt>
<trkpt lat="50.075393" lon="13.44598">
<time>2021-08-22T09:20:33Z</time>
</trkpt>
<trkpt lat="50.075348" lon="13.445888">
<time>2021-08-22T09:20:34Z</time>
</trkpt>
<trkpt lat="50.0753" lon="13.44581">
<time>2021-08-22T09:20:35Z</time>
</trkpt>
<trkpt lat="50.075248" lon="13.445747">
<time>2021-08-22T09:20:36Z</time>
</trkpt>
<trkpt lat="50.075189" lon="13.445701">
<time>2021-08-22T09:20:37Z</time>
</trkpt>
<trkpt lat="50.07512" lon="13.445676">
<time>2021-08-22T09:20:38Z</time>
</trkpt>
<trkpt lat="50.075054" lon="13.445657">
<time>2021-08-22T09:20:39Z</time>
</trkpt>
<trkpt lat="50.074993" lon="13.445642">
<time>2021-08-22T09:20:40Z</time>
</trkpt>
<trkpt lat="50.074932" lon="13.445632">
<time>2021-08-22T09:20:41Z</time>
</trkpt>
<trkpt lat="50.074869" lon="13.445621">
<time>2021-08-22T09:20:42Z</time>
</trkpt>
<trkpt lat="50.074809" lon="13.445609">
<time>2021-08-22T09:20:43Z</time>
</trkpt>
<trkpt lat="50.074752" lon="13.445598">
<time>2021-08-22T09:20:44Z</time>
</trkpt>
<trkpt lat="50.07469" lon="13.44558">
<time>2021-08-22T09:20:45Z</time>
</trkpt>
<trkpt lat="50.074629" lon="13.44556">
<time>2021-08-22T09:20:46Z</time>
</trkpt>
<trkpt lat="50.074571" lon="13.445539">
<time>2021-08-22T09:20:47Z</time>
</trkpt>
<trkpt lat="50.074518" lon="13.445514">
<time>2021-08-22T09:20:48Z</time>
</trkpt>
<trkpt lat="50.074466" lon="13.445484">
<time>2021-08-22T09:20:49Z</time>
</trkpt>
<trkpt lat="50.074416" lon="13.445454">
<time>2021-08-22T09:20:50Z</time>
</trkpt>
<trkpt lat="50.074364" lon="13.445413">
<time>2021-08-22T09:20:51Z</time>
</trkpt>
<trkpt lat="50.074312" lon="13.445361">
<time>2021-08-22T09:20:52Z</time>
</trkpt>
<trkpt lat="50.07426" lon="13.44532">
<time>2021-08-22T09:20:53Z</time>
</trkpt>
<trkpt lat="50.074207" lon="13.445282">
<time>2021-08-22T09:20:54Z</time>
</trkpt>
<trkpt lat="50.07415" lon="13.445243">
<time>2021-08-22T09:20:55Z</time>
</trkpt>
<trkpt lat="50.074087" lon="13.445202">
<time>2021-08-22T09:20:56Z</time>
</trkpt>
<trkpt lat="50.074018" lon="13.445156">
<time>2021-08-22T09:20:57Z</time>
</trkpt>
<trkpt lat="50.073951" lon="13.445101">
<time>2021-08-22T09:20:58Z</time>
</trkpt>
<trkpt lat="50.07388" lon="13.445054">
<time>2021-08-22T09:20:59Z</time>
</trkpt>
<trkpt lat="50.07381" lon="13.445008">
<time>2021-08-22T09:21:00Z</time>
</trkpt>
<trkpt lat="50.073743" lon="13.444955">
<time>2021-08-22T09:21:01Z</time>
</trkpt>
<trkpt lat="50.073684" lon="13.444897">
<time>2021-08-22T09:21:02Z</time>
</trkpt>
<trkpt lat="50.07361" lon="13.444807">
<time>2021-08-22T09:21:03Z</time>
</trkpt>
<trkpt lat="50.073546" lon="13.444743">
<time>2021-08-22T09:21:04Z</time>
</trkpt>
<trkpt lat="50.073485" lon="13.444681">
<time>2021-08-22T09:21:05Z</time>
</trkpt>
<trkpt lat="50.073427" lon="13.444623">
<time>2021-08-22T09:21:06Z</time>
</trkpt>
<trkpt lat="50.073368" lon="13.444565">
<time>2021-08-22T09:21:07Z</time>
</trkpt>
<trkpt lat="50.073306" lon="13.44451">
<time>2021-08-22T09:21:08Z</time>
</trkpt>
<trkpt lat="50.073248" lon="13.444459">
<time>2021-08-22T09:21:09Z</time>
</trkpt>
<trkpt lat="50.073188" lon="13.444411">
<time>2021-08-22T09:21:10Z</time>
</trkpt>
<trkpt lat="50.073127" lon="13.444371">
<time>2021-08-22T09:21:11Z</time>
</trkpt>
<trkpt lat="50.073067" lon="13.444335">
<time>2021-08-22T09:21:12Z</time>
</trkpt>
<trkpt lat="50.073027" lon="13.444303">
<time>2021-08-22T09:21:13Z</time>
</trkpt>
<trkpt lat="50.072999" lon="13.444249">
<time>2021-08-22T09:21:14Z</time>
</trkpt>
<trkpt lat="50.072988" lon="13.444199">
<time>2021-08-22T09:21:15Z</time>
</trkpt>
<trkpt lat="50.072996" lon="13.444151">
<time>2021-08-22T09:21:16Z</time>
</trkpt>
<trkpt lat="50.073023" lon="13.444119">
<time>2021-08-22T09:21:17Z</time>
</trkpt>
<trkpt lat="50.073065" lon="13.444087">
<time>2021-08-22T09:21:18Z</time>
</trkpt>
<trkpt lat="50.073112" lon="13.444045">
<time>2021-08-22T09:21:19Z</time>
</trkpt>
<trkpt lat="50.073173" lon="13.443993">
<time>2021-08-22T09:21:20Z</time>
</trkpt>
<trkpt lat="50.07323" lon="13.443943">
<time>2021-08-22T09:21:21Z</time>
</trkpt>
<trkpt lat="50.073291" lon="13.443891">
<time>2021-08-22T09:21:22Z</time>
</trkpt>
<trkpt lat="50.073354" lon="13.443839">
<time>2021-08-22T09:21:23Z</time>
</trkpt>
<trkpt lat="50.073419" lon="13.443783">
<time>2021-08-22T09:21:24Z</time>
</trkpt>
<trkpt lat="50.073482" lon="13.443724">
<time>2021-08-22T09:21:25Z</time>
</trkpt>
<trkpt lat="50.073545" lon="13.44366">
<time>2021-08-22T09:21:26Z</time>
</trkpt>
<trkpt lat="50.07361" lon="13.443595">
<time>2021-08-22T09:21:27Z</time>
</trkpt>
<trkpt lat="50.073673" lon="13.443533">
<time>2021-08-22T09:21:28Z</time>
</trkpt>
<trkpt lat="50.073739" lon="13.443467">
<time>2021-08-22T09:21:29Z</time>
</trkpt>
<trkpt lat="50.073809" lon="13.4434">
<time>2021-08-22T09:21:30Z</time>
</trkpt>
<trkpt lat="50.073877" lon="13.443334">
<time>2021-08-22T09:21:31Z</time>
</trkpt>
<trkpt lat="50.073943" lon="13.443267">
<time>2021-08-22T09:21:32Z</time>
</trkpt>
<trkpt lat="50.074009" lon="13.443198">
<time>2021-08-22T09:21:33Z</time>
</trkpt>
<trkpt lat="50.074077" lon="13.443129">
<time>2021-08-22T09:21:34Z</time>
</trkpt>
<trkpt lat="50.074147" lon="13.44306">
<time>2021-08-22T09:21:35Z</time>
</trkpt>
<trkpt lat="50.074215" lon="13.442986">
<time>2021-08-22T09:21:36Z</time>
</trkpt>
<trkpt lat="50.074278" lon="13.442908">
<time>2021-08-22T09:21:37Z</time>
</trkpt>
<trkpt lat="50.074341" lon="13.442828">
<time>2021-08-22T09:21:38Z</time>
</trkpt>
<trkpt lat="50.074402" lon="13.442751">
<time>2021-08-22T09:21:39Z</time>
</trkpt>
<trkpt lat="50.074461" lon="13.44268">
<time>2021-08-22T09:21:40Z</time>
</trkpt>
<trkpt lat="50.074519" lon="13.442611">
<time>2021-08-22T09:21:41Z</time>
</trkpt>
<trkpt lat="50.074575" lon="13.44254">
<time>2021-08-22T09:21:42Z</time>
</trkpt>
<trkpt lat="50.074632" lon="13.442466">
<time>2021-08-22T09:21:43Z</time>
</trkpt>
<trkpt lat="50.074688" lon="13.442386">
<time>2021-08-22T09:21:44Z</time>
</trkpt>
<trkpt lat="50.074734" lon="13.442297">
<time>2021-08-22T09:21:45Z</time>
</trkpt>
<trkpt lat="50.074774" lon="13.442201">
<time>2021-08-22T09:21:46Z</time>
</trkpt>
<trkpt lat="50.074812" lon="13.442103">
<time>2021-08-22T09:21:47Z</time>
</trkpt>
<trkpt lat="50.074847" lon="13.442003">
<time>2021-08-22T09:21:48Z</time>
</trkpt>
<trkpt lat="50.074879" lon="13.441905">
<time>2021-08-22T09:21:49Z</time>
</trkpt>
<trkpt lat="50.074907" lon="13.441805">
<time>2021-08-22T09:21:50Z</time>
</trkpt>
<trkpt lat="50.074932" lon="13.441705">
<time>2021-08-22T09:21:51Z</time>
</trkpt>
<trkpt lat="50.074953" lon="13.441602">
<time>2021-08-22T09:21:52Z</time>
</trkpt>
<trkpt lat="50.07497" lon="13.441493">
<time>2021-08-22T09:21:53Z</time>
</trkpt>
<trkpt lat="50.074986" lon="13.441389">
<time>2021-08-22T09:21:54Z</time>
</trkpt>
<trkpt lat="50.075002" lon="13.441288">
<time>2021-08-22T09:21:55Z</time>
</trkpt>
<trkpt lat="50.07502" lon="13.441185">
<time>2021-08-22T09:21:56Z</time>
</trkpt>
<trkpt lat="50.07504" lon="13.441086">
<time>2021-08-22T09:21:57Z</time>
</trkpt>
<trkpt lat="50.075057" lon="13.440986">
<time>2021-08-22T09:21:58Z</time>
</trkpt>
<trkpt lat="50.075069" lon="13.440883">
<time>2021-08-22T09:21:59Z</time>
</trkpt>
<trkpt lat="50.075082" lon="13.440781">
<time>2021-08-22T09:22:00Z</time>
</trkpt>
<trkpt lat="50.075094" lon="13.440681">
<time>2021-08-22T09:22:01Z</time>
</trkpt>
<trkpt lat="50.075115" lon="13.440582">
<time>2021-08-22T09:22:02Z</time>
</trkpt>
<trkpt lat="50.075129" lon="13.440482">
<time>2021-08-22T09:22:03Z</time>
</trkpt>
<trkpt lat="50.075145" lon="13.44038">
<time>2021-08-22T09:22:04Z</time>
</trkpt>
<trkpt lat="50.075166" lon="13.440278">
<time>2021-08-22T09:22:05Z</time>
</trkpt>
<trkpt lat="50.075184" lon="13.440179">
<time>2021-08-22T09:22:06Z</time>
</trkpt>
<trkpt lat="50.075212" lon="13.440081">
<time>2021-08-22T09:22:07Z</time>
</trkpt>
<trkpt lat="50.075243" lon="13.439988">
<time>2021-08-22T09:22:08Z</time>
</trkpt>
<trkpt lat="50.075258" lon="13.439892">
<time>2021-08-22T09:22:09Z</time>
</trkpt>
<trkpt lat="50.07527" lon="13.439788">
<time>2021-08-22T09:22:10Z</time>
</trkpt>
<trkpt lat="50.075279" lon="13.439683">
<time>2021-08-22T09:22:11Z</time>
</trkpt>
<trkpt lat="50.075295" lon="13.439575">
<time>2021-08-22T09:22:12Z</time>
</trkpt>
<trkpt lat="50.075309" lon="13.439469">
<time>2021-08-22T09:22:13Z</time>
</trkpt>
<trkpt lat="50.075318" lon="13.439366">
<time>2021-08-22T09:22:14Z</time>
</trkpt>
<trkpt lat="50.075326" lon="13.439261">
<time>2021-08-22T09:22:15Z</time>
</trkpt>
<trkpt lat="50.075328" lon="13.439155">
<time>2021-08-22T09:22:16Z</time>
</trkpt>
<trkpt lat="50.075329" lon="13.439049">
<time>2021-08-22T09:22:17Z</time>
</trkpt>
<trkpt lat="50.075344" lon="13.438943">
<time>2021-08-22T09:22:18Z</time>
</trkpt>
<trkpt lat="50.075357" lon="13.43884">
<time>2021-08-22T09:22:19Z</time>
</trkpt>
<trkpt lat="50.075366" lon="13.438738">
<time>2021-08-22T09:22:20Z</time>
</trkpt>
<trkpt lat="50.075374" lon="13.438637">
<time>2021-08-22T09:22:21Z</time>
</trkpt>
<trkpt lat="50.075377" lon="13.438532">
<time>2021-08-22T09:22:22Z</time>
</trkpt>
<trkpt lat="50.07537" lon="13.438425">
<time>2021-08-22T09:22:23Z</time>
</trkpt>
<trkpt lat="50.075361" lon="13.43832">
<time>2021-08-22T09:22:24Z</time>
</trkpt>
<trkpt lat="50.075352" lon="13.438221">
<time>2021-08-22T09:22:25Z</time>
</trkpt>
<trkpt lat="50.075345" lon="13.438122">
<time>2021-08-22T09:22:26Z</time>
</trkpt>
<trkpt lat="50.075346" lon="13.438024">
<time>2021-08-22T09:22:27Z</time>
</trkpt>
<trkpt lat="50.075343" lon="13.437937">
<time>2021-08-22T09:22:28Z</time>
</trkpt>
<trkpt lat="50.075335" lon="13.437857">
<time>2021-08-22T09:22:29Z</time>
</trkpt>
<trkpt lat="50.075326" lon="13.437773">
<time>2021-08-22T09:22:30Z</time>
</trkpt>
<trkpt lat="50.075326" lon="13.437681">
<time>2021-08-22T09:22:31Z</time>
</trkpt>
<trkpt lat="50.075335" lon="13.437594">
<time>2021-08-22T09:22:32Z</time>
</trkpt>
<trkpt lat="50.075336" lon="13.437505">
<time>2021-08-22T09:22:33Z</time>
</trkpt>
<trkpt lat="50.075337" lon="13.437404">
<time>2021-08-22T09:22:34Z</time>
</trkpt>
<trkpt lat="50.075339" lon="13.437309">
<time>2021-08-22T09:22:35Z</time>
</trkpt>
<trkpt lat="50.075337" lon="13.437215">
<time>2021-08-22T09:22:36Z</time>
</trkpt>
<trkpt lat="50.075343" lon="13.437107">
<time>2021-08-22T09:22:37Z</time>
</trkpt>
<trkpt lat="50.075343" lon="13.436998">
<time>2021-08-22T09:22:38Z</time>
</trkpt>
<trkpt lat="50.07535" lon="13.436894">
<time>2021-08-22T09:22:39Z</time>
</trkpt>
<trkpt lat="50.075368" lon="13.436783">
<time>2021-08-22T09:22:40Z</time>
</trkpt>
<trkpt lat="50.075384" lon="13.436678">
<time>2021-08-22T09:22:41Z</time>
</trkpt>
<trkpt lat="50.075391" lon="13.436565">
<time>2021-08-22T09:22:42Z</time>
</trkpt>
<trkpt lat="50.075406" lon="13.436462">
<time>2021-08-22T09:22:43Z</time>
</trkpt>
<trkpt lat="50.075412" lon="13.436372">
<time>2021-08-22T09:22:44Z</time>
</trkpt>
<trkpt lat="50.075407" lon="13.436301">
<time>2021-08-22T09:22:45Z</time>
</trkpt>
<trkpt lat="50.075428" lon="13.436238">
<time>2021-08-22T09:22:46Z</time>
</trkpt>
<trkpt lat="50.075424" lon="13.436211">
<time>2021-08-22T09:22:47Z</time>
</trkpt>
<trkpt lat="50.075418" lon="13.436185">
<time>2021-08-22T09:22:48Z</time>
</trkpt>
<trkpt lat="50.075412" lon="13.436163">
<time>2021-08-22T09:22:49Z</time>
</trkpt>
<trkpt lat="50.075412" lon="13.436139">
<time>2021-08-22T09:22:50Z</time>
</trkpt>
<trkpt lat="50.075403" lon="13.436109">
<time>2021-08-22T09:22:51Z</time>
</trkpt>
<trkpt lat="50.075375" lon="13.436077">
<time>2021-08-22T09:22:52Z</time>
</trkpt>
<trkpt lat="50.075352" lon="13.43606">
<time>2021-08-22T09:22:53Z</time>
</trkpt>
<trkpt lat="50.075311" lon="13.436037">
<time>2021-08-22T09:22:54Z</time>
</trkpt>
<trkpt lat="50.07527" lon="13.436006">
<time>2021-08-22T09:22:55Z</time>
</trkpt>
<trkpt lat="50.075219" lon="13.435968">
<time>2021-08-22T09:22:56Z</time>
</trkpt>
<trkpt lat="50.07517" lon="13.435955">
<time>2021-08-22T09:22:57Z</time>
</trkpt>
<trkpt lat="50.075095" lon="13.435925">
<time>2021-08-22T09:22:58Z</time>
</trkpt>
<trkpt lat="50.074971" lon="13.43586">
<time>2021-08-22T09:22:59Z</time>
</trkpt>
<trkpt lat="50.07489" lon="13.435859">
<time>2021-08-22T09:23:00Z</time>
</trkpt>
<trkpt lat="50.074814" lon="13.435863">
<time>2021-08-22T09:23:01Z</time>
</trkpt>
<trkpt lat="50.074765" lon="13.435908">
<time>2021-08-22T09:23:02Z</time>
</trkpt>
<trkpt lat="50.074713" lon="13.435948">
<time>2021-08-22T09:23:03Z</time>
</trkpt>
<trkpt lat="50.074666" lon="13.436006">
<time>2021-08-22T09:23:04Z</time>
</trkpt>
<trkpt lat="50.074636" lon="13.436064">
<time>2021-08-22T09:23:05Z</time>
</trkpt>
<trkpt lat="50.0746" lon="13.436112">
<time>2021-08-22T09:23:06Z</time>
</trkpt>
<trkpt lat="50.07457" lon="13.436154">
<time>2021-08-22T09:23:07Z</time>
</trkpt>
<trkpt lat="50.074534" lon="13.43617">
<time>2021-08-22T09:23:08Z</time>
</trkpt>
<trkpt lat="50.074508" lon="13.436174">
<time>2021-08-22T09:23:09Z</time>
</trkpt>
<trkpt lat="50.074488" lon="13.436173">
<time>2021-08-22T09:23:10Z</time>
</trkpt>
<trkpt lat="50.07447" lon="13.436158">
<time>2021-08-22T09:23:11Z</time>
</trkpt>
<trkpt lat="50.074452" lon="13.436139">
<time>2021-08-22T09:23:12Z</time>
</trkpt>
<trkpt lat="50.074438" lon="13.43612">
<time>2021-08-22T09:23:13Z</time>
</trkpt>
<trkpt lat="50.074412" lon="13.436088">
<time>2021-08-22T09:23:14Z</time>
</trkpt>
<trkpt lat="50.074383" lon="13.436059">
<time>2021-08-22T09:23:15Z</time>
</trkpt>
<trkpt lat="50.074351" lon="13.436023">
<time>2021-08-22T09:23:16Z</time>
</trkpt>
<trkpt lat="50.074322" lon="13.435994">
<time>2021-08-22T09:23:17Z</time>
</trkpt>
<trkpt lat="50.074268" lon="13.435942">
<time>2021-08-22T09:23:18Z</time>
</trkpt>
<trkpt lat="50.074231" lon="13.435925">
<time>2021-08-22T09:23:19Z</time>
</trkpt>
<trkpt lat="50.074193" lon="13.435919">
<time>2021-08-22T09:23:20Z</time>
</trkpt>
<trkpt lat="50.074122" lon="13.43587">
<time>2021-08-22T09:23:21Z</time>
</trkpt>
<trkpt lat="50.074081" lon="13.435851">
<time>2021-08-22T09:23:22Z</time>
</trkpt>
<trkpt lat="50.074053" lon="13.435849">
<time>2021-08-22T09:23:23Z</time>
</trkpt>
<trkpt lat="50.074023" lon="13.43585">
<time>2021-08-22T09:23:24Z</time>
</trkpt>
<trkpt lat="50.073997" lon="13.435834">
<time>2021-08-22T09:23:25Z</time>
</trkpt>
<trkpt lat="50.073981" lon="13.435826">
<time>2021-08-22T09:23:26Z</time>
</trkpt>
<trkpt lat="50.073951" lon="13.435774">
<time>2021-08-22T09:23:27Z</time>
</trkpt>
<trkpt lat="50.073924" lon="13.435701">
<time>2021-08-22T09:23:28Z</time>
</trkpt>
<trkpt lat="50.073899" lon="13.435617">
<time>2021-08-22T09:23:29Z</time>
</trkpt>
<trkpt lat="50.073886" lon="13.435547">
<time>2021-08-22T09:23:30Z</time>
</trkpt>
<trkpt lat="50.073876" lon="13.435468">
<time>2021-08-22T09:23:31Z</time>
</trkpt>
<trkpt lat="50.073879" lon="13.435398">
<time>2021-08-22T09:23:32Z</time>
</trkpt>
<trkpt lat="50.073877" lon="13.435321">
<time>2021-08-22T09:23:33Z</time>
</trkpt>
<trkpt lat="50.073881" lon="13.435255">
<time>2021-08-22T09:23:34Z</time>
</trkpt>
<trkpt lat="50.07388" lon="13.43517">
<time>2021-08-22T09:23:35Z</time>
</trkpt>
<trkpt lat="50.073877" lon="13.43509">
<time>2021-08-22T09:23:36Z</time>
</trkpt>
<trkpt lat="50.073881" lon="13.435">
<time>2021-08-22T09:23:37Z</time>
</trkpt>
<trkpt lat="50.073887" lon="13.434938">
<time>2021-08-22T09:23:38Z</time>
</trkpt>
<trkpt lat="50.073886" lon="13.434854">
<time>2021-08-22T09:23:39Z</time>
</trkpt>
<trkpt lat="50.073875" lon="13.434766">
<time>2021-08-22T09:23:40Z</time>
</trkpt>
<trkpt lat="50.073863" lon="13.43467">
<time>2021-08-22T09:23:41Z</time>
</trkpt>
<trkpt lat="50.07387" lon="13.434575">
<time>2021-08-22T09:23:42Z</time>
</trkpt>
<trkpt lat="50.073865" lon="13.434481">
<time>2021-08-22T09:23:43Z</time>
</trkpt>
<trkpt lat="50.073868" lon="13.434369">
<time>2021-08-22T09:23:44Z</time>
</trkpt>
<trkpt lat="50.073891" lon="13.434272">
<time>2021-08-22T09:23:45Z</time>
</trkpt>
<trkpt lat="50.073906" lon="13.434177">
<time>2021-08-22T09:23:46Z</time>
</trkpt>
<trkpt lat="50.073919" lon="13.434089">
<time>2021-08-22T09:23:47Z</time>
</trkpt>
<trkpt lat="50.073952" lon="13.433994">
<time>2021-08-22T09:23:48Z</time>
</trkpt>
<trkpt lat="50.073977" lon="13.433925">
<time>2021-08-22T09:23:49Z</time>
</trkpt>
<trkpt lat="50.074007" lon="13.43384">
<time>2021-08-22T09:23:50Z</time>
</trkpt>
<trkpt lat="50.074046" lon="13.43378">
<time>2021-08-22T09:23:51Z</time>
</trkpt>
<trkpt lat="50.074071" lon="13.433709">
<time>2021-08-22T09:23:52Z</time>
</trkpt>
<trkpt lat="50.074086" lon="13.433649">
<time>2021-08-22T09:23:53Z</time>
</trkpt>
<trkpt lat="50.074116" lon="13.433601">
<time>2021-08-22T09:23:54Z</time>
</trkpt>
<trkpt lat="50.074162" lon="13.433565">
<time>2021-08-22T09:23:55Z</time>
</trkpt>
<trkpt lat="50.074233" lon="13.433525">
<time>2021-08-22T09:23:56Z</time>
</trkpt>
<trkpt lat="50.074266" lon="13.43351">
<time>2021-08-22T09:23:57Z</time>
</trkpt>
<trkpt lat="50.074305" lon="13.433496">
<time>2021-08-22T09:23:58Z</time>
</trkpt>
<trkpt lat="50.074364" lon="13.433474">
<time>2021-08-22T09:23:59Z</time>
</trkpt>
<trkpt lat="50.074402" lon="13.433468">
<time>2021-08-22T09:24:00Z</time>
</trkpt>
<trkpt lat="50.074447" lon="13.433461">
<time>2021-08-22T09:24:01Z</time>
</trkpt>
<trkpt lat="50.074491" lon="13.433454">
<time>2021-08-22T09:24:02Z</time>
</trkpt>
<trkpt lat="50.074537" lon="13.433452">
<time>2021-08-22T09:24:03Z</time>
</trkpt>
<trkpt lat="50.074579" lon="13.433455">
<time>2021-08-22T09:24:04Z</time>
</trkpt>
<trkpt lat="50.074619" lon="13.433457">
<time>2021-08-22T09:24:05Z</time>
</trkpt>
<trkpt lat="50.074659" lon="13.433458">
<time>2021-08-22T09:24:06Z</time>
</trkpt>
<trkpt lat="50.074699" lon="13.433458">
<time>2021-08-22T09:24:07Z</time>
</trkpt>
<trkpt lat="50.074738" lon="13.43346">
<time>2021-08-22T09:24:08Z</time>
</trkpt>
<trkpt lat="50.074776" lon="13.433464">
<time>2021-08-22T09:24:09Z</time>
</trkpt>
<trkpt lat="50.074811" lon="13.433464">
<time>2021-08-22T09:24:10Z</time>
</trkpt>
<trkpt lat="50.074844" lon="13.433465">
<time>2021-08-22T09:24:11Z</time>
</trkpt>
<trkpt lat="50.074883" lon="13.433468">
<time>2021-08-22T09:24:12Z</time>
</trkpt>
<trkpt lat="50.074913" lon="13.433474">
<time>2021-08-22T09:24:13Z</time>
</trkpt>
<trkpt lat="50.074949" lon="13.433484">
<time>2021-08-22T09:24:14Z</time>
</trkpt>
<trkpt lat="50.074982" lon="13.433498">
<time>2021-08-22T09:24:15Z</time>
</trkpt>
<trkpt lat="50.075011" lon="13.433508">
<time>2021-08-22T09:24:16Z</time>
</trkpt>
<trkpt lat="50.075043" lon="13.433516">
<time>2021-08-22T09:24:17Z</time>
</trkpt>
<trkpt lat="50.075073" lon="13.43352">
<time>2021-08-22T09:24:18Z</time>
</trkpt>
<trkpt lat="50.075105" lon="13.433529">
<time>2021-08-22T09:24:19Z</time>
</trkpt>
<trkpt lat="50.07514" lon="13.433537">
<time>2021-08-22T09:24:20Z</time>
</trkpt>
<trkpt lat="50.075174" lon="13.433544">
<time>2021-08-22T09:24:21Z</time>
</trkpt>
<trkpt lat="50.07521" lon="13.433546">
<time>2021-08-22T09:24:22Z</time>
</trkpt>
<trkpt lat="50.075246" lon="13.433549">
<time>2021-08-22T09:24:23Z</time>
</trkpt>
<trkpt lat="50.07528" lon="13.433556">
<time>2021-08-22T09:24:24Z</time>
</trkpt>
<trkpt lat="50.075314" lon="13.433562">
<time>2021-08-22T09:24:25Z</time>
</trkpt>
<trkpt lat="50.07535" lon="13.433561">
<time>2021-08-22T09:24:26Z</time>
</trkpt>
<trkpt lat="50.075386" lon="13.433557">
<time>2021-08-22T09:24:27Z</time>
</trkpt>
<trkpt lat="50.075432" lon="13.433554">
<time>2021-08-22T09:24:28Z</time>
</trkpt>
<trkpt lat="50.075475" lon="13.433545">
<time>2021-08-22T09:24:29Z</time>
</trkpt>
<trkpt lat="50.075513" lon="13.433536">
<time>2021-08-22T09:24:30Z</time>
</trkpt>
<trkpt lat="50.075555" lon="13.433535">
<time>2021-08-22T09:24:31Z</time>
</trkpt>
<trkpt lat="50.07559" lon="13.433534">
<time>2021-08-22T09:24:32Z</time>
</trkpt>
<trkpt lat="50.075627" lon="13.433533">
<time>2021-08-22T09:24:33Z</time>
</trkpt>
<trkpt lat="50.075666" lon="13.43354">
<time>2021-08-22T09:24:34Z</time>
</trkpt>
<trkpt lat="50.075698" lon="13.433559">
<time>2021-08-22T09:24:35Z</time>
</trkpt>
<trkpt lat="50.075738" lon="13.433597">
<time>2021-08-22T09:24:36Z</time>
</trkpt>
<trkpt lat="50.075763" lon="13.43363">
<time>2021-08-22T09:24:37Z</time>
</trkpt>
<trkpt lat="50.075783" lon="13.433667">
<time>2021-08-22T09:24:38Z</time>
</trkpt>
<trkpt lat="50.075798" lon="13.433706">
<time>2021-08-22T09:24:39Z</time>
</trkpt>
<trkpt lat="50.075819" lon="13.433745">
<time>2021-08-22T09:24:40Z</time>
</trkpt>
<trkpt lat="50.075835" lon="13.433788">
<time>2021-08-22T09:24:41Z</time>
</trkpt>
<trkpt lat="50.075851" lon="13.433812">
<time>2021-08-22T09:24:42Z</time>
</trkpt>
<trkpt lat="50.075874" lon="13.433824">
<time>2021-08-22T09:24:43Z</time>
</trkpt>
<trkpt lat="50.075892" lon="13.433817">
<time>2021-08-22T09:24:44Z</time>
</trkpt>
<trkpt lat="50.075894" lon="13.433802">
<time>2021-08-22T09:24:45Z</time>
</trkpt>
<trkpt lat="50.075892" lon="13.43378">
<time>2021-08-22T09:24:46Z</time>
</trkpt>
<trkpt lat="50.075895" lon="13.433752">
<time>2021-08-22T09:24:47Z</time>
</trkpt>
<trkpt lat="50.075912" lon="13.433715">
<time>2021-08-22T09:24:48Z</time>
</trkpt>
<trkpt lat="50.075924" lon="13.433664">
<time>2021-08-22T09:24:49Z</time>
</trkpt>
<trkpt lat="50.075936" lon="13.433599">
<time>2021-08-22T09:24:50Z</time>
</trkpt>
<trkpt lat="50.075946" lon="13.433533">
<time>2021-08-22T09:24:51Z</time>
</trkpt>
<trkpt lat="50.075952" lon="13.433479">
<time>2021-08-22T09:24:52Z</time>
</trkpt>
<trkpt lat="50.075952" lon="13.433413">
<time>2021-08-22T09:24:53Z</time>
</trkpt>
<trkpt lat="50.075948" lon="13.433334">
<time>2021-08-22T09:24:54Z</time>
</trkpt>
<trkpt lat="50.075947" lon="13.433255">
<time>2021-08-22T09:24:55Z</time>
</trkpt>
<trkpt lat="50.075949" lon="13.433158">
<time>2021-08-22T09:24:56Z</time>
</trkpt>
<trkpt lat="50.075957" lon="13.433063">
<time>2021-08-22T09:24:57Z</time>
</trkpt>
<trkpt lat="50.075962" lon="13.432978">
<time>2021-08-22T09:24:58Z</time>
</trkpt>
<trkpt lat="50.075967" lon="13.432891">
<time>2021-08-22T09:24:59Z</time>
</trkpt>
<trkpt lat="50.075978" lon="13.432798">
<time>2021-08-22T09:25:00Z</time>
</trkpt>
<trkpt lat="50.075991" lon="13.432706">
<time>2021-08-22T09:25:01Z</time>
</trkpt>
<trkpt lat="50.076017" lon="13.432622">
<time>2021-08-22T09:25:02Z</time>
</trkpt>
<trkpt lat="50.076028" lon="13.432528">
<time>2021-08-22T09:25:03Z</time>
</trkpt>
<trkpt lat="50.076054" lon="13.432425">
<time>2021-08-22T09:25:04Z</time>
</trkpt>
<trkpt lat="50.076087" lon="13.432334">
<time>2021-08-22T09:25:05Z</time>
</trkpt>
<trkpt lat="50.07613" lon="13.432222">
<time>2021-08-22T09:25:06Z</time>
</trkpt>
<trkpt lat="50.076152" lon="13.432106">
<time>2021-08-22T09:25:07Z</time>
</trkpt>
<trkpt lat="50.076173" lon="13.431979">
<time>2021-08-22T09:25:08Z</time>
</trkpt>
<trkpt lat="50.076199" lon="13.43185">
<time>2021-08-22T09:25:09Z</time>
</trkpt>
<trkpt lat="50.07623" lon="13.431716">
<time>2021-08-22T09:25:10Z</time>
</trkpt>
<trkpt lat="50.076245" lon="13.431561">
<time>2021-08-22T09:25:11Z</time>
</trkpt>
<trkpt lat="50.076246" lon="13.431425">
<time>2021-08-22T09:25:12Z</time>
</trkpt>
<trkpt lat="50.076255" lon="13.431301">
<time>2021-08-22T09:25:13Z</time>
</trkpt>
<trkpt lat="50.076268" lon="13.431179">
<time>2021-08-22T09:25:14Z</time>
</trkpt>
<trkpt lat="50.076288" lon="13.431059">
<time>2021-08-22T09:25:15Z</time>
</trkpt>
<trkpt lat="50.076304" lon="13.430935">
<time>2021-08-22T09:25:16Z</time>
</trkpt>
<trkpt lat="50.076334" lon="13.430838">
<time>2021-08-22T09:25:17Z</time>
</trkpt>
<trkpt lat="50.076372" lon="13.430741">
<time>2021-08-22T09:25:18Z</time>
</trkpt>
<trkpt lat="50.076434" lon="13.430649">
<time>2021-08-22T09:25:19Z</time>
</trkpt>
<trkpt lat="50.076484" lon="13.430555">
<time>2021-08-22T09:25:20Z</time>
</trkpt>
<trkpt lat="50.076543" lon="13.430459">
<time>2021-08-22T09:25:21Z</time>
</trkpt>
<trkpt lat="50.076596" lon="13.430383">
<time>2021-08-22T09:25:22Z</time>
</trkpt>
<trkpt lat="50.076628" lon="13.430321">
<time>2021-08-22T09:25:23Z</time>
</trkpt>
<trkpt lat="50.07666" lon="13.430276">
<time>2021-08-22T09:25:24Z</time>
</trkpt>
<trkpt lat="50.076684" lon="13.430219">
<time>2021-08-22T09:25:25Z</time>
</trkpt>
<trkpt lat="50.076719" lon="13.430155">
<time>2021-08-22T09:25:26Z</time>
</trkpt>
<trkpt lat="50.076733" lon="13.430098">
<time>2021-08-22T09:25:27Z</time>
</trkpt>
<trkpt lat="50.076748" lon="13.43004">
<time>2021-08-22T09:25:28Z</time>
</trkpt>
<trkpt lat="50.07675" lon="13.42998">
<time>2021-08-22T09:25:29Z</time>
</trkpt>
<trkpt lat="50.076749" lon="13.429916">
<time>2021-08-22T09:25:30Z</time>
</trkpt>
<trkpt lat="50.07675" lon="13.429859">
<time>2021-08-22T09:25:31Z</time>
</trkpt>
<trkpt lat="50.076758" lon="13.429806">
<time>2021-08-22T09:25:32Z</time>
</trkpt>
<trkpt lat="50.076755" lon="13.429739">
<time>2021-08-22T09:25:33Z</time>
</trkpt>
<trkpt lat="50.07676" lon="13.429654">
<time>2021-08-22T09:25:34Z</time>
</trkpt>
<trkpt lat="50.076749" lon="13.429568">
<time>2021-08-22T09:25:35Z</time>
</trkpt>
<trkpt lat="50.076744" lon="13.429483">
<time>2021-08-22T09:25:36Z</time>
</trkpt>
<trkpt lat="50.076745" lon="13.429377">
<time>2021-08-22T09:25:37Z</time>
</trkpt>
<trkpt lat="50.076747" lon="13.429283">
<time>2021-08-22T09:25:38Z</time>
</trkpt>
<trkpt lat="50.076747" lon="13.429184">
<time>2021-08-22T09:25:39Z</time>
</trkpt>
<trkpt lat="50.076752" lon="13.429093">
<time>2021-08-22T09:25:40Z</time>
</trkpt>
<trkpt lat="50.076754" lon="13.428989">
<time>2021-08-22T09:25:41Z</time>
</trkpt>
<trkpt lat="50.076766" lon="13.42888">
<time>2021-08-22T09:25:42Z</time>
</trkpt>
<trkpt lat="50.076768" lon="13.42877">
<time>2021-08-22T09:25:43Z</time>
</trkpt>
<trkpt lat="50.07678" lon="13.428665">
<time>2021-08-22T09:25:44Z</time>
</trkpt>
<trkpt lat="50.07678" lon="13.428568">
<time>2021-08-22T09:25:45Z</time>
</trkpt>
<trkpt lat="50.076784" lon="13.428444">
<time>2021-08-22T09:25:46Z</time>
</trkpt>
<trkpt lat="50.076794" lon="13.428314">
<time>2021-08-22T09:25:47Z</time>
</trkpt>
<trkpt lat="50.07681" lon="13.428187">
<time>2021-08-22T09:25:48Z</time>
</trkpt>
<trkpt lat="50.076831" lon="13.42808">
<time>2021-08-22T09:25:49Z</time>
</trkpt>
<trkpt lat="50.076852" lon="13.427964">
<time>2021-08-22T09:25:50Z</time>
</trkpt>
<trkpt lat="50.076874" lon="13.427859">
<time>2021-08-22T09:25:51Z</time>
</trkpt>
<trkpt lat="50.076909" lon="13.427736">
<time>2021-08-22T09:25:52Z</time>
</trkpt>
<trkpt lat="50.076918" lon="13.427627">
<time>2021-08-22T09:25:53Z</time>
</trkpt>
<trkpt lat="50.076928" lon="13.427522">
<time>2021-08-22T09:25:54Z</time>
</trkpt>
<trkpt lat="50.076938" lon="13.427427">
<time>2021-08-22T09:25:55Z</time>
</trkpt>
<trkpt lat="50.076951" lon="13.427333">
<time>2021-08-22T09:25:56Z</time>
</trkpt>
<trkpt lat="50.076996" lon="13.427207">
<time>2021-08-22T09:25:57Z</time>
</trkpt>
<trkpt lat="50.077017" lon="13.427114">
<time>2021-08-22T09:25:58Z</time>
</trkpt>
<trkpt lat="50.077052" lon="13.426993">
<time>2021-08-22T09:25:59Z</time>
</trkpt>
<trkpt lat="50.077047" lon="13.426889">
<time>2021-08-22T09:26:00Z</time>
</trkpt>
<trkpt lat="50.077075" lon="13.426794">
<time>2021-08-22T09:26:01Z</time>
</trkpt>
<trkpt lat="50.077107" lon="13.42669">
<time>2021-08-22T09:26:02Z</time>
</trkpt>
<trkpt lat="50.077143" lon="13.426571">
<time>2021-08-22T09:26:03Z</time>
</trkpt>
<trkpt lat="50.077173" lon="13.426453">
<time>2021-08-22T09:26:04Z</time>
</trkpt>
<trkpt lat="50.077208" lon="13.426345">
<time>2021-08-22T09:26:05Z</time>
</trkpt>
<trkpt lat="50.077242" lon="13.426243">
<time>2021-08-22T09:26:06Z</time>
</trkpt>
<trkpt lat="50.077269" lon="13.426138">
<time>2021-08-22T09:26:07Z</time>
</trkpt>
<trkpt lat="50.077313" lon="13.426036">
<time>2021-08-22T09:26:08Z</time>
</trkpt>
<trkpt lat="50.077342" lon="13.425947">
<time>2021-08-22T09:26:09Z</time>
</trkpt>
<trkpt lat="50.077398" lon="13.425841">
<time>2021-08-22T09:26:10Z</time>
</trkpt>
<trkpt lat="50.077447" lon="13.425744">
<time>2021-08-22T09:26:11Z</time>
</trkpt>
<trkpt lat="50.077499" lon="13.425642">
<time>2021-08-22T09:26:12Z</time>
</trkpt>
<trkpt lat="50.077545" lon="13.42554">
<time>2021-08-22T09:26:13Z</time>
</trkpt>
<trkpt lat="50.077581" lon="13.425441">
<time>2021-08-22T09:26:14Z</time>
</trkpt>
<trkpt lat="50.077621" lon="13.425333">
<time>2021-08-22T09:26:15Z</time>
</trkpt>
<trkpt lat="50.077653" lon="13.425233">
<time>2021-08-22T09:26:16Z</time>
</trkpt>
<trkpt lat="50.077683" lon="13.425145">
<time>2021-08-22T09:26:17Z</time>
</trkpt>
<trkpt lat="50.077711" lon="13.425061">
<time>2021-08-22T09:26:18Z</time>
</trkpt>
<trkpt lat="50.077742" lon="13.424975">
<time>2021-08-22T09:26:19Z</time>
</trkpt>
<trkpt lat="50.077773" lon="13.424894">
<time>2021-08-22T09:26:20Z</time>
</trkpt>
<trkpt lat="50.077843" lon="13.424817">
<time>2021-08-22T09:26:21Z</time>
</trkpt>
<trkpt lat="50.077917" lon="13.424755">
<time>2021-08-22T09:26:22Z</time>
</trkpt>
<trkpt lat="50.07798" lon="13.424704">
<time>2021-08-22T09:26:23Z</time>
</trkpt>
<trkpt lat="50.078038" lon="13.42467">
<time>2021-08-22T09:26:24Z</time>
</trkpt>
<trkpt lat="50.078097" lon="13.424636">
<time>2021-08-22T09:26:25Z</time>
</trkpt>
<trkpt lat="50.078171" lon="13.424597">
<time>2021-08-22T09:26:26Z</time>
</trkpt>
<trkpt lat="50.078262" lon="13.424554">
<time>2021-08-22T09:26:27Z</time>
</trkpt>
<trkpt lat="50.078337" lon="13.424513">
<time>2021-08-22T09:26:28Z</time>
</trkpt>
<trkpt lat="50.078422" lon="13.424462">
<time>2021-08-22T09:26:29Z</time>
</trkpt>
<trkpt lat="50.078504" lon="13.424399">
<time>2021-08-22T09:26:30Z</time>
</trkpt>
<trkpt lat="50.078577" lon="13.424334">
<time>2021-08-22T09:26:31Z</time>
</trkpt>
<trkpt lat="50.07864" lon="13.424264">
<time>2021-08-22T09:26:32Z</time>
</trkpt>
<trkpt lat="50.078699" lon="13.424192">
<time>2021-08-22T09:26:33Z</time>
</trkpt>
<trkpt lat="50.078758" lon="13.42412">
<time>2021-08-22T09:26:34Z</time>
</trkpt>
<trkpt lat="50.078812" lon="13.424038">
<time>2021-08-22T09:26:35Z</time>
</trkpt>
<trkpt lat="50.078868" lon="13.423963">
<time>2021-08-22T09:26:36Z</time>
</trkpt>
<trkpt lat="50.078915" lon="13.423883">
<time>2021-08-22T09:26:37Z</time>
</trkpt>
<trkpt lat="50.078966" lon="13.423809">
<time>2021-08-22T09:26:38Z</time>
</trkpt>
<trkpt lat="50.079016" lon="13.423745">
<time>2021-08-22T09:26:39Z</time>
</trkpt>
<trkpt lat="50.079087" lon="13.423684">
<time>2021-08-22T09:26:40Z</time>
</trkpt>
<trkpt lat="50.079175" lon="13.423626">
<time>2021-08-22T09:26:41Z</time>
</trkpt>
<trkpt lat="50.079261" lon="13.423585">
<time>2021-08-22T09:26:42Z</time>
</trkpt>
<trkpt lat="50.079343" lon="13.423549">
<time>2021-08-22T09:26:43Z</time>
</trkpt>
<trkpt lat="50.079436" lon="13.423517">
<time>2021-08-22T09:26:44Z</time>
</trkpt>
<trkpt lat="50.079525" lon="13.423482">
<time>2021-08-22T09:26:45Z</time>
</trkpt>
<trkpt lat="50.079604" lon="13.423446">
<time>2021-08-22T09:26:46Z</time>
</trkpt>
<trkpt lat="50.079686" lon="13.423408">
<time>2021-08-22T09:26:47Z</time>
</trkpt>
<trkpt lat="50.079771" lon="13.423362">
<time>2021-08-22T09:26:48Z</time>
</trkpt>
<trkpt lat="50.079861" lon="13.423304">
<time>2021-08-22T09:26:49Z</time>
</trkpt>
<trkpt lat="50.079943" lon="13.423237">
<time>2021-08-22T09:26:50Z</time>
</trkpt>
<trkpt lat="50.080021" lon="13.423167">
<time>2021-08-22T09:26:51Z</time>
</trkpt>
<trkpt lat="50.080091" lon="13.423099">
<time>2021-08-22T09:26:52Z</time>
</trkpt>
<trkpt lat="50.080156" lon="13.423024">
<time>2021-08-22T09:26:53Z</time>
</trkpt>
<trkpt lat="50.08021" lon="13.422955">
<time>2021-08-22T09:26:54Z</time>
</trkpt>
<trkpt lat="50.080256" lon="13.422891">
<time>2021-08-22T09:26:55Z</time>
</trkpt>
<trkpt lat="50.080305" lon="13.422829">
<time>2021-08-22T09:26:56Z</time>
</trkpt>
<trkpt lat="50.080362" lon="13.422764">
<time>2021-08-22T09:26:57Z</time>
</trkpt>
<trkpt lat="50.080413" lon="13.422709">
<time>2021-08-22T09:26:58Z</time>
</trkpt>
<trkpt lat="50.080469" lon="13.42265">
<time>2021-08-22T09:26:59Z</time>
</trkpt>
<trkpt lat="50.080527" lon="13.422578">
<time>2021-08-22T09:27:00Z</time>
</trkpt>
<trkpt lat="50.080572" lon="13.422508">
<time>2021-08-22T09:27:01Z</time>
</trkpt>
<trkpt lat="50.080627" lon="13.422429">
<time>2021-08-22T09:27:02Z</time>
</trkpt>
<trkpt lat="50.080675" lon="13.42235">
<time>2021-08-22T09:27:03Z</time>
</trkpt>
<trkpt lat="50.080719" lon="13.42228">
<time>2021-08-22T09:27:04Z</time>
</trkpt>
<trkpt lat="50.080768" lon="13.422214">
<time>2021-08-22T09:27:05Z</time>
</trkpt>
<trkpt lat="50.080827" lon="13.422145">
<time>2021-08-22T09:27:06Z</time>
</trkpt>
<trkpt lat="50.080885" lon="13.422088">
<time>2021-08-22T09:27:07Z</time>
</trkpt>
<trkpt lat="50.080947" lon="13.42204">
<time>2021-08-22T09:27:08Z</time>
</trkpt>
<trkpt lat="50.081012" lon="13.421999">
<time>2021-08-22T09:27:09Z</time>
</trkpt>
<trkpt lat="50.081076" lon="13.421958">
<time>2021-08-22T09:27:10Z</time>
</trkpt>
<trkpt lat="50.081137" lon="13.421921">
<time>2021-08-22T09:27:11Z</time>
</trkpt>
<trkpt lat="50.081201" lon="13.42188">
<time>2021-08-22T09:27:12Z</time>
</trkpt>
<trkpt lat="50.081259" lon="13.421848">
<time>2021-08-22T09:27:13Z</time>
</trkpt>
<trkpt lat="50.08132" lon="13.421822">
<time>2021-08-22T09:27:14Z</time>
</trkpt>
<trkpt lat="50.081375" lon="13.421807">
<time>2021-08-22T09:27:15Z</time>
</trkpt>
<trkpt lat="50.081441" lon="13.421819">
<time>2021-08-22T09:27:16Z</time>
</trkpt>
<trkpt lat="50.081501" lon="13.42183">
<time>2021-08-22T09:27:17Z</time>
</trkpt>
<trkpt lat="50.081571" lon="13.421849">
<time>2021-08-22T09:27:18Z</time>
</trkpt>
<trkpt lat="50.081634" lon="13.421883">
<time>2021-08-22T09:27:19Z</time>
</trkpt>
<trkpt lat="50.081693" lon="13.421935">
<time>2021-08-22T09:27:20Z</time>
</trkpt>
<trkpt lat="50.081754" lon="13.42199">
<time>2021-08-22T09:27:21Z</time>
</trkpt>
<trkpt lat="50.081818" lon="13.422042">
<time>2021-08-22T09:27:22Z</time>
</trkpt>
<trkpt lat="50.081882" lon="13.422087">
<time>2021-08-22T09:27:23Z</time>
</trkpt>
<trkpt lat="50.081957" lon="13.42213">
<time>2021-08-22T09:27:24Z</time>
</trkpt>
<trkpt lat="50.082032" lon="13.422165">
<time>2021-08-22T09:27:25Z</time>
</trkpt>
<trkpt lat="50.082115" lon="13.422197">
<time>2021-08-22T09:27:26Z</time>
</trkpt>
<trkpt lat="50.082194" lon="13.422233">
<time>2021-08-22T09:27:27Z</time>
</trkpt>
<trkpt lat="50.082276" lon="13.422282">
<time>2021-08-22T09:27:28Z</time>
</trkpt>
<trkpt lat="50.082354" lon="13.42233">
<time>2021-08-22T09:27:29Z</time>
</trkpt>
<trkpt lat="50.082431" lon="13.42238">
<time>2021-08-22T09:27:30Z</time>
</trkpt>
<trkpt lat="50.082482" lon="13.422432">
<time>2021-08-22T09:27:31Z</time>
</trkpt>
<trkpt lat="50.082534" lon="13.422461">
<time>2021-08-22T09:27:32Z</time>
</trkpt>
<trkpt lat="50.082582" lon="13.422495">
<time>2021-08-22T09:27:33Z</time>
</trkpt>
<trkpt lat="50.082631" lon="13.422532">
<time>2021-08-22T09:27:34Z</time>
</trkpt>
<trkpt lat="50.082672" lon="13.422558">
<time>2021-08-22T09:27:35Z</time>
</trkpt>
<trkpt lat="50.082707" lon="13.422584">
<time>2021-08-22T09:27:36Z</time>
</trkpt>
<trkpt lat="50.082744" lon="13.42262">
<time>2021-08-22T09:27:37Z</time>
</trkpt>
<trkpt lat="50.0828" lon="13.422655">
<time>2021-08-22T09:27:38Z</time>
</trkpt>
<trkpt lat="50.082846" lon="13.422683">
<time>2021-08-22T09:27:39Z</time>
</trkpt>
<trkpt lat="50.082896" lon="13.422724">
<time>2021-08-22T09:27:40Z</time>
</trkpt>
<trkpt lat="50.082951" lon="13.422773">
<time>2021-08-22T09:27:41Z</time>
</trkpt>
<trkpt lat="50.082999" lon="13.422823">
<time>2021-08-22T09:27:42Z</time>
</trkpt>
<trkpt lat="50.083049" lon="13.422865">
<time>2021-08-22T09:27:43Z</time>
</trkpt>
<trkpt lat="50.0831" lon="13.422907">
<time>2021-08-22T09:27:44Z</time>
</trkpt>
<trkpt lat="50.083163" lon="13.422957">
<time>2021-08-22T09:27:45Z</time>
</trkpt>
<trkpt lat="50.083227" lon="13.423014">
<time>2021-08-22T09:27:46Z</time>
</trkpt>
<trkpt lat="50.083287" lon="13.423055">
<time>2021-08-22T09:27:47Z</time>
</trkpt>
<trkpt lat="50.08335" lon="13.423073">
<time>2021-08-22T09:27:48Z</time>
</trkpt>
<trkpt lat="50.083416" lon="13.423091">
<time>2021-08-22T09:27:49Z</time>
</trkpt>
<trkpt lat="50.083467" lon="13.423112">
<time>2021-08-22T09:27:50Z</time>
</trkpt>
<trkpt lat="50.083516" lon="13.42312">
<time>2021-08-22T09:27:51Z</time>
</trkpt>
<trkpt lat="50.083567" lon="13.423137">
<time>2021-08-22T09:27:52Z</time>
</trkpt>
<trkpt lat="50.083614" lon="13.423161">
<time>2021-08-22T09:27:53Z</time>
</trkpt>
<trkpt lat="50.083657" lon="13.423193">
<time>2021-08-22T09:27:54Z</time>
</trkpt>
<trkpt lat="50.083707" lon="13.423217">
<time>2021-08-22T09:27:55Z</time>
</trkpt>
<trkpt lat="50.083744" lon="13.423269">
<time>2021-08-22T09:27:56Z</time>
</trkpt>
<trkpt lat="50.083795" lon="13.423342">
<time>2021-08-22T09:27:57Z</time>
</trkpt>
<trkpt lat="50.083853" lon="13.423358">
<time>2021-08-22T09:27:58Z</time>
</trkpt>
<trkpt lat="50.083913" lon="13.423349">
<time>2021-08-22T09:27:59Z</time>
</trkpt>
<trkpt lat="50.083971" lon="13.423329">
<time>2021-08-22T09:28:00Z</time>
</trkpt>
<trkpt lat="50.084015" lon="13.423315">
<time>2021-08-22T09:28:01Z</time>
</trkpt>
<trkpt lat="50.08405" lon="13.42328">
<time>2021-08-22T09:28:02Z</time>
</trkpt>
<trkpt lat="50.084104" lon="13.423231">
<time>2021-08-22T09:28:03Z</time>
</trkpt>
<trkpt lat="50.084141" lon="13.423178">
<time>2021-08-22T09:28:04Z</time>
</trkpt>
<trkpt lat="50.08419" lon="13.423129">
<time>2021-08-22T09:28:05Z</time>
</trkpt>
<trkpt lat="50.084231" lon="13.423079">
<time>2021-08-22T09:28:06Z</time>
</trkpt>
<trkpt lat="50.084267" lon="13.423033">
<time>2021-08-22T09:28:07Z</time>
</trkpt>
<trkpt lat="50.084309" lon="13.422989">
<time>2021-08-22T09:28:08Z</time>
</trkpt>
<trkpt lat="50.084365" lon="13.42294">
<time>2021-08-22T09:28:09Z</time>
</trkpt>
<trkpt lat="50.084415" lon="13.422898">
<time>2021-08-22T09:28:10Z</time>
</trkpt>
<trkpt lat="50.084462" lon="13.422849">
<time>2021-08-22T09:28:11Z</time>
</trkpt>
<trkpt lat="50.08451" lon="13.422799">
<time>2021-08-22T09:28:12Z</time>
</trkpt>
<trkpt lat="50.084561" lon="13.422752">
<time>2021-08-22T09:28:13Z</time>
</trkpt>
<trkpt lat="50.084628" lon="13.422707">
<time>2021-08-22T09:28:14Z</time>
</trkpt>
<trkpt lat="50.084686" lon="13.422662">
<time>2021-08-22T09:28:15Z</time>
</trkpt>
<trkpt lat="50.08474" lon="13.422622">
<time>2021-08-22T09:28:16Z</time>
</trkpt>
<trkpt lat="50.084783" lon="13.42258">
<time>2021-08-22T09:28:17Z</time>
</trkpt>
<trkpt lat="50.084824" lon="13.422531">
<time>2021-08-22T09:28:18Z</time>
</trkpt>
<trkpt lat="50.084864" lon="13.42249">
<time>2021-08-22T09:28:19Z</time>
</trkpt>
<trkpt lat="50.084898" lon="13.422459">
<time>2021-08-22T09:28:20Z</time>
</trkpt>
<trkpt lat="50.084919" lon="13.422444">
<time>2021-08-22T09:28:21Z</time>
</trkpt>
<trkpt lat="50.084932" lon="13.422433">
<time>2021-08-22T09:28:22Z</time>
</trkpt>
<trkpt lat="50.084933" lon="13.422428">
<time>2021-08-22T09:28:23Z</time>
</trkpt>
<trkpt lat="50.084929" lon="13.42243">
<time>2021-08-22T09:28:24Z</time>
</trkpt>
<trkpt lat="50.08493" lon="13.422428">
<time>2021-08-22T09:28:25Z</time>
</trkpt>
<trkpt lat="50.084932" lon="13.422421">
<time>2021-08-22T09:28:26Z</time>
</trkpt>
<trkpt lat="50.084924" lon="13.42242">
<time>2021-08-22T09:28:27Z</time>
</trkpt>
<trkpt lat="50.084919" lon="13.422413">
<time>2021-08-22T09:28:28Z</time>
</trkpt>
<trkpt lat="50.084909" lon="13.42239">
<time>2021-08-22T09:28:29Z</time>
</trkpt>
<trkpt lat="50.084898" lon="13.422366">
<time>2021-08-22T09:28:30Z</time>
</trkpt>
<trkpt lat="50.084889" lon="13.422336">
<time>2021-08-22T09:28:31Z</time>
</trkpt>
<trkpt lat="50.084878" lon="13.422302">
<time>2021-08-22T09:28:32Z</time>
</trkpt>
<trkpt lat="50.084871" lon="13.42227">
<time>2021-08-22T09:28:33Z</time>
</trkpt>
<trkpt lat="50.084865" lon="13.422218">
<time>2021-08-22T09:28:34Z</time>
</trkpt>
<trkpt lat="50.084854" lon="13.422172">
<time>2021-08-22T09:28:35Z</time>
</trkpt>
<trkpt lat="50.084839" lon="13.422118">
<time>2021-08-22T09:28:36Z</time>
</trkpt>
<trkpt lat="50.084835" lon="13.422059">
<time>2021-08-22T09:28:37Z</time>
</trkpt>
<trkpt lat="50.084827" lon="13.422003">
<time>2021-08-22T09:28:38Z</time>
</trkpt>
<trkpt lat="50.084819" lon="13.421922">
<time>2021-08-22T09:28:39Z</time>
</trkpt>
<trkpt lat="50.084806" lon="13.421825">
<time>2021-08-22T09:28:40Z</time>
</trkpt>
<trkpt lat="50.084791" lon="13.421743">
<time>2021-08-22T09:28:41Z</time>
</trkpt>
<trkpt lat="50.084774" lon="13.421666">
<time>2021-08-22T09:28:42Z</time>
</trkpt>
<trkpt lat="50.084743" lon="13.421578">
<time>2021-08-22T09:28:43Z</time>
</trkpt>
<trkpt lat="50.08472" lon="13.421502">
<time>2021-08-22T09:28:44Z</time>
</trkpt>
<trkpt lat="50.08468" lon="13.421379">
<time>2021-08-22T09:28:45Z</time>
</trkpt>
<trkpt lat="50.084638" lon="13.42127">
<time>2021-08-22T09:28:46Z</time>
</trkpt>
<trkpt lat="50.084604" lon="13.421168">
<time>2021-08-22T09:28:47Z</time>
</trkpt>
<trkpt lat="50.084582" lon="13.421055">
<time>2021-08-22T09:28:48Z</time>
</trkpt>
<trkpt lat="50.084557" lon="13.420937">
<time>2021-08-22T09:28:49Z</time>
</trkpt>
<trkpt lat="50.084527" lon="13.420803">
<time>2021-08-22T09:28:50Z</time>
</trkpt>
<trkpt lat="50.084495" lon="13.420693">
<time>2021-08-22T09:28:51Z</time>
</trkpt>
<trkpt lat="50.084484" lon="13.420582">
<time>2021-08-22T09:28:52Z</time>
</trkpt>
<trkpt lat="50.084475" lon="13.420498">
<time>2021-08-22T09:28:53Z</time>
</trkpt>
<trkpt lat="50.084448" lon="13.420441">
<time>2021-08-22T09:28:54Z</time>
</trkpt>
<trkpt lat="50.084447" lon="13.42042">
<time>2021-08-22T09:28:55Z</time>
</trkpt>
<trkpt lat="50.08445" lon="13.420419">
<time>2021-08-22T09:28:56Z</time>
</trkpt>
<trkpt lat="50.084467" lon="13.420412">
<time>2021-08-22T09:28:57Z</time>
</trkpt>
<trkpt lat="50.084477" lon="13.420403">
<time>2021-08-22T09:28:58Z</time>
</trkpt>
<trkpt lat="50.084489" lon="13.420403">
<time>2021-08-22T09:28:59Z</time>
</trkpt>
<trkpt lat="50.084483" lon="13.420383">
<time>2021-08-22T09:29:00Z</time>
</trkpt>
<trkpt lat="50.084483" lon="13.420378">
<time>2021-08-22T09:29:01Z</time>
</trkpt>
<trkpt lat="50.084483" lon="13.420378">
<time>2021-08-22T09:29:02Z</time>
</trkpt>
<trkpt lat="50.084484" lon="13.420387">
<time>2021-08-22T09:29:03Z</time>
</trkpt>
<trkpt lat="50.08449" lon="13.4204">
<time>2021-08-22T09:29:04Z</time>
</trkpt>
<trkpt lat="50.084501" lon="13.42042">
<time>2021-08-22T09:29:05Z</time>
</trkpt>
<trkpt lat="50.084519" lon="13.420455">
<time>2021-08-22T09:29:06Z</time>
</trkpt>
<trkpt lat="50.084536" lon="13.420503">
<time>2021-08-22T09:29:07Z</time>
</trkpt>
<trkpt lat="50.084552" lon="13.420563">
<time>2021-08-22T09:29:08Z</time>
</trkpt>
<trkpt lat="50.08457" lon="13.420623">
<time>2021-08-22T09:29:09Z</time>
</trkpt>
<trkpt lat="50.084596" lon="13.420691">
<time>2021-08-22T09:29:10Z</time>
</trkpt>
<trkpt lat="50.084622" lon="13.420763">
<time>2021-08-22T09:29:11Z</time>
</trkpt>
<trkpt lat="50.084649" lon="13.420842">
<time>2021-08-22T09:29:12Z</time>
</trkpt>
<trkpt lat="50.084677" lon="13.420917">
<time>2021-08-22T09:29:13Z</time>
</trkpt>
<trkpt lat="50.084705" lon="13.420982">
<time>2021-08-22T09:29:14Z</time>
</trkpt>
<trkpt lat="50.084734" lon="13.421047">
<time>2021-08-22T09:29:15Z</time>
</trkpt>
<trkpt lat="50.084764" lon="13.421113">
<time>2021-08-22T09:29:16Z</time>
</trkpt>
<trkpt lat="50.084789" lon="13.421179">
<time>2021-08-22T09:29:17Z</time>
</trkpt>
<trkpt lat="50.084813" lon="13.421248">
<time>2021-08-22T09:29:18Z</time>
</trkpt>
<trkpt lat="50.084834" lon="13.42131">
<time>2021-08-22T09:29:19Z</time>
</trkpt>
<trkpt lat="50.084847" lon="13.421372">
<time>2021-08-22T09:29:20Z</time>
</trkpt>
<trkpt lat="50.084859" lon="13.421445">
<time>2021-08-22T09:29:21Z</time>
</trkpt>
<trkpt lat="50.084878" lon="13.421515">
<time>2021-08-22T09:29:22Z</time>
</trkpt>
<trkpt lat="50.084892" lon="13.42159">
<time>2021-08-22T09:29:23Z</time>
</trkpt>
<trkpt lat="50.084906" lon="13.42167">
<time>2021-08-22T09:29:24Z</time>
</trkpt>
<trkpt lat="50.08491" lon="13.421752">
<time>2021-08-22T09:29:25Z</time>
</trkpt>
<trkpt lat="50.084915" lon="13.421827">
<time>2021-08-22T09:29:26Z</time>
</trkpt>
<trkpt lat="50.084911" lon="13.421912">
<time>2021-08-22T09:29:27Z</time>
</trkpt>
<trkpt lat="50.084915" lon="13.421991">
<time>2021-08-22T09:29:28Z</time>
</trkpt>
<trkpt lat="50.084932" lon="13.42205">
<time>2021-08-22T09:29:29Z</time>
</trkpt>
<trkpt lat="50.084952" lon="13.422084">
<time>2021-08-22T09:29:30Z</time>
</trkpt>
<trkpt lat="50.08497" lon="13.422123">
<time>2021-08-22T09:29:31Z</time>
</trkpt>
<trkpt lat="50.08499" lon="13.422123">
<time>2021-08-22T09:29:32Z</time>
</trkpt>
<trkpt lat="50.085028" lon="13.422083">
<time>2021-08-22T09:29:33Z</time>
</trkpt>
<trkpt lat="50.085071" lon="13.422036">
<time>2021-08-22T09:29:34Z</time>
</trkpt>
<trkpt lat="50.085121" lon="13.421999">
<time>2021-08-22T09:29:35Z</time>
</trkpt>
<trkpt lat="50.085168" lon="13.421962">
<time>2021-08-22T09:29:36Z</time>
</trkpt>
<trkpt lat="50.085223" lon="13.421937">
<time>2021-08-22T09:29:37Z</time>
</trkpt>
<trkpt lat="50.085284" lon="13.421894">
<time>2021-08-22T09:29:38Z</time>
</trkpt>
<trkpt lat="50.08535" lon="13.421862">
<time>2021-08-22T09:29:39Z</time>
</trkpt>
<trkpt lat="50.085406" lon="13.42184">
<time>2021-08-22T09:29:40Z</time>
</trkpt>
<trkpt lat="50.085453" lon="13.42182">
<time>2021-08-22T09:29:41Z</time>
</trkpt>
<trkpt lat="50.085495" lon="13.421822">
<time>2021-08-22T09:29:42Z</time>
</trkpt>
<trkpt lat="50.085547" lon="13.421802">
<time>2021-08-22T09:29:43Z</time>
</trkpt>
<trkpt lat="50.085593" lon="13.421775">
<time>2021-08-22T09:29:44Z</time>
</trkpt>
<trkpt lat="50.085633" lon="13.421741">
<time>2021-08-22T09:29:45Z</time>
</trkpt>
<trkpt lat="50.08567" lon="13.421691">
<time>2021-08-22T09:29:46Z</time>
</trkpt>
<trkpt lat="50.08571" lon="13.421627">
<time>2021-08-22T09:29:47Z</time>
</trkpt>
<trkpt lat="50.085748" lon="13.42156">
<time>2021-08-22T09:29:48Z</time>
</trkpt>
<trkpt lat="50.085795" lon="13.421503">
<time>2021-08-22T09:29:49Z</time>
</trkpt>
<trkpt lat="50.085838" lon="13.421451">
<time>2021-08-22T09:29:50Z</time>
</trkpt>
<trkpt lat="50.085888" lon="13.421405">
<time>2021-08-22T09:29:51Z</time>
</trkpt>
<trkpt lat="50.085948" lon="13.421367">
<time>2021-08-22T09:29:52Z</time>
</trkpt>
<trkpt lat="50.085997" lon="13.421357">
<time>2021-08-22T09:29:53Z</time>
</trkpt>
<trkpt lat="50.086052" lon="13.421343">
<time>2021-08-22T09:29:54Z</time>
</trkpt>
<trkpt lat="50.086099" lon="13.42134">
<time>2021-08-22T09:29:55Z</time>
</trkpt>
<trkpt lat="50.086147" lon="13.421329">
<time>2021-08-22T09:29:56Z</time>
</trkpt>
<trkpt lat="50.086199" lon="13.421301">
<time>2021-08-22T09:29:57Z</time>
</trkpt>
<trkpt lat="50.086254" lon="13.421261">
<time>2021-08-22T09:29:58Z</time>
</trkpt>
<trkpt lat="50.086289" lon="13.421213">
<time>2021-08-22T09:29:59Z</time>
</trkpt>
<trkpt lat="50.086323" lon="13.421152">
<time>2021-08-22T09:30:00Z</time>
</trkpt>
<trkpt lat="50.086371" lon="13.42108">
<time>2021-08-22T09:30:01Z</time>
</trkpt>
<trkpt lat="50.086417" lon="13.421009">
<time>2021-08-22T09:30:02Z</time>
</trkpt>
<trkpt lat="50.086459" lon="13.420945">
<time>2021-08-22T09:30:03Z</time>
</trkpt>
<trkpt lat="50.086484" lon="13.420904">
<time>2021-08-22T09:30:04Z</time>
</trkpt>
<trkpt lat="50.086504" lon="13.420852">
<time>2021-08-22T09:30:05Z</time>
</trkpt>
<trkpt lat="50.08652" lon="13.420787">
<time>2021-08-22T09:30:06Z</time>
</trkpt>
<trkpt lat="50.08654" lon="13.420708">
<time>2021-08-22T09:30:07Z</time>
</trkpt>
<trkpt lat="50.086539" lon="13.420611">
<time>2021-08-22T09:30:08Z</time>
</trkpt>
<trkpt lat="50.08655" lon="13.420521">
<time>2021-08-22T09:30:09Z</time>
</trkpt>
<trkpt lat="50.086557" lon="13.420423">
<time>2021-08-22T09:30:10Z</time>
</trkpt>
<trkpt lat="50.086557" lon="13.420326">
<time>2021-08-22T09:30:11Z</time>
</trkpt>
<trkpt lat="50.086553" lon="13.420233">
<time>2021-08-22T09:30:12Z</time>
</trkpt>
<trkpt lat="50.086563" lon="13.420147">
<time>2021-08-22T09:30:13Z</time>
</trkpt>
<trkpt lat="50.086566" lon="13.420072">
<time>2021-08-22T09:30:14Z</time>
</trkpt>
<trkpt lat="50.086569" lon="13.420003">
<time>2021-08-22T09:30:15Z</time>
</trkpt>
<trkpt lat="50.086571" lon="13.419937">
<time>2021-08-22T09:30:16Z</time>
</trkpt>
<trkpt lat="50.086572" lon="13.419872">
<time>2021-08-22T09:30:17Z</time>
</trkpt>
<trkpt lat="50.086571" lon="13.419801">
<time>2021-08-22T09:30:18Z</time>
</trkpt>
<trkpt lat="50.08657" lon="13.419731">
<time>2021-08-22T09:30:19Z</time>
</trkpt>
<trkpt lat="50.086572" lon="13.41965">
<time>2021-08-22T09:30:20Z</time>
</trkpt>
<trkpt lat="50.08657" lon="13.419571">
<time>2021-08-22T09:30:21Z</time>
</trkpt>
<trkpt lat="50.086569" lon="13.419487">
<time>2021-08-22T09:30:22Z</time>
</trkpt>
<trkpt lat="50.086568" lon="13.419407">
<time>2021-08-22T09:30:23Z</time>
</trkpt>
<trkpt lat="50.086568" lon="13.419322">
<time>2021-08-22T09:30:24Z</time>
</trkpt>
<trkpt lat="50.086566" lon="13.41923">
<time>2021-08-22T09:30:25Z</time>
</trkpt>
<trkpt lat="50.086561" lon="13.419121">
<time>2021-08-22T09:30:26Z</time>
</trkpt>
<trkpt lat="50.08656" lon="13.419015">
<time>2021-08-22T09:30:27Z</time>
</trkpt>
<trkpt lat="50.08656" lon="13.418903">
<time>2021-08-22T09:30:28Z</time>
</trkpt>
<trkpt lat="50.086563" lon="13.418793">
<time>2021-08-22T09:30:29Z</time>
</trkpt>
<trkpt lat="50.086562" lon="13.418687">
<time>2021-08-22T09:30:30Z</time>
</trkpt>
<trkpt lat="50.086565" lon="13.418579">
<time>2021-08-22T09:30:31Z</time>
</trkpt>
<trkpt lat="50.086558" lon="13.418479">
<time>2021-08-22T09:30:32Z</time>
</trkpt>
<trkpt lat="50.086552" lon="13.418383">
<time>2021-08-22T09:30:33Z</time>
</trkpt>
<trkpt lat="50.086549" lon="13.418277">
<time>2021-08-22T09:30:34Z</time>
</trkpt>
<trkpt lat="50.086544" lon="13.418165">
<time>2021-08-22T09:30:35Z</time>
</trkpt>
<trkpt lat="50.086544" lon="13.418042">
<time>2021-08-22T09:30:36Z</time>
</trkpt>
<trkpt lat="50.086552" lon="13.417919">
<time>2021-08-22T09:30:37Z</time>
</trkpt>
<trkpt lat="50.086545" lon="13.417791">
<time>2021-08-22T09:30:38Z</time>
</trkpt>
<trkpt lat="50.086539" lon="13.417671">
<time>2021-08-22T09:30:39Z</time>
</trkpt>
<trkpt lat="50.086517" lon="13.417547">
<time>2021-08-22T09:30:40Z</time>
</trkpt>
<trkpt lat="50.08652" lon="13.417433">
<time>2021-08-22T09:30:41Z</time>
</trkpt>
<trkpt lat="50.086503" lon="13.417321">
<time>2021-08-22T09:30:42Z</time>
</trkpt>
<trkpt lat="50.086493" lon="13.417192">
<time>2021-08-22T09:30:43Z</time>
</trkpt>
<trkpt lat="50.086482" lon="13.41708">
<time>2021-08-22T09:30:44Z</time>
</trkpt>
<trkpt lat="50.086471" lon="13.416974">
<time>2021-08-22T09:30:45Z</time>
</trkpt>
<trkpt lat="50.086465" lon="13.416876">
<time>2021-08-22T09:30:46Z</time>
</trkpt>
<trkpt lat="50.086469" lon="13.41677">
<time>2021-08-22T09:30:47Z</time>
</trkpt>
<trkpt lat="50.08647" lon="13.416655">
<time>2021-08-22T09:30:48Z</time>
</trkpt>
<trkpt lat="50.086453" lon="13.41656">
<time>2021-08-22T09:30:49Z</time>
</trkpt>
<trkpt lat="50.086442" lon="13.416459">
<time>2021-08-22T09:30:50Z</time>
</trkpt>
<trkpt lat="50.086443" lon="13.416341">
<time>2021-08-22T09:30:51Z</time>
</trkpt>
<trkpt lat="50.086457" lon="13.416213">
<time>2021-08-22T09:30:52Z</time>
</trkpt>
<trkpt lat="50.086474" lon="13.416089">
<time>2021-08-22T09:30:53Z</time>
</trkpt>
<trkpt lat="50.086466" lon="13.415972">
<time>2021-08-22T09:30:54Z</time>
</trkpt>
<trkpt lat="50.086477" lon="13.415871">
<time>2021-08-22T09:30:55Z</time>
</trkpt>
<trkpt lat="50.086491" lon="13.415753">
<time>2021-08-22T09:30:56Z</time>
</trkpt>
<trkpt lat="50.086496" lon="13.415643">
<time>2021-08-22T09:30:57Z</time>
</trkpt>
<trkpt lat="50.086499" lon="13.415512">
<time>2021-08-22T09:30:58Z</time>
</trkpt>
<trkpt lat="50.086527" lon="13.415401">
<time>2021-08-22T09:30:59Z</time>
</trkpt>
<trkpt lat="50.086529" lon="13.415299">
<time>2021-08-22T09:31:00Z</time>
</trkpt>
<trkpt lat="50.086557" lon="13.415186">
<time>2021-08-22T09:31:01Z</time>
</trkpt>
<trkpt lat="50.08658" lon="13.415076">
<time>2021-08-22T09:31:02Z</time>
</trkpt>
<trkpt lat="50.086605" lon="13.414968">
<time>2021-08-22T09:31:03Z</time>
</trkpt>
<trkpt lat="50.086625" lon="13.414833">
<time>2021-08-22T09:31:04Z</time>
</trkpt>
<trkpt lat="50.08666" lon="13.414683">
<time>2021-08-22T09:31:05Z</time>
</trkpt>
<trkpt lat="50.086689" lon="13.414564">
<time>2021-08-22T09:31:06Z</time>
</trkpt>
<trkpt lat="50.086718" lon="13.414446">
<time>2021-08-22T09:31:07Z</time>
</trkpt>
<trkpt lat="50.086747" lon="13.414318">
<time>2021-08-22T09:31:08Z</time>
</trkpt>
<trkpt lat="50.086769" lon="13.414193">
<time>2021-08-22T09:31:09Z</time>
</trkpt>
<trkpt lat="50.086776" lon="13.41405">
<time>2021-08-22T09:31:10Z</time>
</trkpt>
<trkpt lat="50.086778" lon="13.413925">
<time>2021-08-22T09:31:11Z</time>
</trkpt>
<trkpt lat="50.086781" lon="13.413783">
<time>2021-08-22T09:31:12Z</time>
</trkpt>
<trkpt lat="50.086781" lon="13.413662">
<time>2021-08-22T09:31:13Z</time>
</trkpt>
<trkpt lat="50.08678" lon="13.413536">
<time>2021-08-22T09:31:14Z</time>
</trkpt>
<trkpt lat="50.086773" lon="13.413394">
<time>2021-08-22T09:31:15Z</time>
</trkpt>
<trkpt lat="50.086772" lon="13.413253">
<time>2021-08-22T09:31:16Z</time>
</trkpt>
<trkpt lat="50.086785" lon="13.413112">
<time>2021-08-22T09:31:17Z</time>
</trkpt>
<trkpt lat="50.086806" lon="13.412967">
<time>2021-08-22T09:31:18Z</time>
</trkpt>
<trkpt lat="50.086812" lon="13.412839">
<time>2021-08-22T09:31:19Z</time>
</trkpt>
<trkpt lat="50.086829" lon="13.412731">
<time>2021-08-22T09:31:20Z</time>
</trkpt>
<trkpt lat="50.086849" lon="13.41263">
<time>2021-08-22T09:31:21Z</time>
</trkpt>
<trkpt lat="50.086868" lon="13.412527">
<time>2021-08-22T09:31:22Z</time>
</trkpt>
<trkpt lat="50.08689" lon="13.412437">
<time>2021-08-22T09:31:23Z</time>
</trkpt>
<trkpt lat="50.08691" lon="13.412349">
<time>2021-08-22T09:31:24Z</time>
</trkpt>
<trkpt lat="50.08694" lon="13.412266">
<time>2021-08-22T09:31:25Z</time>
</trkpt>
<trkpt lat="50.086982" lon="13.412185">
<time>2021-08-22T09:31:26Z</time>
</trkpt>
<trkpt lat="50.086998" lon="13.412111">
<time>2021-08-22T09:31:27Z</time>
</trkpt>
<trkpt lat="50.087019" lon="13.41204">
<time>2021-08-22T09:31:28Z</time>
</trkpt>
<trkpt lat="50.087034" lon="13.411977">
<time>2021-08-22T09:31:29Z</time>
</trkpt>
<trkpt lat="50.087051" lon="13.411928">
<time>2021-08-22T09:31:30Z</time>
</trkpt>
<trkpt lat="50.087081" lon="13.411886">
<time>2021-08-22T09:31:31Z</time>
</trkpt>
<trkpt lat="50.087101" lon="13.411853">
<time>2021-08-22T09:31:32Z</time>
</trkpt>
<trkpt lat="50.087102" lon="13.41183">
<time>2021-08-22T09:31:33Z</time>
</trkpt>
<trkpt lat="50.08711" lon="13.411812">
<time>2021-08-22T09:31:34Z</time>
</trkpt>
<trkpt lat="50.087126" lon="13.411776">
<time>2021-08-22T09:31:35Z</time>
</trkpt>
<trkpt lat="50.087137" lon="13.41174">
<time>2021-08-22T09:31:36Z</time>
</trkpt>
<trkpt lat="50.087137" lon="13.411695">
<time>2021-08-22T09:31:37Z</time>
</trkpt>
<trkpt lat="50.087151" lon="13.411622">
<time>2021-08-22T09:31:38Z</time>
</trkpt>
<trkpt lat="50.087159" lon="13.411563">
<time>2021-08-22T09:31:39Z</time>
</trkpt>
<trkpt lat="50.087178" lon="13.411484">
<time>2021-08-22T09:31:40Z</time>
</trkpt>
<trkpt lat="50.087186" lon="13.411437">
<time>2021-08-22T09:31:41Z</time>
</trkpt>
<trkpt lat="50.08719" lon="13.411398">
<time>2021-08-22T09:31:42Z</time>
</trkpt>
<trkpt lat="50.087207" lon="13.411381">
<time>2021-08-22T09:31:43Z</time>
</trkpt>
<trkpt lat="50.087212" lon="13.411363">
<time>2021-08-22T09:31:44Z</time>
</trkpt>
<trkpt lat="50.087214" lon="13.41135">
<time>2021-08-22T09:31:45Z</time>
</trkpt>
<trkpt lat="50.087217" lon="13.411335">
<time>2021-08-22T09:31:46Z</time>
</trkpt>
<trkpt lat="50.087227" lon="13.411305">
<time>2021-08-22T09:31:47Z</time>
</trkpt>
<trkpt lat="50.087244" lon="13.411265">
<time>2021-08-22T09:31:48Z</time>
</trkpt>
<trkpt lat="50.087248" lon="13.411202">
<time>2021-08-22T09:31:49Z</time>
</trkpt>
<trkpt lat="50.087257" lon="13.411145">
<time>2021-08-22T09:31:50Z</time>
</trkpt>
<trkpt lat="50.087274" lon="13.411072">
<time>2021-08-22T09:31:51Z</time>
</trkpt>
<trkpt lat="50.087296" lon="13.411003">
<time>2021-08-22T09:31:52Z</time>
</trkpt>
<trkpt lat="50.087326" lon="13.41093">
<time>2021-08-22T09:31:53Z</time>
</trkpt>
<trkpt lat="50.087359" lon="13.410858">
<time>2021-08-22T09:31:54Z</time>
</trkpt>
<trkpt lat="50.087414" lon="13.410786">
<time>2021-08-22T09:31:55Z</time>
</trkpt>
<trkpt lat="50.087448" lon="13.410727">
<time>2021-08-22T09:31:56Z</time>
</trkpt>
<trkpt lat="50.087498" lon="13.41067">
<time>2021-08-22T09:31:57Z</time>
</trkpt>
<trkpt lat="50.087563" lon="13.410619">
<time>2021-08-22T09:31:58Z</time>
</trkpt>
<trkpt lat="50.087622" lon="13.410571">
<time>2021-08-22T09:31:59Z</time>
</trkpt>
<trkpt lat="50.087687" lon="13.410514">
<time>2021-08-22T09:32:00Z</time>
</trkpt>
<trkpt lat="50.087741" lon="13.410458">
<time>2021-08-22T09:32:01Z</time>
</trkpt>
<trkpt lat="50.087791" lon="13.410414">
<time>2021-08-22T09:32:02Z</time>
</trkpt>
<trkpt lat="50.087856" lon="13.410373">
<time>2021-08-22T09:32:03Z</time>
</trkpt>
<trkpt lat="50.087892" lon="13.410345">
<time>2021-08-22T09:32:04Z</time>
</trkpt>
<trkpt lat="50.087925" lon="13.41031">
<time>2021-08-22T09:32:05Z</time>
</trkpt>
<trkpt lat="50.087952" lon="13.410264">
<time>2021-08-22T09:32:06Z</time>
</trkpt>
<trkpt lat="50.088005" lon="13.410199">
<time>2021-08-22T09:32:07Z</time>
</trkpt>
<trkpt lat="50.088052" lon="13.410145">
<time>2021-08-22T09:32:08Z</time>
</trkpt>
<trkpt lat="50.088076" lon="13.410099">
<time>2021-08-22T09:32:09Z</time>
</trkpt>
<trkpt lat="50.088088" lon="13.410052">
<time>2021-08-22T09:32:10Z</time>
</trkpt>
<trkpt lat="50.088098" lon="13.410008">
<time>2021-08-22T09:32:11Z</time>
</trkpt>
<trkpt lat="50.08811" lon="13.409969">
<time>2021-08-22T09:32:12Z</time>
</trkpt>
<trkpt lat="50.088117" lon="13.409935">
<time>2021-08-22T09:32:13Z</time>
</trkpt>
<trkpt lat="50.088142" lon="13.409897">
<time>2021-08-22T09:32:14Z</time>
</trkpt>
<trkpt lat="50.08816" lon="13.409884">
<time>2021-08-22T09:32:15Z</time>
</trkpt>
<trkpt lat="50.088177" lon="13.409881">
<time>2021-08-22T09:32:16Z</time>
</trkpt>
<trkpt lat="50.088184" lon="13.409879">
<time>2021-08-22T09:32:17Z</time>
</trkpt>
<trkpt lat="50.088202" lon="13.40988">
<time>2021-08-22T09:32:18Z</time>
</trkpt>
<trkpt lat="50.08823" lon="13.409887">
<time>2021-08-22T09:32:19Z</time>
</trkpt>
<trkpt lat="50.088271" lon="13.409891">
<time>2021-08-22T09:32:20Z</time>
</trkpt>
<trkpt lat="50.088306" lon="13.409898">
<time>2021-08-22T09:32:21Z</time>
</trkpt>
<trkpt lat="50.088351" lon="13.409913">
<time>2021-08-22T09:32:22Z</time>
</trkpt>
<trkpt lat="50.088396" lon="13.409935">
<time>2021-08-22T09:32:23Z</time>
</trkpt>
<trkpt lat="50.088459" lon="13.409962">
<time>2021-08-22T09:32:24Z</time>
</trkpt>
<trkpt lat="50.08851" lon="13.409995">
<time>2021-08-22T09:32:25Z</time>
</trkpt>
<trkpt lat="50.088564" lon="13.410017">
<time>2021-08-22T09:32:26Z</time>
</trkpt>
<trkpt lat="50.088616" lon="13.410038">
<time>2021-08-22T09:32:27Z</time>
</trkpt>
<trkpt lat="50.088654" lon="13.410067">
<time>2021-08-22T09:32:28Z</time>
</trkpt>
<trkpt lat="50.088677" lon="13.410119">
<time>2021-08-22T09:32:29Z</time>
</trkpt>
<trkpt lat="50.088712" lon="13.410166">
<time>2021-08-22T09:32:30Z</time>
</trkpt>
<trkpt lat="50.088741" lon="13.410201">
<time>2021-08-22T09:32:31Z</time>
</trkpt>
<trkpt lat="50.088775" lon="13.410234">
<time>2021-08-22T09:32:32Z</time>
</trkpt>
<trkpt lat="50.088811" lon="13.41027">
<time>2021-08-22T09:32:33Z</time>
</trkpt>
<trkpt lat="50.088832" lon="13.410319">
<time>2021-08-22T09:32:34Z</time>
</trkpt>
<trkpt lat="50.088859" lon="13.410329">
<time>2021-08-22T09:32:35Z</time>
</trkpt>
<trkpt lat="50.088891" lon="13.410321">
<time>2021-08-22T09:32:36Z</time>
</trkpt>
<trkpt lat="50.088933" lon="13.410338">
<time>2021-08-22T09:32:37Z</time>
</trkpt>
<trkpt lat="50.088966" lon="13.410358">
<time>2021-08-22T09:32:38Z</time>
</trkpt>
<trkpt lat="50.089001" lon="13.410375">
<time>2021-08-22T09:32:39Z</time>
</trkpt>
<trkpt lat="50.089046" lon="13.410382">
<time>2021-08-22T09:32:40Z</time>
</trkpt>
<trkpt lat="50.089069" lon="13.410384">
<time>2021-08-22T09:32:41Z</time>
</trkpt>
<trkpt lat="50.089085" lon="13.410387">
<time>2021-08-22T09:32:42Z</time>
</trkpt>
<trkpt lat="50.089097" lon="13.410395">
<time>2021-08-22T09:32:43Z</time>
</trkpt>
<trkpt lat="50.089108" lon="13.410397">
<time>2021-08-22T09:32:44Z</time>
</trkpt>
<trkpt lat="50.08911" lon="13.410408">
<time>2021-08-22T09:32:45Z</time>
</trkpt>
<trkpt lat="50.089124" lon="13.410415">
<time>2021-08-22T09:32:46Z</time>
</trkpt>
<trkpt lat="50.089135" lon="13.410435">
<time>2021-08-22T09:32:47Z</time>
</trkpt>
<trkpt lat="50.089138" lon="13.41047">
<time>2021-08-22T09:32:48Z</time>
</trkpt>
<trkpt lat="50.089136" lon="13.410502">
<time>2021-08-22T09:32:49Z</time>
</trkpt>
<trkpt lat="50.089131" lon="13.410527">
<time>2021-08-22T09:32:50Z</time>
</trkpt>
<trkpt lat="50.089119" lon="13.410566">
<time>2021-08-22T09:32:51Z</time>
</trkpt>
<trkpt lat="50.0891" lon="13.410619">
<time>2021-08-22T09:32:52Z</time>
</trkpt>
<trkpt lat="50.089083" lon="13.410655">
<time>2021-08-22T09:32:53Z</time>
</trkpt>
<trkpt lat="50.089062" lon="13.410703">
<time>2021-08-22T09:32:54Z</time>
</trkpt>
<trkpt lat="50.08904" lon="13.410759">
<time>2021-08-22T09:32:55Z</time>
</trkpt>
<trkpt lat="50.089021" lon="13.410818">
<time>2021-08-22T09:32:56Z</time>
</trkpt>
<trkpt lat="50.089005" lon="13.410876">
<time>2021-08-22T09:32:57Z</time>
</trkpt>
<trkpt lat="50.088982" lon="13.410943">
<time>2021-08-22T09:32:58Z</time>
</trkpt>
<trkpt lat="50.088957" lon="13.411005">
<time>2021-08-22T09:32:59Z</time>
</trkpt>
<trkpt lat="50.088933" lon="13.411074">
<time>2021-08-22T09:33:00Z</time>
</trkpt>
<trkpt lat="50.088919" lon="13.411118">
<time>2021-08-22T09:33:01Z</time>
</trkpt>
<trkpt lat="50.088915" lon="13.41117">
<time>2021-08-22T09:33:02Z</time>
</trkpt>
<trkpt lat="50.088926" lon="13.411216">
<time>2021-08-22T09:33:03Z</time>
</trkpt>
<trkpt lat="50.088945" lon="13.411243">
<time>2021-08-22T09:33:04Z</time>
</trkpt>
<trkpt lat="50.088973" lon="13.411263">
<time>2021-08-22T09:33:05Z</time>
</trkpt>
<trkpt lat="50.089" lon="13.41129">
<time>2021-08-22T09:33:06Z</time>
</trkpt>
<trkpt lat="50.089034" lon="13.411314">
<time>2021-08-22T09:33:07Z</time>
</trkpt>
<trkpt lat="50.089071" lon="13.411346">
<time>2021-08-22T09:33:08Z</time>
</trkpt>
<trkpt lat="50.089107" lon="13.411381">
<time>2021-08-22T09:33:09Z</time>
</trkpt>
<trkpt lat="50.089134" lon="13.411409">
<time>2021-08-22T09:33:10Z</time>
</trkpt>
<trkpt lat="50.089158" lon="13.41143">
<time>2021-08-22T09:33:11Z</time>
</trkpt>
<trkpt lat="50.089182" lon="13.411456">
<time>2021-08-22T09:33:12Z</time>
</trkpt>
<trkpt lat="50.08921" lon="13.411479">
<time>2021-08-22T09:33:13Z</time>
</trkpt>
<trkpt lat="50.089235" lon="13.4115">
<time>2021-08-22T09:33:14Z</time>
</trkpt>
<trkpt lat="50.089264" lon="13.411526">
<time>2021-08-22T09:33:15Z</time>
</trkpt>
<trkpt lat="50.089292" lon="13.411552">
<time>2021-08-22T09:33:16Z</time>
</trkpt>
<trkpt lat="50.089319" lon="13.411592">
<time>2021-08-22T09:33:17Z</time>
</trkpt>
<trkpt lat="50.089345" lon="13.411623">
<time>2021-08-22T09:33:18Z</time>
</trkpt>
<trkpt lat="50.089369" lon="13.411651">
<time>2021-08-22T09:33:19Z</time>
</trkpt>
<trkpt lat="50.089404" lon="13.411684">
<time>2021-08-22T09:33:20Z</time>
</trkpt>
<trkpt lat="50.089437" lon="13.411735">
<time>2021-08-22T09:33:21Z</time>
</trkpt>
<trkpt lat="50.089447" lon="13.411758">
<time>2021-08-22T09:33:22Z</time>
</trkpt>
<trkpt lat="50.089453" lon="13.41177">
<time>2021-08-22T09:33:23Z</time>
</trkpt>
<trkpt lat="50.089454" lon="13.411773">
<time>2021-08-22T09:33:24Z</time>
</trkpt>
<trkpt lat="50.089453" lon="13.411777">
<time>2021-08-22T09:33:25Z</time>
</trkpt>
<trkpt lat="50.089455" lon="13.411833">
<time>2021-08-22T09:33:26Z</time>
</trkpt>
<trkpt lat="50.089454" lon="13.411866">
<time>2021-08-22T09:33:27Z</time>
</trkpt>
<trkpt lat="50.089447" lon="13.411869">
<time>2021-08-22T09:33:28Z</time>
</trkpt>
<trkpt lat="50.089437" lon="13.411862">
<time>2021-08-22T09:33:29Z</time>
</trkpt>
<trkpt lat="50.089425" lon="13.411841">
<time>2021-08-22T09:33:30Z</time>
</trkpt>
<trkpt lat="50.089411" lon="13.411823">
<time>2021-08-22T09:33:31Z</time>
</trkpt>
<trkpt lat="50.089402" lon="13.411799">
<time>2021-08-22T09:33:32Z</time>
</trkpt>
<trkpt lat="50.089392" lon="13.411771">
<time>2021-08-22T09:33:33Z</time>
</trkpt>
<trkpt lat="50.089382" lon="13.41173">
<time>2021-08-22T09:33:34Z</time>
</trkpt>
<trkpt lat="50.089369" lon="13.411692">
<time>2021-08-22T09:33:35Z</time>
</trkpt>
<trkpt lat="50.089354" lon="13.411669">
<time>2021-08-22T09:33:36Z</time>
</trkpt>
<trkpt lat="50.089335" lon="13.411653">
<time>2021-08-22T09:33:37Z</time>
</trkpt>
<trkpt lat="50.08932" lon="13.411628">
<time>2021-08-22T09:33:38Z</time>
</trkpt>
<trkpt lat="50.089296" lon="13.411606">
<time>2021-08-22T09:33:39Z</time>
</trkpt>
<trkpt lat="50.089271" lon="13.411589">
<time>2021-08-22T09:33:40Z</time>
</trkpt>
<trkpt lat="50.089252" lon="13.41158">
<time>2021-08-22T09:33:41Z</time>
</trkpt>
<trkpt lat="50.089241" lon="13.411573">
<time>2021-08-22T09:33:42Z</time>
</trkpt>
<trkpt lat="50.089215" lon="13.411555">
<time>2021-08-22T09:33:43Z</time>
</trkpt>
<trkpt lat="50.089197" lon="13.411539">
<time>2021-08-22T09:33:44Z</time>
</trkpt>
<trkpt lat="50.089173" lon="13.411518">
<time>2021-08-22T09:33:45Z</time>
</trkpt>
<trkpt lat="50.089164" lon="13.411502">
<time>2021-08-22T09:33:46Z</time>
</trkpt>
<trkpt lat="50.089141" lon="13.411479">
<time>2021-08-22T09:33:47Z</time>
</trkpt>
<trkpt lat="50.089109" lon="13.411459">
<time>2021-08-22T09:33:48Z</time>
</trkpt>
<trkpt lat="50.089081" lon="13.411435">
<time>2021-08-22T09:33:49Z</time>
</trkpt>
<trkpt lat="50.089056" lon="13.411421">
<time>2021-08-22T09:33:50Z</time>
</trkpt>
<trkpt lat="50.08902" lon="13.411413">
<time>2021-08-22T09:33:51Z</time>
</trkpt>
<trkpt lat="50.088985" lon="13.411429">
<time>2021-08-22T09:33:52Z</time>
</trkpt>
<trkpt lat="50.088959" lon="13.411454">
<time>2021-08-22T09:33:53Z</time>
</trkpt>
<trkpt lat="50.088933" lon="13.411482">
<time>2021-08-22T09:33:54Z</time>
</trkpt>
<trkpt lat="50.088904" lon="13.411514">
<time>2021-08-22T09:33:55Z</time>
</trkpt>
<trkpt lat="50.088881" lon="13.411557">
<time>2021-08-22T09:33:56Z</time>
</trkpt>
<trkpt lat="50.088855" lon="13.411601">
<time>2021-08-22T09:33:57Z</time>
</trkpt>
<trkpt lat="50.088832" lon="13.411643">
<time>2021-08-22T09:33:58Z</time>
</trkpt>
<trkpt lat="50.088816" lon="13.411687">
<time>2021-08-22T09:33:59Z</time>
</trkpt>
<trkpt lat="50.088796" lon="13.411733">
<time>2021-08-22T09:34:00Z</time>
</trkpt>
<trkpt lat="50.088776" lon="13.411779">
<time>2021-08-22T09:34:01Z</time>
</trkpt>
<trkpt lat="50.088756" lon="13.411823">
<time>2021-08-22T09:34:02Z</time>
</trkpt>
<trkpt lat="50.088744" lon="13.411878">
<time>2021-08-22T09:34:03Z</time>
</trkpt>
<trkpt lat="50.088728" lon="13.411945">
<time>2021-08-22T09:34:04Z</time>
</trkpt>
<trkpt lat="50.088698" lon="13.412013">
<time>2021-08-22T09:34:05Z</time>
</trkpt>
<trkpt lat="50.08867" lon="13.412068">
<time>2021-08-22T09:34:06Z</time>
</trkpt>
<trkpt lat="50.088646" lon="13.412129">
<time>2021-08-22T09:34:07Z</time>
</trkpt>
<trkpt lat="50.088626" lon="13.412189">
<time>2021-08-22T09:34:08Z</time>
</trkpt>
<trkpt lat="50.088612" lon="13.412245">
<time>2021-08-22T09:34:09Z</time>
</trkpt>
<trkpt lat="50.088591" lon="13.412296">
<time>2021-08-22T09:34:10Z</time>
</trkpt>
<trkpt lat="50.088566" lon="13.412367">
<time>2021-08-22T09:34:11Z</time>
</trkpt>
<trkpt lat="50.08854" lon="13.412438">
<time>2021-08-22T09:34:12Z</time>
</trkpt>
<trkpt lat="50.08852" lon="13.412494">
<time>2021-08-22T09:34:13Z</time>
</trkpt>
<trkpt lat="50.088509" lon="13.412558">
<time>2021-08-22T09:34:14Z</time>
</trkpt>
<trkpt lat="50.088497" lon="13.412614">
<time>2021-08-22T09:34:15Z</time>
</trkpt>
<trkpt lat="50.088483" lon="13.412683">
<time>2021-08-22T09:34:16Z</time>
</trkpt>
<trkpt lat="50.088477" lon="13.412746">
<time>2021-08-22T09:34:17Z</time>
</trkpt>
<trkpt lat="50.088468" lon="13.412834">
<time>2021-08-22T09:34:18Z</time>
</trkpt>
<trkpt lat="50.08846" lon="13.412905">
<time>2021-08-22T09:34:19Z</time>
</trkpt>
<trkpt lat="50.088454" lon="13.412971">
<time>2021-08-22T09:34:20Z</time>
</trkpt>
<trkpt lat="50.088446" lon="13.413028">
<time>2021-08-22T09:34:21Z</time>
</trkpt>
<trkpt lat="50.088439" lon="13.413089">
<time>2021-08-22T09:34:22Z</time>
</trkpt>
<trkpt lat="50.088434" lon="13.41315">
<time>2021-08-22T09:34:23Z</time>
</trkpt>
<trkpt lat="50.08843" lon="13.413235">
<time>2021-08-22T09:34:24Z</time>
</trkpt>
<trkpt lat="50.088424" lon="13.413294">
<time>2021-08-22T09:34:25Z</time>
</trkpt>
<trkpt lat="50.08841" lon="13.413345">
<time>2021-08-22T09:34:26Z</time>
</trkpt>
<trkpt lat="50.088402" lon="13.413406">
<time>2021-08-22T09:34:27Z</time>
</trkpt>
<trkpt lat="50.088392" lon="13.41346">
<time>2021-08-22T09:34:28Z</time>
</trkpt>
<trkpt lat="50.088378" lon="13.413526">
<time>2021-08-22T09:34:29Z</time>
</trkpt>
<trkpt lat="50.088364" lon="13.41357">
<time>2021-08-22T09:34:30Z</time>
</trkpt>
<trkpt lat="50.088349" lon="13.413611">
<time>2021-08-22T09:34:31Z</time>
</trkpt>
<trkpt lat="50.088331" lon="13.413647">
<time>2021-08-22T09:34:32Z</time>
</trkpt>
<trkpt lat="50.088311" lon="13.413689">
<time>2021-08-22T09:34:33Z</time>
</trkpt>
<trkpt lat="50.088291" lon="13.413732">
<time>2021-08-22T09:34:34Z</time>
</trkpt>
<trkpt lat="50.088273" lon="13.413803">
<time>2021-08-22T09:34:35Z</time>
</trkpt>
<trkpt lat="50.088257" lon="13.413871">
<time>2021-08-22T09:34:36Z</time>
</trkpt>
<trkpt lat="50.088237" lon="13.413919">
<time>2021-08-22T09:34:37Z</time>
</trkpt>
<trkpt lat="50.08822" lon="13.413986">
<time>2021-08-22T09:34:38Z</time>
</trkpt>
<trkpt lat="50.0882" lon="13.414039">
<time>2021-08-22T09:34:39Z</time>
</trkpt>
<trkpt lat="50.088175" lon="13.414095">
<time>2021-08-22T09:34:40Z</time>
</trkpt>
<trkpt lat="50.088153" lon="13.414141">
<time>2021-08-22T09:34:41Z</time>
</trkpt>
<trkpt lat="50.088133" lon="13.414203">
<time>2021-08-22T09:34:42Z</time>
</trkpt>
<trkpt lat="50.088115" lon="13.414262">
<time>2021-08-22T09:34:43Z</time>
</trkpt>
<trkpt lat="50.088091" lon="13.414324">
<time>2021-08-22T09:34:44Z</time>
</trkpt>
<trkpt lat="50.088061" lon="13.41439">
<time>2021-08-22T09:34:45Z</time>
</trkpt>
<trkpt lat="50.088032" lon="13.414461">
<time>2021-08-22T09:34:46Z</time>
</trkpt>
<trkpt lat="50.088014" lon="13.414509">
<time>2021-08-22T09:34:47Z</time>
</trkpt>
<trkpt lat="50.087995" lon="13.41456">
<time>2021-08-22T09:34:48Z</time>
</trkpt>
<trkpt lat="50.087974" lon="13.414605">
<time>2021-08-22T09:34:49Z</time>
</trkpt>
<trkpt lat="50.08795" lon="13.414655">
<time>2021-08-22T09:34:50Z</time>
</trkpt>
<trkpt lat="50.08793" lon="13.414707">
<time>2021-08-22T09:34:51Z</time>
</trkpt>
<trkpt lat="50.087912" lon="13.414757">
<time>2021-08-22T09:34:52Z</time>
</trkpt>
<trkpt lat="50.08789" lon="13.414804">
<time>2021-08-22T09:34:53Z</time>
</trkpt>
<trkpt lat="50.087878" lon="13.414851">
<time>2021-08-22T09:34:54Z</time>
</trkpt>
<trkpt lat="50.087867" lon="13.414906">
<time>2021-08-22T09:34:55Z</time>
</trkpt>
<trkpt lat="50.087851" lon="13.414959">
<time>2021-08-22T09:34:56Z</time>
</trkpt>
<trkpt lat="50.087833" lon="13.415017">
<time>2021-08-22T09:34:57Z</time>
</trkpt>
<trkpt lat="50.087818" lon="13.415077">
<time>2021-08-22T09:34:58Z</time>
</trkpt>
<trkpt lat="50.087806" lon="13.415143">
<time>2021-08-22T09:34:59Z</time>
</trkpt>
<trkpt lat="50.087792" lon="13.415224">
<time>2021-08-22T09:35:00Z</time>
</trkpt>
<trkpt lat="50.087774" lon="13.415294">
<time>2021-08-22T09:35:01Z</time>
</trkpt>
<trkpt lat="50.087761" lon="13.415347">
<time>2021-08-22T09:35:02Z</time>
</trkpt>
<trkpt lat="50.087744" lon="13.415407">
<time>2021-08-22T09:35:03Z</time>
</trkpt>
<trkpt lat="50.087729" lon="13.415476">
<time>2021-08-22T09:35:04Z</time>
</trkpt>
<trkpt lat="50.087724" lon="13.41554">
<time>2021-08-22T09:35:05Z</time>
</trkpt>
<trkpt lat="50.087708" lon="13.4156">
<time>2021-08-22T09:35:06Z</time>
</trkpt>
<trkpt lat="50.087684" lon="13.415682">
<time>2021-08-22T09:35:07Z</time>
</trkpt>
<trkpt lat="50.087669" lon="13.415748">
<time>2021-08-22T09:35:08Z</time>
</trkpt>
<trkpt lat="50.087653" lon="13.415817">
<time>2021-08-22T09:35:09Z</time>
</trkpt>
<trkpt lat="50.08764" lon="13.415872">
<time>2021-08-22T09:35:10Z</time>
</trkpt>
<trkpt lat="50.087631" lon="13.415922">
<time>2021-08-22T09:35:11Z</time>
</trkpt>
<trkpt lat="50.087627" lon="13.415948">
<time>2021-08-22T09:35:12Z</time>
</trkpt>
<trkpt lat="50.087622" lon="13.415965">
<time>2021-08-22T09:35:13Z</time>
</trkpt>
<trkpt lat="50.087621" lon="13.415972">
<time>2021-08-22T09:35:14Z</time>
</trkpt>
<trkpt lat="50.087624" lon="13.415993">
<time>2021-08-22T09:35:15Z</time>
</trkpt>
<trkpt lat="50.087627" lon="13.415992">
<time>2021-08-22T09:35:16Z</time>
</trkpt>
<trkpt lat="50.08763" lon="13.415992">
<time>2021-08-22T09:35:17Z</time>
</trkpt>
<trkpt lat="50.087628" lon="13.415993">
<time>2021-08-22T09:35:18Z</time>
</trkpt>
<trkpt lat="50.087621" lon="13.415999">
<time>2021-08-22T09:35:19Z</time>
</trkpt>
<trkpt lat="50.087608" lon="13.416019">
<time>2021-08-22T09:35:20Z</time>
</trkpt>
<trkpt lat="50.087591" lon="13.416049">
<time>2021-08-22T09:35:21Z</time>
</trkpt>
<trkpt lat="50.087574" lon="13.416083">
<time>2021-08-22T09:35:22Z</time>
</trkpt>
<trkpt lat="50.087554" lon="13.416119">
<time>2021-08-22T09:35:23Z</time>
</trkpt>
<trkpt lat="50.087533" lon="13.416145">
<time>2021-08-22T09:35:24Z</time>
</trkpt>
<trkpt lat="50.087515" lon="13.416161">
<time>2021-08-22T09:35:25Z</time>
</trkpt>
<trkpt lat="50.087493" lon="13.416179">
<time>2021-08-22T09:35:26Z</time>
</trkpt>
<trkpt lat="50.087473" lon="13.416205">
<time>2021-08-22T09:35:27Z</time>
</trkpt>
<trkpt lat="50.087462" lon="13.416222">
<time>2021-08-22T09:35:28Z</time>
</trkpt>
<trkpt lat="50.087467" lon="13.416263">
<time>2021-08-22T09:35:29Z</time>
</trkpt>
<trkpt lat="50.087461" lon="13.416303">
<time>2021-08-22T09:35:30Z</time>
</trkpt>
<trkpt lat="50.087449" lon="13.416347">
<time>2021-08-22T09:35:31Z</time>
</trkpt>
<trkpt lat="50.08744" lon="13.416398">
<time>2021-08-22T09:35:32Z</time>
</trkpt>
<trkpt lat="50.087421" lon="13.416445">
<time>2021-08-22T09:35:33Z</time>
</trkpt>
<trkpt lat="50.087409" lon="13.416503">
<time>2021-08-22T09:35:34Z</time>
</trkpt>
<trkpt lat="50.087401" lon="13.416554">
<time>2021-08-22T09:35:35Z</time>
</trkpt>
<trkpt lat="50.087388" lon="13.416604">
<time>2021-08-22T09:35:36Z</time>
</trkpt>
<trkpt lat="50.087376" lon="13.41666">
<time>2021-08-22T09:35:37Z</time>
</trkpt>
<trkpt lat="50.087363" lon="13.416717">
<time>2021-08-22T09:35:38Z</time>
</trkpt>
<trkpt lat="50.087345" lon="13.416777">
<time>2021-08-22T09:35:39Z</time>
</trkpt>
<trkpt lat="50.087331" lon="13.416838">
<time>2021-08-22T09:35:40Z</time>
</trkpt>
<trkpt lat="50.087314" lon="13.416903">
<time>2021-08-22T09:35:41Z</time>
</trkpt>
<trkpt lat="50.087298" lon="13.41696">
<time>2021-08-22T09:35:42Z</time>
</trkpt>
<trkpt lat="50.087284" lon="13.417019">
<time>2021-08-22T09:35:43Z</time>
</trkpt>
<trkpt lat="50.087275" lon="13.417071">
<time>2021-08-22T09:35:44Z</time>
</trkpt>
<trkpt lat="50.087258" lon="13.417127">
<time>2021-08-22T09:35:45Z</time>
</trkpt>
<trkpt lat="50.087239" lon="13.417186">
<time>2021-08-22T09:35:46Z</time>
</trkpt>
<trkpt lat="50.087223" lon="13.417254">
<time>2021-08-22T09:35:47Z</time>
</trkpt>
<trkpt lat="50.087208" lon="13.417326">
<time>2021-08-22T09:35:48Z</time>
</trkpt>
<trkpt lat="50.087191" lon="13.417398">
<time>2021-08-22T09:35:49Z</time>
</trkpt>
<trkpt lat="50.087169" lon="13.417472">
<time>2021-08-22T09:35:50Z</time>
</trkpt>
<trkpt lat="50.087156" lon="13.417531">
<time>2021-08-22T09:35:51Z</time>
</trkpt>
<trkpt lat="50.087143" lon="13.41759">
<time>2021-08-22T09:35:52Z</time>
</trkpt>
<trkpt lat="50.087128" lon="13.417657">
<time>2021-08-22T09:35:53Z</time>
</trkpt>
<trkpt lat="50.087112" lon="13.417726">
<time>2021-08-22T09:35:54Z</time>
</trkpt>
<trkpt lat="50.08709" lon="13.41779">
<time>2021-08-22T09:35:55Z</time>
</trkpt>
<trkpt lat="50.087065" lon="13.417844">
<time>2021-08-22T09:35:56Z</time>
</trkpt>
<trkpt lat="50.087043" lon="13.4179">
<time>2021-08-22T09:35:57Z</time>
</trkpt>
<trkpt lat="50.08703" lon="13.417958">
<time>2021-08-22T09:35:58Z</time>
</trkpt>
<trkpt lat="50.08702" lon="13.418031">
<time>2021-08-22T09:35:59Z</time>
</trkpt>
<trkpt lat="50.087013" lon="13.418096">
<time>2021-08-22T09:36:00Z</time>
</trkpt>
<trkpt lat="50.087007" lon="13.418165">
<time>2021-08-22T09:36:01Z</time>
</trkpt>
<trkpt lat="50.086995" lon="13.418229">
<time>2021-08-22T09:36:02Z</time>
</trkpt>
<trkpt lat="50.086983" lon="13.418288">
<time>2021-08-22T09:36:03Z</time>
</trkpt>
<trkpt lat="50.086969" lon="13.41835">
<time>2021-08-22T09:36:04Z</time>
</trkpt>
<trkpt lat="50.08695" lon="13.418415">
<time>2021-08-22T09:36:05Z</time>
</trkpt>
<trkpt lat="50.086933" lon="13.418474">
<time>2021-08-22T09:36:06Z</time>
</trkpt>
<trkpt lat="50.086912" lon="13.41853">
<time>2021-08-22T09:36:07Z</time>
</trkpt>
<trkpt lat="50.086892" lon="13.418581">
<time>2021-08-22T09:36:08Z</time>
</trkpt>
<trkpt lat="50.086878" lon="13.418629">
<time>2021-08-22T09:36:09Z</time>
</trkpt>
<trkpt lat="50.086862" lon="13.418686">
<time>2021-08-22T09:36:10Z</time>
</trkpt>
<trkpt lat="50.08685" lon="13.418743">
<time>2021-08-22T09:36:11Z</time>
</trkpt>
<trkpt lat="50.086842" lon="13.418808">
<time>2021-08-22T09:36:12Z</time>
</trkpt>
<trkpt lat="50.086831" lon="13.41887">
<time>2021-08-22T09:36:13Z</time>
</trkpt>
<trkpt lat="50.086822" lon="13.418929">
<time>2021-08-22T09:36:14Z</time>
</trkpt>
<trkpt lat="50.086817" lon="13.418993">
<time>2021-08-22T09:36:15Z</time>
</trkpt>
<trkpt lat="50.086815" lon="13.419048">
<time>2021-08-22T09:36:16Z</time>
</trkpt>
<trkpt lat="50.08681" lon="13.419111">
<time>2021-08-22T09:36:17Z</time>
</trkpt>
<trkpt lat="50.086809" lon="13.419173">
<time>2021-08-22T09:36:18Z</time>
</trkpt>
<trkpt lat="50.086802" lon="13.419236">
<time>2021-08-22T09:36:19Z</time>
</trkpt>
<trkpt lat="50.086793" lon="13.419311">
<time>2021-08-22T09:36:20Z</time>
</trkpt>
<trkpt lat="50.086783" lon="13.419372">
<time>2021-08-22T09:36:21Z</time>
</trkpt>
<trkpt lat="50.086766" lon="13.419436">
<time>2021-08-22T09:36:22Z</time>
</trkpt>
<trkpt lat="50.086755" lon="13.419503">
<time>2021-08-22T09:36:23Z</time>
</trkpt>
<trkpt lat="50.086746" lon="13.419571">
<time>2021-08-22T09:36:24Z</time>
</trkpt>
<trkpt lat="50.086729" lon="13.419639">
<time>2021-08-22T09:36:25Z</time>
</trkpt>
<trkpt lat="50.086712" lon="13.419697">
<time>2021-08-22T09:36:26Z</time>
</trkpt>
<trkpt lat="50.086694" lon="13.419758">
<time>2021-08-22T09:36:27Z</time>
</trkpt>
<trkpt lat="50.086677" lon="13.419801">
<time>2021-08-22T09:36:28Z</time>
</trkpt>
<trkpt lat="50.086666" lon="13.419847">
<time>2021-08-22T09:36:29Z</time>
</trkpt>
<trkpt lat="50.086656" lon="13.4199">
<time>2021-08-22T09:36:30Z</time>
</trkpt>
<trkpt lat="50.086653" lon="13.419946">
<time>2021-08-22T09:36:31Z</time>
</trkpt>
<trkpt lat="50.086653" lon="13.420007">
<time>2021-08-22T09:36:32Z</time>
</trkpt>
<trkpt lat="50.086655" lon="13.420084">
<time>2021-08-22T09:36:33Z</time>
</trkpt>
<trkpt lat="50.08666" lon="13.420145">
<time>2021-08-22T09:36:34Z</time>
</trkpt>
<trkpt lat="50.086662" lon="13.420207">
<time>2021-08-22T09:36:35Z</time>
</trkpt>
<trkpt lat="50.086658" lon="13.420271">
<time>2021-08-22T09:36:36Z</time>
</trkpt>
<trkpt lat="50.086649" lon="13.420328">
<time>2021-08-22T09:36:37Z</time>
</trkpt>
<trkpt lat="50.086644" lon="13.420414">
<time>2021-08-22T09:36:38Z</time>
</trkpt>
<trkpt lat="50.086635" lon="13.420477">
<time>2021-08-22T09:36:39Z</time>
</trkpt>
<trkpt lat="50.086628" lon="13.420536">
<time>2021-08-22T09:36:40Z</time>
</trkpt>
<trkpt lat="50.086615" lon="13.420584">
<time>2021-08-22T09:36:41Z</time>
</trkpt>
<trkpt lat="50.086595" lon="13.420628">
<time>2021-08-22T09:36:42Z</time>
</trkpt>
<trkpt lat="50.086578" lon="13.420674">
<time>2021-08-22T09:36:43Z</time>
</trkpt>
<trkpt lat="50.086559" lon="13.420726">
<time>2021-08-22T09:36:44Z</time>
</trkpt>
<trkpt lat="50.086529" lon="13.420781">
<time>2021-08-22T09:36:45Z</time>
</trkpt>
<trkpt lat="50.086497" lon="13.420843">
<time>2021-08-22T09:36:46Z</time>
</trkpt>
<trkpt lat="50.086465" lon="13.420903">
<time>2021-08-22T09:36:47Z</time>
</trkpt>
<trkpt lat="50.086432" lon="13.420962">
<time>2021-08-22T09:36:48Z</time>
</trkpt>
<trkpt lat="50.086395" lon="13.421031">
<time>2021-08-22T09:36:49Z</time>
</trkpt>
<trkpt lat="50.086357" lon="13.421095">
<time>2021-08-22T09:36:50Z</time>
</trkpt>
<trkpt lat="50.086313" lon="13.421149">
<time>2021-08-22T09:36:51Z</time>
</trkpt>
<trkpt lat="50.086265" lon="13.421192">
<time>2021-08-22T09:36:52Z</time>
</trkpt>
<trkpt lat="50.08621" lon="13.421232">
<time>2021-08-22T09:36:53Z</time>
</trkpt>
<trkpt lat="50.086153" lon="13.421264">
<time>2021-08-22T09:36:54Z</time>
</trkpt>
<trkpt lat="50.086094" lon="13.421291">
<time>2021-08-22T09:36:55Z</time>
</trkpt>
<trkpt lat="50.086031" lon="13.421321">
<time>2021-08-22T09:36:56Z</time>
</trkpt>
<trkpt lat="50.085971" lon="13.421359">
<time>2021-08-22T09:36:57Z</time>
</trkpt>
<trkpt lat="50.085919" lon="13.421411">
<time>2021-08-22T09:36:58Z</time>
</trkpt>
<trkpt lat="50.08587" lon="13.421471">
<time>2021-08-22T09:36:59Z</time>
</trkpt>
<trkpt lat="50.085825" lon="13.421536">
<time>2021-08-22T09:37:00Z</time>
</trkpt>
<trkpt lat="50.085774" lon="13.4216">
<time>2021-08-22T09:37:01Z</time>
</trkpt>
<trkpt lat="50.085721" lon="13.421683">
<time>2021-08-22T09:37:02Z</time>
</trkpt>
<trkpt lat="50.08567" lon="13.421746">
<time>2021-08-22T09:37:03Z</time>
</trkpt>
<trkpt lat="50.085618" lon="13.421812">
<time>2021-08-22T09:37:04Z</time>
</trkpt>
<trkpt lat="50.085569" lon="13.421866">
<time>2021-08-22T09:37:05Z</time>
</trkpt>
<trkpt lat="50.085525" lon="13.4219">
<time>2021-08-22T09:37:06Z</time>
</trkpt>
<trkpt lat="50.085481" lon="13.421932">
<time>2021-08-22T09:37:07Z</time>
</trkpt>
<trkpt lat="50.085431" lon="13.421961">
<time>2021-08-22T09:37:08Z</time>
</trkpt>
<trkpt lat="50.085385" lon="13.422007">
<time>2021-08-22T09:37:09Z</time>
</trkpt>
<trkpt lat="50.085337" lon="13.422057">
<time>2021-08-22T09:37:10Z</time>
</trkpt>
<trkpt lat="50.08529" lon="13.422109">
<time>2021-08-22T09:37:11Z</time>
</trkpt>
<trkpt lat="50.085239" lon="13.422154">
<time>2021-08-22T09:37:12Z</time>
</trkpt>
<trkpt lat="50.085194" lon="13.422195">
<time>2021-08-22T09:37:13Z</time>
</trkpt>
<trkpt lat="50.085147" lon="13.422239">
<time>2021-08-22T09:37:14Z</time>
</trkpt>
<trkpt lat="50.085101" lon="13.422282">
<time>2021-08-22T09:37:15Z</time>
</trkpt>
<trkpt lat="50.085055" lon="13.422314">
<time>2021-08-22T09:37:16Z</time>
</trkpt>
<trkpt lat="50.085017" lon="13.422348">
<time>2021-08-22T09:37:17Z</time>
</trkpt>
<trkpt lat="50.08498" lon="13.422379">
<time>2021-08-22T09:37:18Z</time>
</trkpt>
<trkpt lat="50.084943" lon="13.422408">
<time>2021-08-22T09:37:19Z</time>
</trkpt>
<trkpt lat="50.084904" lon="13.422438">
<time>2021-08-22T09:37:20Z</time>
</trkpt>
<trkpt lat="50.084864" lon="13.422473">
<time>2021-08-22T09:37:21Z</time>
</trkpt>
<trkpt lat="50.084834" lon="13.422498">
<time>2021-08-22T09:37:22Z</time>
</trkpt>
<trkpt lat="50.084818" lon="13.422536">
<time>2021-08-22T09:37:23Z</time>
</trkpt>
<trkpt lat="50.084812" lon="13.422587">
<time>2021-08-22T09:37:24Z</time>
</trkpt>
<trkpt lat="50.084814" lon="13.422646">
<time>2021-08-22T09:37:25Z</time>
</trkpt>
<trkpt lat="50.084824" lon="13.422706">
<time>2021-08-22T09:37:26Z</time>
</trkpt>
<trkpt lat="50.084836" lon="13.422777">
<time>2021-08-22T09:37:27Z</time>
</trkpt>
<trkpt lat="50.084854" lon="13.422845">
<time>2021-08-22T09:37:28Z</time>
</trkpt>
<trkpt lat="50.084872" lon="13.422909">
<time>2021-08-22T09:37:29Z</time>
</trkpt>
<trkpt lat="50.084887" lon="13.422971">
<time>2021-08-22T09:37:30Z</time>
</trkpt>
<trkpt lat="50.084897" lon="13.423029">
<time>2021-08-22T09:37:31Z</time>
</trkpt>
<trkpt lat="50.084904" lon="13.423093">
<time>2021-08-22T09:37:32Z</time>
</trkpt>
<trkpt lat="50.084916" lon="13.423148">
<time>2021-08-22T09:37:33Z</time>
</trkpt>
<trkpt lat="50.084923" lon="13.423226">
<time>2021-08-22T09:37:34Z</time>
</trkpt>
<trkpt lat="50.084924" lon="13.4233">
<time>2021-08-22T09:37:35Z</time>
</trkpt>
<trkpt lat="50.084921" lon="13.423382">
<time>2021-08-22T09:37:36Z</time>
</trkpt>
<trkpt lat="50.084923" lon="13.423456">
<time>2021-08-22T09:37:37Z</time>
</trkpt>
<trkpt lat="50.084928" lon="13.423526">
<time>2021-08-22T09:37:38Z</time>
</trkpt>
<trkpt lat="50.084935" lon="13.423591">
<time>2021-08-22T09:37:39Z</time>
</trkpt>
<trkpt lat="50.084939" lon="13.423654">
<time>2021-08-22T09:37:40Z</time>
</trkpt>
<trkpt lat="50.084941" lon="13.423712">
<time>2021-08-22T09:37:41Z</time>
</trkpt>
<trkpt lat="50.084941" lon="13.423769">
<time>2021-08-22T09:37:42Z</time>
</trkpt>
<trkpt lat="50.084944" lon="13.423829">
<time>2021-08-22T09:37:43Z</time>
</trkpt>
<trkpt lat="50.084947" lon="13.423898">
<time>2021-08-22T09:37:44Z</time>
</trkpt>
<trkpt lat="50.084949" lon="13.423967">
<time>2021-08-22T09:37:45Z</time>
</trkpt>
<trkpt lat="50.084949" lon="13.424043">
<time>2021-08-22T09:37:46Z</time>
</trkpt>
<trkpt lat="50.08495" lon="13.424111">
<time>2021-08-22T09:37:47Z</time>
</trkpt>
<trkpt lat="50.08495" lon="13.424173">
<time>2021-08-22T09:37:48Z</time>
</trkpt>
<trkpt lat="50.084949" lon="13.42424">
<time>2021-08-22T09:37:49Z</time>
</trkpt>
<trkpt lat="50.084947" lon="13.424308">
<time>2021-08-22T09:37:50Z</time>
</trkpt>
<trkpt lat="50.084943" lon="13.424379">
<time>2021-08-22T09:37:51Z</time>
</trkpt>
<trkpt lat="50.084939" lon="13.424443">
<time>2021-08-22T09:37:52Z</time>
</trkpt>
<trkpt lat="50.08494" lon="13.424506">
<time>2021-08-22T09:37:53Z</time>
</trkpt>
<trkpt lat="50.084946" lon="13.42457">
<time>2021-08-22T09:37:54Z</time>
</trkpt>
<trkpt lat="50.084948" lon="13.424636">
<time>2021-08-22T09:37:55Z</time>
</trkpt>
<trkpt lat="50.084948" lon="13.424693">
<time>2021-08-22T09:37:56Z</time>
</trkpt>
<trkpt lat="50.084944" lon="13.424756">
<time>2021-08-22T09:37:57Z</time>
</trkpt>
<trkpt lat="50.08494" lon="13.424822">
<time>2021-08-22T09:37:58Z</time>
</trkpt>
<trkpt lat="50.08494" lon="13.424883">
<time>2021-08-22T09:37:59Z</time>
</trkpt>
<trkpt lat="50.08495" lon="13.424939">
<time>2021-08-22T09:38:00Z</time>
</trkpt>
<trkpt lat="50.084964" lon="13.424996">
<time>2021-08-22T09:38:01Z</time>
</trkpt>
<trkpt lat="50.084974" lon="13.425059">
<time>2021-08-22T09:38:02Z</time>
</trkpt>
<trkpt lat="50.084981" lon="13.425111">
<time>2021-08-22T09:38:03Z</time>
</trkpt>
<trkpt lat="50.084986" lon="13.425159">
<time>2021-08-22T09:38:04Z</time>
</trkpt>
<trkpt lat="50.084989" lon="13.425208">
<time>2021-08-22T09:38:05Z</time>
</trkpt>
<trkpt lat="50.084998" lon="13.425266">
<time>2021-08-22T09:38:06Z</time>
</trkpt>
<trkpt lat="50.085" lon="13.425325">
<time>2021-08-22T09:38:07Z</time>
</trkpt>
<trkpt lat="50.085008" lon="13.425391">
<time>2021-08-22T09:38:08Z</time>
</trkpt>
<trkpt lat="50.085018" lon="13.425462">
<time>2021-08-22T09:38:09Z</time>
</trkpt>
<trkpt lat="50.085031" lon="13.425533">
<time>2021-08-22T09:38:10Z</time>
</trkpt>
<trkpt lat="50.08504" lon="13.425603">
<time>2021-08-22T09:38:11Z</time>
</trkpt>
<trkpt lat="50.085044" lon="13.425666">
<time>2021-08-22T09:38:12Z</time>
</trkpt>
<trkpt lat="50.085049" lon="13.425741">
<time>2021-08-22T09:38:13Z</time>
</trkpt>
<trkpt lat="50.085055" lon="13.425821">
<time>2021-08-22T09:38:14Z</time>
</trkpt>
<trkpt lat="50.085058" lon="13.425903">
<time>2021-08-22T09:38:15Z</time>
</trkpt>
<trkpt lat="50.085064" lon="13.425981">
<time>2021-08-22T09:38:16Z</time>
</trkpt>
<trkpt lat="50.085074" lon="13.426052">
<time>2021-08-22T09:38:17Z</time>
</trkpt>
<trkpt lat="50.085083" lon="13.426128">
<time>2021-08-22T09:38:18Z</time>
</trkpt>
<trkpt lat="50.085096" lon="13.426207">
<time>2021-08-22T09:38:19Z</time>
</trkpt>
<trkpt lat="50.085109" lon="13.426278">
<time>2021-08-22T09:38:20Z</time>
</trkpt>
<trkpt lat="50.085123" lon="13.426342">
<time>2021-08-22T09:38:21Z</time>
</trkpt>
<trkpt lat="50.085136" lon="13.426409">
<time>2021-08-22T09:38:22Z</time>
</trkpt>
<trkpt lat="50.085147" lon="13.426477">
<time>2021-08-22T09:38:23Z</time>
</trkpt>
<trkpt lat="50.085154" lon="13.42654">
<time>2021-08-22T09:38:24Z</time>
</trkpt>
<trkpt lat="50.085165" lon="13.426606">
<time>2021-08-22T09:38:25Z</time>
</trkpt>
<trkpt lat="50.085176" lon="13.426666">
<time>2021-08-22T09:38:26Z</time>
</trkpt>
<trkpt lat="50.085193" lon="13.426726">
<time>2021-08-22T09:38:27Z</time>
</trkpt>
<trkpt lat="50.085212" lon="13.426788">
<time>2021-08-22T09:38:28Z</time>
</trkpt>
<trkpt lat="50.085229" lon="13.42685">
<time>2021-08-22T09:38:29Z</time>
</trkpt>
<trkpt lat="50.085239" lon="13.426911">
<time>2021-08-22T09:38:30Z</time>
</trkpt>
<trkpt lat="50.085251" lon="13.426978">
<time>2021-08-22T09:38:31Z</time>
</trkpt>
<trkpt lat="50.085269" lon="13.427053">
<time>2021-08-22T09:38:32Z</time>
</trkpt>
<trkpt lat="50.085286" lon="13.427124">
<time>2021-08-22T09:38:33Z</time>
</trkpt>
<trkpt lat="50.085293" lon="13.427197">
<time>2021-08-22T09:38:34Z</time>
</trkpt>
<trkpt lat="50.085299" lon="13.427277">
<time>2021-08-22T09:38:35Z</time>
</trkpt>
<trkpt lat="50.085296" lon="13.427357">
<time>2021-08-22T09:38:36Z</time>
</trkpt>
<trkpt lat="50.085296" lon="13.427452">
<time>2021-08-22T09:38:37Z</time>
</trkpt>
<trkpt lat="50.085297" lon="13.427546">
<time>2021-08-22T09:38:38Z</time>
</trkpt>
<trkpt lat="50.085299" lon="13.427644">
<time>2021-08-22T09:38:39Z</time>
</trkpt>
<trkpt lat="50.0853" lon="13.427727">
<time>2021-08-22T09:38:40Z</time>
</trkpt>
<trkpt lat="50.085301" lon="13.427812">
<time>2021-08-22T09:38:41Z</time>
</trkpt>
<trkpt lat="50.085311" lon="13.427894">
<time>2021-08-22T09:38:42Z</time>
</trkpt>
<trkpt lat="50.08532" lon="13.427971">
<time>2021-08-22T09:38:43Z</time>
</trkpt>
<trkpt lat="50.085338" lon="13.428055">
<time>2021-08-22T09:38:44Z</time>
</trkpt>
<trkpt lat="50.085355" lon="13.428134">
<time>2021-08-22T09:38:45Z</time>
</trkpt>
<trkpt lat="50.085381" lon="13.42822">
<time>2021-08-22T09:38:46Z</time>
</trkpt>
<trkpt lat="50.085396" lon="13.4283">
<time>2021-08-22T09:38:47Z</time>
</trkpt>
<trkpt lat="50.085408" lon="13.428386">
<time>2021-08-22T09:38:48Z</time>
</trkpt>
<trkpt lat="50.085418" lon="13.428481">
<time>2021-08-22T09:38:49Z</time>
</trkpt>
<trkpt lat="50.085411" lon="13.428571">
<time>2021-08-22T09:38:50Z</time>
</trkpt>
<trkpt lat="50.085403" lon="13.428692">
<time>2021-08-22T09:38:51Z</time>
</trkpt>
<trkpt lat="50.085392" lon="13.4288">
<time>2021-08-22T09:38:52Z</time>
</trkpt>
<trkpt lat="50.085382" lon="13.428885">
<time>2021-08-22T09:38:53Z</time>
</trkpt>
<trkpt lat="50.085373" lon="13.428978">
<time>2021-08-22T09:38:54Z</time>
</trkpt>
<trkpt lat="50.085365" lon="13.429096">
<time>2021-08-22T09:38:55Z</time>
</trkpt>
<trkpt lat="50.085351" lon="13.429204">
<time>2021-08-22T09:38:56Z</time>
</trkpt>
<trkpt lat="50.085331" lon="13.429292">
<time>2021-08-22T09:38:57Z</time>
</trkpt>
<trkpt lat="50.085319" lon="13.429393">
<time>2021-08-22T09:38:58Z</time>
</trkpt>
<trkpt lat="50.085309" lon="13.42949">
<time>2021-08-22T09:38:59Z</time>
</trkpt>
<trkpt lat="50.085298" lon="13.429579">
<time>2021-08-22T09:39:00Z</time>
</trkpt>
<trkpt lat="50.085287" lon="13.429664">
<time>2021-08-22T09:39:01Z</time>
</trkpt>
<trkpt lat="50.085282" lon="13.42974">
<time>2021-08-22T09:39:02Z</time>
</trkpt>
<trkpt lat="50.085281" lon="13.429819">
<time>2021-08-22T09:39:03Z</time>
</trkpt>
<trkpt lat="50.085279" lon="13.429902">
<time>2021-08-22T09:39:04Z</time>
</trkpt>
<trkpt lat="50.085278" lon="13.42998">
<time>2021-08-22T09:39:05Z</time>
</trkpt>
<trkpt lat="50.085275" lon="13.430094">
<time>2021-08-22T09:39:06Z</time>
</trkpt>
<trkpt lat="50.085278" lon="13.430155">
<time>2021-08-22T09:39:07Z</time>
</trkpt>
<trkpt lat="50.085283" lon="13.430243">
<time>2021-08-22T09:39:08Z</time>
</trkpt>
<trkpt lat="50.085285" lon="13.430315">
<time>2021-08-22T09:39:09Z</time>
</trkpt>
<trkpt lat="50.08529" lon="13.430383">
<time>2021-08-22T09:39:10Z</time>
</trkpt>
<trkpt lat="50.085292" lon="13.430476">
<time>2021-08-22T09:39:11Z</time>
</trkpt>
<trkpt lat="50.085295" lon="13.430581">
<time>2021-08-22T09:39:12Z</time>
</trkpt>
<trkpt lat="50.085302" lon="13.43065">
<time>2021-08-22T09:39:13Z</time>
</trkpt>
<trkpt lat="50.085303" lon="13.430747">
<time>2021-08-22T09:39:14Z</time>
</trkpt>
<trkpt lat="50.085291" lon="13.430861">
<time>2021-08-22T09:39:15Z</time>
</trkpt>
<trkpt lat="50.085279" lon="13.43096">
<time>2021-08-22T09:39:16Z</time>
</trkpt>
<trkpt lat="50.085281" lon="13.431046">
<time>2021-08-22T09:39:17Z</time>
</trkpt>
<trkpt lat="50.085298" lon="13.431129">
<time>2021-08-22T09:39:18Z</time>
</trkpt>
<trkpt lat="50.085321" lon="13.43121">
<time>2021-08-22T09:39:19Z</time>
</trkpt>
<trkpt lat="50.085337" lon="13.431297">
<time>2021-08-22T09:39:20Z</time>
</trkpt>
<trkpt lat="50.085345" lon="13.431376">
<time>2021-08-22T09:39:21Z</time>
</trkpt>
<trkpt lat="50.085339" lon="13.431456">
<time>2021-08-22T09:39:22Z</time>
</trkpt>
<trkpt lat="50.08533" lon="13.431534">
<time>2021-08-22T09:39:23Z</time>
</trkpt>
<trkpt lat="50.085324" lon="13.431597">
<time>2021-08-22T09:39:24Z</time>
</trkpt>
<trkpt lat="50.085318" lon="13.43167">
<time>2021-08-22T09:39:25Z</time>
</trkpt>
<trkpt lat="50.085316" lon="13.43174">
<time>2021-08-22T09:39:26Z</time>
</trkpt>
<trkpt lat="50.085316" lon="13.431794">
<time>2021-08-22T09:39:27Z</time>
</trkpt>
<trkpt lat="50.085316" lon="13.431822">
<time>2021-08-22T09:39:28Z</time>
</trkpt>
<trkpt lat="50.085319" lon="13.431848">
<time>2021-08-22T09:39:29Z</time>
</trkpt>
<trkpt lat="50.085324" lon="13.431878">
<time>2021-08-22T09:39:30Z</time>
</trkpt>
<trkpt lat="50.085332" lon="13.431937">
<time>2021-08-22T09:39:31Z</time>
</trkpt>
<trkpt lat="50.085351" lon="13.43198">
<time>2021-08-22T09:39:32Z</time>
</trkpt>
<trkpt lat="50.08537" lon="13.432036">
<time>2021-08-22T09:39:33Z</time>
</trkpt>
<trkpt lat="50.085385" lon="13.432122">
<time>2021-08-22T09:39:34Z</time>
</trkpt>
<trkpt lat="50.085401" lon="13.432196">
<time>2021-08-22T09:39:35Z</time>
</trkpt>
<trkpt lat="50.085416" lon="13.432298">
<time>2021-08-22T09:39:36Z</time>
</trkpt>
<trkpt lat="50.085439" lon="13.432394">
<time>2021-08-22T09:39:37Z</time>
</trkpt>
<trkpt lat="50.085462" lon="13.432491">
<time>2021-08-22T09:39:38Z</time>
</trkpt>
<trkpt lat="50.085482" lon="13.432615">
<time>2021-08-22T09:39:39Z</time>
</trkpt>
<trkpt lat="50.085491" lon="13.432711">
<time>2021-08-22T09:39:40Z</time>
</trkpt>
<trkpt lat="50.085487" lon="13.432822">
<time>2021-08-22T09:39:41Z</time>
</trkpt>
<trkpt lat="50.085469" lon="13.4329">
<time>2021-08-22T09:39:42Z</time>
</trkpt>
<trkpt lat="50.085447" lon="13.432976">
<time>2021-08-22T09:39:43Z</time>
</trkpt>
<trkpt lat="50.085428" lon="13.433052">
<time>2021-08-22T09:39:44Z</time>
</trkpt>
<trkpt lat="50.085406" lon="13.433164">
<time>2021-08-22T09:39:45Z</time>
</trkpt>
<trkpt lat="50.085398" lon="13.433216">
<time>2021-08-22T09:39:46Z</time>
</trkpt>
<trkpt lat="50.085391" lon="13.433257">
<time>2021-08-22T09:39:47Z</time>
</trkpt>
<trkpt lat="50.085386" lon="13.433309">
<time>2021-08-22T09:39:48Z</time>
</trkpt>
<trkpt lat="50.085392" lon="13.433367">
<time>2021-08-22T09:39:49Z</time>
</trkpt>
<trkpt lat="50.085404" lon="13.43339">
<time>2021-08-22T09:39:50Z</time>
</trkpt>
<trkpt lat="50.085406" lon="13.433418">
<time>2021-08-22T09:39:51Z</time>
</trkpt>
<trkpt lat="50.085405" lon="13.433456">
<time>2021-08-22T09:39:52Z</time>
</trkpt>
<trkpt lat="50.085408" lon="13.43352">
<time>2021-08-22T09:39:53Z</time>
</trkpt>
<trkpt lat="50.085413" lon="13.433564">
<time>2021-08-22T09:39:54Z</time>
</trkpt>
<trkpt lat="50.085422" lon="13.433622">
<time>2021-08-22T09:39:55Z</time>
</trkpt>
<trkpt lat="50.085433" lon="13.433679">
<time>2021-08-22T09:39:56Z</time>
</trkpt>
<trkpt lat="50.085437" lon="13.433733">
<time>2021-08-22T09:39:57Z</time>
</trkpt>
<trkpt lat="50.085443" lon="13.433825">
<time>2021-08-22T09:39:58Z</time>
</trkpt>
<trkpt lat="50.085448" lon="13.433888">
<time>2021-08-22T09:39:59Z</time>
</trkpt>
<trkpt lat="50.085457" lon="13.433946">
<time>2021-08-22T09:40:00Z</time>
</trkpt>
<trkpt lat="50.085474" lon="13.434017">
<time>2021-08-22T09:40:01Z</time>
</trkpt>
<trkpt lat="50.085486" lon="13.434085">
<time>2021-08-22T09:40:02Z</time>
</trkpt>
<trkpt lat="50.085502" lon="13.434152">
<time>2021-08-22T09:40:03Z</time>
</trkpt>
<trkpt lat="50.085515" lon="13.434221">
<time>2021-08-22T09:40:04Z</time>
</trkpt>
<trkpt lat="50.085531" lon="13.434286">
<time>2021-08-22T09:40:05Z</time>
</trkpt>
<trkpt lat="50.085536" lon="13.434355">
<time>2021-08-22T09:40:06Z</time>
</trkpt>
<trkpt lat="50.085536" lon="13.434425">
<time>2021-08-22T09:40:07Z</time>
</trkpt>
<trkpt lat="50.08551" lon="13.434527">
<time>2021-08-22T09:40:08Z</time>
</trkpt>
<trkpt lat="50.085494" lon="13.434599">
<time>2021-08-22T09:40:09Z</time>
</trkpt>
<trkpt lat="50.085488" lon="13.43464">
<time>2021-08-22T09:40:10Z</time>
</trkpt>
<trkpt lat="50.085489" lon="13.434665">
<time>2021-08-22T09:40:11Z</time>
</trkpt>
<trkpt lat="50.085491" lon="13.434696">
<time>2021-08-22T09:40:12Z</time>
</trkpt>
<trkpt lat="50.085484" lon="13.43474">
<time>2021-08-22T09:40:13Z</time>
</trkpt>
<trkpt lat="50.085481" lon="13.434756">
<time>2021-08-22T09:40:14Z</time>
</trkpt>
<trkpt lat="50.08547" lon="13.434801">
<time>2021-08-22T09:40:15Z</time>
</trkpt>
<trkpt lat="50.085472" lon="13.434841">
<time>2021-08-22T09:40:16Z</time>
</trkpt>
<trkpt lat="50.085465" lon="13.434863">
<time>2021-08-22T09:40:17Z</time>
</trkpt>
<trkpt lat="50.085454" lon="13.434887">
<time>2021-08-22T09:40:18Z</time>
</trkpt>
<trkpt lat="50.08544" lon="13.434917">
<time>2021-08-22T09:40:19Z</time>
</trkpt>
<trkpt lat="50.085424" lon="13.434955">
<time>2021-08-22T09:40:20Z</time>
</trkpt>
<trkpt lat="50.085404" lon="13.434984">
<time>2021-08-22T09:40:21Z</time>
</trkpt>
<trkpt lat="50.085383" lon="13.435016">
<time>2021-08-22T09:40:22Z</time>
</trkpt>
<trkpt lat="50.08536" lon="13.435048">
<time>2021-08-22T09:40:23Z</time>
</trkpt>
<trkpt lat="50.085352" lon="13.435084">
<time>2021-08-22T09:40:24Z</time>
</trkpt>
<trkpt lat="50.085333" lon="13.435099">
<time>2021-08-22T09:40:25Z</time>
</trkpt>
<trkpt lat="50.085311" lon="13.435122">
<time>2021-08-22T09:40:26Z</time>
</trkpt>
<trkpt lat="50.085284" lon="13.435144">
<time>2021-08-22T09:40:27Z</time>
</trkpt>
<trkpt lat="50.085261" lon="13.435174">
<time>2021-08-22T09:40:28Z</time>
</trkpt>
<trkpt lat="50.085241" lon="13.435212">
<time>2021-08-22T09:40:29Z</time>
</trkpt>
<trkpt lat="50.085217" lon="13.43524">
<time>2021-08-22T09:40:30Z</time>
</trkpt>
<trkpt lat="50.085195" lon="13.435259">
<time>2021-08-22T09:40:31Z</time>
</trkpt>
<trkpt lat="50.085168" lon="13.435271">
<time>2021-08-22T09:40:32Z</time>
</trkpt>
<trkpt lat="50.085143" lon="13.435283">
<time>2021-08-22T09:40:33Z</time>
</trkpt>
<trkpt lat="50.085118" lon="13.435297">
<time>2021-08-22T09:40:34Z</time>
</trkpt>
<trkpt lat="50.08509" lon="13.435312">
<time>2021-08-22T09:40:35Z</time>
</trkpt>
<trkpt lat="50.085063" lon="13.43533">
<time>2021-08-22T09:40:36Z</time>
</trkpt>
<trkpt lat="50.085039" lon="13.435347">
<time>2021-08-22T09:40:37Z</time>
</trkpt>
<trkpt lat="50.085015" lon="13.435359">
<time>2021-08-22T09:40:38Z</time>
</trkpt>
<trkpt lat="50.084991" lon="13.435376">
<time>2021-08-22T09:40:39Z</time>
</trkpt>
<trkpt lat="50.084966" lon="13.435398">
<time>2021-08-22T09:40:40Z</time>
</trkpt>
<trkpt lat="50.084942" lon="13.435414">
<time>2021-08-22T09:40:41Z</time>
</trkpt>
<trkpt lat="50.084916" lon="13.435425">
<time>2021-08-22T09:40:42Z</time>
</trkpt>
<trkpt lat="50.084892" lon="13.435443">
<time>2021-08-22T09:40:43Z</time>
</trkpt>
<trkpt lat="50.08487" lon="13.435461">
<time>2021-08-22T09:40:44Z</time>
</trkpt>
<trkpt lat="50.084848" lon="13.435469">
<time>2021-08-22T09:40:45Z</time>
</trkpt>
<trkpt lat="50.084822" lon="13.435475">
<time>2021-08-22T09:40:46Z</time>
</trkpt>
<trkpt lat="50.084796" lon="13.435481">
<time>2021-08-22T09:40:47Z</time>
</trkpt>
<trkpt lat="50.084766" lon="13.435489">
<time>2021-08-22T09:40:48Z</time>
</trkpt>
<trkpt lat="50.08474" lon="13.435507">
<time>2021-08-22T09:40:49Z</time>
</trkpt>
<trkpt lat="50.084718" lon="13.435525">
<time>2021-08-22T09:40:50Z</time>
</trkpt>
<trkpt lat="50.08469" lon="13.435534">
<time>2021-08-22T09:40:51Z</time>
</trkpt>
<trkpt lat="50.084665" lon="13.435543">
<time>2021-08-22T09:40:52Z</time>
</trkpt>
<trkpt lat="50.084636" lon="13.435548">
<time>2021-08-22T09:40:53Z</time>
</trkpt>
<trkpt lat="50.084604" lon="13.435559">
<time>2021-08-22T09:40:54Z</time>
</trkpt>
<trkpt lat="50.084574" lon="13.435568">
<time>2021-08-22T09:40:55Z</time>
</trkpt>
<trkpt lat="50.084549" lon="13.435583">
<time>2021-08-22T09:40:56Z</time>
</trkpt>
<trkpt lat="50.084525" lon="13.435596">
<time>2021-08-22T09:40:57Z</time>
</trkpt>
<trkpt lat="50.084505" lon="13.435609">
<time>2021-08-22T09:40:58Z</time>
</trkpt>
<trkpt lat="50.08448" lon="13.435623">
<time>2021-08-22T09:40:59Z</time>
</trkpt>
<trkpt lat="50.084458" lon="13.435646">
<time>2021-08-22T09:41:00Z</time>
</trkpt>
<trkpt lat="50.084434" lon="13.435665">
<time>2021-08-22T09:41:01Z</time>
</trkpt>
<trkpt lat="50.084408" lon="13.435684">
<time>2021-08-22T09:41:02Z</time>
</trkpt>
<trkpt lat="50.084384" lon="13.4357">
<time>2021-08-22T09:41:03Z</time>
</trkpt>
<trkpt lat="50.084358" lon="13.435715">
<time>2021-08-22T09:41:04Z</time>
</trkpt>
<trkpt lat="50.08433" lon="13.435729">
<time>2021-08-22T09:41:05Z</time>
</trkpt>
<trkpt lat="50.084304" lon="13.435742">
<time>2021-08-22T09:41:06Z</time>
</trkpt>
<trkpt lat="50.084292" lon="13.435759">
<time>2021-08-22T09:41:07Z</time>
</trkpt>
<trkpt lat="50.084285" lon="13.435783">
<time>2021-08-22T09:41:08Z</time>
</trkpt>
<trkpt lat="50.08426" lon="13.435791">
<time>2021-08-22T09:41:09Z</time>
</trkpt>
<trkpt lat="50.084233" lon="13.435802">
<time>2021-08-22T09:41:10Z</time>
</trkpt>
<trkpt lat="50.084209" lon="13.435821">
<time>2021-08-22T09:41:11Z</time>
</trkpt>
<trkpt lat="50.084183" lon="13.435837">
<time>2021-08-22T09:41:12Z</time>
</trkpt>
<trkpt lat="50.08416" lon="13.435845">
<time>2021-08-22T09:41:13Z</time>
</trkpt>
<trkpt lat="50.084139" lon="13.43586">
<time>2021-08-22T09:41:14Z</time>
</trkpt>
<trkpt lat="50.084118" lon="13.435877">
<time>2021-08-22T09:41:15Z</time>
</trkpt>
<trkpt lat="50.084093" lon="13.435897">
<time>2021-08-22T09:41:16Z</time>
</trkpt>
<trkpt lat="50.084074" lon="13.435921">
<time>2021-08-22T09:41:17Z</time>
</trkpt>
<trkpt lat="50.084072" lon="13.435953">
<time>2021-08-22T09:41:18Z</time>
</trkpt>
<trkpt lat="50.084075" lon="13.435989">
<time>2021-08-22T09:41:19Z</time>
</trkpt>
<trkpt lat="50.084074" lon="13.436035">
<time>2021-08-22T09:41:20Z</time>
</trkpt>
<trkpt lat="50.084073" lon="13.436089">
<time>2021-08-22T09:41:21Z</time>
</trkpt>
<trkpt lat="50.084072" lon="13.436146">
<time>2021-08-22T09:41:22Z</time>
</trkpt>
<trkpt lat="50.084075" lon="13.436208">
<time>2021-08-22T09:41:23Z</time>
</trkpt>
<trkpt lat="50.08408" lon="13.436267">
<time>2021-08-22T09:41:24Z</time>
</trkpt>
<trkpt lat="50.084077" lon="13.436327">
<time>2021-08-22T09:41:25Z</time>
</trkpt>
<trkpt lat="50.084075" lon="13.436388">
<time>2021-08-22T09:41:26Z</time>
</trkpt>
<trkpt lat="50.084076" lon="13.436448">
<time>2021-08-22T09:41:27Z</time>
</trkpt>
<trkpt lat="50.084079" lon="13.436509">
<time>2021-08-22T09:41:28Z</time>
</trkpt>
<trkpt lat="50.084082" lon="13.436568">
<time>2021-08-22T09:41:29Z</time>
</trkpt>
<trkpt lat="50.084085" lon="13.436622">
<time>2021-08-22T09:41:30Z</time>
</trkpt>
<trkpt lat="50.084095" lon="13.436678">
<time>2021-08-22T09:41:31Z</time>
</trkpt>
<trkpt lat="50.084105" lon="13.436734">
<time>2021-08-22T09:41:32Z</time>
</trkpt>
<trkpt lat="50.084105" lon="13.436799">
<time>2021-08-22T09:41:33Z</time>
</trkpt>
<trkpt lat="50.084106" lon="13.436856">
<time>2021-08-22T09:41:34Z</time>
</trkpt>
<trkpt lat="50.084107" lon="13.436912">
<time>2021-08-22T09:41:35Z</time>
</trkpt>
<trkpt lat="50.084106" lon="13.436972">
<time>2021-08-22T09:41:36Z</time>
</trkpt>
<trkpt lat="50.084105" lon="13.437038">
<time>2021-08-22T09:41:37Z</time>
</trkpt>
<trkpt lat="50.084111" lon="13.437097">
<time>2021-08-22T09:41:38Z</time>
</trkpt>
<trkpt lat="50.084125" lon="13.437151">
<time>2021-08-22T09:41:39Z</time>
</trkpt>
<trkpt lat="50.084135" lon="13.437206">
<time>2021-08-22T09:41:40Z</time>
</trkpt>
<trkpt lat="50.084145" lon="13.43724">
<time>2021-08-22T09:41:41Z</time>
</trkpt>
<trkpt lat="50.084151" lon="13.437265">
<time>2021-08-22T09:41:42Z</time>
</trkpt>
<trkpt lat="50.084148" lon="13.437288">
<time>2021-08-22T09:41:43Z</time>
</trkpt>
<trkpt lat="50.084145" lon="13.437319">
<time>2021-08-22T09:41:44Z</time>
</trkpt>
<trkpt lat="50.084135" lon="13.437357">
<time>2021-08-22T09:41:45Z</time>
</trkpt>
<trkpt lat="50.084117" lon="13.437407">
<time>2021-08-22T09:41:46Z</time>
</trkpt>
<trkpt lat="50.084093" lon="13.437452">
<time>2021-08-22T09:41:47Z</time>
</trkpt>
<trkpt lat="50.084072" lon="13.437472">
<time>2021-08-22T09:41:48Z</time>
</trkpt>
<trkpt lat="50.08405" lon="13.437499">
<time>2021-08-22T09:41:49Z</time>
</trkpt>
<trkpt lat="50.084025" lon="13.437526">
<time>2021-08-22T09:41:50Z</time>
</trkpt>
<trkpt lat="50.084005" lon="13.437544">
<time>2021-08-22T09:41:51Z</time>
</trkpt>
<trkpt lat="50.083981" lon="13.437565">
<time>2021-08-22T09:41:52Z</time>
</trkpt>
<trkpt lat="50.083957" lon="13.43758">
<time>2021-08-22T09:41:53Z</time>
</trkpt>
<trkpt lat="50.083935" lon="13.437597">
<time>2021-08-22T09:41:54Z</time>
</trkpt>
<trkpt lat="50.083913" lon="13.437621">
<time>2021-08-22T09:41:55Z</time>
</trkpt>
<trkpt lat="50.08389" lon="13.437647">
<time>2021-08-22T09:41:56Z</time>
</trkpt>
<trkpt lat="50.083873" lon="13.437673">
<time>2021-08-22T09:41:57Z</time>
</trkpt>
<trkpt lat="50.083854" lon="13.437697">
<time>2021-08-22T09:41:58Z</time>
</trkpt>
<trkpt lat="50.083837" lon="13.437717">
<time>2021-08-22T09:41:59Z</time>
</trkpt>
<trkpt lat="50.083822" lon="13.437742">
<time>2021-08-22T09:42:00Z</time>
</trkpt>
<trkpt lat="50.083817" lon="13.437769">
<time>2021-08-22T09:42:01Z</time>
</trkpt>
<trkpt lat="50.083803" lon="13.437793">
<time>2021-08-22T09:42:02Z</time>
</trkpt>
<trkpt lat="50.083787" lon="13.43781">
<time>2021-08-22T09:42:03Z</time>
</trkpt>
<trkpt lat="50.08377" lon="13.437825">
<time>2021-08-22T09:42:04Z</time>
</trkpt>
<trkpt lat="50.083758" lon="13.43785">
<time>2021-08-22T09:42:05Z</time>
</trkpt>
<trkpt lat="50.083738" lon="13.437864">
<time>2021-08-22T09:42:06Z</time>
</trkpt>
<trkpt lat="50.08373" lon="13.437874">
<time>2021-08-22T09:42:07Z</time>
</trkpt>
<trkpt lat="50.083717" lon="13.437879">
<time>2021-08-22T09:42:08Z</time>
</trkpt>
<trkpt lat="50.083706" lon="13.437889">
<time>2021-08-22T09:42:09Z</time>
</trkpt>
<trkpt lat="50.083701" lon="13.437894">
<time>2021-08-22T09:42:10Z</time>
</trkpt>
<trkpt lat="50.083688" lon="13.437898">
<time>2021-08-22T09:42:11Z</time>
</trkpt>
<trkpt lat="50.083664" lon="13.43791">
<time>2021-08-22T09:42:12Z</time>
</trkpt>
<trkpt lat="50.083643" lon="13.437918">
<time>2021-08-22T09:42:13Z</time>
</trkpt>
<trkpt lat="50.083621" lon="13.437927">
<time>2021-08-22T09:42:14Z</time>
</trkpt>
<trkpt lat="50.083605" lon="13.437937">
<time>2021-08-22T09:42:15Z</time>
</trkpt>
<trkpt lat="50.08359" lon="13.437953">
<time>2021-08-22T09:42:16Z</time>
</trkpt>
<trkpt lat="50.083577" lon="13.437968">
<time>2021-08-22T09:42:17Z</time>
</trkpt>
<trkpt lat="50.083569" lon="13.437985">
<time>2021-08-22T09:42:18Z</time>
</trkpt>
<trkpt lat="50.083554" lon="13.438005">
<time>2021-08-22T09:42:19Z</time>
</trkpt>
<trkpt lat="50.083539" lon="13.438017">
<time>2021-08-22T09:42:20Z</time>
</trkpt>
<trkpt lat="50.083524" lon="13.438022">
<time>2021-08-22T09:42:21Z</time>
</trkpt>
<trkpt lat="50.083506" lon="13.438024">
<time>2021-08-22T09:42:22Z</time>
</trkpt>
<trkpt lat="50.08349" lon="13.438031">
<time>2021-08-22T09:42:23Z</time>
</trkpt>
<trkpt lat="50.083471" lon="13.438043">
<time>2021-08-22T09:42:24Z</time>
</trkpt>
<trkpt lat="50.083456" lon="13.43805">
<time>2021-08-22T09:42:25Z</time>
</trkpt>
<trkpt lat="50.083443" lon="13.438055">
<time>2021-08-22T09:42:26Z</time>
</trkpt>
<trkpt lat="50.083428" lon="13.438057">
<time>2021-08-22T09:42:27Z</time>
</trkpt>
<trkpt lat="50.08341" lon="13.438054">
<time>2021-08-22T09:42:28Z</time>
</trkpt>
<trkpt lat="50.083387" lon="13.438046">
<time>2021-08-22T09:42:29Z</time>
</trkpt>
<trkpt lat="50.083366" lon="13.43804">
<time>2021-08-22T09:42:30Z</time>
</trkpt>
<trkpt lat="50.083349" lon="13.43804">
<time>2021-08-22T09:42:31Z</time>
</trkpt>
<trkpt lat="50.083333" lon="13.438041">
<time>2021-08-22T09:42:32Z</time>
</trkpt>
<trkpt lat="50.083315" lon="13.438038">
<time>2021-08-22T09:42:33Z</time>
</trkpt>
<trkpt lat="50.0833" lon="13.438038">
<time>2021-08-22T09:42:34Z</time>
</trkpt>
<trkpt lat="50.08329" lon="13.438034">
<time>2021-08-22T09:42:35Z</time>
</trkpt>
<trkpt lat="50.083271" lon="13.438027">
<time>2021-08-22T09:42:36Z</time>
</trkpt>
<trkpt lat="50.083249" lon="13.438015">
<time>2021-08-22T09:42:37Z</time>
</trkpt>
<trkpt lat="50.08323" lon="13.438009">
<time>2021-08-22T09:42:38Z</time>
</trkpt>
<trkpt lat="50.083209" lon="13.438006">
<time>2021-08-22T09:42:39Z</time>
</trkpt>
<trkpt lat="50.083186" lon="13.437995">
<time>2021-08-22T09:42:40Z</time>
</trkpt>
<trkpt lat="50.083167" lon="13.437987">
<time>2021-08-22T09:42:41Z</time>
</trkpt>
<trkpt lat="50.083141" lon="13.437975">
<time>2021-08-22T09:42:42Z</time>
</trkpt>
<trkpt lat="50.083123" lon="13.437962">
<time>2021-08-22T09:42:43Z</time>
</trkpt>
<trkpt lat="50.0831" lon="13.437939">
<time>2021-08-22T09:42:44Z</time>
</trkpt>
<trkpt lat="50.083076" lon="13.43791">
<time>2021-08-22T09:42:45Z</time>
</trkpt>
<trkpt lat="50.083049" lon="13.437883">
<time>2021-08-22T09:42:46Z</time>
</trkpt>
<trkpt lat="50.083013" lon="13.437856">
<time>2021-08-22T09:42:47Z</time>
</trkpt>
<trkpt lat="50.082981" lon="13.437842">
<time>2021-08-22T09:42:48Z</time>
</trkpt>
<trkpt lat="50.082956" lon="13.437828">
<time>2021-08-22T09:42:49Z</time>
</trkpt>
<trkpt lat="50.082929" lon="13.437802">
<time>2021-08-22T09:42:50Z</time>
</trkpt>
<trkpt lat="50.082892" lon="13.437758">
<time>2021-08-22T09:42:51Z</time>
</trkpt>
<trkpt lat="50.082861" lon="13.437731">
<time>2021-08-22T09:42:52Z</time>
</trkpt>
<trkpt lat="50.082833" lon="13.437697">
<time>2021-08-22T09:42:53Z</time>
</trkpt>
<trkpt lat="50.082803" lon="13.437661">
<time>2021-08-22T09:42:54Z</time>
</trkpt>
<trkpt lat="50.082773" lon="13.437631">
<time>2021-08-22T09:42:55Z</time>
</trkpt>
<trkpt lat="50.082744" lon="13.437594">
<time>2021-08-22T09:42:56Z</time>
</trkpt>
<trkpt lat="50.082717" lon="13.43756">
<time>2021-08-22T09:42:57Z</time>
</trkpt>
<trkpt lat="50.082686" lon="13.437531">
<time>2021-08-22T09:42:58Z</time>
</trkpt>
<trkpt lat="50.082661" lon="13.43751">
<time>2021-08-22T09:42:59Z</time>
</trkpt>
<trkpt lat="50.082646" lon="13.437491">
<time>2021-08-22T09:43:00Z</time>
</trkpt>
<trkpt lat="50.082628" lon="13.437461">
<time>2021-08-22T09:43:01Z</time>
</trkpt>
<trkpt lat="50.082602" lon="13.437429">
<time>2021-08-22T09:43:02Z</time>
</trkpt>
<trkpt lat="50.08258" lon="13.437401">
<time>2021-08-22T09:43:03Z</time>
</trkpt>
<trkpt lat="50.082555" lon="13.437378">
<time>2021-08-22T09:43:04Z</time>
</trkpt>
<trkpt lat="50.082527" lon="13.437355">
<time>2021-08-22T09:43:05Z</time>
</trkpt>
<trkpt lat="50.082493" lon="13.437342">
<time>2021-08-22T09:43:06Z</time>
</trkpt>
<trkpt lat="50.082447" lon="13.43734">
<time>2021-08-22T09:43:07Z</time>
</trkpt>
<trkpt lat="50.082404" lon="13.437354">
<time>2021-08-22T09:43:08Z</time>
</trkpt>
<trkpt lat="50.082366" lon="13.437359">
<time>2021-08-22T09:43:09Z</time>
</trkpt>
<trkpt lat="50.082324" lon="13.437361">
<time>2021-08-22T09:43:10Z</time>
</trkpt>
<trkpt lat="50.082277" lon="13.437365">
<time>2021-08-22T09:43:11Z</time>
</trkpt>
<trkpt lat="50.082234" lon="13.437372">
<time>2021-08-22T09:43:12Z</time>
</trkpt>
<trkpt lat="50.082186" lon="13.437366">
<time>2021-08-22T09:43:13Z</time>
</trkpt>
<trkpt lat="50.082143" lon="13.437366">
<time>2021-08-22T09:43:14Z</time>
</trkpt>
<trkpt lat="50.082097" lon="13.437361">
<time>2021-08-22T09:43:15Z</time>
</trkpt>
<trkpt lat="50.082045" lon="13.437353">
<time>2021-08-22T09:43:16Z</time>
</trkpt>
<trkpt lat="50.082004" lon="13.437357">
<time>2021-08-22T09:43:17Z</time>
</trkpt>
<trkpt lat="50.081966" lon="13.437363">
<time>2021-08-22T09:43:18Z</time>
</trkpt>
<trkpt lat="50.081923" lon="13.437369">
<time>2021-08-22T09:43:19Z</time>
</trkpt>
<trkpt lat="50.081877" lon="13.437374">
<time>2021-08-22T09:43:20Z</time>
</trkpt>
<trkpt lat="50.08183" lon="13.437381">
<time>2021-08-22T09:43:21Z</time>
</trkpt>
<trkpt lat="50.081781" lon="13.43738">
<time>2021-08-22T09:43:22Z</time>
</trkpt>
<trkpt lat="50.081735" lon="13.437384">
<time>2021-08-22T09:43:23Z</time>
</trkpt>
<trkpt lat="50.08168" lon="13.437385">
<time>2021-08-22T09:43:24Z</time>
</trkpt>
<trkpt lat="50.081621" lon="13.437387">
<time>2021-08-22T09:43:25Z</time>
</trkpt>
<trkpt lat="50.081566" lon="13.437398">
<time>2021-08-22T09:43:26Z</time>
</trkpt>
<trkpt lat="50.0815" lon="13.437419">
<time>2021-08-22T09:43:27Z</time>
</trkpt>
<trkpt lat="50.081436" lon="13.437443">
<time>2021-08-22T09:43:28Z</time>
</trkpt>
<trkpt lat="50.081349" lon="13.437446">
<time>2021-08-22T09:43:29Z</time>
</trkpt>
<trkpt lat="50.081275" lon="13.437457">
<time>2021-08-22T09:43:30Z</time>
</trkpt>
<trkpt lat="50.081213" lon="13.437478">
<time>2021-08-22T09:43:31Z</time>
</trkpt>
<trkpt lat="50.081142" lon="13.437508">
<time>2021-08-22T09:43:32Z</time>
</trkpt>
<trkpt lat="50.081065" lon="13.437542">
<time>2021-08-22T09:43:33Z</time>
</trkpt>
<trkpt lat="50.080967" lon="13.437551">
<time>2021-08-22T09:43:34Z</time>
</trkpt>
<trkpt lat="50.080898" lon="13.437598">
<time>2021-08-22T09:43:35Z</time>
</trkpt>
<trkpt lat="50.080821" lon="13.437641">
<time>2021-08-22T09:43:36Z</time>
</trkpt>
<trkpt lat="50.080754" lon="13.437693">
<time>2021-08-22T09:43:37Z</time>
</trkpt>
<trkpt lat="50.080682" lon="13.43774">
<time>2021-08-22T09:43:38Z</time>
</trkpt>
<trkpt lat="50.080601" lon="13.437786">
<time>2021-08-22T09:43:39Z</time>
</trkpt>
<trkpt lat="50.080525" lon="13.437833">
<time>2021-08-22T09:43:40Z</time>
</trkpt>
<trkpt lat="50.080456" lon="13.437884">
<time>2021-08-22T09:43:41Z</time>
</trkpt>
<trkpt lat="50.08039" lon="13.437933">
<time>2021-08-22T09:43:42Z</time>
</trkpt>
<trkpt lat="50.080319" lon="13.437962">
<time>2021-08-22T09:43:43Z</time>
</trkpt>
<trkpt lat="50.080263" lon="13.438001">
<time>2021-08-22T09:43:44Z</time>
</trkpt>
<trkpt lat="50.080189" lon="13.438025">
<time>2021-08-22T09:43:45Z</time>
</trkpt>
<trkpt lat="50.080127" lon="13.43807">
<time>2021-08-22T09:43:46Z</time>
</trkpt>
<trkpt lat="50.080068" lon="13.438113">
<time>2021-08-22T09:43:47Z</time>
</trkpt>
<trkpt lat="50.079999" lon="13.438137">
<time>2021-08-22T09:43:48Z</time>
</trkpt>
<trkpt lat="50.079933" lon="13.438171">
<time>2021-08-22T09:43:49Z</time>
</trkpt>
<trkpt lat="50.07986" lon="13.438194">
<time>2021-08-22T09:43:50Z</time>
</trkpt>
<trkpt lat="50.079787" lon="13.438224">
<time>2021-08-22T09:43:51Z</time>
</trkpt>
<trkpt lat="50.079714" lon="13.438254">
<time>2021-08-22T09:43:52Z</time>
</trkpt>
<trkpt lat="50.079642" lon="13.438282">
<time>2021-08-22T09:43:53Z</time>
</trkpt>
<trkpt lat="50.079592" lon="13.438335">
<time>2021-08-22T09:43:54Z</time>
</trkpt>
<trkpt lat="50.07955" lon="13.438383">
<time>2021-08-22T09:43:55Z</time>
</trkpt>
<trkpt lat="50.079502" lon="13.438415">
<time>2021-08-22T09:43:56Z</time>
</trkpt>
<trkpt lat="50.079461" lon="13.438425">
<time>2021-08-22T09:43:57Z</time>
</trkpt>
<trkpt lat="50.079432" lon="13.438438">
<time>2021-08-22T09:43:58Z</time>
</trkpt>
<trkpt lat="50.07941" lon="13.438429">
<time>2021-08-22T09:43:59Z</time>
</trkpt>
<trkpt lat="50.079377" lon="13.438375">
<time>2021-08-22T09:44:00Z</time>
</trkpt>
<trkpt lat="50.079361" lon="13.438323">
<time>2021-08-22T09:44:01Z</time>
</trkpt>
<trkpt lat="50.079328" lon="13.438245">
<time>2021-08-22T09:44:02Z</time>
</trkpt>
<trkpt lat="50.079279" lon="13.438134">
<time>2021-08-22T09:44:03Z</time>
</trkpt>
<trkpt lat="50.079258" lon="13.438039">
<time>2021-08-22T09:44:04Z</time>
</trkpt>
<trkpt lat="50.079237" lon="13.437948">
<time>2021-08-22T09:44:05Z</time>
</trkpt>
<trkpt lat="50.07922" lon="13.437849">
<time>2021-08-22T09:44:06Z</time>
</trkpt>
<trkpt lat="50.079197" lon="13.437759">
<time>2021-08-22T09:44:07Z</time>
</trkpt>
<trkpt lat="50.079129" lon="13.437641">
<time>2021-08-22T09:44:08Z</time>
</trkpt>
<trkpt lat="50.079082" lon="13.437572">
<time>2021-08-22T09:44:09Z</time>
</trkpt>
<trkpt lat="50.079021" lon="13.437517">
<time>2021-08-22T09:44:10Z</time>
</trkpt>
<trkpt lat="50.078931" lon="13.437431">
<time>2021-08-22T09:44:11Z</time>
</trkpt>
<trkpt lat="50.078864" lon="13.437373">
<time>2021-08-22T09:44:12Z</time>
</trkpt>
<trkpt lat="50.078792" lon="13.437311">
<time>2021-08-22T09:44:13Z</time>
</trkpt>
<trkpt lat="50.078721" lon="13.43725">
<time>2021-08-22T09:44:14Z</time>
</trkpt>
<trkpt lat="50.078656" lon="13.437194">
<time>2021-08-22T09:44:15Z</time>
</trkpt>
<trkpt lat="50.078591" lon="13.437136">
<time>2021-08-22T09:44:16Z</time>
</trkpt>
<trkpt lat="50.078522" lon="13.437079">
<time>2021-08-22T09:44:17Z</time>
</trkpt>
<trkpt lat="50.078461" lon="13.43703">
<time>2021-08-22T09:44:18Z</time>
</trkpt>
<trkpt lat="50.078399" lon="13.436976">
<time>2021-08-22T09:44:19Z</time>
</trkpt>
<trkpt lat="50.078333" lon="13.436904">
<time>2021-08-22T09:44:20Z</time>
</trkpt>
<trkpt lat="50.078266" lon="13.436855">
<time>2021-08-22T09:44:21Z</time>
</trkpt>
<trkpt lat="50.078188" lon="13.436814">
<time>2021-08-22T09:44:22Z</time>
</trkpt>
<trkpt lat="50.078102" lon="13.436743">
<time>2021-08-22T09:44:23Z</time>
</trkpt>
<trkpt lat="50.078019" lon="13.436679">
<time>2021-08-22T09:44:24Z</time>
</trkpt>
<trkpt lat="50.077943" lon="13.436634">
<time>2021-08-22T09:44:25Z</time>
</trkpt>
<trkpt lat="50.077868" lon="13.436581">
<time>2021-08-22T09:44:26Z</time>
</trkpt>
<trkpt lat="50.077791" lon="13.43651">
<time>2021-08-22T09:44:27Z</time>
</trkpt>
<trkpt lat="50.077722" lon="13.436437">
<time>2021-08-22T09:44:28Z</time>
</trkpt>
<trkpt lat="50.077648" lon="13.436341">
<time>2021-08-22T09:44:29Z</time>
</trkpt>
<trkpt lat="50.077584" lon="13.436236">
<time>2021-08-22T09:44:30Z</time>
</trkpt>
<trkpt lat="50.077527" lon="13.436125">
<time>2021-08-22T09:44:31Z</time>
</trkpt>
<trkpt lat="50.077472" lon="13.436021">
<time>2021-08-22T09:44:32Z</time>
</trkpt>
<trkpt lat="50.077415" lon="13.435918">
<time>2021-08-22T09:44:33Z</time>
</trkpt>
<trkpt lat="50.07736" lon="13.435812">
<time>2021-08-22T09:44:34Z</time>
</trkpt>
<trkpt lat="50.077303" lon="13.435704">
<time>2021-08-22T09:44:35Z</time>
</trkpt>
<trkpt lat="50.077248" lon="13.435596">
<time>2021-08-22T09:44:36Z</time>
</trkpt>
<trkpt lat="50.077199" lon="13.435488">
<time>2021-08-22T09:44:37Z</time>
</trkpt>
<trkpt lat="50.077159" lon="13.435387">
<time>2021-08-22T09:44:38Z</time>
</trkpt>
<trkpt lat="50.077116" lon="13.435295">
<time>2021-08-22T09:44:39Z</time>
</trkpt>
<trkpt lat="50.077062" lon="13.435199">
<time>2021-08-22T09:44:40Z</time>
</trkpt>
<trkpt lat="50.077002" lon="13.435116">
<time>2021-08-22T09:44:41Z</time>
</trkpt>
<trkpt lat="50.076941" lon="13.435044">
<time>2021-08-22T09:44:42Z</time>
</trkpt>
<trkpt lat="50.076869" lon="13.434984">
<time>2021-08-22T09:44:43Z</time>
</trkpt>
<trkpt lat="50.076793" lon="13.434933">
<time>2021-08-22T09:44:44Z</time>
</trkpt>
<trkpt lat="50.076723" lon="13.43489">
<time>2021-08-22T09:44:45Z</time>
</trkpt>
<trkpt lat="50.076658" lon="13.434847">
<time>2021-08-22T09:44:46Z</time>
</trkpt>
<trkpt lat="50.076602" lon="13.434797">
<time>2021-08-22T09:44:47Z</time>
</trkpt>
<trkpt lat="50.076542" lon="13.434745">
<time>2021-08-22T09:44:48Z</time>
</trkpt>
<trkpt lat="50.076481" lon="13.434698">
<time>2021-08-22T09:44:49Z</time>
</trkpt>
<trkpt lat="50.076418" lon="13.434645">
<time>2021-08-22T09:44:50Z</time>
</trkpt>
<trkpt lat="50.076361" lon="13.434579">
<time>2021-08-22T09:44:51Z</time>
</trkpt>
<trkpt lat="50.076279" lon="13.434462">
<time>2021-08-22T09:44:52Z</time>
</trkpt>
<trkpt lat="50.076215" lon="13.43435">
<time>2021-08-22T09:44:53Z</time>
</trkpt>
<trkpt lat="50.076161" lon="13.434241">
<time>2021-08-22T09:44:54Z</time>
</trkpt>
<trkpt lat="50.076106" lon="13.43412">
<time>2021-08-22T09:44:55Z</time>
</trkpt>
<trkpt lat="50.076045" lon="13.433984">
<time>2021-08-22T09:44:56Z</time>
</trkpt>
<trkpt lat="50.075968" lon="13.433813">
<time>2021-08-22T09:44:57Z</time>
</trkpt>
<trkpt lat="50.075892" lon="13.433615">
<time>2021-08-22T09:44:58Z</time>
</trkpt>
<trkpt lat="50.075832" lon="13.433454">
<time>2021-08-22T09:44:59Z</time>
</trkpt>
<trkpt lat="50.07577" lon="13.433316">
<time>2021-08-22T09:45:00Z</time>
</trkpt>
<trkpt lat="50.075694" lon="13.433198">
<time>2021-08-22T09:45:01Z</time>
</trkpt>
<trkpt lat="50.075614" lon="13.433096">
<time>2021-08-22T09:45:02Z</time>
</trkpt>
<trkpt lat="50.075532" lon="13.433004">
<time>2021-08-22T09:45:03Z</time>
</trkpt>
<trkpt lat="50.075448" lon="13.43291">
<time>2021-08-22T09:45:04Z</time>
</trkpt>
<trkpt lat="50.075368" lon="13.432821">
<time>2021-08-22T09:45:05Z</time>
</trkpt>
<trkpt lat="50.075262" lon="13.432713">
<time>2021-08-22T09:45:06Z</time>
</trkpt>
<trkpt lat="50.075168" lon="13.432641">
<time>2021-08-22T09:45:07Z</time>
</trkpt>
<trkpt lat="50.075087" lon="13.432573">
<time>2021-08-22T09:45:08Z</time>
</trkpt>
<trkpt lat="50.07501" lon="13.432503">
<time>2021-08-22T09:45:09Z</time>
</trkpt>
<trkpt lat="50.074937" lon="13.432434">
<time>2021-08-22T09:45:10Z</time>
</trkpt>
<trkpt lat="50.074871" lon="13.432361">
<time>2021-08-22T09:45:11Z</time>
</trkpt>
<trkpt lat="50.0748" lon="13.432273">
<time>2021-08-22T09:45:12Z</time>
</trkpt>
<trkpt lat="50.074698" lon="13.432166">
<time>2021-08-22T09:45:13Z</time>
</trkpt>
<trkpt lat="50.074594" lon="13.43208">
<time>2021-08-22T09:45:14Z</time>
</trkpt>
<trkpt lat="50.074491" lon="13.432003">
<time>2021-08-22T09:45:15Z</time>
</trkpt>
<trkpt lat="50.074379" lon="13.431941">
<time>2021-08-22T09:45:16Z</time>
</trkpt>
<trkpt lat="50.074271" lon="13.431886">
<time>2021-08-22T09:45:17Z</time>
</trkpt>
<trkpt lat="50.074175" lon="13.431821">
<time>2021-08-22T09:45:18Z</time>
</trkpt>
<trkpt lat="50.074094" lon="13.431744">
<time>2021-08-22T09:45:19Z</time>
</trkpt>
<trkpt lat="50.074009" lon="13.431601">
<time>2021-08-22T09:45:20Z</time>
</trkpt>
<trkpt lat="50.073958" lon="13.431486">
<time>2021-08-22T09:45:21Z</time>
</trkpt>
<trkpt lat="50.073888" lon="13.431354">
<time>2021-08-22T09:45:22Z</time>
</trkpt>
<trkpt lat="50.073821" lon="13.431241">
<time>2021-08-22T09:45:23Z</time>
</trkpt>
<trkpt lat="50.073746" lon="13.431162">
<time>2021-08-22T09:45:24Z</time>
</trkpt>
<trkpt lat="50.073673" lon="13.431112">
<time>2021-08-22T09:45:25Z</time>
</trkpt>
<trkpt lat="50.073597" lon="13.431071">
<time>2021-08-22T09:45:26Z</time>
</trkpt>
<trkpt lat="50.073523" lon="13.43103">
<time>2021-08-22T09:45:27Z</time>
</trkpt>
<trkpt lat="50.073448" lon="13.430995">
<time>2021-08-22T09:45:28Z</time>
</trkpt>
<trkpt lat="50.07337" lon="13.430957">
<time>2021-08-22T09:45:29Z</time>
</trkpt>
<trkpt lat="50.073286" lon="13.430909">
<time>2021-08-22T09:45:30Z</time>
</trkpt>
<trkpt lat="50.07321" lon="13.430862">
<time>2021-08-22T09:45:31Z</time>
</trkpt>
<trkpt lat="50.073138" lon="13.430802">
<time>2021-08-22T09:45:32Z</time>
</trkpt>
<trkpt lat="50.073059" lon="13.430715">
<time>2021-08-22T09:45:33Z</time>
</trkpt>
<trkpt lat="50.072995" lon="13.430621">
<time>2021-08-22T09:45:34Z</time>
</trkpt>
<trkpt lat="50.072945" lon="13.430543">
<time>2021-08-22T09:45:35Z</time>
</trkpt>
<trkpt lat="50.07289" lon="13.430467">
<time>2021-08-22T09:45:36Z</time>
</trkpt>
<trkpt lat="50.072838" lon="13.430399">
<time>2021-08-22T09:45:37Z</time>
</trkpt>
<trkpt lat="50.07279" lon="13.430341">
<time>2021-08-22T09:45:38Z</time>
</trkpt>
<trkpt lat="50.072733" lon="13.430286">
<time>2021-08-22T09:45:39Z</time>
</trkpt>
<trkpt lat="50.072676" lon="13.430237">
<time>2021-08-22T09:45:40Z</time>
</trkpt>
<trkpt lat="50.072618" lon="13.430191">
<time>2021-08-22T09:45:41Z</time>
</trkpt>
<trkpt lat="50.072559" lon="13.43014">
<time>2021-08-22T09:45:42Z</time>
</trkpt>
<trkpt lat="50.072507" lon="13.430088">
<time>2021-08-22T09:45:43Z</time>
</trkpt>
<trkpt lat="50.072454" lon="13.430043">
<time>2021-08-22T09:45:44Z</time>
</trkpt>
<trkpt lat="50.0724" lon="13.43">
<time>2021-08-22T09:45:45Z</time>
</trkpt>
<trkpt lat="50.07235" lon="13.429978">
<time>2021-08-22T09:45:46Z</time>
</trkpt>
<trkpt lat="50.072305" lon="13.42998">
<time>2021-08-22T09:45:47Z</time>
</trkpt>
<trkpt lat="50.072275" lon="13.430012">
<time>2021-08-22T09:45:48Z</time>
</trkpt>
<trkpt lat="50.072254" lon="13.430063">
<time>2021-08-22T09:45:49Z</time>
</trkpt>
<trkpt lat="50.072237" lon="13.430125">
<time>2021-08-22T09:45:50Z</time>
</trkpt>
<trkpt lat="50.07222" lon="13.430195">
<time>2021-08-22T09:45:51Z</time>
</trkpt>
<trkpt lat="50.072202" lon="13.430277">
<time>2021-08-22T09:45:52Z</time>
</trkpt>
<trkpt lat="50.072181" lon="13.430361">
<time>2021-08-22T09:45:53Z</time>
</trkpt>
<trkpt lat="50.072161" lon="13.430443">
<time>2021-08-22T09:45:54Z</time>
</trkpt>
<trkpt lat="50.072137" lon="13.430522">
<time>2021-08-22T09:45:55Z</time>
</trkpt>
<trkpt lat="50.072113" lon="13.430598">
<time>2021-08-22T09:45:56Z</time>
</trkpt>
<trkpt lat="50.072088" lon="13.430675">
<time>2021-08-22T09:45:57Z</time>
</trkpt>
<trkpt lat="50.072065" lon="13.430753">
<time>2021-08-22T09:45:58Z</time>
</trkpt>
<trkpt lat="50.072044" lon="13.43083">
<time>2021-08-22T09:45:59Z</time>
</trkpt>
<trkpt lat="50.072023" lon="13.43091">
<time>2021-08-22T09:46:00Z</time>
</trkpt>
<trkpt lat="50.071999" lon="13.430992">
<time>2021-08-22T09:46:01Z</time>
</trkpt>
<trkpt lat="50.071976" lon="13.431075">
<time>2021-08-22T09:46:02Z</time>
</trkpt>
<trkpt lat="50.071955" lon="13.43116">
<time>2021-08-22T09:46:03Z</time>
</trkpt>
<trkpt lat="50.071938" lon="13.431244">
<time>2021-08-22T09:46:04Z</time>
</trkpt>
<trkpt lat="50.071924" lon="13.431326">
<time>2021-08-22T09:46:05Z</time>
</trkpt>
<trkpt lat="50.071915" lon="13.431409">
<time>2021-08-22T09:46:06Z</time>
</trkpt>
<trkpt lat="50.071907" lon="13.431494">
<time>2021-08-22T09:46:07Z</time>
</trkpt>
<trkpt lat="50.071897" lon="13.431574">
<time>2021-08-22T09:46:08Z</time>
</trkpt>
<trkpt lat="50.071886" lon="13.431654">
<time>2021-08-22T09:46:09Z</time>
</trkpt>
<trkpt lat="50.071866" lon="13.431731">
<time>2021-08-22T09:46:10Z</time>
</trkpt>
<trkpt lat="50.071839" lon="13.431802">
<time>2021-08-22T09:46:11Z</time>
</trkpt>
<trkpt lat="50.071809" lon="13.431874">
<time>2021-08-22T09:46:12Z</time>
</trkpt>
<trkpt lat="50.071778" lon="13.431942">
<time>2021-08-22T09:46:13Z</time>
</trkpt>
<trkpt lat="50.071747" lon="13.432005">
<time>2021-08-22T09:46:14Z</time>
</trkpt>
<trkpt lat="50.071718" lon="13.432067">
<time>2021-08-22T09:46:15Z</time>
</trkpt>
<trkpt lat="50.071687" lon="13.432127">
<time>2021-08-22T09:46:16Z</time>
</trkpt>
<trkpt lat="50.071649" lon="13.432187">
<time>2021-08-22T09:46:17Z</time>
</trkpt>
<trkpt lat="50.071609" lon="13.432244">
<time>2021-08-22T09:46:18Z</time>
</trkpt>
<trkpt lat="50.071572" lon="13.432302">
<time>2021-08-22T09:46:19Z</time>
</trkpt>
<trkpt lat="50.071534" lon="13.432362">
<time>2021-08-22T09:46:20Z</time>
</trkpt>
<trkpt lat="50.07149" lon="13.432419">
<time>2021-08-22T09:46:21Z</time>
</trkpt>
<trkpt lat="50.07144" lon="13.432473">
<time>2021-08-22T09:46:22Z</time>
</trkpt>
<trkpt lat="50.071386" lon="13.432525">
<time>2021-08-22T09:46:23Z</time>
</trkpt>
<trkpt lat="50.071329" lon="13.432576">
<time>2021-08-22T09:46:24Z</time>
</trkpt>
<trkpt lat="50.071272" lon="13.432627">
<time>2021-08-22T09:46:25Z</time>
</trkpt>
<trkpt lat="50.071214" lon="13.43268">
<time>2021-08-22T09:46:26Z</time>
</trkpt>
<trkpt lat="50.071156" lon="13.432738">
<time>2021-08-22T09:46:27Z</time>
</trkpt>
<trkpt lat="50.0711" lon="13.432794">
<time>2021-08-22T09:46:28Z</time>
</trkpt>
<trkpt lat="50.071047" lon="13.432855">
<time>2021-08-22T09:46:29Z</time>
</trkpt>
<trkpt lat="50.070996" lon="13.432915">
<time>2021-08-22T09:46:30Z</time>
</trkpt>
<trkpt lat="50.070941" lon="13.43297">
<time>2021-08-22T09:46:31Z</time>
</trkpt>
<trkpt lat="50.070888" lon="13.433027">
<time>2021-08-22T09:46:32Z</time>
</trkpt>
<trkpt lat="50.070834" lon="13.43309">
<time>2021-08-22T09:46:33Z</time>
</trkpt>
<trkpt lat="50.070779" lon="13.433149">
<time>2021-08-22T09:46:34Z</time>
</trkpt>
<trkpt lat="50.070724" lon="13.433205">
<time>2021-08-22T09:46:35Z</time>
</trkpt>
<trkpt lat="50.070666" lon="13.433257">
<time>2021-08-22T09:46:36Z</time>
</trkpt>
<trkpt lat="50.070609" lon="13.433307">
<time>2021-08-22T09:46:37Z</time>
</trkpt>
<trkpt lat="50.070556" lon="13.433358">
<time>2021-08-22T09:46:38Z</time>
</trkpt>
<trkpt lat="50.070502" lon="13.433412">
<time>2021-08-22T09:46:39Z</time>
</trkpt>
<trkpt lat="50.070451" lon="13.433473">
<time>2021-08-22T09:46:40Z</time>
</trkpt>
<trkpt lat="50.070402" lon="13.433534">
<time>2021-08-22T09:46:41Z</time>
</trkpt>
<trkpt lat="50.070358" lon="13.433592">
<time>2021-08-22T09:46:42Z</time>
</trkpt>
<trkpt lat="50.070319" lon="13.433651">
<time>2021-08-22T09:46:43Z</time>
</trkpt>
<trkpt lat="50.070282" lon="13.433712">
<time>2021-08-22T09:46:44Z</time>
</trkpt>
<trkpt lat="50.070244" lon="13.433767">
<time>2021-08-22T09:46:45Z</time>
</trkpt>
<trkpt lat="50.070205" lon="13.433818">
<time>2021-08-22T09:46:46Z</time>
</trkpt>
<trkpt lat="50.070164" lon="13.433868">
<time>2021-08-22T09:46:47Z</time>
</trkpt>
<trkpt lat="50.07012" lon="13.433914">
<time>2021-08-22T09:46:48Z</time>
</trkpt>
<trkpt lat="50.070078" lon="13.433958">
<time>2021-08-22T09:46:49Z</time>
</trkpt>
<trkpt lat="50.07003" lon="13.433998">
<time>2021-08-22T09:46:50Z</time>
</trkpt>
<trkpt lat="50.069991" lon="13.434048">
<time>2021-08-22T09:46:51Z</time>
</trkpt>
<trkpt lat="50.069947" lon="13.434091">
<time>2021-08-22T09:46:52Z</time>
</trkpt>
<trkpt lat="50.069902" lon="13.434133">
<time>2021-08-22T09:46:53Z</time>
</trkpt>
<trkpt lat="50.069855" lon="13.434174">
<time>2021-08-22T09:46:54Z</time>
</trkpt>
<trkpt lat="50.069812" lon="13.434211">
<time>2021-08-22T09:46:55Z</time>
</trkpt>
<trkpt lat="50.069754" lon="13.434238">
<time>2021-08-22T09:46:56Z</time>
</trkpt>
<trkpt lat="50.069704" lon="13.434279">
<time>2021-08-22T09:46:57Z</time>
</trkpt>
<trkpt lat="50.069658" lon="13.434324">
<time>2021-08-22T09:46:58Z</time>
</trkpt>
<trkpt lat="50.069614" lon="13.434375">
<time>2021-08-22T09:46:59Z</time>
</trkpt>
<trkpt lat="50.06957" lon="13.434423">
<time>2021-08-22T09:47:00Z</time>
</trkpt>
<trkpt lat="50.069529" lon="13.434474">
<time>2021-08-22T09:47:01Z</time>
</trkpt>
<trkpt lat="50.069492" lon="13.434528">
<time>2021-08-22T09:47:02Z</time>
</trkpt>
<trkpt lat="50.069461" lon="13.434583">
<time>2021-08-22T09:47:03Z</time>
</trkpt>
<trkpt lat="50.069431" lon="13.434635">
<time>2021-08-22T09:47:04Z</time>
</trkpt>
<trkpt lat="50.0694" lon="13.434684">
<time>2021-08-22T09:47:05Z</time>
</trkpt>
<trkpt lat="50.069365" lon="13.434732">
<time>2021-08-22T09:47:06Z</time>
</trkpt>
<trkpt lat="50.069328" lon="13.434779">
<time>2021-08-22T09:47:07Z</time>
</trkpt>
<trkpt lat="50.069291" lon="13.434825">
<time>2021-08-22T09:47:08Z</time>
</trkpt>
<trkpt lat="50.069258" lon="13.434874">
<time>2021-08-22T09:47:09Z</time>
</trkpt>
<trkpt lat="50.069217" lon="13.434911">
<time>2021-08-22T09:47:10Z</time>
</trkpt>
<trkpt lat="50.069181" lon="13.434951">
<time>2021-08-22T09:47:11Z</time>
</trkpt>
<trkpt lat="50.069144" lon="13.434992">
<time>2021-08-22T09:47:12Z</time>
</trkpt>
<trkpt lat="50.069107" lon="13.435031">
<time>2021-08-22T09:47:13Z</time>
</trkpt>
<trkpt lat="50.069068" lon="13.435068">
<time>2021-08-22T09:47:14Z</time>
</trkpt>
<trkpt lat="50.069031" lon="13.435101">
<time>2021-08-22T09:47:15Z</time>
</trkpt>
<trkpt lat="50.069005" lon="13.435127">
<time>2021-08-22T09:47:16Z</time>
</trkpt>
<trkpt lat="50.068991" lon="13.435141">
<time>2021-08-22T09:47:17Z</time>
</trkpt>
<trkpt lat="50.06899" lon="13.435147">
<time>2021-08-22T09:47:18Z</time>
</trkpt>
<trkpt lat="50.068991" lon="13.435148">
<time>2021-08-22T09:47:19Z</time>
</trkpt>
<trkpt lat="50.068994" lon="13.435146">
<time>2021-08-22T09:47:20Z</time>
</trkpt>
<trkpt lat="50.069002" lon="13.435123">
<time>2021-08-22T09:47:21Z</time>
</trkpt>
<trkpt lat="50.069012" lon="13.435085">
<time>2021-08-22T09:47:22Z</time>
</trkpt>
<trkpt lat="50.069018" lon="13.435035">
<time>2021-08-22T09:47:23Z</time>
</trkpt>
<trkpt lat="50.069016" lon="13.43498">
<time>2021-08-22T09:47:24Z</time>
</trkpt>
<trkpt lat="50.069007" lon="13.434926">
<time>2021-08-22T09:47:25Z</time>
</trkpt>
<trkpt lat="50.068995" lon="13.434867">
<time>2021-08-22T09:47:26Z</time>
</trkpt>
<trkpt lat="50.068974" lon="13.43481">
<time>2021-08-22T09:47:27Z</time>
</trkpt>
<trkpt lat="50.068955" lon="13.43475">
<time>2021-08-22T09:47:28Z</time>
</trkpt>
<trkpt lat="50.068932" lon="13.434701">
<time>2021-08-22T09:47:29Z</time>
</trkpt>
<trkpt lat="50.068907" lon="13.434653">
<time>2021-08-22T09:47:30Z</time>
</trkpt>
<trkpt lat="50.068874" lon="13.434604">
<time>2021-08-22T09:47:31Z</time>
</trkpt>
<trkpt lat="50.068842" lon="13.434547">
<time>2021-08-22T09:47:32Z</time>
</trkpt>
<trkpt lat="50.068804" lon="13.434496">
<time>2021-08-22T09:47:33Z</time>
</trkpt>
<trkpt lat="50.068764" lon="13.434442">
<time>2021-08-22T09:47:34Z</time>
</trkpt>
<trkpt lat="50.068717" lon="13.434381">
<time>2021-08-22T09:47:35Z</time>
</trkpt>
<trkpt lat="50.068666" lon="13.434313">
<time>2021-08-22T09:47:36Z</time>
</trkpt>
<trkpt lat="50.068609" lon="13.434247">
<time>2021-08-22T09:47:37Z</time>
</trkpt>
<trkpt lat="50.068553" lon="13.434196">
<time>2021-08-22T09:47:38Z</time>
</trkpt>
<trkpt lat="50.068495" lon="13.434147">
<time>2021-08-22T09:47:39Z</time>
</trkpt>
<trkpt lat="50.068438" lon="13.43409">
<time>2021-08-22T09:47:40Z</time>
</trkpt>
<trkpt lat="50.068395" lon="13.434029">
<time>2021-08-22T09:47:41Z</time>
</trkpt>
<trkpt lat="50.068365" lon="13.433958">
<time>2021-08-22T09:47:42Z</time>
</trkpt>
<trkpt lat="50.068349" lon="13.433873">
<time>2021-08-22T09:47:43Z</time>
</trkpt>
<trkpt lat="50.068353" lon="13.43379">
<time>2021-08-22T09:47:44Z</time>
</trkpt>
<trkpt lat="50.068343" lon="13.43368">
<time>2021-08-22T09:47:45Z</time>
</trkpt>
<trkpt lat="50.068358" lon="13.433581">
<time>2021-08-22T09:47:46Z</time>
</trkpt>
<trkpt lat="50.068376" lon="13.433463">
<time>2021-08-22T09:47:47Z</time>
</trkpt>
<trkpt lat="50.0684" lon="13.433347">
<time>2021-08-22T09:47:48Z</time>
</trkpt>
<trkpt lat="50.068432" lon="13.433237">
<time>2021-08-22T09:47:49Z</time>
</trkpt>
<trkpt lat="50.068496" lon="13.433129">
<time>2021-08-22T09:47:50Z</time>
</trkpt>
<trkpt lat="50.068555" lon="13.433025">
<time>2021-08-22T09:47:51Z</time>
</trkpt>
<trkpt lat="50.068624" lon="13.432914">
<time>2021-08-22T09:47:52Z</time>
</trkpt>
<trkpt lat="50.068688" lon="13.432812">
<time>2021-08-22T09:47:53Z</time>
</trkpt>
<trkpt lat="50.068751" lon="13.43271">
<time>2021-08-22T09:47:54Z</time>
</trkpt>
<trkpt lat="50.068809" lon="13.432605">
<time>2021-08-22T09:47:55Z</time>
</trkpt>
<trkpt lat="50.068871" lon="13.432507">
<time>2021-08-22T09:47:56Z</time>
</trkpt>
<trkpt lat="50.068922" lon="13.432402">
<time>2021-08-22T09:47:57Z</time>
</trkpt>
<trkpt lat="50.068972" lon="13.432286">
<time>2021-08-22T09:47:58Z</time>
</trkpt>
<trkpt lat="50.069019" lon="13.432166">
<time>2021-08-22T09:47:59Z</time>
</trkpt>
<trkpt lat="50.069063" lon="13.432039">
<time>2021-08-22T09:48:00Z</time>
</trkpt>
<trkpt lat="50.069098" lon="13.431906">
<time>2021-08-22T09:48:01Z</time>
</trkpt>
<trkpt lat="50.069133" lon="13.431774">
<time>2021-08-22T09:48:02Z</time>
</trkpt>
<trkpt lat="50.069163" lon="13.43165">
<time>2021-08-22T09:48:03Z</time>
</trkpt>
<trkpt lat="50.069186" lon="13.431543">
<time>2021-08-22T09:48:04Z</time>
</trkpt>
<trkpt lat="50.069205" lon="13.431449">
<time>2021-08-22T09:48:05Z</time>
</trkpt>
<trkpt lat="50.069221" lon="13.431379">
<time>2021-08-22T09:48:06Z</time>
</trkpt>
<trkpt lat="50.069233" lon="13.431314">
<time>2021-08-22T09:48:07Z</time>
</trkpt>
<trkpt lat="50.069249" lon="13.431246">
<time>2021-08-22T09:48:08Z</time>
</trkpt>
<trkpt lat="50.069265" lon="13.431177">
<time>2021-08-22T09:48:09Z</time>
</trkpt>
<trkpt lat="50.069279" lon="13.431082">
<time>2021-08-22T09:48:10Z</time>
</trkpt>
<trkpt lat="50.069297" lon="13.430978">
<time>2021-08-22T09:48:11Z</time>
</trkpt>
<trkpt lat="50.069324" lon="13.430893">
<time>2021-08-22T09:48:12Z</time>
</trkpt>
<trkpt lat="50.069346" lon="13.430787">
<time>2021-08-22T09:48:13Z</time>
</trkpt>
<trkpt lat="50.069366" lon="13.430676">
<time>2021-08-22T09:48:14Z</time>
</trkpt>
<trkpt lat="50.069382" lon="13.430578">
<time>2021-08-22T09:48:15Z</time>
</trkpt>
<trkpt lat="50.069387" lon="13.430502">
<time>2021-08-22T09:48:16Z</time>
</trkpt>
<trkpt lat="50.069364" lon="13.43046">
<time>2021-08-22T09:48:17Z</time>
</trkpt>
<trkpt lat="50.069336" lon="13.430447">
<time>2021-08-22T09:48:18Z</time>
</trkpt>
<trkpt lat="50.069297" lon="13.430442">
<time>2021-08-22T09:48:19Z</time>
</trkpt>
<trkpt lat="50.06925" lon="13.430449">
<time>2021-08-22T09:48:20Z</time>
</trkpt>
<trkpt lat="50.069204" lon="13.430454">
<time>2021-08-22T09:48:21Z</time>
</trkpt>
<trkpt lat="50.069162" lon="13.430471">
<time>2021-08-22T09:48:22Z</time>
</trkpt>
<trkpt lat="50.069131" lon="13.430508">
<time>2021-08-22T09:48:23Z</time>
</trkpt>
<trkpt lat="50.069105" lon="13.430544">
<time>2021-08-22T09:48:24Z</time>
</trkpt>
<trkpt lat="50.069078" lon="13.430581">
<time>2021-08-22T09:48:25Z</time>
</trkpt>
<trkpt lat="50.069047" lon="13.430617">
<time>2021-08-22T09:48:26Z</time>
</trkpt>
<trkpt lat="50.069021" lon="13.430651">
<time>2021-08-22T09:48:27Z</time>
</trkpt>
<trkpt lat="50.069" lon="13.430692">
<time>2021-08-22T09:48:28Z</time>
</trkpt>
<trkpt lat="50.068971" lon="13.430729">
<time>2021-08-22T09:48:29Z</time>
</trkpt>
<trkpt lat="50.06894" lon="13.430755">
<time>2021-08-22T09:48:30Z</time>
</trkpt>
<trkpt lat="50.068908" lon="13.43079">
<time>2021-08-22T09:48:31Z</time>
</trkpt>
<trkpt lat="50.068873" lon="13.430811">
<time>2021-08-22T09:48:32Z</time>
</trkpt>
<trkpt lat="50.068834" lon="13.430827">
<time>2021-08-22T09:48:33Z</time>
</trkpt>
<trkpt lat="50.06879" lon="13.430842">
<time>2021-08-22T09:48:34Z</time>
</trkpt>
<trkpt lat="50.068748" lon="13.43086">
<time>2021-08-22T09:48:35Z</time>
</trkpt>
<trkpt lat="50.068706" lon="13.430876">
<time>2021-08-22T09:48:36Z</time>
</trkpt>
<trkpt lat="50.068665" lon="13.430889">
<time>2021-08-22T09:48:37Z</time>
</trkpt>
<trkpt lat="50.068627" lon="13.430899">
<time>2021-08-22T09:48:38Z</time>
</trkpt>
<trkpt lat="50.068596" lon="13.430918">
<time>2021-08-22T09:48:39Z</time>
</trkpt>
<trkpt lat="50.068565" lon="13.430943">
<time>2021-08-22T09:48:40Z</time>
</trkpt>
<trkpt lat="50.068534" lon="13.430974">
<time>2021-08-22T09:48:41Z</time>
</trkpt>
<trkpt lat="50.068507" lon="13.431002">
<time>2021-08-22T09:48:42Z</time>
</trkpt>
<trkpt lat="50.068484" lon="13.431017">
<time>2021-08-22T09:48:43Z</time>
</trkpt>
<trkpt lat="50.068463" lon="13.431011">
<time>2021-08-22T09:48:44Z</time>
</trkpt>
<trkpt lat="50.068447" lon="13.430994">
<time>2021-08-22T09:48:45Z</time>
</trkpt>
<trkpt lat="50.068433" lon="13.430948">
<time>2021-08-22T09:48:46Z</time>
</trkpt>
<trkpt lat="50.068434" lon="13.430895">
<time>2021-08-22T09:48:47Z</time>
</trkpt>
<trkpt lat="50.068425" lon="13.430833">
<time>2021-08-22T09:48:48Z</time>
</trkpt>
<trkpt lat="50.068416" lon="13.430779">
<time>2021-08-22T09:48:49Z</time>
</trkpt>
<trkpt lat="50.068406" lon="13.430728">
<time>2021-08-22T09:48:50Z</time>
</trkpt>
<trkpt lat="50.068399" lon="13.430673">
<time>2021-08-22T09:48:51Z</time>
</trkpt>
<trkpt lat="50.068381" lon="13.430607">
<time>2021-08-22T09:48:52Z</time>
</trkpt>
<trkpt lat="50.068379" lon="13.430534">
<time>2021-08-22T09:48:53Z</time>
</trkpt>
<trkpt lat="50.068373" lon="13.430458">
<time>2021-08-22T09:48:54Z</time>
</trkpt>
<trkpt lat="50.068356" lon="13.430373">
<time>2021-08-22T09:48:55Z</time>
</trkpt>
<trkpt lat="50.068328" lon="13.430285">
<time>2021-08-22T09:48:56Z</time>
</trkpt>
<trkpt lat="50.06829" lon="13.430205">
<time>2021-08-22T09:48:57Z</time>
</trkpt>
<trkpt lat="50.068242" lon="13.430148">
<time>2021-08-22T09:48:58Z</time>
</trkpt>
<trkpt lat="50.068192" lon="13.430115">
<time>2021-08-22T09:48:59Z</time>
</trkpt>
<trkpt lat="50.068145" lon="13.430102">
<time>2021-08-22T09:49:00Z</time>
</trkpt>
<trkpt lat="50.068099" lon="13.430094">
<time>2021-08-22T09:49:01Z</time>
</trkpt>
<trkpt lat="50.068055" lon="13.430082">
<time>2021-08-22T09:49:02Z</time>
</trkpt>
<trkpt lat="50.068012" lon="13.430071">
<time>2021-08-22T09:49:03Z</time>
</trkpt>
<trkpt lat="50.067968" lon="13.430061">
<time>2021-08-22T09:49:04Z</time>
</trkpt>
<trkpt lat="50.067914" lon="13.430059">
<time>2021-08-22T09:49:05Z</time>
</trkpt>
<trkpt lat="50.067856" lon="13.430062">
<time>2021-08-22T09:49:06Z</time>
</trkpt>
<trkpt lat="50.067803" lon="13.430075">
<time>2021-08-22T09:49:07Z</time>
</trkpt>
<trkpt lat="50.067743" lon="13.430082">
<time>2021-08-22T09:49:08Z</time>
</trkpt>
<trkpt lat="50.067692" lon="13.430095">
<time>2021-08-22T09:49:09Z</time>
</trkpt>
<trkpt lat="50.067648" lon="13.430112">
<time>2021-08-22T09:49:10Z</time>
</trkpt>
<trkpt lat="50.067611" lon="13.43012">
<time>2021-08-22T09:49:11Z</time>
</trkpt>
<trkpt lat="50.067566" lon="13.430123">
<time>2021-08-22T09:49:12Z</time>
</trkpt>
<trkpt lat="50.067523" lon="13.430148">
<time>2021-08-22T09:49:13Z</time>
</trkpt>
<trkpt lat="50.067472" lon="13.430163">
<time>2021-08-22T09:49:14Z</time>
</trkpt>
<trkpt lat="50.067423" lon="13.430176">
<time>2021-08-22T09:49:15Z</time>
</trkpt>
<trkpt lat="50.06738" lon="13.43019">
<time>2021-08-22T09:49:16Z</time>
</trkpt>
<trkpt lat="50.06734" lon="13.430208">
<time>2021-08-22T09:49:17Z</time>
</trkpt>
<trkpt lat="50.067301" lon="13.43022">
<time>2021-08-22T09:49:18Z</time>
</trkpt>
<trkpt lat="50.067264" lon="13.430232">
<time>2021-08-22T09:49:19Z</time>
</trkpt>
<trkpt lat="50.067222" lon="13.430243">
<time>2021-08-22T09:49:20Z</time>
</trkpt>
<trkpt lat="50.067175" lon="13.430252">
<time>2021-08-22T09:49:21Z</time>
</trkpt>
<trkpt lat="50.067125" lon="13.430264">
<time>2021-08-22T09:49:22Z</time>
</trkpt>
<trkpt lat="50.067077" lon="13.430274">
<time>2021-08-22T09:49:23Z</time>
</trkpt>
<trkpt lat="50.067031" lon="13.430299">
<time>2021-08-22T09:49:24Z</time>
</trkpt>
<trkpt lat="50.06699" lon="13.430331">
<time>2021-08-22T09:49:25Z</time>
</trkpt>
<trkpt lat="50.066955" lon="13.430363">
<time>2021-08-22T09:49:26Z</time>
</trkpt>
<trkpt lat="50.06692" lon="13.430391">
<time>2021-08-22T09:49:27Z</time>
</trkpt>
<trkpt lat="50.06688" lon="13.430425">
<time>2021-08-22T09:49:28Z</time>
</trkpt>
<trkpt lat="50.06684" lon="13.430446">
<time>2021-08-22T09:49:29Z</time>
</trkpt>
<trkpt lat="50.066807" lon="13.43046">
<time>2021-08-22T09:49:30Z</time>
</trkpt>
<trkpt lat="50.066774" lon="13.430462">
<time>2021-08-22T09:49:31Z</time>
</trkpt>
<trkpt lat="50.066739" lon="13.430468">
<time>2021-08-22T09:49:32Z</time>
</trkpt>
<trkpt lat="50.066724" lon="13.430481">
<time>2021-08-22T09:49:33Z</time>
</trkpt>
<trkpt lat="50.066708" lon="13.430491">
<time>2021-08-22T09:49:34Z</time>
</trkpt>
<trkpt lat="50.066694" lon="13.430511">
<time>2021-08-22T09:49:35Z</time>
</trkpt>
<trkpt lat="50.066683" lon="13.430541">
<time>2021-08-22T09:49:36Z</time>
</trkpt>
<trkpt lat="50.066668" lon="13.430586">
<time>2021-08-22T09:49:37Z</time>
</trkpt>
<trkpt lat="50.066648" lon="13.430625">
<time>2021-08-22T09:49:38Z</time>
</trkpt>
<trkpt lat="50.066628" lon="13.430658">
<time>2021-08-22T09:49:39Z</time>
</trkpt>
<trkpt lat="50.066604" lon="13.43069">
<time>2021-08-22T09:49:40Z</time>
</trkpt>
<trkpt lat="50.066582" lon="13.430721">
<time>2021-08-22T09:49:41Z</time>
</trkpt>
<trkpt lat="50.066557" lon="13.430754">
<time>2021-08-22T09:49:42Z</time>
</trkpt>
<trkpt lat="50.066538" lon="13.430784">
<time>2021-08-22T09:49:43Z</time>
</trkpt>
<trkpt lat="50.066508" lon="13.430821">
<time>2021-08-22T09:49:44Z</time>
</trkpt>
<trkpt lat="50.066474" lon="13.430851">
<time>2021-08-22T09:49:45Z</time>
</trkpt>
<trkpt lat="50.066438" lon="13.430882">
<time>2021-08-22T09:49:46Z</time>
</trkpt>
<trkpt lat="50.066402" lon="13.430911">
<time>2021-08-22T09:49:47Z</time>
</trkpt>
<trkpt lat="50.06637" lon="13.430942">
<time>2021-08-22T09:49:48Z</time>
</trkpt>
<trkpt lat="50.066339" lon="13.430961">
<time>2021-08-22T09:49:49Z</time>
</trkpt>
<trkpt lat="50.066307" lon="13.430977">
<time>2021-08-22T09:49:50Z</time>
</trkpt>
<trkpt lat="50.066278" lon="13.431001">
<time>2021-08-22T09:49:51Z</time>
</trkpt>
<trkpt lat="50.066249" lon="13.431036">
<time>2021-08-22T09:49:52Z</time>
</trkpt>
<trkpt lat="50.066221" lon="13.431068">
<time>2021-08-22T09:49:53Z</time>
</trkpt>
<trkpt lat="50.06619" lon="13.431086">
<time>2021-08-22T09:49:54Z</time>
</trkpt>
<trkpt lat="50.066163" lon="13.4311">
<time>2021-08-22T09:49:55Z</time>
</trkpt>
<trkpt lat="50.066137" lon="13.431114">
<time>2021-08-22T09:49:56Z</time>
</trkpt>
<trkpt lat="50.066111" lon="13.431129">
<time>2021-08-22T09:49:57Z</time>
</trkpt>
<trkpt lat="50.06608" lon="13.431142">
<time>2021-08-22T09:49:58Z</time>
</trkpt>
<trkpt lat="50.066052" lon="13.431158">
<time>2021-08-22T09:49:59Z</time>
</trkpt>
<trkpt lat="50.066026" lon="13.431181">
<time>2021-08-22T09:50:00Z</time>
</trkpt>
<trkpt lat="50.066001" lon="13.431212">
<time>2021-08-22T09:50:01Z</time>
</trkpt>
<trkpt lat="50.065977" lon="13.431231">
<time>2021-08-22T09:50:02Z</time>
</trkpt>
<trkpt lat="50.065954" lon="13.431255">
<time>2021-08-22T09:50:03Z</time>
</trkpt>
<trkpt lat="50.065933" lon="13.431278">
<time>2021-08-22T09:50:04Z</time>
</trkpt>
<trkpt lat="50.065909" lon="13.431297">
<time>2021-08-22T09:50:05Z</time>
</trkpt>
<trkpt lat="50.065889" lon="13.431317">
<time>2021-08-22T09:50:06Z</time>
</trkpt>
<trkpt lat="50.065865" lon="13.431339">
<time>2021-08-22T09:50:07Z</time>
</trkpt>
<trkpt lat="50.065845" lon="13.431362">
<time>2021-08-22T09:50:08Z</time>
</trkpt>
<trkpt lat="50.065827" lon="13.431388">
<time>2021-08-22T09:50:09Z</time>
</trkpt>
<trkpt lat="50.065806" lon="13.431405">
<time>2021-08-22T09:50:10Z</time>
</trkpt>
<trkpt lat="50.065787" lon="13.431424">
<time>2021-08-22T09:50:11Z</time>
</trkpt>
<trkpt lat="50.065765" lon="13.431444">
<time>2021-08-22T09:50:12Z</time>
</trkpt>
<trkpt lat="50.06575" lon="13.43147">
<time>2021-08-22T09:50:13Z</time>
</trkpt>
<trkpt lat="50.065736" lon="13.431494">
<time>2021-08-22T09:50:14Z</time>
</trkpt>
<trkpt lat="50.065725" lon="13.431521">
<time>2021-08-22T09:50:15Z</time>
</trkpt>
<trkpt lat="50.065716" lon="13.431546">
<time>2021-08-22T09:50:16Z</time>
</trkpt>
<trkpt lat="50.0657" lon="13.431573">
<time>2021-08-22T09:50:17Z</time>
</trkpt>
<trkpt lat="50.065685" lon="13.431597">
<time>2021-08-22T09:50:18Z</time>
</trkpt>
<trkpt lat="50.065672" lon="13.431621">
<time>2021-08-22T09:50:19Z</time>
</trkpt>
<trkpt lat="50.065661" lon="13.431646">
<time>2021-08-22T09:50:20Z</time>
</trkpt>
<trkpt lat="50.065642" lon="13.43167">
<time>2021-08-22T09:50:21Z</time>
</trkpt>
<trkpt lat="50.065623" lon="13.431696">
<time>2021-08-22T09:50:22Z</time>
</trkpt>
<trkpt lat="50.065599" lon="13.431718">
<time>2021-08-22T09:50:23Z</time>
</trkpt>
<trkpt lat="50.065579" lon="13.431745">
<time>2021-08-22T09:50:24Z</time>
</trkpt>
<trkpt lat="50.065562" lon="13.431771">
<time>2021-08-22T09:50:25Z</time>
</trkpt>
<trkpt lat="50.065542" lon="13.431787">
<time>2021-08-22T09:50:26Z</time>
</trkpt>
<trkpt lat="50.065522" lon="13.431802">
<time>2021-08-22T09:50:27Z</time>
</trkpt>
<trkpt lat="50.065498" lon="13.431811">
<time>2021-08-22T09:50:28Z</time>
</trkpt>
<trkpt lat="50.065478" lon="13.431828">
<time>2021-08-22T09:50:29Z</time>
</trkpt>
<trkpt lat="50.06546" lon="13.431844">
<time>2021-08-22T09:50:30Z</time>
</trkpt>
<trkpt lat="50.065444" lon="13.431855">
<time>2021-08-22T09:50:31Z</time>
</trkpt>
<trkpt lat="50.06543" lon="13.431869">
<time>2021-08-22T09:50:32Z</time>
</trkpt>
<trkpt lat="50.065411" lon="13.431884">
<time>2021-08-22T09:50:33Z</time>
</trkpt>
<trkpt lat="50.06539" lon="13.431902">
<time>2021-08-22T09:50:34Z</time>
</trkpt>
<trkpt lat="50.065367" lon="13.431922">
<time>2021-08-22T09:50:35Z</time>
</trkpt>
<trkpt lat="50.065348" lon="13.431939">
<time>2021-08-22T09:50:36Z</time>
</trkpt>
<trkpt lat="50.065333" lon="13.431953">
<time>2021-08-22T09:50:37Z</time>
</trkpt>
<trkpt lat="50.065318" lon="13.431965">
<time>2021-08-22T09:50:38Z</time>
</trkpt>
<trkpt lat="50.065299" lon="13.431976">
<time>2021-08-22T09:50:39Z</time>
</trkpt>
<trkpt lat="50.065283" lon="13.431992">
<time>2021-08-22T09:50:40Z</time>
</trkpt>
<trkpt lat="50.065261" lon="13.432016">
<time>2021-08-22T09:50:41Z</time>
</trkpt>
<trkpt lat="50.065236" lon="13.432036">
<time>2021-08-22T09:50:42Z</time>
</trkpt>
<trkpt lat="50.065215" lon="13.432052">
<time>2021-08-22T09:50:43Z</time>
</trkpt>
<trkpt lat="50.065199" lon="13.432067">
<time>2021-08-22T09:50:44Z</time>
</trkpt>
<trkpt lat="50.065182" lon="13.432084">
<time>2021-08-22T09:50:45Z</time>
</trkpt>
<trkpt lat="50.06516" lon="13.4321">
<time>2021-08-22T09:50:46Z</time>
</trkpt>
<trkpt lat="50.065143" lon="13.432111">
<time>2021-08-22T09:50:47Z</time>
</trkpt>
<trkpt lat="50.065125" lon="13.432122">
<time>2021-08-22T09:50:48Z</time>
</trkpt>
<trkpt lat="50.065103" lon="13.432137">
<time>2021-08-22T09:50:49Z</time>
</trkpt>
<trkpt lat="50.065078" lon="13.432146">
<time>2021-08-22T09:50:50Z</time>
</trkpt>
<trkpt lat="50.065059" lon="13.432159">
<time>2021-08-22T09:50:51Z</time>
</trkpt>
<trkpt lat="50.065038" lon="13.432174">
<time>2021-08-22T09:50:52Z</time>
</trkpt>
<trkpt lat="50.065017" lon="13.432193">
<time>2021-08-22T09:50:53Z</time>
</trkpt>
<trkpt lat="50.064999" lon="13.43221">
<time>2021-08-22T09:50:54Z</time>
</trkpt>
<trkpt lat="50.06498" lon="13.432222">
<time>2021-08-22T09:50:55Z</time>
</trkpt>
<trkpt lat="50.064962" lon="13.432236">
<time>2021-08-22T09:50:56Z</time>
</trkpt>
<trkpt lat="50.06494" lon="13.432252">
<time>2021-08-22T09:50:57Z</time>
</trkpt>
<trkpt lat="50.06492" lon="13.432268">
<time>2021-08-22T09:50:58Z</time>
</trkpt>
<trkpt lat="50.064899" lon="13.43228">
<time>2021-08-22T09:50:59Z</time>
</trkpt>
<trkpt lat="50.064876" lon="13.432295">
<time>2021-08-22T09:51:00Z</time>
</trkpt>
<trkpt lat="50.064859" lon="13.432308">
<time>2021-08-22T09:51:01Z</time>
</trkpt>
<trkpt lat="50.064843" lon="13.432322">
<time>2021-08-22T09:51:02Z</time>
</trkpt>
<trkpt lat="50.064823" lon="13.43234">
<time>2021-08-22T09:51:03Z</time>
</trkpt>
<trkpt lat="50.064802" lon="13.432351">
<time>2021-08-22T09:51:04Z</time>
</trkpt>
<trkpt lat="50.06478" lon="13.432355">
<time>2021-08-22T09:51:05Z</time>
</trkpt>
<trkpt lat="50.064761" lon="13.432364">
<time>2021-08-22T09:51:06Z</time>
</trkpt>
<trkpt lat="50.064738" lon="13.43237">
<time>2021-08-22T09:51:07Z</time>
</trkpt>
<trkpt lat="50.064712" lon="13.432381">
<time>2021-08-22T09:51:08Z</time>
</trkpt>
<trkpt lat="50.064683" lon="13.432394">
<time>2021-08-22T09:51:09Z</time>
</trkpt>
<trkpt lat="50.064658" lon="13.432412">
<time>2021-08-22T09:51:10Z</time>
</trkpt>
<trkpt lat="50.064628" lon="13.432427">
<time>2021-08-22T09:51:11Z</time>
</trkpt>
<trkpt lat="50.064604" lon="13.432446">
<time>2021-08-22T09:51:12Z</time>
</trkpt>
<trkpt lat="50.06458" lon="13.432464">
<time>2021-08-22T09:51:13Z</time>
</trkpt>
<trkpt lat="50.06456" lon="13.432482">
<time>2021-08-22T09:51:14Z</time>
</trkpt>
<trkpt lat="50.064535" lon="13.432496">
<time>2021-08-22T09:51:15Z</time>
</trkpt>
<trkpt lat="50.064511" lon="13.432512">
<time>2021-08-22T09:51:16Z</time>
</trkpt>
<trkpt lat="50.064489" lon="13.432532">
<time>2021-08-22T09:51:17Z</time>
</trkpt>
<trkpt lat="50.064466" lon="13.432547">
<time>2021-08-22T09:51:18Z</time>
</trkpt>
<trkpt lat="50.064444" lon="13.432562">
<time>2021-08-22T09:51:19Z</time>
</trkpt>
<trkpt lat="50.064423" lon="13.432576">
<time>2021-08-22T09:51:20Z</time>
</trkpt>
<trkpt lat="50.0644" lon="13.432587">
<time>2021-08-22T09:51:21Z</time>
</trkpt>
<trkpt lat="50.064377" lon="13.432599">
<time>2021-08-22T09:51:22Z</time>
</trkpt>
<trkpt lat="50.064353" lon="13.432613">
<time>2021-08-22T09:51:23Z</time>
</trkpt>
<trkpt lat="50.064329" lon="13.432624">
<time>2021-08-22T09:51:24Z</time>
</trkpt>
<trkpt lat="50.064306" lon="13.432638">
<time>2021-08-22T09:51:25Z</time>
</trkpt>
<trkpt lat="50.064288" lon="13.432646">
<time>2021-08-22T09:51:26Z</time>
</trkpt>
<trkpt lat="50.064272" lon="13.432649">
<time>2021-08-22T09:51:27Z</time>
</trkpt>
<trkpt lat="50.06426" lon="13.432654">
<time>2021-08-22T09:51:28Z</time>
</trkpt>
<trkpt lat="50.064249" lon="13.432665">
<time>2021-08-22T09:51:29Z</time>
</trkpt>
<trkpt lat="50.064237" lon="13.432679">
<time>2021-08-22T09:51:30Z</time>
</trkpt>
<trkpt lat="50.06422" lon="13.432694">
<time>2021-08-22T09:51:31Z</time>
</trkpt>
<trkpt lat="50.064204" lon="13.432705">
<time>2021-08-22T09:51:32Z</time>
</trkpt>
<trkpt lat="50.064182" lon="13.432711">
<time>2021-08-22T09:51:33Z</time>
</trkpt>
<trkpt lat="50.064163" lon="13.432722">
<time>2021-08-22T09:51:34Z</time>
</trkpt>
<trkpt lat="50.064142" lon="13.432728">
<time>2021-08-22T09:51:35Z</time>
</trkpt>
<trkpt lat="50.064122" lon="13.432731">
<time>2021-08-22T09:51:36Z</time>
</trkpt>
<trkpt lat="50.064103" lon="13.432733">
<time>2021-08-22T09:51:37Z</time>
</trkpt>
<trkpt lat="50.064084" lon="13.432736">
<time>2021-08-22T09:51:38Z</time>
</trkpt>
<trkpt lat="50.064069" lon="13.432741">
<time>2021-08-22T09:51:39Z</time>
</trkpt>
<trkpt lat="50.064052" lon="13.432746">
<time>2021-08-22T09:51:40Z</time>
</trkpt>
<trkpt lat="50.064035" lon="13.432749">
<time>2021-08-22T09:51:41Z</time>
</trkpt>
<trkpt lat="50.064015" lon="13.432749">
<time>2021-08-22T09:51:42Z</time>
</trkpt>
<trkpt lat="50.063997" lon="13.432749">
<time>2021-08-22T09:51:43Z</time>
</trkpt>
<trkpt lat="50.063976" lon="13.432751">
<time>2021-08-22T09:51:44Z</time>
</trkpt>
<trkpt lat="50.063954" lon="13.432759">
<time>2021-08-22T09:51:45Z</time>
</trkpt>
<trkpt lat="50.063932" lon="13.432774">
<time>2021-08-22T09:51:46Z</time>
</trkpt>
<trkpt lat="50.063907" lon="13.432789">
<time>2021-08-22T09:51:47Z</time>
</trkpt>
<trkpt lat="50.063885" lon="13.432806">
<time>2021-08-22T09:51:48Z</time>
</trkpt>
<trkpt lat="50.063863" lon="13.432822">
<time>2021-08-22T09:51:49Z</time>
</trkpt>
<trkpt lat="50.063841" lon="13.43284">
<time>2021-08-22T09:51:50Z</time>
</trkpt>
<trkpt lat="50.063817" lon="13.432862">
<time>2021-08-22T09:51:51Z</time>
</trkpt>
<trkpt lat="50.063791" lon="13.432886">
<time>2021-08-22T09:51:52Z</time>
</trkpt>
<trkpt lat="50.063763" lon="13.432907">
<time>2021-08-22T09:51:53Z</time>
</trkpt>
<trkpt lat="50.063729" lon="13.432926">
<time>2021-08-22T09:51:54Z</time>
</trkpt>
<trkpt lat="50.063694" lon="13.432948">
<time>2021-08-22T09:51:55Z</time>
</trkpt>
<trkpt lat="50.06366" lon="13.432969">
<time>2021-08-22T09:51:56Z</time>
</trkpt>
<trkpt lat="50.063625" lon="13.432991">
<time>2021-08-22T09:51:57Z</time>
</trkpt>
<trkpt lat="50.063586" lon="13.43301">
<time>2021-08-22T09:51:58Z</time>
</trkpt>
<trkpt lat="50.063543" lon="13.433032">
<time>2021-08-22T09:51:59Z</time>
</trkpt>
<trkpt lat="50.063491" lon="13.433053">
<time>2021-08-22T09:52:00Z</time>
</trkpt>
<trkpt lat="50.063442" lon="13.433086">
<time>2021-08-22T09:52:01Z</time>
</trkpt>
<trkpt lat="50.063401" lon="13.433135">
<time>2021-08-22T09:52:02Z</time>
</trkpt>
<trkpt lat="50.063355" lon="13.433181">
<time>2021-08-22T09:52:03Z</time>
</trkpt>
<trkpt lat="50.063311" lon="13.433226">
<time>2021-08-22T09:52:04Z</time>
</trkpt>
<trkpt lat="50.063269" lon="13.433266">
<time>2021-08-22T09:52:05Z</time>
</trkpt>
<trkpt lat="50.063231" lon="13.433296">
<time>2021-08-22T09:52:06Z</time>
</trkpt>
<trkpt lat="50.063198" lon="13.433321">
<time>2021-08-22T09:52:07Z</time>
</trkpt>
<trkpt lat="50.063164" lon="13.433346">
<time>2021-08-22T09:52:08Z</time>
</trkpt>
<trkpt lat="50.06313" lon="13.43337">
<time>2021-08-22T09:52:09Z</time>
</trkpt>
<trkpt lat="50.063094" lon="13.43339">
<time>2021-08-22T09:52:10Z</time>
</trkpt>
<trkpt lat="50.063056" lon="13.433406">
<time>2021-08-22T09:52:11Z</time>
</trkpt>
<trkpt lat="50.063011" lon="13.43342">
<time>2021-08-22T09:52:12Z</time>
</trkpt>
<trkpt lat="50.062971" lon="13.433443">
<time>2021-08-22T09:52:13Z</time>
</trkpt>
<trkpt lat="50.062926" lon="13.433468">
<time>2021-08-22T09:52:14Z</time>
</trkpt>
<trkpt lat="50.062883" lon="13.433493">
<time>2021-08-22T09:52:15Z</time>
</trkpt>
<trkpt lat="50.062844" lon="13.433523">
<time>2021-08-22T09:52:16Z</time>
</trkpt>
<trkpt lat="50.062808" lon="13.433556">
<time>2021-08-22T09:52:17Z</time>
</trkpt>
<trkpt lat="50.062771" lon="13.433586">
<time>2021-08-22T09:52:18Z</time>
</trkpt>
<trkpt lat="50.062736" lon="13.433617">
<time>2021-08-22T09:52:19Z</time>
</trkpt>
<trkpt lat="50.062698" lon="13.433647">
<time>2021-08-22T09:52:20Z</time>
</trkpt>
<trkpt lat="50.062663" lon="13.433682">
<time>2021-08-22T09:52:21Z</time>
</trkpt>
<trkpt lat="50.062625" lon="13.433712">
<time>2021-08-22T09:52:22Z</time>
</trkpt>
<trkpt lat="50.06259" lon="13.433741">
<time>2021-08-22T09:52:23Z</time>
</trkpt>
<trkpt lat="50.062551" lon="13.433763">
<time>2021-08-22T09:52:24Z</time>
</trkpt>
<trkpt lat="50.062515" lon="13.433782">
<time>2021-08-22T09:52:25Z</time>
</trkpt>
<trkpt lat="50.06248" lon="13.43379">
<time>2021-08-22T09:52:26Z</time>
</trkpt>
<trkpt lat="50.062444" lon="13.433782">
<time>2021-08-22T09:52:27Z</time>
</trkpt>
<trkpt lat="50.062407" lon="13.433755">
<time>2021-08-22T09:52:28Z</time>
</trkpt>
<trkpt lat="50.06237" lon="13.433717">
<time>2021-08-22T09:52:29Z</time>
</trkpt>
<trkpt lat="50.062337" lon="13.433682">
<time>2021-08-22T09:52:30Z</time>
</trkpt>
<trkpt lat="50.062303" lon="13.433647">
<time>2021-08-22T09:52:31Z</time>
</trkpt>
<trkpt lat="50.062265" lon="13.433612">
<time>2021-08-22T09:52:32Z</time>
</trkpt>
<trkpt lat="50.062232" lon="13.433584">
<time>2021-08-22T09:52:33Z</time>
</trkpt>
<trkpt lat="50.062193" lon="13.433559">
<time>2021-08-22T09:52:34Z</time>
</trkpt>
<trkpt lat="50.062155" lon="13.433533">
<time>2021-08-22T09:52:35Z</time>
</trkpt>
<trkpt lat="50.062121" lon="13.433482">
<time>2021-08-22T09:52:36Z</time>
</trkpt>
<trkpt lat="50.062093" lon="13.433435">
<time>2021-08-22T09:52:37Z</time>
</trkpt>
<trkpt lat="50.062055" lon="13.433394">
<time>2021-08-22T09:52:38Z</time>
</trkpt>
<trkpt lat="50.062018" lon="13.433355">
<time>2021-08-22T09:52:39Z</time>
</trkpt>
<trkpt lat="50.061985" lon="13.43332">
<time>2021-08-22T09:52:40Z</time>
</trkpt>
<trkpt lat="50.06195" lon="13.433282">
<time>2021-08-22T09:52:41Z</time>
</trkpt>
<trkpt lat="50.061903" lon="13.433235">
<time>2021-08-22T09:52:42Z</time>
</trkpt>
<trkpt lat="50.061863" lon="13.433194">
<time>2021-08-22T09:52:43Z</time>
</trkpt>
<trkpt lat="50.061817" lon="13.433154">
<time>2021-08-22T09:52:44Z</time>
</trkpt>
<trkpt lat="50.061771" lon="13.433118">
<time>2021-08-22T09:52:45Z</time>
</trkpt>
<trkpt lat="50.06173" lon="13.433091">
<time>2021-08-22T09:52:46Z</time>
</trkpt>
<trkpt lat="50.061692" lon="13.433067">
<time>2021-08-22T09:52:47Z</time>
</trkpt>
<trkpt lat="50.061653" lon="13.433045">
<time>2021-08-22T09:52:48Z</time>
</trkpt>
<trkpt lat="50.061608" lon="13.433018">
<time>2021-08-22T09:52:49Z</time>
</trkpt>
<trkpt lat="50.061568" lon="13.432994">
<time>2021-08-22T09:52:50Z</time>
</trkpt>
<trkpt lat="50.061528" lon="13.432979">
<time>2021-08-22T09:52:51Z</time>
</trkpt>
<trkpt lat="50.06149" lon="13.432969">
<time>2021-08-22T09:52:52Z</time>
</trkpt>
<trkpt lat="50.061459" lon="13.43297">
<time>2021-08-22T09:52:53Z</time>
</trkpt>
<trkpt lat="50.061423" lon="13.432964">
<time>2021-08-22T09:52:54Z</time>
</trkpt>
<trkpt lat="50.061387" lon="13.432959">
<time>2021-08-22T09:52:55Z</time>
</trkpt>
<trkpt lat="50.061356" lon="13.432952">
<time>2021-08-22T09:52:56Z</time>
</trkpt>
<trkpt lat="50.061331" lon="13.432935">
<time>2021-08-22T09:52:57Z</time>
</trkpt>
<trkpt lat="50.0613" lon="13.432905">
<time>2021-08-22T09:52:58Z</time>
</trkpt>
<trkpt lat="50.061266" lon="13.432871">
<time>2021-08-22T09:52:59Z</time>
</trkpt>
<trkpt lat="50.061238" lon="13.432824">
<time>2021-08-22T09:53:00Z</time>
</trkpt>
<trkpt lat="50.061212" lon="13.432773">
<time>2021-08-22T09:53:01Z</time>
</trkpt>
<trkpt lat="50.061199" lon="13.432715">
<time>2021-08-22T09:53:02Z</time>
</trkpt>
<trkpt lat="50.061185" lon="13.432657">
<time>2021-08-22T09:53:03Z</time>
</trkpt>
<trkpt lat="50.061178" lon="13.432585">
<time>2021-08-22T09:53:04Z</time>
</trkpt>
<trkpt lat="50.061177" lon="13.432513">
<time>2021-08-22T09:53:05Z</time>
</trkpt>
<trkpt lat="50.061169" lon="13.432446">
<time>2021-08-22T09:53:06Z</time>
</trkpt>
<trkpt lat="50.061169" lon="13.432371">
<time>2021-08-22T09:53:07Z</time>
</trkpt>
<trkpt lat="50.061166" lon="13.432295">
<time>2021-08-22T09:53:08Z</time>
</trkpt>
<trkpt lat="50.061164" lon="13.432221">
<time>2021-08-22T09:53:09Z</time>
</trkpt>
<trkpt lat="50.061156" lon="13.432141">
<time>2021-08-22T09:53:10Z</time>
</trkpt>
<trkpt lat="50.061149" lon="13.432064">
<time>2021-08-22T09:53:11Z</time>
</trkpt>
<trkpt lat="50.06114" lon="13.431981">
<time>2021-08-22T09:53:12Z</time>
</trkpt>
<trkpt lat="50.061127" lon="13.431897">
<time>2021-08-22T09:53:13Z</time>
</trkpt>
<trkpt lat="50.06111" lon="13.431813">
<time>2021-08-22T09:53:14Z</time>
</trkpt>
<trkpt lat="50.061095" lon="13.431732">
<time>2021-08-22T09:53:15Z</time>
</trkpt>
<trkpt lat="50.061086" lon="13.431653">
<time>2021-08-22T09:53:16Z</time>
</trkpt>
<trkpt lat="50.061077" lon="13.431585">
<time>2021-08-22T09:53:17Z</time>
</trkpt>
<trkpt lat="50.061067" lon="13.431517">
<time>2021-08-22T09:53:18Z</time>
</trkpt>
<trkpt lat="50.061057" lon="13.431444">
<time>2021-08-22T09:53:19Z</time>
</trkpt>
<trkpt lat="50.061036" lon="13.431363">
<time>2021-08-22T09:53:20Z</time>
</trkpt>
<trkpt lat="50.061021" lon="13.431284">
<time>2021-08-22T09:53:21Z</time>
</trkpt>
<trkpt lat="50.061006" lon="13.431206">
<time>2021-08-22T09:53:22Z</time>
</trkpt>
<trkpt lat="50.060988" lon="13.43113">
<time>2021-08-22T09:53:23Z</time>
</trkpt>
<trkpt lat="50.060969" lon="13.431056">
<time>2021-08-22T09:53:24Z</time>
</trkpt>
<trkpt lat="50.060947" lon="13.430978">
<time>2021-08-22T09:53:25Z</time>
</trkpt>
<trkpt lat="50.060926" lon="13.430898">
<time>2021-08-22T09:53:26Z</time>
</trkpt>
<trkpt lat="50.060909" lon="13.430813">
<time>2021-08-22T09:53:27Z</time>
</trkpt>
<trkpt lat="50.060901" lon="13.430725">
<time>2021-08-22T09:53:28Z</time>
</trkpt>
<trkpt lat="50.060897" lon="13.430638">
<time>2021-08-22T09:53:29Z</time>
</trkpt>
<trkpt lat="50.060902" lon="13.430548">
<time>2021-08-22T09:53:30Z</time>
</trkpt>
<trkpt lat="50.060916" lon="13.430456">
<time>2021-08-22T09:53:31Z</time>
</trkpt>
<trkpt lat="50.060936" lon="13.430365">
<time>2021-08-22T09:53:32Z</time>
</trkpt>
<trkpt lat="50.060951" lon="13.43027">
<time>2021-08-22T09:53:33Z</time>
</trkpt>
<trkpt lat="50.060966" lon="13.430174">
<time>2021-08-22T09:53:34Z</time>
</trkpt>
<trkpt lat="50.060969" lon="13.430075">
<time>2021-08-22T09:53:35Z</time>
</trkpt>
<trkpt lat="50.060967" lon="13.429975">
<time>2021-08-22T09:53:36Z</time>
</trkpt>
<trkpt lat="50.060968" lon="13.429873">
<time>2021-08-22T09:53:37Z</time>
</trkpt>
<trkpt lat="50.060976" lon="13.42977">
<time>2021-08-22T09:53:38Z</time>
</trkpt>
<trkpt lat="50.060989" lon="13.429662">
<time>2021-08-22T09:53:39Z</time>
</trkpt>
<trkpt lat="50.061" lon="13.429554">
<time>2021-08-22T09:53:40Z</time>
</trkpt>
<trkpt lat="50.061005" lon="13.429448">
<time>2021-08-22T09:53:41Z</time>
</trkpt>
<trkpt lat="50.061019" lon="13.429336">
<time>2021-08-22T09:53:42Z</time>
</trkpt>
<trkpt lat="50.061031" lon="13.42923">
<time>2021-08-22T09:53:43Z</time>
</trkpt>
<trkpt lat="50.06104" lon="13.429132">
<time>2021-08-22T09:53:44Z</time>
</trkpt>
<trkpt lat="50.061045" lon="13.429046">
<time>2021-08-22T09:53:45Z</time>
</trkpt>
<trkpt lat="50.061049" lon="13.428962">
<time>2021-08-22T09:53:46Z</time>
</trkpt>
<trkpt lat="50.061049" lon="13.428876">
<time>2021-08-22T09:53:47Z</time>
</trkpt>
<trkpt lat="50.061052" lon="13.428794">
<time>2021-08-22T09:53:48Z</time>
</trkpt>
<trkpt lat="50.061052" lon="13.428702">
<time>2021-08-22T09:53:49Z</time>
</trkpt>
<trkpt lat="50.061055" lon="13.428609">
<time>2021-08-22T09:53:50Z</time>
</trkpt>
<trkpt lat="50.061049" lon="13.42851">
<time>2021-08-22T09:53:51Z</time>
</trkpt>
<trkpt lat="50.061042" lon="13.428411">
<time>2021-08-22T09:53:52Z</time>
</trkpt>
<trkpt lat="50.061039" lon="13.428309">
<time>2021-08-22T09:53:53Z</time>
</trkpt>
<trkpt lat="50.061031" lon="13.428211">
<time>2021-08-22T09:53:54Z</time>
</trkpt>
<trkpt lat="50.061019" lon="13.428111">
<time>2021-08-22T09:53:55Z</time>
</trkpt>
<trkpt lat="50.061009" lon="13.428015">
<time>2021-08-22T09:53:56Z</time>
</trkpt>
<trkpt lat="50.060998" lon="13.427922">
<time>2021-08-22T09:53:57Z</time>
</trkpt>
<trkpt lat="50.060989" lon="13.427834">
<time>2021-08-22T09:53:58Z</time>
</trkpt>
<trkpt lat="50.060977" lon="13.42775">
<time>2021-08-22T09:53:59Z</time>
</trkpt>
<trkpt lat="50.06096" lon="13.427666">
<time>2021-08-22T09:54:00Z</time>
</trkpt>
<trkpt lat="50.060945" lon="13.427581">
<time>2021-08-22T09:54:01Z</time>
</trkpt>
<trkpt lat="50.060929" lon="13.427496">
<time>2021-08-22T09:54:02Z</time>
</trkpt>
<trkpt lat="50.060913" lon="13.427414">
<time>2021-08-22T09:54:03Z</time>
</trkpt>
<trkpt lat="50.060892" lon="13.427341">
<time>2021-08-22T09:54:04Z</time>
</trkpt>
<trkpt lat="50.060871" lon="13.427264">
<time>2021-08-22T09:54:05Z</time>
</trkpt>
<trkpt lat="50.060856" lon="13.427185">
<time>2021-08-22T09:54:06Z</time>
</trkpt>
<trkpt lat="50.060852" lon="13.427098">
<time>2021-08-22T09:54:07Z</time>
</trkpt>
<trkpt lat="50.060851" lon="13.427001">
<time>2021-08-22T09:54:08Z</time>
</trkpt>
<trkpt lat="50.060844" lon="13.426899">
<time>2021-08-22T09:54:09Z</time>
</trkpt>
<trkpt lat="50.060835" lon="13.426796">
<time>2021-08-22T09:54:10Z</time>
</trkpt>
<trkpt lat="50.060823" lon="13.426691">
<time>2021-08-22T09:54:11Z</time>
</trkpt>
<trkpt lat="50.060816" lon="13.426587">
<time>2021-08-22T09:54:12Z</time>
</trkpt>
<trkpt lat="50.060809" lon="13.426481">
<time>2021-08-22T09:54:13Z</time>
</trkpt>
<trkpt lat="50.060803" lon="13.426373">
<time>2021-08-22T09:54:14Z</time>
</trkpt>
<trkpt lat="50.060797" lon="13.42626">
<time>2021-08-22T09:54:15Z</time>
</trkpt>
<trkpt lat="50.060792" lon="13.426146">
<time>2021-08-22T09:54:16Z</time>
</trkpt>
<trkpt lat="50.060783" lon="13.426032">
<time>2021-08-22T09:54:17Z</time>
</trkpt>
<trkpt lat="50.060772" lon="13.425922">
<time>2021-08-22T09:54:18Z</time>
</trkpt>
<trkpt lat="50.060763" lon="13.425811">
<time>2021-08-22T09:54:19Z</time>
</trkpt>
<trkpt lat="50.060752" lon="13.425702">
<time>2021-08-22T09:54:20Z</time>
</trkpt>
<trkpt lat="50.060742" lon="13.425596">
<time>2021-08-22T09:54:21Z</time>
</trkpt>
<trkpt lat="50.060736" lon="13.425489">
<time>2021-08-22T09:54:22Z</time>
</trkpt>
<trkpt lat="50.060727" lon="13.425383">
<time>2021-08-22T09:54:23Z</time>
</trkpt>
<trkpt lat="50.060721" lon="13.425276">
<time>2021-08-22T09:54:24Z</time>
</trkpt>
<trkpt lat="50.060717" lon="13.425166">
<time>2021-08-22T09:54:25Z</time>
</trkpt>
<trkpt lat="50.060715" lon="13.42505">
<time>2021-08-22T09:54:26Z</time>
</trkpt>
<trkpt lat="50.06071" lon="13.424936">
<time>2021-08-22T09:54:27Z</time>
</trkpt>
<trkpt lat="50.060702" lon="13.424829">
<time>2021-08-22T09:54:28Z</time>
</trkpt>
<trkpt lat="50.060691" lon="13.424726">
<time>2021-08-22T09:54:29Z</time>
</trkpt>
<trkpt lat="50.060675" lon="13.424624">
<time>2021-08-22T09:54:30Z</time>
</trkpt>
<trkpt lat="50.060662" lon="13.424523">
<time>2021-08-22T09:54:31Z</time>
</trkpt>
<trkpt lat="50.060654" lon="13.424415">
<time>2021-08-22T09:54:32Z</time>
</trkpt>
<trkpt lat="50.060648" lon="13.424307">
<time>2021-08-22T09:54:33Z</time>
</trkpt>
<trkpt lat="50.060643" lon="13.424198">
<time>2021-08-22T09:54:34Z</time>
</trkpt>
<trkpt lat="50.060638" lon="13.424085">
<time>2021-08-22T09:54:35Z</time>
</trkpt>
<trkpt lat="50.06063" lon="13.423968">
<time>2021-08-22T09:54:36Z</time>
</trkpt>
<trkpt lat="50.060622" lon="13.423851">
<time>2021-08-22T09:54:37Z</time>
</trkpt>
<trkpt lat="50.060613" lon="13.423737">
<time>2021-08-22T09:54:38Z</time>
</trkpt>
<trkpt lat="50.060605" lon="13.423623">
<time>2021-08-22T09:54:39Z</time>
</trkpt>
<trkpt lat="50.060594" lon="13.423507">
<time>2021-08-22T09:54:40Z</time>
</trkpt>
<trkpt lat="50.060584" lon="13.423397">
<time>2021-08-22T09:54:41Z</time>
</trkpt>
<trkpt lat="50.060571" lon="13.423286">
<time>2021-08-22T09:54:42Z</time>
</trkpt>
<trkpt lat="50.060554" lon="13.423177">
<time>2021-08-22T09:54:43Z</time>
</trkpt>
<trkpt lat="50.060536" lon="13.423068">
<time>2021-08-22T09:54:44Z</time>
</trkpt>
<trkpt lat="50.060514" lon="13.422964">
<time>2021-08-22T09:54:45Z</time>
</trkpt>
<trkpt lat="50.060493" lon="13.422861">
<time>2021-08-22T09:54:46Z</time>
</trkpt>
<trkpt lat="50.060473" lon="13.422759">
<time>2021-08-22T09:54:47Z</time>
</trkpt>
<trkpt lat="50.06045" lon="13.422656">
<time>2021-08-22T09:54:48Z</time>
</trkpt>
<trkpt lat="50.060437" lon="13.422559">
<time>2021-08-22T09:54:49Z</time>
</trkpt>
<trkpt lat="50.060425" lon="13.422464">
<time>2021-08-22T09:54:50Z</time>
</trkpt>
<trkpt lat="50.06042" lon="13.422364">
<time>2021-08-22T09:54:51Z</time>
</trkpt>
<trkpt lat="50.060406" lon="13.422249">
<time>2021-08-22T09:54:52Z</time>
</trkpt>
<trkpt lat="50.060407" lon="13.422145">
<time>2021-08-22T09:54:53Z</time>
</trkpt>
<trkpt lat="50.060405" lon="13.422037">
<time>2021-08-22T09:54:54Z</time>
</trkpt>
<trkpt lat="50.060405" lon="13.421917">
<time>2021-08-22T09:54:55Z</time>
</trkpt>
<trkpt lat="50.060408" lon="13.421794">
<time>2021-08-22T09:54:56Z</time>
</trkpt>
<trkpt lat="50.06041" lon="13.421672">
<time>2021-08-22T09:54:57Z</time>
</trkpt>
<trkpt lat="50.060415" lon="13.421544">
<time>2021-08-22T09:54:58Z</time>
</trkpt>
<trkpt lat="50.060423" lon="13.42142">
<time>2021-08-22T09:54:59Z</time>
</trkpt>
<trkpt lat="50.060436" lon="13.421302">
<time>2021-08-22T09:55:00Z</time>
</trkpt>
<trkpt lat="50.060446" lon="13.421174">
<time>2021-08-22T09:55:01Z</time>
</trkpt>
<trkpt lat="50.06046" lon="13.421053">
<time>2021-08-22T09:55:02Z</time>
</trkpt>
<trkpt lat="50.060472" lon="13.420934">
<time>2021-08-22T09:55:03Z</time>
</trkpt>
<trkpt lat="50.060486" lon="13.420813">
<time>2021-08-22T09:55:04Z</time>
</trkpt>
<trkpt lat="50.060506" lon="13.420688">
<time>2021-08-22T09:55:05Z</time>
</trkpt>
<trkpt lat="50.060537" lon="13.420572">
<time>2021-08-22T09:55:06Z</time>
</trkpt>
<trkpt lat="50.060564" lon="13.420456">
<time>2021-08-22T09:55:07Z</time>
</trkpt>
<trkpt lat="50.060587" lon="13.420352">
<time>2021-08-22T09:55:08Z</time>
</trkpt>
<trkpt lat="50.060592" lon="13.420277">
<time>2021-08-22T09:55:09Z</time>
</trkpt>
<trkpt lat="50.060598" lon="13.42023">
<time>2021-08-22T09:55:10Z</time>
</trkpt>
<trkpt lat="50.06061" lon="13.420183">
<time>2021-08-22T09:55:11Z</time>
</trkpt>
<trkpt lat="50.06063" lon="13.420129">
<time>2021-08-22T09:55:12Z</time>
</trkpt>
<trkpt lat="50.060648" lon="13.420064">
<time>2021-08-22T09:55:13Z</time>
</trkpt>
<trkpt lat="50.06067" lon="13.419993">
<time>2021-08-22T09:55:14Z</time>
</trkpt>
<trkpt lat="50.060693" lon="13.419911">
<time>2021-08-22T09:55:15Z</time>
</trkpt>
<trkpt lat="50.060716" lon="13.419824">
<time>2021-08-22T09:55:16Z</time>
</trkpt>
<trkpt lat="50.060742" lon="13.419736">
<time>2021-08-22T09:55:17Z</time>
</trkpt>
<trkpt lat="50.060763" lon="13.419642">
<time>2021-08-22T09:55:18Z</time>
</trkpt>
<trkpt lat="50.06079" lon="13.419549">
<time>2021-08-22T09:55:19Z</time>
</trkpt>
<trkpt lat="50.060819" lon="13.419443">
<time>2021-08-22T09:55:20Z</time>
</trkpt>
<trkpt lat="50.060844" lon="13.419342">
<time>2021-08-22T09:55:21Z</time>
</trkpt>
<trkpt lat="50.06087" lon="13.419238">
<time>2021-08-22T09:55:22Z</time>
</trkpt>
<trkpt lat="50.060897" lon="13.419134">
<time>2021-08-22T09:55:23Z</time>
</trkpt>
<trkpt lat="50.060923" lon="13.419029">
<time>2021-08-22T09:55:24Z</time>
</trkpt>
<trkpt lat="50.060951" lon="13.418928">
<time>2021-08-22T09:55:25Z</time>
</trkpt>
<trkpt lat="50.060984" lon="13.418831">
<time>2021-08-22T09:55:26Z</time>
</trkpt>
<trkpt lat="50.061016" lon="13.418724">
<time>2021-08-22T09:55:27Z</time>
</trkpt>
<trkpt lat="50.061042" lon="13.418624">
<time>2021-08-22T09:55:28Z</time>
</trkpt>
<trkpt lat="50.061066" lon="13.418528">
<time>2021-08-22T09:55:29Z</time>
</trkpt>
<trkpt lat="50.061094" lon="13.418427">
<time>2021-08-22T09:55:30Z</time>
</trkpt>
<trkpt lat="50.061126" lon="13.418328">
<time>2021-08-22T09:55:31Z</time>
</trkpt>
<trkpt lat="50.061163" lon="13.41823">
<time>2021-08-22T09:55:32Z</time>
</trkpt>
<trkpt lat="50.061199" lon="13.418135">
<time>2021-08-22T09:55:33Z</time>
</trkpt>
<trkpt lat="50.061232" lon="13.418045">
<time>2021-08-22T09:55:34Z</time>
</trkpt>
<trkpt lat="50.061268" lon="13.417955">
<time>2021-08-22T09:55:35Z</time>
</trkpt>
<trkpt lat="50.061305" lon="13.417865">
<time>2021-08-22T09:55:36Z</time>
</trkpt>
<trkpt lat="50.061339" lon="13.417768">
<time>2021-08-22T09:55:37Z</time>
</trkpt>
<trkpt lat="50.061375" lon="13.417667">
<time>2021-08-22T09:55:38Z</time>
</trkpt>
<trkpt lat="50.06141" lon="13.417561">
<time>2021-08-22T09:55:39Z</time>
</trkpt>
<trkpt lat="50.06144" lon="13.417448">
<time>2021-08-22T09:55:40Z</time>
</trkpt>
<trkpt lat="50.061468" lon="13.41733">
<time>2021-08-22T09:55:41Z</time>
</trkpt>
<trkpt lat="50.061497" lon="13.417214">
<time>2021-08-22T09:55:42Z</time>
</trkpt>
<trkpt lat="50.061527" lon="13.417103">
<time>2021-08-22T09:55:43Z</time>
</trkpt>
<trkpt lat="50.061556" lon="13.416996">
<time>2021-08-22T09:55:44Z</time>
</trkpt>
<trkpt lat="50.06158" lon="13.416886">
<time>2021-08-22T09:55:45Z</time>
</trkpt>
<trkpt lat="50.061604" lon="13.416779">
<time>2021-08-22T09:55:46Z</time>
</trkpt>
<trkpt lat="50.061626" lon="13.416673">
<time>2021-08-22T09:55:47Z</time>
</trkpt>
<trkpt lat="50.061653" lon="13.416571">
<time>2021-08-22T09:55:48Z</time>
</trkpt>
<trkpt lat="50.061681" lon="13.416466">
<time>2021-08-22T09:55:49Z</time>
</trkpt>
<trkpt lat="50.061707" lon="13.41636">
<time>2021-08-22T09:55:50Z</time>
</trkpt>
<trkpt lat="50.06173" lon="13.416253">
<time>2021-08-22T09:55:51Z</time>
</trkpt>
<trkpt lat="50.061757" lon="13.416142">
<time>2021-08-22T09:55:52Z</time>
</trkpt>
<trkpt lat="50.061782" lon="13.416033">
<time>2021-08-22T09:55:53Z</time>
</trkpt>
<trkpt lat="50.061811" lon="13.415922">
<time>2021-08-22T09:55:54Z</time>
</trkpt>
<trkpt lat="50.061838" lon="13.41581">
<time>2021-08-22T09:55:55Z</time>
</trkpt>
<trkpt lat="50.061868" lon="13.415699">
<time>2021-08-22T09:55:56Z</time>
</trkpt>
<trkpt lat="50.061892" lon="13.415583">
<time>2021-08-22T09:55:57Z</time>
</trkpt>
<trkpt lat="50.061917" lon="13.415467">
<time>2021-08-22T09:55:58Z</time>
</trkpt>
<trkpt lat="50.061951" lon="13.415352">
<time>2021-08-22T09:55:59Z</time>
</trkpt>
<trkpt lat="50.061984" lon="13.415244">
<time>2021-08-22T09:56:00Z</time>
</trkpt>
<trkpt lat="50.062016" lon="13.415134">
<time>2021-08-22T09:56:01Z</time>
</trkpt>
<trkpt lat="50.062042" lon="13.415023">
<time>2021-08-22T09:56:02Z</time>
</trkpt>
<trkpt lat="50.062057" lon="13.414916">
<time>2021-08-22T09:56:03Z</time>
</trkpt>
<trkpt lat="50.062076" lon="13.414809">
<time>2021-08-22T09:56:04Z</time>
</trkpt>
<trkpt lat="50.062102" lon="13.414704">
<time>2021-08-22T09:56:05Z</time>
</trkpt>
<trkpt lat="50.062127" lon="13.414602">
<time>2021-08-22T09:56:06Z</time>
</trkpt>
<trkpt lat="50.062155" lon="13.414497">
<time>2021-08-22T09:56:07Z</time>
</trkpt>
<trkpt lat="50.062183" lon="13.414391">
<time>2021-08-22T09:56:08Z</time>
</trkpt>
<trkpt lat="50.062211" lon="13.414287">
<time>2021-08-22T09:56:09Z</time>
</trkpt>
<trkpt lat="50.062237" lon="13.414184">
<time>2021-08-22T09:56:10Z</time>
</trkpt>
<trkpt lat="50.062265" lon="13.414081">
<time>2021-08-22T09:56:11Z</time>
</trkpt>
<trkpt lat="50.062303" lon="13.413982">
<time>2021-08-22T09:56:12Z</time>
</trkpt>
<trkpt lat="50.062328" lon="13.413868">
<time>2021-08-22T09:56:13Z</time>
</trkpt>
<trkpt lat="50.062356" lon="13.413757">
<time>2021-08-22T09:56:14Z</time>
</trkpt>
<trkpt lat="50.062379" lon="13.413646">
<time>2021-08-22T09:56:15Z</time>
</trkpt>
<trkpt lat="50.062398" lon="13.413541">
<time>2021-08-22T09:56:16Z</time>
</trkpt>
<trkpt lat="50.062416" lon="13.413442">
<time>2021-08-22T09:56:17Z</time>
</trkpt>
<trkpt lat="50.062438" lon="13.413343">
<time>2021-08-22T09:56:18Z</time>
</trkpt>
<trkpt lat="50.06246" lon="13.413254">
<time>2021-08-22T09:56:19Z</time>
</trkpt>
<trkpt lat="50.062492" lon="13.413171">
<time>2021-08-22T09:56:20Z</time>
</trkpt>
<trkpt lat="50.062538" lon="13.413129">
<time>2021-08-22T09:56:21Z</time>
</trkpt>
<trkpt lat="50.062593" lon="13.413094">
<time>2021-08-22T09:56:22Z</time>
</trkpt>
<trkpt lat="50.062659" lon="13.41306">
<time>2021-08-22T09:56:23Z</time>
</trkpt>
<trkpt lat="50.062734" lon="13.413017">
<time>2021-08-22T09:56:24Z</time>
</trkpt>
<trkpt lat="50.062805" lon="13.412969">
<time>2021-08-22T09:56:25Z</time>
</trkpt>
<trkpt lat="50.062874" lon="13.412917">
<time>2021-08-22T09:56:26Z</time>
</trkpt>
<trkpt lat="50.06295" lon="13.412866">
<time>2021-08-22T09:56:27Z</time>
</trkpt>
<trkpt lat="50.063032" lon="13.412819">
<time>2021-08-22T09:56:28Z</time>
</trkpt>
<trkpt lat="50.063113" lon="13.412774">
<time>2021-08-22T09:56:29Z</time>
</trkpt>
<trkpt lat="50.063195" lon="13.412736">
<time>2021-08-22T09:56:30Z</time>
</trkpt>
<trkpt lat="50.063278" lon="13.412707">
<time>2021-08-22T09:56:31Z</time>
</trkpt>
<trkpt lat="50.063365" lon="13.412683">
<time>2021-08-22T09:56:32Z</time>
</trkpt>
<trkpt lat="50.063451" lon="13.412656">
<time>2021-08-22T09:56:33Z</time>
</trkpt>
<trkpt lat="50.063532" lon="13.412631">
<time>2021-08-22T09:56:34Z</time>
</trkpt>
<trkpt lat="50.063606" lon="13.412618">
<time>2021-08-22T09:56:35Z</time>
</trkpt>
<trkpt lat="50.063661" lon="13.412612">
<time>2021-08-22T09:56:36Z</time>
</trkpt>
<trkpt lat="50.063719" lon="13.412603">
<time>2021-08-22T09:56:37Z</time>
</trkpt>
<trkpt lat="50.063776" lon="13.41259">
<time>2021-08-22T09:56:38Z</time>
</trkpt>
<trkpt lat="50.063843" lon="13.41259">
<time>2021-08-22T09:56:39Z</time>
</trkpt>
<trkpt lat="50.063904" lon="13.412577">
<time>2021-08-22T09:56:40Z</time>
</trkpt>
<trkpt lat="50.06396" lon="13.412559">
<time>2021-08-22T09:56:41Z</time>
</trkpt>
<trkpt lat="50.064018" lon="13.412548">
<time>2021-08-22T09:56:42Z</time>
</trkpt>
<trkpt lat="50.064087" lon="13.412543">
<time>2021-08-22T09:56:43Z</time>
</trkpt>
<trkpt lat="50.064155" lon="13.412531">
<time>2021-08-22T09:56:44Z</time>
</trkpt>
<trkpt lat="50.064226" lon="13.412511">
<time>2021-08-22T09:56:45Z</time>
</trkpt>
<trkpt lat="50.064299" lon="13.412496">
<time>2021-08-22T09:56:46Z</time>
</trkpt>
<trkpt lat="50.064364" lon="13.412486">
<time>2021-08-22T09:56:47Z</time>
</trkpt>
<trkpt lat="50.06444" lon="13.412482">
<time>2021-08-22T09:56:48Z</time>
</trkpt>
<trkpt lat="50.064502" lon="13.412477">
<time>2021-08-22T09:56:49Z</time>
</trkpt>
<trkpt lat="50.064567" lon="13.412472">
<time>2021-08-22T09:56:50Z</time>
</trkpt>
<trkpt lat="50.064628" lon="13.412477">
<time>2021-08-22T09:56:51Z</time>
</trkpt>
<trkpt lat="50.064694" lon="13.412477">
<time>2021-08-22T09:56:52Z</time>
</trkpt>
<trkpt lat="50.064756" lon="13.412477">
<time>2021-08-22T09:56:53Z</time>
</trkpt>
<trkpt lat="50.064805" lon="13.412475">
<time>2021-08-22T09:56:54Z</time>
</trkpt>
<trkpt lat="50.064841" lon="13.412471">
<time>2021-08-22T09:56:55Z</time>
</trkpt>
<trkpt lat="50.064845" lon="13.412465">
<time>2021-08-22T09:56:56Z</time>
</trkpt>
<trkpt lat="50.064833" lon="13.412473">
<time>2021-08-22T09:56:57Z</time>
</trkpt>
<trkpt lat="50.064818" lon="13.412481">
<time>2021-08-22T09:56:58Z</time>
</trkpt>
<trkpt lat="50.064797" lon="13.412491">
<time>2021-08-22T09:56:59Z</time>
</trkpt>
<trkpt lat="50.064766" lon="13.412495">
<time>2021-08-22T09:57:00Z</time>
</trkpt>
<trkpt lat="50.064726" lon="13.412492">
<time>2021-08-22T09:57:01Z</time>
</trkpt>
<trkpt lat="50.064678" lon="13.412493">
<time>2021-08-22T09:57:02Z</time>
</trkpt>
<trkpt lat="50.06463" lon="13.412506">
<time>2021-08-22T09:57:03Z</time>
</trkpt>
<trkpt lat="50.064582" lon="13.412513">
<time>2021-08-22T09:57:04Z</time>
</trkpt>
<trkpt lat="50.064527" lon="13.412525">
<time>2021-08-22T09:57:05Z</time>
</trkpt>
<trkpt lat="50.064472" lon="13.412535">
<time>2021-08-22T09:57:06Z</time>
</trkpt>
<trkpt lat="50.064421" lon="13.412553">
<time>2021-08-22T09:57:07Z</time>
</trkpt>
<trkpt lat="50.064368" lon="13.412569">
<time>2021-08-22T09:57:08Z</time>
</trkpt>
<trkpt lat="50.064311" lon="13.412583">
<time>2021-08-22T09:57:09Z</time>
</trkpt>
<trkpt lat="50.064255" lon="13.412595">
<time>2021-08-22T09:57:10Z</time>
</trkpt>
<trkpt lat="50.064193" lon="13.412609">
<time>2021-08-22T09:57:11Z</time>
</trkpt>
<trkpt lat="50.064131" lon="13.412624">
<time>2021-08-22T09:57:12Z</time>
</trkpt>
<trkpt lat="50.064071" lon="13.412636">
<time>2021-08-22T09:57:13Z</time>
</trkpt>
<trkpt lat="50.064011" lon="13.412647">
<time>2021-08-22T09:57:14Z</time>
</trkpt>
<trkpt lat="50.063942" lon="13.412655">
<time>2021-08-22T09:57:15Z</time>
</trkpt>
<trkpt lat="50.063874" lon="13.412665">
<time>2021-08-22T09:57:16Z</time>
</trkpt>
<trkpt lat="50.063807" lon="13.412679">
<time>2021-08-22T09:57:17Z</time>
</trkpt>
<trkpt lat="50.063745" lon="13.412697">
<time>2021-08-22T09:57:18Z</time>
</trkpt>
<trkpt lat="50.063687" lon="13.412707">
<time>2021-08-22T09:57:19Z</time>
</trkpt>
<trkpt lat="50.06364" lon="13.412722">
<time>2021-08-22T09:57:20Z</time>
</trkpt>
<trkpt lat="50.063591" lon="13.412739">
<time>2021-08-22T09:57:21Z</time>
</trkpt>
<trkpt lat="50.063542" lon="13.412759">
<time>2021-08-22T09:57:22Z</time>
</trkpt>
<trkpt lat="50.063488" lon="13.412785">
<time>2021-08-22T09:57:23Z</time>
</trkpt>
<trkpt lat="50.063444" lon="13.412808">
<time>2021-08-22T09:57:24Z</time>
</trkpt>
<trkpt lat="50.063398" lon="13.412824">
<time>2021-08-22T09:57:25Z</time>
</trkpt>
<trkpt lat="50.063341" lon="13.412827">
<time>2021-08-22T09:57:26Z</time>
</trkpt>
<trkpt lat="50.063285" lon="13.412835">
<time>2021-08-22T09:57:27Z</time>
</trkpt>
<trkpt lat="50.063228" lon="13.412852">
<time>2021-08-22T09:57:28Z</time>
</trkpt>
<trkpt lat="50.063172" lon="13.412874">
<time>2021-08-22T09:57:29Z</time>
</trkpt>
<trkpt lat="50.06312" lon="13.4129">
<time>2021-08-22T09:57:30Z</time>
</trkpt>
<trkpt lat="50.06307" lon="13.412931">
<time>2021-08-22T09:57:31Z</time>
</trkpt>
<trkpt lat="50.06302" lon="13.412957">
<time>2021-08-22T09:57:32Z</time>
</trkpt>
<trkpt lat="50.062975" lon="13.412992">
<time>2021-08-22T09:57:33Z</time>
</trkpt>
<trkpt lat="50.062916" lon="13.413014">
<time>2021-08-22T09:57:34Z</time>
</trkpt>
<trkpt lat="50.062864" lon="13.413047">
<time>2021-08-22T09:57:35Z</time>
</trkpt>
<trkpt lat="50.062812" lon="13.413078">
<time>2021-08-22T09:57:36Z</time>
</trkpt>
<trkpt lat="50.062764" lon="13.413109">
<time>2021-08-22T09:57:37Z</time>
</trkpt>
<trkpt lat="50.062714" lon="13.413144">
<time>2021-08-22T09:57:38Z</time>
</trkpt>
<trkpt lat="50.06266" lon="13.413161">
<time>2021-08-22T09:57:39Z</time>
</trkpt>
<trkpt lat="50.062611" lon="13.413179">
<time>2021-08-22T09:57:40Z</time>
</trkpt>
<trkpt lat="50.062564" lon="13.4132">
<time>2021-08-22T09:57:41Z</time>
</trkpt>
<trkpt lat="50.062516" lon="13.413221">
<time>2021-08-22T09:57:42Z</time>
</trkpt>
<trkpt lat="50.062475" lon="13.413231">
<time>2021-08-22T09:57:43Z</time>
</trkpt>
<trkpt lat="50.062438" lon="13.413214">
<time>2021-08-22T09:57:44Z</time>
</trkpt>
<trkpt lat="50.062412" lon="13.413173">
<time>2021-08-22T09:57:45Z</time>
</trkpt>
<trkpt lat="50.062393" lon="13.413102">
<time>2021-08-22T09:57:46Z</time>
</trkpt>
<trkpt lat="50.062385" lon="13.413024">
<time>2021-08-22T09:57:47Z</time>
</trkpt>
<trkpt lat="50.062375" lon="13.412953">
<time>2021-08-22T09:57:48Z</time>
</trkpt>
<trkpt lat="50.062356" lon="13.412875">
<time>2021-08-22T09:57:49Z</time>
</trkpt>
<trkpt lat="50.062335" lon="13.412801">
<time>2021-08-22T09:57:50Z</time>
</trkpt>
<trkpt lat="50.062308" lon="13.412738">
<time>2021-08-22T09:57:51Z</time>
</trkpt>
<trkpt lat="50.062286" lon="13.412682">
<time>2021-08-22T09:57:52Z</time>
</trkpt>
<trkpt lat="50.062273" lon="13.412609">
<time>2021-08-22T09:57:53Z</time>
</trkpt>
<trkpt lat="50.062271" lon="13.412521">
<time>2021-08-22T09:57:54Z</time>
</trkpt>
<trkpt lat="50.062278" lon="13.41243">
<time>2021-08-22T09:57:55Z</time>
</trkpt>
<trkpt lat="50.062278" lon="13.412349">
<time>2021-08-22T09:57:56Z</time>
</trkpt>
<trkpt lat="50.062269" lon="13.412261">
<time>2021-08-22T09:57:57Z</time>
</trkpt>
<trkpt lat="50.062252" lon="13.412185">
<time>2021-08-22T09:57:58Z</time>
</trkpt>
<trkpt lat="50.062214" lon="13.412103">
<time>2021-08-22T09:57:59Z</time>
</trkpt>
<trkpt lat="50.062182" lon="13.412031">
<time>2021-08-22T09:58:00Z</time>
</trkpt>
<trkpt lat="50.062141" lon="13.411965">
<time>2021-08-22T09:58:01Z</time>
</trkpt>
<trkpt lat="50.062099" lon="13.411895">
<time>2021-08-22T09:58:02Z</time>
</trkpt>
<trkpt lat="50.062056" lon="13.411824">
<time>2021-08-22T09:58:03Z</time>
</trkpt>
<trkpt lat="50.062013" lon="13.411754">
<time>2021-08-22T09:58:04Z</time>
</trkpt>
<trkpt lat="50.061977" lon="13.411683">
<time>2021-08-22T09:58:05Z</time>
</trkpt>
<trkpt lat="50.061929" lon="13.411594">
<time>2021-08-22T09:58:06Z</time>
</trkpt>
<trkpt lat="50.061898" lon="13.411532">
<time>2021-08-22T09:58:07Z</time>
</trkpt>
<trkpt lat="50.06186" lon="13.411471">
<time>2021-08-22T09:58:08Z</time>
</trkpt>
<trkpt lat="50.061812" lon="13.411404">
<time>2021-08-22T09:58:09Z</time>
</trkpt>
<trkpt lat="50.061765" lon="13.411346">
<time>2021-08-22T09:58:10Z</time>
</trkpt>
<trkpt lat="50.061721" lon="13.411295">
<time>2021-08-22T09:58:11Z</time>
</trkpt>
<trkpt lat="50.061676" lon="13.411238">
<time>2021-08-22T09:58:12Z</time>
</trkpt>
<trkpt lat="50.061631" lon="13.411176">
<time>2021-08-22T09:58:13Z</time>
</trkpt>
<trkpt lat="50.061582" lon="13.411108">
<time>2021-08-22T09:58:14Z</time>
</trkpt>
<trkpt lat="50.06154" lon="13.411042">
<time>2021-08-22T09:58:15Z</time>
</trkpt>
<trkpt lat="50.061499" lon="13.410978">
<time>2021-08-22T09:58:16Z</time>
</trkpt>
<trkpt lat="50.061453" lon="13.410912">
<time>2021-08-22T09:58:17Z</time>
</trkpt>
<trkpt lat="50.061407" lon="13.410848">
<time>2021-08-22T09:58:18Z</time>
</trkpt>
<trkpt lat="50.061356" lon="13.410787">
<time>2021-08-22T09:58:19Z</time>
</trkpt>
<trkpt lat="50.061305" lon="13.410732">
<time>2021-08-22T09:58:20Z</time>
</trkpt>
<trkpt lat="50.061236" lon="13.41065">
<time>2021-08-22T09:58:21Z</time>
</trkpt>
<trkpt lat="50.061182" lon="13.410589">
<time>2021-08-22T09:58:22Z</time>
</trkpt>
<trkpt lat="50.061119" lon="13.410523">
<time>2021-08-22T09:58:23Z</time>
</trkpt>
<trkpt lat="50.061045" lon="13.410436">
<time>2021-08-22T09:58:24Z</time>
</trkpt>
<trkpt lat="50.060953" lon="13.410294">
<time>2021-08-22T09:58:25Z</time>
</trkpt>
<trkpt lat="50.06091" lon="13.410176">
<time>2021-08-22T09:58:26Z</time>
</trkpt>
<trkpt lat="50.060852" lon="13.409998">
<time>2021-08-22T09:58:27Z</time>
</trkpt>
<trkpt lat="50.06082" lon="13.409843">
<time>2021-08-22T09:58:28Z</time>
</trkpt>
<trkpt lat="50.060803" lon="13.409709">
<time>2021-08-22T09:58:29Z</time>
</trkpt>
<trkpt lat="50.060791" lon="13.409592">
<time>2021-08-22T09:58:30Z</time>
</trkpt>
<trkpt lat="50.060781" lon="13.409481">
<time>2021-08-22T09:58:31Z</time>
</trkpt>
<trkpt lat="50.060767" lon="13.409385">
<time>2021-08-22T09:58:32Z</time>
</trkpt>
<trkpt lat="50.060752" lon="13.40929">
<time>2021-08-22T09:58:33Z</time>
</trkpt>
<trkpt lat="50.060735" lon="13.4092">
<time>2021-08-22T09:58:34Z</time>
</trkpt>
<trkpt lat="50.060729" lon="13.409097">
<time>2021-08-22T09:58:35Z</time>
</trkpt>
<trkpt lat="50.060719" lon="13.408984">
<time>2021-08-22T09:58:36Z</time>
</trkpt>
<trkpt lat="50.060709" lon="13.40887">
<time>2021-08-22T09:58:37Z</time>
</trkpt>
<trkpt lat="50.060701" lon="13.408754">
<time>2021-08-22T09:58:38Z</time>
</trkpt>
<trkpt lat="50.06068" lon="13.408627">
<time>2021-08-22T09:58:39Z</time>
</trkpt>
<trkpt lat="50.060667" lon="13.408506">
<time>2021-08-22T09:58:40Z</time>
</trkpt>
<trkpt lat="50.060652" lon="13.40839">
<time>2021-08-22T09:58:41Z</time>
</trkpt>
<trkpt lat="50.060626" lon="13.408262">
<time>2021-08-22T09:58:42Z</time>
</trkpt>
<trkpt lat="50.060603" lon="13.408134">
<time>2021-08-22T09:58:43Z</time>
</trkpt>
<trkpt lat="50.060583" lon="13.408016">
<time>2021-08-22T09:58:44Z</time>
</trkpt>
<trkpt lat="50.060555" lon="13.407898">
<time>2021-08-22T09:58:45Z</time>
</trkpt>
<trkpt lat="50.060527" lon="13.407775">
<time>2021-08-22T09:58:46Z</time>
</trkpt>
<trkpt lat="50.060509" lon="13.407646">
<time>2021-08-22T09:58:47Z</time>
</trkpt>
<trkpt lat="50.060489" lon="13.407513">
<time>2021-08-22T09:58:48Z</time>
</trkpt>
<trkpt lat="50.06046" lon="13.407394">
<time>2021-08-22T09:58:49Z</time>
</trkpt>
<trkpt lat="50.060442" lon="13.407279">
<time>2021-08-22T09:58:50Z</time>
</trkpt>
<trkpt lat="50.060422" lon="13.407156">
<time>2021-08-22T09:58:51Z</time>
</trkpt>
<trkpt lat="50.060401" lon="13.40702">
<time>2021-08-22T09:58:52Z</time>
</trkpt>
<trkpt lat="50.060377" lon="13.40688">
<time>2021-08-22T09:58:53Z</time>
</trkpt>
<trkpt lat="50.060352" lon="13.406744">
<time>2021-08-22T09:58:54Z</time>
</trkpt>
<trkpt lat="50.060313" lon="13.406622">
<time>2021-08-22T09:58:55Z</time>
</trkpt>
<trkpt lat="50.060274" lon="13.406538">
<time>2021-08-22T09:58:56Z</time>
</trkpt>
<trkpt lat="50.060222" lon="13.406505">
<time>2021-08-22T09:58:57Z</time>
</trkpt>
<trkpt lat="50.060177" lon="13.406489">
<time>2021-08-22T09:58:58Z</time>
</trkpt>
<trkpt lat="50.060145" lon="13.406494">
<time>2021-08-22T09:58:59Z</time>
</trkpt>
<trkpt lat="50.060112" lon="13.406501">
<time>2021-08-22T09:59:00Z</time>
</trkpt>
<trkpt lat="50.060089" lon="13.406529">
<time>2021-08-22T09:59:01Z</time>
</trkpt>
<trkpt lat="50.060069" lon="13.406554">
<time>2021-08-22T09:59:02Z</time>
</trkpt>
<trkpt lat="50.060046" lon="13.406598">
<time>2021-08-22T09:59:03Z</time>
</trkpt>
<trkpt lat="50.060022" lon="13.406639">
<time>2021-08-22T09:59:04Z</time>
</trkpt>
<trkpt lat="50.059987" lon="13.406683">
<time>2021-08-22T09:59:05Z</time>
</trkpt>
<trkpt lat="50.059928" lon="13.406707">
<time>2021-08-22T09:59:06Z</time>
</trkpt>
<trkpt lat="50.059867" lon="13.406728">
<time>2021-08-22T09:59:07Z</time>
</trkpt>
<trkpt lat="50.059808" lon="13.40675">
<time>2021-08-22T09:59:08Z</time>
</trkpt>
<trkpt lat="50.059747" lon="13.406764">
<time>2021-08-22T09:59:09Z</time>
</trkpt>
<trkpt lat="50.059696" lon="13.406786">
<time>2021-08-22T09:59:10Z</time>
</trkpt>
<trkpt lat="50.059639" lon="13.406803">
<time>2021-08-22T09:59:11Z</time>
</trkpt>
<trkpt lat="50.059575" lon="13.406814">
<time>2021-08-22T09:59:12Z</time>
</trkpt>
<trkpt lat="50.059521" lon="13.406832">
<time>2021-08-22T09:59:13Z</time>
</trkpt>
<trkpt lat="50.059459" lon="13.406838">
<time>2021-08-22T09:59:14Z</time>
</trkpt>
<trkpt lat="50.059407" lon="13.406843">
<time>2021-08-22T09:59:15Z</time>
</trkpt>
<trkpt lat="50.059364" lon="13.406844">
<time>2021-08-22T09:59:16Z</time>
</trkpt>
<trkpt lat="50.059329" lon="13.406847">
<time>2021-08-22T09:59:17Z</time>
</trkpt>
<trkpt lat="50.059304" lon="13.406854">
<time>2021-08-22T09:59:18Z</time>
</trkpt>
<trkpt lat="50.059278" lon="13.406863">
<time>2021-08-22T09:59:19Z</time>
</trkpt>
<trkpt lat="50.05925" lon="13.406884">
<time>2021-08-22T09:59:20Z</time>
</trkpt>
<trkpt lat="50.059222" lon="13.4069">
<time>2021-08-22T09:59:21Z</time>
</trkpt>
<trkpt lat="50.059188" lon="13.406911">
<time>2021-08-22T09:59:22Z</time>
</trkpt>
<trkpt lat="50.05915" lon="13.406923">
<time>2021-08-22T09:59:23Z</time>
</trkpt>
<trkpt lat="50.059111" lon="13.406934">
<time>2021-08-22T09:59:24Z</time>
</trkpt>
<trkpt lat="50.059077" lon="13.406942">
<time>2021-08-22T09:59:25Z</time>
</trkpt>
<trkpt lat="50.059047" lon="13.406935">
<time>2021-08-22T09:59:26Z</time>
</trkpt>
<trkpt lat="50.059025" lon="13.406939">
<time>2021-08-22T09:59:27Z</time>
</trkpt>
<trkpt lat="50.059002" lon="13.406949">
<time>2021-08-22T09:59:28Z</time>
</trkpt>
<trkpt lat="50.058975" lon="13.406959">
<time>2021-08-22T09:59:29Z</time>
</trkpt>
<trkpt lat="50.05894" lon="13.406956">
<time>2021-08-22T09:59:30Z</time>
</trkpt>
<trkpt lat="50.058909" lon="13.406959">
<time>2021-08-22T09:59:31Z</time>
</trkpt>
<trkpt lat="50.058877" lon="13.406968">
<time>2021-08-22T09:59:32Z</time>
</trkpt>
<trkpt lat="50.058845" lon="13.40698">
<time>2021-08-22T09:59:33Z</time>
</trkpt>
<trkpt lat="50.058816" lon="13.40699">
<time>2021-08-22T09:59:34Z</time>
</trkpt>
<trkpt lat="50.058786" lon="13.407006">
<time>2021-08-22T09:59:35Z</time>
</trkpt>
<trkpt lat="50.058748" lon="13.407012">
<time>2021-08-22T09:59:36Z</time>
</trkpt>
<trkpt lat="50.058712" lon="13.407019">
<time>2021-08-22T09:59:37Z</time>
</trkpt>
<trkpt lat="50.058679" lon="13.407033">
<time>2021-08-22T09:59:38Z</time>
</trkpt>
<trkpt lat="50.058648" lon="13.407044">
<time>2021-08-22T09:59:39Z</time>
</trkpt>
<trkpt lat="50.058616" lon="13.40706">
<time>2021-08-22T09:59:40Z</time>
</trkpt>
<trkpt lat="50.058579" lon="13.407075">
<time>2021-08-22T09:59:41Z</time>
</trkpt>
<trkpt lat="50.058545" lon="13.407091">
<time>2021-08-22T09:59:42Z</time>
</trkpt>
<trkpt lat="50.058509" lon="13.407106">
<time>2021-08-22T09:59:43Z</time>
</trkpt>
<trkpt lat="50.058472" lon="13.407122">
<time>2021-08-22T09:59:44Z</time>
</trkpt>
<trkpt lat="50.058429" lon="13.407134">
<time>2021-08-22T09:59:45Z</time>
</trkpt>
<trkpt lat="50.058388" lon="13.407148">
<time>2021-08-22T09:59:46Z</time>
</trkpt>
<trkpt lat="50.058353" lon="13.40716">
<time>2021-08-22T09:59:47Z</time>
</trkpt>
<trkpt lat="50.058308" lon="13.407164">
<time>2021-08-22T09:59:48Z</time>
</trkpt>
<trkpt lat="50.058269" lon="13.407175">
<time>2021-08-22T09:59:49Z</time>
</trkpt>
<trkpt lat="50.058225" lon="13.407189">
<time>2021-08-22T09:59:50Z</time>
</trkpt>
<trkpt lat="50.058181" lon="13.407207">
<time>2021-08-22T09:59:51Z</time>
</trkpt>
<trkpt lat="50.058135" lon="13.407229">
<time>2021-08-22T09:59:52Z</time>
</trkpt>
<trkpt lat="50.058088" lon="13.407251">
<time>2021-08-22T09:59:53Z</time>
</trkpt>
<trkpt lat="50.058032" lon="13.40728">
<time>2021-08-22T09:59:54Z</time>
</trkpt>
<trkpt lat="50.05798" lon="13.407305">
<time>2021-08-22T09:59:55Z</time>
</trkpt>
<trkpt lat="50.057932" lon="13.407336">
<time>2021-08-22T09:59:56Z</time>
</trkpt>
<trkpt lat="50.057887" lon="13.407361">
<time>2021-08-22T09:59:57Z</time>
</trkpt>
<trkpt lat="50.057847" lon="13.40738">
<time>2021-08-22T09:59:58Z</time>
</trkpt>
<trkpt lat="50.057818" lon="13.407388">
<time>2021-08-22T09:59:59Z</time>
</trkpt>
<trkpt lat="50.057792" lon="13.407389">
<time>2021-08-22T10:00:00Z</time>
</trkpt>
<trkpt lat="50.057775" lon="13.407371">
<time>2021-08-22T10:00:01Z</time>
</trkpt>
<trkpt lat="50.057755" lon="13.407338">
<time>2021-08-22T10:00:02Z</time>
</trkpt>
<trkpt lat="50.057739" lon="13.407304">
<time>2021-08-22T10:00:03Z</time>
</trkpt>
<trkpt lat="50.057731" lon="13.407268">
<time>2021-08-22T10:00:04Z</time>
</trkpt>
<trkpt lat="50.057725" lon="13.407222">
<time>2021-08-22T10:00:05Z</time>
</trkpt>
<trkpt lat="50.057723" lon="13.407172">
<time>2021-08-22T10:00:06Z</time>
</trkpt>
<trkpt lat="50.057719" lon="13.407108">
<time>2021-08-22T10:00:07Z</time>
</trkpt>
<trkpt lat="50.057707" lon="13.407024">
<time>2021-08-22T10:00:08Z</time>
</trkpt>
<trkpt lat="50.05769" lon="13.406939">
<time>2021-08-22T10:00:09Z</time>
</trkpt>
<trkpt lat="50.057682" lon="13.406856">
<time>2021-08-22T10:00:10Z</time>
</trkpt>
<trkpt lat="50.057672" lon="13.406761">
<time>2021-08-22T10:00:11Z</time>
</trkpt>
<trkpt lat="50.057653" lon="13.406662">
<time>2021-08-22T10:00:12Z</time>
</trkpt>
<trkpt lat="50.057641" lon="13.406571">
<time>2021-08-22T10:00:13Z</time>
</trkpt>
<trkpt lat="50.05761" lon="13.406449">
<time>2021-08-22T10:00:14Z</time>
</trkpt>
<trkpt lat="50.05759" lon="13.406353">
<time>2021-08-22T10:00:15Z</time>
</trkpt>
<trkpt lat="50.057573" lon="13.406257">
<time>2021-08-22T10:00:16Z</time>
</trkpt>
<trkpt lat="50.057566" lon="13.406172">
<time>2021-08-22T10:00:17Z</time>
</trkpt>
<trkpt lat="50.05754" lon="13.406064">
<time>2021-08-22T10:00:18Z</time>
</trkpt>
<trkpt lat="50.057526" lon="13.405977">
<time>2021-08-22T10:00:19Z</time>
</trkpt>
<trkpt lat="50.057517" lon="13.40589">
<time>2021-08-22T10:00:20Z</time>
</trkpt>
<trkpt lat="50.057505" lon="13.405797">
<time>2021-08-22T10:00:21Z</time>
</trkpt>
<trkpt lat="50.057491" lon="13.405688">
<time>2021-08-22T10:00:22Z</time>
</trkpt>
<trkpt lat="50.057471" lon="13.405587">
<time>2021-08-22T10:00:23Z</time>
</trkpt>
<trkpt lat="50.057458" lon="13.405483">
<time>2021-08-22T10:00:24Z</time>
</trkpt>
<trkpt lat="50.057445" lon="13.405381">
<time>2021-08-22T10:00:25Z</time>
</trkpt>
<trkpt lat="50.05743" lon="13.405282">
<time>2021-08-22T10:00:26Z</time>
</trkpt>
<trkpt lat="50.057412" lon="13.405176">
<time>2021-08-22T10:00:27Z</time>
</trkpt>
<trkpt lat="50.057382" lon="13.405059">
<time>2021-08-22T10:00:28Z</time>
</trkpt>
<trkpt lat="50.057343" lon="13.404926">
<time>2021-08-22T10:00:29Z</time>
</trkpt>
<trkpt lat="50.057325" lon="13.40481">
<time>2021-08-22T10:00:30Z</time>
</trkpt>
<trkpt lat="50.057293" lon="13.404682">
<time>2021-08-22T10:00:31Z</time>
</trkpt>
<trkpt lat="50.057261" lon="13.404554">
<time>2021-08-22T10:00:32Z</time>
</trkpt>
<trkpt lat="50.05724" lon="13.404438">
<time>2021-08-22T10:00:33Z</time>
</trkpt>
<trkpt lat="50.057225" lon="13.404311">
<time>2021-08-22T10:00:34Z</time>
</trkpt>
<trkpt lat="50.057207" lon="13.404195">
<time>2021-08-22T10:00:35Z</time>
</trkpt>
<trkpt lat="50.057192" lon="13.404079">
<time>2021-08-22T10:00:36Z</time>
</trkpt>
<trkpt lat="50.057173" lon="13.403971">
<time>2021-08-22T10:00:37Z</time>
</trkpt>
<trkpt lat="50.057151" lon="13.403858">
<time>2021-08-22T10:00:38Z</time>
</trkpt>
<trkpt lat="50.057136" lon="13.403751">
<time>2021-08-22T10:00:39Z</time>
</trkpt>
<trkpt lat="50.057126" lon="13.403644">
<time>2021-08-22T10:00:40Z</time>
</trkpt>
<trkpt lat="50.057116" lon="13.403534">
<time>2021-08-22T10:00:41Z</time>
</trkpt>
<trkpt lat="50.0571" lon="13.403422">
<time>2021-08-22T10:00:42Z</time>
</trkpt>
<trkpt lat="50.057072" lon="13.403301">
<time>2021-08-22T10:00:43Z</time>
</trkpt>
<trkpt lat="50.057042" lon="13.403203">
<time>2021-08-22T10:00:44Z</time>
</trkpt>
<trkpt lat="50.057014" lon="13.403106">
<time>2021-08-22T10:00:45Z</time>
</trkpt>
<trkpt lat="50.056983" lon="13.403012">
<time>2021-08-22T10:00:46Z</time>
</trkpt>
<trkpt lat="50.056943" lon="13.402948">
<time>2021-08-22T10:00:47Z</time>
</trkpt>
<trkpt lat="50.056891" lon="13.40292">
<time>2021-08-22T10:00:48Z</time>
</trkpt>
<trkpt lat="50.056842" lon="13.402913">
<time>2021-08-22T10:00:49Z</time>
</trkpt>
<trkpt lat="50.056792" lon="13.402915">
<time>2021-08-22T10:00:50Z</time>
</trkpt>
<trkpt lat="50.056741" lon="13.402922">
<time>2021-08-22T10:00:51Z</time>
</trkpt>
<trkpt lat="50.056692" lon="13.402926">
<time>2021-08-22T10:00:52Z</time>
</trkpt>
<trkpt lat="50.056648" lon="13.402913">
<time>2021-08-22T10:00:53Z</time>
</trkpt>
<trkpt lat="50.056607" lon="13.402887">
<time>2021-08-22T10:00:54Z</time>
</trkpt>
<trkpt lat="50.056575" lon="13.40287">
<time>2021-08-22T10:00:55Z</time>
</trkpt>
<trkpt lat="50.05655" lon="13.402855">
<time>2021-08-22T10:00:56Z</time>
</trkpt>
<trkpt lat="50.056541" lon="13.40285">
<time>2021-08-22T10:00:57Z</time>
</trkpt>
<trkpt lat="50.056536" lon="13.402843">
<time>2021-08-22T10:00:58Z</time>
</trkpt>
<trkpt lat="50.056535" lon="13.402836">
<time>2021-08-22T10:00:59Z</time>
</trkpt>
<trkpt lat="50.056532" lon="13.402824">
<time>2021-08-22T10:01:00Z</time>
</trkpt>
<trkpt lat="50.056526" lon="13.402813">
<time>2021-08-22T10:01:01Z</time>
</trkpt>
<trkpt lat="50.056521" lon="13.4028">
<time>2021-08-22T10:01:02Z</time>
</trkpt>
<trkpt lat="50.056524" lon="13.402792">
<time>2021-08-22T10:01:03Z</time>
</trkpt>
<trkpt lat="50.056511" lon="13.402761">
<time>2021-08-22T10:01:04Z</time>
</trkpt>
<trkpt lat="50.056515" lon="13.402755">
<time>2021-08-22T10:01:05Z</time>
</trkpt>
<trkpt lat="50.056515" lon="13.402749">
<time>2021-08-22T10:01:06Z</time>
</trkpt>
<trkpt lat="50.056517" lon="13.402745">
<time>2021-08-22T10:01:07Z</time>
</trkpt>
<trkpt lat="50.056519" lon="13.402739">
<time>2021-08-22T10:01:08Z</time>
</trkpt>
<trkpt lat="50.056512" lon="13.402744">
<time>2021-08-22T10:01:09Z</time>
</trkpt>
<trkpt lat="50.056503" lon="13.402736">
<time>2021-08-22T10:01:10Z</time>
</trkpt>
<trkpt lat="50.05649" lon="13.402722">
<time>2021-08-22T10:01:11Z</time>
</trkpt>
<trkpt lat="50.056477" lon="13.402712">
<time>2021-08-22T10:01:12Z</time>
</trkpt>
<trkpt lat="50.056469" lon="13.402707">
<time>2021-08-22T10:01:13Z</time>
</trkpt>
<trkpt lat="50.056476" lon="13.402709">
<time>2021-08-22T10:01:14Z</time>
</trkpt>
<trkpt lat="50.056487" lon="13.402714">
<time>2021-08-22T10:01:15Z</time>
</trkpt>
<trkpt lat="50.056503" lon="13.402725">
<time>2021-08-22T10:01:16Z</time>
</trkpt>
<trkpt lat="50.056518" lon="13.402738">
<time>2021-08-22T10:01:17Z</time>
</trkpt>
<trkpt lat="50.05655" lon="13.402771">
<time>2021-08-22T10:01:18Z</time>
</trkpt>
<trkpt lat="50.056568" lon="13.40278">
<time>2021-08-22T10:01:19Z</time>
</trkpt>
<trkpt lat="50.056591" lon="13.402788">
<time>2021-08-22T10:01:20Z</time>
</trkpt>
<trkpt lat="50.056623" lon="13.402792">
<time>2021-08-22T10:01:21Z</time>
</trkpt>
<trkpt lat="50.056663" lon="13.402794">
<time>2021-08-22T10:01:22Z</time>
</trkpt>
<trkpt lat="50.056717" lon="13.402811">
<time>2021-08-22T10:01:23Z</time>
</trkpt>
<trkpt lat="50.05676" lon="13.402815">
<time>2021-08-22T10:01:24Z</time>
</trkpt>
<trkpt lat="50.056809" lon="13.402831">
<time>2021-08-22T10:01:25Z</time>
</trkpt>
<trkpt lat="50.056848" lon="13.402854">
<time>2021-08-22T10:01:26Z</time>
</trkpt>
<trkpt lat="50.05688" lon="13.402885">
<time>2021-08-22T10:01:27Z</time>
</trkpt>
<trkpt lat="50.05691" lon="13.402928">
<time>2021-08-22T10:01:28Z</time>
</trkpt>
<trkpt lat="50.056934" lon="13.402976">
<time>2021-08-22T10:01:29Z</time>
</trkpt>
<trkpt lat="50.056951" lon="13.40303">
<time>2021-08-22T10:01:30Z</time>
</trkpt>
<trkpt lat="50.056969" lon="13.403074">
<time>2021-08-22T10:01:31Z</time>
</trkpt>
<trkpt lat="50.056988" lon="13.403118">
<time>2021-08-22T10:01:32Z</time>
</trkpt>
<trkpt lat="50.057005" lon="13.403164">
<time>2021-08-22T10:01:33Z</time>
</trkpt>
<trkpt lat="50.057018" lon="13.403209">
<time>2021-08-22T10:01:34Z</time>
</trkpt>
<trkpt lat="50.057039" lon="13.403263">
<time>2021-08-22T10:01:35Z</time>
</trkpt>
<trkpt lat="50.057058" lon="13.403316">
<time>2021-08-22T10:01:36Z</time>
</trkpt>
<trkpt lat="50.057066" lon="13.403371">
<time>2021-08-22T10:01:37Z</time>
</trkpt>
<trkpt lat="50.05708" lon="13.403432">
<time>2021-08-22T10:01:38Z</time>
</trkpt>
<trkpt lat="50.057093" lon="13.403488">
<time>2021-08-22T10:01:39Z</time>
</trkpt>
<trkpt lat="50.057108" lon="13.403543">
<time>2021-08-22T10:01:40Z</time>
</trkpt>
<trkpt lat="50.057139" lon="13.403614">
<time>2021-08-22T10:01:41Z</time>
</trkpt>
<trkpt lat="50.057153" lon="13.403664">
<time>2021-08-22T10:01:42Z</time>
</trkpt>
<trkpt lat="50.057163" lon="13.403715">
<time>2021-08-22T10:01:43Z</time>
</trkpt>
<trkpt lat="50.057175" lon="13.403774">
<time>2021-08-22T10:01:44Z</time>
</trkpt>
<trkpt lat="50.057181" lon="13.403828">
<time>2021-08-22T10:01:45Z</time>
</trkpt>
<trkpt lat="50.057202" lon="13.4039">
<time>2021-08-22T10:01:46Z</time>
</trkpt>
<trkpt lat="50.057207" lon="13.403976">
<time>2021-08-22T10:01:47Z</time>
</trkpt>
<trkpt lat="50.05722" lon="13.404045">
<time>2021-08-22T10:01:48Z</time>
</trkpt>
<trkpt lat="50.057216" lon="13.40411">
<time>2021-08-22T10:01:49Z</time>
</trkpt>
<trkpt lat="50.057216" lon="13.404165">
<time>2021-08-22T10:01:50Z</time>
</trkpt>
<trkpt lat="50.05722" lon="13.404223">
<time>2021-08-22T10:01:51Z</time>
</trkpt>
<trkpt lat="50.057231" lon="13.404294">
<time>2021-08-22T10:01:52Z</time>
</trkpt>
<trkpt lat="50.057243" lon="13.404356">
<time>2021-08-22T10:01:53Z</time>
</trkpt>
<trkpt lat="50.057256" lon="13.404415">
<time>2021-08-22T10:01:54Z</time>
</trkpt>
<trkpt lat="50.057273" lon="13.404467">
<time>2021-08-22T10:01:55Z</time>
</trkpt>
<trkpt lat="50.057287" lon="13.404515">
<time>2021-08-22T10:01:56Z</time>
</trkpt>
<trkpt lat="50.057308" lon="13.404564">
<time>2021-08-22T10:01:57Z</time>
</trkpt>
<trkpt lat="50.057342" lon="13.404627">
<time>2021-08-22T10:01:58Z</time>
</trkpt>
<trkpt lat="50.057354" lon="13.404683">
<time>2021-08-22T10:01:59Z</time>
</trkpt>
<trkpt lat="50.057359" lon="13.404737">
<time>2021-08-22T10:02:00Z</time>
</trkpt>
<trkpt lat="50.057368" lon="13.404788">
<time>2021-08-22T10:02:01Z</time>
</trkpt>
<trkpt lat="50.057376" lon="13.404839">
<time>2021-08-22T10:02:02Z</time>
</trkpt>
<trkpt lat="50.05738" lon="13.4049">
<time>2021-08-22T10:02:03Z</time>
</trkpt>
<trkpt lat="50.057385" lon="13.404959">
<time>2021-08-22T10:02:04Z</time>
</trkpt>
<trkpt lat="50.057388" lon="13.405004">
<time>2021-08-22T10:02:05Z</time>
</trkpt>
<trkpt lat="50.057394" lon="13.405051">
<time>2021-08-22T10:02:06Z</time>
</trkpt>
<trkpt lat="50.057397" lon="13.4051">
<time>2021-08-22T10:02:07Z</time>
</trkpt>
<trkpt lat="50.057392" lon="13.405151">
<time>2021-08-22T10:02:08Z</time>
</trkpt>
<trkpt lat="50.057393" lon="13.405195">
<time>2021-08-22T10:02:09Z</time>
</trkpt>
<trkpt lat="50.057389" lon="13.405247">
<time>2021-08-22T10:02:10Z</time>
</trkpt>
<trkpt lat="50.057394" lon="13.405302">
<time>2021-08-22T10:02:11Z</time>
</trkpt>
<trkpt lat="50.057404" lon="13.40536">
<time>2021-08-22T10:02:12Z</time>
</trkpt>
<trkpt lat="50.057416" lon="13.405419">
<time>2021-08-22T10:02:13Z</time>
</trkpt>
<trkpt lat="50.057441" lon="13.405501">
<time>2021-08-22T10:02:14Z</time>
</trkpt>
<trkpt lat="50.057457" lon="13.405557">
<time>2021-08-22T10:02:15Z</time>
</trkpt>
<trkpt lat="50.057465" lon="13.4056">
<time>2021-08-22T10:02:16Z</time>
</trkpt>
<trkpt lat="50.057471" lon="13.405642">
<time>2021-08-22T10:02:17Z</time>
</trkpt>
<trkpt lat="50.057482" lon="13.405703">
<time>2021-08-22T10:02:18Z</time>
</trkpt>
<trkpt lat="50.057501" lon="13.40576">
<time>2021-08-22T10:02:19Z</time>
</trkpt>
<trkpt lat="50.057503" lon="13.40582">
<time>2021-08-22T10:02:20Z</time>
</trkpt>
<trkpt lat="50.057505" lon="13.405869">
<time>2021-08-22T10:02:21Z</time>
</trkpt>
<trkpt lat="50.057509" lon="13.405918">
<time>2021-08-22T10:02:22Z</time>
</trkpt>
<trkpt lat="50.057525" lon="13.405967">
<time>2021-08-22T10:02:23Z</time>
</trkpt>
<trkpt lat="50.057541" lon="13.406025">
<time>2021-08-22T10:02:24Z</time>
</trkpt>
<trkpt lat="50.05755" lon="13.406071">
<time>2021-08-22T10:02:25Z</time>
</trkpt>
<trkpt lat="50.057552" lon="13.406121">
<time>2021-08-22T10:02:26Z</time>
</trkpt>
<trkpt lat="50.057562" lon="13.406188">
<time>2021-08-22T10:02:27Z</time>
</trkpt>
<trkpt lat="50.057563" lon="13.406236">
<time>2021-08-22T10:02:28Z</time>
</trkpt>
<trkpt lat="50.05756" lon="13.406295">
<time>2021-08-22T10:02:29Z</time>
</trkpt>
<trkpt lat="50.057551" lon="13.40635">
<time>2021-08-22T10:02:30Z</time>
</trkpt>
<trkpt lat="50.057554" lon="13.406395">
<time>2021-08-22T10:02:31Z</time>
</trkpt>
<trkpt lat="50.057559" lon="13.406445">
<time>2021-08-22T10:02:32Z</time>
</trkpt>
<trkpt lat="50.05756" lon="13.40649">
<time>2021-08-22T10:02:33Z</time>
</trkpt>
<trkpt lat="50.057562" lon="13.406534">
<time>2021-08-22T10:02:34Z</time>
</trkpt>
<trkpt lat="50.057586" lon="13.40659">
<time>2021-08-22T10:02:35Z</time>
</trkpt>
<trkpt lat="50.057584" lon="13.406643">
<time>2021-08-22T10:02:36Z</time>
</trkpt>
<trkpt lat="50.057585" lon="13.406696">
<time>2021-08-22T10:02:37Z</time>
</trkpt>
<trkpt lat="50.057592" lon="13.406748">
<time>2021-08-22T10:02:38Z</time>
</trkpt>
<trkpt lat="50.057595" lon="13.406804">
<time>2021-08-22T10:02:39Z</time>
</trkpt>
<trkpt lat="50.057597" lon="13.406862">
<time>2021-08-22T10:02:40Z</time>
</trkpt>
<trkpt lat="50.057616" lon="13.406918">
<time>2021-08-22T10:02:41Z</time>
</trkpt>
<trkpt lat="50.057644" lon="13.406965">
<time>2021-08-22T10:02:42Z</time>
</trkpt>
<trkpt lat="50.057672" lon="13.406995">
<time>2021-08-22T10:02:43Z</time>
</trkpt>
<trkpt lat="50.057698" lon="13.407029">
<time>2021-08-22T10:02:44Z</time>
</trkpt>
<trkpt lat="50.05778" lon="13.407111">
<time>2021-08-22T10:02:45Z</time>
</trkpt>
<trkpt lat="50.057838" lon="13.407134">
<time>2021-08-22T10:02:46Z</time>
</trkpt>
<trkpt lat="50.057887" lon="13.407149">
<time>2021-08-22T10:02:47Z</time>
</trkpt>
<trkpt lat="50.057929" lon="13.407155">
<time>2021-08-22T10:02:48Z</time>
</trkpt>
<trkpt lat="50.057966" lon="13.407147">
<time>2021-08-22T10:02:49Z</time>
</trkpt>
<trkpt lat="50.058015" lon="13.407139">
<time>2021-08-22T10:02:50Z</time>
</trkpt>
<trkpt lat="50.05806" lon="13.407133">
<time>2021-08-22T10:02:51Z</time>
</trkpt>
<trkpt lat="50.058101" lon="13.407123">
<time>2021-08-22T10:02:52Z</time>
</trkpt>
<trkpt lat="50.058142" lon="13.407104">
<time>2021-08-22T10:02:53Z</time>
</trkpt>
<trkpt lat="50.058191" lon="13.407102">
<time>2021-08-22T10:02:54Z</time>
</trkpt>
<trkpt lat="50.058235" lon="13.407099">
<time>2021-08-22T10:02:55Z</time>
</trkpt>
<trkpt lat="50.058277" lon="13.407107">
<time>2021-08-22T10:02:56Z</time>
</trkpt>
<trkpt lat="50.058329" lon="13.407102">
<time>2021-08-22T10:02:57Z</time>
</trkpt>
<trkpt lat="50.058375" lon="13.407091">
<time>2021-08-22T10:02:58Z</time>
</trkpt>
<trkpt lat="50.058419" lon="13.407081">
<time>2021-08-22T10:02:59Z</time>
</trkpt>
<trkpt lat="50.058468" lon="13.407063">
<time>2021-08-22T10:03:00Z</time>
</trkpt>
<trkpt lat="50.058522" lon="13.407034">
<time>2021-08-22T10:03:01Z</time>
</trkpt>
<trkpt lat="50.058582" lon="13.40702">
<time>2021-08-22T10:03:02Z</time>
</trkpt>
<trkpt lat="50.058645" lon="13.407012">
<time>2021-08-22T10:03:03Z</time>
</trkpt>
<trkpt lat="50.058701" lon="13.407005">
<time>2021-08-22T10:03:04Z</time>
</trkpt>
<trkpt lat="50.058753" lon="13.407">
<time>2021-08-22T10:03:05Z</time>
</trkpt>
<trkpt lat="50.0588" lon="13.406993">
<time>2021-08-22T10:03:06Z</time>
</trkpt>
<trkpt lat="50.058844" lon="13.406983">
<time>2021-08-22T10:03:07Z</time>
</trkpt>
<trkpt lat="50.058883" lon="13.407012">
<time>2021-08-22T10:03:08Z</time>
</trkpt>
<trkpt lat="50.058922" lon="13.407014">
<time>2021-08-22T10:03:09Z</time>
</trkpt>
<trkpt lat="50.05896" lon="13.40701">
<time>2021-08-22T10:03:10Z</time>
</trkpt>
<trkpt lat="50.058995" lon="13.407001">
<time>2021-08-22T10:03:11Z</time>
</trkpt>
<trkpt lat="50.05903" lon="13.40699">
<time>2021-08-22T10:03:12Z</time>
</trkpt>
<trkpt lat="50.059065" lon="13.406982">
<time>2021-08-22T10:03:13Z</time>
</trkpt>
<trkpt lat="50.059099" lon="13.406971">
<time>2021-08-22T10:03:14Z</time>
</trkpt>
<trkpt lat="50.059136" lon="13.406956">
<time>2021-08-22T10:03:15Z</time>
</trkpt>
<trkpt lat="50.059175" lon="13.406942">
<time>2021-08-22T10:03:16Z</time>
</trkpt>
<trkpt lat="50.059215" lon="13.406925">
<time>2021-08-22T10:03:17Z</time>
</trkpt>
<trkpt lat="50.059254" lon="13.40691">
<time>2021-08-22T10:03:18Z</time>
</trkpt>
<trkpt lat="50.059291" lon="13.406894">
<time>2021-08-22T10:03:19Z</time>
</trkpt>
<trkpt lat="50.059327" lon="13.406879">
<time>2021-08-22T10:03:20Z</time>
</trkpt>
<trkpt lat="50.059362" lon="13.406863">
<time>2021-08-22T10:03:21Z</time>
</trkpt>
<trkpt lat="50.059393" lon="13.406844">
<time>2021-08-22T10:03:22Z</time>
</trkpt>
<trkpt lat="50.059414" lon="13.40683">
<time>2021-08-22T10:03:23Z</time>
</trkpt>
<trkpt lat="50.059429" lon="13.406821">
<time>2021-08-22T10:03:24Z</time>
</trkpt>
<trkpt lat="50.05945" lon="13.406814">
<time>2021-08-22T10:03:25Z</time>
</trkpt>
<trkpt lat="50.059478" lon="13.406808">
<time>2021-08-22T10:03:26Z</time>
</trkpt>
<trkpt lat="50.059512" lon="13.406797">
<time>2021-08-22T10:03:27Z</time>
</trkpt>
<trkpt lat="50.059551" lon="13.406782">
<time>2021-08-22T10:03:28Z</time>
</trkpt>
<trkpt lat="50.059595" lon="13.406763">
<time>2021-08-22T10:03:29Z</time>
</trkpt>
<trkpt lat="50.059641" lon="13.406746">
<time>2021-08-22T10:03:30Z</time>
</trkpt>
<trkpt lat="50.059691" lon="13.406726">
<time>2021-08-22T10:03:31Z</time>
</trkpt>
<trkpt lat="50.059741" lon="13.406705">
<time>2021-08-22T10:03:32Z</time>
</trkpt>
<trkpt lat="50.059788" lon="13.406676">
<time>2021-08-22T10:03:33Z</time>
</trkpt>
<trkpt lat="50.059836" lon="13.406648">
<time>2021-08-22T10:03:34Z</time>
</trkpt>
<trkpt lat="50.059881" lon="13.406611">
<time>2021-08-22T10:03:35Z</time>
</trkpt>
<trkpt lat="50.059918" lon="13.406568">
<time>2021-08-22T10:03:36Z</time>
</trkpt>
<trkpt lat="50.059954" lon="13.406523">
<time>2021-08-22T10:03:37Z</time>
</trkpt>
<trkpt lat="50.059993" lon="13.40648">
<time>2021-08-22T10:03:38Z</time>
</trkpt>
<trkpt lat="50.060042" lon="13.406436">
<time>2021-08-22T10:03:39Z</time>
</trkpt>
<trkpt lat="50.060092" lon="13.40642">
<time>2021-08-22T10:03:40Z</time>
</trkpt>
<trkpt lat="50.06015" lon="13.406393">
<time>2021-08-22T10:03:41Z</time>
</trkpt>
<trkpt lat="50.060204" lon="13.406385">
<time>2021-08-22T10:03:42Z</time>
</trkpt>
<trkpt lat="50.060237" lon="13.406382">
<time>2021-08-22T10:03:43Z</time>
</trkpt>
<trkpt lat="50.060252" lon="13.40638">
<time>2021-08-22T10:03:44Z</time>
</trkpt>
<trkpt lat="50.060257" lon="13.406384">
<time>2021-08-22T10:03:45Z</time>
</trkpt>
<trkpt lat="50.060266" lon="13.406428">
<time>2021-08-22T10:03:46Z</time>
</trkpt>
<trkpt lat="50.060274" lon="13.406474">
<time>2021-08-22T10:03:47Z</time>
</trkpt>
<trkpt lat="50.060294" lon="13.406514">
<time>2021-08-22T10:03:48Z</time>
</trkpt>
<trkpt lat="50.06031" lon="13.406567">
<time>2021-08-22T10:03:49Z</time>
</trkpt>
<trkpt lat="50.060329" lon="13.406613">
<time>2021-08-22T10:03:50Z</time>
</trkpt>
<trkpt lat="50.060345" lon="13.406669">
<time>2021-08-22T10:03:51Z</time>
</trkpt>
<trkpt lat="50.06035" lon="13.406733">
<time>2021-08-22T10:03:52Z</time>
</trkpt>
<trkpt lat="50.060356" lon="13.40679">
<time>2021-08-22T10:03:53Z</time>
</trkpt>
<trkpt lat="50.060364" lon="13.406835">
<time>2021-08-22T10:03:54Z</time>
</trkpt>
<trkpt lat="50.060366" lon="13.406885">
<time>2021-08-22T10:03:55Z</time>
</trkpt>
<trkpt lat="50.060379" lon="13.406936">
<time>2021-08-22T10:03:56Z</time>
</trkpt>
<trkpt lat="50.060393" lon="13.406985">
<time>2021-08-22T10:03:57Z</time>
</trkpt>
<trkpt lat="50.060407" lon="13.407037">
<time>2021-08-22T10:03:58Z</time>
</trkpt>
<trkpt lat="50.060426" lon="13.407092">
<time>2021-08-22T10:03:59Z</time>
</trkpt>
<trkpt lat="50.060444" lon="13.407146">
<time>2021-08-22T10:04:00Z</time>
</trkpt>
<trkpt lat="50.060463" lon="13.4072">
<time>2021-08-22T10:04:01Z</time>
</trkpt>
<trkpt lat="50.060482" lon="13.407264">
<time>2021-08-22T10:04:02Z</time>
</trkpt>
<trkpt lat="50.060502" lon="13.407337">
<time>2021-08-22T10:04:03Z</time>
</trkpt>
<trkpt lat="50.060519" lon="13.40741">
<time>2021-08-22T10:04:04Z</time>
</trkpt>
<trkpt lat="50.06053" lon="13.407469">
<time>2021-08-22T10:04:05Z</time>
</trkpt>
<trkpt lat="50.060539" lon="13.407531">
<time>2021-08-22T10:04:06Z</time>
</trkpt>
<trkpt lat="50.060549" lon="13.407594">
<time>2021-08-22T10:04:07Z</time>
</trkpt>
<trkpt lat="50.060563" lon="13.407657">
<time>2021-08-22T10:04:08Z</time>
</trkpt>
<trkpt lat="50.060582" lon="13.407724">
<time>2021-08-22T10:04:09Z</time>
</trkpt>
<trkpt lat="50.0606" lon="13.407789">
<time>2021-08-22T10:04:10Z</time>
</trkpt>
<trkpt lat="50.060611" lon="13.40785">
<time>2021-08-22T10:04:11Z</time>
</trkpt>
<trkpt lat="50.060623" lon="13.407911">
<time>2021-08-22T10:04:12Z</time>
</trkpt>
<trkpt lat="50.060636" lon="13.40797">
<time>2021-08-22T10:04:13Z</time>
</trkpt>
<trkpt lat="50.060651" lon="13.408037">
<time>2021-08-22T10:04:14Z</time>
</trkpt>
<trkpt lat="50.060672" lon="13.408101">
<time>2021-08-22T10:04:15Z</time>
</trkpt>
<trkpt lat="50.060685" lon="13.408158">
<time>2021-08-22T10:04:16Z</time>
</trkpt>
<trkpt lat="50.060687" lon="13.408229">
<time>2021-08-22T10:04:17Z</time>
</trkpt>
<trkpt lat="50.060694" lon="13.4083">
<time>2021-08-22T10:04:18Z</time>
</trkpt>
<trkpt lat="50.060706" lon="13.408366">
<time>2021-08-22T10:04:19Z</time>
</trkpt>
<trkpt lat="50.060715" lon="13.408433">
<time>2021-08-22T10:04:20Z</time>
</trkpt>
<trkpt lat="50.06072" lon="13.408493">
<time>2021-08-22T10:04:21Z</time>
</trkpt>
<trkpt lat="50.060724" lon="13.408555">
<time>2021-08-22T10:04:22Z</time>
</trkpt>
<trkpt lat="50.060726" lon="13.408614">
<time>2021-08-22T10:04:23Z</time>
</trkpt>
<trkpt lat="50.060722" lon="13.408672">
<time>2021-08-22T10:04:24Z</time>
</trkpt>
<trkpt lat="50.060723" lon="13.408736">
<time>2021-08-22T10:04:25Z</time>
</trkpt>
<trkpt lat="50.060719" lon="13.408801">
<time>2021-08-22T10:04:26Z</time>
</trkpt>
<trkpt lat="50.060719" lon="13.408866">
<time>2021-08-22T10:04:27Z</time>
</trkpt>
<trkpt lat="50.060725" lon="13.408935">
<time>2021-08-22T10:04:28Z</time>
</trkpt>
<trkpt lat="50.060734" lon="13.409001">
<time>2021-08-22T10:04:29Z</time>
</trkpt>
<trkpt lat="50.060748" lon="13.409076">
<time>2021-08-22T10:04:30Z</time>
</trkpt>
<trkpt lat="50.060756" lon="13.409146">
<time>2021-08-22T10:04:31Z</time>
</trkpt>
<trkpt lat="50.060766" lon="13.409219">
<time>2021-08-22T10:04:32Z</time>
</trkpt>
<trkpt lat="50.060774" lon="13.409293">
<time>2021-08-22T10:04:33Z</time>
</trkpt>
<trkpt lat="50.060781" lon="13.409366">
<time>2021-08-22T10:04:34Z</time>
</trkpt>
<trkpt lat="50.060783" lon="13.40943">
<time>2021-08-22T10:04:35Z</time>
</trkpt>
<trkpt lat="50.06079" lon="13.409499">
<time>2021-08-22T10:04:36Z</time>
</trkpt>
<trkpt lat="50.06079" lon="13.409571">
<time>2021-08-22T10:04:37Z</time>
</trkpt>
<trkpt lat="50.060792" lon="13.409637">
<time>2021-08-22T10:04:38Z</time>
</trkpt>
<trkpt lat="50.060803" lon="13.409713">
<time>2021-08-22T10:04:39Z</time>
</trkpt>
<trkpt lat="50.060827" lon="13.409769">
<time>2021-08-22T10:04:40Z</time>
</trkpt>
<trkpt lat="50.06084" lon="13.409829">
<time>2021-08-22T10:04:41Z</time>
</trkpt>
<trkpt lat="50.060859" lon="13.409884">
<time>2021-08-22T10:04:42Z</time>
</trkpt>
<trkpt lat="50.060881" lon="13.409938">
<time>2021-08-22T10:04:43Z</time>
</trkpt>
<trkpt lat="50.060901" lon="13.409976">
<time>2021-08-22T10:04:44Z</time>
</trkpt>
<trkpt lat="50.060927" lon="13.41003">
<time>2021-08-22T10:04:45Z</time>
</trkpt>
<trkpt lat="50.060968" lon="13.410068">
<time>2021-08-22T10:04:46Z</time>
</trkpt>
<trkpt lat="50.061008" lon="13.410099">
<time>2021-08-22T10:04:47Z</time>
</trkpt>
<trkpt lat="50.061052" lon="13.410143">
<time>2021-08-22T10:04:48Z</time>
</trkpt>
<trkpt lat="50.061085" lon="13.41018">
<time>2021-08-22T10:04:49Z</time>
</trkpt>
<trkpt lat="50.061113" lon="13.410218">
<time>2021-08-22T10:04:50Z</time>
</trkpt>
<trkpt lat="50.061146" lon="13.410254">
<time>2021-08-22T10:04:51Z</time>
</trkpt>
<trkpt lat="50.061187" lon="13.410304">
<time>2021-08-22T10:04:52Z</time>
</trkpt>
<trkpt lat="50.061219" lon="13.410347">
<time>2021-08-22T10:04:53Z</time>
</trkpt>
<trkpt lat="50.061251" lon="13.410381">
<time>2021-08-22T10:04:54Z</time>
</trkpt>
<trkpt lat="50.061291" lon="13.410423">
<time>2021-08-22T10:04:55Z</time>
</trkpt>
<trkpt lat="50.061327" lon="13.410457">
<time>2021-08-22T10:04:56Z</time>
</trkpt>
<trkpt lat="50.061358" lon="13.410497">
<time>2021-08-22T10:04:57Z</time>
</trkpt>
<trkpt lat="50.061385" lon="13.410527">
<time>2021-08-22T10:04:58Z</time>
</trkpt>
<trkpt lat="50.061411" lon="13.410558">
<time>2021-08-22T10:04:59Z</time>
</trkpt>
<trkpt lat="50.061454" lon="13.410612">
<time>2021-08-22T10:05:00Z</time>
</trkpt>
<trkpt lat="50.061493" lon="13.410658">
<time>2021-08-22T10:05:01Z</time>
</trkpt>
<trkpt lat="50.061521" lon="13.410698">
<time>2021-08-22T10:05:02Z</time>
</trkpt>
<trkpt lat="50.061548" lon="13.410739">
<time>2021-08-22T10:05:03Z</time>
</trkpt>
<trkpt lat="50.06158" lon="13.410792">
<time>2021-08-22T10:05:04Z</time>
</trkpt>
<trkpt lat="50.061613" lon="13.410849">
<time>2021-08-22T10:05:05Z</time>
</trkpt>
<trkpt lat="50.061641" lon="13.410902">
<time>2021-08-22T10:05:06Z</time>
</trkpt>
<trkpt lat="50.061681" lon="13.410948">
<time>2021-08-22T10:05:07Z</time>
</trkpt>
<trkpt lat="50.061715" lon="13.410992">
<time>2021-08-22T10:05:08Z</time>
</trkpt>
<trkpt lat="50.061761" lon="13.411037">
<time>2021-08-22T10:05:09Z</time>
</trkpt>
<trkpt lat="50.061802" lon="13.411086">
<time>2021-08-22T10:05:10Z</time>
</trkpt>
<trkpt lat="50.061836" lon="13.411135">
<time>2021-08-22T10:05:11Z</time>
</trkpt>
<trkpt lat="50.061867" lon="13.411185">
<time>2021-08-22T10:05:12Z</time>
</trkpt>
<trkpt lat="50.0619" lon="13.41124">
<time>2021-08-22T10:05:13Z</time>
</trkpt>
<trkpt lat="50.061927" lon="13.411298">
<time>2021-08-22T10:05:14Z</time>
</trkpt>
<trkpt lat="50.061953" lon="13.411364">
<time>2021-08-22T10:05:15Z</time>
</trkpt>
<trkpt lat="50.06198" lon="13.411416">
<time>2021-08-22T10:05:16Z</time>
</trkpt>
<trkpt lat="50.062013" lon="13.411469">
<time>2021-08-22T10:05:17Z</time>
</trkpt>
<trkpt lat="50.062053" lon="13.411516">
<time>2021-08-22T10:05:18Z</time>
</trkpt>
<trkpt lat="50.062094" lon="13.411567">
<time>2021-08-22T10:05:19Z</time>
</trkpt>
<trkpt lat="50.062126" lon="13.41162">
<time>2021-08-22T10:05:20Z</time>
</trkpt>
<trkpt lat="50.062153" lon="13.411672">
<time>2021-08-22T10:05:21Z</time>
</trkpt>
<trkpt lat="50.062178" lon="13.411738">
<time>2021-08-22T10:05:22Z</time>
</trkpt>
<trkpt lat="50.062203" lon="13.411804">
<time>2021-08-22T10:05:23Z</time>
</trkpt>
<trkpt lat="50.06223" lon="13.411881">
<time>2021-08-22T10:05:24Z</time>
</trkpt>
<trkpt lat="50.062257" lon="13.411954">
<time>2021-08-22T10:05:25Z</time>
</trkpt>
<trkpt lat="50.062267" lon="13.412035">
<time>2021-08-22T10:05:26Z</time>
</trkpt>
<trkpt lat="50.062273" lon="13.41212">
<time>2021-08-22T10:05:27Z</time>
</trkpt>
<trkpt lat="50.062285" lon="13.4122">
<time>2021-08-22T10:05:28Z</time>
</trkpt>
<trkpt lat="50.062308" lon="13.412279">
<time>2021-08-22T10:05:29Z</time>
</trkpt>
<trkpt lat="50.062337" lon="13.412351">
<time>2021-08-22T10:05:30Z</time>
</trkpt>
<trkpt lat="50.062365" lon="13.412421">
<time>2021-08-22T10:05:31Z</time>
</trkpt>
<trkpt lat="50.062388" lon="13.412501">
<time>2021-08-22T10:05:32Z</time>
</trkpt>
<trkpt lat="50.06241" lon="13.412585">
<time>2021-08-22T10:05:33Z</time>
</trkpt>
<trkpt lat="50.062424" lon="13.412672">
<time>2021-08-22T10:05:34Z</time>
</trkpt>
<trkpt lat="50.062422" lon="13.412789">
<time>2021-08-22T10:05:35Z</time>
</trkpt>
<trkpt lat="50.062413" lon="13.412894">
<time>2021-08-22T10:05:36Z</time>
</trkpt>
<trkpt lat="50.062395" lon="13.413007">
<time>2021-08-22T10:05:37Z</time>
</trkpt>
<trkpt lat="50.062372" lon="13.413114">
<time>2021-08-22T10:05:38Z</time>
</trkpt>
<trkpt lat="50.062348" lon="13.413211">
<time>2021-08-22T10:05:39Z</time>
</trkpt>
<trkpt lat="50.062331" lon="13.413302">
<time>2021-08-22T10:05:40Z</time>
</trkpt>
<trkpt lat="50.062314" lon="13.413395">
<time>2021-08-22T10:05:41Z</time>
</trkpt>
<trkpt lat="50.062299" lon="13.413477">
<time>2021-08-22T10:05:42Z</time>
</trkpt>
<trkpt lat="50.062273" lon="13.413596">
<time>2021-08-22T10:05:43Z</time>
</trkpt>
<trkpt lat="50.062252" lon="13.413699">
<time>2021-08-22T10:05:44Z</time>
</trkpt>
<trkpt lat="50.062231" lon="13.413798">
<time>2021-08-22T10:05:45Z</time>
</trkpt>
<trkpt lat="50.062202" lon="13.413904">
<time>2021-08-22T10:05:46Z</time>
</trkpt>
<trkpt lat="50.062181" lon="13.413993">
<time>2021-08-22T10:05:47Z</time>
</trkpt>
<trkpt lat="50.062154" lon="13.414095">
<time>2021-08-22T10:05:48Z</time>
</trkpt>
<trkpt lat="50.06213" lon="13.414184">
<time>2021-08-22T10:05:49Z</time>
</trkpt>
<trkpt lat="50.062108" lon="13.414278">
<time>2021-08-22T10:05:50Z</time>
</trkpt>
<trkpt lat="50.062082" lon="13.414366">
<time>2021-08-22T10:05:51Z</time>
</trkpt>
<trkpt lat="50.062058" lon="13.414453">
<time>2021-08-22T10:05:52Z</time>
</trkpt>
<trkpt lat="50.062042" lon="13.414543">
<time>2021-08-22T10:05:53Z</time>
</trkpt>
<trkpt lat="50.062023" lon="13.414637">
<time>2021-08-22T10:05:54Z</time>
</trkpt>
<trkpt lat="50.062004" lon="13.414729">
<time>2021-08-22T10:05:55Z</time>
</trkpt>
<trkpt lat="50.061985" lon="13.41482">
<time>2021-08-22T10:05:56Z</time>
</trkpt>
<trkpt lat="50.061967" lon="13.414906">
<time>2021-08-22T10:05:57Z</time>
</trkpt>
<trkpt lat="50.061943" lon="13.415041">
<time>2021-08-22T10:05:58Z</time>
</trkpt>
<trkpt lat="50.061915" lon="13.415158">
<time>2021-08-22T10:05:59Z</time>
</trkpt>
<trkpt lat="50.061887" lon="13.415275">
<time>2021-08-22T10:06:00Z</time>
</trkpt>
<trkpt lat="50.061858" lon="13.415377">
<time>2021-08-22T10:06:01Z</time>
</trkpt>
<trkpt lat="50.061841" lon="13.41547">
<time>2021-08-22T10:06:02Z</time>
</trkpt>
<trkpt lat="50.061826" lon="13.415565">
<time>2021-08-22T10:06:03Z</time>
</trkpt>
<trkpt lat="50.061814" lon="13.415663">
<time>2021-08-22T10:06:04Z</time>
</trkpt>
<trkpt lat="50.061795" lon="13.415753">
<time>2021-08-22T10:06:05Z</time>
</trkpt>
<trkpt lat="50.061768" lon="13.415852">
<time>2021-08-22T10:06:06Z</time>
</trkpt>
<trkpt lat="50.06174" lon="13.415939">
<time>2021-08-22T10:06:07Z</time>
</trkpt>
<trkpt lat="50.061711" lon="13.416026">
<time>2021-08-22T10:06:08Z</time>
</trkpt>
<trkpt lat="50.061684" lon="13.416114">
<time>2021-08-22T10:06:09Z</time>
</trkpt>
<trkpt lat="50.061663" lon="13.416203">
<time>2021-08-22T10:06:10Z</time>
</trkpt>
<trkpt lat="50.061639" lon="13.416297">
<time>2021-08-22T10:06:11Z</time>
</trkpt>
<trkpt lat="50.06162" lon="13.41639">
<time>2021-08-22T10:06:12Z</time>
</trkpt>
<trkpt lat="50.061605" lon="13.416483">
<time>2021-08-22T10:06:13Z</time>
</trkpt>
<trkpt lat="50.061587" lon="13.416577">
<time>2021-08-22T10:06:14Z</time>
</trkpt>
<trkpt lat="50.061569" lon="13.416682">
<time>2021-08-22T10:06:15Z</time>
</trkpt>
<trkpt lat="50.061549" lon="13.416776">
<time>2021-08-22T10:06:16Z</time>
</trkpt>
<trkpt lat="50.061526" lon="13.416863">
<time>2021-08-22T10:06:17Z</time>
</trkpt>
<trkpt lat="50.061505" lon="13.416946">
<time>2021-08-22T10:06:18Z</time>
</trkpt>
<trkpt lat="50.061483" lon="13.417035">
<time>2021-08-22T10:06:19Z</time>
</trkpt>
<trkpt lat="50.061458" lon="13.417124">
<time>2021-08-22T10:06:20Z</time>
</trkpt>
<trkpt lat="50.061429" lon="13.417213">
<time>2021-08-22T10:06:21Z</time>
</trkpt>
<trkpt lat="50.061403" lon="13.417305">
<time>2021-08-22T10:06:22Z</time>
</trkpt>
<trkpt lat="50.061377" lon="13.417392">
<time>2021-08-22T10:06:23Z</time>
</trkpt>
<trkpt lat="50.061352" lon="13.417476">
<time>2021-08-22T10:06:24Z</time>
</trkpt>
<trkpt lat="50.061326" lon="13.417562">
<time>2021-08-22T10:06:25Z</time>
</trkpt>
<trkpt lat="50.061302" lon="13.417648">
<time>2021-08-22T10:06:26Z</time>
</trkpt>
<trkpt lat="50.061281" lon="13.417744">
<time>2021-08-22T10:06:27Z</time>
</trkpt>
<trkpt lat="50.061257" lon="13.417841">
<time>2021-08-22T10:06:28Z</time>
</trkpt>
<trkpt lat="50.061231" lon="13.417927">
<time>2021-08-22T10:06:29Z</time>
</trkpt>
<trkpt lat="50.0612" lon="13.418006">
<time>2021-08-22T10:06:30Z</time>
</trkpt>
<trkpt lat="50.061168" lon="13.418087">
<time>2021-08-22T10:06:31Z</time>
</trkpt>
<trkpt lat="50.061141" lon="13.41817">
<time>2021-08-22T10:06:32Z</time>
</trkpt>
<trkpt lat="50.061115" lon="13.418252">
<time>2021-08-22T10:06:33Z</time>
</trkpt>
<trkpt lat="50.061091" lon="13.418332">
<time>2021-08-22T10:06:34Z</time>
</trkpt>
<trkpt lat="50.061066" lon="13.418418">
<time>2021-08-22T10:06:35Z</time>
</trkpt>
<trkpt lat="50.061036" lon="13.418507">
<time>2021-08-22T10:06:36Z</time>
</trkpt>
<trkpt lat="50.061008" lon="13.418593">
<time>2021-08-22T10:06:37Z</time>
</trkpt>
<trkpt lat="50.060975" lon="13.418672">
<time>2021-08-22T10:06:38Z</time>
</trkpt>
<trkpt lat="50.060941" lon="13.418769">
<time>2021-08-22T10:06:39Z</time>
</trkpt>
<trkpt lat="50.060911" lon="13.418863">
<time>2021-08-22T10:06:40Z</time>
</trkpt>
<trkpt lat="50.060879" lon="13.418947">
<time>2021-08-22T10:06:41Z</time>
</trkpt>
<trkpt lat="50.060853" lon="13.419037">
<time>2021-08-22T10:06:42Z</time>
</trkpt>
<trkpt lat="50.060835" lon="13.419138">
<time>2021-08-22T10:06:43Z</time>
</trkpt>
<trkpt lat="50.060813" lon="13.419232">
<time>2021-08-22T10:06:44Z</time>
</trkpt>
<trkpt lat="50.060789" lon="13.419338">
<time>2021-08-22T10:06:45Z</time>
</trkpt>
<trkpt lat="50.06076" lon="13.41944">
<time>2021-08-22T10:06:46Z</time>
</trkpt>
<trkpt lat="50.06073" lon="13.419541">
<time>2021-08-22T10:06:47Z</time>
</trkpt>
<trkpt lat="50.060699" lon="13.419638">
<time>2021-08-22T10:06:48Z</time>
</trkpt>
<trkpt lat="50.060677" lon="13.419744">
<time>2021-08-22T10:06:49Z</time>
</trkpt>
<trkpt lat="50.060654" lon="13.419843">
<time>2021-08-22T10:06:50Z</time>
</trkpt>
<trkpt lat="50.060637" lon="13.419944">
<time>2021-08-22T10:06:51Z</time>
</trkpt>
<trkpt lat="50.060616" lon="13.420045">
<time>2021-08-22T10:06:52Z</time>
</trkpt>
<trkpt lat="50.060589" lon="13.420137">
<time>2021-08-22T10:06:53Z</time>
</trkpt>
<trkpt lat="50.060552" lon="13.420222">
<time>2021-08-22T10:06:54Z</time>
</trkpt>
<trkpt lat="50.06051" lon="13.4203">
<time>2021-08-22T10:06:55Z</time>
</trkpt>
<trkpt lat="50.060476" lon="13.420383">
<time>2021-08-22T10:06:56Z</time>
</trkpt>
<trkpt lat="50.060458" lon="13.420462">
<time>2021-08-22T10:06:57Z</time>
</trkpt>
<trkpt lat="50.060452" lon="13.420528">
<time>2021-08-22T10:06:58Z</time>
</trkpt>
<trkpt lat="50.060442" lon="13.420586">
<time>2021-08-22T10:06:59Z</time>
</trkpt>
<trkpt lat="50.060423" lon="13.420656">
<time>2021-08-22T10:07:00Z</time>
</trkpt>
<trkpt lat="50.06041" lon="13.420728">
<time>2021-08-22T10:07:01Z</time>
</trkpt>
<trkpt lat="50.0604" lon="13.420805">
<time>2021-08-22T10:07:02Z</time>
</trkpt>
<trkpt lat="50.060393" lon="13.420888">
<time>2021-08-22T10:07:03Z</time>
</trkpt>
<trkpt lat="50.060387" lon="13.420978">
<time>2021-08-22T10:07:04Z</time>
</trkpt>
<trkpt lat="50.060384" lon="13.421066">
<time>2021-08-22T10:07:05Z</time>
</trkpt>
<trkpt lat="50.060378" lon="13.421153">
<time>2021-08-22T10:07:06Z</time>
</trkpt>
<trkpt lat="50.060369" lon="13.421242">
<time>2021-08-22T10:07:07Z</time>
</trkpt>
<trkpt lat="50.060365" lon="13.421332">
<time>2021-08-22T10:07:08Z</time>
</trkpt>
<trkpt lat="50.060364" lon="13.42142">
<time>2021-08-22T10:07:09Z</time>
</trkpt>
<trkpt lat="50.060362" lon="13.421507">
<time>2021-08-22T10:07:10Z</time>
</trkpt>
<trkpt lat="50.06036" lon="13.421599">
<time>2021-08-22T10:07:11Z</time>
</trkpt>
<trkpt lat="50.060355" lon="13.421689">
<time>2021-08-22T10:07:12Z</time>
</trkpt>
<trkpt lat="50.060353" lon="13.421774">
<time>2021-08-22T10:07:13Z</time>
</trkpt>
<trkpt lat="50.060354" lon="13.421864">
<time>2021-08-22T10:07:14Z</time>
</trkpt>
<trkpt lat="50.060354" lon="13.421951">
<time>2021-08-22T10:07:15Z</time>
</trkpt>
<trkpt lat="50.060357" lon="13.422039">
<time>2021-08-22T10:07:16Z</time>
</trkpt>
<trkpt lat="50.060356" lon="13.422125">
<time>2021-08-22T10:07:17Z</time>
</trkpt>
<trkpt lat="50.06036" lon="13.422207">
<time>2021-08-22T10:07:18Z</time>
</trkpt>
<trkpt lat="50.060363" lon="13.422287">
<time>2021-08-22T10:07:19Z</time>
</trkpt>
<trkpt lat="50.060365" lon="13.422364">
<time>2021-08-22T10:07:20Z</time>
</trkpt>
<trkpt lat="50.060371" lon="13.422434">
<time>2021-08-22T10:07:21Z</time>
</trkpt>
<trkpt lat="50.060381" lon="13.422496">
<time>2021-08-22T10:07:22Z</time>
</trkpt>
<trkpt lat="50.060388" lon="13.42255">
<time>2021-08-22T10:07:23Z</time>
</trkpt>
<trkpt lat="50.060395" lon="13.422599">
<time>2021-08-22T10:07:24Z</time>
</trkpt>
<trkpt lat="50.060403" lon="13.422644">
<time>2021-08-22T10:07:25Z</time>
</trkpt>
<trkpt lat="50.060415" lon="13.422687">
<time>2021-08-22T10:07:26Z</time>
</trkpt>
<trkpt lat="50.060431" lon="13.422729">
<time>2021-08-22T10:07:27Z</time>
</trkpt>
<trkpt lat="50.060443" lon="13.422785">
<time>2021-08-22T10:07:28Z</time>
</trkpt>
<trkpt lat="50.060454" lon="13.42284">
<time>2021-08-22T10:07:29Z</time>
</trkpt>
<trkpt lat="50.060464" lon="13.422904">
<time>2021-08-22T10:07:30Z</time>
</trkpt>
<trkpt lat="50.060478" lon="13.422971">
<time>2021-08-22T10:07:31Z</time>
</trkpt>
<trkpt lat="50.060489" lon="13.423034">
<time>2021-08-22T10:07:32Z</time>
</trkpt>
<trkpt lat="50.060499" lon="13.4231">
<time>2021-08-22T10:07:33Z</time>
</trkpt>
<trkpt lat="50.060503" lon="13.423169">
<time>2021-08-22T10:07:34Z</time>
</trkpt>
<trkpt lat="50.060504" lon="13.423223">
<time>2021-08-22T10:07:35Z</time>
</trkpt>
<trkpt lat="50.060493" lon="13.423268">
<time>2021-08-22T10:07:36Z</time>
</trkpt>
<trkpt lat="50.060475" lon="13.423296">
<time>2021-08-22T10:07:37Z</time>
</trkpt>
<trkpt lat="50.060451" lon="13.42333">
<time>2021-08-22T10:07:38Z</time>
</trkpt>
<trkpt lat="50.060422" lon="13.423355">
<time>2021-08-22T10:07:39Z</time>
</trkpt>
<trkpt lat="50.060393" lon="13.423392">
<time>2021-08-22T10:07:40Z</time>
</trkpt>
<trkpt lat="50.060363" lon="13.423426">
<time>2021-08-22T10:07:41Z</time>
</trkpt>
<trkpt lat="50.060328" lon="13.423461">
<time>2021-08-22T10:07:42Z</time>
</trkpt>
<trkpt lat="50.060295" lon="13.423504">
<time>2021-08-22T10:07:43Z</time>
</trkpt>
<trkpt lat="50.060268" lon="13.423539">
<time>2021-08-22T10:07:44Z</time>
</trkpt>
<trkpt lat="50.060244" lon="13.423581">
<time>2021-08-22T10:07:45Z</time>
</trkpt>
<trkpt lat="50.06022" lon="13.42362">
<time>2021-08-22T10:07:46Z</time>
</trkpt>
<trkpt lat="50.060199" lon="13.423653">
<time>2021-08-22T10:07:47Z</time>
</trkpt>
<trkpt lat="50.060178" lon="13.423694">
<time>2021-08-22T10:07:48Z</time>
</trkpt>
<trkpt lat="50.060156" lon="13.423744">
<time>2021-08-22T10:07:49Z</time>
</trkpt>
<trkpt lat="50.060134" lon="13.423787">
<time>2021-08-22T10:07:50Z</time>
</trkpt>
<trkpt lat="50.060111" lon="13.423834">
<time>2021-08-22T10:07:51Z</time>
</trkpt>
<trkpt lat="50.060089" lon="13.423887">
<time>2021-08-22T10:07:52Z</time>
</trkpt>
<trkpt lat="50.06007" lon="13.423942">
<time>2021-08-22T10:07:53Z</time>
</trkpt>
<trkpt lat="50.060051" lon="13.423998">
<time>2021-08-22T10:07:54Z</time>
</trkpt>
<trkpt lat="50.060033" lon="13.424056">
<time>2021-08-22T10:07:55Z</time>
</trkpt>
<trkpt lat="50.060015" lon="13.424115">
<time>2021-08-22T10:07:56Z</time>
</trkpt>
<trkpt lat="50.059996" lon="13.424172">
<time>2021-08-22T10:07:57Z</time>
</trkpt>
<trkpt lat="50.059973" lon="13.42423">
<time>2021-08-22T10:07:58Z</time>
</trkpt>
<trkpt lat="50.059948" lon="13.424283">
<time>2021-08-22T10:07:59Z</time>
</trkpt>
<trkpt lat="50.05992" lon="13.42434">
<time>2021-08-22T10:08:00Z</time>
</trkpt>
<trkpt lat="50.059894" lon="13.424392">
<time>2021-08-22T10:08:01Z</time>
</trkpt>
<trkpt lat="50.059869" lon="13.42445">
<time>2021-08-22T10:08:02Z</time>
</trkpt>
<trkpt lat="50.059848" lon="13.424516">
<time>2021-08-22T10:08:03Z</time>
</trkpt>
<trkpt lat="50.059823" lon="13.424578">
<time>2021-08-22T10:08:04Z</time>
</trkpt>
<trkpt lat="50.059799" lon="13.424637">
<time>2021-08-22T10:08:05Z</time>
</trkpt>
<trkpt lat="50.059777" lon="13.424684">
<time>2021-08-22T10:08:06Z</time>
</trkpt>
<trkpt lat="50.059759" lon="13.424714">
<time>2021-08-22T10:08:07Z</time>
</trkpt>
<trkpt lat="50.059746" lon="13.424747">
<time>2021-08-22T10:08:08Z</time>
</trkpt>
<trkpt lat="50.059742" lon="13.424784">
<time>2021-08-22T10:08:09Z</time>
</trkpt>
<trkpt lat="50.059732" lon="13.424823">
<time>2021-08-22T10:08:10Z</time>
</trkpt>
<trkpt lat="50.059723" lon="13.42487">
<time>2021-08-22T10:08:11Z</time>
</trkpt>
<trkpt lat="50.059713" lon="13.424902">
<time>2021-08-22T10:08:12Z</time>
</trkpt>
<trkpt lat="50.059696" lon="13.424938">
<time>2021-08-22T10:08:13Z</time>
</trkpt>
<trkpt lat="50.059677" lon="13.424978">
<time>2021-08-22T10:08:14Z</time>
</trkpt>
<trkpt lat="50.059659" lon="13.425026">
<time>2021-08-22T10:08:15Z</time>
</trkpt>
<trkpt lat="50.059642" lon="13.425077">
<time>2021-08-22T10:08:16Z</time>
</trkpt>
<trkpt lat="50.059621" lon="13.425129">
<time>2021-08-22T10:08:17Z</time>
</trkpt>
<trkpt lat="50.0596" lon="13.425186">
<time>2021-08-22T10:08:18Z</time>
</trkpt>
<trkpt lat="50.059581" lon="13.425245">
<time>2021-08-22T10:08:19Z</time>
</trkpt>
<trkpt lat="50.059571" lon="13.425304">
<time>2021-08-22T10:08:20Z</time>
</trkpt>
<trkpt lat="50.059561" lon="13.425362">
<time>2021-08-22T10:08:21Z</time>
</trkpt>
<trkpt lat="50.059552" lon="13.42542">
<time>2021-08-22T10:08:22Z</time>
</trkpt>
<trkpt lat="50.059545" lon="13.425479">
<time>2021-08-22T10:08:23Z</time>
</trkpt>
<trkpt lat="50.059539" lon="13.42554">
<time>2021-08-22T10:08:24Z</time>
</trkpt>
<trkpt lat="50.059541" lon="13.425601">
<time>2021-08-22T10:08:25Z</time>
</trkpt>
<trkpt lat="50.059537" lon="13.425659">
<time>2021-08-22T10:08:26Z</time>
</trkpt>
<trkpt lat="50.059524" lon="13.425715">
<time>2021-08-22T10:08:27Z</time>
</trkpt>
<trkpt lat="50.059517" lon="13.425774">
<time>2021-08-22T10:08:28Z</time>
</trkpt>
<trkpt lat="50.059508" lon="13.425843">
<time>2021-08-22T10:08:29Z</time>
</trkpt>
<trkpt lat="50.059504" lon="13.425917">
<time>2021-08-22T10:08:30Z</time>
</trkpt>
<trkpt lat="50.059499" lon="13.425989">
<time>2021-08-22T10:08:31Z</time>
</trkpt>
<trkpt lat="50.059497" lon="13.426055">
<time>2021-08-22T10:08:32Z</time>
</trkpt>
<trkpt lat="50.059494" lon="13.426119">
<time>2021-08-22T10:08:33Z</time>
</trkpt>
<trkpt lat="50.059485" lon="13.426189">
<time>2021-08-22T10:08:34Z</time>
</trkpt>
<trkpt lat="50.059479" lon="13.426259">
<time>2021-08-22T10:08:35Z</time>
</trkpt>
<trkpt lat="50.059479" lon="13.426329">
<time>2021-08-22T10:08:36Z</time>
</trkpt>
<trkpt lat="50.05947" lon="13.4264">
<time>2021-08-22T10:08:37Z</time>
</trkpt>
<trkpt lat="50.059467" lon="13.426463">
<time>2021-08-22T10:08:38Z</time>
</trkpt>
<trkpt lat="50.059471" lon="13.42653">
<time>2021-08-22T10:08:39Z</time>
</trkpt>
<trkpt lat="50.059471" lon="13.426596">
<time>2021-08-22T10:08:40Z</time>
</trkpt>
<trkpt lat="50.059469" lon="13.426661">
<time>2021-08-22T10:08:41Z</time>
</trkpt>
<trkpt lat="50.059464" lon="13.42672">
<time>2021-08-22T10:08:42Z</time>
</trkpt>
<trkpt lat="50.059458" lon="13.426781">
<time>2021-08-22T10:08:43Z</time>
</trkpt>
<trkpt lat="50.059453" lon="13.42685">
<time>2021-08-22T10:08:44Z</time>
</trkpt>
<trkpt lat="50.059454" lon="13.426916">
<time>2021-08-22T10:08:45Z</time>
</trkpt>
<trkpt lat="50.059448" lon="13.426977">
<time>2021-08-22T10:08:46Z</time>
</trkpt>
<trkpt lat="50.059441" lon="13.42704">
<time>2021-08-22T10:08:47Z</time>
</trkpt>
<trkpt lat="50.059438" lon="13.427103">
<time>2021-08-22T10:08:48Z</time>
</trkpt>
<trkpt lat="50.059432" lon="13.427168">
<time>2021-08-22T10:08:49Z</time>
</trkpt>
<trkpt lat="50.059421" lon="13.427235">
<time>2021-08-22T10:08:50Z</time>
</trkpt>
<trkpt lat="50.059406" lon="13.427299">
<time>2021-08-22T10:08:51Z</time>
</trkpt>
<trkpt lat="50.059395" lon="13.427359">
<time>2021-08-22T10:08:52Z</time>
</trkpt>
<trkpt lat="50.059387" lon="13.427422">
<time>2021-08-22T10:08:53Z</time>
</trkpt>
<trkpt lat="50.059378" lon="13.427484">
<time>2021-08-22T10:08:54Z</time>
</trkpt>
<trkpt lat="50.059363" lon="13.427543">
<time>2021-08-22T10:08:55Z</time>
</trkpt>
<trkpt lat="50.05935" lon="13.427599">
<time>2021-08-22T10:08:56Z</time>
</trkpt>
<trkpt lat="50.059339" lon="13.427653">
<time>2021-08-22T10:08:57Z</time>
</trkpt>
<trkpt lat="50.059323" lon="13.427712">
<time>2021-08-22T10:08:58Z</time>
</trkpt>
<trkpt lat="50.059307" lon="13.427772">
<time>2021-08-22T10:08:59Z</time>
</trkpt>
<trkpt lat="50.059292" lon="13.427831">
<time>2021-08-22T10:09:00Z</time>
</trkpt>
<trkpt lat="50.059277" lon="13.427893">
<time>2021-08-22T10:09:01Z</time>
</trkpt>
<trkpt lat="50.059263" lon="13.427957">
<time>2021-08-22T10:09:02Z</time>
</trkpt>
<trkpt lat="50.059246" lon="13.428021">
<time>2021-08-22T10:09:03Z</time>
</trkpt>
<trkpt lat="50.059227" lon="13.428083">
<time>2021-08-22T10:09:04Z</time>
</trkpt>
<trkpt lat="50.059214" lon="13.428147">
<time>2021-08-22T10:09:05Z</time>
</trkpt>
<trkpt lat="50.059204" lon="13.428217">
<time>2021-08-22T10:09:06Z</time>
</trkpt>
<trkpt lat="50.059188" lon="13.428286">
<time>2021-08-22T10:09:07Z</time>
</trkpt>
<trkpt lat="50.059173" lon="13.428357">
<time>2021-08-22T10:09:08Z</time>
</trkpt>
<trkpt lat="50.059156" lon="13.428424">
<time>2021-08-22T10:09:09Z</time>
</trkpt>
<trkpt lat="50.05914" lon="13.428493">
<time>2021-08-22T10:09:10Z</time>
</trkpt>
<trkpt lat="50.059121" lon="13.428564">
<time>2021-08-22T10:09:11Z</time>
</trkpt>
<trkpt lat="50.059106" lon="13.428633">
<time>2021-08-22T10:09:12Z</time>
</trkpt>
<trkpt lat="50.059087" lon="13.428696">
<time>2021-08-22T10:09:13Z</time>
</trkpt>
<trkpt lat="50.059065" lon="13.428752">
<time>2021-08-22T10:09:14Z</time>
</trkpt>
<trkpt lat="50.059048" lon="13.428806">
<time>2021-08-22T10:09:15Z</time>
</trkpt>
<trkpt lat="50.059029" lon="13.428858">
<time>2021-08-22T10:09:16Z</time>
</trkpt>
<trkpt lat="50.059014" lon="13.428913">
<time>2021-08-22T10:09:17Z</time>
</trkpt>
<trkpt lat="50.059004" lon="13.428973">
<time>2021-08-22T10:09:18Z</time>
</trkpt>
<trkpt lat="50.058992" lon="13.429037">
<time>2021-08-22T10:09:19Z</time>
</trkpt>
<trkpt lat="50.05898" lon="13.429096">
<time>2021-08-22T10:09:20Z</time>
</trkpt>
<trkpt lat="50.058963" lon="13.429155">
<time>2021-08-22T10:09:21Z</time>
</trkpt>
<trkpt lat="50.058954" lon="13.429213">
<time>2021-08-22T10:09:22Z</time>
</trkpt>
<trkpt lat="50.058943" lon="13.429273">
<time>2021-08-22T10:09:23Z</time>
</trkpt>
<trkpt lat="50.058933" lon="13.42933">
<time>2021-08-22T10:09:24Z</time>
</trkpt>
<trkpt lat="50.058918" lon="13.429385">
<time>2021-08-22T10:09:25Z</time>
</trkpt>
<trkpt lat="50.058903" lon="13.429439">
<time>2021-08-22T10:09:26Z</time>
</trkpt>
<trkpt lat="50.058891" lon="13.429486">
<time>2021-08-22T10:09:27Z</time>
</trkpt>
<trkpt lat="50.058884" lon="13.429527">
<time>2021-08-22T10:09:28Z</time>
</trkpt>
<trkpt lat="50.058881" lon="13.429566">
<time>2021-08-22T10:09:29Z</time>
</trkpt>
<trkpt lat="50.058876" lon="13.429601">
<time>2021-08-22T10:09:30Z</time>
</trkpt>
<trkpt lat="50.058872" lon="13.42964">
<time>2021-08-22T10:09:31Z</time>
</trkpt>
<trkpt lat="50.058867" lon="13.429686">
<time>2021-08-22T10:09:32Z</time>
</trkpt>
<trkpt lat="50.058857" lon="13.429738">
<time>2021-08-22T10:09:33Z</time>
</trkpt>
<trkpt lat="50.058842" lon="13.42979">
<time>2021-08-22T10:09:34Z</time>
</trkpt>
<trkpt lat="50.058827" lon="13.429844">
<time>2021-08-22T10:09:35Z</time>
</trkpt>
<trkpt lat="50.058813" lon="13.429903">
<time>2021-08-22T10:09:36Z</time>
</trkpt>
<trkpt lat="50.058786" lon="13.429973">
<time>2021-08-22T10:09:37Z</time>
</trkpt>
<trkpt lat="50.058757" lon="13.430036">
<time>2021-08-22T10:09:38Z</time>
</trkpt>
<trkpt lat="50.058724" lon="13.430095">
<time>2021-08-22T10:09:39Z</time>
</trkpt>
<trkpt lat="50.058695" lon="13.430157">
<time>2021-08-22T10:09:40Z</time>
</trkpt>
<trkpt lat="50.058662" lon="13.430219">
<time>2021-08-22T10:09:41Z</time>
</trkpt>
<trkpt lat="50.05863" lon="13.430288">
<time>2021-08-22T10:09:42Z</time>
</trkpt>
<trkpt lat="50.058599" lon="13.430357">
<time>2021-08-22T10:09:43Z</time>
</trkpt>
<trkpt lat="50.058572" lon="13.430422">
<time>2021-08-22T10:09:44Z</time>
</trkpt>
<trkpt lat="50.058539" lon="13.430481">
<time>2021-08-22T10:09:45Z</time>
</trkpt>
<trkpt lat="50.058508" lon="13.430538">
<time>2021-08-22T10:09:46Z</time>
</trkpt>
<trkpt lat="50.058469" lon="13.430601">
<time>2021-08-22T10:09:47Z</time>
</trkpt>
<trkpt lat="50.058427" lon="13.430674">
<time>2021-08-22T10:09:48Z</time>
</trkpt>
<trkpt lat="50.058388" lon="13.430747">
<time>2021-08-22T10:09:49Z</time>
</trkpt>
<trkpt lat="50.058353" lon="13.43082">
<time>2021-08-22T10:09:50Z</time>
</trkpt>
<trkpt lat="50.058305" lon="13.430915">
<time>2021-08-22T10:09:51Z</time>
</trkpt>
<trkpt lat="50.058264" lon="13.430996">
<time>2021-08-22T10:09:52Z</time>
</trkpt>
<trkpt lat="50.058229" lon="13.431069">
<time>2021-08-22T10:09:53Z</time>
</trkpt>
<trkpt lat="50.058203" lon="13.431103">
<time>2021-08-22T10:09:54Z</time>
</trkpt>
<trkpt lat="50.058185" lon="13.431122">
<time>2021-08-22T10:09:55Z</time>
</trkpt>
<trkpt lat="50.05818" lon="13.431131">
<time>2021-08-22T10:09:56Z</time>
</trkpt>
<trkpt lat="50.058174" lon="13.431137">
<time>2021-08-22T10:09:57Z</time>
</trkpt>
<trkpt lat="50.058162" lon="13.431149">
<time>2021-08-22T10:09:58Z</time>
</trkpt>
<trkpt lat="50.058131" lon="13.431151">
<time>2021-08-22T10:09:59Z</time>
</trkpt>
<trkpt lat="50.058114" lon="13.431178">
<time>2021-08-22T10:10:00Z</time>
</trkpt>
<trkpt lat="50.058094" lon="13.43121">
<time>2021-08-22T10:10:01Z</time>
</trkpt>
<trkpt lat="50.058064" lon="13.43123">
<time>2021-08-22T10:10:02Z</time>
</trkpt>
<trkpt lat="50.058054" lon="13.431263">
<time>2021-08-22T10:10:03Z</time>
</trkpt>
<trkpt lat="50.05805" lon="13.431287">
<time>2021-08-22T10:10:04Z</time>
</trkpt>
<trkpt lat="50.058048" lon="13.431309">
<time>2021-08-22T10:10:05Z</time>
</trkpt>
<trkpt lat="50.058046" lon="13.431319">
<time>2021-08-22T10:10:06Z</time>
</trkpt>
<trkpt lat="50.058041" lon="13.431332">
<time>2021-08-22T10:10:07Z</time>
</trkpt>
<trkpt lat="50.058037" lon="13.43135">
<time>2021-08-22T10:10:08Z</time>
</trkpt>
<trkpt lat="50.058029" lon="13.431374">
<time>2021-08-22T10:10:09Z</time>
</trkpt>
<trkpt lat="50.058019" lon="13.431399">
<time>2021-08-22T10:10:10Z</time>
</trkpt>
<trkpt lat="50.058007" lon="13.431431">
<time>2021-08-22T10:10:11Z</time>
</trkpt>
<trkpt lat="50.057989" lon="13.431465">
<time>2021-08-22T10:10:12Z</time>
</trkpt>
<trkpt lat="50.057964" lon="13.431508">
<time>2021-08-22T10:10:13Z</time>
</trkpt>
<trkpt lat="50.057939" lon="13.431554">
<time>2021-08-22T10:10:14Z</time>
</trkpt>
<trkpt lat="50.057915" lon="13.431594">
<time>2021-08-22T10:10:15Z</time>
</trkpt>
<trkpt lat="50.05789" lon="13.431628">
<time>2021-08-22T10:10:16Z</time>
</trkpt>
<trkpt lat="50.057865" lon="13.431664">
<time>2021-08-22T10:10:17Z</time>
</trkpt>
<trkpt lat="50.057842" lon="13.431705">
<time>2021-08-22T10:10:18Z</time>
</trkpt>
<trkpt lat="50.057823" lon="13.431747">
<time>2021-08-22T10:10:19Z</time>
</trkpt>
<trkpt lat="50.057802" lon="13.431785">
<time>2021-08-22T10:10:20Z</time>
</trkpt>
<trkpt lat="50.057775" lon="13.431823">
<time>2021-08-22T10:10:21Z</time>
</trkpt>
<trkpt lat="50.057741" lon="13.431862">
<time>2021-08-22T10:10:22Z</time>
</trkpt>
<trkpt lat="50.057708" lon="13.431898">
<time>2021-08-22T10:10:23Z</time>
</trkpt>
<trkpt lat="50.05768" lon="13.431944">
<time>2021-08-22T10:10:24Z</time>
</trkpt>
<trkpt lat="50.057661" lon="13.43199">
<time>2021-08-22T10:10:25Z</time>
</trkpt>
<trkpt lat="50.05765" lon="13.432037">
<time>2021-08-22T10:10:26Z</time>
</trkpt>
<trkpt lat="50.057635" lon="13.432077">
<time>2021-08-22T10:10:27Z</time>
</trkpt>
<trkpt lat="50.057613" lon="13.432114">
<time>2021-08-22T10:10:28Z</time>
</trkpt>
<trkpt lat="50.057586" lon="13.432153">
<time>2021-08-22T10:10:29Z</time>
</trkpt>
<trkpt lat="50.057562" lon="13.432197">
<time>2021-08-22T10:10:30Z</time>
</trkpt>
<trkpt lat="50.057536" lon="13.432238">
<time>2021-08-22T10:10:31Z</time>
</trkpt>
<trkpt lat="50.057504" lon="13.432276">
<time>2021-08-22T10:10:32Z</time>
</trkpt>
<trkpt lat="50.057471" lon="13.432313">
<time>2021-08-22T10:10:33Z</time>
</trkpt>
<trkpt lat="50.057445" lon="13.432346">
<time>2021-08-22T10:10:34Z</time>
</trkpt>
<trkpt lat="50.057425" lon="13.432373">
<time>2021-08-22T10:10:35Z</time>
</trkpt>
<trkpt lat="50.057407" lon="13.43239">
<time>2021-08-22T10:10:36Z</time>
</trkpt>
<trkpt lat="50.057402" lon="13.4324">
<time>2021-08-22T10:10:37Z</time>
</trkpt>
<trkpt lat="50.057404" lon="13.432395">
<time>2021-08-22T10:10:38Z</time>
</trkpt>
<trkpt lat="50.057409" lon="13.432388">
<time>2021-08-22T10:10:39Z</time>
</trkpt>
<trkpt lat="50.057419" lon="13.432384">
<time>2021-08-22T10:10:40Z</time>
</trkpt>
<trkpt lat="50.057423" lon="13.432383">
<time>2021-08-22T10:10:41Z</time>
</trkpt>
<trkpt lat="50.057416" lon="13.432388">
<time>2021-08-22T10:10:42Z</time>
</trkpt>
<trkpt lat="50.057403" lon="13.432399">
<time>2021-08-22T10:10:43Z</time>
</trkpt>
<trkpt lat="50.057382" lon="13.432408">
<time>2021-08-22T10:10:44Z</time>
</trkpt>
<trkpt lat="50.057362" lon="13.432406">
<time>2021-08-22T10:10:45Z</time>
</trkpt>
<trkpt lat="50.057344" lon="13.43238">
<time>2021-08-22T10:10:46Z</time>
</trkpt>
<trkpt lat="50.057327" lon="13.432335">
<time>2021-08-22T10:10:47Z</time>
</trkpt>
<trkpt lat="50.057319" lon="13.432289">
<time>2021-08-22T10:10:48Z</time>
</trkpt>
<trkpt lat="50.057315" lon="13.432232">
<time>2021-08-22T10:10:49Z</time>
</trkpt>
<trkpt lat="50.057313" lon="13.432172">
<time>2021-08-22T10:10:50Z</time>
</trkpt>
<trkpt lat="50.057314" lon="13.432111">
<time>2021-08-22T10:10:51Z</time>
</trkpt>
<trkpt lat="50.057314" lon="13.432043">
<time>2021-08-22T10:10:52Z</time>
</trkpt>
<trkpt lat="50.057308" lon="13.431971">
<time>2021-08-22T10:10:53Z</time>
</trkpt>
<trkpt lat="50.057303" lon="13.431894">
<time>2021-08-22T10:10:54Z</time>
</trkpt>
<trkpt lat="50.057289" lon="13.431805">
<time>2021-08-22T10:10:55Z</time>
</trkpt>
<trkpt lat="50.057279" lon="13.431717">
<time>2021-08-22T10:10:56Z</time>
</trkpt>
<trkpt lat="50.057278" lon="13.431618">
<time>2021-08-22T10:10:57Z</time>
</trkpt>
<trkpt lat="50.057278" lon="13.43152">
<time>2021-08-22T10:10:58Z</time>
</trkpt>
<trkpt lat="50.057278" lon="13.431415">
<time>2021-08-22T10:10:59Z</time>
</trkpt>
<trkpt lat="50.057276" lon="13.431313">
<time>2021-08-22T10:11:00Z</time>
</trkpt>
<trkpt lat="50.057274" lon="13.431217">
<time>2021-08-22T10:11:01Z</time>
</trkpt>
<trkpt lat="50.05727" lon="13.431124">
<time>2021-08-22T10:11:02Z</time>
</trkpt>
<trkpt lat="50.057269" lon="13.431028">
<time>2021-08-22T10:11:03Z</time>
</trkpt>
<trkpt lat="50.057269" lon="13.430928">
<time>2021-08-22T10:11:04Z</time>
</trkpt>
<trkpt lat="50.057265" lon="13.430834">
<time>2021-08-22T10:11:05Z</time>
</trkpt>
<trkpt lat="50.057257" lon="13.430747">
<time>2021-08-22T10:11:06Z</time>
</trkpt>
<trkpt lat="50.057248" lon="13.430668">
<time>2021-08-22T10:11:07Z</time>
</trkpt>
<trkpt lat="50.057237" lon="13.430606">
<time>2021-08-22T10:11:08Z</time>
</trkpt>
<trkpt lat="50.057226" lon="13.430579">
<time>2021-08-22T10:11:09Z</time>
</trkpt>
<trkpt lat="50.057209" lon="13.430568">
<time>2021-08-22T10:11:10Z</time>
</trkpt>
<trkpt lat="50.057203" lon="13.430576">
<time>2021-08-22T10:11:11Z</time>
</trkpt>
<trkpt lat="50.0572" lon="13.43059">
<time>2021-08-22T10:11:12Z</time>
</trkpt>
<trkpt lat="50.057203" lon="13.430611">
<time>2021-08-22T10:11:13Z</time>
</trkpt>
<trkpt lat="50.05721" lon="13.430639">
<time>2021-08-22T10:11:14Z</time>
</trkpt>
<trkpt lat="50.057218" lon="13.430674">
<time>2021-08-22T10:11:15Z</time>
</trkpt>
<trkpt lat="50.057223" lon="13.430717">
<time>2021-08-22T10:11:16Z</time>
</trkpt>
<trkpt lat="50.057225" lon="13.430768">
<time>2021-08-22T10:11:17Z</time>
</trkpt>
<trkpt lat="50.057228" lon="13.430823">
<time>2021-08-22T10:11:18Z</time>
</trkpt>
<trkpt lat="50.057231" lon="13.430883">
<time>2021-08-22T10:11:19Z</time>
</trkpt>
<trkpt lat="50.057233" lon="13.430944">
<time>2021-08-22T10:11:20Z</time>
</trkpt>
<trkpt lat="50.057237" lon="13.431001">
<time>2021-08-22T10:11:21Z</time>
</trkpt>
<trkpt lat="50.057245" lon="13.431059">
<time>2021-08-22T10:11:22Z</time>
</trkpt>
<trkpt lat="50.057248" lon="13.431122">
<time>2021-08-22T10:11:23Z</time>
</trkpt>
<trkpt lat="50.057249" lon="13.431187">
<time>2021-08-22T10:11:24Z</time>
</trkpt>
<trkpt lat="50.05725" lon="13.431251">
<time>2021-08-22T10:11:25Z</time>
</trkpt>
<trkpt lat="50.057253" lon="13.431319">
<time>2021-08-22T10:11:26Z</time>
</trkpt>
<trkpt lat="50.057262" lon="13.431389">
<time>2021-08-22T10:11:27Z</time>
</trkpt>
<trkpt lat="50.057272" lon="13.431459">
<time>2021-08-22T10:11:28Z</time>
</trkpt>
<trkpt lat="50.057279" lon="13.431528">
<time>2021-08-22T10:11:29Z</time>
</trkpt>
<trkpt lat="50.057281" lon="13.431596">
<time>2021-08-22T10:11:30Z</time>
</trkpt>
<trkpt lat="50.057281" lon="13.431664">
<time>2021-08-22T10:11:31Z</time>
</trkpt>
<trkpt lat="50.057281" lon="13.431732">
<time>2021-08-22T10:11:32Z</time>
</trkpt>
<trkpt lat="50.057285" lon="13.4318">
<time>2021-08-22T10:11:33Z</time>
</trkpt>
<trkpt lat="50.057287" lon="13.431874">
<time>2021-08-22T10:11:34Z</time>
</trkpt>
<trkpt lat="50.05729" lon="13.431943">
<time>2021-08-22T10:11:35Z</time>
</trkpt>
<trkpt lat="50.057292" lon="13.43201">
<time>2021-08-22T10:11:36Z</time>
</trkpt>
<trkpt lat="50.057292" lon="13.432078">
<time>2021-08-22T10:11:37Z</time>
</trkpt>
<trkpt lat="50.057297" lon="13.432146">
<time>2021-08-22T10:11:38Z</time>
</trkpt>
<trkpt lat="50.057307" lon="13.432215">
<time>2021-08-22T10:11:39Z</time>
</trkpt>
<trkpt lat="50.057323" lon="13.432277">
<time>2021-08-22T10:11:40Z</time>
</trkpt>
<trkpt lat="50.05734" lon="13.43233">
<time>2021-08-22T10:11:41Z</time>
</trkpt>
<trkpt lat="50.057359" lon="13.432374">
<time>2021-08-22T10:11:42Z</time>
</trkpt>
<trkpt lat="50.057365" lon="13.432419">
<time>2021-08-22T10:11:43Z</time>
</trkpt>
<trkpt lat="50.057353" lon="13.432482">
<time>2021-08-22T10:11:44Z</time>
</trkpt>
<trkpt lat="50.057329" lon="13.432543">
<time>2021-08-22T10:11:45Z</time>
</trkpt>
<trkpt lat="50.0573" lon="13.432601">
<time>2021-08-22T10:11:46Z</time>
</trkpt>
<trkpt lat="50.057269" lon="13.432663">
<time>2021-08-22T10:11:47Z</time>
</trkpt>
<trkpt lat="50.057236" lon="13.432734">
<time>2021-08-22T10:11:48Z</time>
</trkpt>
<trkpt lat="50.057204" lon="13.432803">
<time>2021-08-22T10:11:49Z</time>
</trkpt>
<trkpt lat="50.057166" lon="13.432882">
<time>2021-08-22T10:11:50Z</time>
</trkpt>
<trkpt lat="50.057123" lon="13.432953">
<time>2021-08-22T10:11:51Z</time>
</trkpt>
<trkpt lat="50.057078" lon="13.433017">
<time>2021-08-22T10:11:52Z</time>
</trkpt>
<trkpt lat="50.057027" lon="13.433077">
<time>2021-08-22T10:11:53Z</time>
</trkpt>
<trkpt lat="50.056974" lon="13.433132">
<time>2021-08-22T10:11:54Z</time>
</trkpt>
<trkpt lat="50.056925" lon="13.43319">
<time>2021-08-22T10:11:55Z</time>
</trkpt>
<trkpt lat="50.056879" lon="13.433246">
<time>2021-08-22T10:11:56Z</time>
</trkpt>
<trkpt lat="50.056829" lon="13.433294">
<time>2021-08-22T10:11:57Z</time>
</trkpt>
<trkpt lat="50.056775" lon="13.433337">
<time>2021-08-22T10:11:58Z</time>
</trkpt>
<trkpt lat="50.056723" lon="13.433375">
<time>2021-08-22T10:11:59Z</time>
</trkpt>
<trkpt lat="50.056671" lon="13.433407">
<time>2021-08-22T10:12:00Z</time>
</trkpt>
<trkpt lat="50.056619" lon="13.433441">
<time>2021-08-22T10:12:01Z</time>
</trkpt>
<trkpt lat="50.056567" lon="13.433486">
<time>2021-08-22T10:12:02Z</time>
</trkpt>
<trkpt lat="50.056516" lon="13.433531">
<time>2021-08-22T10:12:03Z</time>
</trkpt>
<trkpt lat="50.056466" lon="13.433574">
<time>2021-08-22T10:12:04Z</time>
</trkpt>
<trkpt lat="50.056415" lon="13.433616">
<time>2021-08-22T10:12:05Z</time>
</trkpt>
<trkpt lat="50.056364" lon="13.43366">
<time>2021-08-22T10:12:06Z</time>
</trkpt>
<trkpt lat="50.056317" lon="13.433703">
<time>2021-08-22T10:12:07Z</time>
</trkpt>
<trkpt lat="50.056267" lon="13.433753">
<time>2021-08-22T10:12:08Z</time>
</trkpt>
<trkpt lat="50.056223" lon="13.433803">
<time>2021-08-22T10:12:09Z</time>
</trkpt>
<trkpt lat="50.056179" lon="13.433861">
<time>2021-08-22T10:12:10Z</time>
</trkpt>
<trkpt lat="50.056135" lon="13.433926">
<time>2021-08-22T10:12:11Z</time>
</trkpt>
<trkpt lat="50.056096" lon="13.434002">
<time>2021-08-22T10:12:12Z</time>
</trkpt>
<trkpt lat="50.056059" lon="13.434079">
<time>2021-08-22T10:12:13Z</time>
</trkpt>
<trkpt lat="50.056021" lon="13.434157">
<time>2021-08-22T10:12:14Z</time>
</trkpt>
<trkpt lat="50.055983" lon="13.43424">
<time>2021-08-22T10:12:15Z</time>
</trkpt>
<trkpt lat="50.055942" lon="13.434324">
<time>2021-08-22T10:12:16Z</time>
</trkpt>
<trkpt lat="50.055901" lon="13.434412">
<time>2021-08-22T10:12:17Z</time>
</trkpt>
<trkpt lat="50.055868" lon="13.434486">
<time>2021-08-22T10:12:18Z</time>
</trkpt>
<trkpt lat="50.055842" lon="13.434527">
<time>2021-08-22T10:12:19Z</time>
</trkpt>
<trkpt lat="50.05582" lon="13.434545">
<time>2021-08-22T10:12:20Z</time>
</trkpt>
<trkpt lat="50.055812" lon="13.434544">
<time>2021-08-22T10:12:21Z</time>
</trkpt>
<trkpt lat="50.055804" lon="13.43453">
<time>2021-08-22T10:12:22Z</time>
</trkpt>
<trkpt lat="50.055789" lon="13.434502">
<time>2021-08-22T10:12:23Z</time>
</trkpt>
<trkpt lat="50.055775" lon="13.434474">
<time>2021-08-22T10:12:24Z</time>
</trkpt>
<trkpt lat="50.055754" lon="13.434441">
<time>2021-08-22T10:12:25Z</time>
</trkpt>
<trkpt lat="50.055732" lon="13.434413">
<time>2021-08-22T10:12:26Z</time>
</trkpt>
<trkpt lat="50.055708" lon="13.434385">
<time>2021-08-22T10:12:27Z</time>
</trkpt>
<trkpt lat="50.055688" lon="13.434353">
<time>2021-08-22T10:12:28Z</time>
</trkpt>
<trkpt lat="50.055666" lon="13.434318">
<time>2021-08-22T10:12:29Z</time>
</trkpt>
<trkpt lat="50.055643" lon="13.434281">
<time>2021-08-22T10:12:30Z</time>
</trkpt>
<trkpt lat="50.055615" lon="13.434251">
<time>2021-08-22T10:12:31Z</time>
</trkpt>
<trkpt lat="50.05558" lon="13.434225">
<time>2021-08-22T10:12:32Z</time>
</trkpt>
<trkpt lat="50.055539" lon="13.434195">
<time>2021-08-22T10:12:33Z</time>
</trkpt>
<trkpt lat="50.055499" lon="13.434173">
<time>2021-08-22T10:12:34Z</time>
</trkpt>
<trkpt lat="50.055457" lon="13.434152">
<time>2021-08-22T10:12:35Z</time>
</trkpt>
<trkpt lat="50.05542" lon="13.434131">
<time>2021-08-22T10:12:36Z</time>
</trkpt>
<trkpt lat="50.055389" lon="13.434104">
<time>2021-08-22T10:12:37Z</time>
</trkpt>
<trkpt lat="50.055353" lon="13.434059">
<time>2021-08-22T10:12:38Z</time>
</trkpt>
<trkpt lat="50.05533" lon="13.433995">
<time>2021-08-22T10:12:39Z</time>
</trkpt>
<trkpt lat="50.055315" lon="13.433936">
<time>2021-08-22T10:12:40Z</time>
</trkpt>
<trkpt lat="50.055294" lon="13.433865">
<time>2021-08-22T10:12:41Z</time>
</trkpt>
<trkpt lat="50.055285" lon="13.433782">
<time>2021-08-22T10:12:42Z</time>
</trkpt>
<trkpt lat="50.055272" lon="13.433698">
<time>2021-08-22T10:12:43Z</time>
</trkpt>
<trkpt lat="50.05527" lon="13.433618">
<time>2021-08-22T10:12:44Z</time>
</trkpt>
<trkpt lat="50.055258" lon="13.433541">
<time>2021-08-22T10:12:45Z</time>
</trkpt>
<trkpt lat="50.055248" lon="13.43346">
<time>2021-08-22T10:12:46Z</time>
</trkpt>
<trkpt lat="50.055224" lon="13.433381">
<time>2021-08-22T10:12:47Z</time>
</trkpt>
<trkpt lat="50.055193" lon="13.433285">
<time>2021-08-22T10:12:48Z</time>
</trkpt>
<trkpt lat="50.055175" lon="13.433195">
<time>2021-08-22T10:12:49Z</time>
</trkpt>
<trkpt lat="50.055172" lon="13.4331">
<time>2021-08-22T10:12:50Z</time>
</trkpt>
<trkpt lat="50.055173" lon="13.433026">
<time>2021-08-22T10:12:51Z</time>
</trkpt>
<trkpt lat="50.055159" lon="13.432956">
<time>2021-08-22T10:12:52Z</time>
</trkpt>
<trkpt lat="50.055141" lon="13.432896">
<time>2021-08-22T10:12:53Z</time>
</trkpt>
<trkpt lat="50.055124" lon="13.432834">
<time>2021-08-22T10:12:54Z</time>
</trkpt>
<trkpt lat="50.055107" lon="13.432763">
<time>2021-08-22T10:12:55Z</time>
</trkpt>
<trkpt lat="50.055086" lon="13.432697">
<time>2021-08-22T10:12:56Z</time>
</trkpt>
<trkpt lat="50.055067" lon="13.432621">
<time>2021-08-22T10:12:57Z</time>
</trkpt>
<trkpt lat="50.055042" lon="13.432561">
<time>2021-08-22T10:12:58Z</time>
</trkpt>
<trkpt lat="50.055005" lon="13.432501">
<time>2021-08-22T10:12:59Z</time>
</trkpt>
<trkpt lat="50.054965" lon="13.432455">
<time>2021-08-22T10:13:00Z</time>
</trkpt>
<trkpt lat="50.05493" lon="13.432425">
<time>2021-08-22T10:13:01Z</time>
</trkpt>
<trkpt lat="50.054884" lon="13.432387">
<time>2021-08-22T10:13:02Z</time>
</trkpt>
<trkpt lat="50.05483" lon="13.432348">
<time>2021-08-22T10:13:03Z</time>
</trkpt>
<trkpt lat="50.054765" lon="13.432312">
<time>2021-08-22T10:13:04Z</time>
</trkpt>
<trkpt lat="50.054704" lon="13.432297">
<time>2021-08-22T10:13:05Z</time>
</trkpt>
<trkpt lat="50.054639" lon="13.432287">
<time>2021-08-22T10:13:06Z</time>
</trkpt>
<trkpt lat="50.054566" lon="13.43227">
<time>2021-08-22T10:13:07Z</time>
</trkpt>
<trkpt lat="50.054504" lon="13.432249">
<time>2021-08-22T10:13:08Z</time>
</trkpt>
<trkpt lat="50.054446" lon="13.432212">
<time>2021-08-22T10:13:09Z</time>
</trkpt>
<trkpt lat="50.054391" lon="13.432169">
<time>2021-08-22T10:13:10Z</time>
</trkpt>
<trkpt lat="50.054338" lon="13.432175">
<time>2021-08-22T10:13:11Z</time>
</trkpt>
<trkpt lat="50.054293" lon="13.432197">
<time>2021-08-22T10:13:12Z</time>
</trkpt>
<trkpt lat="50.054253" lon="13.432215">
<time>2021-08-22T10:13:13Z</time>
</trkpt>
<trkpt lat="50.054206" lon="13.432223">
<time>2021-08-22T10:13:14Z</time>
</trkpt>
<trkpt lat="50.054162" lon="13.432221">
<time>2021-08-22T10:13:15Z</time>
</trkpt>
<trkpt lat="50.054118" lon="13.432213">
<time>2021-08-22T10:13:16Z</time>
</trkpt>
<trkpt lat="50.054068" lon="13.432208">
<time>2021-08-22T10:13:17Z</time>
</trkpt>
<trkpt lat="50.054019" lon="13.43221">
<time>2021-08-22T10:13:18Z</time>
</trkpt>
<trkpt lat="50.053964" lon="13.432218">
<time>2021-08-22T10:13:19Z</time>
</trkpt>
<trkpt lat="50.053905" lon="13.432228">
<time>2021-08-22T10:13:20Z</time>
</trkpt>
<trkpt lat="50.053836" lon="13.432235">
<time>2021-08-22T10:13:21Z</time>
</trkpt>
<trkpt lat="50.053762" lon="13.43225">
<time>2021-08-22T10:13:22Z</time>
</trkpt>
<trkpt lat="50.053686" lon="13.432255">
<time>2021-08-22T10:13:23Z</time>
</trkpt>
<trkpt lat="50.05362" lon="13.43224">
<time>2021-08-22T10:13:24Z</time>
</trkpt>
<trkpt lat="50.053569" lon="13.432237">
<time>2021-08-22T10:13:25Z</time>
</trkpt>
<trkpt lat="50.053535" lon="13.43225">
<time>2021-08-22T10:13:26Z</time>
</trkpt>
<trkpt lat="50.053501" lon="13.432258">
<time>2021-08-22T10:13:27Z</time>
</trkpt>
<trkpt lat="50.053467" lon="13.432284">
<time>2021-08-22T10:13:28Z</time>
</trkpt>
<trkpt lat="50.053425" lon="13.432286">
<time>2021-08-22T10:13:29Z</time>
</trkpt>
<trkpt lat="50.053394" lon="13.432288">
<time>2021-08-22T10:13:30Z</time>
</trkpt>
<trkpt lat="50.053368" lon="13.432278">
<time>2021-08-22T10:13:31Z</time>
</trkpt>
<trkpt lat="50.053348" lon="13.432255">
<time>2021-08-22T10:13:32Z</time>
</trkpt>
<trkpt lat="50.053323" lon="13.432223">
<time>2021-08-22T10:13:33Z</time>
</trkpt>
<trkpt lat="50.053294" lon="13.432197">
<time>2021-08-22T10:13:34Z</time>
</trkpt>
<trkpt lat="50.053254" lon="13.432194">
<time>2021-08-22T10:13:35Z</time>
</trkpt>
<trkpt lat="50.05322" lon="13.432214">
<time>2021-08-22T10:13:36Z</time>
</trkpt>
<trkpt lat="50.053187" lon="13.432229">
<time>2021-08-22T10:13:37Z</time>
</trkpt>
<trkpt lat="50.053164" lon="13.432221">
<time>2021-08-22T10:13:38Z</time>
</trkpt>
<trkpt lat="50.053151" lon="13.432211">
<time>2021-08-22T10:13:39Z</time>
</trkpt>
<trkpt lat="50.053143" lon="13.432204">
<time>2021-08-22T10:13:40Z</time>
</trkpt>
<trkpt lat="50.053137" lon="13.432195">
<time>2021-08-22T10:13:41Z</time>
</trkpt>
<trkpt lat="50.053127" lon="13.43217">
<time>2021-08-22T10:13:42Z</time>
</trkpt>
<trkpt lat="50.053126" lon="13.432139">
<time>2021-08-22T10:13:43Z</time>
</trkpt>
<trkpt lat="50.053123" lon="13.432103">
<time>2021-08-22T10:13:44Z</time>
</trkpt>
<trkpt lat="50.053128" lon="13.43208">
<time>2021-08-22T10:13:45Z</time>
</trkpt>
<trkpt lat="50.053134" lon="13.432056">
<time>2021-08-22T10:13:46Z</time>
</trkpt>
<trkpt lat="50.053133" lon="13.43202">
<time>2021-08-22T10:13:47Z</time>
</trkpt>
<trkpt lat="50.053128" lon="13.431969">
<time>2021-08-22T10:13:48Z</time>
</trkpt>
<trkpt lat="50.053127" lon="13.431918">
<time>2021-08-22T10:13:49Z</time>
</trkpt>
<trkpt lat="50.053125" lon="13.431867">
<time>2021-08-22T10:13:50Z</time>
</trkpt>
<trkpt lat="50.053119" lon="13.431813">
<time>2021-08-22T10:13:51Z</time>
</trkpt>
<trkpt lat="50.05311" lon="13.431758">
<time>2021-08-22T10:13:52Z</time>
</trkpt>
<trkpt lat="50.053099" lon="13.431701">
<time>2021-08-22T10:13:53Z</time>
</trkpt>
<trkpt lat="50.053094" lon="13.43164">
<time>2021-08-22T10:13:54Z</time>
</trkpt>
<trkpt lat="50.05309" lon="13.431571">
<time>2021-08-22T10:13:55Z</time>
</trkpt>
<trkpt lat="50.053087" lon="13.431502">
<time>2021-08-22T10:13:56Z</time>
</trkpt>
<trkpt lat="50.053085" lon="13.431418">
<time>2021-08-22T10:13:57Z</time>
</trkpt>
<trkpt lat="50.05308" lon="13.431322">
<time>2021-08-22T10:13:58Z</time>
</trkpt>
<trkpt lat="50.053083" lon="13.431227">
<time>2021-08-22T10:13:59Z</time>
</trkpt>
<trkpt lat="50.053081" lon="13.431123">
<time>2021-08-22T10:14:00Z</time>
</trkpt>
<trkpt lat="50.053081" lon="13.431024">
<time>2021-08-22T10:14:01Z</time>
</trkpt>
<trkpt lat="50.053082" lon="13.43095">
<time>2021-08-22T10:14:02Z</time>
</trkpt>
<trkpt lat="50.053084" lon="13.430896">
<time>2021-08-22T10:14:03Z</time>
</trkpt>
<trkpt lat="50.053078" lon="13.430859">
<time>2021-08-22T10:14:04Z</time>
</trkpt>
<trkpt lat="50.053059" lon="13.430812">
<time>2021-08-22T10:14:05Z</time>
</trkpt>
<trkpt lat="50.053029" lon="13.430746">
<time>2021-08-22T10:14:06Z</time>
</trkpt>
<trkpt lat="50.053001" lon="13.430682">
<time>2021-08-22T10:14:07Z</time>
</trkpt>
<trkpt lat="50.052977" lon="13.430612">
<time>2021-08-22T10:14:08Z</time>
</trkpt>
<trkpt lat="50.052965" lon="13.430556">
<time>2021-08-22T10:14:09Z</time>
</trkpt>
<trkpt lat="50.052965" lon="13.430521">
<time>2021-08-22T10:14:10Z</time>
</trkpt>
<trkpt lat="50.052958" lon="13.430496">
<time>2021-08-22T10:14:11Z</time>
</trkpt>
<trkpt lat="50.052955" lon="13.430477">
<time>2021-08-22T10:14:12Z</time>
</trkpt>
<trkpt lat="50.052955" lon="13.430465">
<time>2021-08-22T10:14:13Z</time>
</trkpt>
<trkpt lat="50.052975" lon="13.430453">
<time>2021-08-22T10:14:14Z</time>
</trkpt>
<trkpt lat="50.05298" lon="13.430435">
<time>2021-08-22T10:14:15Z</time>
</trkpt>
<trkpt lat="50.052987" lon="13.430426">
<time>2021-08-22T10:14:16Z</time>
</trkpt>
<trkpt lat="50.053001" lon="13.430402">
<time>2021-08-22T10:14:17Z</time>
</trkpt>
<trkpt lat="50.053008" lon="13.43037">
<time>2021-08-22T10:14:18Z</time>
</trkpt>
<trkpt lat="50.053007" lon="13.43034">
<time>2021-08-22T10:14:19Z</time>
</trkpt>
<trkpt lat="50.052997" lon="13.430321">
<time>2021-08-22T10:14:20Z</time>
</trkpt>
<trkpt lat="50.052984" lon="13.430298">
<time>2021-08-22T10:14:21Z</time>
</trkpt>
<trkpt lat="50.052968" lon="13.430262">
<time>2021-08-22T10:14:22Z</time>
</trkpt>
<trkpt lat="50.052946" lon="13.430221">
<time>2021-08-22T10:14:23Z</time>
</trkpt>
<trkpt lat="50.052916" lon="13.430175">
<time>2021-08-22T10:14:24Z</time>
</trkpt>
<trkpt lat="50.052876" lon="13.430126">
<time>2021-08-22T10:14:25Z</time>
</trkpt>
<trkpt lat="50.052831" lon="13.430082">
<time>2021-08-22T10:14:26Z</time>
</trkpt>
<trkpt lat="50.052793" lon="13.430028">
<time>2021-08-22T10:14:27Z</time>
</trkpt>
<trkpt lat="50.052759" lon="13.429954">
<time>2021-08-22T10:14:28Z</time>
</trkpt>
<trkpt lat="50.052738" lon="13.429865">
<time>2021-08-22T10:14:29Z</time>
</trkpt>
<trkpt lat="50.052715" lon="13.429772">
<time>2021-08-22T10:14:30Z</time>
</trkpt>
<trkpt lat="50.05269" lon="13.429684">
<time>2021-08-22T10:14:31Z</time>
</trkpt>
<trkpt lat="50.052647" lon="13.429603">
<time>2021-08-22T10:14:32Z</time>
</trkpt>
<trkpt lat="50.052592" lon="13.429534">
<time>2021-08-22T10:14:33Z</time>
</trkpt>
<trkpt lat="50.052543" lon="13.429475">
<time>2021-08-22T10:14:34Z</time>
</trkpt>
<trkpt lat="50.052485" lon="13.429379">
<time>2021-08-22T10:14:35Z</time>
</trkpt>
<trkpt lat="50.052446" lon="13.429309">
<time>2021-08-22T10:14:36Z</time>
</trkpt>
<trkpt lat="50.052405" lon="13.429236">
<time>2021-08-22T10:14:37Z</time>
</trkpt>
<trkpt lat="50.052363" lon="13.429175">
<time>2021-08-22T10:14:38Z</time>
</trkpt>
<trkpt lat="50.052318" lon="13.429114">
<time>2021-08-22T10:14:39Z</time>
</trkpt>
<trkpt lat="50.05227" lon="13.429057">
<time>2021-08-22T10:14:40Z</time>
</trkpt>
<trkpt lat="50.052225" lon="13.429003">
<time>2021-08-22T10:14:41Z</time>
</trkpt>
<trkpt lat="50.052189" lon="13.428947">
<time>2021-08-22T10:14:42Z</time>
</trkpt>
<trkpt lat="50.052154" lon="13.42888">
<time>2021-08-22T10:14:43Z</time>
</trkpt>
<trkpt lat="50.052118" lon="13.428808">
<time>2021-08-22T10:14:44Z</time>
</trkpt>
<trkpt lat="50.052091" lon="13.428741">
<time>2021-08-22T10:14:45Z</time>
</trkpt>
<trkpt lat="50.052057" lon="13.428681">
<time>2021-08-22T10:14:46Z</time>
</trkpt>
<trkpt lat="50.052018" lon="13.428632">
<time>2021-08-22T10:14:47Z</time>
</trkpt>
<trkpt lat="50.05198" lon="13.428597">
<time>2021-08-22T10:14:48Z</time>
</trkpt>
<trkpt lat="50.051941" lon="13.428569">
<time>2021-08-22T10:14:49Z</time>
</trkpt>
<trkpt lat="50.051903" lon="13.428545">
<time>2021-08-22T10:14:50Z</time>
</trkpt>
<trkpt lat="50.051879" lon="13.428526">
<time>2021-08-22T10:14:51Z</time>
</trkpt>
<trkpt lat="50.05184" lon="13.428447">
<time>2021-08-22T10:14:52Z</time>
</trkpt>
<trkpt lat="50.051831" lon="13.428387">
<time>2021-08-22T10:14:53Z</time>
</trkpt>
<trkpt lat="50.051814" lon="13.42831">
<time>2021-08-22T10:14:54Z</time>
</trkpt>
<trkpt lat="50.051783" lon="13.428204">
<time>2021-08-22T10:14:55Z</time>
</trkpt>
<trkpt lat="50.05176" lon="13.428119">
<time>2021-08-22T10:14:56Z</time>
</trkpt>
<trkpt lat="50.051746" lon="13.428045">
<time>2021-08-22T10:14:57Z</time>
</trkpt>
<trkpt lat="50.051716" lon="13.42798">
<time>2021-08-22T10:14:58Z</time>
</trkpt>
<trkpt lat="50.051682" lon="13.427922">
<time>2021-08-22T10:14:59Z</time>
</trkpt>
<trkpt lat="50.051645" lon="13.427865">
<time>2021-08-22T10:15:00Z</time>
</trkpt>
<trkpt lat="50.051604" lon="13.42781">
<time>2021-08-22T10:15:01Z</time>
</trkpt>
<trkpt lat="50.051556" lon="13.427786">
<time>2021-08-22T10:15:02Z</time>
</trkpt>
<trkpt lat="50.051486" lon="13.427771">
<time>2021-08-22T10:15:03Z</time>
</trkpt>
<trkpt lat="50.051424" lon="13.427784">
<time>2021-08-22T10:15:04Z</time>
</trkpt>
<trkpt lat="50.051356" lon="13.427815">
<time>2021-08-22T10:15:05Z</time>
</trkpt>
<trkpt lat="50.051285" lon="13.427858">
<time>2021-08-22T10:15:06Z</time>
</trkpt>
<trkpt lat="50.051209" lon="13.427891">
<time>2021-08-22T10:15:07Z</time>
</trkpt>
<trkpt lat="50.051137" lon="13.427905">
<time>2021-08-22T10:15:08Z</time>
</trkpt>
<trkpt lat="50.051067" lon="13.427899">
<time>2021-08-22T10:15:09Z</time>
</trkpt>
<trkpt lat="50.051006" lon="13.427882">
<time>2021-08-22T10:15:10Z</time>
</trkpt>
<trkpt lat="50.050942" lon="13.427854">
<time>2021-08-22T10:15:11Z</time>
</trkpt>
<trkpt lat="50.050874" lon="13.427823">
<time>2021-08-22T10:15:12Z</time>
</trkpt>
<trkpt lat="50.050812" lon="13.427777">
<time>2021-08-22T10:15:13Z</time>
</trkpt>
<trkpt lat="50.050758" lon="13.427709">
<time>2021-08-22T10:15:14Z</time>
</trkpt>
<trkpt lat="50.050727" lon="13.427631">
<time>2021-08-22T10:15:15Z</time>
</trkpt>
<trkpt lat="50.050671" lon="13.427532">
<time>2021-08-22T10:15:16Z</time>
</trkpt>
<trkpt lat="50.050648" lon="13.427451">
<time>2021-08-22T10:15:17Z</time>
</trkpt>
<trkpt lat="50.050613" lon="13.427334">
<time>2021-08-22T10:15:18Z</time>
</trkpt>
<trkpt lat="50.050578" lon="13.427247">
<time>2021-08-22T10:15:19Z</time>
</trkpt>
<trkpt lat="50.050544" lon="13.427157">
<time>2021-08-22T10:15:20Z</time>
</trkpt>
<trkpt lat="50.050503" lon="13.42704">
<time>2021-08-22T10:15:21Z</time>
</trkpt>
<trkpt lat="50.050462" lon="13.426921">
<time>2021-08-22T10:15:22Z</time>
</trkpt>
<trkpt lat="50.050426" lon="13.426821">
<time>2021-08-22T10:15:23Z</time>
</trkpt>
<trkpt lat="50.050395" lon="13.426725">
<time>2021-08-22T10:15:24Z</time>
</trkpt>
<trkpt lat="50.050359" lon="13.426632">
<time>2021-08-22T10:15:25Z</time>
</trkpt>
<trkpt lat="50.050328" lon="13.426537">
<time>2021-08-22T10:15:26Z</time>
</trkpt>
<trkpt lat="50.050292" lon="13.426462">
<time>2021-08-22T10:15:27Z</time>
</trkpt>
<trkpt lat="50.050261" lon="13.426411">
<time>2021-08-22T10:15:28Z</time>
</trkpt>
<trkpt lat="50.050215" lon="13.426355">
<time>2021-08-22T10:15:29Z</time>
</trkpt>
<trkpt lat="50.050189" lon="13.426334">
<time>2021-08-22T10:15:30Z</time>
</trkpt>
<trkpt lat="50.050184" lon="13.426324">
<time>2021-08-22T10:15:31Z</time>
</trkpt>
<trkpt lat="50.050185" lon="13.426317">
<time>2021-08-22T10:15:32Z</time>
</trkpt>
<trkpt lat="50.050174" lon="13.426297">
<time>2021-08-22T10:15:33Z</time>
</trkpt>
<trkpt lat="50.050178" lon="13.426288">
<time>2021-08-22T10:15:34Z</time>
</trkpt>
<trkpt lat="50.050184" lon="13.426281">
<time>2021-08-22T10:15:35Z</time>
</trkpt>
<trkpt lat="50.050197" lon="13.426273">
<time>2021-08-22T10:15:36Z</time>
</trkpt>
<trkpt lat="50.050211" lon="13.426263">
<time>2021-08-22T10:15:37Z</time>
</trkpt>
<trkpt lat="50.050216" lon="13.426261">
<time>2021-08-22T10:15:38Z</time>
</trkpt>
<trkpt lat="50.050225" lon="13.426263">
<time>2021-08-22T10:15:39Z</time>
</trkpt>
<trkpt lat="50.050234" lon="13.426265">
<time>2021-08-22T10:15:40Z</time>
</trkpt>
<trkpt lat="50.050249" lon="13.426265">
<time>2021-08-22T10:15:41Z</time>
</trkpt>
<trkpt lat="50.050256" lon="13.426263">
<time>2021-08-22T10:15:42Z</time>
</trkpt>
<trkpt lat="50.050265" lon="13.42626">
<time>2021-08-22T10:15:43Z</time>
</trkpt>
<trkpt lat="50.050275" lon="13.426256">
<time>2021-08-22T10:15:44Z</time>
</trkpt>
<trkpt lat="50.05028" lon="13.426256">
<time>2021-08-22T10:15:45Z</time>
</trkpt>
<trkpt lat="50.050287" lon="13.426255">
<time>2021-08-22T10:15:46Z</time>
</trkpt>
<trkpt lat="50.050286" lon="13.426256">
<time>2021-08-22T10:15:47Z</time>
</trkpt>
<trkpt lat="50.050288" lon="13.426254">
<time>2021-08-22T10:15:48Z</time>
</trkpt>
<trkpt lat="50.05031" lon="13.426252">
<time>2021-08-22T10:15:49Z</time>
</trkpt>
<trkpt lat="50.050319" lon="13.426252">
<time>2021-08-22T10:15:50Z</time>
</trkpt>
<trkpt lat="50.050332" lon="13.426248">
<time>2021-08-22T10:15:51Z</time>
</trkpt>
<trkpt lat="50.050337" lon="13.426245">
<time>2021-08-22T10:15:52Z</time>
</trkpt>
<trkpt lat="50.050342" lon="13.426242">
<time>2021-08-22T10:15:53Z</time>
</trkpt>
<trkpt lat="50.050346" lon="13.426238">
<time>2021-08-22T10:15:54Z</time>
</trkpt>
<trkpt lat="50.050347" lon="13.426239">
<time>2021-08-22T10:15:55Z</time>
</trkpt>
<trkpt lat="50.050349" lon="13.426241">
<time>2021-08-22T10:15:56Z</time>
</trkpt>
<trkpt lat="50.050353" lon="13.426239">
<time>2021-08-22T10:15:57Z</time>
</trkpt>
<trkpt lat="50.050359" lon="13.426234">
<time>2021-08-22T10:15:58Z</time>
</trkpt>
<trkpt lat="50.050358" lon="13.426225">
<time>2021-08-22T10:15:59Z</time>
</trkpt>
<trkpt lat="50.050355" lon="13.426208">
<time>2021-08-22T10:16:00Z</time>
</trkpt>
<trkpt lat="50.050348" lon="13.42618">
<time>2021-08-22T10:16:01Z</time>
</trkpt>
<trkpt lat="50.05034" lon="13.426138">
<time>2021-08-22T10:16:02Z</time>
</trkpt>
<trkpt lat="50.050329" lon="13.426082">
<time>2021-08-22T10:16:03Z</time>
</trkpt>
<trkpt lat="50.050317" lon="13.42602">
<time>2021-08-22T10:16:04Z</time>
</trkpt>
<trkpt lat="50.050303" lon="13.425955">
<time>2021-08-22T10:16:05Z</time>
</trkpt>
<trkpt lat="50.050283" lon="13.425889">
<time>2021-08-22T10:16:06Z</time>
</trkpt>
<trkpt lat="50.050257" lon="13.425819">
<time>2021-08-22T10:16:07Z</time>
</trkpt>
<trkpt lat="50.050231" lon="13.425748">
<time>2021-08-22T10:16:08Z</time>
</trkpt>
<trkpt lat="50.050209" lon="13.425685">
<time>2021-08-22T10:16:09Z</time>
</trkpt>
<trkpt lat="50.050189" lon="13.425634">
<time>2021-08-22T10:16:10Z</time>
</trkpt>
<trkpt lat="50.050173" lon="13.425594">
<time>2021-08-22T10:16:11Z</time>
</trkpt>
<trkpt lat="50.050152" lon="13.42555">
<time>2021-08-22T10:16:12Z</time>
</trkpt>
<trkpt lat="50.050134" lon="13.425528">
<time>2021-08-22T10:16:13Z</time>
</trkpt>
<trkpt lat="50.05012" lon="13.425511">
<time>2021-08-22T10:16:14Z</time>
</trkpt>
<trkpt lat="50.050115" lon="13.425506">
<time>2021-08-22T10:16:15Z</time>
</trkpt>
<trkpt lat="50.050115" lon="13.425503">
<time>2021-08-22T10:16:16Z</time>
</trkpt>
<trkpt lat="50.050103" lon="13.425488">
<time>2021-08-22T10:16:17Z</time>
</trkpt>
<trkpt lat="50.050097" lon="13.425467">
<time>2021-08-22T10:16:18Z</time>
</trkpt>
<trkpt lat="50.050103" lon="13.425454">
<time>2021-08-22T10:16:19Z</time>
</trkpt>
<trkpt lat="50.050106" lon="13.425431">
<time>2021-08-22T10:16:20Z</time>
</trkpt>
<trkpt lat="50.050106" lon="13.425407">
<time>2021-08-22T10:16:21Z</time>
</trkpt>
<trkpt lat="50.050104" lon="13.425375">
<time>2021-08-22T10:16:22Z</time>
</trkpt>
<trkpt lat="50.050106" lon="13.425342">
<time>2021-08-22T10:16:23Z</time>
</trkpt>
<trkpt lat="50.050113" lon="13.425301">
<time>2021-08-22T10:16:24Z</time>
</trkpt>
<trkpt lat="50.050119" lon="13.425262">
<time>2021-08-22T10:16:25Z</time>
</trkpt>
<trkpt lat="50.050132" lon="13.425242">
<time>2021-08-22T10:16:26Z</time>
</trkpt>
<trkpt lat="50.050158" lon="13.425238">
<time>2021-08-22T10:16:27Z</time>
</trkpt>
<trkpt lat="50.050188" lon="13.425253">
<time>2021-08-22T10:16:28Z</time>
</trkpt>
<trkpt lat="50.050212" lon="13.425273">
<time>2021-08-22T10:16:29Z</time>
</trkpt>
<trkpt lat="50.050237" lon="13.425299">
<time>2021-08-22T10:16:30Z</time>
</trkpt>
<trkpt lat="50.050261" lon="13.425332">
<time>2021-08-22T10:16:31Z</time>
</trkpt>
<trkpt lat="50.05029" lon="13.42536">
<time>2021-08-22T10:16:32Z</time>
</trkpt>
<trkpt lat="50.050321" lon="13.425384">
<time>2021-08-22T10:16:33Z</time>
</trkpt>
<trkpt lat="50.050357" lon="13.425401">
<time>2021-08-22T10:16:34Z</time>
</trkpt>
<trkpt lat="50.050392" lon="13.425415">
<time>2021-08-22T10:16:35Z</time>
</trkpt>
<trkpt lat="50.05043" lon="13.425425">
<time>2021-08-22T10:16:36Z</time>
</trkpt>
<trkpt lat="50.050474" lon="13.425433">
<time>2021-08-22T10:16:37Z</time>
</trkpt>
<trkpt lat="50.050515" lon="13.425444">
<time>2021-08-22T10:16:38Z</time>
</trkpt>
<trkpt lat="50.050556" lon="13.42546">
<time>2021-08-22T10:16:39Z</time>
</trkpt>
<trkpt lat="50.0506" lon="13.42548">
<time>2021-08-22T10:16:40Z</time>
</trkpt>
<trkpt lat="50.050644" lon="13.425505">
<time>2021-08-22T10:16:41Z</time>
</trkpt>
<trkpt lat="50.050687" lon="13.425523">
<time>2021-08-22T10:16:42Z</time>
</trkpt>
<trkpt lat="50.05073" lon="13.42554">
<time>2021-08-22T10:16:43Z</time>
</trkpt>
<trkpt lat="50.050775" lon="13.425562">
<time>2021-08-22T10:16:44Z</time>
</trkpt>
<trkpt lat="50.050819" lon="13.425582">
<time>2021-08-22T10:16:45Z</time>
</trkpt>
<trkpt lat="50.050864" lon="13.425609">
<time>2021-08-22T10:16:46Z</time>
</trkpt>
<trkpt lat="50.050907" lon="13.42564">
<time>2021-08-22T10:16:47Z</time>
</trkpt>
<trkpt lat="50.050948" lon="13.425661">
<time>2021-08-22T10:16:48Z</time>
</trkpt>
<trkpt lat="50.050988" lon="13.425678">
<time>2021-08-22T10:16:49Z</time>
</trkpt>
<trkpt lat="50.051026" lon="13.425693">
<time>2021-08-22T10:16:50Z</time>
</trkpt>
<trkpt lat="50.05106" lon="13.425706">
<time>2021-08-22T10:16:51Z</time>
</trkpt>
<trkpt lat="50.051092" lon="13.425714">
<time>2021-08-22T10:16:52Z</time>
</trkpt>
<trkpt lat="50.051133" lon="13.425717">
<time>2021-08-22T10:16:53Z</time>
</trkpt>
<trkpt lat="50.051173" lon="13.425724">
<time>2021-08-22T10:16:54Z</time>
</trkpt>
<trkpt lat="50.051216" lon="13.425729">
<time>2021-08-22T10:16:55Z</time>
</trkpt>
<trkpt lat="50.051259" lon="13.425741">
<time>2021-08-22T10:16:56Z</time>
</trkpt>
<trkpt lat="50.051305" lon="13.425738">
<time>2021-08-22T10:16:57Z</time>
</trkpt>
<trkpt lat="50.051345" lon="13.425731">
<time>2021-08-22T10:16:58Z</time>
</trkpt>
<trkpt lat="50.051375" lon="13.425726">
<time>2021-08-22T10:16:59Z</time>
</trkpt>
<trkpt lat="50.051404" lon="13.425721">
<time>2021-08-22T10:17:00Z</time>
</trkpt>
<trkpt lat="50.05144" lon="13.425708">
<time>2021-08-22T10:17:01Z</time>
</trkpt>
<trkpt lat="50.051481" lon="13.425699">
<time>2021-08-22T10:17:02Z</time>
</trkpt>
<trkpt lat="50.051516" lon="13.42568">
<time>2021-08-22T10:17:03Z</time>
</trkpt>
<trkpt lat="50.05155" lon="13.425663">
<time>2021-08-22T10:17:04Z</time>
</trkpt>
<trkpt lat="50.05159" lon="13.425648">
<time>2021-08-22T10:17:05Z</time>
</trkpt>
<trkpt lat="50.051629" lon="13.425634">
<time>2021-08-22T10:17:06Z</time>
</trkpt>
<trkpt lat="50.051682" lon="13.425633">
<time>2021-08-22T10:17:07Z</time>
</trkpt>
<trkpt lat="50.051729" lon="13.425636">
<time>2021-08-22T10:17:08Z</time>
</trkpt>
<trkpt lat="50.051775" lon="13.425632">
<time>2021-08-22T10:17:09Z</time>
</trkpt>
<trkpt lat="50.051817" lon="13.425639">
<time>2021-08-22T10:17:10Z</time>
</trkpt>
<trkpt lat="50.051865" lon="13.42564">
<time>2021-08-22T10:17:11Z</time>
</trkpt>
<trkpt lat="50.051915" lon="13.425639">
<time>2021-08-22T10:17:12Z</time>
</trkpt>
<trkpt lat="50.051963" lon="13.425649">
<time>2021-08-22T10:17:13Z</time>
</trkpt>
<trkpt lat="50.052012" lon="13.425658">
<time>2021-08-22T10:17:14Z</time>
</trkpt>
<trkpt lat="50.052061" lon="13.425676">
<time>2021-08-22T10:17:15Z</time>
</trkpt>
<trkpt lat="50.052101" lon="13.425692">
<time>2021-08-22T10:17:16Z</time>
</trkpt>
<trkpt lat="50.052141" lon="13.425717">
<time>2021-08-22T10:17:17Z</time>
</trkpt>
<trkpt lat="50.052179" lon="13.425748">
<time>2021-08-22T10:17:18Z</time>
</trkpt>
<trkpt lat="50.052219" lon="13.425774">
<time>2021-08-22T10:17:19Z</time>
</trkpt>
<trkpt lat="50.052255" lon="13.425799">
<time>2021-08-22T10:17:20Z</time>
</trkpt>
<trkpt lat="50.052293" lon="13.425824">
<time>2021-08-22T10:17:21Z</time>
</trkpt>
<trkpt lat="50.052327" lon="13.425838">
<time>2021-08-22T10:17:22Z</time>
</trkpt>
<trkpt lat="50.052362" lon="13.425857">
<time>2021-08-22T10:17:23Z</time>
</trkpt>
<trkpt lat="50.052398" lon="13.425882">
<time>2021-08-22T10:17:24Z</time>
</trkpt>
<trkpt lat="50.052434" lon="13.425897">
<time>2021-08-22T10:17:25Z</time>
</trkpt>
<trkpt lat="50.052469" lon="13.425912">
<time>2021-08-22T10:17:26Z</time>
</trkpt>
<trkpt lat="50.0525" lon="13.425934">
<time>2021-08-22T10:17:27Z</time>
</trkpt>
<trkpt lat="50.052533" lon="13.425959">
<time>2021-08-22T10:17:28Z</time>
</trkpt>
<trkpt lat="50.052569" lon="13.425987">
<time>2021-08-22T10:17:29Z</time>
</trkpt>
<trkpt lat="50.0526" lon="13.426008">
<time>2021-08-22T10:17:30Z</time>
</trkpt>
<trkpt lat="50.05263" lon="13.426034">
<time>2021-08-22T10:17:31Z</time>
</trkpt>
<trkpt lat="50.052658" lon="13.426061">
<time>2021-08-22T10:17:32Z</time>
</trkpt>
<trkpt lat="50.052684" lon="13.426085">
<time>2021-08-22T10:17:33Z</time>
</trkpt>
<trkpt lat="50.052709" lon="13.426102">
<time>2021-08-22T10:17:34Z</time>
</trkpt>
<trkpt lat="50.052741" lon="13.426093">
<time>2021-08-22T10:17:35Z</time>
</trkpt>
<trkpt lat="50.052764" lon="13.426066">
<time>2021-08-22T10:17:36Z</time>
</trkpt>
<trkpt lat="50.052769" lon="13.426045">
<time>2021-08-22T10:17:37Z</time>
</trkpt>
<trkpt lat="50.052771" lon="13.426011">
<time>2021-08-22T10:17:38Z</time>
</trkpt>
<trkpt lat="50.052765" lon="13.425976">
<time>2021-08-22T10:17:39Z</time>
</trkpt>
<trkpt lat="50.052754" lon="13.425935">
<time>2021-08-22T10:17:40Z</time>
</trkpt>
<trkpt lat="50.052747" lon="13.4259">
<time>2021-08-22T10:17:41Z</time>
</trkpt>
<trkpt lat="50.052735" lon="13.425852">
<time>2021-08-22T10:17:42Z</time>
</trkpt>
<trkpt lat="50.052739" lon="13.425791">
<time>2021-08-22T10:17:43Z</time>
</trkpt>
<trkpt lat="50.052732" lon="13.425725">
<time>2021-08-22T10:17:44Z</time>
</trkpt>
<trkpt lat="50.052712" lon="13.425637">
<time>2021-08-22T10:17:45Z</time>
</trkpt>
<trkpt lat="50.0527" lon="13.425554">
<time>2021-08-22T10:17:46Z</time>
</trkpt>
<trkpt lat="50.052692" lon="13.42545">
<time>2021-08-22T10:17:47Z</time>
</trkpt>
<trkpt lat="50.052681" lon="13.425343">
<time>2021-08-22T10:17:48Z</time>
</trkpt>
<trkpt lat="50.052676" lon="13.425238">
<time>2021-08-22T10:17:49Z</time>
</trkpt>
<trkpt lat="50.052665" lon="13.425133">
<time>2021-08-22T10:17:50Z</time>
</trkpt>
<trkpt lat="50.052653" lon="13.42503">
<time>2021-08-22T10:17:51Z</time>
</trkpt>
<trkpt lat="50.052636" lon="13.424925">
<time>2021-08-22T10:17:52Z</time>
</trkpt>
<trkpt lat="50.05262" lon="13.424814">
<time>2021-08-22T10:17:53Z</time>
</trkpt>
<trkpt lat="50.052616" lon="13.424696">
<time>2021-08-22T10:17:54Z</time>
</trkpt>
<trkpt lat="50.052606" lon="13.424578">
<time>2021-08-22T10:17:55Z</time>
</trkpt>
<trkpt lat="50.052592" lon="13.424459">
<time>2021-08-22T10:17:56Z</time>
</trkpt>
<trkpt lat="50.052589" lon="13.424334">
<time>2021-08-22T10:17:57Z</time>
</trkpt>
<trkpt lat="50.052581" lon="13.42421">
<time>2021-08-22T10:17:58Z</time>
</trkpt>
<trkpt lat="50.052579" lon="13.42408">
<time>2021-08-22T10:17:59Z</time>
</trkpt>
<trkpt lat="50.052571" lon="13.423958">
<time>2021-08-22T10:18:00Z</time>
</trkpt>
<trkpt lat="50.052549" lon="13.423834">
<time>2021-08-22T10:18:01Z</time>
</trkpt>
<trkpt lat="50.052537" lon="13.423706">
<time>2021-08-22T10:18:02Z</time>
</trkpt>
<trkpt lat="50.052529" lon="13.423575">
<time>2021-08-22T10:18:03Z</time>
</trkpt>
<trkpt lat="50.052505" lon="13.42344">
<time>2021-08-22T10:18:04Z</time>
</trkpt>
<trkpt lat="50.052486" lon="13.423318">
<time>2021-08-22T10:18:05Z</time>
</trkpt>
<trkpt lat="50.052459" lon="13.423194">
<time>2021-08-22T10:18:06Z</time>
</trkpt>
<trkpt lat="50.052435" lon="13.423075">
<time>2021-08-22T10:18:07Z</time>
</trkpt>
<trkpt lat="50.05241" lon="13.422956">
<time>2021-08-22T10:18:08Z</time>
</trkpt>
<trkpt lat="50.052382" lon="13.422838">
<time>2021-08-22T10:18:09Z</time>
</trkpt>
<trkpt lat="50.052353" lon="13.422725">
<time>2021-08-22T10:18:10Z</time>
</trkpt>
<trkpt lat="50.052314" lon="13.422634">
<time>2021-08-22T10:18:11Z</time>
</trkpt>
<trkpt lat="50.052267" lon="13.422554">
<time>2021-08-22T10:18:12Z</time>
</trkpt>
<trkpt lat="50.052215" lon="13.422477">
<time>2021-08-22T10:18:13Z</time>
</trkpt>
<trkpt lat="50.052162" lon="13.422395">
<time>2021-08-22T10:18:14Z</time>
</trkpt>
<trkpt lat="50.052107" lon="13.422308">
<time>2021-08-22T10:18:15Z</time>
</trkpt>
<trkpt lat="50.052039" lon="13.422238">
<time>2021-08-22T10:18:16Z</time>
</trkpt>
<trkpt lat="50.051966" lon="13.422186">
<time>2021-08-22T10:18:17Z</time>
</trkpt>
<trkpt lat="50.051888" lon="13.422131">
<time>2021-08-22T10:18:18Z</time>
</trkpt>
<trkpt lat="50.051815" lon="13.422057">
<time>2021-08-22T10:18:19Z</time>
</trkpt>
<trkpt lat="50.051754" lon="13.421956">
<time>2021-08-22T10:18:20Z</time>
</trkpt>
<trkpt lat="50.051702" lon="13.421836">
<time>2021-08-22T10:18:21Z</time>
</trkpt>
<trkpt lat="50.051643" lon="13.421682">
<time>2021-08-22T10:18:22Z</time>
</trkpt>
<trkpt lat="50.051601" lon="13.421581">
<time>2021-08-22T10:18:23Z</time>
</trkpt>
<trkpt lat="50.051565" lon="13.421497">
<time>2021-08-22T10:18:24Z</time>
</trkpt>
<trkpt lat="50.051532" lon="13.421388">
<time>2021-08-22T10:18:25Z</time>
</trkpt>
<trkpt lat="50.051512" lon="13.421266">
<time>2021-08-22T10:18:26Z</time>
</trkpt>
<trkpt lat="50.051501" lon="13.42115">
<time>2021-08-22T10:18:27Z</time>
</trkpt>
<trkpt lat="50.051492" lon="13.421027">
<time>2021-08-22T10:18:28Z</time>
</trkpt>
<trkpt lat="50.051482" lon="13.420906">
<time>2021-08-22T10:18:29Z</time>
</trkpt>
<trkpt lat="50.05147" lon="13.420779">
<time>2021-08-22T10:18:30Z</time>
</trkpt>
<trkpt lat="50.051463" lon="13.42066">
<time>2021-08-22T10:18:31Z</time>
</trkpt>
<trkpt lat="50.051458" lon="13.420529">
<time>2021-08-22T10:18:32Z</time>
</trkpt>
<trkpt lat="50.051457" lon="13.420388">
<time>2021-08-22T10:18:33Z</time>
</trkpt>
<trkpt lat="50.051457" lon="13.420257">
<time>2021-08-22T10:18:34Z</time>
</trkpt>
<trkpt lat="50.051465" lon="13.42014">
<time>2021-08-22T10:18:35Z</time>
</trkpt>
<trkpt lat="50.051469" lon="13.420044">
<time>2021-08-22T10:18:36Z</time>
</trkpt>
<trkpt lat="50.05147" lon="13.41998">
<time>2021-08-22T10:18:37Z</time>
</trkpt>
<trkpt lat="50.05147" lon="13.419949">
<time>2021-08-22T10:18:38Z</time>
</trkpt>
<trkpt lat="50.051485" lon="13.419938">
<time>2021-08-22T10:18:39Z</time>
</trkpt>
<trkpt lat="50.051503" lon="13.419944">
<time>2021-08-22T10:18:40Z</time>
</trkpt>
<trkpt lat="50.051525" lon="13.419954">
<time>2021-08-22T10:18:41Z</time>
</trkpt>
<trkpt lat="50.051553" lon="13.419959">
<time>2021-08-22T10:18:42Z</time>
</trkpt>
<trkpt lat="50.051589" lon="13.419963">
<time>2021-08-22T10:18:43Z</time>
</trkpt>
<trkpt lat="50.051632" lon="13.419964">
<time>2021-08-22T10:18:44Z</time>
</trkpt>
<trkpt lat="50.051683" lon="13.419965">
<time>2021-08-22T10:18:45Z</time>
</trkpt>
<trkpt lat="50.051737" lon="13.419976">
<time>2021-08-22T10:18:46Z</time>
</trkpt>
<trkpt lat="50.051792" lon="13.420002">
<time>2021-08-22T10:18:47Z</time>
</trkpt>
<trkpt lat="50.051848" lon="13.42004">
<time>2021-08-22T10:18:48Z</time>
</trkpt>
<trkpt lat="50.051894" lon="13.420067">
<time>2021-08-22T10:18:49Z</time>
</trkpt>
<trkpt lat="50.051937" lon="13.420088">
<time>2021-08-22T10:18:50Z</time>
</trkpt>
<trkpt lat="50.051973" lon="13.420104">
<time>2021-08-22T10:18:51Z</time>
</trkpt>
<trkpt lat="50.052" lon="13.420121">
<time>2021-08-22T10:18:52Z</time>
</trkpt>
<trkpt lat="50.052018" lon="13.420129">
<time>2021-08-22T10:18:53Z</time>
</trkpt>
<trkpt lat="50.052031" lon="13.420134">
<time>2021-08-22T10:18:54Z</time>
</trkpt>
<trkpt lat="50.052042" lon="13.42013">
<time>2021-08-22T10:18:55Z</time>
</trkpt>
<trkpt lat="50.05204" lon="13.420119">
<time>2021-08-22T10:18:56Z</time>
</trkpt>
<trkpt lat="50.052042" lon="13.420115">
<time>2021-08-22T10:18:57Z</time>
</trkpt>
<trkpt lat="50.052047" lon="13.420114">
<time>2021-08-22T10:18:58Z</time>
</trkpt>
<trkpt lat="50.052051" lon="13.420111">
<time>2021-08-22T10:18:59Z</time>
</trkpt>
<trkpt lat="50.052056" lon="13.420107">
<time>2021-08-22T10:19:00Z</time>
</trkpt>
<trkpt lat="50.052066" lon="13.42011">
<time>2021-08-22T10:19:01Z</time>
</trkpt>
<trkpt lat="50.052076" lon="13.420118">
<time>2021-08-22T10:19:02Z</time>
</trkpt>
<trkpt lat="50.052091" lon="13.420132">
<time>2021-08-22T10:19:03Z</time>
</trkpt>
<trkpt lat="50.052112" lon="13.420146">
<time>2021-08-22T10:19:04Z</time>
</trkpt>
<trkpt lat="50.052134" lon="13.420165">
<time>2021-08-22T10:19:05Z</time>
</trkpt>
<trkpt lat="50.052162" lon="13.420174">
<time>2021-08-22T10:19:06Z</time>
</trkpt>
<trkpt lat="50.052175" lon="13.420175">
<time>2021-08-22T10:19:07Z</time>
</trkpt>
<trkpt lat="50.052185" lon="13.420161">
<time>2021-08-22T10:19:08Z</time>
</trkpt>
<trkpt lat="50.052191" lon="13.420128">
<time>2021-08-22T10:19:09Z</time>
</trkpt>
<trkpt lat="50.052192" lon="13.420088">
<time>2021-08-22T10:19:10Z</time>
</trkpt>
<trkpt lat="50.052193" lon="13.420043">
<time>2021-08-22T10:19:11Z</time>
</trkpt>
<trkpt lat="50.052193" lon="13.419994">
<time>2021-08-22T10:19:12Z</time>
</trkpt>
<trkpt lat="50.05219" lon="13.41995">
<time>2021-08-22T10:19:13Z</time>
</trkpt>
<trkpt lat="50.052189" lon="13.419896">
<time>2021-08-22T10:19:14Z</time>
</trkpt>
<trkpt lat="50.052186" lon="13.419843">
<time>2021-08-22T10:19:15Z</time>
</trkpt>
<trkpt lat="50.052186" lon="13.419787">
<time>2021-08-22T10:19:16Z</time>
</trkpt>
<trkpt lat="50.052183" lon="13.419726">
<time>2021-08-22T10:19:17Z</time>
</trkpt>
<trkpt lat="50.052179" lon="13.419657">
<time>2021-08-22T10:19:18Z</time>
</trkpt>
<trkpt lat="50.052164" lon="13.419581">
<time>2021-08-22T10:19:19Z</time>
</trkpt>
<trkpt lat="50.05216" lon="13.419517">
<time>2021-08-22T10:19:20Z</time>
</trkpt>
<trkpt lat="50.05216" lon="13.419447">
<time>2021-08-22T10:19:21Z</time>
</trkpt>
<trkpt lat="50.052164" lon="13.419367">
<time>2021-08-22T10:19:22Z</time>
</trkpt>
<trkpt lat="50.052168" lon="13.419285">
<time>2021-08-22T10:19:23Z</time>
</trkpt>
<trkpt lat="50.052174" lon="13.419208">
<time>2021-08-22T10:19:24Z</time>
</trkpt>
<trkpt lat="50.052177" lon="13.419131">
<time>2021-08-22T10:19:25Z</time>
</trkpt>
<trkpt lat="50.052177" lon="13.419055">
<time>2021-08-22T10:19:26Z</time>
</trkpt>
<trkpt lat="50.052175" lon="13.418971">
<time>2021-08-22T10:19:27Z</time>
</trkpt>
<trkpt lat="50.052172" lon="13.418897">
<time>2021-08-22T10:19:28Z</time>
</trkpt>
<trkpt lat="50.052166" lon="13.41882">
<time>2021-08-22T10:19:29Z</time>
</trkpt>
<trkpt lat="50.052163" lon="13.418746">
<time>2021-08-22T10:19:30Z</time>
</trkpt>
<trkpt lat="50.052162" lon="13.418663">
<time>2021-08-22T10:19:31Z</time>
</trkpt>
<trkpt lat="50.052167" lon="13.418569">
<time>2021-08-22T10:19:32Z</time>
</trkpt>
<trkpt lat="50.052171" lon="13.41849">
<time>2021-08-22T10:19:33Z</time>
</trkpt>
<trkpt lat="50.052175" lon="13.418406">
<time>2021-08-22T10:19:34Z</time>
</trkpt>
<trkpt lat="50.05218" lon="13.418318">
<time>2021-08-22T10:19:35Z</time>
</trkpt>
<trkpt lat="50.052175" lon="13.418243">
<time>2021-08-22T10:19:36Z</time>
</trkpt>
<trkpt lat="50.052177" lon="13.41816">
<time>2021-08-22T10:19:37Z</time>
</trkpt>
<trkpt lat="50.052189" lon="13.418082">
<time>2021-08-22T10:19:38Z</time>
</trkpt>
<trkpt lat="50.052192" lon="13.41801">
<time>2021-08-22T10:19:39Z</time>
</trkpt>
<trkpt lat="50.052187" lon="13.417932">
<time>2021-08-22T10:19:40Z</time>
</trkpt>
<trkpt lat="50.052193" lon="13.417863">
<time>2021-08-22T10:19:41Z</time>
</trkpt>
<trkpt lat="50.052184" lon="13.417778">
<time>2021-08-22T10:19:42Z</time>
</trkpt>
<trkpt lat="50.052195" lon="13.417687">
<time>2021-08-22T10:19:43Z</time>
</trkpt>
<trkpt lat="50.052211" lon="13.417579">
<time>2021-08-22T10:19:44Z</time>
</trkpt>
<trkpt lat="50.052225" lon="13.417492">
<time>2021-08-22T10:19:45Z</time>
</trkpt>
<trkpt lat="50.052236" lon="13.417386">
<time>2021-08-22T10:19:46Z</time>
</trkpt>
<trkpt lat="50.052247" lon="13.417284">
<time>2021-08-22T10:19:47Z</time>
</trkpt>
<trkpt lat="50.05225" lon="13.417185">
<time>2021-08-22T10:19:48Z</time>
</trkpt>
<trkpt lat="50.052259" lon="13.417103">
<time>2021-08-22T10:19:49Z</time>
</trkpt>
<trkpt lat="50.052258" lon="13.417027">
<time>2021-08-22T10:19:50Z</time>
</trkpt>
<trkpt lat="50.052261" lon="13.416951">
<time>2021-08-22T10:19:51Z</time>
</trkpt>
<trkpt lat="50.052261" lon="13.416874">
<time>2021-08-22T10:19:52Z</time>
</trkpt>
<trkpt lat="50.052261" lon="13.416787">
<time>2021-08-22T10:19:53Z</time>
</trkpt>
<trkpt lat="50.05226" lon="13.416696">
<time>2021-08-22T10:19:54Z</time>
</trkpt>
<trkpt lat="50.052268" lon="13.416603">
<time>2021-08-22T10:19:55Z</time>
</trkpt>
<trkpt lat="50.052269" lon="13.416503">
<time>2021-08-22T10:19:56Z</time>
</trkpt>
<trkpt lat="50.052274" lon="13.416415">
<time>2021-08-22T10:19:57Z</time>
</trkpt>
<trkpt lat="50.052264" lon="13.416326">
<time>2021-08-22T10:19:58Z</time>
</trkpt>
<trkpt lat="50.05227" lon="13.416248">
<time>2021-08-22T10:19:59Z</time>
</trkpt>
<trkpt lat="50.052278" lon="13.416162">
<time>2021-08-22T10:20:00Z</time>
</trkpt>
<trkpt lat="50.052279" lon="13.416092">
<time>2021-08-22T10:20:01Z</time>
</trkpt>
<trkpt lat="50.052277" lon="13.41601">
<time>2021-08-22T10:20:02Z</time>
</trkpt>
<trkpt lat="50.052288" lon="13.41593">
<time>2021-08-22T10:20:03Z</time>
</trkpt>
<trkpt lat="50.052291" lon="13.415853">
<time>2021-08-22T10:20:04Z</time>
</trkpt>
<trkpt lat="50.052305" lon="13.415767">
<time>2021-08-22T10:20:05Z</time>
</trkpt>
<trkpt lat="50.052321" lon="13.415676">
<time>2021-08-22T10:20:06Z</time>
</trkpt>
<trkpt lat="50.052344" lon="13.415593">
<time>2021-08-22T10:20:07Z</time>
</trkpt>
<trkpt lat="50.052361" lon="13.415504">
<time>2021-08-22T10:20:08Z</time>
</trkpt>
<trkpt lat="50.052385" lon="13.415402">
<time>2021-08-22T10:20:09Z</time>
</trkpt>
<trkpt lat="50.052418" lon="13.415326">
<time>2021-08-22T10:20:10Z</time>
</trkpt>
<trkpt lat="50.052444" lon="13.41525">
<time>2021-08-22T10:20:11Z</time>
</trkpt>
<trkpt lat="50.052468" lon="13.415169">
<time>2021-08-22T10:20:12Z</time>
</trkpt>
<trkpt lat="50.052504" lon="13.415092">
<time>2021-08-22T10:20:13Z</time>
</trkpt>
<trkpt lat="50.052541" lon="13.415002">
<time>2021-08-22T10:20:14Z</time>
</trkpt>
<trkpt lat="50.052579" lon="13.41493">
<time>2021-08-22T10:20:15Z</time>
</trkpt>
<trkpt lat="50.052611" lon="13.414862">
<time>2021-08-22T10:20:16Z</time>
</trkpt>
<trkpt lat="50.052651" lon="13.414818">
<time>2021-08-22T10:20:17Z</time>
</trkpt>
<trkpt lat="50.05268" lon="13.414797">
<time>2021-08-22T10:20:18Z</time>
</trkpt>
<trkpt lat="50.052722" lon="13.414819">
<time>2021-08-22T10:20:19Z</time>
</trkpt>
<trkpt lat="50.052749" lon="13.41485">
<time>2021-08-22T10:20:20Z</time>
</trkpt>
<trkpt lat="50.052782" lon="13.414888">
<time>2021-08-22T10:20:21Z</time>
</trkpt>
<trkpt lat="50.052811" lon="13.414935">
<time>2021-08-22T10:20:22Z</time>
</trkpt>
<trkpt lat="50.052849" lon="13.414984">
<time>2021-08-22T10:20:23Z</time>
</trkpt>
<trkpt lat="50.052886" lon="13.415038">
<time>2021-08-22T10:20:24Z</time>
</trkpt>
<trkpt lat="50.052921" lon="13.415087">
<time>2021-08-22T10:20:25Z</time>
</trkpt>
<trkpt lat="50.05296" lon="13.415131">
<time>2021-08-22T10:20:26Z</time>
</trkpt>
<trkpt lat="50.05301" lon="13.415183">
<time>2021-08-22T10:20:27Z</time>
</trkpt>
<trkpt lat="50.053057" lon="13.415241">
<time>2021-08-22T10:20:28Z</time>
</trkpt>
<trkpt lat="50.053097" lon="13.41529">
<time>2021-08-22T10:20:29Z</time>
</trkpt>
<trkpt lat="50.053134" lon="13.415334">
<time>2021-08-22T10:20:30Z</time>
</trkpt>
<trkpt lat="50.053176" lon="13.415374">
<time>2021-08-22T10:20:31Z</time>
</trkpt>
<trkpt lat="50.053223" lon="13.41541">
<time>2021-08-22T10:20:32Z</time>
</trkpt>
<trkpt lat="50.053271" lon="13.415443">
<time>2021-08-22T10:20:33Z</time>
</trkpt>
<trkpt lat="50.053313" lon="13.415479">
<time>2021-08-22T10:20:34Z</time>
</trkpt>
<trkpt lat="50.053356" lon="13.415512">
<time>2021-08-22T10:20:35Z</time>
</trkpt>
<trkpt lat="50.053411" lon="13.415539">
<time>2021-08-22T10:20:36Z</time>
</trkpt>
<trkpt lat="50.053459" lon="13.415572">
<time>2021-08-22T10:20:37Z</time>
</trkpt>
<trkpt lat="50.053507" lon="13.415604">
<time>2021-08-22T10:20:38Z</time>
</trkpt>
<trkpt lat="50.053553" lon="13.415636">
<time>2021-08-22T10:20:39Z</time>
</trkpt>
<trkpt lat="50.053599" lon="13.415667">
<time>2021-08-22T10:20:40Z</time>
</trkpt>
<trkpt lat="50.053638" lon="13.415698">
<time>2021-08-22T10:20:41Z</time>
</trkpt>
<trkpt lat="50.053686" lon="13.415736">
<time>2021-08-22T10:20:42Z</time>
</trkpt>
<trkpt lat="50.053734" lon="13.415767">
<time>2021-08-22T10:20:43Z</time>
</trkpt>
<trkpt lat="50.053784" lon="13.415802">
<time>2021-08-22T10:20:44Z</time>
</trkpt>
<trkpt lat="50.053827" lon="13.41584">
<time>2021-08-22T10:20:45Z</time>
</trkpt>
<trkpt lat="50.053877" lon="13.415869">
<time>2021-08-22T10:20:46Z</time>
</trkpt>
<trkpt lat="50.053928" lon="13.4159">
<time>2021-08-22T10:20:47Z</time>
</trkpt>
<trkpt lat="50.053971" lon="13.415925">
<time>2021-08-22T10:20:48Z</time>
</trkpt>
<trkpt lat="50.054021" lon="13.415953">
<time>2021-08-22T10:20:49Z</time>
</trkpt>
<trkpt lat="50.054072" lon="13.415988">
<time>2021-08-22T10:20:50Z</time>
</trkpt>
<trkpt lat="50.054122" lon="13.416021">
<time>2021-08-22T10:20:51Z</time>
</trkpt>
<trkpt lat="50.054169" lon="13.416056">
<time>2021-08-22T10:20:52Z</time>
</trkpt>
<trkpt lat="50.054213" lon="13.416098">
<time>2021-08-22T10:20:53Z</time>
</trkpt>
<trkpt lat="50.054265" lon="13.416131">
<time>2021-08-22T10:20:54Z</time>
</trkpt>
<trkpt lat="50.054321" lon="13.41617">
<time>2021-08-22T10:20:55Z</time>
</trkpt>
<trkpt lat="50.054374" lon="13.416215">
<time>2021-08-22T10:20:56Z</time>
</trkpt>
<trkpt lat="50.054427" lon="13.41625">
<time>2021-08-22T10:20:57Z</time>
</trkpt>
<trkpt lat="50.054478" lon="13.416284">
<time>2021-08-22T10:20:58Z</time>
</trkpt>
<trkpt lat="50.054527" lon="13.416319">
<time>2021-08-22T10:20:59Z</time>
</trkpt>
<trkpt lat="50.054582" lon="13.416349">
<time>2021-08-22T10:21:00Z</time>
</trkpt>
<trkpt lat="50.054634" lon="13.416373">
<time>2021-08-22T10:21:01Z</time>
</trkpt>
<trkpt lat="50.054683" lon="13.416401">
<time>2021-08-22T10:21:02Z</time>
</trkpt>
<trkpt lat="50.054734" lon="13.416432">
<time>2021-08-22T10:21:03Z</time>
</trkpt>
<trkpt lat="50.054787" lon="13.416454">
<time>2021-08-22T10:21:04Z</time>
</trkpt>
<trkpt lat="50.054837" lon="13.416473">
<time>2021-08-22T10:21:05Z</time>
</trkpt>
<trkpt lat="50.054894" lon="13.416485">
<time>2021-08-22T10:21:06Z</time>
</trkpt>
<trkpt lat="50.054945" lon="13.4165">
<time>2021-08-22T10:21:07Z</time>
</trkpt>
<trkpt lat="50.054995" lon="13.416508">
<time>2021-08-22T10:21:08Z</time>
</trkpt>
<trkpt lat="50.055044" lon="13.41652">
<time>2021-08-22T10:21:09Z</time>
</trkpt>
<trkpt lat="50.055092" lon="13.416532">
<time>2021-08-22T10:21:10Z</time>
</trkpt>
<trkpt lat="50.055135" lon="13.416551">
<time>2021-08-22T10:21:11Z</time>
</trkpt>
<trkpt lat="50.05518" lon="13.416569">
<time>2021-08-22T10:21:12Z</time>
</trkpt>
<trkpt lat="50.055223" lon="13.416585">
<time>2021-08-22T10:21:13Z</time>
</trkpt>
<trkpt lat="50.055266" lon="13.416594">
<time>2021-08-22T10:21:14Z</time>
</trkpt>
<trkpt lat="50.055312" lon="13.416606">
<time>2021-08-22T10:21:15Z</time>
</trkpt>
<trkpt lat="50.055355" lon="13.416621">
<time>2021-08-22T10:21:16Z</time>
</trkpt>
<trkpt lat="50.055401" lon="13.41663">
<time>2021-08-22T10:21:17Z</time>
</trkpt>
<trkpt lat="50.055444" lon="13.416643">
<time>2021-08-22T10:21:18Z</time>
</trkpt>
<trkpt lat="50.055483" lon="13.416657">
<time>2021-08-22T10:21:19Z</time>
</trkpt>
<trkpt lat="50.055527" lon="13.416668">
<time>2021-08-22T10:21:20Z</time>
</trkpt>
<trkpt lat="50.055572" lon="13.416675">
<time>2021-08-22T10:21:21Z</time>
</trkpt>
<trkpt lat="50.055618" lon="13.416677">
<time>2021-08-22T10:21:22Z</time>
</trkpt>
<trkpt lat="50.055657" lon="13.416681">
<time>2021-08-22T10:21:23Z</time>
</trkpt>
<trkpt lat="50.055698" lon="13.416677">
<time>2021-08-22T10:21:24Z</time>
</trkpt>
<trkpt lat="50.055739" lon="13.416678">
<time>2021-08-22T10:21:25Z</time>
</trkpt>
<trkpt lat="50.055774" lon="13.41668">
<time>2021-08-22T10:21:26Z</time>
</trkpt>
<trkpt lat="50.055813" lon="13.416688">
<time>2021-08-22T10:21:27Z</time>
</trkpt>
<trkpt lat="50.055852" lon="13.416691">
<time>2021-08-22T10:21:28Z</time>
</trkpt>
<trkpt lat="50.055886" lon="13.416693">
<time>2021-08-22T10:21:29Z</time>
</trkpt>
<trkpt lat="50.055922" lon="13.41669">
<time>2021-08-22T10:21:30Z</time>
</trkpt>
<trkpt lat="50.055959" lon="13.416694">
<time>2021-08-22T10:21:31Z</time>
</trkpt>
<trkpt lat="50.056" lon="13.416698">
<time>2021-08-22T10:21:32Z</time>
</trkpt>
<trkpt lat="50.056041" lon="13.4167">
<time>2021-08-22T10:21:33Z</time>
</trkpt>
<trkpt lat="50.056077" lon="13.4167">
<time>2021-08-22T10:21:34Z</time>
</trkpt>
<trkpt lat="50.05612" lon="13.4167">
<time>2021-08-22T10:21:35Z</time>
</trkpt>
<trkpt lat="50.056162" lon="13.416697">
<time>2021-08-22T10:21:36Z</time>
</trkpt>
<trkpt lat="50.056205" lon="13.416696">
<time>2021-08-22T10:21:37Z</time>
</trkpt>
<trkpt lat="50.056239" lon="13.416699">
<time>2021-08-22T10:21:38Z</time>
</trkpt>
<trkpt lat="50.056276" lon="13.416709">
<time>2021-08-22T10:21:39Z</time>
</trkpt>
<trkpt lat="50.056315" lon="13.416715">
<time>2021-08-22T10:21:40Z</time>
</trkpt>
<trkpt lat="50.056358" lon="13.416708">
<time>2021-08-22T10:21:41Z</time>
</trkpt>
<trkpt lat="50.056399" lon="13.416712">
<time>2021-08-22T10:21:42Z</time>
</trkpt>
<trkpt lat="50.05644" lon="13.416722">
<time>2021-08-22T10:21:43Z</time>
</trkpt>
<trkpt lat="50.056477" lon="13.41673">
<time>2021-08-22T10:21:44Z</time>
</trkpt>
<trkpt lat="50.056513" lon="13.416737">
<time>2021-08-22T10:21:45Z</time>
</trkpt>
<trkpt lat="50.056548" lon="13.416742">
<time>2021-08-22T10:21:46Z</time>
</trkpt>
<trkpt lat="50.056583" lon="13.416745">
<time>2021-08-22T10:21:47Z</time>
</trkpt>
<trkpt lat="50.056625" lon="13.416745">
<time>2021-08-22T10:21:48Z</time>
</trkpt>
<trkpt lat="50.05666" lon="13.416746">
<time>2021-08-22T10:21:49Z</time>
</trkpt>
<trkpt lat="50.056696" lon="13.416755">
<time>2021-08-22T10:21:50Z</time>
</trkpt>
<trkpt lat="50.056735" lon="13.416763">
<time>2021-08-22T10:21:51Z</time>
</trkpt>
<trkpt lat="50.056772" lon="13.416773">
<time>2021-08-22T10:21:52Z</time>
</trkpt>
<trkpt lat="50.0568" lon="13.416784">
<time>2021-08-22T10:21:53Z</time>
</trkpt>
<trkpt lat="50.056828" lon="13.416799">
<time>2021-08-22T10:21:54Z</time>
</trkpt>
<trkpt lat="50.056863" lon="13.416805">
<time>2021-08-22T10:21:55Z</time>
</trkpt>
<trkpt lat="50.056904" lon="13.4168">
<time>2021-08-22T10:21:56Z</time>
</trkpt>
<trkpt lat="50.056946" lon="13.416801">
<time>2021-08-22T10:21:57Z</time>
</trkpt>
<trkpt lat="50.056986" lon="13.416801">
<time>2021-08-22T10:21:58Z</time>
</trkpt>
<trkpt lat="50.057024" lon="13.416805">
<time>2021-08-22T10:21:59Z</time>
</trkpt>
<trkpt lat="50.057061" lon="13.416805">
<time>2021-08-22T10:22:00Z</time>
</trkpt>
<trkpt lat="50.057098" lon="13.416806">
<time>2021-08-22T10:22:01Z</time>
</trkpt>
<trkpt lat="50.057138" lon="13.416812">
<time>2021-08-22T10:22:02Z</time>
</trkpt>
<trkpt lat="50.057176" lon="13.416816">
<time>2021-08-22T10:22:03Z</time>
</trkpt>
<trkpt lat="50.057212" lon="13.416822">
<time>2021-08-22T10:22:04Z</time>
</trkpt>
<trkpt lat="50.057254" lon="13.416826">
<time>2021-08-22T10:22:05Z</time>
</trkpt>
<trkpt lat="50.057295" lon="13.416825">
<time>2021-08-22T10:22:06Z</time>
</trkpt>
<trkpt lat="50.057334" lon="13.416821">
<time>2021-08-22T10:22:07Z</time>
</trkpt>
<trkpt lat="50.057372" lon="13.416819">
<time>2021-08-22T10:22:08Z</time>
</trkpt>
<trkpt lat="50.057405" lon="13.416823">
<time>2021-08-22T10:22:09Z</time>
</trkpt>
<trkpt lat="50.057443" lon="13.416826">
<time>2021-08-22T10:22:10Z</time>
</trkpt>
<trkpt lat="50.05748" lon="13.416835">
<time>2021-08-22T10:22:11Z</time>
</trkpt>
<trkpt lat="50.057526" lon="13.41684">
<time>2021-08-22T10:22:12Z</time>
</trkpt>
<trkpt lat="50.057564" lon="13.416849">
<time>2021-08-22T10:22:13Z</time>
</trkpt>
<trkpt lat="50.057609" lon="13.416861">
<time>2021-08-22T10:22:14Z</time>
</trkpt>
<trkpt lat="50.057654" lon="13.416872">
<time>2021-08-22T10:22:15Z</time>
</trkpt>
<trkpt lat="50.057699" lon="13.416877">
<time>2021-08-22T10:22:16Z</time>
</trkpt>
<trkpt lat="50.057744" lon="13.416886">
<time>2021-08-22T10:22:17Z</time>
</trkpt>
<trkpt lat="50.057787" lon="13.416897">
<time>2021-08-22T10:22:18Z</time>
</trkpt>
<trkpt lat="50.057831" lon="13.41691">
<time>2021-08-22T10:22:19Z</time>
</trkpt>
<trkpt lat="50.057876" lon="13.416927">
<time>2021-08-22T10:22:20Z</time>
</trkpt>
<trkpt lat="50.057918" lon="13.416943">
<time>2021-08-22T10:22:21Z</time>
</trkpt>
<trkpt lat="50.057964" lon="13.416957">
<time>2021-08-22T10:22:22Z</time>
</trkpt>
<trkpt lat="50.05801" lon="13.416973">
<time>2021-08-22T10:22:23Z</time>
</trkpt>
<trkpt lat="50.058052" lon="13.416992">
<time>2021-08-22T10:22:24Z</time>
</trkpt>
<trkpt lat="50.058097" lon="13.417008">
<time>2021-08-22T10:22:25Z</time>
</trkpt>
<trkpt lat="50.058142" lon="13.41702">
<time>2021-08-22T10:22:26Z</time>
</trkpt>
<trkpt lat="50.058188" lon="13.417032">
<time>2021-08-22T10:22:27Z</time>
</trkpt>
<trkpt lat="50.058238" lon="13.41705">
<time>2021-08-22T10:22:28Z</time>
</trkpt>
<trkpt lat="50.058291" lon="13.417067">
<time>2021-08-22T10:22:29Z</time>
</trkpt>
<trkpt lat="50.058344" lon="13.417083">
<time>2021-08-22T10:22:30Z</time>
</trkpt>
<trkpt lat="50.058391" lon="13.417102">
<time>2021-08-22T10:22:31Z</time>
</trkpt>
<trkpt lat="50.058446" lon="13.417113">
<time>2021-08-22T10:22:32Z</time>
</trkpt>
<trkpt lat="50.058505" lon="13.417117">
<time>2021-08-22T10:22:33Z</time>
</trkpt>
<trkpt lat="50.05856" lon="13.417128">
<time>2021-08-22T10:22:34Z</time>
</trkpt>
<trkpt lat="50.058616" lon="13.417137">
<time>2021-08-22T10:22:35Z</time>
</trkpt>
<trkpt lat="50.058671" lon="13.417148">
<time>2021-08-22T10:22:36Z</time>
</trkpt>
<trkpt lat="50.058731" lon="13.417156">
<time>2021-08-22T10:22:37Z</time>
</trkpt>
<trkpt lat="50.05879" lon="13.417172">
<time>2021-08-22T10:22:38Z</time>
</trkpt>
<trkpt lat="50.058848" lon="13.417185">
<time>2021-08-22T10:22:39Z</time>
</trkpt>
<trkpt lat="50.058903" lon="13.417201">
<time>2021-08-22T10:22:40Z</time>
</trkpt>
<trkpt lat="50.058952" lon="13.417211">
<time>2021-08-22T10:22:41Z</time>
</trkpt>
<trkpt lat="50.059008" lon="13.417225">
<time>2021-08-22T10:22:42Z</time>
</trkpt>
<trkpt lat="50.059065" lon="13.41723">
<time>2021-08-22T10:22:43Z</time>
</trkpt>
<trkpt lat="50.059131" lon="13.417224">
<time>2021-08-22T10:22:44Z</time>
</trkpt>
<trkpt lat="50.059203" lon="13.417229">
<time>2021-08-22T10:22:45Z</time>
</trkpt>
<trkpt lat="50.059267" lon="13.417239">
<time>2021-08-22T10:22:46Z</time>
</trkpt>
<trkpt lat="50.059326" lon="13.417247">
<time>2021-08-22T10:22:47Z</time>
</trkpt>
<trkpt lat="50.059382" lon="13.417252">
<time>2021-08-22T10:22:48Z</time>
</trkpt>
<trkpt lat="50.059439" lon="13.417252">
<time>2021-08-22T10:22:49Z</time>
</trkpt>
<trkpt lat="50.059492" lon="13.41725">
<time>2021-08-22T10:22:50Z</time>
</trkpt>
<trkpt lat="50.059551" lon="13.417254">
<time>2021-08-22T10:22:51Z</time>
</trkpt>
<trkpt lat="50.059615" lon="13.417256">
<time>2021-08-22T10:22:52Z</time>
</trkpt>
<trkpt lat="50.059676" lon="13.417265">
<time>2021-08-22T10:22:53Z</time>
</trkpt>
<trkpt lat="50.059732" lon="13.417268">
<time>2021-08-22T10:22:54Z</time>
</trkpt>
<trkpt lat="50.059788" lon="13.417263">
<time>2021-08-22T10:22:55Z</time>
</trkpt>
<trkpt lat="50.059845" lon="13.417262">
<time>2021-08-22T10:22:56Z</time>
</trkpt>
<trkpt lat="50.059896" lon="13.417261">
<time>2021-08-22T10:22:57Z</time>
</trkpt>
<trkpt lat="50.059948" lon="13.417259">
<time>2021-08-22T10:22:58Z</time>
</trkpt>
<trkpt lat="50.059999" lon="13.417255">
<time>2021-08-22T10:22:59Z</time>
</trkpt>
<trkpt lat="50.060058" lon="13.417255">
<time>2021-08-22T10:23:00Z</time>
</trkpt>
<trkpt lat="50.060115" lon="13.417254">
<time>2021-08-22T10:23:01Z</time>
</trkpt>
<trkpt lat="50.060167" lon="13.417255">
<time>2021-08-22T10:23:02Z</time>
</trkpt>
<trkpt lat="50.060219" lon="13.417256">
<time>2021-08-22T10:23:03Z</time>
</trkpt>
<trkpt lat="50.060272" lon="13.417255">
<time>2021-08-22T10:23:04Z</time>
</trkpt>
<trkpt lat="50.060323" lon="13.417257">
<time>2021-08-22T10:23:05Z</time>
</trkpt>
<trkpt lat="50.060371" lon="13.417256">
<time>2021-08-22T10:23:06Z</time>
</trkpt>
<trkpt lat="50.06043" lon="13.41725">
<time>2021-08-22T10:23:07Z</time>
</trkpt>
<trkpt lat="50.06049" lon="13.417252">
<time>2021-08-22T10:23:08Z</time>
</trkpt>
<trkpt lat="50.060551" lon="13.417249">
<time>2021-08-22T10:23:09Z</time>
</trkpt>
<trkpt lat="50.060609" lon="13.417249">
<time>2021-08-22T10:23:10Z</time>
</trkpt>
<trkpt lat="50.060665" lon="13.417247">
<time>2021-08-22T10:23:11Z</time>
</trkpt>
<trkpt lat="50.060723" lon="13.417247">
<time>2021-08-22T10:23:12Z</time>
</trkpt>
<trkpt lat="50.060778" lon="13.417256">
<time>2021-08-22T10:23:13Z</time>
</trkpt>
<trkpt lat="50.060834" lon="13.417262">
<time>2021-08-22T10:23:14Z</time>
</trkpt>
<trkpt lat="50.060891" lon="13.41727">
<time>2021-08-22T10:23:15Z</time>
</trkpt>
<trkpt lat="50.060946" lon="13.417281">
<time>2021-08-22T10:23:16Z</time>
</trkpt>
<trkpt lat="50.061002" lon="13.417292">
<time>2021-08-22T10:23:17Z</time>
</trkpt>
<trkpt lat="50.061059" lon="13.417306">
<time>2021-08-22T10:23:18Z</time>
</trkpt>
<trkpt lat="50.061114" lon="13.41732">
<time>2021-08-22T10:23:19Z</time>
</trkpt>
<trkpt lat="50.061172" lon="13.417327">
<time>2021-08-22T10:23:20Z</time>
</trkpt>
<trkpt lat="50.061228" lon="13.417334">
<time>2021-08-22T10:23:21Z</time>
</trkpt>
<trkpt lat="50.061288" lon="13.417342">
<time>2021-08-22T10:23:22Z</time>
</trkpt>
<trkpt lat="50.061346" lon="13.417352">
<time>2021-08-22T10:23:23Z</time>
</trkpt>
<trkpt lat="50.0614" lon="13.417346">
<time>2021-08-22T10:23:24Z</time>
</trkpt>
<trkpt lat="50.061447" lon="13.417303">
<time>2021-08-22T10:23:25Z</time>
</trkpt>
<trkpt lat="50.061482" lon="13.417234">
<time>2021-08-22T10:23:26Z</time>
</trkpt>
<trkpt lat="50.061506" lon="13.417151">
<time>2021-08-22T10:23:27Z</time>
</trkpt>
<trkpt lat="50.06153" lon="13.417055">
<time>2021-08-22T10:23:28Z</time>
</trkpt>
<trkpt lat="50.061548" lon="13.416963">
<time>2021-08-22T10:23:29Z</time>
</trkpt>
<trkpt lat="50.061565" lon="13.416866">
<time>2021-08-22T10:23:30Z</time>
</trkpt>
<trkpt lat="50.061585" lon="13.416768">
<time>2021-08-22T10:23:31Z</time>
</trkpt>
<trkpt lat="50.061607" lon="13.416668">
<time>2021-08-22T10:23:32Z</time>
</trkpt>
<trkpt lat="50.061627" lon="13.41657">
<time>2021-08-22T10:23:33Z</time>
</trkpt>
<trkpt lat="50.061655" lon="13.416473">
<time>2021-08-22T10:23:34Z</time>
</trkpt>
<trkpt lat="50.061676" lon="13.416375">
<time>2021-08-22T10:23:35Z</time>
</trkpt>
<trkpt lat="50.061696" lon="13.41628">
<time>2021-08-22T10:23:36Z</time>
</trkpt>
<trkpt lat="50.061714" lon="13.416188">
<time>2021-08-22T10:23:37Z</time>
</trkpt>
<trkpt lat="50.061732" lon="13.416097">
<time>2021-08-22T10:23:38Z</time>
</trkpt>
<trkpt lat="50.061754" lon="13.416011">
<time>2021-08-22T10:23:39Z</time>
</trkpt>
<trkpt lat="50.061776" lon="13.415926">
<time>2021-08-22T10:23:40Z</time>
</trkpt>
<trkpt lat="50.061794" lon="13.415843">
<time>2021-08-22T10:23:41Z</time>
</trkpt>
<trkpt lat="50.061809" lon="13.41576">
<time>2021-08-22T10:23:42Z</time>
</trkpt>
<trkpt lat="50.06182" lon="13.415673">
<time>2021-08-22T10:23:43Z</time>
</trkpt>
<trkpt lat="50.06183" lon="13.415585">
<time>2021-08-22T10:23:44Z</time>
</trkpt>
<trkpt lat="50.061844" lon="13.415498">
<time>2021-08-22T10:23:45Z</time>
</trkpt>
<trkpt lat="50.061869" lon="13.41541">
<time>2021-08-22T10:23:46Z</time>
</trkpt>
<trkpt lat="50.0619" lon="13.415318">
<time>2021-08-22T10:23:47Z</time>
</trkpt>
<trkpt lat="50.061926" lon="13.415224">
<time>2021-08-22T10:23:48Z</time>
</trkpt>
<trkpt lat="50.061957" lon="13.415128">
<time>2021-08-22T10:23:49Z</time>
</trkpt>
<trkpt lat="50.061984" lon="13.415028">
<time>2021-08-22T10:23:50Z</time>
</trkpt>
<trkpt lat="50.062009" lon="13.414925">
<time>2021-08-22T10:23:51Z</time>
</trkpt>
<trkpt lat="50.062034" lon="13.414825">
<time>2021-08-22T10:23:52Z</time>
</trkpt>
<trkpt lat="50.062061" lon="13.414727">
<time>2021-08-22T10:23:53Z</time>
</trkpt>
<trkpt lat="50.062086" lon="13.414631">
<time>2021-08-22T10:23:54Z</time>
</trkpt>
<trkpt lat="50.062114" lon="13.414531">
<time>2021-08-22T10:23:55Z</time>
</trkpt>
<trkpt lat="50.062138" lon="13.414427">
<time>2021-08-22T10:23:56Z</time>
</trkpt>
<trkpt lat="50.062157" lon="13.414323">
<time>2021-08-22T10:23:57Z</time>
</trkpt>
<trkpt lat="50.062181" lon="13.41422">
<time>2021-08-22T10:23:58Z</time>
</trkpt>
<trkpt lat="50.062206" lon="13.414118">
<time>2021-08-22T10:23:59Z</time>
</trkpt>
<trkpt lat="50.062226" lon="13.414012">
<time>2021-08-22T10:24:00Z</time>
</trkpt>
<trkpt lat="50.062246" lon="13.413908">
<time>2021-08-22T10:24:01Z</time>
</trkpt>
<trkpt lat="50.062268" lon="13.413804">
<time>2021-08-22T10:24:02Z</time>
</trkpt>
<trkpt lat="50.06229" lon="13.413694">
<time>2021-08-22T10:24:03Z</time>
</trkpt>
<trkpt lat="50.062316" lon="13.413585">
<time>2021-08-22T10:24:04Z</time>
</trkpt>
<trkpt lat="50.062336" lon="13.413474">
<time>2021-08-22T10:24:05Z</time>
</trkpt>
<trkpt lat="50.062354" lon="13.413362">
<time>2021-08-22T10:24:06Z</time>
</trkpt>
<trkpt lat="50.062376" lon="13.413245">
<time>2021-08-22T10:24:07Z</time>
</trkpt>
<trkpt lat="50.062406" lon="13.413129">
<time>2021-08-22T10:24:08Z</time>
</trkpt>
<trkpt lat="50.062413" lon="13.413011">
<time>2021-08-22T10:24:09Z</time>
</trkpt>
<trkpt lat="50.062419" lon="13.412893">
<time>2021-08-22T10:24:10Z</time>
</trkpt>
<trkpt lat="50.062428" lon="13.412774">
<time>2021-08-22T10:24:11Z</time>
</trkpt>
<trkpt lat="50.062425" lon="13.412659">
<time>2021-08-22T10:24:12Z</time>
</trkpt>
<trkpt lat="50.062441" lon="13.412538">
<time>2021-08-22T10:24:13Z</time>
</trkpt>
<trkpt lat="50.062464" lon="13.41242">
<time>2021-08-22T10:24:14Z</time>
</trkpt>
<trkpt lat="50.062481" lon="13.412302">
<time>2021-08-22T10:24:15Z</time>
</trkpt>
<trkpt lat="50.062499" lon="13.412181">
<time>2021-08-22T10:24:16Z</time>
</trkpt>
<trkpt lat="50.062536" lon="13.412045">
<time>2021-08-22T10:24:17Z</time>
</trkpt>
<trkpt lat="50.06257" lon="13.411903">
<time>2021-08-22T10:24:18Z</time>
</trkpt>
<trkpt lat="50.062599" lon="13.411749">
<time>2021-08-22T10:24:19Z</time>
</trkpt>
<trkpt lat="50.062632" lon="13.411592">
<time>2021-08-22T10:24:20Z</time>
</trkpt>
<trkpt lat="50.062661" lon="13.411437">
<time>2021-08-22T10:24:21Z</time>
</trkpt>
<trkpt lat="50.062693" lon="13.411286">
<time>2021-08-22T10:24:22Z</time>
</trkpt>
<trkpt lat="50.062723" lon="13.411134">
<time>2021-08-22T10:24:23Z</time>
</trkpt>
<trkpt lat="50.06276" lon="13.410975">
<time>2021-08-22T10:24:24Z</time>
</trkpt>
<trkpt lat="50.062801" lon="13.410824">
<time>2021-08-22T10:24:25Z</time>
</trkpt>
<trkpt lat="50.062821" lon="13.410675">
<time>2021-08-22T10:24:26Z</time>
</trkpt>
<trkpt lat="50.062839" lon="13.410529">
<time>2021-08-22T10:24:27Z</time>
</trkpt>
<trkpt lat="50.062846" lon="13.41038">
<time>2021-08-22T10:24:28Z</time>
</trkpt>
<trkpt lat="50.062861" lon="13.410224">
<time>2021-08-22T10:24:29Z</time>
</trkpt>
<trkpt lat="50.062865" lon="13.410072">
<time>2021-08-22T10:24:30Z</time>
</trkpt>
<trkpt lat="50.062869" lon="13.409914">
<time>2021-08-22T10:24:31Z</time>
</trkpt>
<trkpt lat="50.062875" lon="13.409758">
<time>2021-08-22T10:24:32Z</time>
</trkpt>
<trkpt lat="50.062892" lon="13.409606">
<time>2021-08-22T10:24:33Z</time>
</trkpt>
<trkpt lat="50.062909" lon="13.409455">
<time>2021-08-22T10:24:34Z</time>
</trkpt>
<trkpt lat="50.06293" lon="13.409299">
<time>2021-08-22T10:24:35Z</time>
</trkpt>
<trkpt lat="50.062956" lon="13.409123">
<time>2021-08-22T10:24:36Z</time>
</trkpt>
<trkpt lat="50.062976" lon="13.408952">
<time>2021-08-22T10:24:37Z</time>
</trkpt>
<trkpt lat="50.062995" lon="13.408796">
<time>2021-08-22T10:24:38Z</time>
</trkpt>
<trkpt lat="50.063009" lon="13.408641">
<time>2021-08-22T10:24:39Z</time>
</trkpt>
<trkpt lat="50.063021" lon="13.40848">
<time>2021-08-22T10:24:40Z</time>
</trkpt>
<trkpt lat="50.063011" lon="13.408324">
<time>2021-08-22T10:24:41Z</time>
</trkpt>
<trkpt lat="50.06301" lon="13.40817">
<time>2021-08-22T10:24:42Z</time>
</trkpt>
<trkpt lat="50.063002" lon="13.408024">
<time>2021-08-22T10:24:43Z</time>
</trkpt>
<trkpt lat="50.063003" lon="13.407882">
<time>2021-08-22T10:24:44Z</time>
</trkpt>
<trkpt lat="50.062999" lon="13.407744">
<time>2021-08-22T10:24:45Z</time>
</trkpt>
<trkpt lat="50.063009" lon="13.407606">
<time>2021-08-22T10:24:46Z</time>
</trkpt>
<trkpt lat="50.063013" lon="13.407467">
<time>2021-08-22T10:24:47Z</time>
</trkpt>
<trkpt lat="50.06301" lon="13.40733">
<time>2021-08-22T10:24:48Z</time>
</trkpt>
<trkpt lat="50.063009" lon="13.407183">
<time>2021-08-22T10:24:49Z</time>
</trkpt>
<trkpt lat="50.063" lon="13.407036">
<time>2021-08-22T10:24:50Z</time>
</trkpt>
<trkpt lat="50.063001" lon="13.406916">
<time>2021-08-22T10:24:51Z</time>
</trkpt>
<trkpt lat="50.063004" lon="13.406807">
<time>2021-08-22T10:24:52Z</time>
</trkpt>
<trkpt lat="50.063002" lon="13.406689">
<time>2021-08-22T10:24:53Z</time>
</trkpt>
<trkpt lat="50.063004" lon="13.406578">
<time>2021-08-22T10:24:54Z</time>
</trkpt>
<trkpt lat="50.063013" lon="13.406475">
<time>2021-08-22T10:24:55Z</time>
</trkpt>
<trkpt lat="50.063017" lon="13.406368">
<time>2021-08-22T10:24:56Z</time>
</trkpt>
<trkpt lat="50.063022" lon="13.406272">
<time>2021-08-22T10:24:57Z</time>
</trkpt>
<trkpt lat="50.063027" lon="13.406179">
<time>2021-08-22T10:24:58Z</time>
</trkpt>
<trkpt lat="50.06302" lon="13.40609">
<time>2021-08-22T10:24:59Z</time>
</trkpt>
<trkpt lat="50.063015" lon="13.406045">
<time>2021-08-22T10:25:00Z</time>
</trkpt>
<trkpt lat="50.063013" lon="13.406028">
<time>2021-08-22T10:25:01Z</time>
</trkpt>
<trkpt lat="50.063016" lon="13.406017">
<time>2021-08-22T10:25:02Z</time>
</trkpt>
<trkpt lat="50.063019" lon="13.406002">
<time>2021-08-22T10:25:03Z</time>
</trkpt>
<trkpt lat="50.063018" lon="13.405983">
<time>2021-08-22T10:25:04Z</time>
</trkpt>
<trkpt lat="50.063018" lon="13.405951">
<time>2021-08-22T10:25:05Z</time>
</trkpt>
<trkpt lat="50.06302" lon="13.405916">
<time>2021-08-22T10:25:06Z</time>
</trkpt>
<trkpt lat="50.063019" lon="13.405872">
<time>2021-08-22T10:25:07Z</time>
</trkpt>
<trkpt lat="50.06302" lon="13.405819">
<time>2021-08-22T10:25:08Z</time>
</trkpt>
<trkpt lat="50.063023" lon="13.405758">
<time>2021-08-22T10:25:09Z</time>
</trkpt>
<trkpt lat="50.063025" lon="13.405691">
<time>2021-08-22T10:25:10Z</time>
</trkpt>
<trkpt lat="50.063017" lon="13.405623">
<time>2021-08-22T10:25:11Z</time>
</trkpt>
<trkpt lat="50.063015" lon="13.40555">
<time>2021-08-22T10:25:12Z</time>
</trkpt>
<trkpt lat="50.063011" lon="13.405477">
<time>2021-08-22T10:25:13Z</time>
</trkpt>
<trkpt lat="50.063017" lon="13.405397">
<time>2021-08-22T10:25:14Z</time>
</trkpt>
<trkpt lat="50.063029" lon="13.405323">
<time>2021-08-22T10:25:15Z</time>
</trkpt>
<trkpt lat="50.063037" lon="13.405254">
<time>2021-08-22T10:25:16Z</time>
</trkpt>
<trkpt lat="50.063048" lon="13.405178">
<time>2021-08-22T10:25:17Z</time>
</trkpt>
<trkpt lat="50.063052" lon="13.405095">
<time>2021-08-22T10:25:18Z</time>
</trkpt>
<trkpt lat="50.063053" lon="13.405025">
<time>2021-08-22T10:25:19Z</time>
</trkpt>
<trkpt lat="50.063058" lon="13.404959">
<time>2021-08-22T10:25:20Z</time>
</trkpt>
<trkpt lat="50.063065" lon="13.404891">
<time>2021-08-22T10:25:21Z</time>
</trkpt>
<trkpt lat="50.063072" lon="13.404819">
<time>2021-08-22T10:25:22Z</time>
</trkpt>
<trkpt lat="50.063089" lon="13.404745">
<time>2021-08-22T10:25:23Z</time>
</trkpt>
<trkpt lat="50.063092" lon="13.404659">
<time>2021-08-22T10:25:24Z</time>
</trkpt>
<trkpt lat="50.063094" lon="13.404581">
<time>2021-08-22T10:25:25Z</time>
</trkpt>
<trkpt lat="50.063096" lon="13.404502">
<time>2021-08-22T10:25:26Z</time>
</trkpt>
<trkpt lat="50.063102" lon="13.404423">
<time>2021-08-22T10:25:27Z</time>
</trkpt>
<trkpt lat="50.063106" lon="13.404342">
<time>2021-08-22T10:25:28Z</time>
</trkpt>
<trkpt lat="50.063108" lon="13.404257">
<time>2021-08-22T10:25:29Z</time>
</trkpt>
<trkpt lat="50.063113" lon="13.404169">
<time>2021-08-22T10:25:30Z</time>
</trkpt>
<trkpt lat="50.063114" lon="13.404084">
<time>2021-08-22T10:25:31Z</time>
</trkpt>
<trkpt lat="50.063093" lon="13.404017">
<time>2021-08-22T10:25:32Z</time>
</trkpt>
<trkpt lat="50.063055" lon="13.40397">
<time>2021-08-22T10:25:33Z</time>
</trkpt>
<trkpt lat="50.063003" lon="13.403947">
<time>2021-08-22T10:25:34Z</time>
</trkpt>
<trkpt lat="50.062944" lon="13.403948">
<time>2021-08-22T10:25:35Z</time>
</trkpt>
<trkpt lat="50.062888" lon="13.403963">
<time>2021-08-22T10:25:36Z</time>
</trkpt>
<trkpt lat="50.06283" lon="13.403989">
<time>2021-08-22T10:25:37Z</time>
</trkpt>
<trkpt lat="50.062777" lon="13.404025">
<time>2021-08-22T10:25:38Z</time>
</trkpt>
<trkpt lat="50.062726" lon="13.404059">
<time>2021-08-22T10:25:39Z</time>
</trkpt>
<trkpt lat="50.062675" lon="13.404076">
<time>2021-08-22T10:25:40Z</time>
</trkpt>
<trkpt lat="50.062628" lon="13.404066">
<time>2021-08-22T10:25:41Z</time>
</trkpt>
<trkpt lat="50.062592" lon="13.404028">
<time>2021-08-22T10:25:42Z</time>
</trkpt>
<trkpt lat="50.062564" lon="13.403957">
<time>2021-08-22T10:25:43Z</time>
</trkpt>
<trkpt lat="50.062546" lon="13.403873">
<time>2021-08-22T10:25:44Z</time>
</trkpt>
<trkpt lat="50.062528" lon="13.403776">
<time>2021-08-22T10:25:45Z</time>
</trkpt>
<trkpt lat="50.062521" lon="13.403678">
<time>2021-08-22T10:25:46Z</time>
</trkpt>
<trkpt lat="50.062512" lon="13.403574">
<time>2021-08-22T10:25:47Z</time>
</trkpt>
<trkpt lat="50.062509" lon="13.40347">
<time>2021-08-22T10:25:48Z</time>
</trkpt>
<trkpt lat="50.062496" lon="13.40336">
<time>2021-08-22T10:25:49Z</time>
</trkpt>
<trkpt lat="50.062484" lon="13.403249">
<time>2021-08-22T10:25:50Z</time>
</trkpt>
<trkpt lat="50.062473" lon="13.403137">
<time>2021-08-22T10:25:51Z</time>
</trkpt>
<trkpt lat="50.062464" lon="13.403026">
<time>2021-08-22T10:25:52Z</time>
</trkpt>
<trkpt lat="50.062458" lon="13.402914">
<time>2021-08-22T10:25:53Z</time>
</trkpt>
<trkpt lat="50.062451" lon="13.402803">
<time>2021-08-22T10:25:54Z</time>
</trkpt>
<trkpt lat="50.062444" lon="13.402693">
<time>2021-08-22T10:25:55Z</time>
</trkpt>
<trkpt lat="50.062438" lon="13.402584">
<time>2021-08-22T10:25:56Z</time>
</trkpt>
<trkpt lat="50.062434" lon="13.402475">
<time>2021-08-22T10:25:57Z</time>
</trkpt>
<trkpt lat="50.06243" lon="13.402358">
<time>2021-08-22T10:25:58Z</time>
</trkpt>
<trkpt lat="50.062429" lon="13.40224">
<time>2021-08-22T10:25:59Z</time>
</trkpt>
<trkpt lat="50.062434" lon="13.402119">
<time>2021-08-22T10:26:00Z</time>
</trkpt>
<trkpt lat="50.062439" lon="13.401997">
<time>2021-08-22T10:26:01Z</time>
</trkpt>
<trkpt lat="50.062447" lon="13.401879">
<time>2021-08-22T10:26:02Z</time>
</trkpt>
<trkpt lat="50.062453" lon="13.401764">
<time>2021-08-22T10:26:03Z</time>
</trkpt>
<trkpt lat="50.062456" lon="13.401653">
<time>2021-08-22T10:26:04Z</time>
</trkpt>
<trkpt lat="50.062456" lon="13.401546">
<time>2021-08-22T10:26:05Z</time>
</trkpt>
<trkpt lat="50.062447" lon="13.401458">
<time>2021-08-22T10:26:06Z</time>
</trkpt>
<trkpt lat="50.062431" lon="13.401412">
<time>2021-08-22T10:26:07Z</time>
</trkpt>
<trkpt lat="50.062415" lon="13.401403">
<time>2021-08-22T10:26:08Z</time>
</trkpt>
<trkpt lat="50.06241" lon="13.401421">
<time>2021-08-22T10:26:09Z</time>
</trkpt>
<trkpt lat="50.06241" lon="13.401446">
<time>2021-08-22T10:26:10Z</time>
</trkpt>
<trkpt lat="50.062426" lon="13.401487">
<time>2021-08-22T10:26:11Z</time>
</trkpt>
<trkpt lat="50.062432" lon="13.401541">
<time>2021-08-22T10:26:12Z</time>
</trkpt>
<trkpt lat="50.062435" lon="13.401611">
<time>2021-08-22T10:26:13Z</time>
</trkpt>
<trkpt lat="50.062442" lon="13.401691">
<time>2021-08-22T10:26:14Z</time>
</trkpt>
<trkpt lat="50.062445" lon="13.401785">
<time>2021-08-22T10:26:15Z</time>
</trkpt>
<trkpt lat="50.062447" lon="13.401875">
<time>2021-08-22T10:26:16Z</time>
</trkpt>
<trkpt lat="50.062447" lon="13.40197">
<time>2021-08-22T10:26:17Z</time>
</trkpt>
<trkpt lat="50.062445" lon="13.402066">
<time>2021-08-22T10:26:18Z</time>
</trkpt>
<trkpt lat="50.062446" lon="13.402166">
<time>2021-08-22T10:26:19Z</time>
</trkpt>
<trkpt lat="50.062446" lon="13.402266">
<time>2021-08-22T10:26:20Z</time>
</trkpt>
<trkpt lat="50.062449" lon="13.402362">
<time>2021-08-22T10:26:21Z</time>
</trkpt>
<trkpt lat="50.062453" lon="13.402459">
<time>2021-08-22T10:26:22Z</time>
</trkpt>
<trkpt lat="50.062459" lon="13.402554">
<time>2021-08-22T10:26:23Z</time>
</trkpt>
<trkpt lat="50.062464" lon="13.402651">
<time>2021-08-22T10:26:24Z</time>
</trkpt>
<trkpt lat="50.062472" lon="13.402748">
<time>2021-08-22T10:26:25Z</time>
</trkpt>
<trkpt lat="50.062482" lon="13.402846">
<time>2021-08-22T10:26:26Z</time>
</trkpt>
<trkpt lat="50.062491" lon="13.402942">
<time>2021-08-22T10:26:27Z</time>
</trkpt>
<trkpt lat="50.062501" lon="13.403034">
<time>2021-08-22T10:26:28Z</time>
</trkpt>
<trkpt lat="50.062514" lon="13.403121">
<time>2021-08-22T10:26:29Z</time>
</trkpt>
<trkpt lat="50.062524" lon="13.403214">
<time>2021-08-22T10:26:30Z</time>
</trkpt>
<trkpt lat="50.062532" lon="13.403308">
<time>2021-08-22T10:26:31Z</time>
</trkpt>
<trkpt lat="50.062535" lon="13.403406">
<time>2021-08-22T10:26:32Z</time>
</trkpt>
<trkpt lat="50.06254" lon="13.403501">
<time>2021-08-22T10:26:33Z</time>
</trkpt>
<trkpt lat="50.062545" lon="13.403594">
<time>2021-08-22T10:26:34Z</time>
</trkpt>
<trkpt lat="50.062552" lon="13.403681">
<time>2021-08-22T10:26:35Z</time>
</trkpt>
<trkpt lat="50.062559" lon="13.403769">
<time>2021-08-22T10:26:36Z</time>
</trkpt>
<trkpt lat="50.062566" lon="13.403861">
<time>2021-08-22T10:26:37Z</time>
</trkpt>
<trkpt lat="50.062578" lon="13.403948">
<time>2021-08-22T10:26:38Z</time>
</trkpt>
<trkpt lat="50.062602" lon="13.404032">
<time>2021-08-22T10:26:39Z</time>
</trkpt>
<trkpt lat="50.062647" lon="13.404071">
<time>2021-08-22T10:26:40Z</time>
</trkpt>
<trkpt lat="50.0627" lon="13.404084">
<time>2021-08-22T10:26:41Z</time>
</trkpt>
<trkpt lat="50.062747" lon="13.404069">
<time>2021-08-22T10:26:42Z</time>
</trkpt>
<trkpt lat="50.062787" lon="13.404039">
<time>2021-08-22T10:26:43Z</time>
</trkpt>
<trkpt lat="50.062829" lon="13.404006">
<time>2021-08-22T10:26:44Z</time>
</trkpt>
<trkpt lat="50.062875" lon="13.403979">
<time>2021-08-22T10:26:45Z</time>
</trkpt>
<trkpt lat="50.062924" lon="13.40396">
<time>2021-08-22T10:26:46Z</time>
</trkpt>
<trkpt lat="50.062973" lon="13.403946">
<time>2021-08-22T10:26:47Z</time>
</trkpt>
<trkpt lat="50.063023" lon="13.40395">
<time>2021-08-22T10:26:48Z</time>
</trkpt>
<trkpt lat="50.063067" lon="13.403977">
<time>2021-08-22T10:26:49Z</time>
</trkpt>
<trkpt lat="50.063102" lon="13.404021">
<time>2021-08-22T10:26:50Z</time>
</trkpt>
<trkpt lat="50.06312" lon="13.404082">
<time>2021-08-22T10:26:51Z</time>
</trkpt>
<trkpt lat="50.063128" lon="13.404158">
<time>2021-08-22T10:26:52Z</time>
</trkpt>
<trkpt lat="50.063125" lon="13.404238">
<time>2021-08-22T10:26:53Z</time>
</trkpt>
<trkpt lat="50.063119" lon="13.404318">
<time>2021-08-22T10:26:54Z</time>
</trkpt>
<trkpt lat="50.063109" lon="13.404404">
<time>2021-08-22T10:26:55Z</time>
</trkpt>
<trkpt lat="50.063099" lon="13.404486">
<time>2021-08-22T10:26:56Z</time>
</trkpt>
<trkpt lat="50.063093" lon="13.40457">
<time>2021-08-22T10:26:57Z</time>
</trkpt>
<trkpt lat="50.063091" lon="13.404652">
<time>2021-08-22T10:26:58Z</time>
</trkpt>
<trkpt lat="50.06309" lon="13.404728">
<time>2021-08-22T10:26:59Z</time>
</trkpt>
<trkpt lat="50.063084" lon="13.404802">
<time>2021-08-22T10:27:00Z</time>
</trkpt>
<trkpt lat="50.063079" lon="13.40487">
<time>2021-08-22T10:27:01Z</time>
</trkpt>
<trkpt lat="50.063068" lon="13.404929">
<time>2021-08-22T10:27:02Z</time>
</trkpt>
<trkpt lat="50.06306" lon="13.404988">
<time>2021-08-22T10:27:03Z</time>
</trkpt>
<trkpt lat="50.063057" lon="13.405043">
<time>2021-08-22T10:27:04Z</time>
</trkpt>
<trkpt lat="50.063052" lon="13.405097">
<time>2021-08-22T10:27:05Z</time>
</trkpt>
<trkpt lat="50.06304" lon="13.405162">
<time>2021-08-22T10:27:06Z</time>
</trkpt>
<trkpt lat="50.063025" lon="13.405226">
<time>2021-08-22T10:27:07Z</time>
</trkpt>
<trkpt lat="50.063016" lon="13.405298">
<time>2021-08-22T10:27:08Z</time>
</trkpt>
<trkpt lat="50.063006" lon="13.405368">
<time>2021-08-22T10:27:09Z</time>
</trkpt>
<trkpt lat="50.062998" lon="13.405438">
<time>2021-08-22T10:27:10Z</time>
</trkpt>
<trkpt lat="50.063002" lon="13.405502">
<time>2021-08-22T10:27:11Z</time>
</trkpt>
<trkpt lat="50.063012" lon="13.405556">
<time>2021-08-22T10:27:12Z</time>
</trkpt>
<trkpt lat="50.063031" lon="13.405601">
<time>2021-08-22T10:27:13Z</time>
</trkpt>
<trkpt lat="50.063055" lon="13.405631">
<time>2021-08-22T10:27:14Z</time>
</trkpt>
<trkpt lat="50.063086" lon="13.405642">
<time>2021-08-22T10:27:15Z</time>
</trkpt>
<trkpt lat="50.063124" lon="13.40565">
<time>2021-08-22T10:27:16Z</time>
</trkpt>
<trkpt lat="50.063165" lon="13.405663">
<time>2021-08-22T10:27:17Z</time>
</trkpt>
<trkpt lat="50.0632" lon="13.405683">
<time>2021-08-22T10:27:18Z</time>
</trkpt>
<trkpt lat="50.063228" lon="13.405713">
<time>2021-08-22T10:27:19Z</time>
</trkpt>
<trkpt lat="50.063249" lon="13.40575">
<time>2021-08-22T10:27:20Z</time>
</trkpt>
<trkpt lat="50.063271" lon="13.405787">
<time>2021-08-22T10:27:21Z</time>
</trkpt>
<trkpt lat="50.063295" lon="13.405829">
<time>2021-08-22T10:27:22Z</time>
</trkpt>
<trkpt lat="50.063312" lon="13.405877">
<time>2021-08-22T10:27:23Z</time>
</trkpt>
<trkpt lat="50.063328" lon="13.405933">
<time>2021-08-22T10:27:24Z</time>
</trkpt>
<trkpt lat="50.063346" lon="13.405998">
<time>2021-08-22T10:27:25Z</time>
</trkpt>
<trkpt lat="50.063369" lon="13.406062">
<time>2021-08-22T10:27:26Z</time>
</trkpt>
<trkpt lat="50.063397" lon="13.406125">
<time>2021-08-22T10:27:27Z</time>
</trkpt>
<trkpt lat="50.06342" lon="13.406183">
<time>2021-08-22T10:27:28Z</time>
</trkpt>
<trkpt lat="50.063445" lon="13.406234">
<time>2021-08-22T10:27:29Z</time>
</trkpt>
<trkpt lat="50.063469" lon="13.406285">
<time>2021-08-22T10:27:30Z</time>
</trkpt>
<trkpt lat="50.063498" lon="13.406335">
<time>2021-08-22T10:27:31Z</time>
</trkpt>
<trkpt lat="50.063524" lon="13.406384">
<time>2021-08-22T10:27:32Z</time>
</trkpt>
<trkpt lat="50.063548" lon="13.40643">
<time>2021-08-22T10:27:33Z</time>
</trkpt>
<trkpt lat="50.063569" lon="13.406472">
<time>2021-08-22T10:27:34Z</time>
</trkpt>
<trkpt lat="50.063588" lon="13.406514">
<time>2021-08-22T10:27:35Z</time>
</trkpt>
<trkpt lat="50.063612" lon="13.406567">
<time>2021-08-22T10:27:36Z</time>
</trkpt>
<trkpt lat="50.063634" lon="13.406625">
<time>2021-08-22T10:27:37Z</time>
</trkpt>
<trkpt lat="50.063652" lon="13.406677">
<time>2021-08-22T10:27:38Z</time>
</trkpt>
<trkpt lat="50.063672" lon="13.406736">
<time>2021-08-22T10:27:39Z</time>
</trkpt>
<trkpt lat="50.063701" lon="13.406789">
<time>2021-08-22T10:27:40Z</time>
</trkpt>
<trkpt lat="50.063723" lon="13.406834">
<time>2021-08-22T10:27:41Z</time>
</trkpt>
<trkpt lat="50.063748" lon="13.406881">
<time>2021-08-22T10:27:42Z</time>
</trkpt>
<trkpt lat="50.063781" lon="13.406926">
<time>2021-08-22T10:27:43Z</time>
</trkpt>
<trkpt lat="50.063802" lon="13.406959">
<time>2021-08-22T10:27:44Z</time>
</trkpt>
<trkpt lat="50.063829" lon="13.407">
<time>2021-08-22T10:27:45Z</time>
</trkpt>
<trkpt lat="50.063864" lon="13.407048">
<time>2021-08-22T10:27:46Z</time>
</trkpt>
<trkpt lat="50.063891" lon="13.407084">
<time>2021-08-22T10:27:47Z</time>
</trkpt>
<trkpt lat="50.063916" lon="13.407127">
<time>2021-08-22T10:27:48Z</time>
</trkpt>
<trkpt lat="50.06394" lon="13.407171">
<time>2021-08-22T10:27:49Z</time>
</trkpt>
<trkpt lat="50.063966" lon="13.407211">
<time>2021-08-22T10:27:50Z</time>
</trkpt>
<trkpt lat="50.063992" lon="13.407239">
<time>2021-08-22T10:27:51Z</time>
</trkpt>
<trkpt lat="50.064021" lon="13.40727">
<time>2021-08-22T10:27:52Z</time>
</trkpt>
<trkpt lat="50.06405" lon="13.407303">
<time>2021-08-22T10:27:53Z</time>
</trkpt>
<trkpt lat="50.064081" lon="13.407333">
<time>2021-08-22T10:27:54Z</time>
</trkpt>
<trkpt lat="50.064125" lon="13.407371">
<time>2021-08-22T10:27:55Z</time>
</trkpt>
<trkpt lat="50.064158" lon="13.4074">
<time>2021-08-22T10:27:56Z</time>
</trkpt>
<trkpt lat="50.064196" lon="13.407427">
<time>2021-08-22T10:27:57Z</time>
</trkpt>
<trkpt lat="50.064246" lon="13.407461">
<time>2021-08-22T10:27:58Z</time>
</trkpt>
<trkpt lat="50.064276" lon="13.407492">
<time>2021-08-22T10:27:59Z</time>
</trkpt>
<trkpt lat="50.064305" lon="13.407517">
<time>2021-08-22T10:28:00Z</time>
</trkpt>
<trkpt lat="50.064338" lon="13.40754">
<time>2021-08-22T10:28:01Z</time>
</trkpt>
<trkpt lat="50.064371" lon="13.407568">
<time>2021-08-22T10:28:02Z</time>
</trkpt>
<trkpt lat="50.064404" lon="13.407596">
<time>2021-08-22T10:28:03Z</time>
</trkpt>
<trkpt lat="50.064435" lon="13.407619">
<time>2021-08-22T10:28:04Z</time>
</trkpt>
<trkpt lat="50.064478" lon="13.407645">
<time>2021-08-22T10:28:05Z</time>
</trkpt>
<trkpt lat="50.064516" lon="13.40768">
<time>2021-08-22T10:28:06Z</time>
</trkpt>
<trkpt lat="50.064549" lon="13.4077">
<time>2021-08-22T10:28:07Z</time>
</trkpt>
<trkpt lat="50.064586" lon="13.407721">
<time>2021-08-22T10:28:08Z</time>
</trkpt>
<trkpt lat="50.064628" lon="13.407737">
<time>2021-08-22T10:28:09Z</time>
</trkpt>
<trkpt lat="50.064669" lon="13.407745">
<time>2021-08-22T10:28:10Z</time>
</trkpt>
<trkpt lat="50.064716" lon="13.407749">
<time>2021-08-22T10:28:11Z</time>
</trkpt>
<trkpt lat="50.064771" lon="13.407749">
<time>2021-08-22T10:28:12Z</time>
</trkpt>
<trkpt lat="50.064824" lon="13.407751">
<time>2021-08-22T10:28:13Z</time>
</trkpt>
<trkpt lat="50.064872" lon="13.407751">
<time>2021-08-22T10:28:14Z</time>
</trkpt>
<trkpt lat="50.064927" lon="13.407752">
<time>2021-08-22T10:28:15Z</time>
</trkpt>
<trkpt lat="50.06497" lon="13.407746">
<time>2021-08-22T10:28:16Z</time>
</trkpt>
<trkpt lat="50.065025" lon="13.407745">
<time>2021-08-22T10:28:17Z</time>
</trkpt>
<trkpt lat="50.065071" lon="13.407743">
<time>2021-08-22T10:28:18Z</time>
</trkpt>
<trkpt lat="50.065115" lon="13.40774">
<time>2021-08-22T10:28:19Z</time>
</trkpt>
<trkpt lat="50.065159" lon="13.407729">
<time>2021-08-22T10:28:20Z</time>
</trkpt>
<trkpt lat="50.065207" lon="13.407712">
<time>2021-08-22T10:28:21Z</time>
</trkpt>
<trkpt lat="50.065248" lon="13.407691">
<time>2021-08-22T10:28:22Z</time>
</trkpt>
<trkpt lat="50.065292" lon="13.407669">
<time>2021-08-22T10:28:23Z</time>
</trkpt>
<trkpt lat="50.065326" lon="13.407642">
<time>2021-08-22T10:28:24Z</time>
</trkpt>
<trkpt lat="50.065365" lon="13.407627">
<time>2021-08-22T10:28:25Z</time>
</trkpt>
<trkpt lat="50.0654" lon="13.407604">
<time>2021-08-22T10:28:26Z</time>
</trkpt>
<trkpt lat="50.065434" lon="13.40758">
<time>2021-08-22T10:28:27Z</time>
</trkpt>
<trkpt lat="50.065466" lon="13.407564">
<time>2021-08-22T10:28:28Z</time>
</trkpt>
<trkpt lat="50.065502" lon="13.407549">
<time>2021-08-22T10:28:29Z</time>
</trkpt>
<trkpt lat="50.065541" lon="13.407531">
<time>2021-08-22T10:28:30Z</time>
</trkpt>
<trkpt lat="50.065579" lon="13.407507">
<time>2021-08-22T10:28:31Z</time>
</trkpt>
<trkpt lat="50.065613" lon="13.407469">
<time>2021-08-22T10:28:32Z</time>
</trkpt>
<trkpt lat="50.065647" lon="13.407443">
<time>2021-08-22T10:28:33Z</time>
</trkpt>
<trkpt lat="50.065702" lon="13.407413">
<time>2021-08-22T10:28:34Z</time>
</trkpt>
<trkpt lat="50.065744" lon="13.407391">
<time>2021-08-22T10:28:35Z</time>
</trkpt>
<trkpt lat="50.065776" lon="13.407368">
<time>2021-08-22T10:28:36Z</time>
</trkpt>
<trkpt lat="50.065813" lon="13.407343">
<time>2021-08-22T10:28:37Z</time>
</trkpt>
<trkpt lat="50.065849" lon="13.407319">
<time>2021-08-22T10:28:38Z</time>
</trkpt>
<trkpt lat="50.065899" lon="13.407299">
<time>2021-08-22T10:28:39Z</time>
</trkpt>
<trkpt lat="50.065944" lon="13.407267">
<time>2021-08-22T10:28:40Z</time>
</trkpt>
<trkpt lat="50.065986" lon="13.40723">
<time>2021-08-22T10:28:41Z</time>
</trkpt>
<trkpt lat="50.066021" lon="13.407191">
<time>2021-08-22T10:28:42Z</time>
</trkpt>
<trkpt lat="50.066072" lon="13.407162">
<time>2021-08-22T10:28:43Z</time>
</trkpt>
<trkpt lat="50.066115" lon="13.407143">
<time>2021-08-22T10:28:44Z</time>
</trkpt>
<trkpt lat="50.066142" lon="13.407136">
<time>2021-08-22T10:28:45Z</time>
</trkpt>
<trkpt lat="50.066174" lon="13.407121">
<time>2021-08-22T10:28:46Z</time>
</trkpt>
<trkpt lat="50.066197" lon="13.407099">
<time>2021-08-22T10:28:47Z</time>
</trkpt>
<trkpt lat="50.066226" lon="13.407073">
<time>2021-08-22T10:28:48Z</time>
</trkpt>
<trkpt lat="50.066258" lon="13.407033">
<time>2021-08-22T10:28:49Z</time>
</trkpt>
<trkpt lat="50.066285" lon="13.407">
<time>2021-08-22T10:28:50Z</time>
</trkpt>
<trkpt lat="50.066323" lon="13.406972">
<time>2021-08-22T10:28:51Z</time>
</trkpt>
<trkpt lat="50.066378" lon="13.406948">
<time>2021-08-22T10:28:52Z</time>
</trkpt>
<trkpt lat="50.066446" lon="13.406924">
<time>2021-08-22T10:28:53Z</time>
</trkpt>
<trkpt lat="50.066513" lon="13.406898">
<time>2021-08-22T10:28:54Z</time>
</trkpt>
<trkpt lat="50.066563" lon="13.406874">
<time>2021-08-22T10:28:55Z</time>
</trkpt>
<trkpt lat="50.066613" lon="13.406848">
<time>2021-08-22T10:28:56Z</time>
</trkpt>
<trkpt lat="50.066673" lon="13.406837">
<time>2021-08-22T10:28:57Z</time>
</trkpt>
<trkpt lat="50.066723" lon="13.406816">
<time>2021-08-22T10:28:58Z</time>
</trkpt>
<trkpt lat="50.066773" lon="13.406796">
<time>2021-08-22T10:28:59Z</time>
</trkpt>
<trkpt lat="50.06687" lon="13.406785">
<time>2021-08-22T10:29:00Z</time>
</trkpt>
<trkpt lat="50.066944" lon="13.40678">
<time>2021-08-22T10:29:01Z</time>
</trkpt>
<trkpt lat="50.066995" lon="13.406775">
<time>2021-08-22T10:29:02Z</time>
</trkpt>
<trkpt lat="50.067055" lon="13.406786">
<time>2021-08-22T10:29:03Z</time>
</trkpt>
<trkpt lat="50.06712" lon="13.406809">
<time>2021-08-22T10:29:04Z</time>
</trkpt>
<trkpt lat="50.067163" lon="13.406829">
<time>2021-08-22T10:29:05Z</time>
</trkpt>
<trkpt lat="50.067198" lon="13.406848">
<time>2021-08-22T10:29:06Z</time>
</trkpt>
<trkpt lat="50.067225" lon="13.406864">
<time>2021-08-22T10:29:07Z</time>
</trkpt>
<trkpt lat="50.067245" lon="13.406872">
<time>2021-08-22T10:29:08Z</time>
</trkpt>
<trkpt lat="50.067259" lon="13.406881">
<time>2021-08-22T10:29:09Z</time>
</trkpt>
<trkpt lat="50.06727" lon="13.406889">
<time>2021-08-22T10:29:10Z</time>
</trkpt>
<trkpt lat="50.067275" lon="13.406897">
<time>2021-08-22T10:29:11Z</time>
</trkpt>
<trkpt lat="50.067282" lon="13.406911">
<time>2021-08-22T10:29:12Z</time>
</trkpt>
<trkpt lat="50.067298" lon="13.406935">
<time>2021-08-22T10:29:13Z</time>
</trkpt>
<trkpt lat="50.067334" lon="13.406973">
<time>2021-08-22T10:29:14Z</time>
</trkpt>
<trkpt lat="50.067375" lon="13.407014">
<time>2021-08-22T10:29:15Z</time>
</trkpt>
<trkpt lat="50.067432" lon="13.407053">
<time>2021-08-22T10:29:16Z</time>
</trkpt>
<trkpt lat="50.0675" lon="13.407113">
<time>2021-08-22T10:29:17Z</time>
</trkpt>
<trkpt lat="50.067559" lon="13.407175">
<time>2021-08-22T10:29:18Z</time>
</trkpt>
<trkpt lat="50.067615" lon="13.407239">
<time>2021-08-22T10:29:19Z</time>
</trkpt>
<trkpt lat="50.067674" lon="13.407316">
<time>2021-08-22T10:29:20Z</time>
</trkpt>
<trkpt lat="50.067723" lon="13.407409">
<time>2021-08-22T10:29:21Z</time>
</trkpt>
<trkpt lat="50.067751" lon="13.407515">
<time>2021-08-22T10:29:22Z</time>
</trkpt>
<trkpt lat="50.067774" lon="13.407616">
<time>2021-08-22T10:29:23Z</time>
</trkpt>
<trkpt lat="50.067797" lon="13.40772">
<time>2021-08-22T10:29:24Z</time>
</trkpt>
<trkpt lat="50.067822" lon="13.407842">
<time>2021-08-22T10:29:25Z</time>
</trkpt>
<trkpt lat="50.067839" lon="13.407967">
<time>2021-08-22T10:29:26Z</time>
</trkpt>
<trkpt lat="50.067858" lon="13.40807">
<time>2021-08-22T10:29:27Z</time>
</trkpt>
<trkpt lat="50.067872" lon="13.408178">
<time>2021-08-22T10:29:28Z</time>
</trkpt>
<trkpt lat="50.067884" lon="13.408257">
<time>2021-08-22T10:29:29Z</time>
</trkpt>
<trkpt lat="50.067897" lon="13.408308">
<time>2021-08-22T10:29:30Z</time>
</trkpt>
<trkpt lat="50.067909" lon="13.408339">
<time>2021-08-22T10:29:31Z</time>
</trkpt>
<trkpt lat="50.067914" lon="13.408356">
<time>2021-08-22T10:29:32Z</time>
</trkpt>
<trkpt lat="50.067912" lon="13.408364">
<time>2021-08-22T10:29:33Z</time>
</trkpt>
<trkpt lat="50.067902" lon="13.408381">
<time>2021-08-22T10:29:34Z</time>
</trkpt>
<trkpt lat="50.067885" lon="13.408403">
<time>2021-08-22T10:29:35Z</time>
</trkpt>
<trkpt lat="50.067865" lon="13.408421">
<time>2021-08-22T10:29:36Z</time>
</trkpt>
<trkpt lat="50.067845" lon="13.408422">
<time>2021-08-22T10:29:37Z</time>
</trkpt>
<trkpt lat="50.06783" lon="13.408424">
<time>2021-08-22T10:29:38Z</time>
</trkpt>
<trkpt lat="50.067822" lon="13.408421">
<time>2021-08-22T10:29:39Z</time>
</trkpt>
<trkpt lat="50.067814" lon="13.408424">
<time>2021-08-22T10:29:40Z</time>
</trkpt>
<trkpt lat="50.067811" lon="13.408434">
<time>2021-08-22T10:29:41Z</time>
</trkpt>
<trkpt lat="50.067806" lon="13.408433">
<time>2021-08-22T10:29:42Z</time>
</trkpt>
<trkpt lat="50.067798" lon="13.408429">
<time>2021-08-22T10:29:43Z</time>
</trkpt>
<trkpt lat="50.067788" lon="13.408426">
<time>2021-08-22T10:29:44Z</time>
</trkpt>
<trkpt lat="50.067775" lon="13.408418">
<time>2021-08-22T10:29:45Z</time>
</trkpt>
<trkpt lat="50.067762" lon="13.408421">
<time>2021-08-22T10:29:46Z</time>
</trkpt>
<trkpt lat="50.067742" lon="13.408414">
<time>2021-08-22T10:29:47Z</time>
</trkpt>
<trkpt lat="50.06772" lon="13.408419">
<time>2021-08-22T10:29:48Z</time>
</trkpt>
<trkpt lat="50.067696" lon="13.408415">
<time>2021-08-22T10:29:49Z</time>
</trkpt>
<trkpt lat="50.067672" lon="13.408413">
<time>2021-08-22T10:29:50Z</time>
</trkpt>
<trkpt lat="50.067645" lon="13.40841">
<time>2021-08-22T10:29:51Z</time>
</trkpt>
<trkpt lat="50.067616" lon="13.408401">
<time>2021-08-22T10:29:52Z</time>
</trkpt>
<trkpt lat="50.067585" lon="13.408403">
<time>2021-08-22T10:29:53Z</time>
</trkpt>
<trkpt lat="50.06756" lon="13.408395">
<time>2021-08-22T10:29:54Z</time>
</trkpt>
<trkpt lat="50.067543" lon="13.408399">
<time>2021-08-22T10:29:55Z</time>
</trkpt>
<trkpt lat="50.067519" lon="13.408378">
<time>2021-08-22T10:29:56Z</time>
</trkpt>
<trkpt lat="50.067501" lon="13.408383">
<time>2021-08-22T10:29:57Z</time>
</trkpt>
<trkpt lat="50.067483" lon="13.408377">
<time>2021-08-22T10:29:58Z</time>
</trkpt>
<trkpt lat="50.067465" lon="13.408372">
<time>2021-08-22T10:29:59Z</time>
</trkpt>
<trkpt lat="50.067442" lon="13.408366">
<time>2021-08-22T10:30:00Z</time>
</trkpt>
<trkpt lat="50.067416" lon="13.408346">
<time>2021-08-22T10:30:01Z</time>
</trkpt>
<trkpt lat="50.067397" lon="13.408345">
<time>2021-08-22T10:30:02Z</time>
</trkpt>
<trkpt lat="50.067383" lon="13.408335">
<time>2021-08-22T10:30:03Z</time>
</trkpt>
<trkpt lat="50.06736" lon="13.408316">
<time>2021-08-22T10:30:04Z</time>
</trkpt>
<trkpt lat="50.067342" lon="13.408314">
<time>2021-08-22T10:30:05Z</time>
</trkpt>
<trkpt lat="50.067328" lon="13.40831">
<time>2021-08-22T10:30:06Z</time>
</trkpt>
<trkpt lat="50.067307" lon="13.408296">
<time>2021-08-22T10:30:07Z</time>
</trkpt>
<trkpt lat="50.067289" lon="13.408297">
<time>2021-08-22T10:30:08Z</time>
</trkpt>
<trkpt lat="50.067274" lon="13.408295">
<time>2021-08-22T10:30:09Z</time>
</trkpt>
<trkpt lat="50.067264" lon="13.40829">
<time>2021-08-22T10:30:10Z</time>
</trkpt>
<trkpt lat="50.067252" lon="13.40828">
<time>2021-08-22T10:30:11Z</time>
</trkpt>
<trkpt lat="50.067243" lon="13.408282">
<time>2021-08-22T10:30:12Z</time>
</trkpt>
<trkpt lat="50.067232" lon="13.408284">
<time>2021-08-22T10:30:13Z</time>
</trkpt>
<trkpt lat="50.06722" lon="13.408287">
<time>2021-08-22T10:30:14Z</time>
</trkpt>
<trkpt lat="50.06721" lon="13.408293">
<time>2021-08-22T10:30:15Z</time>
</trkpt>
<trkpt lat="50.067197" lon="13.408295">
<time>2021-08-22T10:30:16Z</time>
</trkpt>
<trkpt lat="50.067184" lon="13.40831">
<time>2021-08-22T10:30:17Z</time>
</trkpt>
<trkpt lat="50.067172" lon="13.408321">
<time>2021-08-22T10:30:18Z</time>
</trkpt>
<trkpt lat="50.067156" lon="13.40832">
<time>2021-08-22T10:30:19Z</time>
</trkpt>
<trkpt lat="50.067144" lon="13.408326">
<time>2021-08-22T10:30:20Z</time>
</trkpt>
<trkpt lat="50.067126" lon="13.408335">
<time>2021-08-22T10:30:21Z</time>
</trkpt>
<trkpt lat="50.067108" lon="13.408339">
<time>2021-08-22T10:30:22Z</time>
</trkpt>
<trkpt lat="50.06709" lon="13.408335">
<time>2021-08-22T10:30:23Z</time>
</trkpt>
<trkpt lat="50.067079" lon="13.408337">
<time>2021-08-22T10:30:24Z</time>
</trkpt>
<trkpt lat="50.067064" lon="13.408329">
<time>2021-08-22T10:30:25Z</time>
</trkpt>
<trkpt lat="50.067052" lon="13.408331">
<time>2021-08-22T10:30:26Z</time>
</trkpt>
<trkpt lat="50.067034" lon="13.408337">
<time>2021-08-22T10:30:27Z</time>
</trkpt>
<trkpt lat="50.067013" lon="13.408345">
<time>2021-08-22T10:30:28Z</time>
</trkpt>
<trkpt lat="50.066988" lon="13.408342">
<time>2021-08-22T10:30:29Z</time>
</trkpt>
<trkpt lat="50.066973" lon="13.408345">
<time>2021-08-22T10:30:30Z</time>
</trkpt>
<trkpt lat="50.066957" lon="13.408348">
<time>2021-08-22T10:30:31Z</time>
</trkpt>
<trkpt lat="50.066944" lon="13.408354">
<time>2021-08-22T10:30:32Z</time>
</trkpt>
<trkpt lat="50.066928" lon="13.408358">
<time>2021-08-22T10:30:33Z</time>
</trkpt>
<trkpt lat="50.066918" lon="13.408361">
<time>2021-08-22T10:30:34Z</time>
</trkpt>
<trkpt lat="50.066908" lon="13.408371">
<time>2021-08-22T10:30:35Z</time>
</trkpt>
<trkpt lat="50.066896" lon="13.408392">
<time>2021-08-22T10:30:36Z</time>
</trkpt>
<trkpt lat="50.066875" lon="13.408417">
<time>2021-08-22T10:30:37Z</time>
</trkpt>
<trkpt lat="50.066854" lon="13.408441">
<time>2021-08-22T10:30:38Z</time>
</trkpt>
<trkpt lat="50.066836" lon="13.408473">
<time>2021-08-22T10:30:39Z</time>
</trkpt>
<trkpt lat="50.066818" lon="13.4085">
<time>2021-08-22T10:30:40Z</time>
</trkpt>
<trkpt lat="50.066804" lon="13.408534">
<time>2021-08-22T10:30:41Z</time>
</trkpt>
<trkpt lat="50.066792" lon="13.408568">
<time>2021-08-22T10:30:42Z</time>
</trkpt>
<trkpt lat="50.066784" lon="13.408591">
<time>2021-08-22T10:30:43Z</time>
</trkpt>
<trkpt lat="50.066772" lon="13.40862">
<time>2021-08-22T10:30:44Z</time>
</trkpt>
<trkpt lat="50.066762" lon="13.40865">
<time>2021-08-22T10:30:45Z</time>
</trkpt>
<trkpt lat="50.06675" lon="13.408673">
<time>2021-08-22T10:30:46Z</time>
</trkpt>
<trkpt lat="50.066738" lon="13.4087">
<time>2021-08-22T10:30:47Z</time>
</trkpt>
<trkpt lat="50.066724" lon="13.408737">
<time>2021-08-22T10:30:48Z</time>
</trkpt>
<trkpt lat="50.066706" lon="13.408776">
<time>2021-08-22T10:30:49Z</time>
</trkpt>
<trkpt lat="50.066688" lon="13.408808">
<time>2021-08-22T10:30:50Z</time>
</trkpt>
<trkpt lat="50.066669" lon="13.408837">
<time>2021-08-22T10:30:51Z</time>
</trkpt>
<trkpt lat="50.06665" lon="13.408869">
<time>2021-08-22T10:30:52Z</time>
</trkpt>
<trkpt lat="50.066621" lon="13.408913">
<time>2021-08-22T10:30:53Z</time>
</trkpt>
<trkpt lat="50.066594" lon="13.408958">
<time>2021-08-22T10:30:54Z</time>
</trkpt>
<trkpt lat="50.066569" lon="13.409019">
<time>2021-08-22T10:30:55Z</time>
</trkpt>
<trkpt lat="50.066555" lon="13.409072">
<time>2021-08-22T10:30:56Z</time>
</trkpt>
<trkpt lat="50.066535" lon="13.409122">
<time>2021-08-22T10:30:57Z</time>
</trkpt>
<trkpt lat="50.066509" lon="13.409173">
<time>2021-08-22T10:30:58Z</time>
</trkpt>
<trkpt lat="50.066484" lon="13.409232">
<time>2021-08-22T10:30:59Z</time>
</trkpt>
<trkpt lat="50.066457" lon="13.409293">
<time>2021-08-22T10:31:00Z</time>
</trkpt>
<trkpt lat="50.06643" lon="13.409355">
<time>2021-08-22T10:31:01Z</time>
</trkpt>
<trkpt lat="50.066395" lon="13.40942">
<time>2021-08-22T10:31:02Z</time>
</trkpt>
<trkpt lat="50.066369" lon="13.409478">
<time>2021-08-22T10:31:03Z</time>
</trkpt>
<trkpt lat="50.066347" lon="13.409526">
<time>2021-08-22T10:31:04Z</time>
</trkpt>
<trkpt lat="50.066327" lon="13.409571">
<time>2021-08-22T10:31:05Z</time>
</trkpt>
<trkpt lat="50.066301" lon="13.409616">
<time>2021-08-22T10:31:06Z</time>
</trkpt>
<trkpt lat="50.066276" lon="13.409645">
<time>2021-08-22T10:31:07Z</time>
</trkpt>
<trkpt lat="50.066251" lon="13.409672">
<time>2021-08-22T10:31:08Z</time>
</trkpt>
<trkpt lat="50.066223" lon="13.409699">
<time>2021-08-22T10:31:09Z</time>
</trkpt>
<trkpt lat="50.066196" lon="13.409731">
<time>2021-08-22T10:31:10Z</time>
</trkpt>
<trkpt lat="50.066172" lon="13.409747">
<time>2021-08-22T10:31:11Z</time>
</trkpt>
<trkpt lat="50.066146" lon="13.409776">
<time>2021-08-22T10:31:12Z</time>
</trkpt>
<trkpt lat="50.066118" lon="13.409804">
<time>2021-08-22T10:31:13Z</time>
</trkpt>
<trkpt lat="50.066084" lon="13.409843">
<time>2021-08-22T10:31:14Z</time>
</trkpt>
<trkpt lat="50.066043" lon="13.409879">
<time>2021-08-22T10:31:15Z</time>
</trkpt>
<trkpt lat="50.065998" lon="13.409926">
<time>2021-08-22T10:31:16Z</time>
</trkpt>
<trkpt lat="50.065969" lon="13.409981">
<time>2021-08-22T10:31:17Z</time>
</trkpt>
<trkpt lat="50.065954" lon="13.410039">
<time>2021-08-22T10:31:18Z</time>
</trkpt>
<trkpt lat="50.065933" lon="13.410095">
<time>2021-08-22T10:31:19Z</time>
</trkpt>
<trkpt lat="50.065932" lon="13.410159">
<time>2021-08-22T10:31:20Z</time>
</trkpt>
<trkpt lat="50.065929" lon="13.410227">
<time>2021-08-22T10:31:21Z</time>
</trkpt>
<trkpt lat="50.065929" lon="13.410301">
<time>2021-08-22T10:31:22Z</time>
</trkpt>
<trkpt lat="50.065929" lon="13.41037">
<time>2021-08-22T10:31:23Z</time>
</trkpt>
<trkpt lat="50.06593" lon="13.410439">
<time>2021-08-22T10:31:24Z</time>
</trkpt>
<trkpt lat="50.065927" lon="13.4105">
<time>2021-08-22T10:31:25Z</time>
</trkpt>
<trkpt lat="50.065925" lon="13.410563">
<time>2021-08-22T10:31:26Z</time>
</trkpt>
<trkpt lat="50.065921" lon="13.410628">
<time>2021-08-22T10:31:27Z</time>
</trkpt>
<trkpt lat="50.065922" lon="13.41069">
<time>2021-08-22T10:31:28Z</time>
</trkpt>
<trkpt lat="50.065921" lon="13.410751">
<time>2021-08-22T10:31:29Z</time>
</trkpt>
<trkpt lat="50.065925" lon="13.410818">
<time>2021-08-22T10:31:30Z</time>
</trkpt>
<trkpt lat="50.065937" lon="13.410894">
<time>2021-08-22T10:31:31Z</time>
</trkpt>
<trkpt lat="50.065946" lon="13.410963">
<time>2021-08-22T10:31:32Z</time>
</trkpt>
<trkpt lat="50.065949" lon="13.411034">
<time>2021-08-22T10:31:33Z</time>
</trkpt>
<trkpt lat="50.065953" lon="13.411094">
<time>2021-08-22T10:31:34Z</time>
</trkpt>
<trkpt lat="50.065962" lon="13.411177">
<time>2021-08-22T10:31:35Z</time>
</trkpt>
<trkpt lat="50.065973" lon="13.411265">
<time>2021-08-22T10:31:36Z</time>
</trkpt>
<trkpt lat="50.065992" lon="13.41135">
<time>2021-08-22T10:31:37Z</time>
</trkpt>
<trkpt lat="50.065999" lon="13.411458">
<time>2021-08-22T10:31:38Z</time>
</trkpt>
<trkpt lat="50.066013" lon="13.411549">
<time>2021-08-22T10:31:39Z</time>
</trkpt>
<trkpt lat="50.066027" lon="13.411635">
<time>2021-08-22T10:31:40Z</time>
</trkpt>
<trkpt lat="50.066032" lon="13.411725">
<time>2021-08-22T10:31:41Z</time>
</trkpt>
<trkpt lat="50.066037" lon="13.411828">
<time>2021-08-22T10:31:42Z</time>
</trkpt>
<trkpt lat="50.066042" lon="13.411945">
<time>2021-08-22T10:31:43Z</time>
</trkpt>
<trkpt lat="50.066045" lon="13.412063">
<time>2021-08-22T10:31:44Z</time>
</trkpt>
<trkpt lat="50.066046" lon="13.412168">
<time>2021-08-22T10:31:45Z</time>
</trkpt>
<trkpt lat="50.06604" lon="13.412265">
<time>2021-08-22T10:31:46Z</time>
</trkpt>
<trkpt lat="50.066023" lon="13.412351">
<time>2021-08-22T10:31:47Z</time>
</trkpt>
<trkpt lat="50.066015" lon="13.412416">
<time>2021-08-22T10:31:48Z</time>
</trkpt>
<trkpt lat="50.065998" lon="13.412476">
<time>2021-08-22T10:31:49Z</time>
</trkpt>
<trkpt lat="50.06598" lon="13.412528">
<time>2021-08-22T10:31:50Z</time>
</trkpt>
<trkpt lat="50.065959" lon="13.412568">
<time>2021-08-22T10:31:51Z</time>
</trkpt>
<trkpt lat="50.065932" lon="13.4126">
<time>2021-08-22T10:31:52Z</time>
</trkpt>
<trkpt lat="50.065905" lon="13.412627">
<time>2021-08-22T10:31:53Z</time>
</trkpt>
<trkpt lat="50.065879" lon="13.412643">
<time>2021-08-22T10:31:54Z</time>
</trkpt>
<trkpt lat="50.065853" lon="13.412645">
<time>2021-08-22T10:31:55Z</time>
</trkpt>
<trkpt lat="50.065827" lon="13.412649">
<time>2021-08-22T10:31:56Z</time>
</trkpt>
<trkpt lat="50.065803" lon="13.412643">
<time>2021-08-22T10:31:57Z</time>
</trkpt>
<trkpt lat="50.065778" lon="13.412641">
<time>2021-08-22T10:31:58Z</time>
</trkpt>
<trkpt lat="50.065751" lon="13.412636">
<time>2021-08-22T10:31:59Z</time>
</trkpt>
<trkpt lat="50.065723" lon="13.412628">
<time>2021-08-22T10:32:00Z</time>
</trkpt>
<trkpt lat="50.065685" lon="13.412595">
<time>2021-08-22T10:32:01Z</time>
</trkpt>
<trkpt lat="50.065647" lon="13.412583">
<time>2021-08-22T10:32:02Z</time>
</trkpt>
<trkpt lat="50.065607" lon="13.412578">
<time>2021-08-22T10:32:03Z</time>
</trkpt>
<trkpt lat="50.065562" lon="13.412565">
<time>2021-08-22T10:32:04Z</time>
</trkpt>
<trkpt lat="50.065525" lon="13.412566">
<time>2021-08-22T10:32:05Z</time>
</trkpt>
<trkpt lat="50.065483" lon="13.412561">
<time>2021-08-22T10:32:06Z</time>
</trkpt>
<trkpt lat="50.06544" lon="13.412575">
<time>2021-08-22T10:32:07Z</time>
</trkpt>
<trkpt lat="50.065394" lon="13.41258">
<time>2021-08-22T10:32:08Z</time>
</trkpt>
<trkpt lat="50.065349" lon="13.412588">
<time>2021-08-22T10:32:09Z</time>
</trkpt>
<trkpt lat="50.065306" lon="13.412599">
<time>2021-08-22T10:32:10Z</time>
</trkpt>
<trkpt lat="50.065272" lon="13.412618">
<time>2021-08-22T10:32:11Z</time>
</trkpt>
<trkpt lat="50.065238" lon="13.412636">
<time>2021-08-22T10:32:12Z</time>
</trkpt>
<trkpt lat="50.065197" lon="13.412632">
<time>2021-08-22T10:32:13Z</time>
</trkpt>
<trkpt lat="50.06516" lon="13.412621">
<time>2021-08-22T10:32:14Z</time>
</trkpt>
<trkpt lat="50.065126" lon="13.412616">
<time>2021-08-22T10:32:15Z</time>
</trkpt>
<trkpt lat="50.065087" lon="13.412608">
<time>2021-08-22T10:32:16Z</time>
</trkpt>
<trkpt lat="50.065041" lon="13.412599">
<time>2021-08-22T10:32:17Z</time>
</trkpt>
<trkpt lat="50.064995" lon="13.412606">
<time>2021-08-22T10:32:18Z</time>
</trkpt>
<trkpt lat="50.064944" lon="13.412597">
<time>2021-08-22T10:32:19Z</time>
</trkpt>
<trkpt lat="50.064894" lon="13.412603">
<time>2021-08-22T10:32:20Z</time>
</trkpt>
<trkpt lat="50.064839" lon="13.41258">
<time>2021-08-22T10:32:21Z</time>
</trkpt>
<trkpt lat="50.064784" lon="13.412566">
<time>2021-08-22T10:32:22Z</time>
</trkpt>
<trkpt lat="50.064729" lon="13.412556">
<time>2021-08-22T10:32:23Z</time>
</trkpt>
<trkpt lat="50.064664" lon="13.412539">
<time>2021-08-22T10:32:24Z</time>
</trkpt>
<trkpt lat="50.064612" lon="13.41254">
<time>2021-08-22T10:32:25Z</time>
</trkpt>
<trkpt lat="50.064556" lon="13.412544">
<time>2021-08-22T10:32:26Z</time>
</trkpt>
<trkpt lat="50.0645" lon="13.41255">
<time>2021-08-22T10:32:27Z</time>
</trkpt>
<trkpt lat="50.064439" lon="13.412563">
<time>2021-08-22T10:32:28Z</time>
</trkpt>
<trkpt lat="50.06437" lon="13.412562">
<time>2021-08-22T10:32:29Z</time>
</trkpt>
<trkpt lat="50.064305" lon="13.412578">
<time>2021-08-22T10:32:30Z</time>
</trkpt>
<trkpt lat="50.064243" lon="13.412602">
<time>2021-08-22T10:32:31Z</time>
</trkpt>
<trkpt lat="50.064181" lon="13.412616">
<time>2021-08-22T10:32:32Z</time>
</trkpt>
<trkpt lat="50.064121" lon="13.412639">
<time>2021-08-22T10:32:33Z</time>
</trkpt>
<trkpt lat="50.064058" lon="13.41265">
<time>2021-08-22T10:32:34Z</time>
</trkpt>
<trkpt lat="50.063993" lon="13.412673">
<time>2021-08-22T10:32:35Z</time>
</trkpt>
<trkpt lat="50.063928" lon="13.412685">
<time>2021-08-22T10:32:36Z</time>
</trkpt>
<trkpt lat="50.063866" lon="13.412696">
<time>2021-08-22T10:32:37Z</time>
</trkpt>
<trkpt lat="50.063804" lon="13.412718">
<time>2021-08-22T10:32:38Z</time>
</trkpt>
<trkpt lat="50.063745" lon="13.412725">
<time>2021-08-22T10:32:39Z</time>
</trkpt>
<trkpt lat="50.063685" lon="13.412742">
<time>2021-08-22T10:32:40Z</time>
</trkpt>
<trkpt lat="50.063634" lon="13.412762">
<time>2021-08-22T10:32:41Z</time>
</trkpt>
<trkpt lat="50.063585" lon="13.412787">
<time>2021-08-22T10:32:42Z</time>
</trkpt>
<trkpt lat="50.063529" lon="13.412806">
<time>2021-08-22T10:32:43Z</time>
</trkpt>
<trkpt lat="50.063476" lon="13.4128">
<time>2021-08-22T10:32:44Z</time>
</trkpt>
<trkpt lat="50.063424" lon="13.412802">
<time>2021-08-22T10:32:45Z</time>
</trkpt>
<trkpt lat="50.063364" lon="13.412817">
<time>2021-08-22T10:32:46Z</time>
</trkpt>
<trkpt lat="50.063308" lon="13.41283">
<time>2021-08-22T10:32:47Z</time>
</trkpt>
<trkpt lat="50.063257" lon="13.412849">
<time>2021-08-22T10:32:48Z</time>
</trkpt>
<trkpt lat="50.063203" lon="13.41287">
<time>2021-08-22T10:32:49Z</time>
</trkpt>
<trkpt lat="50.063143" lon="13.412877">
<time>2021-08-22T10:32:50Z</time>
</trkpt>
<trkpt lat="50.063093" lon="13.412901">
<time>2021-08-22T10:32:51Z</time>
</trkpt>
<trkpt lat="50.063034" lon="13.412919">
<time>2021-08-22T10:32:52Z</time>
</trkpt>
<trkpt lat="50.062987" lon="13.412951">
<time>2021-08-22T10:32:53Z</time>
</trkpt>
<trkpt lat="50.062944" lon="13.412981">
<time>2021-08-22T10:32:54Z</time>
</trkpt>
<trkpt lat="50.062902" lon="13.413006">
<time>2021-08-22T10:32:55Z</time>
</trkpt>
<trkpt lat="50.062856" lon="13.413045">
<time>2021-08-22T10:32:56Z</time>
</trkpt>
<trkpt lat="50.06281" lon="13.413082">
<time>2021-08-22T10:32:57Z</time>
</trkpt>
<trkpt lat="50.062756" lon="13.413118">
<time>2021-08-22T10:32:58Z</time>
</trkpt>
<trkpt lat="50.062701" lon="13.413147">
<time>2021-08-22T10:32:59Z</time>
</trkpt>
<trkpt lat="50.062647" lon="13.413168">
<time>2021-08-22T10:33:00Z</time>
</trkpt>
<trkpt lat="50.062598" lon="13.413182">
<time>2021-08-22T10:33:01Z</time>
</trkpt>
<trkpt lat="50.062546" lon="13.413198">
<time>2021-08-22T10:33:02Z</time>
</trkpt>
<trkpt lat="50.062501" lon="13.413243">
<time>2021-08-22T10:33:03Z</time>
</trkpt>
<trkpt lat="50.062462" lon="13.413304">
<time>2021-08-22T10:33:04Z</time>
</trkpt>
<trkpt lat="50.062436" lon="13.413372">
<time>2021-08-22T10:33:05Z</time>
</trkpt>
<trkpt lat="50.06242" lon="13.413443">
<time>2021-08-22T10:33:06Z</time>
</trkpt>
<trkpt lat="50.062408" lon="13.413518">
<time>2021-08-22T10:33:07Z</time>
</trkpt>
<trkpt lat="50.062393" lon="13.413604">
<time>2021-08-22T10:33:08Z</time>
</trkpt>
<trkpt lat="50.062383" lon="13.413681">
<time>2021-08-22T10:33:09Z</time>
</trkpt>
<trkpt lat="50.062369" lon="13.413753">
<time>2021-08-22T10:33:10Z</time>
</trkpt>
<trkpt lat="50.062361" lon="13.413843">
<time>2021-08-22T10:33:11Z</time>
</trkpt>
<trkpt lat="50.062352" lon="13.413927">
<time>2021-08-22T10:33:12Z</time>
</trkpt>
<trkpt lat="50.062336" lon="13.414019">
<time>2021-08-22T10:33:13Z</time>
</trkpt>
<trkpt lat="50.06231" lon="13.414105">
<time>2021-08-22T10:33:14Z</time>
</trkpt>
<trkpt lat="50.062281" lon="13.414189">
<time>2021-08-22T10:33:15Z</time>
</trkpt>
<trkpt lat="50.062251" lon="13.414272">
<time>2021-08-22T10:33:16Z</time>
</trkpt>
<trkpt lat="50.062224" lon="13.414357">
<time>2021-08-22T10:33:17Z</time>
</trkpt>
<trkpt lat="50.06219" lon="13.414452">
<time>2021-08-22T10:33:18Z</time>
</trkpt>
<trkpt lat="50.062164" lon="13.414546">
<time>2021-08-22T10:33:19Z</time>
</trkpt>
<trkpt lat="50.062136" lon="13.414638">
<time>2021-08-22T10:33:20Z</time>
</trkpt>
<trkpt lat="50.06211" lon="13.414733">
<time>2021-08-22T10:33:21Z</time>
</trkpt>
<trkpt lat="50.062082" lon="13.414825">
<time>2021-08-22T10:33:22Z</time>
</trkpt>
<trkpt lat="50.062057" lon="13.414914">
<time>2021-08-22T10:33:23Z</time>
</trkpt>
<trkpt lat="50.06203" lon="13.415003">
<time>2021-08-22T10:33:24Z</time>
</trkpt>
<trkpt lat="50.062008" lon="13.41509">
<time>2021-08-22T10:33:25Z</time>
</trkpt>
<trkpt lat="50.061988" lon="13.415181">
<time>2021-08-22T10:33:26Z</time>
</trkpt>
<trkpt lat="50.061965" lon="13.415269">
<time>2021-08-22T10:33:27Z</time>
</trkpt>
<trkpt lat="50.061936" lon="13.415362">
<time>2021-08-22T10:33:28Z</time>
</trkpt>
<trkpt lat="50.061909" lon="13.415451">
<time>2021-08-22T10:33:29Z</time>
</trkpt>
<trkpt lat="50.061886" lon="13.41554">
<time>2021-08-22T10:33:30Z</time>
</trkpt>
<trkpt lat="50.061867" lon="13.415632">
<time>2021-08-22T10:33:31Z</time>
</trkpt>
<trkpt lat="50.061851" lon="13.41572">
<time>2021-08-22T10:33:32Z</time>
</trkpt>
<trkpt lat="50.061831" lon="13.415808">
<time>2021-08-22T10:33:33Z</time>
</trkpt>
<trkpt lat="50.06181" lon="13.415899">
<time>2021-08-22T10:33:34Z</time>
</trkpt>
<trkpt lat="50.061786" lon="13.41599">
<time>2021-08-22T10:33:35Z</time>
</trkpt>
<trkpt lat="50.061761" lon="13.416082">
<time>2021-08-22T10:33:36Z</time>
</trkpt>
<trkpt lat="50.061734" lon="13.416177">
<time>2021-08-22T10:33:37Z</time>
</trkpt>
<trkpt lat="50.061708" lon="13.416276">
<time>2021-08-22T10:33:38Z</time>
</trkpt>
<trkpt lat="50.061684" lon="13.416373">
<time>2021-08-22T10:33:39Z</time>
</trkpt>
<trkpt lat="50.061661" lon="13.416473">
<time>2021-08-22T10:33:40Z</time>
</trkpt>
<trkpt lat="50.061637" lon="13.41657">
<time>2021-08-22T10:33:41Z</time>
</trkpt>
<trkpt lat="50.061613" lon="13.41667">
<time>2021-08-22T10:33:42Z</time>
</trkpt>
<trkpt lat="50.06159" lon="13.416773">
<time>2021-08-22T10:33:43Z</time>
</trkpt>
<trkpt lat="50.061569" lon="13.416875">
<time>2021-08-22T10:33:44Z</time>
</trkpt>
<trkpt lat="50.06155" lon="13.416978">
<time>2021-08-22T10:33:45Z</time>
</trkpt>
<trkpt lat="50.061527" lon="13.417081">
<time>2021-08-22T10:33:46Z</time>
</trkpt>
<trkpt lat="50.061508" lon="13.417179">
<time>2021-08-22T10:33:47Z</time>
</trkpt>
<trkpt lat="50.061478" lon="13.417269">
<time>2021-08-22T10:33:48Z</time>
</trkpt>
<trkpt lat="50.061447" lon="13.417351">
<time>2021-08-22T10:33:49Z</time>
</trkpt>
<trkpt lat="50.061414" lon="13.417405">
<time>2021-08-22T10:33:50Z</time>
</trkpt>
<trkpt lat="50.061371" lon="13.417445">
<time>2021-08-22T10:33:51Z</time>
</trkpt>
<trkpt lat="50.061326" lon="13.417446">
<time>2021-08-22T10:33:52Z</time>
</trkpt>
<trkpt lat="50.06127" lon="13.417442">
<time>2021-08-22T10:33:53Z</time>
</trkpt>
<trkpt lat="50.061207" lon="13.417431">
<time>2021-08-22T10:33:54Z</time>
</trkpt>
<trkpt lat="50.061143" lon="13.417407">
<time>2021-08-22T10:33:55Z</time>
</trkpt>
<trkpt lat="50.061075" lon="13.417384">
<time>2021-08-22T10:33:56Z</time>
</trkpt>
<trkpt lat="50.061007" lon="13.417369">
<time>2021-08-22T10:33:57Z</time>
</trkpt>
<trkpt lat="50.060934" lon="13.417352">
<time>2021-08-22T10:33:58Z</time>
</trkpt>
<trkpt lat="50.060859" lon="13.417339">
<time>2021-08-22T10:33:59Z</time>
</trkpt>
<trkpt lat="50.060783" lon="13.417326">
<time>2021-08-22T10:34:00Z</time>
</trkpt>
<trkpt lat="50.060708" lon="13.417317">
<time>2021-08-22T10:34:01Z</time>
</trkpt>
<trkpt lat="50.06063" lon="13.417309">
<time>2021-08-22T10:34:02Z</time>
</trkpt>
<trkpt lat="50.060553" lon="13.417305">
<time>2021-08-22T10:34:03Z</time>
</trkpt>
<trkpt lat="50.06047" lon="13.417305">
<time>2021-08-22T10:34:04Z</time>
</trkpt>
<trkpt lat="50.060385" lon="13.417307">
<time>2021-08-22T10:34:05Z</time>
</trkpt>
<trkpt lat="50.0603" lon="13.417307">
<time>2021-08-22T10:34:06Z</time>
</trkpt>
<trkpt lat="50.060215" lon="13.417311">
<time>2021-08-22T10:34:07Z</time>
</trkpt>
<trkpt lat="50.060128" lon="13.417314">
<time>2021-08-22T10:34:08Z</time>
</trkpt>
<trkpt lat="50.060044" lon="13.417323">
<time>2021-08-22T10:34:09Z</time>
</trkpt>
<trkpt lat="50.059956" lon="13.417329">
<time>2021-08-22T10:34:10Z</time>
</trkpt>
<trkpt lat="50.059867" lon="13.417335">
<time>2021-08-22T10:34:11Z</time>
</trkpt>
<trkpt lat="50.059776" lon="13.417336">
<time>2021-08-22T10:34:12Z</time>
</trkpt>
<trkpt lat="50.059685" lon="13.417339">
<time>2021-08-22T10:34:13Z</time>
</trkpt>
<trkpt lat="50.059593" lon="13.417339">
<time>2021-08-22T10:34:14Z</time>
</trkpt>
<trkpt lat="50.059504" lon="13.41734">
<time>2021-08-22T10:34:15Z</time>
</trkpt>
<trkpt lat="50.059414" lon="13.417327">
<time>2021-08-22T10:34:16Z</time>
</trkpt>
<trkpt lat="50.059326" lon="13.417319">
<time>2021-08-22T10:34:17Z</time>
</trkpt>
<trkpt lat="50.059235" lon="13.417316">
<time>2021-08-22T10:34:18Z</time>
</trkpt>
<trkpt lat="50.059149" lon="13.417326">
<time>2021-08-22T10:34:19Z</time>
</trkpt>
<trkpt lat="50.059063" lon="13.41733">
<time>2021-08-22T10:34:20Z</time>
</trkpt>
<trkpt lat="50.058979" lon="13.417333">
<time>2021-08-22T10:34:21Z</time>
</trkpt>
<trkpt lat="50.058891" lon="13.417321">
<time>2021-08-22T10:34:22Z</time>
</trkpt>
<trkpt lat="50.058804" lon="13.417308">
<time>2021-08-22T10:34:23Z</time>
</trkpt>
<trkpt lat="50.058717" lon="13.41729">
<time>2021-08-22T10:34:24Z</time>
</trkpt>
<trkpt lat="50.058632" lon="13.417271">
<time>2021-08-22T10:34:25Z</time>
</trkpt>
<trkpt lat="50.058544" lon="13.417243">
<time>2021-08-22T10:34:26Z</time>
</trkpt>
<trkpt lat="50.05846" lon="13.417235">
<time>2021-08-22T10:34:27Z</time>
</trkpt>
<trkpt lat="50.058376" lon="13.417216">
<time>2021-08-22T10:34:28Z</time>
</trkpt>
<trkpt lat="50.058295" lon="13.417195">
<time>2021-08-22T10:34:29Z</time>
</trkpt>
<trkpt lat="50.058218" lon="13.417171">
<time>2021-08-22T10:34:30Z</time>
</trkpt>
<trkpt lat="50.058147" lon="13.417152">
<time>2021-08-22T10:34:31Z</time>
</trkpt>
<trkpt lat="50.058073" lon="13.417123">
<time>2021-08-22T10:34:32Z</time>
</trkpt>
<trkpt lat="50.058009" lon="13.417109">
<time>2021-08-22T10:34:33Z</time>
</trkpt>
<trkpt lat="50.057943" lon="13.417069">
<time>2021-08-22T10:34:34Z</time>
</trkpt>
<trkpt lat="50.057887" lon="13.417049">
<time>2021-08-22T10:34:35Z</time>
</trkpt>
<trkpt lat="50.057834" lon="13.41703">
<time>2021-08-22T10:34:36Z</time>
</trkpt>
<trkpt lat="50.057809" lon="13.41707">
<time>2021-08-22T10:34:37Z</time>
</trkpt>
<trkpt lat="50.057796" lon="13.417115">
<time>2021-08-22T10:34:38Z</time>
</trkpt>
<trkpt lat="50.057788" lon="13.41717">
<time>2021-08-22T10:34:39Z</time>
</trkpt>
<trkpt lat="50.057786" lon="13.417246">
<time>2021-08-22T10:34:40Z</time>
</trkpt>
<trkpt lat="50.057786" lon="13.417325">
<time>2021-08-22T10:34:41Z</time>
</trkpt>
<trkpt lat="50.057773" lon="13.417407">
<time>2021-08-22T10:34:42Z</time>
</trkpt>
<trkpt lat="50.057767" lon="13.417492">
<time>2021-08-22T10:34:43Z</time>
</trkpt>
<trkpt lat="50.057763" lon="13.417585">
<time>2021-08-22T10:34:44Z</time>
</trkpt>
<trkpt lat="50.057764" lon="13.417673">
<time>2021-08-22T10:34:45Z</time>
</trkpt>
<trkpt lat="50.057759" lon="13.417762">
<time>2021-08-22T10:34:46Z</time>
</trkpt>
<trkpt lat="50.057737" lon="13.417855">
<time>2021-08-22T10:34:47Z</time>
</trkpt>
<trkpt lat="50.057714" lon="13.417953">
<time>2021-08-22T10:34:48Z</time>
</trkpt>
<trkpt lat="50.057701" lon="13.418055">
<time>2021-08-22T10:34:49Z</time>
</trkpt>
<trkpt lat="50.057694" lon="13.418162">
<time>2021-08-22T10:34:50Z</time>
</trkpt>
<trkpt lat="50.057688" lon="13.418271">
<time>2021-08-22T10:34:51Z</time>
</trkpt>
<trkpt lat="50.057683" lon="13.418379">
<time>2021-08-22T10:34:52Z</time>
</trkpt>
<trkpt lat="50.057665" lon="13.418487">
<time>2021-08-22T10:34:53Z</time>
</trkpt>
<trkpt lat="50.057654" lon="13.418596">
<time>2021-08-22T10:34:54Z</time>
</trkpt>
<trkpt lat="50.057651" lon="13.418699">
<time>2021-08-22T10:34:55Z</time>
</trkpt>
<trkpt lat="50.057644" lon="13.418801">
<time>2021-08-22T10:34:56Z</time>
</trkpt>
<trkpt lat="50.057629" lon="13.418902">
<time>2021-08-22T10:34:57Z</time>
</trkpt>
<trkpt lat="50.057608" lon="13.418997">
<time>2021-08-22T10:34:58Z</time>
</trkpt>
<trkpt lat="50.057591" lon="13.419079">
<time>2021-08-22T10:34:59Z</time>
</trkpt>
<trkpt lat="50.057573" lon="13.419156">
<time>2021-08-22T10:35:00Z</time>
</trkpt>
<trkpt lat="50.057553" lon="13.41923">
<time>2021-08-22T10:35:01Z</time>
</trkpt>
<trkpt lat="50.05754" lon="13.419306">
<time>2021-08-22T10:35:02Z</time>
</trkpt>
<trkpt lat="50.057523" lon="13.419386">
<time>2021-08-22T10:35:03Z</time>
</trkpt>
<trkpt lat="50.05751" lon="13.419474">
<time>2021-08-22T10:35:04Z</time>
</trkpt>
<trkpt lat="50.057496" lon="13.419565">
<time>2021-08-22T10:35:05Z</time>
</trkpt>
<trkpt lat="50.057489" lon="13.419644">
<time>2021-08-22T10:35:06Z</time>
</trkpt>
<trkpt lat="50.057483" lon="13.419718">
<time>2021-08-22T10:35:07Z</time>
</trkpt>
<trkpt lat="50.057477" lon="13.419783">
<time>2021-08-22T10:35:08Z</time>
</trkpt>
<trkpt lat="50.057468" lon="13.419852">
<time>2021-08-22T10:35:09Z</time>
</trkpt>
<trkpt lat="50.057451" lon="13.41993">
<time>2021-08-22T10:35:10Z</time>
</trkpt>
<trkpt lat="50.057434" lon="13.420018">
<time>2021-08-22T10:35:11Z</time>
</trkpt>
<trkpt lat="50.057427" lon="13.420107">
<time>2021-08-22T10:35:12Z</time>
</trkpt>
<trkpt lat="50.057424" lon="13.420196">
<time>2021-08-22T10:35:13Z</time>
</trkpt>
<trkpt lat="50.057415" lon="13.420288">
<time>2021-08-22T10:35:14Z</time>
</trkpt>
<trkpt lat="50.057406" lon="13.420387">
<time>2021-08-22T10:35:15Z</time>
</trkpt>
<trkpt lat="50.057397" lon="13.420485">
<time>2021-08-22T10:35:16Z</time>
</trkpt>
<trkpt lat="50.057389" lon="13.420582">
<time>2021-08-22T10:35:17Z</time>
</trkpt>
<trkpt lat="50.057377" lon="13.42067">
<time>2021-08-22T10:35:18Z</time>
</trkpt>
<trkpt lat="50.057353" lon="13.420746">
<time>2021-08-22T10:35:19Z</time>
</trkpt>
<trkpt lat="50.05732" lon="13.420825">
<time>2021-08-22T10:35:20Z</time>
</trkpt>
<trkpt lat="50.05728" lon="13.420908">
<time>2021-08-22T10:35:21Z</time>
</trkpt>
<trkpt lat="50.057234" lon="13.420972">
<time>2021-08-22T10:35:22Z</time>
</trkpt>
<trkpt lat="50.05719" lon="13.421006">
<time>2021-08-22T10:35:23Z</time>
</trkpt>
<trkpt lat="50.057141" lon="13.421026">
<time>2021-08-22T10:35:24Z</time>
</trkpt>
<trkpt lat="50.057085" lon="13.421059">
<time>2021-08-22T10:35:25Z</time>
</trkpt>
<trkpt lat="50.057039" lon="13.421079">
<time>2021-08-22T10:35:26Z</time>
</trkpt>
<trkpt lat="50.056986" lon="13.421095">
<time>2021-08-22T10:35:27Z</time>
</trkpt>
<trkpt lat="50.056926" lon="13.421093">
<time>2021-08-22T10:35:28Z</time>
</trkpt>
<trkpt lat="50.056872" lon="13.421112">
<time>2021-08-22T10:35:29Z</time>
</trkpt>
<trkpt lat="50.056819" lon="13.421137">
<time>2021-08-22T10:35:30Z</time>
</trkpt>
<trkpt lat="50.056765" lon="13.421155">
<time>2021-08-22T10:35:31Z</time>
</trkpt>
<trkpt lat="50.056704" lon="13.42116">
<time>2021-08-22T10:35:32Z</time>
</trkpt>
<trkpt lat="50.056644" lon="13.421165">
<time>2021-08-22T10:35:33Z</time>
</trkpt>
<trkpt lat="50.056575" lon="13.421161">
<time>2021-08-22T10:35:34Z</time>
</trkpt>
<trkpt lat="50.056506" lon="13.421158">
<time>2021-08-22T10:35:35Z</time>
</trkpt>
<trkpt lat="50.056434" lon="13.421165">
<time>2021-08-22T10:35:36Z</time>
</trkpt>
<trkpt lat="50.056367" lon="13.421174">
<time>2021-08-22T10:35:37Z</time>
</trkpt>
<trkpt lat="50.0563" lon="13.421185">
<time>2021-08-22T10:35:38Z</time>
</trkpt>
<trkpt lat="50.056242" lon="13.421189">
<time>2021-08-22T10:35:39Z</time>
</trkpt>
<trkpt lat="50.056211" lon="13.421241">
<time>2021-08-22T10:35:40Z</time>
</trkpt>
<trkpt lat="50.056192" lon="13.421307">
<time>2021-08-22T10:35:41Z</time>
</trkpt>
<trkpt lat="50.05619" lon="13.42137">
<time>2021-08-22T10:35:42Z</time>
</trkpt>
<trkpt lat="50.056196" lon="13.421429">
<time>2021-08-22T10:35:43Z</time>
</trkpt>
<trkpt lat="50.0562" lon="13.421476">
<time>2021-08-22T10:35:44Z</time>
</trkpt>
<trkpt lat="50.056206" lon="13.421514">
<time>2021-08-22T10:35:45Z</time>
</trkpt>
<trkpt lat="50.056216" lon="13.421558">
<time>2021-08-22T10:35:46Z</time>
</trkpt>
<trkpt lat="50.056224" lon="13.421603">
<time>2021-08-22T10:35:47Z</time>
</trkpt>
<trkpt lat="50.05623" lon="13.421654">
<time>2021-08-22T10:35:48Z</time>
</trkpt>
<trkpt lat="50.056232" lon="13.421701">
<time>2021-08-22T10:35:49Z</time>
</trkpt>
<trkpt lat="50.056231" lon="13.421756">
<time>2021-08-22T10:35:50Z</time>
</trkpt>
<trkpt lat="50.056234" lon="13.421808">
<time>2021-08-22T10:35:51Z</time>
</trkpt>
<trkpt lat="50.056229" lon="13.421849">
<time>2021-08-22T10:35:52Z</time>
</trkpt>
<trkpt lat="50.05623" lon="13.421897">
<time>2021-08-22T10:35:53Z</time>
</trkpt>
<trkpt lat="50.056235" lon="13.421958">
<time>2021-08-22T10:35:54Z</time>
</trkpt>
<trkpt lat="50.056239" lon="13.422014">
<time>2021-08-22T10:35:55Z</time>
</trkpt>
<trkpt lat="50.05624" lon="13.422075">
<time>2021-08-22T10:35:56Z</time>
</trkpt>
<trkpt lat="50.056246" lon="13.422136">
<time>2021-08-22T10:35:57Z</time>
</trkpt>
<trkpt lat="50.056253" lon="13.422188">
<time>2021-08-22T10:35:58Z</time>
</trkpt>
<trkpt lat="50.056257" lon="13.422243">
<time>2021-08-22T10:35:59Z</time>
</trkpt>
<trkpt lat="50.056268" lon="13.422308">
<time>2021-08-22T10:36:00Z</time>
</trkpt>
<trkpt lat="50.056279" lon="13.422387">
<time>2021-08-22T10:36:01Z</time>
</trkpt>
<trkpt lat="50.056293" lon="13.422471">
<time>2021-08-22T10:36:02Z</time>
</trkpt>
<trkpt lat="50.056305" lon="13.422544">
<time>2021-08-22T10:36:03Z</time>
</trkpt>
<trkpt lat="50.056311" lon="13.422625">
<time>2021-08-22T10:36:04Z</time>
</trkpt>
<trkpt lat="50.056321" lon="13.4227">
<time>2021-08-22T10:36:05Z</time>
</trkpt>
<trkpt lat="50.056337" lon="13.422769">
<time>2021-08-22T10:36:06Z</time>
</trkpt>
<trkpt lat="50.056356" lon="13.422841">
<time>2021-08-22T10:36:07Z</time>
</trkpt>
<trkpt lat="50.056381" lon="13.422924">
<time>2021-08-22T10:36:08Z</time>
</trkpt>
<trkpt lat="50.056408" lon="13.423008">
<time>2021-08-22T10:36:09Z</time>
</trkpt>
<trkpt lat="50.056435" lon="13.423091">
<time>2021-08-22T10:36:10Z</time>
</trkpt>
<trkpt lat="50.056458" lon="13.423173">
<time>2021-08-22T10:36:11Z</time>
</trkpt>
<trkpt lat="50.056477" lon="13.423266">
<time>2021-08-22T10:36:12Z</time>
</trkpt>
<trkpt lat="50.056485" lon="13.423352">
<time>2021-08-22T10:36:13Z</time>
</trkpt>
<trkpt lat="50.056483" lon="13.423426">
<time>2021-08-22T10:36:14Z</time>
</trkpt>
<trkpt lat="50.056478" lon="13.423489">
<time>2021-08-22T10:36:15Z</time>
</trkpt>
<trkpt lat="50.056475" lon="13.423555">
<time>2021-08-22T10:36:16Z</time>
</trkpt>
<trkpt lat="50.05648" lon="13.423614">
<time>2021-08-22T10:36:17Z</time>
</trkpt>
<trkpt lat="50.056492" lon="13.423672">
<time>2021-08-22T10:36:18Z</time>
</trkpt>
<trkpt lat="50.056502" lon="13.423739">
<time>2021-08-22T10:36:19Z</time>
</trkpt>
<trkpt lat="50.056514" lon="13.423805">
<time>2021-08-22T10:36:20Z</time>
</trkpt>
<trkpt lat="50.056517" lon="13.423872">
<time>2021-08-22T10:36:21Z</time>
</trkpt>
<trkpt lat="50.056523" lon="13.423937">
<time>2021-08-22T10:36:22Z</time>
</trkpt>
<trkpt lat="50.056531" lon="13.423992">
<time>2021-08-22T10:36:23Z</time>
</trkpt>
<trkpt lat="50.056537" lon="13.424044">
<time>2021-08-22T10:36:24Z</time>
</trkpt>
<trkpt lat="50.056542" lon="13.424117">
<time>2021-08-22T10:36:25Z</time>
</trkpt>
<trkpt lat="50.056548" lon="13.424177">
<time>2021-08-22T10:36:26Z</time>
</trkpt>
<trkpt lat="50.056562" lon="13.424243">
<time>2021-08-22T10:36:27Z</time>
</trkpt>
<trkpt lat="50.05658" lon="13.424309">
<time>2021-08-22T10:36:28Z</time>
</trkpt>
<trkpt lat="50.056589" lon="13.424388">
<time>2021-08-22T10:36:29Z</time>
</trkpt>
<trkpt lat="50.056603" lon="13.424461">
<time>2021-08-22T10:36:30Z</time>
</trkpt>
<trkpt lat="50.056613" lon="13.424532">
<time>2021-08-22T10:36:31Z</time>
</trkpt>
<trkpt lat="50.056621" lon="13.424607">
<time>2021-08-22T10:36:32Z</time>
</trkpt>
<trkpt lat="50.056629" lon="13.424675">
<time>2021-08-22T10:36:33Z</time>
</trkpt>
<trkpt lat="50.05663" lon="13.424761">
<time>2021-08-22T10:36:34Z</time>
</trkpt>
<trkpt lat="50.056637" lon="13.424833">
<time>2021-08-22T10:36:35Z</time>
</trkpt>
<trkpt lat="50.056641" lon="13.424914">
<time>2021-08-22T10:36:36Z</time>
</trkpt>
<trkpt lat="50.05665" lon="13.424981">
<time>2021-08-22T10:36:37Z</time>
</trkpt>
<trkpt lat="50.056653" lon="13.425058">
<time>2021-08-22T10:36:38Z</time>
</trkpt>
<trkpt lat="50.056656" lon="13.425126">
<time>2021-08-22T10:36:39Z</time>
</trkpt>
<trkpt lat="50.056663" lon="13.4252">
<time>2021-08-22T10:36:40Z</time>
</trkpt>
<trkpt lat="50.056668" lon="13.425276">
<time>2021-08-22T10:36:41Z</time>
</trkpt>
<trkpt lat="50.056665" lon="13.425345">
<time>2021-08-22T10:36:42Z</time>
</trkpt>
<trkpt lat="50.056673" lon="13.425404">
<time>2021-08-22T10:36:43Z</time>
</trkpt>
<trkpt lat="50.056687" lon="13.425462">
<time>2021-08-22T10:36:44Z</time>
</trkpt>
<trkpt lat="50.056696" lon="13.425515">
<time>2021-08-22T10:36:45Z</time>
</trkpt>
<trkpt lat="50.0567" lon="13.425584">
<time>2021-08-22T10:36:46Z</time>
</trkpt>
<trkpt lat="50.056706" lon="13.425645">
<time>2021-08-22T10:36:47Z</time>
</trkpt>
<trkpt lat="50.056718" lon="13.425704">
<time>2021-08-22T10:36:48Z</time>
</trkpt>
<trkpt lat="50.056728" lon="13.42576">
<time>2021-08-22T10:36:49Z</time>
</trkpt>
<trkpt lat="50.056733" lon="13.42581">
<time>2021-08-22T10:36:50Z</time>
</trkpt>
<trkpt lat="50.056737" lon="13.425864">
<time>2021-08-22T10:36:51Z</time>
</trkpt>
<trkpt lat="50.056745" lon="13.425921">
<time>2021-08-22T10:36:52Z</time>
</trkpt>
<trkpt lat="50.056749" lon="13.425977">
<time>2021-08-22T10:36:53Z</time>
</trkpt>
<trkpt lat="50.056752" lon="13.426036">
<time>2021-08-22T10:36:54Z</time>
</trkpt>
<trkpt lat="50.056753" lon="13.426091">
<time>2021-08-22T10:36:55Z</time>
</trkpt>
<trkpt lat="50.056744" lon="13.426146">
<time>2021-08-22T10:36:56Z</time>
</trkpt>
<trkpt lat="50.056745" lon="13.426214">
<time>2021-08-22T10:36:57Z</time>
</trkpt>
<trkpt lat="50.056749" lon="13.426275">
<time>2021-08-22T10:36:58Z</time>
</trkpt>
<trkpt lat="50.056757" lon="13.426333">
<time>2021-08-22T10:36:59Z</time>
</trkpt>
<trkpt lat="50.056767" lon="13.426392">
<time>2021-08-22T10:37:00Z</time>
</trkpt>
<trkpt lat="50.056778" lon="13.426443">
<time>2021-08-22T10:37:01Z</time>
</trkpt>
<trkpt lat="50.056791" lon="13.426503">
<time>2021-08-22T10:37:02Z</time>
</trkpt>
<trkpt lat="50.056799" lon="13.426568">
<time>2021-08-22T10:37:03Z</time>
</trkpt>
<trkpt lat="50.056811" lon="13.426629">
<time>2021-08-22T10:37:04Z</time>
</trkpt>
<trkpt lat="50.05683" lon="13.426688">
<time>2021-08-22T10:37:05Z</time>
</trkpt>
<trkpt lat="50.056851" lon="13.426731">
<time>2021-08-22T10:37:06Z</time>
</trkpt>
<trkpt lat="50.056865" lon="13.426775">
<time>2021-08-22T10:37:07Z</time>
</trkpt>
<trkpt lat="50.056873" lon="13.42682">
<time>2021-08-22T10:37:08Z</time>
</trkpt>
<trkpt lat="50.056878" lon="13.426875">
<time>2021-08-22T10:37:09Z</time>
</trkpt>
<trkpt lat="50.056883" lon="13.426931">
<time>2021-08-22T10:37:10Z</time>
</trkpt>
<trkpt lat="50.056888" lon="13.426988">
<time>2021-08-22T10:37:11Z</time>
</trkpt>
<trkpt lat="50.056892" lon="13.427047">
<time>2021-08-22T10:37:12Z</time>
</trkpt>
<trkpt lat="50.056901" lon="13.427107">
<time>2021-08-22T10:37:13Z</time>
</trkpt>
<trkpt lat="50.056913" lon="13.42717">
<time>2021-08-22T10:37:14Z</time>
</trkpt>
<trkpt lat="50.056917" lon="13.427233">
<time>2021-08-22T10:37:15Z</time>
</trkpt>
<trkpt lat="50.05692" lon="13.4273">
<time>2021-08-22T10:37:16Z</time>
</trkpt>
<trkpt lat="50.056934" lon="13.427371">
<time>2021-08-22T10:37:17Z</time>
</trkpt>
<trkpt lat="50.056951" lon="13.427433">
<time>2021-08-22T10:37:18Z</time>
</trkpt>
<trkpt lat="50.056968" lon="13.427497">
<time>2021-08-22T10:37:19Z</time>
</trkpt>
<trkpt lat="50.056992" lon="13.427559">
<time>2021-08-22T10:37:20Z</time>
</trkpt>
<trkpt lat="50.05702" lon="13.427621">
<time>2021-08-22T10:37:21Z</time>
</trkpt>
<trkpt lat="50.057048" lon="13.427683">
<time>2021-08-22T10:37:22Z</time>
</trkpt>
<trkpt lat="50.057072" lon="13.427733">
<time>2021-08-22T10:37:23Z</time>
</trkpt>
<trkpt lat="50.057089" lon="13.427792">
<time>2021-08-22T10:37:24Z</time>
</trkpt>
<trkpt lat="50.057112" lon="13.42785">
<time>2021-08-22T10:37:25Z</time>
</trkpt>
<trkpt lat="50.057128" lon="13.427917">
<time>2021-08-22T10:37:26Z</time>
</trkpt>
<trkpt lat="50.057145" lon="13.42798">
<time>2021-08-22T10:37:27Z</time>
</trkpt>
<trkpt lat="50.05716" lon="13.428038">
<time>2021-08-22T10:37:28Z</time>
</trkpt>
<trkpt lat="50.05718" lon="13.428096">
<time>2021-08-22T10:37:29Z</time>
</trkpt>
<trkpt lat="50.057198" lon="13.428148">
<time>2021-08-22T10:37:30Z</time>
</trkpt>
<trkpt lat="50.057218" lon="13.428194">
<time>2021-08-22T10:37:31Z</time>
</trkpt>
<trkpt lat="50.057235" lon="13.428237">
<time>2021-08-22T10:37:32Z</time>
</trkpt>
<trkpt lat="50.057254" lon="13.428286">
<time>2021-08-22T10:37:33Z</time>
</trkpt>
<trkpt lat="50.057269" lon="13.42835">
<time>2021-08-22T10:37:34Z</time>
</trkpt>
<trkpt lat="50.057286" lon="13.428401">
<time>2021-08-22T10:37:35Z</time>
</trkpt>
<trkpt lat="50.057303" lon="13.42845">
<time>2021-08-22T10:37:36Z</time>
</trkpt>
<trkpt lat="50.057308" lon="13.428497">
<time>2021-08-22T10:37:37Z</time>
</trkpt>
<trkpt lat="50.057322" lon="13.428546">
<time>2021-08-22T10:37:38Z</time>
</trkpt>
<trkpt lat="50.057341" lon="13.428593">
<time>2021-08-22T10:37:39Z</time>
</trkpt>
<trkpt lat="50.057351" lon="13.428649">
<time>2021-08-22T10:37:40Z</time>
</trkpt>
<trkpt lat="50.057362" lon="13.428703">
<time>2021-08-22T10:37:41Z</time>
</trkpt>
<trkpt lat="50.057377" lon="13.428761">
<time>2021-08-22T10:37:42Z</time>
</trkpt>
<trkpt lat="50.057387" lon="13.428812">
<time>2021-08-22T10:37:43Z</time>
</trkpt>
<trkpt lat="50.057395" lon="13.42886">
<time>2021-08-22T10:37:44Z</time>
</trkpt>
<trkpt lat="50.057409" lon="13.428906">
<time>2021-08-22T10:37:45Z</time>
</trkpt>
<trkpt lat="50.057424" lon="13.42896">
<time>2021-08-22T10:37:46Z</time>
</trkpt>
<trkpt lat="50.057439" lon="13.429004">
<time>2021-08-22T10:37:47Z</time>
</trkpt>
<trkpt lat="50.057455" lon="13.429043">
<time>2021-08-22T10:37:48Z</time>
</trkpt>
<trkpt lat="50.057465" lon="13.429087">
<time>2021-08-22T10:37:49Z</time>
</trkpt>
<trkpt lat="50.05747" lon="13.429141">
<time>2021-08-22T10:37:50Z</time>
</trkpt>
<trkpt lat="50.05747" lon="13.429183">
<time>2021-08-22T10:37:51Z</time>
</trkpt>
<trkpt lat="50.057473" lon="13.42925">
<time>2021-08-22T10:37:52Z</time>
</trkpt>
<trkpt lat="50.057478" lon="13.429311">
<time>2021-08-22T10:37:53Z</time>
</trkpt>
<trkpt lat="50.057479" lon="13.429377">
<time>2021-08-22T10:37:54Z</time>
</trkpt>
<trkpt lat="50.057472" lon="13.429432">
<time>2021-08-22T10:37:55Z</time>
</trkpt>
<trkpt lat="50.057465" lon="13.429489">
<time>2021-08-22T10:37:56Z</time>
</trkpt>
<trkpt lat="50.057454" lon="13.429558">
<time>2021-08-22T10:37:57Z</time>
</trkpt>
<trkpt lat="50.057448" lon="13.429615">
<time>2021-08-22T10:37:58Z</time>
</trkpt>
<trkpt lat="50.05744" lon="13.42967">
<time>2021-08-22T10:37:59Z</time>
</trkpt>
<trkpt lat="50.057433" lon="13.429727">
<time>2021-08-22T10:38:00Z</time>
</trkpt>
<trkpt lat="50.057422" lon="13.429774">
<time>2021-08-22T10:38:01Z</time>
</trkpt>
<trkpt lat="50.057409" lon="13.429832">
<time>2021-08-22T10:38:02Z</time>
</trkpt>
<trkpt lat="50.057397" lon="13.429893">
<time>2021-08-22T10:38:03Z</time>
</trkpt>
<trkpt lat="50.057382" lon="13.429953">
<time>2021-08-22T10:38:04Z</time>
</trkpt>
<trkpt lat="50.057367" lon="13.430016">
<time>2021-08-22T10:38:05Z</time>
</trkpt>
<trkpt lat="50.057353" lon="13.430073">
<time>2021-08-22T10:38:06Z</time>
</trkpt>
<trkpt lat="50.057339" lon="13.430121">
<time>2021-08-22T10:38:07Z</time>
</trkpt>
<trkpt lat="50.057327" lon="13.43017">
<time>2021-08-22T10:38:08Z</time>
</trkpt>
<trkpt lat="50.057312" lon="13.430227">
<time>2021-08-22T10:38:09Z</time>
</trkpt>
<trkpt lat="50.057297" lon="13.430278">
<time>2021-08-22T10:38:10Z</time>
</trkpt>
<trkpt lat="50.057283" lon="13.430331">
<time>2021-08-22T10:38:11Z</time>
</trkpt>
<trkpt lat="50.057274" lon="13.430385">
<time>2021-08-22T10:38:12Z</time>
</trkpt>
<trkpt lat="50.057263" lon="13.430441">
<time>2021-08-22T10:38:13Z</time>
</trkpt>
<trkpt lat="50.057247" lon="13.430497">
<time>2021-08-22T10:38:14Z</time>
</trkpt>
<trkpt lat="50.057238" lon="13.430553">
<time>2021-08-22T10:38:15Z</time>
</trkpt>
<trkpt lat="50.057233" lon="13.430607">
<time>2021-08-22T10:38:16Z</time>
</trkpt>
<trkpt lat="50.057231" lon="13.430661">
<time>2021-08-22T10:38:17Z</time>
</trkpt>
<trkpt lat="50.057229" lon="13.430713">
<time>2021-08-22T10:38:18Z</time>
</trkpt>
<trkpt lat="50.05723" lon="13.430766">
<time>2021-08-22T10:38:19Z</time>
</trkpt>
<trkpt lat="50.057233" lon="13.430819">
<time>2021-08-22T10:38:20Z</time>
</trkpt>
<trkpt lat="50.057235" lon="13.430877">
<time>2021-08-22T10:38:21Z</time>
</trkpt>
<trkpt lat="50.05724" lon="13.430934">
<time>2021-08-22T10:38:22Z</time>
</trkpt>
<trkpt lat="50.057238" lon="13.430994">
<time>2021-08-22T10:38:23Z</time>
</trkpt>
<trkpt lat="50.05724" lon="13.431052">
<time>2021-08-22T10:38:24Z</time>
</trkpt>
<trkpt lat="50.057242" lon="13.431106">
<time>2021-08-22T10:38:25Z</time>
</trkpt>
<trkpt lat="50.057244" lon="13.431162">
<time>2021-08-22T10:38:26Z</time>
</trkpt>
<trkpt lat="50.057246" lon="13.431222">
<time>2021-08-22T10:38:27Z</time>
</trkpt>
<trkpt lat="50.057247" lon="13.431277">
<time>2021-08-22T10:38:28Z</time>
</trkpt>
<trkpt lat="50.057252" lon="13.431335">
<time>2021-08-22T10:38:29Z</time>
</trkpt>
<trkpt lat="50.057253" lon="13.431401">
<time>2021-08-22T10:38:30Z</time>
</trkpt>
<trkpt lat="50.057257" lon="13.431473">
<time>2021-08-22T10:38:31Z</time>
</trkpt>
<trkpt lat="50.057264" lon="13.431545">
<time>2021-08-22T10:38:32Z</time>
</trkpt>
<trkpt lat="50.057275" lon="13.431616">
<time>2021-08-22T10:38:33Z</time>
</trkpt>
<trkpt lat="50.057284" lon="13.431687">
<time>2021-08-22T10:38:34Z</time>
</trkpt>
<trkpt lat="50.057286" lon="13.431758">
<time>2021-08-22T10:38:35Z</time>
</trkpt>
<trkpt lat="50.057291" lon="13.431831">
<time>2021-08-22T10:38:36Z</time>
</trkpt>
<trkpt lat="50.057291" lon="13.431902">
<time>2021-08-22T10:38:37Z</time>
</trkpt>
<trkpt lat="50.057273" lon="13.43197">
<time>2021-08-22T10:38:38Z</time>
</trkpt>
<trkpt lat="50.057278" lon="13.432038">
<time>2021-08-22T10:38:39Z</time>
</trkpt>
<trkpt lat="50.057284" lon="13.4321">
<time>2021-08-22T10:38:40Z</time>
</trkpt>
<trkpt lat="50.057283" lon="13.432165">
<time>2021-08-22T10:38:41Z</time>
</trkpt>
<trkpt lat="50.057284" lon="13.432229">
<time>2021-08-22T10:38:42Z</time>
</trkpt>
<trkpt lat="50.057287" lon="13.432288">
<time>2021-08-22T10:38:43Z</time>
</trkpt>
<trkpt lat="50.057296" lon="13.432346">
<time>2021-08-22T10:38:44Z</time>
</trkpt>
<trkpt lat="50.057309" lon="13.432405">
<time>2021-08-22T10:38:45Z</time>
</trkpt>
<trkpt lat="50.057322" lon="13.432458">
<time>2021-08-22T10:38:46Z</time>
</trkpt>
<trkpt lat="50.057342" lon="13.432495">
<time>2021-08-22T10:38:47Z</time>
</trkpt>
<trkpt lat="50.057368" lon="13.432506">
<time>2021-08-22T10:38:48Z</time>
</trkpt>
<trkpt lat="50.057393" lon="13.43249">
<time>2021-08-22T10:38:49Z</time>
</trkpt>
<trkpt lat="50.057419" lon="13.432481">
<time>2021-08-22T10:38:50Z</time>
</trkpt>
<trkpt lat="50.057449" lon="13.432477">
<time>2021-08-22T10:38:51Z</time>
</trkpt>
<trkpt lat="50.057483" lon="13.432483">
<time>2021-08-22T10:38:52Z</time>
</trkpt>
<trkpt lat="50.057519" lon="13.432495">
<time>2021-08-22T10:38:53Z</time>
</trkpt>
<trkpt lat="50.057556" lon="13.432511">
<time>2021-08-22T10:38:54Z</time>
</trkpt>
<trkpt lat="50.057588" lon="13.432524">
<time>2021-08-22T10:38:55Z</time>
</trkpt>
<trkpt lat="50.057619" lon="13.432538">
<time>2021-08-22T10:38:56Z</time>
</trkpt>
<trkpt lat="50.057655" lon="13.432558">
<time>2021-08-22T10:38:57Z</time>
</trkpt>
<trkpt lat="50.057688" lon="13.432578">
<time>2021-08-22T10:38:58Z</time>
</trkpt>
<trkpt lat="50.057718" lon="13.432593">
<time>2021-08-22T10:38:59Z</time>
</trkpt>
<trkpt lat="50.057753" lon="13.432613">
<time>2021-08-22T10:39:00Z</time>
</trkpt>
<trkpt lat="50.057791" lon="13.432626">
<time>2021-08-22T10:39:01Z</time>
</trkpt>
<trkpt lat="50.057828" lon="13.432637">
<time>2021-08-22T10:39:02Z</time>
</trkpt>
<trkpt lat="50.057869" lon="13.432652">
<time>2021-08-22T10:39:03Z</time>
</trkpt>
<trkpt lat="50.057912" lon="13.43267">
<time>2021-08-22T10:39:04Z</time>
</trkpt>
<trkpt lat="50.057945" lon="13.432683">
<time>2021-08-22T10:39:05Z</time>
</trkpt>
<trkpt lat="50.057979" lon="13.432697">
<time>2021-08-22T10:39:06Z</time>
</trkpt>
<trkpt lat="50.058008" lon="13.432713">
<time>2021-08-22T10:39:07Z</time>
</trkpt>
<trkpt lat="50.058037" lon="13.432737">
<time>2021-08-22T10:39:08Z</time>
</trkpt>
<trkpt lat="50.058069" lon="13.432762">
<time>2021-08-22T10:39:09Z</time>
</trkpt>
<trkpt lat="50.058099" lon="13.432782">
<time>2021-08-22T10:39:10Z</time>
</trkpt>
<trkpt lat="50.05813" lon="13.432797">
<time>2021-08-22T10:39:11Z</time>
</trkpt>
<trkpt lat="50.058161" lon="13.432814">
<time>2021-08-22T10:39:12Z</time>
</trkpt>
<trkpt lat="50.058217" lon="13.432835">
<time>2021-08-22T10:39:13Z</time>
</trkpt>
<trkpt lat="50.058268" lon="13.432848">
<time>2021-08-22T10:39:14Z</time>
</trkpt>
<trkpt lat="50.058316" lon="13.432868">
<time>2021-08-22T10:39:15Z</time>
</trkpt>
<trkpt lat="50.058357" lon="13.432886">
<time>2021-08-22T10:39:16Z</time>
</trkpt>
<trkpt lat="50.058399" lon="13.432901">
<time>2021-08-22T10:39:17Z</time>
</trkpt>
<trkpt lat="50.058454" lon="13.432913">
<time>2021-08-22T10:39:18Z</time>
</trkpt>
<trkpt lat="50.058503" lon="13.432929">
<time>2021-08-22T10:39:19Z</time>
</trkpt>
<trkpt lat="50.058538" lon="13.432946">
<time>2021-08-22T10:39:20Z</time>
</trkpt>
<trkpt lat="50.058576" lon="13.432973">
<time>2021-08-22T10:39:21Z</time>
</trkpt>
<trkpt lat="50.058611" lon="13.433">
<time>2021-08-22T10:39:22Z</time>
</trkpt>
<trkpt lat="50.058645" lon="13.433033">
<time>2021-08-22T10:39:23Z</time>
</trkpt>
<trkpt lat="50.05868" lon="13.433053">
<time>2021-08-22T10:39:24Z</time>
</trkpt>
<trkpt lat="50.058736" lon="13.433072">
<time>2021-08-22T10:39:25Z</time>
</trkpt>
<trkpt lat="50.058789" lon="13.433084">
<time>2021-08-22T10:39:26Z</time>
</trkpt>
<trkpt lat="50.058839" lon="13.433099">
<time>2021-08-22T10:39:27Z</time>
</trkpt>
<trkpt lat="50.058878" lon="13.433124">
<time>2021-08-22T10:39:28Z</time>
</trkpt>
<trkpt lat="50.058911" lon="13.433154">
<time>2021-08-22T10:39:29Z</time>
</trkpt>
<trkpt lat="50.058944" lon="13.433183">
<time>2021-08-22T10:39:30Z</time>
</trkpt>
<trkpt lat="50.058977" lon="13.433203">
<time>2021-08-22T10:39:31Z</time>
</trkpt>
<trkpt lat="50.059018" lon="13.433217">
<time>2021-08-22T10:39:32Z</time>
</trkpt>
<trkpt lat="50.059057" lon="13.433225">
<time>2021-08-22T10:39:33Z</time>
</trkpt>
<trkpt lat="50.059091" lon="13.433226">
<time>2021-08-22T10:39:34Z</time>
</trkpt>
<trkpt lat="50.059138" lon="13.433233">
<time>2021-08-22T10:39:35Z</time>
</trkpt>
<trkpt lat="50.059178" lon="13.433241">
<time>2021-08-22T10:39:36Z</time>
</trkpt>
<trkpt lat="50.059214" lon="13.433253">
<time>2021-08-22T10:39:37Z</time>
</trkpt>
<trkpt lat="50.059249" lon="13.433276">
<time>2021-08-22T10:39:38Z</time>
</trkpt>
<trkpt lat="50.059274" lon="13.433299">
<time>2021-08-22T10:39:39Z</time>
</trkpt>
<trkpt lat="50.059302" lon="13.433323">
<time>2021-08-22T10:39:40Z</time>
</trkpt>
<trkpt lat="50.059337" lon="13.433354">
<time>2021-08-22T10:39:41Z</time>
</trkpt>
<trkpt lat="50.059371" lon="13.43339">
<time>2021-08-22T10:39:42Z</time>
</trkpt>
<trkpt lat="50.059407" lon="13.433427">
<time>2021-08-22T10:39:43Z</time>
</trkpt>
<trkpt lat="50.059446" lon="13.433463">
<time>2021-08-22T10:39:44Z</time>
</trkpt>
<trkpt lat="50.05949" lon="13.43349">
<time>2021-08-22T10:39:45Z</time>
</trkpt>
<trkpt lat="50.059531" lon="13.433507">
<time>2021-08-22T10:39:46Z</time>
</trkpt>
<trkpt lat="50.059576" lon="13.43352">
<time>2021-08-22T10:39:47Z</time>
</trkpt>
<trkpt lat="50.059622" lon="13.433535">
<time>2021-08-22T10:39:48Z</time>
</trkpt>
<trkpt lat="50.05966" lon="13.433544">
<time>2021-08-22T10:39:49Z</time>
</trkpt>
<trkpt lat="50.059707" lon="13.433555">
<time>2021-08-22T10:39:50Z</time>
</trkpt>
<trkpt lat="50.059748" lon="13.433566">
<time>2021-08-22T10:39:51Z</time>
</trkpt>
<trkpt lat="50.059798" lon="13.433582">
<time>2021-08-22T10:39:52Z</time>
</trkpt>
<trkpt lat="50.059839" lon="13.433591">
<time>2021-08-22T10:39:53Z</time>
</trkpt>
<trkpt lat="50.059889" lon="13.433594">
<time>2021-08-22T10:39:54Z</time>
</trkpt>
<trkpt lat="50.059929" lon="13.433576">
<time>2021-08-22T10:39:55Z</time>
</trkpt>
<trkpt lat="50.059971" lon="13.433554">
<time>2021-08-22T10:39:56Z</time>
</trkpt>
<trkpt lat="50.060026" lon="13.433533">
<time>2021-08-22T10:39:57Z</time>
</trkpt>
<trkpt lat="50.060074" lon="13.433511">
<time>2021-08-22T10:39:58Z</time>
</trkpt>
<trkpt lat="50.060119" lon="13.433495">
<time>2021-08-22T10:39:59Z</time>
</trkpt>
<trkpt lat="50.060178" lon="13.433485">
<time>2021-08-22T10:40:00Z</time>
</trkpt>
<trkpt lat="50.060223" lon="13.433481">
<time>2021-08-22T10:40:01Z</time>
</trkpt>
<trkpt lat="50.060266" lon="13.433481">
<time>2021-08-22T10:40:02Z</time>
</trkpt>
<trkpt lat="50.060322" lon="13.433472">
<time>2021-08-22T10:40:03Z</time>
</trkpt>
<trkpt lat="50.060368" lon="13.433449">
<time>2021-08-22T10:40:04Z</time>
</trkpt>
<trkpt lat="50.060409" lon="13.43341">
<time>2021-08-22T10:40:05Z</time>
</trkpt>
<trkpt lat="50.060442" lon="13.43338">
<time>2021-08-22T10:40:06Z</time>
</trkpt>
<trkpt lat="50.060486" lon="13.43338">
<time>2021-08-22T10:40:07Z</time>
</trkpt>
<trkpt lat="50.06051" lon="13.433397">
<time>2021-08-22T10:40:08Z</time>
</trkpt>
<trkpt lat="50.060542" lon="13.433428">
<time>2021-08-22T10:40:09Z</time>
</trkpt>
<trkpt lat="50.060582" lon="13.433469">
<time>2021-08-22T10:40:10Z</time>
</trkpt>
<trkpt lat="50.060619" lon="13.433515">
<time>2021-08-22T10:40:11Z</time>
</trkpt>
<trkpt lat="50.06066" lon="13.433559">
<time>2021-08-22T10:40:12Z</time>
</trkpt>
<trkpt lat="50.060695" lon="13.433598">
<time>2021-08-22T10:40:13Z</time>
</trkpt>
<trkpt lat="50.060738" lon="13.43364">
<time>2021-08-22T10:40:14Z</time>
</trkpt>
<trkpt lat="50.060777" lon="13.43369">
<time>2021-08-22T10:40:15Z</time>
</trkpt>
<trkpt lat="50.060819" lon="13.433747">
<time>2021-08-22T10:40:16Z</time>
</trkpt>
<trkpt lat="50.060866" lon="13.433804">
<time>2021-08-22T10:40:17Z</time>
</trkpt>
<trkpt lat="50.060911" lon="13.433866">
<time>2021-08-22T10:40:18Z</time>
</trkpt>
<trkpt lat="50.060958" lon="13.433922">
<time>2021-08-22T10:40:19Z</time>
</trkpt>
<trkpt lat="50.061003" lon="13.433979">
<time>2021-08-22T10:40:20Z</time>
</trkpt>
<trkpt lat="50.061054" lon="13.434027">
<time>2021-08-22T10:40:21Z</time>
</trkpt>
<trkpt lat="50.061106" lon="13.434074">
<time>2021-08-22T10:40:22Z</time>
</trkpt>
<trkpt lat="50.06116" lon="13.434114">
<time>2021-08-22T10:40:23Z</time>
</trkpt>
<trkpt lat="50.061215" lon="13.434144">
<time>2021-08-22T10:40:24Z</time>
</trkpt>
<trkpt lat="50.061269" lon="13.434154">
<time>2021-08-22T10:40:25Z</time>
</trkpt>
<trkpt lat="50.061329" lon="13.434151">
<time>2021-08-22T10:40:26Z</time>
</trkpt>
<trkpt lat="50.061393" lon="13.434146">
<time>2021-08-22T10:40:27Z</time>
</trkpt>
<trkpt lat="50.061463" lon="13.434132">
<time>2021-08-22T10:40:28Z</time>
</trkpt>
<trkpt lat="50.06153" lon="13.434117">
<time>2021-08-22T10:40:29Z</time>
</trkpt>
<trkpt lat="50.061596" lon="13.434104">
<time>2021-08-22T10:40:30Z</time>
</trkpt>
<trkpt lat="50.061666" lon="13.434094">
<time>2021-08-22T10:40:31Z</time>
</trkpt>
<trkpt lat="50.061738" lon="13.434087">
<time>2021-08-22T10:40:32Z</time>
</trkpt>
<trkpt lat="50.061806" lon="13.434079">
<time>2021-08-22T10:40:33Z</time>
</trkpt>
<trkpt lat="50.061871" lon="13.434071">
<time>2021-08-22T10:40:34Z</time>
</trkpt>
<trkpt lat="50.061941" lon="13.434066">
<time>2021-08-22T10:40:35Z</time>
</trkpt>
<trkpt lat="50.062008" lon="13.434061">
<time>2021-08-22T10:40:36Z</time>
</trkpt>
<trkpt lat="50.062074" lon="13.434051">
<time>2021-08-22T10:40:37Z</time>
</trkpt>
<trkpt lat="50.062134" lon="13.434034">
<time>2021-08-22T10:40:38Z</time>
</trkpt>
<trkpt lat="50.062197" lon="13.434022">
<time>2021-08-22T10:40:39Z</time>
</trkpt>
<trkpt lat="50.062261" lon="13.434004">
<time>2021-08-22T10:40:40Z</time>
</trkpt>
<trkpt lat="50.062323" lon="13.433982">
<time>2021-08-22T10:40:41Z</time>
</trkpt>
<trkpt lat="50.062385" lon="13.433965">
<time>2021-08-22T10:40:42Z</time>
</trkpt>
<trkpt lat="50.06244" lon="13.43395">
<time>2021-08-22T10:40:43Z</time>
</trkpt>
<trkpt lat="50.062497" lon="13.433944">
<time>2021-08-22T10:40:44Z</time>
</trkpt>
<trkpt lat="50.062554" lon="13.43394">
<time>2021-08-22T10:40:45Z</time>
</trkpt>
<trkpt lat="50.062614" lon="13.433933">
<time>2021-08-22T10:40:46Z</time>
</trkpt>
<trkpt lat="50.062671" lon="13.433919">
<time>2021-08-22T10:40:47Z</time>
</trkpt>
<trkpt lat="50.062721" lon="13.433894">
<time>2021-08-22T10:40:48Z</time>
</trkpt>
<trkpt lat="50.06277" lon="13.433863">
<time>2021-08-22T10:40:49Z</time>
</trkpt>
<trkpt lat="50.062816" lon="13.433829">
<time>2021-08-22T10:40:50Z</time>
</trkpt>
<trkpt lat="50.062867" lon="13.433792">
<time>2021-08-22T10:40:51Z</time>
</trkpt>
<trkpt lat="50.06292" lon="13.43375">
<time>2021-08-22T10:40:52Z</time>
</trkpt>
<trkpt lat="50.062976" lon="13.433717">
<time>2021-08-22T10:40:53Z</time>
</trkpt>
<trkpt lat="50.063049" lon="13.433692">
<time>2021-08-22T10:40:54Z</time>
</trkpt>
<trkpt lat="50.063121" lon="13.433673">
<time>2021-08-22T10:40:55Z</time>
</trkpt>
<trkpt lat="50.063189" lon="13.433669">
<time>2021-08-22T10:40:56Z</time>
</trkpt>
<trkpt lat="50.063261" lon="13.433689">
<time>2021-08-22T10:40:57Z</time>
</trkpt>
<trkpt lat="50.063308" lon="13.433737">
<time>2021-08-22T10:40:58Z</time>
</trkpt>
<trkpt lat="50.063366" lon="13.433795">
<time>2021-08-22T10:40:59Z</time>
</trkpt>
<trkpt lat="50.063421" lon="13.433857">
<time>2021-08-22T10:41:00Z</time>
</trkpt>
<trkpt lat="50.063466" lon="13.433931">
<time>2021-08-22T10:41:01Z</time>
</trkpt>
<trkpt lat="50.063499" lon="13.434011">
<time>2021-08-22T10:41:02Z</time>
</trkpt>
<trkpt lat="50.063534" lon="13.434102">
<time>2021-08-22T10:41:03Z</time>
</trkpt>
<trkpt lat="50.063569" lon="13.434189">
<time>2021-08-22T10:41:04Z</time>
</trkpt>
<trkpt lat="50.063607" lon="13.434261">
<time>2021-08-22T10:41:05Z</time>
</trkpt>
<trkpt lat="50.063636" lon="13.434341">
<time>2021-08-22T10:41:06Z</time>
</trkpt>
<trkpt lat="50.063671" lon="13.434419">
<time>2021-08-22T10:41:07Z</time>
</trkpt>
<trkpt lat="50.063703" lon="13.43447">
<time>2021-08-22T10:41:08Z</time>
</trkpt>
<trkpt lat="50.06374" lon="13.434529">
<time>2021-08-22T10:41:09Z</time>
</trkpt>
<trkpt lat="50.063786" lon="13.434558">
<time>2021-08-22T10:41:10Z</time>
</trkpt>
<trkpt lat="50.063832" lon="13.434583">
<time>2021-08-22T10:41:11Z</time>
</trkpt>
<trkpt lat="50.063891" lon="13.434617">
<time>2021-08-22T10:41:12Z</time>
</trkpt>
<trkpt lat="50.063941" lon="13.434656">
<time>2021-08-22T10:41:13Z</time>
</trkpt>
<trkpt lat="50.064014" lon="13.434689">
<time>2021-08-22T10:41:14Z</time>
</trkpt>
<trkpt lat="50.064081" lon="13.434712">
<time>2021-08-22T10:41:15Z</time>
</trkpt>
<trkpt lat="50.064135" lon="13.434721">
<time>2021-08-22T10:41:16Z</time>
</trkpt>
<trkpt lat="50.064169" lon="13.434713">
<time>2021-08-22T10:41:17Z</time>
</trkpt>
<trkpt lat="50.064185" lon="13.4347">
<time>2021-08-22T10:41:18Z</time>
</trkpt>
<trkpt lat="50.064193" lon="13.434699">
<time>2021-08-22T10:41:19Z</time>
</trkpt>
<trkpt lat="50.064197" lon="13.434703">
<time>2021-08-22T10:41:20Z</time>
</trkpt>
<trkpt lat="50.064212" lon="13.434716">
<time>2021-08-22T10:41:21Z</time>
</trkpt>
<trkpt lat="50.06422" lon="13.434717">
<time>2021-08-22T10:41:22Z</time>
</trkpt>
<trkpt lat="50.064234" lon="13.434709">
<time>2021-08-22T10:41:23Z</time>
</trkpt>
<trkpt lat="50.064258" lon="13.434688">
<time>2021-08-22T10:41:24Z</time>
</trkpt>
<trkpt lat="50.064287" lon="13.434658">
<time>2021-08-22T10:41:25Z</time>
</trkpt>
<trkpt lat="50.064317" lon="13.43461">
<time>2021-08-22T10:41:26Z</time>
</trkpt>
<trkpt lat="50.064347" lon="13.434544">
<time>2021-08-22T10:41:27Z</time>
</trkpt>
<trkpt lat="50.064381" lon="13.434465">
<time>2021-08-22T10:41:28Z</time>
</trkpt>
<trkpt lat="50.064418" lon="13.434382">
<time>2021-08-22T10:41:29Z</time>
</trkpt>
<trkpt lat="50.064467" lon="13.434289">
<time>2021-08-22T10:41:30Z</time>
</trkpt>
<trkpt lat="50.064517" lon="13.434206">
<time>2021-08-22T10:41:31Z</time>
</trkpt>
<trkpt lat="50.064563" lon="13.434134">
<time>2021-08-22T10:41:32Z</time>
</trkpt>
<trkpt lat="50.064617" lon="13.43409">
<time>2021-08-22T10:41:33Z</time>
</trkpt>
<trkpt lat="50.064679" lon="13.434067">
<time>2021-08-22T10:41:34Z</time>
</trkpt>
<trkpt lat="50.064742" lon="13.434054">
<time>2021-08-22T10:41:35Z</time>
</trkpt>
<trkpt lat="50.064824" lon="13.434046">
<time>2021-08-22T10:41:36Z</time>
</trkpt>
<trkpt lat="50.064905" lon="13.434047">
<time>2021-08-22T10:41:37Z</time>
</trkpt>
<trkpt lat="50.065" lon="13.434064">
<time>2021-08-22T10:41:38Z</time>
</trkpt>
<trkpt lat="50.065076" lon="13.434094">
<time>2021-08-22T10:41:39Z</time>
</trkpt>
<trkpt lat="50.065184" lon="13.434132">
<time>2021-08-22T10:41:40Z</time>
</trkpt>
<trkpt lat="50.065268" lon="13.434162">
<time>2021-08-22T10:41:41Z</time>
</trkpt>
<trkpt lat="50.065375" lon="13.43419">
<time>2021-08-22T10:41:42Z</time>
</trkpt>
<trkpt lat="50.065468" lon="13.434208">
<time>2021-08-22T10:41:43Z</time>
</trkpt>
<trkpt lat="50.065565" lon="13.43422">
<time>2021-08-22T10:41:44Z</time>
</trkpt>
<trkpt lat="50.065661" lon="13.434223">
<time>2021-08-22T10:41:45Z</time>
</trkpt>
<trkpt lat="50.065781" lon="13.434228">
<time>2021-08-22T10:41:46Z</time>
</trkpt>
<trkpt lat="50.065885" lon="13.434217">
<time>2021-08-22T10:41:47Z</time>
</trkpt>
<trkpt lat="50.065997" lon="13.434178">
<time>2021-08-22T10:41:48Z</time>
</trkpt>
<trkpt lat="50.066094" lon="13.434127">
<time>2021-08-22T10:41:49Z</time>
</trkpt>
<trkpt lat="50.066182" lon="13.434076">
<time>2021-08-22T10:41:50Z</time>
</trkpt>
<trkpt lat="50.066277" lon="13.434012">
<time>2021-08-22T10:41:51Z</time>
</trkpt>
<trkpt lat="50.066366" lon="13.433935">
<time>2021-08-22T10:41:52Z</time>
</trkpt>
<trkpt lat="50.066454" lon="13.433853">
<time>2021-08-22T10:41:53Z</time>
</trkpt>
<trkpt lat="50.066537" lon="13.433764">
<time>2021-08-22T10:41:54Z</time>
</trkpt>
<trkpt lat="50.066619" lon="13.433675">
<time>2021-08-22T10:41:55Z</time>
</trkpt>
<trkpt lat="50.066694" lon="13.433586">
<time>2021-08-22T10:41:56Z</time>
</trkpt>
<trkpt lat="50.066771" lon="13.433495">
<time>2021-08-22T10:41:57Z</time>
</trkpt>
<trkpt lat="50.066843" lon="13.433396">
<time>2021-08-22T10:41:58Z</time>
</trkpt>
<trkpt lat="50.066906" lon="13.433296">
<time>2021-08-22T10:41:59Z</time>
</trkpt>
<trkpt lat="50.066965" lon="13.433203">
<time>2021-08-22T10:42:00Z</time>
</trkpt>
<trkpt lat="50.067027" lon="13.433114">
<time>2021-08-22T10:42:01Z</time>
</trkpt>
<trkpt lat="50.067088" lon="13.43303">
<time>2021-08-22T10:42:02Z</time>
</trkpt>
<trkpt lat="50.067156" lon="13.432947">
<time>2021-08-22T10:42:03Z</time>
</trkpt>
<trkpt lat="50.067218" lon="13.432874">
<time>2021-08-22T10:42:04Z</time>
</trkpt>
<trkpt lat="50.067285" lon="13.4328">
<time>2021-08-22T10:42:05Z</time>
</trkpt>
<trkpt lat="50.067363" lon="13.432716">
<time>2021-08-22T10:42:06Z</time>
</trkpt>
<trkpt lat="50.06743" lon="13.432632">
<time>2021-08-22T10:42:07Z</time>
</trkpt>
<trkpt lat="50.067491" lon="13.432551">
<time>2021-08-22T10:42:08Z</time>
</trkpt>
<trkpt lat="50.067554" lon="13.432471">
<time>2021-08-22T10:42:09Z</time>
</trkpt>
<trkpt lat="50.06762" lon="13.432375">
<time>2021-08-22T10:42:10Z</time>
</trkpt>
<trkpt lat="50.067681" lon="13.43227">
<time>2021-08-22T10:42:11Z</time>
</trkpt>
<trkpt lat="50.067736" lon="13.432164">
<time>2021-08-22T10:42:12Z</time>
</trkpt>
<trkpt lat="50.067789" lon="13.432052">
<time>2021-08-22T10:42:13Z</time>
</trkpt>
<trkpt lat="50.067839" lon="13.431948">
<time>2021-08-22T10:42:14Z</time>
</trkpt>
<trkpt lat="50.067889" lon="13.431843">
<time>2021-08-22T10:42:15Z</time>
</trkpt>
<trkpt lat="50.067932" lon="13.431744">
<time>2021-08-22T10:42:16Z</time>
</trkpt>
<trkpt lat="50.067975" lon="13.43166">
<time>2021-08-22T10:42:17Z</time>
</trkpt>
<trkpt lat="50.068034" lon="13.43157">
<time>2021-08-22T10:42:18Z</time>
</trkpt>
<trkpt lat="50.068086" lon="13.431483">
<time>2021-08-22T10:42:19Z</time>
</trkpt>
<trkpt lat="50.068132" lon="13.431399">
<time>2021-08-22T10:42:20Z</time>
</trkpt>
<trkpt lat="50.06818" lon="13.431323">
<time>2021-08-22T10:42:21Z</time>
</trkpt>
<trkpt lat="50.068229" lon="13.431242">
<time>2021-08-22T10:42:22Z</time>
</trkpt>
<trkpt lat="50.068276" lon="13.431166">
<time>2021-08-22T10:42:23Z</time>
</trkpt>
<trkpt lat="50.068314" lon="13.431106">
<time>2021-08-22T10:42:24Z</time>
</trkpt>
<trkpt lat="50.068378" lon="13.431076">
<time>2021-08-22T10:42:25Z</time>
</trkpt>
<trkpt lat="50.068415" lon="13.431061">
<time>2021-08-22T10:42:26Z</time>
</trkpt>
<trkpt lat="50.068442" lon="13.43106">
<time>2021-08-22T10:42:27Z</time>
</trkpt>
<trkpt lat="50.068451" lon="13.431058">
<time>2021-08-22T10:42:28Z</time>
</trkpt>
<trkpt lat="50.068457" lon="13.431065">
<time>2021-08-22T10:42:29Z</time>
</trkpt>
<trkpt lat="50.068466" lon="13.431056">
<time>2021-08-22T10:42:30Z</time>
</trkpt>
<trkpt lat="50.06848" lon="13.431046">
<time>2021-08-22T10:42:31Z</time>
</trkpt>
<trkpt lat="50.068499" lon="13.431032">
<time>2021-08-22T10:42:32Z</time>
</trkpt>
<trkpt lat="50.068528" lon="13.431004">
<time>2021-08-22T10:42:33Z</time>
</trkpt>
<trkpt lat="50.068563" lon="13.430976">
<time>2021-08-22T10:42:34Z</time>
</trkpt>
<trkpt lat="50.068614" lon="13.430948">
<time>2021-08-22T10:42:35Z</time>
</trkpt>
<trkpt lat="50.06867" lon="13.430915">
<time>2021-08-22T10:42:36Z</time>
</trkpt>
<trkpt lat="50.068746" lon="13.430866">
<time>2021-08-22T10:42:37Z</time>
</trkpt>
<trkpt lat="50.068836" lon="13.430816">
<time>2021-08-22T10:42:38Z</time>
</trkpt>
<trkpt lat="50.068906" lon="13.43075">
<time>2021-08-22T10:42:39Z</time>
</trkpt>
<trkpt lat="50.068967" lon="13.430671">
<time>2021-08-22T10:42:40Z</time>
</trkpt>
<trkpt lat="50.069023" lon="13.430574">
<time>2021-08-22T10:42:41Z</time>
</trkpt>
<trkpt lat="50.069072" lon="13.430482">
<time>2021-08-22T10:42:42Z</time>
</trkpt>
<trkpt lat="50.0691" lon="13.430426">
<time>2021-08-22T10:42:43Z</time>
</trkpt>
<trkpt lat="50.069128" lon="13.430402">
<time>2021-08-22T10:42:44Z</time>
</trkpt>
<trkpt lat="50.06918" lon="13.43039">
<time>2021-08-22T10:42:45Z</time>
</trkpt>
<trkpt lat="50.069218" lon="13.430371">
<time>2021-08-22T10:42:46Z</time>
</trkpt>
<trkpt lat="50.069244" lon="13.430336">
<time>2021-08-22T10:42:47Z</time>
</trkpt>
<trkpt lat="50.069266" lon="13.430289">
<time>2021-08-22T10:42:48Z</time>
</trkpt>
<trkpt lat="50.069293" lon="13.430233">
<time>2021-08-22T10:42:49Z</time>
</trkpt>
<trkpt lat="50.069317" lon="13.430171">
<time>2021-08-22T10:42:50Z</time>
</trkpt>
<trkpt lat="50.069346" lon="13.430107">
<time>2021-08-22T10:42:51Z</time>
</trkpt>
<trkpt lat="50.069377" lon="13.430039">
<time>2021-08-22T10:42:52Z</time>
</trkpt>
<trkpt lat="50.069404" lon="13.429964">
<time>2021-08-22T10:42:53Z</time>
</trkpt>
<trkpt lat="50.06944" lon="13.429899">
<time>2021-08-22T10:42:54Z</time>
</trkpt>
<trkpt lat="50.069467" lon="13.429844">
<time>2021-08-22T10:42:55Z</time>
</trkpt>
<trkpt lat="50.069531" lon="13.42979">
<time>2021-08-22T10:42:56Z</time>
</trkpt>
<trkpt lat="50.069575" lon="13.429731">
<time>2021-08-22T10:42:57Z</time>
</trkpt>
<trkpt lat="50.069614" lon="13.42966">
<time>2021-08-22T10:42:58Z</time>
</trkpt>
<trkpt lat="50.069649" lon="13.429582">
<time>2021-08-22T10:42:59Z</time>
</trkpt>
<trkpt lat="50.069682" lon="13.429494">
<time>2021-08-22T10:43:00Z</time>
</trkpt>
<trkpt lat="50.069711" lon="13.42941">
<time>2021-08-22T10:43:01Z</time>
</trkpt>
<trkpt lat="50.069746" lon="13.429325">
<time>2021-08-22T10:43:02Z</time>
</trkpt>
<trkpt lat="50.06978" lon="13.429241">
<time>2021-08-22T10:43:03Z</time>
</trkpt>
<trkpt lat="50.069817" lon="13.429155">
<time>2021-08-22T10:43:04Z</time>
</trkpt>
<trkpt lat="50.069855" lon="13.429078">
<time>2021-08-22T10:43:05Z</time>
</trkpt>
<trkpt lat="50.069896" lon="13.428999">
<time>2021-08-22T10:43:06Z</time>
</trkpt>
<trkpt lat="50.069934" lon="13.428918">
<time>2021-08-22T10:43:07Z</time>
</trkpt>
<trkpt lat="50.069979" lon="13.428839">
<time>2021-08-22T10:43:08Z</time>
</trkpt>
<trkpt lat="50.070026" lon="13.428761">
<time>2021-08-22T10:43:09Z</time>
</trkpt>
<trkpt lat="50.070084" lon="13.428681">
<time>2021-08-22T10:43:10Z</time>
</trkpt>
<trkpt lat="50.070134" lon="13.428598">
<time>2021-08-22T10:43:11Z</time>
</trkpt>
<trkpt lat="50.07018" lon="13.428512">
<time>2021-08-22T10:43:12Z</time>
</trkpt>
<trkpt lat="50.070227" lon="13.428425">
<time>2021-08-22T10:43:13Z</time>
</trkpt>
<trkpt lat="50.070278" lon="13.428343">
<time>2021-08-22T10:43:14Z</time>
</trkpt>
<trkpt lat="50.070318" lon="13.428254">
<time>2021-08-22T10:43:15Z</time>
</trkpt>
<trkpt lat="50.070351" lon="13.428166">
<time>2021-08-22T10:43:16Z</time>
</trkpt>
<trkpt lat="50.070387" lon="13.428078">
<time>2021-08-22T10:43:17Z</time>
</trkpt>
<trkpt lat="50.070425" lon="13.427995">
<time>2021-08-22T10:43:18Z</time>
</trkpt>
<trkpt lat="50.070461" lon="13.427914">
<time>2021-08-22T10:43:19Z</time>
</trkpt>
<trkpt lat="50.070491" lon="13.427833">
<time>2021-08-22T10:43:20Z</time>
</trkpt>
<trkpt lat="50.070529" lon="13.427753">
<time>2021-08-22T10:43:21Z</time>
</trkpt>
<trkpt lat="50.070568" lon="13.427676">
<time>2021-08-22T10:43:22Z</time>
</trkpt>
<trkpt lat="50.070608" lon="13.427596">
<time>2021-08-22T10:43:23Z</time>
</trkpt>
<trkpt lat="50.070657" lon="13.427516">
<time>2021-08-22T10:43:24Z</time>
</trkpt>
<trkpt lat="50.070702" lon="13.427435">
<time>2021-08-22T10:43:25Z</time>
</trkpt>
<trkpt lat="50.070737" lon="13.42735">
<time>2021-08-22T10:43:26Z</time>
</trkpt>
<trkpt lat="50.070771" lon="13.427262">
<time>2021-08-22T10:43:27Z</time>
</trkpt>
<trkpt lat="50.070806" lon="13.427173">
<time>2021-08-22T10:43:28Z</time>
</trkpt>
<trkpt lat="50.070842" lon="13.427084">
<time>2021-08-22T10:43:29Z</time>
</trkpt>
<trkpt lat="50.070877" lon="13.426997">
<time>2021-08-22T10:43:30Z</time>
</trkpt>
<trkpt lat="50.070915" lon="13.426919">
<time>2021-08-22T10:43:31Z</time>
</trkpt>
<trkpt lat="50.070954" lon="13.426842">
<time>2021-08-22T10:43:32Z</time>
</trkpt>
<trkpt lat="50.070988" lon="13.426767">
<time>2021-08-22T10:43:33Z</time>
</trkpt>
<trkpt lat="50.071026" lon="13.4267">
<time>2021-08-22T10:43:34Z</time>
</trkpt>
<trkpt lat="50.071062" lon="13.426644">
<time>2021-08-22T10:43:35Z</time>
</trkpt>
<trkpt lat="50.071092" lon="13.426582">
<time>2021-08-22T10:43:36Z</time>
</trkpt>
<trkpt lat="50.071118" lon="13.426519">
<time>2021-08-22T10:43:37Z</time>
</trkpt>
<trkpt lat="50.071143" lon="13.426459">
<time>2021-08-22T10:43:38Z</time>
</trkpt>
<trkpt lat="50.071164" lon="13.426404">
<time>2021-08-22T10:43:39Z</time>
</trkpt>
<trkpt lat="50.071183" lon="13.426346">
<time>2021-08-22T10:43:40Z</time>
</trkpt>
<trkpt lat="50.071209" lon="13.426276">
<time>2021-08-22T10:43:41Z</time>
</trkpt>
<trkpt lat="50.071237" lon="13.426206">
<time>2021-08-22T10:43:42Z</time>
</trkpt>
<trkpt lat="50.071264" lon="13.426136">
<time>2021-08-22T10:43:43Z</time>
</trkpt>
<trkpt lat="50.07129" lon="13.426062">
<time>2021-08-22T10:43:44Z</time>
</trkpt>
<trkpt lat="50.071316" lon="13.425986">
<time>2021-08-22T10:43:45Z</time>
</trkpt>
<trkpt lat="50.071346" lon="13.425906">
<time>2021-08-22T10:43:46Z</time>
</trkpt>
<trkpt lat="50.071378" lon="13.425831">
<time>2021-08-22T10:43:47Z</time>
</trkpt>
<trkpt lat="50.071414" lon="13.425757">
<time>2021-08-22T10:43:48Z</time>
</trkpt>
<trkpt lat="50.071435" lon="13.425686">
<time>2021-08-22T10:43:49Z</time>
</trkpt>
<trkpt lat="50.071466" lon="13.425625">
<time>2021-08-22T10:43:50Z</time>
</trkpt>
<trkpt lat="50.071492" lon="13.425583">
<time>2021-08-22T10:43:51Z</time>
</trkpt>
<trkpt lat="50.071509" lon="13.425564">
<time>2021-08-22T10:43:52Z</time>
</trkpt>
<trkpt lat="50.071533" lon="13.425559">
<time>2021-08-22T10:43:53Z</time>
</trkpt>
<trkpt lat="50.071552" lon="13.42555">
<time>2021-08-22T10:43:54Z</time>
</trkpt>
<trkpt lat="50.07155" lon="13.425536">
<time>2021-08-22T10:43:55Z</time>
</trkpt>
<trkpt lat="50.071552" lon="13.425518">
<time>2021-08-22T10:43:56Z</time>
</trkpt>
<trkpt lat="50.071567" lon="13.425496">
<time>2021-08-22T10:43:57Z</time>
</trkpt>
<trkpt lat="50.071602" lon="13.425477">
<time>2021-08-22T10:43:58Z</time>
</trkpt>
<trkpt lat="50.071617" lon="13.425444">
<time>2021-08-22T10:43:59Z</time>
</trkpt>
<trkpt lat="50.071626" lon="13.425405">
<time>2021-08-22T10:44:00Z</time>
</trkpt>
<trkpt lat="50.071646" lon="13.425366">
<time>2021-08-22T10:44:01Z</time>
</trkpt>
<trkpt lat="50.071643" lon="13.425321">
<time>2021-08-22T10:44:02Z</time>
</trkpt>
<trkpt lat="50.071644" lon="13.425279">
<time>2021-08-22T10:44:03Z</time>
</trkpt>
<trkpt lat="50.071647" lon="13.425239">
<time>2021-08-22T10:44:04Z</time>
</trkpt>
<trkpt lat="50.071652" lon="13.425209">
<time>2021-08-22T10:44:05Z</time>
</trkpt>
<trkpt lat="50.071702" lon="13.42519">
<time>2021-08-22T10:44:06Z</time>
</trkpt>
<trkpt lat="50.07175" lon="13.425175">
<time>2021-08-22T10:44:07Z</time>
</trkpt>
<trkpt lat="50.07177" lon="13.425161">
<time>2021-08-22T10:44:08Z</time>
</trkpt>
<trkpt lat="50.071792" lon="13.42514">
<time>2021-08-22T10:44:09Z</time>
</trkpt>
<trkpt lat="50.071814" lon="13.425114">
<time>2021-08-22T10:44:10Z</time>
</trkpt>
<trkpt lat="50.071833" lon="13.425084">
<time>2021-08-22T10:44:11Z</time>
</trkpt>
<trkpt lat="50.071858" lon="13.425061">
<time>2021-08-22T10:44:12Z</time>
</trkpt>
<trkpt lat="50.071887" lon="13.425031">
<time>2021-08-22T10:44:13Z</time>
</trkpt>
<trkpt lat="50.071906" lon="13.424996">
<time>2021-08-22T10:44:14Z</time>
</trkpt>
<trkpt lat="50.071916" lon="13.424962">
<time>2021-08-22T10:44:15Z</time>
</trkpt>
<trkpt lat="50.071916" lon="13.424926">
<time>2021-08-22T10:44:16Z</time>
</trkpt>
<trkpt lat="50.071934" lon="13.424885">
<time>2021-08-22T10:44:17Z</time>
</trkpt>
<trkpt lat="50.071948" lon="13.424841">
<time>2021-08-22T10:44:18Z</time>
</trkpt>
<trkpt lat="50.071971" lon="13.424797">
<time>2021-08-22T10:44:19Z</time>
</trkpt>
<trkpt lat="50.071996" lon="13.424751">
<time>2021-08-22T10:44:20Z</time>
</trkpt>
<trkpt lat="50.072022" lon="13.424712">
<time>2021-08-22T10:44:21Z</time>
</trkpt>
<trkpt lat="50.072051" lon="13.424673">
<time>2021-08-22T10:44:22Z</time>
</trkpt>
<trkpt lat="50.072076" lon="13.424632">
<time>2021-08-22T10:44:23Z</time>
</trkpt>
<trkpt lat="50.072106" lon="13.424592">
<time>2021-08-22T10:44:24Z</time>
</trkpt>
<trkpt lat="50.07213" lon="13.42455">
<time>2021-08-22T10:44:25Z</time>
</trkpt>
<trkpt lat="50.072155" lon="13.424506">
<time>2021-08-22T10:44:26Z</time>
</trkpt>
<trkpt lat="50.072183" lon="13.424463">
<time>2021-08-22T10:44:27Z</time>
</trkpt>
<trkpt lat="50.072213" lon="13.424422">
<time>2021-08-22T10:44:28Z</time>
</trkpt>
<trkpt lat="50.072248" lon="13.424381">
<time>2021-08-22T10:44:29Z</time>
</trkpt>
<trkpt lat="50.072285" lon="13.424336">
<time>2021-08-22T10:44:30Z</time>
</trkpt>
<trkpt lat="50.072323" lon="13.424289">
<time>2021-08-22T10:44:31Z</time>
</trkpt>
<trkpt lat="50.072363" lon="13.42424">
<time>2021-08-22T10:44:32Z</time>
</trkpt>
<trkpt lat="50.072399" lon="13.424189">
<time>2021-08-22T10:44:33Z</time>
</trkpt>
<trkpt lat="50.072436" lon="13.424137">
<time>2021-08-22T10:44:34Z</time>
</trkpt>
<trkpt lat="50.072478" lon="13.424085">
<time>2021-08-22T10:44:35Z</time>
</trkpt>
<trkpt lat="50.072522" lon="13.424024">
<time>2021-08-22T10:44:36Z</time>
</trkpt>
<trkpt lat="50.072562" lon="13.423959">
<time>2021-08-22T10:44:37Z</time>
</trkpt>
<trkpt lat="50.072599" lon="13.423896">
<time>2021-08-22T10:44:38Z</time>
</trkpt>
<trkpt lat="50.072664" lon="13.423834">
<time>2021-08-22T10:44:39Z</time>
</trkpt>
<trkpt lat="50.07271" lon="13.423761">
<time>2021-08-22T10:44:40Z</time>
</trkpt>
<trkpt lat="50.072753" lon="13.423686">
<time>2021-08-22T10:44:41Z</time>
</trkpt>
<trkpt lat="50.072795" lon="13.42361">
<time>2021-08-22T10:44:42Z</time>
</trkpt>
<trkpt lat="50.072837" lon="13.423526">
<time>2021-08-22T10:44:43Z</time>
</trkpt>
<trkpt lat="50.072889" lon="13.423439">
<time>2021-08-22T10:44:44Z</time>
</trkpt>
<trkpt lat="50.072936" lon="13.423354">
<time>2021-08-22T10:44:45Z</time>
</trkpt>
<trkpt lat="50.072982" lon="13.42327">
<time>2021-08-22T10:44:46Z</time>
</trkpt>
<trkpt lat="50.073023" lon="13.423185">
<time>2021-08-22T10:44:47Z</time>
</trkpt>
<trkpt lat="50.073054" lon="13.423099">
<time>2021-08-22T10:44:48Z</time>
</trkpt>
<trkpt lat="50.073085" lon="13.423013">
<time>2021-08-22T10:44:49Z</time>
</trkpt>
<trkpt lat="50.073095" lon="13.422916">
<time>2021-08-22T10:44:50Z</time>
</trkpt>
<trkpt lat="50.07311" lon="13.422822">
<time>2021-08-22T10:44:51Z</time>
</trkpt>
<trkpt lat="50.073135" lon="13.422734">
<time>2021-08-22T10:44:52Z</time>
</trkpt>
<trkpt lat="50.073166" lon="13.422655">
<time>2021-08-22T10:44:53Z</time>
</trkpt>
<trkpt lat="50.073205" lon="13.422581">
<time>2021-08-22T10:44:54Z</time>
</trkpt>
<trkpt lat="50.07323" lon="13.4225">
<time>2021-08-22T10:44:55Z</time>
</trkpt>
<trkpt lat="50.073231" lon="13.422422">
<time>2021-08-22T10:44:56Z</time>
</trkpt>
<trkpt lat="50.07322" lon="13.42236">
<time>2021-08-22T10:44:57Z</time>
</trkpt>
<trkpt lat="50.073197" lon="13.422314">
<time>2021-08-22T10:44:58Z</time>
</trkpt>
<trkpt lat="50.073164" lon="13.422278">
<time>2021-08-22T10:44:59Z</time>
</trkpt>
<trkpt lat="50.073132" lon="13.42224">
<time>2021-08-22T10:45:00Z</time>
</trkpt>
<trkpt lat="50.073103" lon="13.422194">
<time>2021-08-22T10:45:01Z</time>
</trkpt>
<trkpt lat="50.073079" lon="13.422137">
<time>2021-08-22T10:45:02Z</time>
</trkpt>
<trkpt lat="50.073061" lon="13.422076">
<time>2021-08-22T10:45:03Z</time>
</trkpt>
<trkpt lat="50.073039" lon="13.422026">
<time>2021-08-22T10:45:04Z</time>
</trkpt>
<trkpt lat="50.073004" lon="13.421991">
<time>2021-08-22T10:45:05Z</time>
</trkpt>
<trkpt lat="50.072969" lon="13.421958">
<time>2021-08-22T10:45:06Z</time>
</trkpt>
<trkpt lat="50.072934" lon="13.421922">
<time>2021-08-22T10:45:07Z</time>
</trkpt>
<trkpt lat="50.072899" lon="13.42189">
<time>2021-08-22T10:45:08Z</time>
</trkpt>
<trkpt lat="50.072869" lon="13.421859">
<time>2021-08-22T10:45:09Z</time>
</trkpt>
<trkpt lat="50.072837" lon="13.421824">
<time>2021-08-22T10:45:10Z</time>
</trkpt>
<trkpt lat="50.072805" lon="13.421785">
<time>2021-08-22T10:45:11Z</time>
</trkpt>
<trkpt lat="50.072768" lon="13.421747">
<time>2021-08-22T10:45:12Z</time>
</trkpt>
<trkpt lat="50.072724" lon="13.421713">
<time>2021-08-22T10:45:13Z</time>
</trkpt>
<trkpt lat="50.072676" lon="13.421698">
<time>2021-08-22T10:45:14Z</time>
</trkpt>
<trkpt lat="50.072625" lon="13.421704">
<time>2021-08-22T10:45:15Z</time>
</trkpt>
<trkpt lat="50.072575" lon="13.421721">
<time>2021-08-22T10:45:16Z</time>
</trkpt>
<trkpt lat="50.072527" lon="13.421743">
<time>2021-08-22T10:45:17Z</time>
</trkpt>
<trkpt lat="50.072485" lon="13.421744">
<time>2021-08-22T10:45:18Z</time>
</trkpt>
<trkpt lat="50.072441" lon="13.421738">
<time>2021-08-22T10:45:19Z</time>
</trkpt>
<trkpt lat="50.072397" lon="13.421715">
<time>2021-08-22T10:45:20Z</time>
</trkpt>
<trkpt lat="50.072354" lon="13.421689">
<time>2021-08-22T10:45:21Z</time>
</trkpt>
<trkpt lat="50.072311" lon="13.421669">
<time>2021-08-22T10:45:22Z</time>
</trkpt>
<trkpt lat="50.072271" lon="13.421648">
<time>2021-08-22T10:45:23Z</time>
</trkpt>
<trkpt lat="50.072231" lon="13.421617">
<time>2021-08-22T10:45:24Z</time>
</trkpt>
<trkpt lat="50.072194" lon="13.421584">
<time>2021-08-22T10:45:25Z</time>
</trkpt>
<trkpt lat="50.07216" lon="13.421553">
<time>2021-08-22T10:45:26Z</time>
</trkpt>
<trkpt lat="50.072124" lon="13.421522">
<time>2021-08-22T10:45:27Z</time>
</trkpt>
<trkpt lat="50.072091" lon="13.421499">
<time>2021-08-22T10:45:28Z</time>
</trkpt>
<trkpt lat="50.072057" lon="13.421482">
<time>2021-08-22T10:45:29Z</time>
</trkpt>
<trkpt lat="50.072024" lon="13.421472">
<time>2021-08-22T10:45:30Z</time>
</trkpt>
<trkpt lat="50.071992" lon="13.421473">
<time>2021-08-22T10:45:31Z</time>
</trkpt>
<trkpt lat="50.071962" lon="13.42148">
<time>2021-08-22T10:45:32Z</time>
</trkpt>
<trkpt lat="50.071932" lon="13.421491">
<time>2021-08-22T10:45:33Z</time>
</trkpt>
<trkpt lat="50.071903" lon="13.421494">
<time>2021-08-22T10:45:34Z</time>
</trkpt>
<trkpt lat="50.071872" lon="13.421483">
<time>2021-08-22T10:45:35Z</time>
</trkpt>
<trkpt lat="50.071843" lon="13.421461">
<time>2021-08-22T10:45:36Z</time>
</trkpt>
<trkpt lat="50.071818" lon="13.421433">
<time>2021-08-22T10:45:37Z</time>
</trkpt>
<trkpt lat="50.071792" lon="13.4214">
<time>2021-08-22T10:45:38Z</time>
</trkpt>
<trkpt lat="50.071768" lon="13.421365">
<time>2021-08-22T10:45:39Z</time>
</trkpt>
<trkpt lat="50.071745" lon="13.421328">
<time>2021-08-22T10:45:40Z</time>
</trkpt>
<trkpt lat="50.071723" lon="13.421297">
<time>2021-08-22T10:45:41Z</time>
</trkpt>
<trkpt lat="50.071699" lon="13.421268">
<time>2021-08-22T10:45:42Z</time>
</trkpt>
<trkpt lat="50.071674" lon="13.421237">
<time>2021-08-22T10:45:43Z</time>
</trkpt>
<trkpt lat="50.07165" lon="13.421212">
<time>2021-08-22T10:45:44Z</time>
</trkpt>
<trkpt lat="50.071627" lon="13.421195">
<time>2021-08-22T10:45:45Z</time>
</trkpt>
<trkpt lat="50.071605" lon="13.421177">
<time>2021-08-22T10:45:46Z</time>
</trkpt>
<trkpt lat="50.071579" lon="13.421156">
<time>2021-08-22T10:45:47Z</time>
</trkpt>
<trkpt lat="50.07156" lon="13.421136">
<time>2021-08-22T10:45:48Z</time>
</trkpt>
<trkpt lat="50.071537" lon="13.421115">
<time>2021-08-22T10:45:49Z</time>
</trkpt>
<trkpt lat="50.071522" lon="13.421098">
<time>2021-08-22T10:45:50Z</time>
</trkpt>
<trkpt lat="50.071517" lon="13.421085">
<time>2021-08-22T10:45:51Z</time>
</trkpt>
<trkpt lat="50.071519" lon="13.421078">
<time>2021-08-22T10:45:52Z</time>
</trkpt>
<trkpt lat="50.071517" lon="13.421076">
<time>2021-08-22T10:45:53Z</time>
</trkpt>
<trkpt lat="50.071509" lon="13.421072">
<time>2021-08-22T10:45:54Z</time>
</trkpt>
<trkpt lat="50.071498" lon="13.421066">
<time>2021-08-22T10:45:55Z</time>
</trkpt>
<trkpt lat="50.07148" lon="13.421056">
<time>2021-08-22T10:45:56Z</time>
</trkpt>
<trkpt lat="50.071463" lon="13.421042">
<time>2021-08-22T10:45:57Z</time>
</trkpt>
<trkpt lat="50.071443" lon="13.421027">
<time>2021-08-22T10:45:58Z</time>
</trkpt>
<trkpt lat="50.071424" lon="13.421016">
<time>2021-08-22T10:45:59Z</time>
</trkpt>
<trkpt lat="50.071406" lon="13.421002">
<time>2021-08-22T10:46:00Z</time>
</trkpt>
<trkpt lat="50.071385" lon="13.420985">
<time>2021-08-22T10:46:01Z</time>
</trkpt>
<trkpt lat="50.07136" lon="13.420968">
<time>2021-08-22T10:46:02Z</time>
</trkpt>
<trkpt lat="50.071331" lon="13.420949">
<time>2021-08-22T10:46:03Z</time>
</trkpt>
<trkpt lat="50.071314" lon="13.420938">
<time>2021-08-22T10:46:04Z</time>
</trkpt>
<trkpt lat="50.071296" lon="13.420931">
<time>2021-08-22T10:46:05Z</time>
</trkpt>
<trkpt lat="50.071275" lon="13.420919">
<time>2021-08-22T10:46:06Z</time>
</trkpt>
<trkpt lat="50.071259" lon="13.420907">
<time>2021-08-22T10:46:07Z</time>
</trkpt>
<trkpt lat="50.071238" lon="13.420891">
<time>2021-08-22T10:46:08Z</time>
</trkpt>
<trkpt lat="50.071217" lon="13.420878">
<time>2021-08-22T10:46:09Z</time>
</trkpt>
<trkpt lat="50.071192" lon="13.420853">
<time>2021-08-22T10:46:10Z</time>
</trkpt>
<trkpt lat="50.071172" lon="13.420835">
<time>2021-08-22T10:46:11Z</time>
</trkpt>
<trkpt lat="50.071151" lon="13.420817">
<time>2021-08-22T10:46:12Z</time>
</trkpt>
<trkpt lat="50.071125" lon="13.420804">
<time>2021-08-22T10:46:13Z</time>
</trkpt>
<trkpt lat="50.071086" lon="13.420774">
<time>2021-08-22T10:46:14Z</time>
</trkpt>
<trkpt lat="50.071061" lon="13.420763">
<time>2021-08-22T10:46:15Z</time>
</trkpt>
<trkpt lat="50.071033" lon="13.420737">
<time>2021-08-22T10:46:16Z</time>
</trkpt>
<trkpt lat="50.071009" lon="13.42072">
<time>2021-08-22T10:46:17Z</time>
</trkpt>
<trkpt lat="50.070983" lon="13.420698">
<time>2021-08-22T10:46:18Z</time>
</trkpt>
<trkpt lat="50.07096" lon="13.42067">
<time>2021-08-22T10:46:19Z</time>
</trkpt>
<trkpt lat="50.070938" lon="13.420658">
<time>2021-08-22T10:46:20Z</time>
</trkpt>
<trkpt lat="50.070918" lon="13.42063">
<time>2021-08-22T10:46:21Z</time>
</trkpt>
<trkpt lat="50.070898" lon="13.420606">
<time>2021-08-22T10:46:22Z</time>
</trkpt>
<trkpt lat="50.070875" lon="13.420572">
<time>2021-08-22T10:46:23Z</time>
</trkpt>
<trkpt lat="50.070854" lon="13.420551">
<time>2021-08-22T10:46:24Z</time>
</trkpt>
<trkpt lat="50.070832" lon="13.420531">
<time>2021-08-22T10:46:25Z</time>
</trkpt>
<trkpt lat="50.070806" lon="13.420504">
<time>2021-08-22T10:46:26Z</time>
</trkpt>
<trkpt lat="50.07078" lon="13.420471">
<time>2021-08-22T10:46:27Z</time>
</trkpt>
<trkpt lat="50.070758" lon="13.420459">
<time>2021-08-22T10:46:28Z</time>
</trkpt>
<trkpt lat="50.070737" lon="13.420441">
<time>2021-08-22T10:46:29Z</time>
</trkpt>
<trkpt lat="50.070711" lon="13.42041">
<time>2021-08-22T10:46:30Z</time>
</trkpt>
<trkpt lat="50.070686" lon="13.420394">
<time>2021-08-22T10:46:31Z</time>
</trkpt>
<trkpt lat="50.070667" lon="13.420367">
<time>2021-08-22T10:46:32Z</time>
</trkpt>
<trkpt lat="50.070634" lon="13.420347">
<time>2021-08-22T10:46:33Z</time>
</trkpt>
<trkpt lat="50.070593" lon="13.420299">
<time>2021-08-22T10:46:34Z</time>
</trkpt>
<trkpt lat="50.070553" lon="13.420274">
<time>2021-08-22T10:46:35Z</time>
</trkpt>
<trkpt lat="50.070513" lon="13.420237">
<time>2021-08-22T10:46:36Z</time>
</trkpt>
<trkpt lat="50.070482" lon="13.42021">
<time>2021-08-22T10:46:37Z</time>
</trkpt>
<trkpt lat="50.070455" lon="13.42019">
<time>2021-08-22T10:46:38Z</time>
</trkpt>
<trkpt lat="50.070443" lon="13.420173">
<time>2021-08-22T10:46:39Z</time>
</trkpt>
<trkpt lat="50.070421" lon="13.420158">
<time>2021-08-22T10:46:40Z</time>
</trkpt>
<trkpt lat="50.070398" lon="13.420144">
<time>2021-08-22T10:46:41Z</time>
</trkpt>
<trkpt lat="50.070382" lon="13.420125">
<time>2021-08-22T10:46:42Z</time>
</trkpt>
<trkpt lat="50.070348" lon="13.420103">
<time>2021-08-22T10:46:43Z</time>
</trkpt>
<trkpt lat="50.070312" lon="13.420079">
<time>2021-08-22T10:46:44Z</time>
</trkpt>
<trkpt lat="50.070283" lon="13.420053">
<time>2021-08-22T10:46:45Z</time>
</trkpt>
<trkpt lat="50.070251" lon="13.420032">
<time>2021-08-22T10:46:46Z</time>
</trkpt>
<trkpt lat="50.07022" lon="13.420009">
<time>2021-08-22T10:46:47Z</time>
</trkpt>
<trkpt lat="50.070192" lon="13.419995">
<time>2021-08-22T10:46:48Z</time>
</trkpt>
<trkpt lat="50.070168" lon="13.41998">
<time>2021-08-22T10:46:49Z</time>
</trkpt>
<trkpt lat="50.070137" lon="13.419951">
<time>2021-08-22T10:46:50Z</time>
</trkpt>
<trkpt lat="50.070106" lon="13.419919">
<time>2021-08-22T10:46:51Z</time>
</trkpt>
<trkpt lat="50.070079" lon="13.419901">
<time>2021-08-22T10:46:52Z</time>
</trkpt>
<trkpt lat="50.070051" lon="13.419884">
<time>2021-08-22T10:46:53Z</time>
</trkpt>
<trkpt lat="50.070027" lon="13.419867">
<time>2021-08-22T10:46:54Z</time>
</trkpt>
<trkpt lat="50.07" lon="13.419847">
<time>2021-08-22T10:46:55Z</time>
</trkpt>
<trkpt lat="50.069979" lon="13.41983">
<time>2021-08-22T10:46:56Z</time>
</trkpt>
<trkpt lat="50.069947" lon="13.4198">
<time>2021-08-22T10:46:57Z</time>
</trkpt>
<trkpt lat="50.069911" lon="13.419765">
<time>2021-08-22T10:46:58Z</time>
</trkpt>
<trkpt lat="50.069874" lon="13.419735">
<time>2021-08-22T10:46:59Z</time>
</trkpt>
<trkpt lat="50.069838" lon="13.419707">
<time>2021-08-22T10:47:00Z</time>
</trkpt>
<trkpt lat="50.06981" lon="13.419684">
<time>2021-08-22T10:47:01Z</time>
</trkpt>
<trkpt lat="50.06978" lon="13.419652">
<time>2021-08-22T10:47:02Z</time>
</trkpt>
<trkpt lat="50.069752" lon="13.419631">
<time>2021-08-22T10:47:03Z</time>
</trkpt>
<trkpt lat="50.069724" lon="13.4196">
<time>2021-08-22T10:47:04Z</time>
</trkpt>
<trkpt lat="50.069702" lon="13.419586">
<time>2021-08-22T10:47:05Z</time>
</trkpt>
<trkpt lat="50.069677" lon="13.419569">
<time>2021-08-22T10:47:06Z</time>
</trkpt>
<trkpt lat="50.069654" lon="13.419552">
<time>2021-08-22T10:47:07Z</time>
</trkpt>
<trkpt lat="50.069632" lon="13.419539">
<time>2021-08-22T10:47:08Z</time>
</trkpt>
<trkpt lat="50.069608" lon="13.419526">
<time>2021-08-22T10:47:09Z</time>
</trkpt>
<trkpt lat="50.069584" lon="13.419506">
<time>2021-08-22T10:47:10Z</time>
</trkpt>
<trkpt lat="50.069568" lon="13.419489">
<time>2021-08-22T10:47:11Z</time>
</trkpt>
<trkpt lat="50.069552" lon="13.419474">
<time>2021-08-22T10:47:12Z</time>
</trkpt>
<trkpt lat="50.069538" lon="13.41946">
<time>2021-08-22T10:47:13Z</time>
</trkpt>
<trkpt lat="50.069508" lon="13.419442">
<time>2021-08-22T10:47:14Z</time>
</trkpt>
<trkpt lat="50.069498" lon="13.419426">
<time>2021-08-22T10:47:15Z</time>
</trkpt>
<trkpt lat="50.069478" lon="13.419415">
<time>2021-08-22T10:47:16Z</time>
</trkpt>
<trkpt lat="50.069461" lon="13.419403">
<time>2021-08-22T10:47:17Z</time>
</trkpt>
<trkpt lat="50.069442" lon="13.419384">
<time>2021-08-22T10:47:18Z</time>
</trkpt>
<trkpt lat="50.069422" lon="13.419363">
<time>2021-08-22T10:47:19Z</time>
</trkpt>
<trkpt lat="50.069404" lon="13.41935">
<time>2021-08-22T10:47:20Z</time>
</trkpt>
<trkpt lat="50.069389" lon="13.419336">
<time>2021-08-22T10:47:21Z</time>
</trkpt>
<trkpt lat="50.06937" lon="13.419307">
<time>2021-08-22T10:47:22Z</time>
</trkpt>
<trkpt lat="50.069361" lon="13.419289">
<time>2021-08-22T10:47:23Z</time>
</trkpt>
<trkpt lat="50.069335" lon="13.419255">
<time>2021-08-22T10:47:24Z</time>
</trkpt>
<trkpt lat="50.069319" lon="13.419232">
<time>2021-08-22T10:47:25Z</time>
</trkpt>
<trkpt lat="50.069292" lon="13.4192">
<time>2021-08-22T10:47:26Z</time>
</trkpt>
<trkpt lat="50.069269" lon="13.419177">
<time>2021-08-22T10:47:27Z</time>
</trkpt>
<trkpt lat="50.069245" lon="13.419154">
<time>2021-08-22T10:47:28Z</time>
</trkpt>
<trkpt lat="50.069223" lon="13.419135">
<time>2021-08-22T10:47:29Z</time>
</trkpt>
<trkpt lat="50.069209" lon="13.419117">
<time>2021-08-22T10:47:30Z</time>
</trkpt>
<trkpt lat="50.069204" lon="13.419081">
<time>2021-08-22T10:47:31Z</time>
</trkpt>
<trkpt lat="50.069204" lon="13.419035">
<time>2021-08-22T10:47:32Z</time>
</trkpt>
<trkpt lat="50.069216" lon="13.418985">
<time>2021-08-22T10:47:33Z</time>
</trkpt>
<trkpt lat="50.069236" lon="13.418946">
<time>2021-08-22T10:47:34Z</time>
</trkpt>
<trkpt lat="50.069255" lon="13.418906">
<time>2021-08-22T10:47:35Z</time>
</trkpt>
<trkpt lat="50.069274" lon="13.418854">
<time>2021-08-22T10:47:36Z</time>
</trkpt>
<trkpt lat="50.069297" lon="13.418799">
<time>2021-08-22T10:47:37Z</time>
</trkpt>
<trkpt lat="50.06933" lon="13.418746">
<time>2021-08-22T10:47:38Z</time>
</trkpt>
<trkpt lat="50.06936" lon="13.418689">
<time>2021-08-22T10:47:39Z</time>
</trkpt>
<trkpt lat="50.069387" lon="13.418629">
<time>2021-08-22T10:47:40Z</time>
</trkpt>
<trkpt lat="50.069414" lon="13.418568">
<time>2021-08-22T10:47:41Z</time>
</trkpt>
<trkpt lat="50.06944" lon="13.418505">
<time>2021-08-22T10:47:42Z</time>
</trkpt>
<trkpt lat="50.069467" lon="13.418441">
<time>2021-08-22T10:47:43Z</time>
</trkpt>
<trkpt lat="50.069504" lon="13.418373">
<time>2021-08-22T10:47:44Z</time>
</trkpt>
<trkpt lat="50.069555" lon="13.418296">
<time>2021-08-22T10:47:45Z</time>
</trkpt>
<trkpt lat="50.0696" lon="13.418201">
<time>2021-08-22T10:47:46Z</time>
</trkpt>
<trkpt lat="50.069647" lon="13.41811">
<time>2021-08-22T10:47:47Z</time>
</trkpt>
<trkpt lat="50.069691" lon="13.418022">
<time>2021-08-22T10:47:48Z</time>
</trkpt>
<trkpt lat="50.069745" lon="13.41793">
<time>2021-08-22T10:47:49Z</time>
</trkpt>
<trkpt lat="50.069801" lon="13.417839">
<time>2021-08-22T10:47:50Z</time>
</trkpt>
<trkpt lat="50.069852" lon="13.417754">
<time>2021-08-22T10:47:51Z</time>
</trkpt>
<trkpt lat="50.069907" lon="13.417663">
<time>2021-08-22T10:47:52Z</time>
</trkpt>
<trkpt lat="50.069958" lon="13.417578">
<time>2021-08-22T10:47:53Z</time>
</trkpt>
<trkpt lat="50.069999" lon="13.417487">
<time>2021-08-22T10:47:54Z</time>
</trkpt>
<trkpt lat="50.070053" lon="13.417399">
<time>2021-08-22T10:47:55Z</time>
</trkpt>
<trkpt lat="50.070092" lon="13.41731">
<time>2021-08-22T10:47:56Z</time>
</trkpt>
<trkpt lat="50.070122" lon="13.417228">
<time>2021-08-22T10:47:57Z</time>
</trkpt>
<trkpt lat="50.070136" lon="13.417145">
<time>2021-08-22T10:47:58Z</time>
</trkpt>
<trkpt lat="50.070121" lon="13.417073">
<time>2021-08-22T10:47:59Z</time>
</trkpt>
<trkpt lat="50.070083" lon="13.417024">
<time>2021-08-22T10:48:00Z</time>
</trkpt>
<trkpt lat="50.070042" lon="13.416979">
<time>2021-08-22T10:48:01Z</time>
</trkpt>
<trkpt lat="50.069997" lon="13.416924">
<time>2021-08-22T10:48:02Z</time>
</trkpt>
<trkpt lat="50.069949" lon="13.416862">
<time>2021-08-22T10:48:03Z</time>
</trkpt>
<trkpt lat="50.069899" lon="13.416799">
<time>2021-08-22T10:48:04Z</time>
</trkpt>
<trkpt lat="50.069841" lon="13.416737">
<time>2021-08-22T10:48:05Z</time>
</trkpt>
<trkpt lat="50.069783" lon="13.416683">
<time>2021-08-22T10:48:06Z</time>
</trkpt>
<trkpt lat="50.069731" lon="13.416641">
<time>2021-08-22T10:48:07Z</time>
</trkpt>
<trkpt lat="50.069666" lon="13.416581">
<time>2021-08-22T10:48:08Z</time>
</trkpt>
<trkpt lat="50.069592" lon="13.416511">
<time>2021-08-22T10:48:09Z</time>
</trkpt>
<trkpt lat="50.06952" lon="13.416447">
<time>2021-08-22T10:48:10Z</time>
</trkpt>
<trkpt lat="50.069458" lon="13.416404">
<time>2021-08-22T10:48:11Z</time>
</trkpt>
<trkpt lat="50.069402" lon="13.416366">
<time>2021-08-22T10:48:12Z</time>
</trkpt>
<trkpt lat="50.06935" lon="13.416332">
<time>2021-08-22T10:48:13Z</time>
</trkpt>
<trkpt lat="50.069296" lon="13.41628">
<time>2021-08-22T10:48:14Z</time>
</trkpt>
<trkpt lat="50.069248" lon="13.416239">
<time>2021-08-22T10:48:15Z</time>
</trkpt>
<trkpt lat="50.069211" lon="13.416197">
<time>2021-08-22T10:48:16Z</time>
</trkpt>
<trkpt lat="50.069183" lon="13.416167">
<time>2021-08-22T10:48:17Z</time>
</trkpt>
<trkpt lat="50.069152" lon="13.416128">
<time>2021-08-22T10:48:18Z</time>
</trkpt>
<trkpt lat="50.069122" lon="13.416085">
<time>2021-08-22T10:48:19Z</time>
</trkpt>
<trkpt lat="50.06909" lon="13.416036">
<time>2021-08-22T10:48:20Z</time>
</trkpt>
<trkpt lat="50.069056" lon="13.415999">
<time>2021-08-22T10:48:21Z</time>
</trkpt>
<trkpt lat="50.069018" lon="13.415959">
<time>2021-08-22T10:48:22Z</time>
</trkpt>
<trkpt lat="50.068979" lon="13.415932">
<time>2021-08-22T10:48:23Z</time>
</trkpt>
<trkpt lat="50.068928" lon="13.415898">
<time>2021-08-22T10:48:24Z</time>
</trkpt>
<trkpt lat="50.068875" lon="13.415865">
<time>2021-08-22T10:48:25Z</time>
</trkpt>
<trkpt lat="50.068822" lon="13.415838">
<time>2021-08-22T10:48:26Z</time>
</trkpt>
<trkpt lat="50.068766" lon="13.415795">
<time>2021-08-22T10:48:27Z</time>
</trkpt>
<trkpt lat="50.068726" lon="13.41577">
<time>2021-08-22T10:48:28Z</time>
</trkpt>
<trkpt lat="50.068689" lon="13.415736">
<time>2021-08-22T10:48:29Z</time>
</trkpt>
<trkpt lat="50.068665" lon="13.415681">
<time>2021-08-22T10:48:30Z</time>
</trkpt>
<trkpt lat="50.068664" lon="13.415598">
<time>2021-08-22T10:48:31Z</time>
</trkpt>
<trkpt lat="50.068678" lon="13.415519">
<time>2021-08-22T10:48:32Z</time>
</trkpt>
<trkpt lat="50.068697" lon="13.415458">
<time>2021-08-22T10:48:33Z</time>
</trkpt>
<trkpt lat="50.068724" lon="13.415385">
<time>2021-08-22T10:48:34Z</time>
</trkpt>
<trkpt lat="50.068751" lon="13.415311">
<time>2021-08-22T10:48:35Z</time>
</trkpt>
<trkpt lat="50.06878" lon="13.415234">
<time>2021-08-22T10:48:36Z</time>
</trkpt>
<trkpt lat="50.06881" lon="13.415149">
<time>2021-08-22T10:48:37Z</time>
</trkpt>
<trkpt lat="50.068847" lon="13.415066">
<time>2021-08-22T10:48:38Z</time>
</trkpt>
<trkpt lat="50.068883" lon="13.414969">
<time>2021-08-22T10:48:39Z</time>
</trkpt>
<trkpt lat="50.068927" lon="13.414874">
<time>2021-08-22T10:48:40Z</time>
</trkpt>
<trkpt lat="50.068977" lon="13.414784">
<time>2021-08-22T10:48:41Z</time>
</trkpt>
<trkpt lat="50.069028" lon="13.414688">
<time>2021-08-22T10:48:42Z</time>
</trkpt>
<trkpt lat="50.069069" lon="13.414584">
<time>2021-08-22T10:48:43Z</time>
</trkpt>
<trkpt lat="50.069123" lon="13.414477">
<time>2021-08-22T10:48:44Z</time>
</trkpt>
<trkpt lat="50.069168" lon="13.414375">
<time>2021-08-22T10:48:45Z</time>
</trkpt>
<trkpt lat="50.069222" lon="13.414277">
<time>2021-08-22T10:48:46Z</time>
</trkpt>
<trkpt lat="50.069281" lon="13.414165">
<time>2021-08-22T10:48:47Z</time>
</trkpt>
<trkpt lat="50.069334" lon="13.414065">
<time>2021-08-22T10:48:48Z</time>
</trkpt>
<trkpt lat="50.069379" lon="13.413947">
<time>2021-08-22T10:48:49Z</time>
</trkpt>
<trkpt lat="50.069415" lon="13.413841">
<time>2021-08-22T10:48:50Z</time>
</trkpt>
<trkpt lat="50.069459" lon="13.413743">
<time>2021-08-22T10:48:51Z</time>
</trkpt>
<trkpt lat="50.069509" lon="13.413652">
<time>2021-08-22T10:48:52Z</time>
</trkpt>
<trkpt lat="50.069563" lon="13.413563">
<time>2021-08-22T10:48:53Z</time>
</trkpt>
<trkpt lat="50.06962" lon="13.413476">
<time>2021-08-22T10:48:54Z</time>
</trkpt>
<trkpt lat="50.069675" lon="13.413388">
<time>2021-08-22T10:48:55Z</time>
</trkpt>
<trkpt lat="50.069718" lon="13.413304">
<time>2021-08-22T10:48:56Z</time>
</trkpt>
<trkpt lat="50.069755" lon="13.413233">
<time>2021-08-22T10:48:57Z</time>
</trkpt>
<trkpt lat="50.069778" lon="13.413183">
<time>2021-08-22T10:48:58Z</time>
</trkpt>
<trkpt lat="50.069799" lon="13.413151">
<time>2021-08-22T10:48:59Z</time>
</trkpt>
<trkpt lat="50.069821" lon="13.41312">
<time>2021-08-22T10:49:00Z</time>
</trkpt>
<trkpt lat="50.069848" lon="13.413068">
<time>2021-08-22T10:49:01Z</time>
</trkpt>
<trkpt lat="50.069878" lon="13.41301">
<time>2021-08-22T10:49:02Z</time>
</trkpt>
<trkpt lat="50.069918" lon="13.412921">
<time>2021-08-22T10:49:03Z</time>
</trkpt>
<trkpt lat="50.069962" lon="13.412836">
<time>2021-08-22T10:49:04Z</time>
</trkpt>
<trkpt lat="50.070016" lon="13.41273">
<time>2021-08-22T10:49:05Z</time>
</trkpt>
<trkpt lat="50.070066" lon="13.412621">
<time>2021-08-22T10:49:06Z</time>
</trkpt>
<trkpt lat="50.070109" lon="13.412515">
<time>2021-08-22T10:49:07Z</time>
</trkpt>
<trkpt lat="50.070154" lon="13.412409">
<time>2021-08-22T10:49:08Z</time>
</trkpt>
<trkpt lat="50.070201" lon="13.4123">
<time>2021-08-22T10:49:09Z</time>
</trkpt>
<trkpt lat="50.07025" lon="13.412195">
<time>2021-08-22T10:49:10Z</time>
</trkpt>
<trkpt lat="50.070305" lon="13.412078">
<time>2021-08-22T10:49:11Z</time>
</trkpt>
<trkpt lat="50.070368" lon="13.411965">
<time>2021-08-22T10:49:12Z</time>
</trkpt>
<trkpt lat="50.070431" lon="13.411842">
<time>2021-08-22T10:49:13Z</time>
</trkpt>
<trkpt lat="50.070494" lon="13.41172">
<time>2021-08-22T10:49:14Z</time>
</trkpt>
<trkpt lat="50.07056" lon="13.411602">
<time>2021-08-22T10:49:15Z</time>
</trkpt>
<trkpt lat="50.070619" lon="13.411496">
<time>2021-08-22T10:49:16Z</time>
</trkpt>
<trkpt lat="50.070691" lon="13.411391">
<time>2021-08-22T10:49:17Z</time>
</trkpt>
<trkpt lat="50.070752" lon="13.411282">
<time>2021-08-22T10:49:18Z</time>
</trkpt>
<trkpt lat="50.070818" lon="13.411185">
<time>2021-08-22T10:49:19Z</time>
</trkpt>
<trkpt lat="50.070892" lon="13.411081">
<time>2021-08-22T10:49:20Z</time>
</trkpt>
<trkpt lat="50.070973" lon="13.410956">
<time>2021-08-22T10:49:21Z</time>
</trkpt>
<trkpt lat="50.071052" lon="13.410842">
<time>2021-08-22T10:49:22Z</time>
</trkpt>
<trkpt lat="50.071129" lon="13.41072">
<time>2021-08-22T10:49:23Z</time>
</trkpt>
<trkpt lat="50.071205" lon="13.410603">
<time>2021-08-22T10:49:24Z</time>
</trkpt>
<trkpt lat="50.071276" lon="13.410491">
<time>2021-08-22T10:49:25Z</time>
</trkpt>
<trkpt lat="50.071355" lon="13.410388">
<time>2021-08-22T10:49:26Z</time>
</trkpt>
<trkpt lat="50.071429" lon="13.410285">
<time>2021-08-22T10:49:27Z</time>
</trkpt>
<trkpt lat="50.071503" lon="13.410181">
<time>2021-08-22T10:49:28Z</time>
</trkpt>
<trkpt lat="50.07157" lon="13.410081">
<time>2021-08-22T10:49:29Z</time>
</trkpt>
<trkpt lat="50.071638" lon="13.409969">
<time>2021-08-22T10:49:30Z</time>
</trkpt>
<trkpt lat="50.071705" lon="13.409859">
<time>2021-08-22T10:49:31Z</time>
</trkpt>
<trkpt lat="50.071762" lon="13.409755">
<time>2021-08-22T10:49:32Z</time>
</trkpt>
<trkpt lat="50.071806" lon="13.409659">
<time>2021-08-22T10:49:33Z</time>
</trkpt>
<trkpt lat="50.071846" lon="13.409589">
<time>2021-08-22T10:49:34Z</time>
</trkpt>
<trkpt lat="50.071875" lon="13.409553">
<time>2021-08-22T10:49:35Z</time>
</trkpt>
<trkpt lat="50.071916" lon="13.409562">
<time>2021-08-22T10:49:36Z</time>
</trkpt>
<trkpt lat="50.071972" lon="13.4096">
<time>2021-08-22T10:49:37Z</time>
</trkpt>
<trkpt lat="50.07202" lon="13.409647">
<time>2021-08-22T10:49:38Z</time>
</trkpt>
<trkpt lat="50.072063" lon="13.409699">
<time>2021-08-22T10:49:39Z</time>
</trkpt>
<trkpt lat="50.072086" lon="13.409742">
<time>2021-08-22T10:49:40Z</time>
</trkpt>
<trkpt lat="50.072112" lon="13.409786">
<time>2021-08-22T10:49:41Z</time>
</trkpt>
<trkpt lat="50.072135" lon="13.409838">
<time>2021-08-22T10:49:42Z</time>
</trkpt>
<trkpt lat="50.07216" lon="13.409881">
<time>2021-08-22T10:49:43Z</time>
</trkpt>
<trkpt lat="50.072194" lon="13.40993">
<time>2021-08-22T10:49:44Z</time>
</trkpt>
<trkpt lat="50.072221" lon="13.409983">
<time>2021-08-22T10:49:45Z</time>
</trkpt>
<trkpt lat="50.072248" lon="13.410036">
<time>2021-08-22T10:49:46Z</time>
</trkpt>
<trkpt lat="50.072273" lon="13.410092">
<time>2021-08-22T10:49:47Z</time>
</trkpt>
<trkpt lat="50.072293" lon="13.41015">
<time>2021-08-22T10:49:48Z</time>
</trkpt>
<trkpt lat="50.072314" lon="13.410201">
<time>2021-08-22T10:49:49Z</time>
</trkpt>
<trkpt lat="50.072327" lon="13.410257">
<time>2021-08-22T10:49:50Z</time>
</trkpt>
<trkpt lat="50.072333" lon="13.410324">
<time>2021-08-22T10:49:51Z</time>
</trkpt>
<trkpt lat="50.072342" lon="13.410395">
<time>2021-08-22T10:49:52Z</time>
</trkpt>
<trkpt lat="50.072344" lon="13.41046">
<time>2021-08-22T10:49:53Z</time>
</trkpt>
<trkpt lat="50.072341" lon="13.410546">
<time>2021-08-22T10:49:54Z</time>
</trkpt>
<trkpt lat="50.072345" lon="13.410623">
<time>2021-08-22T10:49:55Z</time>
</trkpt>
<trkpt lat="50.072348" lon="13.410686">
<time>2021-08-22T10:49:56Z</time>
</trkpt>
<trkpt lat="50.072346" lon="13.410742">
<time>2021-08-22T10:49:57Z</time>
</trkpt>
<trkpt lat="50.072353" lon="13.410794">
<time>2021-08-22T10:49:58Z</time>
</trkpt>
<trkpt lat="50.072368" lon="13.41084">
<time>2021-08-22T10:49:59Z</time>
</trkpt>
<trkpt lat="50.072382" lon="13.410894">
<time>2021-08-22T10:50:00Z</time>
</trkpt>
<trkpt lat="50.072394" lon="13.410951">
<time>2021-08-22T10:50:01Z</time>
</trkpt>
<trkpt lat="50.072412" lon="13.411005">
<time>2021-08-22T10:50:02Z</time>
</trkpt>
<trkpt lat="50.072421" lon="13.411068">
<time>2021-08-22T10:50:03Z</time>
</trkpt>
<trkpt lat="50.072434" lon="13.411117">
<time>2021-08-22T10:50:04Z</time>
</trkpt>
<trkpt lat="50.072453" lon="13.411168">
<time>2021-08-22T10:50:05Z</time>
</trkpt>
<trkpt lat="50.072479" lon="13.411218">
<time>2021-08-22T10:50:06Z</time>
</trkpt>
<trkpt lat="50.072498" lon="13.411263">
<time>2021-08-22T10:50:07Z</time>
</trkpt>
<trkpt lat="50.072515" lon="13.411306">
<time>2021-08-22T10:50:08Z</time>
</trkpt>
<trkpt lat="50.072532" lon="13.41137">
<time>2021-08-22T10:50:09Z</time>
</trkpt>
<trkpt lat="50.072559" lon="13.411418">
<time>2021-08-22T10:50:10Z</time>
</trkpt>
<trkpt lat="50.072579" lon="13.41146">
<time>2021-08-22T10:50:11Z</time>
</trkpt>
<trkpt lat="50.072604" lon="13.411511">
<time>2021-08-22T10:50:12Z</time>
</trkpt>
<trkpt lat="50.072629" lon="13.411562">
<time>2021-08-22T10:50:13Z</time>
</trkpt>
<trkpt lat="50.072652" lon="13.411603">
<time>2021-08-22T10:50:14Z</time>
</trkpt>
<trkpt lat="50.072671" lon="13.411647">
<time>2021-08-22T10:50:15Z</time>
</trkpt>
<trkpt lat="50.07269" lon="13.411699">
<time>2021-08-22T10:50:16Z</time>
</trkpt>
<trkpt lat="50.072715" lon="13.411754">
<time>2021-08-22T10:50:17Z</time>
</trkpt>
<trkpt lat="50.072745" lon="13.411797">
<time>2021-08-22T10:50:18Z</time>
</trkpt>
<trkpt lat="50.07277" lon="13.411842">
<time>2021-08-22T10:50:19Z</time>
</trkpt>
<trkpt lat="50.07279" lon="13.411878">
<time>2021-08-22T10:50:20Z</time>
</trkpt>
<trkpt lat="50.072817" lon="13.411936">
<time>2021-08-22T10:50:21Z</time>
</trkpt>
<trkpt lat="50.072847" lon="13.411983">
<time>2021-08-22T10:50:22Z</time>
</trkpt>
<trkpt lat="50.072868" lon="13.412026">
<time>2021-08-22T10:50:23Z</time>
</trkpt>
<trkpt lat="50.072887" lon="13.412068">
<time>2021-08-22T10:50:24Z</time>
</trkpt>
<trkpt lat="50.072909" lon="13.412111">
<time>2021-08-22T10:50:25Z</time>
</trkpt>
<trkpt lat="50.072937" lon="13.412151">
<time>2021-08-22T10:50:26Z</time>
</trkpt>
<trkpt lat="50.072955" lon="13.412189">
<time>2021-08-22T10:50:27Z</time>
</trkpt>
<trkpt lat="50.072984" lon="13.412233">
<time>2021-08-22T10:50:28Z</time>
</trkpt>
<trkpt lat="50.073012" lon="13.412277">
<time>2021-08-22T10:50:29Z</time>
</trkpt>
<trkpt lat="50.073034" lon="13.412315">
<time>2021-08-22T10:50:30Z</time>
</trkpt>
<trkpt lat="50.07306" lon="13.412358">
<time>2021-08-22T10:50:31Z</time>
</trkpt>
<trkpt lat="50.073091" lon="13.412402">
<time>2021-08-22T10:50:32Z</time>
</trkpt>
<trkpt lat="50.073119" lon="13.412446">
<time>2021-08-22T10:50:33Z</time>
</trkpt>
<trkpt lat="50.073149" lon="13.412489">
<time>2021-08-22T10:50:34Z</time>
</trkpt>
<trkpt lat="50.073178" lon="13.412527">
<time>2021-08-22T10:50:35Z</time>
</trkpt>
<trkpt lat="50.073204" lon="13.412563">
<time>2021-08-22T10:50:36Z</time>
</trkpt>
<trkpt lat="50.073234" lon="13.412597">
<time>2021-08-22T10:50:37Z</time>
</trkpt>
<trkpt lat="50.073254" lon="13.412638">
<time>2021-08-22T10:50:38Z</time>
</trkpt>
<trkpt lat="50.073276" lon="13.412687">
<time>2021-08-22T10:50:39Z</time>
</trkpt>
<trkpt lat="50.073303" lon="13.412741">
<time>2021-08-22T10:50:40Z</time>
</trkpt>
<trkpt lat="50.073328" lon="13.412805">
<time>2021-08-22T10:50:41Z</time>
</trkpt>
<trkpt lat="50.073352" lon="13.412881">
<time>2021-08-22T10:50:42Z</time>
</trkpt>
<trkpt lat="50.073391" lon="13.412957">
<time>2021-08-22T10:50:43Z</time>
</trkpt>
<trkpt lat="50.073424" lon="13.413034">
<time>2021-08-22T10:50:44Z</time>
</trkpt>
<trkpt lat="50.073452" lon="13.413117">
<time>2021-08-22T10:50:45Z</time>
</trkpt>
<trkpt lat="50.073474" lon="13.41322">
<time>2021-08-22T10:50:46Z</time>
</trkpt>
<trkpt lat="50.073506" lon="13.413315">
<time>2021-08-22T10:50:47Z</time>
</trkpt>
<trkpt lat="50.073535" lon="13.413417">
<time>2021-08-22T10:50:48Z</time>
</trkpt>
<trkpt lat="50.073561" lon="13.413513">
<time>2021-08-22T10:50:49Z</time>
</trkpt>
<trkpt lat="50.073603" lon="13.413602">
<time>2021-08-22T10:50:50Z</time>
</trkpt>
<trkpt lat="50.073645" lon="13.413684">
<time>2021-08-22T10:50:51Z</time>
</trkpt>
<trkpt lat="50.073689" lon="13.413768">
<time>2021-08-22T10:50:52Z</time>
</trkpt>
<trkpt lat="50.073738" lon="13.413836">
<time>2021-08-22T10:50:53Z</time>
</trkpt>
<trkpt lat="50.073789" lon="13.413895">
<time>2021-08-22T10:50:54Z</time>
</trkpt>
<trkpt lat="50.07384" lon="13.413961">
<time>2021-08-22T10:50:55Z</time>
</trkpt>
<trkpt lat="50.073892" lon="13.414029">
<time>2021-08-22T10:50:56Z</time>
</trkpt>
<trkpt lat="50.073942" lon="13.414089">
<time>2021-08-22T10:50:57Z</time>
</trkpt>
<trkpt lat="50.074007" lon="13.414136">
<time>2021-08-22T10:50:58Z</time>
</trkpt>
<trkpt lat="50.074076" lon="13.414182">
<time>2021-08-22T10:50:59Z</time>
</trkpt>
<trkpt lat="50.074151" lon="13.414214">
<time>2021-08-22T10:51:00Z</time>
</trkpt>
<trkpt lat="50.074215" lon="13.414251">
<time>2021-08-22T10:51:01Z</time>
</trkpt>
<trkpt lat="50.07429" lon="13.414295">
<time>2021-08-22T10:51:02Z</time>
</trkpt>
<trkpt lat="50.074382" lon="13.414353">
<time>2021-08-22T10:51:03Z</time>
</trkpt>
<trkpt lat="50.074474" lon="13.414413">
<time>2021-08-22T10:51:04Z</time>
</trkpt>
<trkpt lat="50.074563" lon="13.414478">
<time>2021-08-22T10:51:05Z</time>
</trkpt>
<trkpt lat="50.074645" lon="13.414542">
<time>2021-08-22T10:51:06Z</time>
</trkpt>
<trkpt lat="50.074725" lon="13.414601">
<time>2021-08-22T10:51:07Z</time>
</trkpt>
<trkpt lat="50.074794" lon="13.414655">
<time>2021-08-22T10:51:08Z</time>
</trkpt>
<trkpt lat="50.074876" lon="13.414737">
<time>2021-08-22T10:51:09Z</time>
</trkpt>
<trkpt lat="50.074944" lon="13.414819">
<time>2021-08-22T10:51:10Z</time>
</trkpt>
<trkpt lat="50.075012" lon="13.414928">
<time>2021-08-22T10:51:11Z</time>
</trkpt>
<trkpt lat="50.07508" lon="13.415048">
<time>2021-08-22T10:51:12Z</time>
</trkpt>
<trkpt lat="50.075148" lon="13.415178">
<time>2021-08-22T10:51:13Z</time>
</trkpt>
<trkpt lat="50.075222" lon="13.415289">
<time>2021-08-22T10:51:14Z</time>
</trkpt>
<trkpt lat="50.075287" lon="13.415387">
<time>2021-08-22T10:51:15Z</time>
</trkpt>
<trkpt lat="50.075375" lon="13.415458">
<time>2021-08-22T10:51:16Z</time>
</trkpt>
<trkpt lat="50.075451" lon="13.415492">
<time>2021-08-22T10:51:17Z</time>
</trkpt>
<trkpt lat="50.075519" lon="13.415481">
<time>2021-08-22T10:51:18Z</time>
</trkpt>
<trkpt lat="50.075583" lon="13.415449">
<time>2021-08-22T10:51:19Z</time>
</trkpt>
<trkpt lat="50.075646" lon="13.415387">
<time>2021-08-22T10:51:20Z</time>
</trkpt>
<trkpt lat="50.075705" lon="13.415323">
<time>2021-08-22T10:51:21Z</time>
</trkpt>
<trkpt lat="50.075745" lon="13.415243">
<time>2021-08-22T10:51:22Z</time>
</trkpt>
<trkpt lat="50.075796" lon="13.415167">
<time>2021-08-22T10:51:23Z</time>
</trkpt>
<trkpt lat="50.07586" lon="13.415083">
<time>2021-08-22T10:51:24Z</time>
</trkpt>
<trkpt lat="50.075925" lon="13.415002">
<time>2021-08-22T10:51:25Z</time>
</trkpt>
<trkpt lat="50.076011" lon="13.414938">
<time>2021-08-22T10:51:26Z</time>
</trkpt>
<trkpt lat="50.076104" lon="13.414881">
<time>2021-08-22T10:51:27Z</time>
</trkpt>
<trkpt lat="50.076174" lon="13.414816">
<time>2021-08-22T10:51:28Z</time>
</trkpt>
<trkpt lat="50.076243" lon="13.414745">
<time>2021-08-22T10:51:29Z</time>
</trkpt>
<trkpt lat="50.076303" lon="13.414666">
<time>2021-08-22T10:51:30Z</time>
</trkpt>
<trkpt lat="50.076359" lon="13.414575">
<time>2021-08-22T10:51:31Z</time>
</trkpt>
<trkpt lat="50.076415" lon="13.414479">
<time>2021-08-22T10:51:32Z</time>
</trkpt>
<trkpt lat="50.076471" lon="13.414386">
<time>2021-08-22T10:51:33Z</time>
</trkpt>
<trkpt lat="50.076531" lon="13.414303">
<time>2021-08-22T10:51:34Z</time>
</trkpt>
<trkpt lat="50.076603" lon="13.414232">
<time>2021-08-22T10:51:35Z</time>
</trkpt>
<trkpt lat="50.076682" lon="13.414169">
<time>2021-08-22T10:51:36Z</time>
</trkpt>
<trkpt lat="50.076758" lon="13.414105">
<time>2021-08-22T10:51:37Z</time>
</trkpt>
<trkpt lat="50.076835" lon="13.414044">
<time>2021-08-22T10:51:38Z</time>
</trkpt>
<trkpt lat="50.076914" lon="13.413981">
<time>2021-08-22T10:51:39Z</time>
</trkpt>
<trkpt lat="50.076985" lon="13.413921">
<time>2021-08-22T10:51:40Z</time>
</trkpt>
<trkpt lat="50.077056" lon="13.413859">
<time>2021-08-22T10:51:41Z</time>
</trkpt>
<trkpt lat="50.077135" lon="13.413796">
<time>2021-08-22T10:51:42Z</time>
</trkpt>
<trkpt lat="50.077205" lon="13.413731">
<time>2021-08-22T10:51:43Z</time>
</trkpt>
<trkpt lat="50.077271" lon="13.413667">
<time>2021-08-22T10:51:44Z</time>
</trkpt>
<trkpt lat="50.077341" lon="13.413608">
<time>2021-08-22T10:51:45Z</time>
</trkpt>
<trkpt lat="50.077411" lon="13.413548">
<time>2021-08-22T10:51:46Z</time>
</trkpt>
<trkpt lat="50.077478" lon="13.413489">
<time>2021-08-22T10:51:47Z</time>
</trkpt>
<trkpt lat="50.077546" lon="13.41343">
<time>2021-08-22T10:51:48Z</time>
</trkpt>
<trkpt lat="50.077616" lon="13.413367">
<time>2021-08-22T10:51:49Z</time>
</trkpt>
<trkpt lat="50.077686" lon="13.413304">
<time>2021-08-22T10:51:50Z</time>
</trkpt>
<trkpt lat="50.077757" lon="13.41324">
<time>2021-08-22T10:51:51Z</time>
</trkpt>
<trkpt lat="50.077842" lon="13.413177">
<time>2021-08-22T10:51:52Z</time>
</trkpt>
<trkpt lat="50.077914" lon="13.413117">
<time>2021-08-22T10:51:53Z</time>
</trkpt>
<trkpt lat="50.077993" lon="13.413057">
<time>2021-08-22T10:51:54Z</time>
</trkpt>
<trkpt lat="50.078059" lon="13.412997">
<time>2021-08-22T10:51:55Z</time>
</trkpt>
<trkpt lat="50.078121" lon="13.41294">
<time>2021-08-22T10:51:56Z</time>
</trkpt>
<trkpt lat="50.078191" lon="13.412888">
<time>2021-08-22T10:51:57Z</time>
</trkpt>
<trkpt lat="50.078267" lon="13.412833">
<time>2021-08-22T10:51:58Z</time>
</trkpt>
<trkpt lat="50.078343" lon="13.412763">
<time>2021-08-22T10:51:59Z</time>
</trkpt>
<trkpt lat="50.078424" lon="13.412683">
<time>2021-08-22T10:52:00Z</time>
</trkpt>
<trkpt lat="50.078502" lon="13.412601">
<time>2021-08-22T10:52:01Z</time>
</trkpt>
<trkpt lat="50.078572" lon="13.412532">
<time>2021-08-22T10:52:02Z</time>
</trkpt>
<trkpt lat="50.078656" lon="13.412456">
<time>2021-08-22T10:52:03Z</time>
</trkpt>
<trkpt lat="50.078746" lon="13.412384">
<time>2021-08-22T10:52:04Z</time>
</trkpt>
<trkpt lat="50.07883" lon="13.412308">
<time>2021-08-22T10:52:05Z</time>
</trkpt>
<trkpt lat="50.078916" lon="13.412231">
<time>2021-08-22T10:52:06Z</time>
</trkpt>
<trkpt lat="50.078995" lon="13.412157">
<time>2021-08-22T10:52:07Z</time>
</trkpt>
<trkpt lat="50.079071" lon="13.412087">
<time>2021-08-22T10:52:08Z</time>
</trkpt>
<trkpt lat="50.079165" lon="13.412032">
<time>2021-08-22T10:52:09Z</time>
</trkpt>
<trkpt lat="50.079224" lon="13.411991">
<time>2021-08-22T10:52:10Z</time>
</trkpt>
<trkpt lat="50.079263" lon="13.411964">
<time>2021-08-22T10:52:11Z</time>
</trkpt>
<trkpt lat="50.079291" lon="13.41195">
<time>2021-08-22T10:52:12Z</time>
</trkpt>
<trkpt lat="50.079319" lon="13.411943">
<time>2021-08-22T10:52:13Z</time>
</trkpt>
<trkpt lat="50.079344" lon="13.411936">
<time>2021-08-22T10:52:14Z</time>
</trkpt>
<trkpt lat="50.079364" lon="13.411922">
<time>2021-08-22T10:52:15Z</time>
</trkpt>
<trkpt lat="50.079377" lon="13.411914">
<time>2021-08-22T10:52:16Z</time>
</trkpt>
<trkpt lat="50.079385" lon="13.411913">
<time>2021-08-22T10:52:17Z</time>
</trkpt>
<trkpt lat="50.079398" lon="13.411907">
<time>2021-08-22T10:52:18Z</time>
</trkpt>
<trkpt lat="50.079414" lon="13.411902">
<time>2021-08-22T10:52:19Z</time>
</trkpt>
<trkpt lat="50.079428" lon="13.411898">
<time>2021-08-22T10:52:20Z</time>
</trkpt>
<trkpt lat="50.07944" lon="13.411897">
<time>2021-08-22T10:52:21Z</time>
</trkpt>
<trkpt lat="50.079448" lon="13.411892">
<time>2021-08-22T10:52:22Z</time>
</trkpt>
<trkpt lat="50.079458" lon="13.411887">
<time>2021-08-22T10:52:23Z</time>
</trkpt>
<trkpt lat="50.079465" lon="13.411887">
<time>2021-08-22T10:52:24Z</time>
</trkpt>
<trkpt lat="50.079472" lon="13.411888">
<time>2021-08-22T10:52:25Z</time>
</trkpt>
<trkpt lat="50.079478" lon="13.411888">
<time>2021-08-22T10:52:26Z</time>
</trkpt>
<trkpt lat="50.079483" lon="13.411885">
<time>2021-08-22T10:52:27Z</time>
</trkpt>
<trkpt lat="50.079487" lon="13.411882">
<time>2021-08-22T10:52:28Z</time>
</trkpt>
<trkpt lat="50.079498" lon="13.411878">
<time>2021-08-22T10:52:29Z</time>
</trkpt>
<trkpt lat="50.079512" lon="13.411863">
<time>2021-08-22T10:52:30Z</time>
</trkpt>
<trkpt lat="50.079533" lon="13.411848">
<time>2021-08-22T10:52:31Z</time>
</trkpt>
<trkpt lat="50.079557" lon="13.411835">
<time>2021-08-22T10:52:32Z</time>
</trkpt>
<trkpt lat="50.079583" lon="13.411817">
<time>2021-08-22T10:52:33Z</time>
</trkpt>
<trkpt lat="50.079616" lon="13.411795">
<time>2021-08-22T10:52:34Z</time>
</trkpt>
<trkpt lat="50.079646" lon="13.411777">
<time>2021-08-22T10:52:35Z</time>
</trkpt>
<trkpt lat="50.079671" lon="13.411774">
<time>2021-08-22T10:52:36Z</time>
</trkpt>
<trkpt lat="50.079697" lon="13.411789">
<time>2021-08-22T10:52:37Z</time>
</trkpt>
<trkpt lat="50.079728" lon="13.411821">
<time>2021-08-22T10:52:38Z</time>
</trkpt>
<trkpt lat="50.079753" lon="13.41187">
<time>2021-08-22T10:52:39Z</time>
</trkpt>
<trkpt lat="50.079774" lon="13.411928">
<time>2021-08-22T10:52:40Z</time>
</trkpt>
<trkpt lat="50.079789" lon="13.412004">
<time>2021-08-22T10:52:41Z</time>
</trkpt>
<trkpt lat="50.079813" lon="13.412074">
<time>2021-08-22T10:52:42Z</time>
</trkpt>
<trkpt lat="50.079842" lon="13.412137">
<time>2021-08-22T10:52:43Z</time>
</trkpt>
<trkpt lat="50.079875" lon="13.412202">
<time>2021-08-22T10:52:44Z</time>
</trkpt>
<trkpt lat="50.079912" lon="13.412274">
<time>2021-08-22T10:52:45Z</time>
</trkpt>
<trkpt lat="50.079942" lon="13.412353">
<time>2021-08-22T10:52:46Z</time>
</trkpt>
<trkpt lat="50.079973" lon="13.412421">
<time>2021-08-22T10:52:47Z</time>
</trkpt>
<trkpt lat="50.080004" lon="13.412495">
<time>2021-08-22T10:52:48Z</time>
</trkpt>
<trkpt lat="50.080036" lon="13.412585">
<time>2021-08-22T10:52:49Z</time>
</trkpt>
<trkpt lat="50.080062" lon="13.412662">
<time>2021-08-22T10:52:50Z</time>
</trkpt>
<trkpt lat="50.08009" lon="13.412734">
<time>2021-08-22T10:52:51Z</time>
</trkpt>
<trkpt lat="50.080123" lon="13.41281">
<time>2021-08-22T10:52:52Z</time>
</trkpt>
<trkpt lat="50.080148" lon="13.412889">
<time>2021-08-22T10:52:53Z</time>
</trkpt>
<trkpt lat="50.080171" lon="13.412956">
<time>2021-08-22T10:52:54Z</time>
</trkpt>
<trkpt lat="50.080199" lon="13.413016">
<time>2021-08-22T10:52:55Z</time>
</trkpt>
<trkpt lat="50.080225" lon="13.413074">
<time>2021-08-22T10:52:56Z</time>
</trkpt>
<trkpt lat="50.080251" lon="13.413137">
<time>2021-08-22T10:52:57Z</time>
</trkpt>
<trkpt lat="50.08028" lon="13.413203">
<time>2021-08-22T10:52:58Z</time>
</trkpt>
<trkpt lat="50.080318" lon="13.41327">
<time>2021-08-22T10:52:59Z</time>
</trkpt>
<trkpt lat="50.080342" lon="13.413341">
<time>2021-08-22T10:53:00Z</time>
</trkpt>
<trkpt lat="50.080348" lon="13.413406">
<time>2021-08-22T10:53:01Z</time>
</trkpt>
<trkpt lat="50.080362" lon="13.41348">
<time>2021-08-22T10:53:02Z</time>
</trkpt>
<trkpt lat="50.080367" lon="13.41355">
<time>2021-08-22T10:53:03Z</time>
</trkpt>
<trkpt lat="50.080385" lon="13.413617">
<time>2021-08-22T10:53:04Z</time>
</trkpt>
<trkpt lat="50.080402" lon="13.413667">
<time>2021-08-22T10:53:05Z</time>
</trkpt>
<trkpt lat="50.080421" lon="13.413724">
<time>2021-08-22T10:53:06Z</time>
</trkpt>
<trkpt lat="50.080436" lon="13.413769">
<time>2021-08-22T10:53:07Z</time>
</trkpt>
<trkpt lat="50.080452" lon="13.413807">
<time>2021-08-22T10:53:08Z</time>
</trkpt>
<trkpt lat="50.080463" lon="13.413872">
<time>2021-08-22T10:53:09Z</time>
</trkpt>
<trkpt lat="50.080479" lon="13.413945">
<time>2021-08-22T10:53:10Z</time>
</trkpt>
<trkpt lat="50.080498" lon="13.414015">
<time>2021-08-22T10:53:11Z</time>
</trkpt>
<trkpt lat="50.080517" lon="13.414089">
<time>2021-08-22T10:53:12Z</time>
</trkpt>
<trkpt lat="50.080532" lon="13.414173">
<time>2021-08-22T10:53:13Z</time>
</trkpt>
<trkpt lat="50.080563" lon="13.414227">
<time>2021-08-22T10:53:14Z</time>
</trkpt>
<trkpt lat="50.0806" lon="13.414262">
<time>2021-08-22T10:53:15Z</time>
</trkpt>
<trkpt lat="50.080641" lon="13.414291">
<time>2021-08-22T10:53:16Z</time>
</trkpt>
<trkpt lat="50.080689" lon="13.414311">
<time>2021-08-22T10:53:17Z</time>
</trkpt>
<trkpt lat="50.080724" lon="13.414346">
<time>2021-08-22T10:53:18Z</time>
</trkpt>
<trkpt lat="50.080763" lon="13.414396">
<time>2021-08-22T10:53:19Z</time>
</trkpt>
<trkpt lat="50.080811" lon="13.414438">
<time>2021-08-22T10:53:20Z</time>
</trkpt>
<trkpt lat="50.080867" lon="13.414478">
<time>2021-08-22T10:53:21Z</time>
</trkpt>
<trkpt lat="50.080946" lon="13.414505">
<time>2021-08-22T10:53:22Z</time>
</trkpt>
<trkpt lat="50.081012" lon="13.414531">
<time>2021-08-22T10:53:23Z</time>
</trkpt>
<trkpt lat="50.081081" lon="13.414536">
<time>2021-08-22T10:53:24Z</time>
</trkpt>
<trkpt lat="50.081139" lon="13.414519">
<time>2021-08-22T10:53:25Z</time>
</trkpt>
<trkpt lat="50.081207" lon="13.414486">
<time>2021-08-22T10:53:26Z</time>
</trkpt>
<trkpt lat="50.081258" lon="13.414431">
<time>2021-08-22T10:53:27Z</time>
</trkpt>
<trkpt lat="50.081307" lon="13.414368">
<time>2021-08-22T10:53:28Z</time>
</trkpt>
<trkpt lat="50.081353" lon="13.414296">
<time>2021-08-22T10:53:29Z</time>
</trkpt>
<trkpt lat="50.081406" lon="13.414231">
<time>2021-08-22T10:53:30Z</time>
</trkpt>
<trkpt lat="50.081464" lon="13.414166">
<time>2021-08-22T10:53:31Z</time>
</trkpt>
<trkpt lat="50.081518" lon="13.414097">
<time>2021-08-22T10:53:32Z</time>
</trkpt>
<trkpt lat="50.081575" lon="13.41402">
<time>2021-08-22T10:53:33Z</time>
</trkpt>
<trkpt lat="50.081645" lon="13.413949">
<time>2021-08-22T10:53:34Z</time>
</trkpt>
<trkpt lat="50.081704" lon="13.413886">
<time>2021-08-22T10:53:35Z</time>
</trkpt>
<trkpt lat="50.081761" lon="13.41382">
<time>2021-08-22T10:53:36Z</time>
</trkpt>
<trkpt lat="50.081816" lon="13.413753">
<time>2021-08-22T10:53:37Z</time>
</trkpt>
<trkpt lat="50.081879" lon="13.413691">
<time>2021-08-22T10:53:38Z</time>
</trkpt>
<trkpt lat="50.081933" lon="13.413623">
<time>2021-08-22T10:53:39Z</time>
</trkpt>
<trkpt lat="50.081988" lon="13.413564">
<time>2021-08-22T10:53:40Z</time>
</trkpt>
<trkpt lat="50.082043" lon="13.413508">
<time>2021-08-22T10:53:41Z</time>
</trkpt>
<trkpt lat="50.082097" lon="13.413466">
<time>2021-08-22T10:53:42Z</time>
</trkpt>
<trkpt lat="50.082149" lon="13.413416">
<time>2021-08-22T10:53:43Z</time>
</trkpt>
<trkpt lat="50.082194" lon="13.413363">
<time>2021-08-22T10:53:44Z</time>
</trkpt>
<trkpt lat="50.082239" lon="13.413303">
<time>2021-08-22T10:53:45Z</time>
</trkpt>
<trkpt lat="50.082268" lon="13.413242">
<time>2021-08-22T10:53:46Z</time>
</trkpt>
<trkpt lat="50.082288" lon="13.41318">
<time>2021-08-22T10:53:47Z</time>
</trkpt>
<trkpt lat="50.082305" lon="13.413129">
<time>2021-08-22T10:53:48Z</time>
</trkpt>
<trkpt lat="50.082328" lon="13.413112">
<time>2021-08-22T10:53:49Z</time>
</trkpt>
<trkpt lat="50.082398" lon="13.413119">
<time>2021-08-22T10:53:50Z</time>
</trkpt>
<trkpt lat="50.08243" lon="13.413112">
<time>2021-08-22T10:53:51Z</time>
</trkpt>
<trkpt lat="50.082458" lon="13.413113">
<time>2021-08-22T10:53:52Z</time>
</trkpt>
<trkpt lat="50.08252" lon="13.413142">
<time>2021-08-22T10:53:53Z</time>
</trkpt>
<trkpt lat="50.082599" lon="13.413179">
<time>2021-08-22T10:53:54Z</time>
</trkpt>
<trkpt lat="50.082645" lon="13.413212">
<time>2021-08-22T10:53:55Z</time>
</trkpt>
<trkpt lat="50.082681" lon="13.413225">
<time>2021-08-22T10:53:56Z</time>
</trkpt>
<trkpt lat="50.082704" lon="13.413225">
<time>2021-08-22T10:53:57Z</time>
</trkpt>
<trkpt lat="50.082742" lon="13.413228">
<time>2021-08-22T10:53:58Z</time>
</trkpt>
<trkpt lat="50.082782" lon="13.413245">
<time>2021-08-22T10:53:59Z</time>
</trkpt>
<trkpt lat="50.082822" lon="13.413281">
<time>2021-08-22T10:54:00Z</time>
</trkpt>
<trkpt lat="50.082866" lon="13.413328">
<time>2021-08-22T10:54:01Z</time>
</trkpt>
<trkpt lat="50.082912" lon="13.413384">
<time>2021-08-22T10:54:02Z</time>
</trkpt>
<trkpt lat="50.082955" lon="13.413452">
<time>2021-08-22T10:54:03Z</time>
</trkpt>
<trkpt lat="50.082997" lon="13.413525">
<time>2021-08-22T10:54:04Z</time>
</trkpt>
<trkpt lat="50.083042" lon="13.413601">
<time>2021-08-22T10:54:05Z</time>
</trkpt>
<trkpt lat="50.083086" lon="13.413681">
<time>2021-08-22T10:54:06Z</time>
</trkpt>
<trkpt lat="50.083127" lon="13.413765">
<time>2021-08-22T10:54:07Z</time>
</trkpt>
<trkpt lat="50.083162" lon="13.413854">
<time>2021-08-22T10:54:08Z</time>
</trkpt>
<trkpt lat="50.083194" lon="13.413947">
<time>2021-08-22T10:54:09Z</time>
</trkpt>
<trkpt lat="50.083225" lon="13.414046">
<time>2021-08-22T10:54:10Z</time>
</trkpt>
<trkpt lat="50.08326" lon="13.414144">
<time>2021-08-22T10:54:11Z</time>
</trkpt>
<trkpt lat="50.083297" lon="13.414246">
<time>2021-08-22T10:54:12Z</time>
</trkpt>
<trkpt lat="50.083338" lon="13.414349">
<time>2021-08-22T10:54:13Z</time>
</trkpt>
<trkpt lat="50.083386" lon="13.414448">
<time>2021-08-22T10:54:14Z</time>
</trkpt>
<trkpt lat="50.083439" lon="13.41454">
<time>2021-08-22T10:54:15Z</time>
</trkpt>
<trkpt lat="50.083495" lon="13.414627">
<time>2021-08-22T10:54:16Z</time>
</trkpt>
<trkpt lat="50.083552" lon="13.414711">
<time>2021-08-22T10:54:17Z</time>
</trkpt>
<trkpt lat="50.083609" lon="13.41479">
<time>2021-08-22T10:54:18Z</time>
</trkpt>
<trkpt lat="50.083665" lon="13.414869">
<time>2021-08-22T10:54:19Z</time>
</trkpt>
<trkpt lat="50.083726" lon="13.414949">
<time>2021-08-22T10:54:20Z</time>
</trkpt>
<trkpt lat="50.083787" lon="13.415026">
<time>2021-08-22T10:54:21Z</time>
</trkpt>
<trkpt lat="50.083851" lon="13.415095">
<time>2021-08-22T10:54:22Z</time>
</trkpt>
<trkpt lat="50.083908" lon="13.415147">
<time>2021-08-22T10:54:23Z</time>
</trkpt>
<trkpt lat="50.083954" lon="13.415194">
<time>2021-08-22T10:54:24Z</time>
</trkpt>
<trkpt lat="50.083997" lon="13.415246">
<time>2021-08-22T10:54:25Z</time>
</trkpt>
<trkpt lat="50.084034" lon="13.415303">
<time>2021-08-22T10:54:26Z</time>
</trkpt>
<trkpt lat="50.084063" lon="13.415365">
<time>2021-08-22T10:54:27Z</time>
</trkpt>
<trkpt lat="50.08409" lon="13.415429">
<time>2021-08-22T10:54:28Z</time>
</trkpt>
<trkpt lat="50.084114" lon="13.41549">
<time>2021-08-22T10:54:29Z</time>
</trkpt>
<trkpt lat="50.084136" lon="13.415548">
<time>2021-08-22T10:54:30Z</time>
</trkpt>
<trkpt lat="50.084154" lon="13.415606">
<time>2021-08-22T10:54:31Z</time>
</trkpt>
<trkpt lat="50.084174" lon="13.415661">
<time>2021-08-22T10:54:32Z</time>
</trkpt>
<trkpt lat="50.084198" lon="13.41571">
<time>2021-08-22T10:54:33Z</time>
</trkpt>
<trkpt lat="50.08422" lon="13.415762">
<time>2021-08-22T10:54:34Z</time>
</trkpt>
<trkpt lat="50.084242" lon="13.415822">
<time>2021-08-22T10:54:35Z</time>
</trkpt>
<trkpt lat="50.084265" lon="13.415875">
<time>2021-08-22T10:54:36Z</time>
</trkpt>
<trkpt lat="50.084286" lon="13.415927">
<time>2021-08-22T10:54:37Z</time>
</trkpt>
<trkpt lat="50.084304" lon="13.41597">
<time>2021-08-22T10:54:38Z</time>
</trkpt>
<trkpt lat="50.084315" lon="13.416">
<time>2021-08-22T10:54:39Z</time>
</trkpt>
<trkpt lat="50.084321" lon="13.416007">
<time>2021-08-22T10:54:40Z</time>
</trkpt>
<trkpt lat="50.084324" lon="13.416007">
<time>2021-08-22T10:54:41Z</time>
</trkpt>
<trkpt lat="50.084333" lon="13.416007">
<time>2021-08-22T10:54:42Z</time>
</trkpt>
<trkpt lat="50.084334" lon="13.416017">
<time>2021-08-22T10:54:43Z</time>
</trkpt>
<trkpt lat="50.084339" lon="13.416033">
<time>2021-08-22T10:54:44Z</time>
</trkpt>
<trkpt lat="50.084347" lon="13.416053">
<time>2021-08-22T10:54:45Z</time>
</trkpt>
<trkpt lat="50.084346" lon="13.416069">
<time>2021-08-22T10:54:46Z</time>
</trkpt>
<trkpt lat="50.08435" lon="13.416078">
<time>2021-08-22T10:54:47Z</time>
</trkpt>
<trkpt lat="50.084357" lon="13.416091">
<time>2021-08-22T10:54:48Z</time>
</trkpt>
<trkpt lat="50.084372" lon="13.416105">
<time>2021-08-22T10:54:49Z</time>
</trkpt>
<trkpt lat="50.084393" lon="13.416124">
<time>2021-08-22T10:54:50Z</time>
</trkpt>
<trkpt lat="50.084421" lon="13.416148">
<time>2021-08-22T10:54:51Z</time>
</trkpt>
<trkpt lat="50.084447" lon="13.416167">
<time>2021-08-22T10:54:52Z</time>
</trkpt>
<trkpt lat="50.084462" lon="13.4162">
<time>2021-08-22T10:54:53Z</time>
</trkpt>
<trkpt lat="50.084479" lon="13.416234">
<time>2021-08-22T10:54:54Z</time>
</trkpt>
<trkpt lat="50.084494" lon="13.41627">
<time>2021-08-22T10:54:55Z</time>
</trkpt>
<trkpt lat="50.084513" lon="13.416302">
<time>2021-08-22T10:54:56Z</time>
</trkpt>
<trkpt lat="50.084531" lon="13.416326">
<time>2021-08-22T10:54:57Z</time>
</trkpt>
<trkpt lat="50.084539" lon="13.416354">
<time>2021-08-22T10:54:58Z</time>
</trkpt>
<trkpt lat="50.084551" lon="13.416367">
<time>2021-08-22T10:54:59Z</time>
</trkpt>
<trkpt lat="50.084555" lon="13.416383">
<time>2021-08-22T10:55:00Z</time>
</trkpt>
<trkpt lat="50.084558" lon="13.416395">
<time>2021-08-22T10:55:01Z</time>
</trkpt>
<trkpt lat="50.084559" lon="13.416405">
<time>2021-08-22T10:55:02Z</time>
</trkpt>
<trkpt lat="50.084561" lon="13.416408">
<time>2021-08-22T10:55:03Z</time>
</trkpt>
<trkpt lat="50.084567" lon="13.416393">
<time>2021-08-22T10:55:04Z</time>
</trkpt>
<trkpt lat="50.084577" lon="13.416372">
<time>2021-08-22T10:55:05Z</time>
</trkpt>
<trkpt lat="50.0846" lon="13.416339">
<time>2021-08-22T10:55:06Z</time>
</trkpt>
<trkpt lat="50.084619" lon="13.416317">
<time>2021-08-22T10:55:07Z</time>
</trkpt>
<trkpt lat="50.084635" lon="13.416307">
<time>2021-08-22T10:55:08Z</time>
</trkpt>
<trkpt lat="50.08464" lon="13.416301">
<time>2021-08-22T10:55:09Z</time>
</trkpt>
<trkpt lat="50.084634" lon="13.416281">
<time>2021-08-22T10:55:10Z</time>
</trkpt>
<trkpt lat="50.084641" lon="13.416272">
<time>2021-08-22T10:55:11Z</time>
</trkpt>
<trkpt lat="50.084646" lon="13.416261">
<time>2021-08-22T10:55:12Z</time>
</trkpt>
<trkpt lat="50.084648" lon="13.416255">
<time>2021-08-22T10:55:13Z</time>
</trkpt>
<trkpt lat="50.084652" lon="13.416249">
<time>2021-08-22T10:55:14Z</time>
</trkpt>
<trkpt lat="50.084661" lon="13.416237">
<time>2021-08-22T10:55:15Z</time>
</trkpt>
<trkpt lat="50.084682" lon="13.416223">
<time>2021-08-22T10:55:16Z</time>
</trkpt>
<trkpt lat="50.08471" lon="13.416205">
<time>2021-08-22T10:55:17Z</time>
</trkpt>
<trkpt lat="50.084748" lon="13.416186">
<time>2021-08-22T10:55:18Z</time>
</trkpt>
<trkpt lat="50.084782" lon="13.416161">
<time>2021-08-22T10:55:19Z</time>
</trkpt>
<trkpt lat="50.084815" lon="13.416137">
<time>2021-08-22T10:55:20Z</time>
</trkpt>
<trkpt lat="50.084846" lon="13.416112">
<time>2021-08-22T10:55:21Z</time>
</trkpt>
<trkpt lat="50.084895" lon="13.416079">
<time>2021-08-22T10:55:22Z</time>
</trkpt>
<trkpt lat="50.084923" lon="13.416046">
<time>2021-08-22T10:55:23Z</time>
</trkpt>
<trkpt lat="50.084942" lon="13.416005">
<time>2021-08-22T10:55:24Z</time>
</trkpt>
<trkpt lat="50.084962" lon="13.415961">
<time>2021-08-22T10:55:25Z</time>
</trkpt>
<trkpt lat="50.084967" lon="13.415917">
<time>2021-08-22T10:55:26Z</time>
</trkpt>
<trkpt lat="50.084977" lon="13.415881">
<time>2021-08-22T10:55:27Z</time>
</trkpt>
<trkpt lat="50.084983" lon="13.415857">
<time>2021-08-22T10:55:28Z</time>
</trkpt>
<trkpt lat="50.084984" lon="13.415847">
<time>2021-08-22T10:55:29Z</time>
</trkpt>
<trkpt lat="50.084984" lon="13.415841">
<time>2021-08-22T10:55:30Z</time>
</trkpt>
<trkpt lat="50.084997" lon="13.415833">
<time>2021-08-22T10:55:31Z</time>
</trkpt>
<trkpt lat="50.084999" lon="13.415844">
<time>2021-08-22T10:55:32Z</time>
</trkpt>
<trkpt lat="50.084996" lon="13.415863">
<time>2021-08-22T10:55:33Z</time>
</trkpt>
<trkpt lat="50.084984" lon="13.415886">
<time>2021-08-22T10:55:34Z</time>
</trkpt>
<trkpt lat="50.084962" lon="13.415917">
<time>2021-08-22T10:55:35Z</time>
</trkpt>
<trkpt lat="50.084932" lon="13.415947">
<time>2021-08-22T10:55:36Z</time>
</trkpt>
<trkpt lat="50.084903" lon="13.415973">
<time>2021-08-22T10:55:37Z</time>
</trkpt>
<trkpt lat="50.08488" lon="13.41599">
<time>2021-08-22T10:55:38Z</time>
</trkpt>
<trkpt lat="50.084861" lon="13.415999">
<time>2021-08-22T10:55:39Z</time>
</trkpt>
<trkpt lat="50.084836" lon="13.416013">
<time>2021-08-22T10:55:40Z</time>
</trkpt>
<trkpt lat="50.084795" lon="13.416032">
<time>2021-08-22T10:55:41Z</time>
</trkpt>
<trkpt lat="50.084742" lon="13.416062">
<time>2021-08-22T10:55:42Z</time>
</trkpt>
<trkpt lat="50.084696" lon="13.416081">
<time>2021-08-22T10:55:43Z</time>
</trkpt>
<trkpt lat="50.084648" lon="13.416099">
<time>2021-08-22T10:55:44Z</time>
</trkpt>
<trkpt lat="50.084601" lon="13.416115">
<time>2021-08-22T10:55:45Z</time>
</trkpt>
<trkpt lat="50.084564" lon="13.416147">
<time>2021-08-22T10:55:46Z</time>
</trkpt>
<trkpt lat="50.084543" lon="13.41619">
<time>2021-08-22T10:55:47Z</time>
</trkpt>
<trkpt lat="50.084542" lon="13.416235">
<time>2021-08-22T10:55:48Z</time>
</trkpt>
<trkpt lat="50.084552" lon="13.416266">
<time>2021-08-22T10:55:49Z</time>
</trkpt>
<trkpt lat="50.084573" lon="13.416286">
<time>2021-08-22T10:55:50Z</time>
</trkpt>
<trkpt lat="50.084599" lon="13.416302">
<time>2021-08-22T10:55:51Z</time>
</trkpt>
<trkpt lat="50.084637" lon="13.416316">
<time>2021-08-22T10:55:52Z</time>
</trkpt>
<trkpt lat="50.084672" lon="13.416332">
<time>2021-08-22T10:55:53Z</time>
</trkpt>
<trkpt lat="50.084703" lon="13.416355">
<time>2021-08-22T10:55:54Z</time>
</trkpt>
<trkpt lat="50.08473" lon="13.416383">
<time>2021-08-22T10:55:55Z</time>
</trkpt>
<trkpt lat="50.084757" lon="13.416409">
<time>2021-08-22T10:55:56Z</time>
</trkpt>
<trkpt lat="50.084783" lon="13.416447">
<time>2021-08-22T10:55:57Z</time>
</trkpt>
<trkpt lat="50.084804" lon="13.416478">
<time>2021-08-22T10:55:58Z</time>
</trkpt>
<trkpt lat="50.084832" lon="13.416507">
<time>2021-08-22T10:55:59Z</time>
</trkpt>
<trkpt lat="50.084861" lon="13.416538">
<time>2021-08-22T10:56:00Z</time>
</trkpt>
<trkpt lat="50.084887" lon="13.416585">
<time>2021-08-22T10:56:01Z</time>
</trkpt>
<trkpt lat="50.08491" lon="13.416636">
<time>2021-08-22T10:56:02Z</time>
</trkpt>
<trkpt lat="50.084936" lon="13.416682">
<time>2021-08-22T10:56:03Z</time>
</trkpt>
<trkpt lat="50.084958" lon="13.416729">
<time>2021-08-22T10:56:04Z</time>
</trkpt>
<trkpt lat="50.084985" lon="13.416778">
<time>2021-08-22T10:56:05Z</time>
</trkpt>
<trkpt lat="50.085014" lon="13.41682">
<time>2021-08-22T10:56:06Z</time>
</trkpt>
<trkpt lat="50.085042" lon="13.41687">
<time>2021-08-22T10:56:07Z</time>
</trkpt>
<trkpt lat="50.085067" lon="13.416928">
<time>2021-08-22T10:56:08Z</time>
</trkpt>
<trkpt lat="50.085095" lon="13.416975">
<time>2021-08-22T10:56:09Z</time>
</trkpt>
<trkpt lat="50.085117" lon="13.417017">
<time>2021-08-22T10:56:10Z</time>
</trkpt>
<trkpt lat="50.085142" lon="13.417058">
<time>2021-08-22T10:56:11Z</time>
</trkpt>
<trkpt lat="50.08517" lon="13.417093">
<time>2021-08-22T10:56:12Z</time>
</trkpt>
<trkpt lat="50.085199" lon="13.41712">
<time>2021-08-22T10:56:13Z</time>
</trkpt>
<trkpt lat="50.085233" lon="13.417152">
<time>2021-08-22T10:56:14Z</time>
</trkpt>
<trkpt lat="50.085268" lon="13.417184">
<time>2021-08-22T10:56:15Z</time>
</trkpt>
<trkpt lat="50.085294" lon="13.417218">
<time>2021-08-22T10:56:16Z</time>
</trkpt>
<trkpt lat="50.085319" lon="13.417257">
<time>2021-08-22T10:56:17Z</time>
</trkpt>
<trkpt lat="50.085342" lon="13.417295">
<time>2021-08-22T10:56:18Z</time>
</trkpt>
<trkpt lat="50.085356" lon="13.417334">
<time>2021-08-22T10:56:19Z</time>
</trkpt>
<trkpt lat="50.085378" lon="13.417372">
<time>2021-08-22T10:56:20Z</time>
</trkpt>
<trkpt lat="50.085395" lon="13.417418">
<time>2021-08-22T10:56:21Z</time>
</trkpt>
<trkpt lat="50.085413" lon="13.417464">
<time>2021-08-22T10:56:22Z</time>
</trkpt>
<trkpt lat="50.085438" lon="13.417501">
<time>2021-08-22T10:56:23Z</time>
</trkpt>
<trkpt lat="50.08545" lon="13.417541">
<time>2021-08-22T10:56:24Z</time>
</trkpt>
<trkpt lat="50.085457" lon="13.41758">
<time>2021-08-22T10:56:25Z</time>
</trkpt>
<trkpt lat="50.085484" lon="13.417604">
<time>2021-08-22T10:56:26Z</time>
</trkpt>
<trkpt lat="50.085502" lon="13.417641">
<time>2021-08-22T10:56:27Z</time>
</trkpt>
<trkpt lat="50.085516" lon="13.417674">
<time>2021-08-22T10:56:28Z</time>
</trkpt>
<trkpt lat="50.085539" lon="13.417708">
<time>2021-08-22T10:56:29Z</time>
</trkpt>
<trkpt lat="50.085564" lon="13.417748">
<time>2021-08-22T10:56:30Z</time>
</trkpt>
<trkpt lat="50.085578" lon="13.417789">
<time>2021-08-22T10:56:31Z</time>
</trkpt>
<trkpt lat="50.085596" lon="13.417832">
<time>2021-08-22T10:56:32Z</time>
</trkpt>
<trkpt lat="50.085615" lon="13.417871">
<time>2021-08-22T10:56:33Z</time>
</trkpt>
<trkpt lat="50.08563" lon="13.417913">
<time>2021-08-22T10:56:34Z</time>
</trkpt>
<trkpt lat="50.085651" lon="13.417953">
<time>2021-08-22T10:56:35Z</time>
</trkpt>
<trkpt lat="50.085669" lon="13.417996">
<time>2021-08-22T10:56:36Z</time>
</trkpt>
<trkpt lat="50.085686" lon="13.418034">
<time>2021-08-22T10:56:37Z</time>
</trkpt>
<trkpt lat="50.085699" lon="13.41807">
<time>2021-08-22T10:56:38Z</time>
</trkpt>
<trkpt lat="50.085713" lon="13.418105">
<time>2021-08-22T10:56:39Z</time>
</trkpt>
<trkpt lat="50.085723" lon="13.418143">
<time>2021-08-22T10:56:40Z</time>
</trkpt>
<trkpt lat="50.085731" lon="13.418173">
<time>2021-08-22T10:56:41Z</time>
</trkpt>
<trkpt lat="50.08574" lon="13.418208">
<time>2021-08-22T10:56:42Z</time>
</trkpt>
<trkpt lat="50.085759" lon="13.418232">
<time>2021-08-22T10:56:43Z</time>
</trkpt>
<trkpt lat="50.085777" lon="13.418258">
<time>2021-08-22T10:56:44Z</time>
</trkpt>
<trkpt lat="50.085785" lon="13.418287">
<time>2021-08-22T10:56:45Z</time>
</trkpt>
<trkpt lat="50.085789" lon="13.418322">
<time>2021-08-22T10:56:46Z</time>
</trkpt>
<trkpt lat="50.085797" lon="13.418349">
<time>2021-08-22T10:56:47Z</time>
</trkpt>
<trkpt lat="50.085808" lon="13.418377">
<time>2021-08-22T10:56:48Z</time>
</trkpt>
<trkpt lat="50.085821" lon="13.418406">
<time>2021-08-22T10:56:49Z</time>
</trkpt>
<trkpt lat="50.085836" lon="13.418434">
<time>2021-08-22T10:56:50Z</time>
</trkpt>
<trkpt lat="50.085856" lon="13.418456">
<time>2021-08-22T10:56:51Z</time>
</trkpt>
<trkpt lat="50.085872" lon="13.418472">
<time>2021-08-22T10:56:52Z</time>
</trkpt>
<trkpt lat="50.085887" lon="13.418483">
<time>2021-08-22T10:56:53Z</time>
</trkpt>
<trkpt lat="50.085907" lon="13.4185">
<time>2021-08-22T10:56:54Z</time>
</trkpt>
<trkpt lat="50.085899" lon="13.41852">
<time>2021-08-22T10:56:55Z</time>
</trkpt>
<trkpt lat="50.085911" lon="13.418548">
<time>2021-08-22T10:56:56Z</time>
</trkpt>
<trkpt lat="50.085928" lon="13.418566">
<time>2021-08-22T10:56:57Z</time>
</trkpt>
<trkpt lat="50.085948" lon="13.418581">
<time>2021-08-22T10:56:58Z</time>
</trkpt>
<trkpt lat="50.085965" lon="13.418608">
<time>2021-08-22T10:56:59Z</time>
</trkpt>
<trkpt lat="50.085978" lon="13.418636">
<time>2021-08-22T10:57:00Z</time>
</trkpt>
<trkpt lat="50.085996" lon="13.418663">
<time>2021-08-22T10:57:01Z</time>
</trkpt>
<trkpt lat="50.086011" lon="13.41869">
<time>2021-08-22T10:57:02Z</time>
</trkpt>
<trkpt lat="50.086021" lon="13.418717">
<time>2021-08-22T10:57:03Z</time>
</trkpt>
<trkpt lat="50.086032" lon="13.418751">
<time>2021-08-22T10:57:04Z</time>
</trkpt>
<trkpt lat="50.086045" lon="13.418786">
<time>2021-08-22T10:57:05Z</time>
</trkpt>
<trkpt lat="50.086057" lon="13.418819">
<time>2021-08-22T10:57:06Z</time>
</trkpt>
<trkpt lat="50.08607" lon="13.418848">
<time>2021-08-22T10:57:07Z</time>
</trkpt>
<trkpt lat="50.086082" lon="13.41888">
<time>2021-08-22T10:57:08Z</time>
</trkpt>
<trkpt lat="50.086094" lon="13.41891">
<time>2021-08-22T10:57:09Z</time>
</trkpt>
<trkpt lat="50.086107" lon="13.418937">
<time>2021-08-22T10:57:10Z</time>
</trkpt>
<trkpt lat="50.08612" lon="13.418973">
<time>2021-08-22T10:57:11Z</time>
</trkpt>
<trkpt lat="50.086134" lon="13.419014">
<time>2021-08-22T10:57:12Z</time>
</trkpt>
<trkpt lat="50.086149" lon="13.419048">
<time>2021-08-22T10:57:13Z</time>
</trkpt>
<trkpt lat="50.086161" lon="13.419079">
<time>2021-08-22T10:57:14Z</time>
</trkpt>
<trkpt lat="50.08617" lon="13.419116">
<time>2021-08-22T10:57:15Z</time>
</trkpt>
<trkpt lat="50.086186" lon="13.419146">
<time>2021-08-22T10:57:16Z</time>
</trkpt>
<trkpt lat="50.086202" lon="13.419191">
<time>2021-08-22T10:57:17Z</time>
</trkpt>
<trkpt lat="50.086219" lon="13.419237">
<time>2021-08-22T10:57:18Z</time>
</trkpt>
<trkpt lat="50.086233" lon="13.419287">
<time>2021-08-22T10:57:19Z</time>
</trkpt>
<trkpt lat="50.086244" lon="13.419343">
<time>2021-08-22T10:57:20Z</time>
</trkpt>
<trkpt lat="50.086255" lon="13.419402">
<time>2021-08-22T10:57:21Z</time>
</trkpt>
<trkpt lat="50.086269" lon="13.419458">
<time>2021-08-22T10:57:22Z</time>
</trkpt>
<trkpt lat="50.086286" lon="13.419505">
<time>2021-08-22T10:57:23Z</time>
</trkpt>
<trkpt lat="50.086301" lon="13.419549">
<time>2021-08-22T10:57:24Z</time>
</trkpt>
<trkpt lat="50.086321" lon="13.419597">
<time>2021-08-22T10:57:25Z</time>
</trkpt>
<trkpt lat="50.086337" lon="13.419645">
<time>2021-08-22T10:57:26Z</time>
</trkpt>
<trkpt lat="50.086351" lon="13.419686">
<time>2021-08-22T10:57:27Z</time>
</trkpt>
<trkpt lat="50.086366" lon="13.419729">
<time>2021-08-22T10:57:28Z</time>
</trkpt>
<trkpt lat="50.08639" lon="13.419762">
<time>2021-08-22T10:57:29Z</time>
</trkpt>
<trkpt lat="50.086407" lon="13.419794">
<time>2021-08-22T10:57:30Z</time>
</trkpt>
<trkpt lat="50.086423" lon="13.419823">
<time>2021-08-22T10:57:31Z</time>
</trkpt>
<trkpt lat="50.086438" lon="13.419853">
<time>2021-08-22T10:57:32Z</time>
</trkpt>
<trkpt lat="50.086457" lon="13.419887">
<time>2021-08-22T10:57:33Z</time>
</trkpt>
<trkpt lat="50.086473" lon="13.419933">
<time>2021-08-22T10:57:34Z</time>
</trkpt>
<trkpt lat="50.08649" lon="13.419977">
<time>2021-08-22T10:57:35Z</time>
</trkpt>
<trkpt lat="50.08651" lon="13.420024">
<time>2021-08-22T10:57:36Z</time>
</trkpt>
<trkpt lat="50.086529" lon="13.42006">
<time>2021-08-22T10:57:37Z</time>
</trkpt>
<trkpt lat="50.086544" lon="13.420099">
<time>2021-08-22T10:57:38Z</time>
</trkpt>
<trkpt lat="50.086562" lon="13.420141">
<time>2021-08-22T10:57:39Z</time>
</trkpt>
<trkpt lat="50.08659" lon="13.420175">
<time>2021-08-22T10:57:40Z</time>
</trkpt>
<trkpt lat="50.086615" lon="13.420213">
<time>2021-08-22T10:57:41Z</time>
</trkpt>
<trkpt lat="50.086637" lon="13.420261">
<time>2021-08-22T10:57:42Z</time>
</trkpt>
<trkpt lat="50.086663" lon="13.420304">
<time>2021-08-22T10:57:43Z</time>
</trkpt>
<trkpt lat="50.086693" lon="13.42035">
<time>2021-08-22T10:57:44Z</time>
</trkpt>
<trkpt lat="50.086718" lon="13.4204">
<time>2021-08-22T10:57:45Z</time>
</trkpt>
<trkpt lat="50.086745" lon="13.420445">
<time>2021-08-22T10:57:46Z</time>
</trkpt>
<trkpt lat="50.086774" lon="13.420494">
<time>2021-08-22T10:57:47Z</time>
</trkpt>
<trkpt lat="50.086801" lon="13.420544">
<time>2021-08-22T10:57:48Z</time>
</trkpt>
<trkpt lat="50.086832" lon="13.420591">
<time>2021-08-22T10:57:49Z</time>
</trkpt>
<trkpt lat="50.086874" lon="13.42064">
<time>2021-08-22T10:57:50Z</time>
</trkpt>
<trkpt lat="50.086901" lon="13.420697">
<time>2021-08-22T10:57:51Z</time>
</trkpt>
<trkpt lat="50.08693" lon="13.420755">
<time>2021-08-22T10:57:52Z</time>
</trkpt>
<trkpt lat="50.086959" lon="13.420811">
<time>2021-08-22T10:57:53Z</time>
</trkpt>
<trkpt lat="50.086995" lon="13.420859">
<time>2021-08-22T10:57:54Z</time>
</trkpt>
<trkpt lat="50.087035" lon="13.420909">
<time>2021-08-22T10:57:55Z</time>
</trkpt>
<trkpt lat="50.087077" lon="13.420962">
<time>2021-08-22T10:57:56Z</time>
</trkpt>
<trkpt lat="50.087117" lon="13.421022">
<time>2021-08-22T10:57:57Z</time>
</trkpt>
<trkpt lat="50.08716" lon="13.421075">
<time>2021-08-22T10:57:58Z</time>
</trkpt>
<trkpt lat="50.087194" lon="13.42113">
<time>2021-08-22T10:57:59Z</time>
</trkpt>
<trkpt lat="50.087229" lon="13.421186">
<time>2021-08-22T10:58:00Z</time>
</trkpt>
<trkpt lat="50.087267" lon="13.421246">
<time>2021-08-22T10:58:01Z</time>
</trkpt>
<trkpt lat="50.087306" lon="13.421309">
<time>2021-08-22T10:58:02Z</time>
</trkpt>
<trkpt lat="50.087348" lon="13.421375">
<time>2021-08-22T10:58:03Z</time>
</trkpt>
<trkpt lat="50.087393" lon="13.42144">
<time>2021-08-22T10:58:04Z</time>
</trkpt>
<trkpt lat="50.087437" lon="13.421503">
<time>2021-08-22T10:58:05Z</time>
</trkpt>
<trkpt lat="50.087478" lon="13.421566">
<time>2021-08-22T10:58:06Z</time>
</trkpt>
<trkpt lat="50.087523" lon="13.421622">
<time>2021-08-22T10:58:07Z</time>
</trkpt>
<trkpt lat="50.087571" lon="13.421673">
<time>2021-08-22T10:58:08Z</time>
</trkpt>
<trkpt lat="50.087618" lon="13.42172">
<time>2021-08-22T10:58:09Z</time>
</trkpt>
<trkpt lat="50.087664" lon="13.421767">
<time>2021-08-22T10:58:10Z</time>
</trkpt>
<trkpt lat="50.087711" lon="13.421822">
<time>2021-08-22T10:58:11Z</time>
</trkpt>
<trkpt lat="50.087758" lon="13.421873">
<time>2021-08-22T10:58:12Z</time>
</trkpt>
<trkpt lat="50.087804" lon="13.421923">
<time>2021-08-22T10:58:13Z</time>
</trkpt>
<trkpt lat="50.087852" lon="13.421974">
<time>2021-08-22T10:58:14Z</time>
</trkpt>
<trkpt lat="50.087907" lon="13.422027">
<time>2021-08-22T10:58:15Z</time>
</trkpt>
<trkpt lat="50.08796" lon="13.422076">
<time>2021-08-22T10:58:16Z</time>
</trkpt>
<trkpt lat="50.088015" lon="13.422124">
<time>2021-08-22T10:58:17Z</time>
</trkpt>
<trkpt lat="50.088067" lon="13.422186">
<time>2021-08-22T10:58:18Z</time>
</trkpt>
<trkpt lat="50.088116" lon="13.422253">
<time>2021-08-22T10:58:19Z</time>
</trkpt>
<trkpt lat="50.088171" lon="13.422323">
<time>2021-08-22T10:58:20Z</time>
</trkpt>
<trkpt lat="50.088225" lon="13.422394">
<time>2021-08-22T10:58:21Z</time>
</trkpt>
<trkpt lat="50.088287" lon="13.42246">
<time>2021-08-22T10:58:22Z</time>
</trkpt>
<trkpt lat="50.088345" lon="13.422526">
<time>2021-08-22T10:58:23Z</time>
</trkpt>
<trkpt lat="50.088402" lon="13.422589">
<time>2021-08-22T10:58:24Z</time>
</trkpt>
<trkpt lat="50.088451" lon="13.422662">
<time>2021-08-22T10:58:25Z</time>
</trkpt>
<trkpt lat="50.088491" lon="13.42273">
<time>2021-08-22T10:58:26Z</time>
</trkpt>
<trkpt lat="50.088533" lon="13.422805">
<time>2021-08-22T10:58:27Z</time>
</trkpt>
<trkpt lat="50.088577" lon="13.422875">
<time>2021-08-22T10:58:28Z</time>
</trkpt>
<trkpt lat="50.088619" lon="13.422955">
<time>2021-08-22T10:58:29Z</time>
</trkpt>
<trkpt lat="50.088666" lon="13.423044">
<time>2021-08-22T10:58:30Z</time>
</trkpt>
<trkpt lat="50.088727" lon="13.423124">
<time>2021-08-22T10:58:31Z</time>
</trkpt>
<trkpt lat="50.088784" lon="13.423204">
<time>2021-08-22T10:58:32Z</time>
</trkpt>
<trkpt lat="50.088847" lon="13.423282">
<time>2021-08-22T10:58:33Z</time>
</trkpt>
<trkpt lat="50.0889" lon="13.423359">
<time>2021-08-22T10:58:34Z</time>
</trkpt>
<trkpt lat="50.088956" lon="13.423437">
<time>2021-08-22T10:58:35Z</time>
</trkpt>
<trkpt lat="50.089011" lon="13.423514">
<time>2021-08-22T10:58:36Z</time>
</trkpt>
<trkpt lat="50.089058" lon="13.423578">
<time>2021-08-22T10:58:37Z</time>
</trkpt>
<trkpt lat="50.089097" lon="13.423628">
<time>2021-08-22T10:58:38Z</time>
</trkpt>
<trkpt lat="50.089127" lon="13.423664">
<time>2021-08-22T10:58:39Z</time>
</trkpt>
<trkpt lat="50.089127" lon="13.423706">
<time>2021-08-22T10:58:40Z</time>
</trkpt>
<trkpt lat="50.089125" lon="13.423727">
<time>2021-08-22T10:58:41Z</time>
</trkpt>
<trkpt lat="50.089117" lon="13.423726">
<time>2021-08-22T10:58:42Z</time>
</trkpt>
<trkpt lat="50.089099" lon="13.423758">
<time>2021-08-22T10:58:43Z</time>
</trkpt>
<trkpt lat="50.089079" lon="13.423797">
<time>2021-08-22T10:58:44Z</time>
</trkpt>
<trkpt lat="50.089053" lon="13.423842">
<time>2021-08-22T10:58:45Z</time>
</trkpt>
<trkpt lat="50.089032" lon="13.423879">
<time>2021-08-22T10:58:46Z</time>
</trkpt>
<trkpt lat="50.089009" lon="13.423918">
<time>2021-08-22T10:58:47Z</time>
</trkpt>
<trkpt lat="50.088982" lon="13.423952">
<time>2021-08-22T10:58:48Z</time>
</trkpt>
<trkpt lat="50.088953" lon="13.423997">
<time>2021-08-22T10:58:49Z</time>
</trkpt>
<trkpt lat="50.088928" lon="13.424046">
<time>2021-08-22T10:58:50Z</time>
</trkpt>
<trkpt lat="50.088907" lon="13.42408">
<time>2021-08-22T10:58:51Z</time>
</trkpt>
<trkpt lat="50.088882" lon="13.424107">
<time>2021-08-22T10:58:52Z</time>
</trkpt>
<trkpt lat="50.088853" lon="13.424145">
<time>2021-08-22T10:58:53Z</time>
</trkpt>
<trkpt lat="50.088829" lon="13.424178">
<time>2021-08-22T10:58:54Z</time>
</trkpt>
<trkpt lat="50.088802" lon="13.424217">
<time>2021-08-22T10:58:55Z</time>
</trkpt>
<trkpt lat="50.088777" lon="13.424259">
<time>2021-08-22T10:58:56Z</time>
</trkpt>
<trkpt lat="50.088746" lon="13.424301">
<time>2021-08-22T10:58:57Z</time>
</trkpt>
<trkpt lat="50.088715" lon="13.424347">
<time>2021-08-22T10:58:58Z</time>
</trkpt>
<trkpt lat="50.088694" lon="13.42439">
<time>2021-08-22T10:58:59Z</time>
</trkpt>
<trkpt lat="50.088668" lon="13.424457">
<time>2021-08-22T10:59:00Z</time>
</trkpt>
<trkpt lat="50.088654" lon="13.424525">
<time>2021-08-22T10:59:01Z</time>
</trkpt>
<trkpt lat="50.088651" lon="13.424585">
<time>2021-08-22T10:59:02Z</time>
</trkpt>
<trkpt lat="50.08865" lon="13.424641">
<time>2021-08-22T10:59:03Z</time>
</trkpt>
<trkpt lat="50.088647" lon="13.424694">
<time>2021-08-22T10:59:04Z</time>
</trkpt>
<trkpt lat="50.088641" lon="13.424737">
<time>2021-08-22T10:59:05Z</time>
</trkpt>
<trkpt lat="50.088634" lon="13.424792">
<time>2021-08-22T10:59:06Z</time>
</trkpt>
<trkpt lat="50.088622" lon="13.42484">
<time>2021-08-22T10:59:07Z</time>
</trkpt>
<trkpt lat="50.088606" lon="13.424889">
<time>2021-08-22T10:59:08Z</time>
</trkpt>
<trkpt lat="50.088595" lon="13.424925">
<time>2021-08-22T10:59:09Z</time>
</trkpt>
<trkpt lat="50.088589" lon="13.424958">
<time>2021-08-22T10:59:10Z</time>
</trkpt>
<trkpt lat="50.088583" lon="13.42499">
<time>2021-08-22T10:59:11Z</time>
</trkpt>
<trkpt lat="50.088572" lon="13.425018">
<time>2021-08-22T10:59:12Z</time>
</trkpt>
<trkpt lat="50.088562" lon="13.425045">
<time>2021-08-22T10:59:13Z</time>
</trkpt>
<trkpt lat="50.088552" lon="13.425083">
<time>2021-08-22T10:59:14Z</time>
</trkpt>
<trkpt lat="50.088536" lon="13.425134">
<time>2021-08-22T10:59:15Z</time>
</trkpt>
<trkpt lat="50.08852" lon="13.425168">
<time>2021-08-22T10:59:16Z</time>
</trkpt>
<trkpt lat="50.088501" lon="13.425193">
<time>2021-08-22T10:59:17Z</time>
</trkpt>
<trkpt lat="50.08848" lon="13.425209">
<time>2021-08-22T10:59:18Z</time>
</trkpt>
<trkpt lat="50.08845" lon="13.425221">
<time>2021-08-22T10:59:19Z</time>
</trkpt>
<trkpt lat="50.088415" lon="13.425232">
<time>2021-08-22T10:59:20Z</time>
</trkpt>
<trkpt lat="50.088383" lon="13.425229">
<time>2021-08-22T10:59:21Z</time>
</trkpt>
<trkpt lat="50.088353" lon="13.425228">
<time>2021-08-22T10:59:22Z</time>
</trkpt>
<trkpt lat="50.088316" lon="13.425227">
<time>2021-08-22T10:59:23Z</time>
</trkpt>
<trkpt lat="50.088278" lon="13.425232">
<time>2021-08-22T10:59:24Z</time>
</trkpt>
<trkpt lat="50.088252" lon="13.425237">
<time>2021-08-22T10:59:25Z</time>
</trkpt>
<trkpt lat="50.088225" lon="13.425246">
<time>2021-08-22T10:59:26Z</time>
</trkpt>
<trkpt lat="50.088198" lon="13.425247">
<time>2021-08-22T10:59:27Z</time>
</trkpt>
<trkpt lat="50.088166" lon="13.425255">
<time>2021-08-22T10:59:28Z</time>
</trkpt>
<trkpt lat="50.088133" lon="13.425252">
<time>2021-08-22T10:59:29Z</time>
</trkpt>
<trkpt lat="50.088101" lon="13.425255">
<time>2021-08-22T10:59:30Z</time>
</trkpt>
<trkpt lat="50.088071" lon="13.425257">
<time>2021-08-22T10:59:31Z</time>
</trkpt>
<trkpt lat="50.088039" lon="13.425259">
<time>2021-08-22T10:59:32Z</time>
</trkpt>
<trkpt lat="50.088006" lon="13.425254">
<time>2021-08-22T10:59:33Z</time>
</trkpt>
<trkpt lat="50.087979" lon="13.425247">
<time>2021-08-22T10:59:34Z</time>
</trkpt>
<trkpt lat="50.087957" lon="13.425235">
<time>2021-08-22T10:59:35Z</time>
</trkpt>
<trkpt lat="50.087932" lon="13.425229">
<time>2021-08-22T10:59:36Z</time>
</trkpt>
<trkpt lat="50.087904" lon="13.425211">
<time>2021-08-22T10:59:37Z</time>
</trkpt>
<trkpt lat="50.087881" lon="13.425199">
<time>2021-08-22T10:59:38Z</time>
</trkpt>
<trkpt lat="50.087852" lon="13.425185">
<time>2021-08-22T10:59:39Z</time>
</trkpt>
<trkpt lat="50.087821" lon="13.425186">
<time>2021-08-22T10:59:40Z</time>
</trkpt>
<trkpt lat="50.087791" lon="13.42518">
<time>2021-08-22T10:59:41Z</time>
</trkpt>
<trkpt lat="50.087763" lon="13.425175">
<time>2021-08-22T10:59:42Z</time>
</trkpt>
<trkpt lat="50.087737" lon="13.425165">
<time>2021-08-22T10:59:43Z</time>
</trkpt>
<trkpt lat="50.087708" lon="13.425153">
<time>2021-08-22T10:59:44Z</time>
</trkpt>
<trkpt lat="50.087681" lon="13.425141">
<time>2021-08-22T10:59:45Z</time>
</trkpt>
<trkpt lat="50.087649" lon="13.425139">
<time>2021-08-22T10:59:46Z</time>
</trkpt>
<trkpt lat="50.087614" lon="13.425116">
<time>2021-08-22T10:59:47Z</time>
</trkpt>
<trkpt lat="50.087585" lon="13.425104">
<time>2021-08-22T10:59:48Z</time>
</trkpt>
<trkpt lat="50.087558" lon="13.42508">
<time>2021-08-22T10:59:49Z</time>
</trkpt>
<trkpt lat="50.087535" lon="13.425076">
<time>2021-08-22T10:59:50Z</time>
</trkpt>
<trkpt lat="50.087507" lon="13.425082">
<time>2021-08-22T10:59:51Z</time>
</trkpt>
<trkpt lat="50.087475" lon="13.425067">
<time>2021-08-22T10:59:52Z</time>
</trkpt>
<trkpt lat="50.087449" lon="13.425061">
<time>2021-08-22T10:59:53Z</time>
</trkpt>
<trkpt lat="50.087422" lon="13.425058">
<time>2021-08-22T10:59:54Z</time>
</trkpt>
<trkpt lat="50.087391" lon="13.425047">
<time>2021-08-22T10:59:55Z</time>
</trkpt>
<trkpt lat="50.087362" lon="13.425034">
<time>2021-08-22T10:59:56Z</time>
</trkpt>
<trkpt lat="50.087339" lon="13.42503">
<time>2021-08-22T10:59:57Z</time>
</trkpt>
<trkpt lat="50.087312" lon="13.42502">
<time>2021-08-22T10:59:58Z</time>
</trkpt>
<trkpt lat="50.08728" lon="13.424997">
<time>2021-08-22T10:59:59Z</time>
</trkpt>
<trkpt lat="50.087244" lon="13.424983">
<time>2021-08-22T11:00:00Z</time>
</trkpt>
<trkpt lat="50.087211" lon="13.424979">
<time>2021-08-22T11:00:01Z</time>
</trkpt>
<trkpt lat="50.087176" lon="13.42497">
<time>2021-08-22T11:00:02Z</time>
</trkpt>
<trkpt lat="50.087146" lon="13.424967">
<time>2021-08-22T11:00:03Z</time>
</trkpt>
<trkpt lat="50.087114" lon="13.424959">
<time>2021-08-22T11:00:04Z</time>
</trkpt>
<trkpt lat="50.087083" lon="13.424945">
<time>2021-08-22T11:00:05Z</time>
</trkpt>
<trkpt lat="50.087053" lon="13.424938">
<time>2021-08-22T11:00:06Z</time>
</trkpt>
<trkpt lat="50.08703" lon="13.424924">
<time>2021-08-22T11:00:07Z</time>
</trkpt>
<trkpt lat="50.087005" lon="13.424917">
<time>2021-08-22T11:00:08Z</time>
</trkpt>
<trkpt lat="50.08698" lon="13.424902">
<time>2021-08-22T11:00:09Z</time>
</trkpt>
<trkpt lat="50.086954" lon="13.424893">
<time>2021-08-22T11:00:10Z</time>
</trkpt>
<trkpt lat="50.086924" lon="13.42488">
<time>2021-08-22T11:00:11Z</time>
</trkpt>
<trkpt lat="50.086893" lon="13.42487">
<time>2021-08-22T11:00:12Z</time>
</trkpt>
<trkpt lat="50.086866" lon="13.424863">
<time>2021-08-22T11:00:13Z</time>
</trkpt>
<trkpt lat="50.086842" lon="13.424856">
<time>2021-08-22T11:00:14Z</time>
</trkpt>
<trkpt lat="50.086814" lon="13.424844">
<time>2021-08-22T11:00:15Z</time>
</trkpt>
<trkpt lat="50.086783" lon="13.424825">
<time>2021-08-22T11:00:16Z</time>
</trkpt>
<trkpt lat="50.086742" lon="13.424801">
<time>2021-08-22T11:00:17Z</time>
</trkpt>
<trkpt lat="50.086707" lon="13.424789">
<time>2021-08-22T11:00:18Z</time>
</trkpt>
<trkpt lat="50.086684" lon="13.424781">
<time>2021-08-22T11:00:19Z</time>
</trkpt>
<trkpt lat="50.086652" lon="13.424781">
<time>2021-08-22T11:00:20Z</time>
</trkpt>
<trkpt lat="50.086619" lon="13.424777">
<time>2021-08-22T11:00:21Z</time>
</trkpt>
<trkpt lat="50.086585" lon="13.424769">
<time>2021-08-22T11:00:22Z</time>
</trkpt>
<trkpt lat="50.086556" lon="13.424761">
<time>2021-08-22T11:00:23Z</time>
</trkpt>
<trkpt lat="50.086538" lon="13.424746">
<time>2021-08-22T11:00:24Z</time>
</trkpt>
<trkpt lat="50.08653" lon="13.424732">
<time>2021-08-22T11:00:25Z</time>
</trkpt>
<trkpt lat="50.086528" lon="13.42472">
<time>2021-08-22T11:00:26Z</time>
</trkpt>
<trkpt lat="50.086527" lon="13.424705">
<time>2021-08-22T11:00:27Z</time>
</trkpt>
<trkpt lat="50.086525" lon="13.424693">
<time>2021-08-22T11:00:28Z</time>
</trkpt>
<trkpt lat="50.086527" lon="13.424688">
<time>2021-08-22T11:00:29Z</time>
</trkpt>
<trkpt lat="50.086517" lon="13.424683">
<time>2021-08-22T11:00:30Z</time>
</trkpt>
<trkpt lat="50.0865" lon="13.424685">
<time>2021-08-22T11:00:31Z</time>
</trkpt>
<trkpt lat="50.086477" lon="13.424708">
<time>2021-08-22T11:00:32Z</time>
</trkpt>
<trkpt lat="50.086451" lon="13.424747">
<time>2021-08-22T11:00:33Z</time>
</trkpt>
<trkpt lat="50.086431" lon="13.424797">
<time>2021-08-22T11:00:34Z</time>
</trkpt>
<trkpt lat="50.086414" lon="13.424843">
<time>2021-08-22T11:00:35Z</time>
</trkpt>
<trkpt lat="50.086398" lon="13.42489">
<time>2021-08-22T11:00:36Z</time>
</trkpt>
<trkpt lat="50.086381" lon="13.424945">
<time>2021-08-22T11:00:37Z</time>
</trkpt>
<trkpt lat="50.086368" lon="13.424999">
<time>2021-08-22T11:00:38Z</time>
</trkpt>
<trkpt lat="50.086353" lon="13.425054">
<time>2021-08-22T11:00:39Z</time>
</trkpt>
<trkpt lat="50.086339" lon="13.425104">
<time>2021-08-22T11:00:40Z</time>
</trkpt>
<trkpt lat="50.086324" lon="13.425145">
<time>2021-08-22T11:00:41Z</time>
</trkpt>
<trkpt lat="50.086304" lon="13.425172">
<time>2021-08-22T11:00:42Z</time>
</trkpt>
<trkpt lat="50.08627" lon="13.425191">
<time>2021-08-22T11:00:43Z</time>
</trkpt>
<trkpt lat="50.086235" lon="13.425206">
<time>2021-08-22T11:00:44Z</time>
</trkpt>
<trkpt lat="50.086193" lon="13.42522">
<time>2021-08-22T11:00:45Z</time>
</trkpt>
<trkpt lat="50.086153" lon="13.425223">
<time>2021-08-22T11:00:46Z</time>
</trkpt>
<trkpt lat="50.086117" lon="13.425216">
<time>2021-08-22T11:00:47Z</time>
</trkpt>
<trkpt lat="50.086083" lon="13.425199">
<time>2021-08-22T11:00:48Z</time>
</trkpt>
<trkpt lat="50.086052" lon="13.425172">
<time>2021-08-22T11:00:49Z</time>
</trkpt>
<trkpt lat="50.086024" lon="13.425152">
<time>2021-08-22T11:00:50Z</time>
</trkpt>
<trkpt lat="50.085999" lon="13.425131">
<time>2021-08-22T11:00:51Z</time>
</trkpt>
<trkpt lat="50.085969" lon="13.425103">
<time>2021-08-22T11:00:52Z</time>
</trkpt>
<trkpt lat="50.08594" lon="13.425081">
<time>2021-08-22T11:00:53Z</time>
</trkpt>
<trkpt lat="50.085903" lon="13.425071">
<time>2021-08-22T11:00:54Z</time>
</trkpt>
<trkpt lat="50.085855" lon="13.42506">
<time>2021-08-22T11:00:55Z</time>
</trkpt>
<trkpt lat="50.085807" lon="13.425051">
<time>2021-08-22T11:00:56Z</time>
</trkpt>
<trkpt lat="50.085754" lon="13.425041">
<time>2021-08-22T11:00:57Z</time>
</trkpt>
<trkpt lat="50.085703" lon="13.42503">
<time>2021-08-22T11:00:58Z</time>
</trkpt>
<trkpt lat="50.085646" lon="13.42502">
<time>2021-08-22T11:00:59Z</time>
</trkpt>
<trkpt lat="50.085583" lon="13.424988">
<time>2021-08-22T11:01:00Z</time>
</trkpt>
<trkpt lat="50.085523" lon="13.42497">
<time>2021-08-22T11:01:01Z</time>
</trkpt>
<trkpt lat="50.085447" lon="13.424931">
<time>2021-08-22T11:01:02Z</time>
</trkpt>
<trkpt lat="50.085371" lon="13.424902">
<time>2021-08-22T11:01:03Z</time>
</trkpt>
<trkpt lat="50.085295" lon="13.424866">
<time>2021-08-22T11:01:04Z</time>
</trkpt>
<trkpt lat="50.085227" lon="13.42484">
<time>2021-08-22T11:01:05Z</time>
</trkpt>
<trkpt lat="50.085161" lon="13.424817">
<time>2021-08-22T11:01:06Z</time>
</trkpt>
<trkpt lat="50.085111" lon="13.424834">
<time>2021-08-22T11:01:07Z</time>
</trkpt>
<trkpt lat="50.085072" lon="13.424869">
<time>2021-08-22T11:01:08Z</time>
</trkpt>
<trkpt lat="50.08504" lon="13.424912">
<time>2021-08-22T11:01:09Z</time>
</trkpt>
<trkpt lat="50.085022" lon="13.424953">
<time>2021-08-22T11:01:10Z</time>
</trkpt>
<trkpt lat="50.085028" lon="13.425002">
<time>2021-08-22T11:01:11Z</time>
</trkpt>
<trkpt lat="50.085052" lon="13.425055">
<time>2021-08-22T11:01:12Z</time>
</trkpt>
<trkpt lat="50.085077" lon="13.4251">
<time>2021-08-22T11:01:13Z</time>
</trkpt>
<trkpt lat="50.085103" lon="13.425152">
<time>2021-08-22T11:01:14Z</time>
</trkpt>
<trkpt lat="50.08512" lon="13.425206">
<time>2021-08-22T11:01:15Z</time>
</trkpt>
<trkpt lat="50.085136" lon="13.425262">
<time>2021-08-22T11:01:16Z</time>
</trkpt>
<trkpt lat="50.085147" lon="13.425324">
<time>2021-08-22T11:01:17Z</time>
</trkpt>
<trkpt lat="50.085164" lon="13.425391">
<time>2021-08-22T11:01:18Z</time>
</trkpt>
<trkpt lat="50.085171" lon="13.425469">
<time>2021-08-22T11:01:19Z</time>
</trkpt>
<trkpt lat="50.085181" lon="13.425541">
<time>2021-08-22T11:01:20Z</time>
</trkpt>
<trkpt lat="50.085178" lon="13.425628">
<time>2021-08-22T11:01:21Z</time>
</trkpt>
<trkpt lat="50.085186" lon="13.425703">
<time>2021-08-22T11:01:22Z</time>
</trkpt>
<trkpt lat="50.0852" lon="13.425772">
<time>2021-08-22T11:01:23Z</time>
</trkpt>
<trkpt lat="50.085218" lon="13.42584">
<time>2021-08-22T11:01:24Z</time>
</trkpt>
<trkpt lat="50.085219" lon="13.425928">
<time>2021-08-22T11:01:25Z</time>
</trkpt>
<trkpt lat="50.085231" lon="13.426008">
<time>2021-08-22T11:01:26Z</time>
</trkpt>
<trkpt lat="50.085246" lon="13.426078">
<time>2021-08-22T11:01:27Z</time>
</trkpt>
<trkpt lat="50.085258" lon="13.42615">
<time>2021-08-22T11:01:28Z</time>
</trkpt>
<trkpt lat="50.085268" lon="13.426217">
<time>2021-08-22T11:01:29Z</time>
</trkpt>
<trkpt lat="50.085284" lon="13.426284">
<time>2021-08-22T11:01:30Z</time>
</trkpt>
<trkpt lat="50.085299" lon="13.426346">
<time>2021-08-22T11:01:31Z</time>
</trkpt>
<trkpt lat="50.085306" lon="13.426417">
<time>2021-08-22T11:01:32Z</time>
</trkpt>
<trkpt lat="50.085314" lon="13.426478">
<time>2021-08-22T11:01:33Z</time>
</trkpt>
<trkpt lat="50.085316" lon="13.426538">
<time>2021-08-22T11:01:34Z</time>
</trkpt>
<trkpt lat="50.085293" lon="13.426614">
<time>2021-08-22T11:01:35Z</time>
</trkpt>
<trkpt lat="50.085279" lon="13.426648">
<time>2021-08-22T11:01:36Z</time>
</trkpt>
<trkpt lat="50.085251" lon="13.426678">
<time>2021-08-22T11:01:37Z</time>
</trkpt>
<trkpt lat="50.085217" lon="13.426695">
<time>2021-08-22T11:01:38Z</time>
</trkpt>
<trkpt lat="50.085171" lon="13.426722">
<time>2021-08-22T11:01:39Z</time>
</trkpt>
<trkpt lat="50.085139" lon="13.426717">
<time>2021-08-22T11:01:40Z</time>
</trkpt>
<trkpt lat="50.085089" lon="13.42671">
<time>2021-08-22T11:01:41Z</time>
</trkpt>
<trkpt lat="50.085052" lon="13.426698">
<time>2021-08-22T11:01:42Z</time>
</trkpt>
<trkpt lat="50.085004" lon="13.426694">
<time>2021-08-22T11:01:43Z</time>
</trkpt>
<trkpt lat="50.08495" lon="13.426686">
<time>2021-08-22T11:01:44Z</time>
</trkpt>
<trkpt lat="50.084899" lon="13.426687">
<time>2021-08-22T11:01:45Z</time>
</trkpt>
<trkpt lat="50.084841" lon="13.426671">
<time>2021-08-22T11:01:46Z</time>
</trkpt>
<trkpt lat="50.084792" lon="13.426654">
<time>2021-08-22T11:01:47Z</time>
</trkpt>
<trkpt lat="50.084747" lon="13.426627">
<time>2021-08-22T11:01:48Z</time>
</trkpt>
<trkpt lat="50.084702" lon="13.426613">
<time>2021-08-22T11:01:49Z</time>
</trkpt>
<trkpt lat="50.084659" lon="13.426604">
<time>2021-08-22T11:01:50Z</time>
</trkpt>
<trkpt lat="50.084611" lon="13.426595">
<time>2021-08-22T11:01:51Z</time>
</trkpt>
<trkpt lat="50.084565" lon="13.426593">
<time>2021-08-22T11:01:52Z</time>
</trkpt>
<trkpt lat="50.084518" lon="13.426587">
<time>2021-08-22T11:01:53Z</time>
</trkpt>
<trkpt lat="50.084455" lon="13.426561">
<time>2021-08-22T11:01:54Z</time>
</trkpt>
<trkpt lat="50.084408" lon="13.42655">
<time>2021-08-22T11:01:55Z</time>
</trkpt>
<trkpt lat="50.084352" lon="13.426535">
<time>2021-08-22T11:01:56Z</time>
</trkpt>
<trkpt lat="50.084301" lon="13.426527">
<time>2021-08-22T11:01:57Z</time>
</trkpt>
<trkpt lat="50.084256" lon="13.426525">
<time>2021-08-22T11:01:58Z</time>
</trkpt>
<trkpt lat="50.084204" lon="13.426516">
<time>2021-08-22T11:01:59Z</time>
</trkpt>
<trkpt lat="50.084156" lon="13.426492">
<time>2021-08-22T11:02:00Z</time>
</trkpt>
<trkpt lat="50.084103" lon="13.426471">
<time>2021-08-22T11:02:01Z</time>
</trkpt>
<trkpt lat="50.084055" lon="13.426461">
<time>2021-08-22T11:02:02Z</time>
</trkpt>
<trkpt lat="50.08401" lon="13.426445">
<time>2021-08-22T11:02:03Z</time>
</trkpt>
<trkpt lat="50.083968" lon="13.426435">
<time>2021-08-22T11:02:04Z</time>
</trkpt>
<trkpt lat="50.083921" lon="13.426449">
<time>2021-08-22T11:02:05Z</time>
</trkpt>
<trkpt lat="50.083875" lon="13.426459">
<time>2021-08-22T11:02:06Z</time>
</trkpt>
<trkpt lat="50.083832" lon="13.426468">
<time>2021-08-22T11:02:07Z</time>
</trkpt>
<trkpt lat="50.083774" lon="13.426482">
<time>2021-08-22T11:02:08Z</time>
</trkpt>
<trkpt lat="50.083732" lon="13.426495">
<time>2021-08-22T11:02:09Z</time>
</trkpt>
<trkpt lat="50.083694" lon="13.426505">
<time>2021-08-22T11:02:10Z</time>
</trkpt>
<trkpt lat="50.083654" lon="13.4265">
<time>2021-08-22T11:02:11Z</time>
</trkpt>
<trkpt lat="50.083626" lon="13.4265">
<time>2021-08-22T11:02:12Z</time>
</trkpt>
<trkpt lat="50.083595" lon="13.426522">
<time>2021-08-22T11:02:13Z</time>
</trkpt>
<trkpt lat="50.083562" lon="13.426511">
<time>2021-08-22T11:02:14Z</time>
</trkpt>
<trkpt lat="50.083533" lon="13.426517">
<time>2021-08-22T11:02:15Z</time>
</trkpt>
<trkpt lat="50.083508" lon="13.426512">
<time>2021-08-22T11:02:16Z</time>
</trkpt>
<trkpt lat="50.083474" lon="13.426528">
<time>2021-08-22T11:02:17Z</time>
</trkpt>
<trkpt lat="50.08343" lon="13.426513">
<time>2021-08-22T11:02:18Z</time>
</trkpt>
<trkpt lat="50.083397" lon="13.426515">
<time>2021-08-22T11:02:19Z</time>
</trkpt>
<trkpt lat="50.083361" lon="13.426512">
<time>2021-08-22T11:02:20Z</time>
</trkpt>
<trkpt lat="50.083331" lon="13.426519">
<time>2021-08-22T11:02:21Z</time>
</trkpt>
<trkpt lat="50.083304" lon="13.426523">
<time>2021-08-22T11:02:22Z</time>
</trkpt>
<trkpt lat="50.083285" lon="13.426519">
<time>2021-08-22T11:02:23Z</time>
</trkpt>
<trkpt lat="50.08325" lon="13.426509">
<time>2021-08-22T11:02:24Z</time>
</trkpt>
<trkpt lat="50.083228" lon="13.426515">
<time>2021-08-22T11:02:25Z</time>
</trkpt>
<trkpt lat="50.083201" lon="13.426532">
<time>2021-08-22T11:02:26Z</time>
</trkpt>
<trkpt lat="50.083174" lon="13.426528">
<time>2021-08-22T11:02:27Z</time>
</trkpt>
<trkpt lat="50.083149" lon="13.426519">
<time>2021-08-22T11:02:28Z</time>
</trkpt>
<trkpt lat="50.083113" lon="13.426541">
<time>2021-08-22T11:02:29Z</time>
</trkpt>
<trkpt lat="50.083082" lon="13.426568">
<time>2021-08-22T11:02:30Z</time>
</trkpt>
<trkpt lat="50.083066" lon="13.426573">
<time>2021-08-22T11:02:31Z</time>
</trkpt>
<trkpt lat="50.083041" lon="13.426572">
<time>2021-08-22T11:02:32Z</time>
</trkpt>
<trkpt lat="50.083021" lon="13.426581">
<time>2021-08-22T11:02:33Z</time>
</trkpt>
<trkpt lat="50.082985" lon="13.42659">
<time>2021-08-22T11:02:34Z</time>
</trkpt>
<trkpt lat="50.082962" lon="13.426598">
<time>2021-08-22T11:02:35Z</time>
</trkpt>
<trkpt lat="50.082916" lon="13.426637">
<time>2021-08-22T11:02:36Z</time>
</trkpt>
<trkpt lat="50.082881" lon="13.426663">
<time>2021-08-22T11:02:37Z</time>
</trkpt>
<trkpt lat="50.082852" lon="13.426677">
<time>2021-08-22T11:02:38Z</time>
</trkpt>
<trkpt lat="50.082823" lon="13.426695">
<time>2021-08-22T11:02:39Z</time>
</trkpt>
<trkpt lat="50.082793" lon="13.426717">
<time>2021-08-22T11:02:40Z</time>
</trkpt>
<trkpt lat="50.082766" lon="13.426739">
<time>2021-08-22T11:02:41Z</time>
</trkpt>
<trkpt lat="50.082743" lon="13.42674">
<time>2021-08-22T11:02:42Z</time>
</trkpt>
<trkpt lat="50.082708" lon="13.426768">
<time>2021-08-22T11:02:43Z</time>
</trkpt>
<trkpt lat="50.08269" lon="13.426782">
<time>2021-08-22T11:02:44Z</time>
</trkpt>
<trkpt lat="50.082657" lon="13.426795">
<time>2021-08-22T11:02:45Z</time>
</trkpt>
<trkpt lat="50.082621" lon="13.426824">
<time>2021-08-22T11:02:46Z</time>
</trkpt>
<trkpt lat="50.082583" lon="13.426844">
<time>2021-08-22T11:02:47Z</time>
</trkpt>
<trkpt lat="50.082558" lon="13.42686">
<time>2021-08-22T11:02:48Z</time>
</trkpt>
<trkpt lat="50.082531" lon="13.426869">
<time>2021-08-22T11:02:49Z</time>
</trkpt>
<trkpt lat="50.082504" lon="13.426865">
<time>2021-08-22T11:02:50Z</time>
</trkpt>
<trkpt lat="50.082482" lon="13.426854">
<time>2021-08-22T11:02:51Z</time>
</trkpt>
<trkpt lat="50.082461" lon="13.426855">
<time>2021-08-22T11:02:52Z</time>
</trkpt>
<trkpt lat="50.082434" lon="13.426876">
<time>2021-08-22T11:02:53Z</time>
</trkpt>
<trkpt lat="50.082412" lon="13.426883">
<time>2021-08-22T11:02:54Z</time>
</trkpt>
<trkpt lat="50.082387" lon="13.426901">
<time>2021-08-22T11:02:55Z</time>
</trkpt>
<trkpt lat="50.082367" lon="13.426918">
<time>2021-08-22T11:02:56Z</time>
</trkpt>
<trkpt lat="50.082351" lon="13.426925">
<time>2021-08-22T11:02:57Z</time>
</trkpt>
<trkpt lat="50.082337" lon="13.426934">
<time>2021-08-22T11:02:58Z</time>
</trkpt>
<trkpt lat="50.082324" lon="13.426944">
<time>2021-08-22T11:02:59Z</time>
</trkpt>
<trkpt lat="50.082304" lon="13.426964">
<time>2021-08-22T11:03:00Z</time>
</trkpt>
<trkpt lat="50.082274" lon="13.426992">
<time>2021-08-22T11:03:01Z</time>
</trkpt>
<trkpt lat="50.082246" lon="13.427018">
<time>2021-08-22T11:03:02Z</time>
</trkpt>
<trkpt lat="50.082212" lon="13.427045">
<time>2021-08-22T11:03:03Z</time>
</trkpt>
<trkpt lat="50.082186" lon="13.427058">
<time>2021-08-22T11:03:04Z</time>
</trkpt>
<trkpt lat="50.082147" lon="13.427045">
<time>2021-08-22T11:03:05Z</time>
</trkpt>
<trkpt lat="50.08212" lon="13.427061">
<time>2021-08-22T11:03:06Z</time>
</trkpt>
<trkpt lat="50.082097" lon="13.427068">
<time>2021-08-22T11:03:07Z</time>
</trkpt>
<trkpt lat="50.082063" lon="13.4271">
<time>2021-08-22T11:03:08Z</time>
</trkpt>
<trkpt lat="50.082042" lon="13.42711">
<time>2021-08-22T11:03:09Z</time>
</trkpt>
<trkpt lat="50.082016" lon="13.427129">
<time>2021-08-22T11:03:10Z</time>
</trkpt>
<trkpt lat="50.082001" lon="13.427144">
<time>2021-08-22T11:03:11Z</time>
</trkpt>
<trkpt lat="50.081984" lon="13.427162">
<time>2021-08-22T11:03:12Z</time>
</trkpt>
<trkpt lat="50.081964" lon="13.427175">
<time>2021-08-22T11:03:13Z</time>
</trkpt>
<trkpt lat="50.081938" lon="13.427203">
<time>2021-08-22T11:03:14Z</time>
</trkpt>
<trkpt lat="50.081918" lon="13.427218">
<time>2021-08-22T11:03:15Z</time>
</trkpt>
<trkpt lat="50.081895" lon="13.427238">
<time>2021-08-22T11:03:16Z</time>
</trkpt>
<trkpt lat="50.081874" lon="13.427248">
<time>2021-08-22T11:03:17Z</time>
</trkpt>
<trkpt lat="50.081852" lon="13.427266">
<time>2021-08-22T11:03:18Z</time>
</trkpt>
<trkpt lat="50.081825" lon="13.427283">
<time>2021-08-22T11:03:19Z</time>
</trkpt>
<trkpt lat="50.081802" lon="13.427293">
<time>2021-08-22T11:03:20Z</time>
</trkpt>
<trkpt lat="50.081778" lon="13.427299">
<time>2021-08-22T11:03:21Z</time>
</trkpt>
<trkpt lat="50.081758" lon="13.427294">
<time>2021-08-22T11:03:22Z</time>
</trkpt>
<trkpt lat="50.081737" lon="13.42729">
<time>2021-08-22T11:03:23Z</time>
</trkpt>
<trkpt lat="50.081719" lon="13.427291">
<time>2021-08-22T11:03:24Z</time>
</trkpt>
<trkpt lat="50.081701" lon="13.427298">
<time>2021-08-22T11:03:25Z</time>
</trkpt>
<trkpt lat="50.081672" lon="13.427307">
<time>2021-08-22T11:03:26Z</time>
</trkpt>
<trkpt lat="50.081639" lon="13.427326">
<time>2021-08-22T11:03:27Z</time>
</trkpt>
<trkpt lat="50.081616" lon="13.427336">
<time>2021-08-22T11:03:28Z</time>
</trkpt>
<trkpt lat="50.08159" lon="13.427353">
<time>2021-08-22T11:03:29Z</time>
</trkpt>
<trkpt lat="50.081572" lon="13.427369">
<time>2021-08-22T11:03:30Z</time>
</trkpt>
<trkpt lat="50.081562" lon="13.427394">
<time>2021-08-22T11:03:31Z</time>
</trkpt>
<trkpt lat="50.081556" lon="13.427425">
<time>2021-08-22T11:03:32Z</time>
</trkpt>
<trkpt lat="50.081552" lon="13.427457">
<time>2021-08-22T11:03:33Z</time>
</trkpt>
<trkpt lat="50.08155" lon="13.427493">
<time>2021-08-22T11:03:34Z</time>
</trkpt>
<trkpt lat="50.081547" lon="13.427535">
<time>2021-08-22T11:03:35Z</time>
</trkpt>
<trkpt lat="50.081543" lon="13.427579">
<time>2021-08-22T11:03:36Z</time>
</trkpt>
<trkpt lat="50.081544" lon="13.427627">
<time>2021-08-22T11:03:37Z</time>
</trkpt>
<trkpt lat="50.081551" lon="13.427679">
<time>2021-08-22T11:03:38Z</time>
</trkpt>
<trkpt lat="50.081559" lon="13.427718">
<time>2021-08-22T11:03:39Z</time>
</trkpt>
<trkpt lat="50.081564" lon="13.427752">
<time>2021-08-22T11:03:40Z</time>
</trkpt>
<trkpt lat="50.081572" lon="13.427799">
<time>2021-08-22T11:03:41Z</time>
</trkpt>
<trkpt lat="50.081573" lon="13.427837">
<time>2021-08-22T11:03:42Z</time>
</trkpt>
<trkpt lat="50.081589" lon="13.427906">
<time>2021-08-22T11:03:43Z</time>
</trkpt>
<trkpt lat="50.081603" lon="13.427966">
<time>2021-08-22T11:03:44Z</time>
</trkpt>
<trkpt lat="50.081612" lon="13.428005">
<time>2021-08-22T11:03:45Z</time>
</trkpt>
<trkpt lat="50.081618" lon="13.428061">
<time>2021-08-22T11:03:46Z</time>
</trkpt>
<trkpt lat="50.081626" lon="13.428142">
<time>2021-08-22T11:03:47Z</time>
</trkpt>
<trkpt lat="50.081639" lon="13.428193">
<time>2021-08-22T11:03:48Z</time>
</trkpt>
<trkpt lat="50.081666" lon="13.428238">
<time>2021-08-22T11:03:49Z</time>
</trkpt>
<trkpt lat="50.081686" lon="13.428292">
<time>2021-08-22T11:03:50Z</time>
</trkpt>
<trkpt lat="50.081712" lon="13.428344">
<time>2021-08-22T11:03:51Z</time>
</trkpt>
<trkpt lat="50.081739" lon="13.428405">
<time>2021-08-22T11:03:52Z</time>
</trkpt>
<trkpt lat="50.081772" lon="13.428456">
<time>2021-08-22T11:03:53Z</time>
</trkpt>
<trkpt lat="50.081802" lon="13.428501">
<time>2021-08-22T11:03:54Z</time>
</trkpt>
<trkpt lat="50.081833" lon="13.428547">
<time>2021-08-22T11:03:55Z</time>
</trkpt>
<trkpt lat="50.081864" lon="13.42859">
<time>2021-08-22T11:03:56Z</time>
</trkpt>
<trkpt lat="50.081891" lon="13.428641">
<time>2021-08-22T11:03:57Z</time>
</trkpt>
<trkpt lat="50.081913" lon="13.428688">
<time>2021-08-22T11:03:58Z</time>
</trkpt>
<trkpt lat="50.081944" lon="13.428733">
<time>2021-08-22T11:03:59Z</time>
</trkpt>
<trkpt lat="50.081972" lon="13.428779">
<time>2021-08-22T11:04:00Z</time>
</trkpt>
<trkpt lat="50.081999" lon="13.428818">
<time>2021-08-22T11:04:01Z</time>
</trkpt>
<trkpt lat="50.082027" lon="13.428867">
<time>2021-08-22T11:04:02Z</time>
</trkpt>
<trkpt lat="50.082039" lon="13.428938">
<time>2021-08-22T11:04:03Z</time>
</trkpt>
<trkpt lat="50.082056" lon="13.428997">
<time>2021-08-22T11:04:04Z</time>
</trkpt>
<trkpt lat="50.082081" lon="13.429041">
<time>2021-08-22T11:04:05Z</time>
</trkpt>
<trkpt lat="50.082104" lon="13.429084">
<time>2021-08-22T11:04:06Z</time>
</trkpt>
<trkpt lat="50.082128" lon="13.429135">
<time>2021-08-22T11:04:07Z</time>
</trkpt>
<trkpt lat="50.082154" lon="13.429185">
<time>2021-08-22T11:04:08Z</time>
</trkpt>
<trkpt lat="50.082174" lon="13.429237">
<time>2021-08-22T11:04:09Z</time>
</trkpt>
<trkpt lat="50.082191" lon="13.42928">
<time>2021-08-22T11:04:10Z</time>
</trkpt>
<trkpt lat="50.082206" lon="13.429322">
<time>2021-08-22T11:04:11Z</time>
</trkpt>
<trkpt lat="50.082228" lon="13.429371">
<time>2021-08-22T11:04:12Z</time>
</trkpt>
<trkpt lat="50.082252" lon="13.429411">
<time>2021-08-22T11:04:13Z</time>
</trkpt>
<trkpt lat="50.082273" lon="13.429465">
<time>2021-08-22T11:04:14Z</time>
</trkpt>
<trkpt lat="50.082301" lon="13.42952">
<time>2021-08-22T11:04:15Z</time>
</trkpt>
<trkpt lat="50.082313" lon="13.429571">
<time>2021-08-22T11:04:16Z</time>
</trkpt>
<trkpt lat="50.082327" lon="13.429636">
<time>2021-08-22T11:04:17Z</time>
</trkpt>
<trkpt lat="50.082351" lon="13.429682">
<time>2021-08-22T11:04:18Z</time>
</trkpt>
<trkpt lat="50.082369" lon="13.429758">
<time>2021-08-22T11:04:19Z</time>
</trkpt>
<trkpt lat="50.082401" lon="13.429812">
<time>2021-08-22T11:04:20Z</time>
</trkpt>
<trkpt lat="50.08243" lon="13.429874">
<time>2021-08-22T11:04:21Z</time>
</trkpt>
<trkpt lat="50.082461" lon="13.429925">
<time>2021-08-22T11:04:22Z</time>
</trkpt>
<trkpt lat="50.082482" lon="13.429958">
<time>2021-08-22T11:04:23Z</time>
</trkpt>
<trkpt lat="50.082509" lon="13.429984">
<time>2021-08-22T11:04:24Z</time>
</trkpt>
<trkpt lat="50.08254" lon="13.430005">
<time>2021-08-22T11:04:25Z</time>
</trkpt>
<trkpt lat="50.082533" lon="13.430042">
<time>2021-08-22T11:04:26Z</time>
</trkpt>
<trkpt lat="50.082522" lon="13.43008">
<time>2021-08-22T11:04:27Z</time>
</trkpt>
<trkpt lat="50.08252" lon="13.430052">
<time>2021-08-22T11:04:28Z</time>
</trkpt>
<trkpt lat="50.082497" lon="13.430041">
<time>2021-08-22T11:04:29Z</time>
</trkpt>
<trkpt lat="50.082466" lon="13.430037">
<time>2021-08-22T11:04:30Z</time>
</trkpt>
<trkpt lat="50.082436" lon="13.430022">
<time>2021-08-22T11:04:31Z</time>
</trkpt>
<trkpt lat="50.082399" lon="13.430019">
<time>2021-08-22T11:04:32Z</time>
</trkpt>
<trkpt lat="50.082366" lon="13.43003">
<time>2021-08-22T11:04:33Z</time>
</trkpt>
<trkpt lat="50.08233" lon="13.430039">
<time>2021-08-22T11:04:34Z</time>
</trkpt>
<trkpt lat="50.082299" lon="13.430054">
<time>2021-08-22T11:04:35Z</time>
</trkpt>
<trkpt lat="50.082273" lon="13.430075">
<time>2021-08-22T11:04:36Z</time>
</trkpt>
<trkpt lat="50.082253" lon="13.430103">
<time>2021-08-22T11:04:37Z</time>
</trkpt>
<trkpt lat="50.082238" lon="13.430132">
<time>2021-08-22T11:04:38Z</time>
</trkpt>
<trkpt lat="50.082217" lon="13.430155">
<time>2021-08-22T11:04:39Z</time>
</trkpt>
<trkpt lat="50.082191" lon="13.430175">
<time>2021-08-22T11:04:40Z</time>
</trkpt>
<trkpt lat="50.08217" lon="13.430198">
<time>2021-08-22T11:04:41Z</time>
</trkpt>
<trkpt lat="50.082144" lon="13.430221">
<time>2021-08-22T11:04:42Z</time>
</trkpt>
<trkpt lat="50.082117" lon="13.430244">
<time>2021-08-22T11:04:43Z</time>
</trkpt>
<trkpt lat="50.082097" lon="13.430254">
<time>2021-08-22T11:04:44Z</time>
</trkpt>
<trkpt lat="50.082078" lon="13.430268">
<time>2021-08-22T11:04:45Z</time>
</trkpt>
<trkpt lat="50.082058" lon="13.430274">
<time>2021-08-22T11:04:46Z</time>
</trkpt>
<trkpt lat="50.082035" lon="13.430277">
<time>2021-08-22T11:04:47Z</time>
</trkpt>
<trkpt lat="50.082016" lon="13.430276">
<time>2021-08-22T11:04:48Z</time>
</trkpt>
<trkpt lat="50.081997" lon="13.430285">
<time>2021-08-22T11:04:49Z</time>
</trkpt>
<trkpt lat="50.081973" lon="13.430304">
<time>2021-08-22T11:04:50Z</time>
</trkpt>
<trkpt lat="50.08195" lon="13.430305">
<time>2021-08-22T11:04:51Z</time>
</trkpt>
<trkpt lat="50.081927" lon="13.430312">
<time>2021-08-22T11:04:52Z</time>
</trkpt>
<trkpt lat="50.081903" lon="13.430335">
<time>2021-08-22T11:04:53Z</time>
</trkpt>
<trkpt lat="50.081882" lon="13.430353">
<time>2021-08-22T11:04:54Z</time>
</trkpt>
<trkpt lat="50.081855" lon="13.43036">
<time>2021-08-22T11:04:55Z</time>
</trkpt>
<trkpt lat="50.081832" lon="13.430382">
<time>2021-08-22T11:04:56Z</time>
</trkpt>
<trkpt lat="50.081799" lon="13.430406">
<time>2021-08-22T11:04:57Z</time>
</trkpt>
<trkpt lat="50.081764" lon="13.430419">
<time>2021-08-22T11:04:58Z</time>
</trkpt>
<trkpt lat="50.081722" lon="13.430444">
<time>2021-08-22T11:04:59Z</time>
</trkpt>
<trkpt lat="50.081693" lon="13.430453">
<time>2021-08-22T11:05:00Z</time>
</trkpt>
<trkpt lat="50.081655" lon="13.430478">
<time>2021-08-22T11:05:01Z</time>
</trkpt>
<trkpt lat="50.081625" lon="13.430483">
<time>2021-08-22T11:05:02Z</time>
</trkpt>
<trkpt lat="50.081587" lon="13.430484">
<time>2021-08-22T11:05:03Z</time>
</trkpt>
<trkpt lat="50.081555" lon="13.430477">
<time>2021-08-22T11:05:04Z</time>
</trkpt>
<trkpt lat="50.081521" lon="13.430469">
<time>2021-08-22T11:05:05Z</time>
</trkpt>
<trkpt lat="50.081488" lon="13.430467">
<time>2021-08-22T11:05:06Z</time>
</trkpt>
<trkpt lat="50.081446" lon="13.430462">
<time>2021-08-22T11:05:07Z</time>
</trkpt>
<trkpt lat="50.081403" lon="13.430462">
<time>2021-08-22T11:05:08Z</time>
</trkpt>
<trkpt lat="50.081357" lon="13.430465">
<time>2021-08-22T11:05:09Z</time>
</trkpt>
<trkpt lat="50.081324" lon="13.430465">
<time>2021-08-22T11:05:10Z</time>
</trkpt>
<trkpt lat="50.081294" lon="13.430472">
<time>2021-08-22T11:05:11Z</time>
</trkpt>
<trkpt lat="50.081262" lon="13.43049">
<time>2021-08-22T11:05:12Z</time>
</trkpt>
<trkpt lat="50.081226" lon="13.430488">
<time>2021-08-22T11:05:13Z</time>
</trkpt>
<trkpt lat="50.081184" lon="13.430499">
<time>2021-08-22T11:05:14Z</time>
</trkpt>
<trkpt lat="50.081145" lon="13.430495">
<time>2021-08-22T11:05:15Z</time>
</trkpt>
<trkpt lat="50.08111" lon="13.430489">
<time>2021-08-22T11:05:16Z</time>
</trkpt>
<trkpt lat="50.081077" lon="13.430481">
<time>2021-08-22T11:05:17Z</time>
</trkpt>
<trkpt lat="50.081049" lon="13.43047">
<time>2021-08-22T11:05:18Z</time>
</trkpt>
<trkpt lat="50.081014" lon="13.430453">
<time>2021-08-22T11:05:19Z</time>
</trkpt>
<trkpt lat="50.080985" lon="13.430434">
<time>2021-08-22T11:05:20Z</time>
</trkpt>
<trkpt lat="50.080958" lon="13.430414">
<time>2021-08-22T11:05:21Z</time>
</trkpt>
<trkpt lat="50.080931" lon="13.4304">
<time>2021-08-22T11:05:22Z</time>
</trkpt>
<trkpt lat="50.080904" lon="13.430387">
<time>2021-08-22T11:05:23Z</time>
</trkpt>
<trkpt lat="50.08088" lon="13.430365">
<time>2021-08-22T11:05:24Z</time>
</trkpt>
<trkpt lat="50.08086" lon="13.430354">
<time>2021-08-22T11:05:25Z</time>
</trkpt>
<trkpt lat="50.080833" lon="13.430346">
<time>2021-08-22T11:05:26Z</time>
</trkpt>
<trkpt lat="50.080792" lon="13.430309">
<time>2021-08-22T11:05:27Z</time>
</trkpt>
<trkpt lat="50.080757" lon="13.430297">
<time>2021-08-22T11:05:28Z</time>
</trkpt>
<trkpt lat="50.080721" lon="13.430284">
<time>2021-08-22T11:05:29Z</time>
</trkpt>
<trkpt lat="50.080692" lon="13.430261">
<time>2021-08-22T11:05:30Z</time>
</trkpt>
<trkpt lat="50.080659" lon="13.430228">
<time>2021-08-22T11:05:31Z</time>
</trkpt>
<trkpt lat="50.080647" lon="13.430197">
<time>2021-08-22T11:05:32Z</time>
</trkpt>
<trkpt lat="50.080608" lon="13.430172">
<time>2021-08-22T11:05:33Z</time>
</trkpt>
<trkpt lat="50.080572" lon="13.430163">
<time>2021-08-22T11:05:34Z</time>
</trkpt>
<trkpt lat="50.080518" lon="13.430153">
<time>2021-08-22T11:05:35Z</time>
</trkpt>
<trkpt lat="50.080469" lon="13.430164">
<time>2021-08-22T11:05:36Z</time>
</trkpt>
<trkpt lat="50.080409" lon="13.430201">
<time>2021-08-22T11:05:37Z</time>
</trkpt>
<trkpt lat="50.080347" lon="13.430222">
<time>2021-08-22T11:05:38Z</time>
</trkpt>
<trkpt lat="50.080277" lon="13.430241">
<time>2021-08-22T11:05:39Z</time>
</trkpt>
<trkpt lat="50.080212" lon="13.430266">
<time>2021-08-22T11:05:40Z</time>
</trkpt>
<trkpt lat="50.08016" lon="13.430287">
<time>2021-08-22T11:05:41Z</time>
</trkpt>
<trkpt lat="50.080092" lon="13.430305">
<time>2021-08-22T11:05:42Z</time>
</trkpt>
<trkpt lat="50.080033" lon="13.430304">
<time>2021-08-22T11:05:43Z</time>
</trkpt>
<trkpt lat="50.079976" lon="13.430306">
<time>2021-08-22T11:05:44Z</time>
</trkpt>
<trkpt lat="50.079901" lon="13.430251">
<time>2021-08-22T11:05:45Z</time>
</trkpt>
<trkpt lat="50.079831" lon="13.430212">
<time>2021-08-22T11:05:46Z</time>
</trkpt>
<trkpt lat="50.079752" lon="13.430184">
<time>2021-08-22T11:05:47Z</time>
</trkpt>
<trkpt lat="50.079678" lon="13.430193">
<time>2021-08-22T11:05:48Z</time>
</trkpt>
<trkpt lat="50.079592" lon="13.430217">
<time>2021-08-22T11:05:49Z</time>
</trkpt>
<trkpt lat="50.079527" lon="13.43024">
<time>2021-08-22T11:05:50Z</time>
</trkpt>
<trkpt lat="50.07947" lon="13.430256">
<time>2021-08-22T11:05:51Z</time>
</trkpt>
<trkpt lat="50.079392" lon="13.430254">
<time>2021-08-22T11:05:52Z</time>
</trkpt>
<trkpt lat="50.079305" lon="13.430248">
<time>2021-08-22T11:05:53Z</time>
</trkpt>
<trkpt lat="50.079217" lon="13.430218">
<time>2021-08-22T11:05:54Z</time>
</trkpt>
<trkpt lat="50.07913" lon="13.430168">
<time>2021-08-22T11:05:55Z</time>
</trkpt>
<trkpt lat="50.079036" lon="13.430134">
<time>2021-08-22T11:05:56Z</time>
</trkpt>
<trkpt lat="50.078955" lon="13.430108">
<time>2021-08-22T11:05:57Z</time>
</trkpt>
<trkpt lat="50.078885" lon="13.430063">
<time>2021-08-22T11:05:58Z</time>
</trkpt>
<trkpt lat="50.078823" lon="13.430018">
<time>2021-08-22T11:05:59Z</time>
</trkpt>
<trkpt lat="50.078774" lon="13.429961">
<time>2021-08-22T11:06:00Z</time>
</trkpt>
<trkpt lat="50.078738" lon="13.429917">
<time>2021-08-22T11:06:01Z</time>
</trkpt>
<trkpt lat="50.078712" lon="13.429866">
<time>2021-08-22T11:06:02Z</time>
</trkpt>
<trkpt lat="50.07868" lon="13.429822">
<time>2021-08-22T11:06:03Z</time>
</trkpt>
<trkpt lat="50.07866" lon="13.429772">
<time>2021-08-22T11:06:04Z</time>
</trkpt>
<trkpt lat="50.078632" lon="13.429716">
<time>2021-08-22T11:06:05Z</time>
</trkpt>
<trkpt lat="50.078595" lon="13.42968">
<time>2021-08-22T11:06:06Z</time>
</trkpt>
<trkpt lat="50.078554" lon="13.429632">
<time>2021-08-22T11:06:07Z</time>
</trkpt>
<trkpt lat="50.078528" lon="13.42959">
<time>2021-08-22T11:06:08Z</time>
</trkpt>
<trkpt lat="50.078502" lon="13.429561">
<time>2021-08-22T11:06:09Z</time>
</trkpt>
<trkpt lat="50.078479" lon="13.42957">
<time>2021-08-22T11:06:10Z</time>
</trkpt>
<trkpt lat="50.078481" lon="13.429556">
<time>2021-08-22T11:06:11Z</time>
</trkpt>
<trkpt lat="50.078491" lon="13.429585">
<time>2021-08-22T11:06:12Z</time>
</trkpt>
<trkpt lat="50.07849" lon="13.429597">
<time>2021-08-22T11:06:13Z</time>
</trkpt>
<trkpt lat="50.078478" lon="13.429572">
<time>2021-08-22T11:06:14Z</time>
</trkpt>
<trkpt lat="50.078475" lon="13.429526">
<time>2021-08-22T11:06:15Z</time>
</trkpt>
<trkpt lat="50.078457" lon="13.429506">
<time>2021-08-22T11:06:16Z</time>
</trkpt>
<trkpt lat="50.078441" lon="13.429484">
<time>2021-08-22T11:06:17Z</time>
</trkpt>
<trkpt lat="50.078436" lon="13.429471">
<time>2021-08-22T11:06:18Z</time>
</trkpt>
<trkpt lat="50.078427" lon="13.429463">
<time>2021-08-22T11:06:19Z</time>
</trkpt>
<trkpt lat="50.078418" lon="13.429461">
<time>2021-08-22T11:06:20Z</time>
</trkpt>
<trkpt lat="50.078416" lon="13.42945">
<time>2021-08-22T11:06:21Z</time>
</trkpt>
<trkpt lat="50.078423" lon="13.42943">
<time>2021-08-22T11:06:22Z</time>
</trkpt>
<trkpt lat="50.078426" lon="13.429402">
<time>2021-08-22T11:06:23Z</time>
</trkpt>
<trkpt lat="50.078424" lon="13.429356">
<time>2021-08-22T11:06:24Z</time>
</trkpt>
<trkpt lat="50.07842" lon="13.429307">
<time>2021-08-22T11:06:25Z</time>
</trkpt>
<trkpt lat="50.078407" lon="13.429243">
<time>2021-08-22T11:06:26Z</time>
</trkpt>
<trkpt lat="50.078395" lon="13.429172">
<time>2021-08-22T11:06:27Z</time>
</trkpt>
<trkpt lat="50.078385" lon="13.429107">
<time>2021-08-22T11:06:28Z</time>
</trkpt>
<trkpt lat="50.07837" lon="13.429037">
<time>2021-08-22T11:06:29Z</time>
</trkpt>
<trkpt lat="50.078359" lon="13.428965">
<time>2021-08-22T11:06:30Z</time>
</trkpt>
<trkpt lat="50.078353" lon="13.42888">
<time>2021-08-22T11:06:31Z</time>
</trkpt>
<trkpt lat="50.078326" lon="13.42879">
<time>2021-08-22T11:06:32Z</time>
</trkpt>
<trkpt lat="50.0783" lon="13.428699">
<time>2021-08-22T11:06:33Z</time>
</trkpt>
<trkpt lat="50.078272" lon="13.428616">
<time>2021-08-22T11:06:34Z</time>
</trkpt>
<trkpt lat="50.078234" lon="13.428536">
<time>2021-08-22T11:06:35Z</time>
</trkpt>
<trkpt lat="50.078189" lon="13.428474">
<time>2021-08-22T11:06:36Z</time>
</trkpt>
<trkpt lat="50.078143" lon="13.428422">
<time>2021-08-22T11:06:37Z</time>
</trkpt>
<trkpt lat="50.078094" lon="13.428369">
<time>2021-08-22T11:06:38Z</time>
</trkpt>
<trkpt lat="50.078056" lon="13.428331">
<time>2021-08-22T11:06:39Z</time>
</trkpt>
<trkpt lat="50.078019" lon="13.428293">
<time>2021-08-22T11:06:40Z</time>
</trkpt>
<trkpt lat="50.078" lon="13.428271">
<time>2021-08-22T11:06:41Z</time>
</trkpt>
<trkpt lat="50.07799" lon="13.428253">
<time>2021-08-22T11:06:42Z</time>
</trkpt>
<trkpt lat="50.077978" lon="13.428213">
<time>2021-08-22T11:06:43Z</time>
</trkpt>
<trkpt lat="50.077977" lon="13.428165">
<time>2021-08-22T11:06:44Z</time>
</trkpt>
<trkpt lat="50.077975" lon="13.428109">
<time>2021-08-22T11:06:45Z</time>
</trkpt>
<trkpt lat="50.077978" lon="13.428059">
<time>2021-08-22T11:06:46Z</time>
</trkpt>
<trkpt lat="50.077978" lon="13.428017">
<time>2021-08-22T11:06:47Z</time>
</trkpt>
<trkpt lat="50.07798" lon="13.427979">
<time>2021-08-22T11:06:48Z</time>
</trkpt>
<trkpt lat="50.077982" lon="13.427942">
<time>2021-08-22T11:06:49Z</time>
</trkpt>
<trkpt lat="50.077994" lon="13.427904">
<time>2021-08-22T11:06:50Z</time>
</trkpt>
<trkpt lat="50.078003" lon="13.427868">
<time>2021-08-22T11:06:51Z</time>
</trkpt>
<trkpt lat="50.078016" lon="13.427823">
<time>2021-08-22T11:06:52Z</time>
</trkpt>
<trkpt lat="50.078021" lon="13.42776">
<time>2021-08-22T11:06:53Z</time>
</trkpt>
<trkpt lat="50.078026" lon="13.427698">
<time>2021-08-22T11:06:54Z</time>
</trkpt>
<trkpt lat="50.078027" lon="13.427631">
<time>2021-08-22T11:06:55Z</time>
</trkpt>
<trkpt lat="50.078012" lon="13.427566">
<time>2021-08-22T11:06:56Z</time>
</trkpt>
<trkpt lat="50.077997" lon="13.427509">
<time>2021-08-22T11:06:57Z</time>
</trkpt>
<trkpt lat="50.077994" lon="13.427469">
<time>2021-08-22T11:06:58Z</time>
</trkpt>
<trkpt lat="50.077983" lon="13.427426">
<time>2021-08-22T11:06:59Z</time>
</trkpt>
<trkpt lat="50.077966" lon="13.42735">
<time>2021-08-22T11:07:00Z</time>
</trkpt>
<trkpt lat="50.077953" lon="13.427265">
<time>2021-08-22T11:07:01Z</time>
</trkpt>
<trkpt lat="50.077934" lon="13.427178">
<time>2021-08-22T11:07:02Z</time>
</trkpt>
<trkpt lat="50.077927" lon="13.427098">
<time>2021-08-22T11:07:03Z</time>
</trkpt>
<trkpt lat="50.077914" lon="13.427002">
<time>2021-08-22T11:07:04Z</time>
</trkpt>
<trkpt lat="50.077903" lon="13.426908">
<time>2021-08-22T11:07:05Z</time>
</trkpt>
<trkpt lat="50.077887" lon="13.426813">
<time>2021-08-22T11:07:06Z</time>
</trkpt>
<trkpt lat="50.077868" lon="13.426706">
<time>2021-08-22T11:07:07Z</time>
</trkpt>
<trkpt lat="50.077847" lon="13.426611">
<time>2021-08-22T11:07:08Z</time>
</trkpt>
<trkpt lat="50.077817" lon="13.426503">
<time>2021-08-22T11:07:09Z</time>
</trkpt>
<trkpt lat="50.077792" lon="13.42641">
<time>2021-08-22T11:07:10Z</time>
</trkpt>
<trkpt lat="50.077765" lon="13.426304">
<time>2021-08-22T11:07:11Z</time>
</trkpt>
<trkpt lat="50.077735" lon="13.426175">
<time>2021-08-22T11:07:12Z</time>
</trkpt>
<trkpt lat="50.077712" lon="13.426075">
<time>2021-08-22T11:07:13Z</time>
</trkpt>
<trkpt lat="50.077697" lon="13.425969">
<time>2021-08-22T11:07:14Z</time>
</trkpt>
<trkpt lat="50.077672" lon="13.425864">
<time>2021-08-22T11:07:15Z</time>
</trkpt>
<trkpt lat="50.077656" lon="13.425762">
<time>2021-08-22T11:07:16Z</time>
</trkpt>
<trkpt lat="50.077636" lon="13.425689">
<time>2021-08-22T11:07:17Z</time>
</trkpt>
<trkpt lat="50.077626" lon="13.425645">
<time>2021-08-22T11:07:18Z</time>
</trkpt>
<trkpt lat="50.077641" lon="13.425615">
<time>2021-08-22T11:07:19Z</time>
</trkpt>
<trkpt lat="50.077652" lon="13.425607">
<time>2021-08-22T11:07:20Z</time>
</trkpt>
<trkpt lat="50.07766" lon="13.425604">
<time>2021-08-22T11:07:21Z</time>
</trkpt>
<trkpt lat="50.07766" lon="13.425599">
<time>2021-08-22T11:07:22Z</time>
</trkpt>
<trkpt lat="50.077656" lon="13.425584">
<time>2021-08-22T11:07:23Z</time>
</trkpt>
<trkpt lat="50.077655" lon="13.425565">
<time>2021-08-22T11:07:24Z</time>
</trkpt>
<trkpt lat="50.077655" lon="13.425536">
<time>2021-08-22T11:07:25Z</time>
</trkpt>
<trkpt lat="50.077649" lon="13.425498">
<time>2021-08-22T11:07:26Z</time>
</trkpt>
<trkpt lat="50.077644" lon="13.425442">
<time>2021-08-22T11:07:27Z</time>
</trkpt>
<trkpt lat="50.077632" lon="13.425369">
<time>2021-08-22T11:07:28Z</time>
</trkpt>
<trkpt lat="50.077606" lon="13.42529">
<time>2021-08-22T11:07:29Z</time>
</trkpt>
<trkpt lat="50.077578" lon="13.425194">
<time>2021-08-22T11:07:30Z</time>
</trkpt>
<trkpt lat="50.077558" lon="13.425091">
<time>2021-08-22T11:07:31Z</time>
</trkpt>
<trkpt lat="50.077531" lon="13.424979">
<time>2021-08-22T11:07:32Z</time>
</trkpt>
<trkpt lat="50.077496" lon="13.424852">
<time>2021-08-22T11:07:33Z</time>
</trkpt>
<trkpt lat="50.077473" lon="13.424732">
<time>2021-08-22T11:07:34Z</time>
</trkpt>
<trkpt lat="50.077449" lon="13.424606">
<time>2021-08-22T11:07:35Z</time>
</trkpt>
<trkpt lat="50.077448" lon="13.42449">
<time>2021-08-22T11:07:36Z</time>
</trkpt>
<trkpt lat="50.077447" lon="13.424379">
<time>2021-08-22T11:07:37Z</time>
</trkpt>
<trkpt lat="50.07745" lon="13.424273">
<time>2021-08-22T11:07:38Z</time>
</trkpt>
<trkpt lat="50.077463" lon="13.424138">
<time>2021-08-22T11:07:39Z</time>
</trkpt>
<trkpt lat="50.077486" lon="13.424021">
<time>2021-08-22T11:07:40Z</time>
</trkpt>
<trkpt lat="50.077535" lon="13.423919">
<time>2021-08-22T11:07:41Z</time>
</trkpt>
<trkpt lat="50.077587" lon="13.42383">
<time>2021-08-22T11:07:42Z</time>
</trkpt>
<trkpt lat="50.077627" lon="13.423745">
<time>2021-08-22T11:07:43Z</time>
</trkpt>
<trkpt lat="50.077677" lon="13.423645">
<time>2021-08-22T11:07:44Z</time>
</trkpt>
<trkpt lat="50.077714" lon="13.423562">
<time>2021-08-22T11:07:45Z</time>
</trkpt>
<trkpt lat="50.077743" lon="13.423495">
<time>2021-08-22T11:07:46Z</time>
</trkpt>
<trkpt lat="50.077765" lon="13.423457">
<time>2021-08-22T11:07:47Z</time>
</trkpt>
<trkpt lat="50.077779" lon="13.423436">
<time>2021-08-22T11:07:48Z</time>
</trkpt>
<trkpt lat="50.077803" lon="13.423425">
<time>2021-08-22T11:07:49Z</time>
</trkpt>
<trkpt lat="50.07781" lon="13.423417">
<time>2021-08-22T11:07:50Z</time>
</trkpt>
<trkpt lat="50.077814" lon="13.42341">
<time>2021-08-22T11:07:51Z</time>
</trkpt>
<trkpt lat="50.077822" lon="13.423406">
<time>2021-08-22T11:07:52Z</time>
</trkpt>
<trkpt lat="50.077835" lon="13.423385">
<time>2021-08-22T11:07:53Z</time>
</trkpt>
<trkpt lat="50.077852" lon="13.423349">
<time>2021-08-22T11:07:54Z</time>
</trkpt>
<trkpt lat="50.077869" lon="13.423305">
<time>2021-08-22T11:07:55Z</time>
</trkpt>
<trkpt lat="50.077892" lon="13.423248">
<time>2021-08-22T11:07:56Z</time>
</trkpt>
<trkpt lat="50.077911" lon="13.423168">
<time>2021-08-22T11:07:57Z</time>
</trkpt>
<trkpt lat="50.077933" lon="13.423093">
<time>2021-08-22T11:07:58Z</time>
</trkpt>
<trkpt lat="50.077971" lon="13.423019">
<time>2021-08-22T11:07:59Z</time>
</trkpt>
<trkpt lat="50.078006" lon="13.422929">
<time>2021-08-22T11:08:00Z</time>
</trkpt>
<trkpt lat="50.078041" lon="13.422832">
<time>2021-08-22T11:08:01Z</time>
</trkpt>
<trkpt lat="50.078087" lon="13.422747">
<time>2021-08-22T11:08:02Z</time>
</trkpt>
<trkpt lat="50.078134" lon="13.422663">
<time>2021-08-22T11:08:03Z</time>
</trkpt>
<trkpt lat="50.078183" lon="13.422585">
<time>2021-08-22T11:08:04Z</time>
</trkpt>
<trkpt lat="50.078228" lon="13.422507">
<time>2021-08-22T11:08:05Z</time>
</trkpt>
<trkpt lat="50.078264" lon="13.422433">
<time>2021-08-22T11:08:06Z</time>
</trkpt>
<trkpt lat="50.078304" lon="13.422375">
<time>2021-08-22T11:08:07Z</time>
</trkpt>
<trkpt lat="50.078321" lon="13.422329">
<time>2021-08-22T11:08:08Z</time>
</trkpt>
<trkpt lat="50.07833" lon="13.422297">
<time>2021-08-22T11:08:09Z</time>
</trkpt>
<trkpt lat="50.078361" lon="13.422277">
<time>2021-08-22T11:08:10Z</time>
</trkpt>
<trkpt lat="50.078367" lon="13.422273">
<time>2021-08-22T11:08:11Z</time>
</trkpt>
<trkpt lat="50.078365" lon="13.42227">
<time>2021-08-22T11:08:12Z</time>
</trkpt>
<trkpt lat="50.078367" lon="13.422258">
<time>2021-08-22T11:08:13Z</time>
</trkpt>
<trkpt lat="50.078365" lon="13.422255">
<time>2021-08-22T11:08:14Z</time>
</trkpt>
<trkpt lat="50.078395" lon="13.422259">
<time>2021-08-22T11:08:15Z</time>
</trkpt>
<trkpt lat="50.078393" lon="13.422277">
<time>2021-08-22T11:08:16Z</time>
</trkpt>
<trkpt lat="50.078389" lon="13.4223">
<time>2021-08-22T11:08:17Z</time>
</trkpt>
<trkpt lat="50.078395" lon="13.422326">
<time>2021-08-22T11:08:18Z</time>
</trkpt>
<trkpt lat="50.078393" lon="13.42235">
<time>2021-08-22T11:08:19Z</time>
</trkpt>
<trkpt lat="50.078381" lon="13.422381">
<time>2021-08-22T11:08:20Z</time>
</trkpt>
<trkpt lat="50.078369" lon="13.42242">
<time>2021-08-22T11:08:21Z</time>
</trkpt>
<trkpt lat="50.078353" lon="13.422456">
<time>2021-08-22T11:08:22Z</time>
</trkpt>
<trkpt lat="50.07833" lon="13.422496">
<time>2021-08-22T11:08:23Z</time>
</trkpt>
<trkpt lat="50.0783" lon="13.422541">
<time>2021-08-22T11:08:24Z</time>
</trkpt>
<trkpt lat="50.078264" lon="13.422602">
<time>2021-08-22T11:08:25Z</time>
</trkpt>
<trkpt lat="50.078227" lon="13.422664">
<time>2021-08-22T11:08:26Z</time>
</trkpt>
<trkpt lat="50.078196" lon="13.42272">
<time>2021-08-22T11:08:27Z</time>
</trkpt>
<trkpt lat="50.078172" lon="13.422774">
<time>2021-08-22T11:08:28Z</time>
</trkpt>
<trkpt lat="50.078154" lon="13.422826">
<time>2021-08-22T11:08:29Z</time>
</trkpt>
<trkpt lat="50.078131" lon="13.422891">
<time>2021-08-22T11:08:30Z</time>
</trkpt>
<trkpt lat="50.078097" lon="13.42297">
<time>2021-08-22T11:08:31Z</time>
</trkpt>
<trkpt lat="50.078064" lon="13.423036">
<time>2021-08-22T11:08:32Z</time>
</trkpt>
<trkpt lat="50.078041" lon="13.423077">
<time>2021-08-22T11:08:33Z</time>
</trkpt>
<trkpt lat="50.07802" lon="13.423105">
<time>2021-08-22T11:08:34Z</time>
</trkpt>
<trkpt lat="50.078" lon="13.423129">
<time>2021-08-22T11:08:35Z</time>
</trkpt>
<trkpt lat="50.07799" lon="13.423147">
<time>2021-08-22T11:08:36Z</time>
</trkpt>
<trkpt lat="50.077973" lon="13.423199">
<time>2021-08-22T11:08:37Z</time>
</trkpt>
<trkpt lat="50.07795" lon="13.423261">
<time>2021-08-22T11:08:38Z</time>
</trkpt>
<trkpt lat="50.077939" lon="13.423302">
<time>2021-08-22T11:08:39Z</time>
</trkpt>
<trkpt lat="50.077929" lon="13.423335">
<time>2021-08-22T11:08:40Z</time>
</trkpt>
<trkpt lat="50.077919" lon="13.423356">
<time>2021-08-22T11:08:41Z</time>
</trkpt>
<trkpt lat="50.077904" lon="13.423386">
<time>2021-08-22T11:08:42Z</time>
</trkpt>
<trkpt lat="50.077884" lon="13.423423">
<time>2021-08-22T11:08:43Z</time>
</trkpt>
<trkpt lat="50.077865" lon="13.423454">
<time>2021-08-22T11:08:44Z</time>
</trkpt>
<trkpt lat="50.077844" lon="13.423489">
<time>2021-08-22T11:08:45Z</time>
</trkpt>
<trkpt lat="50.07782" lon="13.423523">
<time>2021-08-22T11:08:46Z</time>
</trkpt>
<trkpt lat="50.077789" lon="13.423571">
<time>2021-08-22T11:08:47Z</time>
</trkpt>
<trkpt lat="50.077766" lon="13.42361">
<time>2021-08-22T11:08:48Z</time>
</trkpt>
<trkpt lat="50.077741" lon="13.423647">
<time>2021-08-22T11:08:49Z</time>
</trkpt>
<trkpt lat="50.077724" lon="13.423679">
<time>2021-08-22T11:08:50Z</time>
</trkpt>
<trkpt lat="50.077703" lon="13.423739">
<time>2021-08-22T11:08:51Z</time>
</trkpt>
<trkpt lat="50.077673" lon="13.423801">
<time>2021-08-22T11:08:52Z</time>
</trkpt>
<trkpt lat="50.077659" lon="13.423839">
<time>2021-08-22T11:08:53Z</time>
</trkpt>
<trkpt lat="50.077652" lon="13.423872">
<time>2021-08-22T11:08:54Z</time>
</trkpt>
<trkpt lat="50.077652" lon="13.423906">
<time>2021-08-22T11:08:55Z</time>
</trkpt>
<trkpt lat="50.077644" lon="13.423951">
<time>2021-08-22T11:08:56Z</time>
</trkpt>
<trkpt lat="50.07764" lon="13.423992">
<time>2021-08-22T11:08:57Z</time>
</trkpt>
<trkpt lat="50.07763" lon="13.424039">
<time>2021-08-22T11:08:58Z</time>
</trkpt>
<trkpt lat="50.077628" lon="13.424076">
<time>2021-08-22T11:08:59Z</time>
</trkpt>
<trkpt lat="50.077627" lon="13.424108">
<time>2021-08-22T11:09:00Z</time>
</trkpt>
<trkpt lat="50.077627" lon="13.424139">
<time>2021-08-22T11:09:01Z</time>
</trkpt>
<trkpt lat="50.077635" lon="13.424186">
<time>2021-08-22T11:09:02Z</time>
</trkpt>
<trkpt lat="50.077643" lon="13.424236">
<time>2021-08-22T11:09:03Z</time>
</trkpt>
<trkpt lat="50.07765" lon="13.424284">
<time>2021-08-22T11:09:04Z</time>
</trkpt>
<trkpt lat="50.077659" lon="13.424336">
<time>2021-08-22T11:09:05Z</time>
</trkpt>
<trkpt lat="50.07767" lon="13.424385">
<time>2021-08-22T11:09:06Z</time>
</trkpt>
<trkpt lat="50.07768" lon="13.424437">
<time>2021-08-22T11:09:07Z</time>
</trkpt>
<trkpt lat="50.077693" lon="13.424478">
<time>2021-08-22T11:09:08Z</time>
</trkpt>
<trkpt lat="50.077704" lon="13.424518">
<time>2021-08-22T11:09:09Z</time>
</trkpt>
<trkpt lat="50.077711" lon="13.424561">
<time>2021-08-22T11:09:10Z</time>
</trkpt>
<trkpt lat="50.077719" lon="13.424612">
<time>2021-08-22T11:09:11Z</time>
</trkpt>
<trkpt lat="50.077727" lon="13.424657">
<time>2021-08-22T11:09:12Z</time>
</trkpt>
<trkpt lat="50.077729" lon="13.4247">
<time>2021-08-22T11:09:13Z</time>
</trkpt>
<trkpt lat="50.077732" lon="13.424739">
<time>2021-08-22T11:09:14Z</time>
</trkpt>
<trkpt lat="50.077729" lon="13.424783">
<time>2021-08-22T11:09:15Z</time>
</trkpt>
<trkpt lat="50.077736" lon="13.424818">
<time>2021-08-22T11:09:16Z</time>
</trkpt>
<trkpt lat="50.077746" lon="13.424856">
<time>2021-08-22T11:09:17Z</time>
</trkpt>
<trkpt lat="50.077751" lon="13.424896">
<time>2021-08-22T11:09:18Z</time>
</trkpt>
<trkpt lat="50.07774" lon="13.424948">
<time>2021-08-22T11:09:19Z</time>
</trkpt>
<trkpt lat="50.077733" lon="13.425005">
<time>2021-08-22T11:09:20Z</time>
</trkpt>
<trkpt lat="50.077742" lon="13.42504">
<time>2021-08-22T11:09:21Z</time>
</trkpt>
<trkpt lat="50.077751" lon="13.425071">
<time>2021-08-22T11:09:22Z</time>
</trkpt>
<trkpt lat="50.077763" lon="13.42511">
<time>2021-08-22T11:09:23Z</time>
</trkpt>
<trkpt lat="50.077775" lon="13.425151">
<time>2021-08-22T11:09:24Z</time>
</trkpt>
<trkpt lat="50.077784" lon="13.425187">
<time>2021-08-22T11:09:25Z</time>
</trkpt>
<trkpt lat="50.077788" lon="13.425221">
<time>2021-08-22T11:09:26Z</time>
</trkpt>
<trkpt lat="50.07779" lon="13.425252">
<time>2021-08-22T11:09:27Z</time>
</trkpt>
<trkpt lat="50.077768" lon="13.425318">
<time>2021-08-22T11:09:28Z</time>
</trkpt>
<trkpt lat="50.077746" lon="13.425389">
<time>2021-08-22T11:09:29Z</time>
</trkpt>
<trkpt lat="50.077732" lon="13.425438">
<time>2021-08-22T11:09:30Z</time>
</trkpt>
<trkpt lat="50.077705" lon="13.425501">
<time>2021-08-22T11:09:31Z</time>
</trkpt>
<trkpt lat="50.077688" lon="13.425551">
<time>2021-08-22T11:09:32Z</time>
</trkpt>
<trkpt lat="50.077672" lon="13.425608">
<time>2021-08-22T11:09:33Z</time>
</trkpt>
<trkpt lat="50.077651" lon="13.425666">
<time>2021-08-22T11:09:34Z</time>
</trkpt>
<trkpt lat="50.077629" lon="13.425721">
<time>2021-08-22T11:09:35Z</time>
</trkpt>
<trkpt lat="50.077609" lon="13.425773">
<time>2021-08-22T11:09:36Z</time>
</trkpt>
<trkpt lat="50.077586" lon="13.425829">
<time>2021-08-22T11:09:37Z</time>
</trkpt>
<trkpt lat="50.07757" lon="13.425886">
<time>2021-08-22T11:09:38Z</time>
</trkpt>
<trkpt lat="50.07756" lon="13.42593">
<time>2021-08-22T11:09:39Z</time>
</trkpt>
<trkpt lat="50.077538" lon="13.425987">
<time>2021-08-22T11:09:40Z</time>
</trkpt>
<trkpt lat="50.077515" lon="13.426043">
<time>2021-08-22T11:09:41Z</time>
</trkpt>
<trkpt lat="50.077498" lon="13.426099">
<time>2021-08-22T11:09:42Z</time>
</trkpt>
<trkpt lat="50.077477" lon="13.42617">
<time>2021-08-22T11:09:43Z</time>
</trkpt>
<trkpt lat="50.077456" lon="13.426231">
<time>2021-08-22T11:09:44Z</time>
</trkpt>
<trkpt lat="50.077432" lon="13.426298">
<time>2021-08-22T11:09:45Z</time>
</trkpt>
<trkpt lat="50.07741" lon="13.426356">
<time>2021-08-22T11:09:46Z</time>
</trkpt>
<trkpt lat="50.077393" lon="13.426413">
<time>2021-08-22T11:09:47Z</time>
</trkpt>
<trkpt lat="50.077367" lon="13.426486">
<time>2021-08-22T11:09:48Z</time>
</trkpt>
<trkpt lat="50.07735" lon="13.426542">
<time>2021-08-22T11:09:49Z</time>
</trkpt>
<trkpt lat="50.07733" lon="13.426599">
<time>2021-08-22T11:09:50Z</time>
</trkpt>
<trkpt lat="50.077311" lon="13.426665">
<time>2021-08-22T11:09:51Z</time>
</trkpt>
<trkpt lat="50.077292" lon="13.426737">
<time>2021-08-22T11:09:52Z</time>
</trkpt>
<trkpt lat="50.077275" lon="13.426805">
<time>2021-08-22T11:09:53Z</time>
</trkpt>
<trkpt lat="50.077258" lon="13.426873">
<time>2021-08-22T11:09:54Z</time>
</trkpt>
<trkpt lat="50.077235" lon="13.42695">
<time>2021-08-22T11:09:55Z</time>
</trkpt>
<trkpt lat="50.077215" lon="13.427024">
<time>2021-08-22T11:09:56Z</time>
</trkpt>
<trkpt lat="50.077199" lon="13.427096">
<time>2021-08-22T11:09:57Z</time>
</trkpt>
<trkpt lat="50.077188" lon="13.427156">
<time>2021-08-22T11:09:58Z</time>
</trkpt>
<trkpt lat="50.077182" lon="13.427227">
<time>2021-08-22T11:09:59Z</time>
</trkpt>
<trkpt lat="50.077183" lon="13.427308">
<time>2021-08-22T11:10:00Z</time>
</trkpt>
<trkpt lat="50.077183" lon="13.427382">
<time>2021-08-22T11:10:01Z</time>
</trkpt>
<trkpt lat="50.077173" lon="13.427476">
<time>2021-08-22T11:10:02Z</time>
</trkpt>
<trkpt lat="50.077157" lon="13.427567">
<time>2021-08-22T11:10:03Z</time>
</trkpt>
<trkpt lat="50.07715" lon="13.427643">
<time>2021-08-22T11:10:04Z</time>
</trkpt>
<trkpt lat="50.077125" lon="13.427745">
<time>2021-08-22T11:10:05Z</time>
</trkpt>
<trkpt lat="50.0771" lon="13.427839">
<time>2021-08-22T11:10:06Z</time>
</trkpt>
<trkpt lat="50.077082" lon="13.427919">
<time>2021-08-22T11:10:07Z</time>
</trkpt>
<trkpt lat="50.077061" lon="13.427999">
<time>2021-08-22T11:10:08Z</time>
</trkpt>
<trkpt lat="50.077049" lon="13.428064">
<time>2021-08-22T11:10:09Z</time>
</trkpt>
<trkpt lat="50.077035" lon="13.428135">
<time>2021-08-22T11:10:10Z</time>
</trkpt>
<trkpt lat="50.077025" lon="13.428211">
<time>2021-08-22T11:10:11Z</time>
</trkpt>
<trkpt lat="50.077019" lon="13.428295">
<time>2021-08-22T11:10:12Z</time>
</trkpt>
<trkpt lat="50.077014" lon="13.428372">
<time>2021-08-22T11:10:13Z</time>
</trkpt>
<trkpt lat="50.077007" lon="13.428443">
<time>2021-08-22T11:10:14Z</time>
</trkpt>
<trkpt lat="50.077005" lon="13.428501">
<time>2021-08-22T11:10:15Z</time>
</trkpt>
<trkpt lat="50.077002" lon="13.42857">
<time>2021-08-22T11:10:16Z</time>
</trkpt>
<trkpt lat="50.076996" lon="13.428641">
<time>2021-08-22T11:10:17Z</time>
</trkpt>
<trkpt lat="50.076988" lon="13.428716">
<time>2021-08-22T11:10:18Z</time>
</trkpt>
<trkpt lat="50.076976" lon="13.42883">
<time>2021-08-22T11:10:19Z</time>
</trkpt>
<trkpt lat="50.076973" lon="13.428908">
<time>2021-08-22T11:10:20Z</time>
</trkpt>
<trkpt lat="50.076973" lon="13.428977">
<time>2021-08-22T11:10:21Z</time>
</trkpt>
<trkpt lat="50.076974" lon="13.429036">
<time>2021-08-22T11:10:22Z</time>
</trkpt>
<trkpt lat="50.076977" lon="13.429089">
<time>2021-08-22T11:10:23Z</time>
</trkpt>
<trkpt lat="50.07698" lon="13.429128">
<time>2021-08-22T11:10:24Z</time>
</trkpt>
<trkpt lat="50.076981" lon="13.429164">
<time>2021-08-22T11:10:25Z</time>
</trkpt>
<trkpt lat="50.076983" lon="13.429215">
<time>2021-08-22T11:10:26Z</time>
</trkpt>
<trkpt lat="50.076983" lon="13.429257">
<time>2021-08-22T11:10:27Z</time>
</trkpt>
<trkpt lat="50.076982" lon="13.429302">
<time>2021-08-22T11:10:28Z</time>
</trkpt>
<trkpt lat="50.076987" lon="13.429344">
<time>2021-08-22T11:10:29Z</time>
</trkpt>
<trkpt lat="50.076987" lon="13.4294">
<time>2021-08-22T11:10:30Z</time>
</trkpt>
<trkpt lat="50.07698" lon="13.429466">
<time>2021-08-22T11:10:31Z</time>
</trkpt>
<trkpt lat="50.076974" lon="13.429522">
<time>2021-08-22T11:10:32Z</time>
</trkpt>
<trkpt lat="50.07697" lon="13.429583">
<time>2021-08-22T11:10:33Z</time>
</trkpt>
<trkpt lat="50.07697" lon="13.429636">
<time>2021-08-22T11:10:34Z</time>
</trkpt>
<trkpt lat="50.076968" lon="13.429698">
<time>2021-08-22T11:10:35Z</time>
</trkpt>
<trkpt lat="50.076917" lon="13.429806">
<time>2021-08-22T11:10:36Z</time>
</trkpt>
<trkpt lat="50.076895" lon="13.429845">
<time>2021-08-22T11:10:37Z</time>
</trkpt>
<trkpt lat="50.076879" lon="13.429871">
<time>2021-08-22T11:10:38Z</time>
</trkpt>
<trkpt lat="50.076863" lon="13.429881">
<time>2021-08-22T11:10:39Z</time>
</trkpt>
<trkpt lat="50.07683" lon="13.42988">
<time>2021-08-22T11:10:40Z</time>
</trkpt>
<trkpt lat="50.076803" lon="13.42987">
<time>2021-08-22T11:10:41Z</time>
</trkpt>
<trkpt lat="50.076771" lon="13.429867">
<time>2021-08-22T11:10:42Z</time>
</trkpt>
<trkpt lat="50.076741" lon="13.429858">
<time>2021-08-22T11:10:43Z</time>
</trkpt>
<trkpt lat="50.076718" lon="13.429833">
<time>2021-08-22T11:10:44Z</time>
</trkpt>
<trkpt lat="50.076696" lon="13.429819">
<time>2021-08-22T11:10:45Z</time>
</trkpt>
<trkpt lat="50.07667" lon="13.429815">
<time>2021-08-22T11:10:46Z</time>
</trkpt>
<trkpt lat="50.076648" lon="13.42978">
<time>2021-08-22T11:10:47Z</time>
</trkpt>
<trkpt lat="50.076623" lon="13.429746">
<time>2021-08-22T11:10:48Z</time>
</trkpt>
<trkpt lat="50.076602" lon="13.429704">
<time>2021-08-22T11:10:49Z</time>
</trkpt>
<trkpt lat="50.076576" lon="13.42966">
<time>2021-08-22T11:10:50Z</time>
</trkpt>
<trkpt lat="50.076538" lon="13.429633">
<time>2021-08-22T11:10:51Z</time>
</trkpt>
<trkpt lat="50.076508" lon="13.42959">
<time>2021-08-22T11:10:52Z</time>
</trkpt>
<trkpt lat="50.076462" lon="13.429559">
<time>2021-08-22T11:10:53Z</time>
</trkpt>
<trkpt lat="50.076423" lon="13.429511">
<time>2021-08-22T11:10:54Z</time>
</trkpt>
<trkpt lat="50.076383" lon="13.42946">
<time>2021-08-22T11:10:55Z</time>
</trkpt>
<trkpt lat="50.076325" lon="13.429432">
<time>2021-08-22T11:10:56Z</time>
</trkpt>
<trkpt lat="50.07628" lon="13.429403">
<time>2021-08-22T11:10:57Z</time>
</trkpt>
<trkpt lat="50.076229" lon="13.429383">
<time>2021-08-22T11:10:58Z</time>
</trkpt>
<trkpt lat="50.076174" lon="13.429359">
<time>2021-08-22T11:10:59Z</time>
</trkpt>
<trkpt lat="50.076134" lon="13.42932">
<time>2021-08-22T11:11:00Z</time>
</trkpt>
<trkpt lat="50.076085" lon="13.429291">
<time>2021-08-22T11:11:01Z</time>
</trkpt>
<trkpt lat="50.076041" lon="13.429282">
<time>2021-08-22T11:11:02Z</time>
</trkpt>
<trkpt lat="50.076009" lon="13.429269">
<time>2021-08-22T11:11:03Z</time>
</trkpt>
<trkpt lat="50.075977" lon="13.429273">
<time>2021-08-22T11:11:04Z</time>
</trkpt>
<trkpt lat="50.075928" lon="13.429292">
<time>2021-08-22T11:11:05Z</time>
</trkpt>
<trkpt lat="50.075893" lon="13.429303">
<time>2021-08-22T11:11:06Z</time>
</trkpt>
<trkpt lat="50.07586" lon="13.429302">
<time>2021-08-22T11:11:07Z</time>
</trkpt>
<trkpt lat="50.075832" lon="13.42928">
<time>2021-08-22T11:11:08Z</time>
</trkpt>
<trkpt lat="50.075828" lon="13.429272">
<time>2021-08-22T11:11:09Z</time>
</trkpt>
<trkpt lat="50.075829" lon="13.429279">
<time>2021-08-22T11:11:10Z</time>
</trkpt>
<trkpt lat="50.075823" lon="13.429289">
<time>2021-08-22T11:11:11Z</time>
</trkpt>
<trkpt lat="50.075836" lon="13.42929">
<time>2021-08-22T11:11:12Z</time>
</trkpt>
<trkpt lat="50.075858" lon="13.429285">
<time>2021-08-22T11:11:13Z</time>
</trkpt>
<trkpt lat="50.075871" lon="13.429279">
<time>2021-08-22T11:11:14Z</time>
</trkpt>
<trkpt lat="50.075888" lon="13.429268">
<time>2021-08-22T11:11:15Z</time>
</trkpt>
<trkpt lat="50.075907" lon="13.42927">
<time>2021-08-22T11:11:16Z</time>
</trkpt>
<trkpt lat="50.075931" lon="13.42927">
<time>2021-08-22T11:11:17Z</time>
</trkpt>
<trkpt lat="50.075962" lon="13.429275">
<time>2021-08-22T11:11:18Z</time>
</trkpt>
<trkpt lat="50.075992" lon="13.429289">
<time>2021-08-22T11:11:19Z</time>
</trkpt>
<trkpt lat="50.076011" lon="13.429311">
<time>2021-08-22T11:11:20Z</time>
</trkpt>
<trkpt lat="50.076032" lon="13.429341">
<time>2021-08-22T11:11:21Z</time>
</trkpt>
<trkpt lat="50.076049" lon="13.429364">
<time>2021-08-22T11:11:22Z</time>
</trkpt>
<trkpt lat="50.076073" lon="13.429385">
<time>2021-08-22T11:11:23Z</time>
</trkpt>
<trkpt lat="50.076091" lon="13.429411">
<time>2021-08-22T11:11:24Z</time>
</trkpt>
<trkpt lat="50.076124" lon="13.429424">
<time>2021-08-22T11:11:25Z</time>
</trkpt>
<trkpt lat="50.076154" lon="13.429436">
<time>2021-08-22T11:11:26Z</time>
</trkpt>
<trkpt lat="50.076189" lon="13.42945">
<time>2021-08-22T11:11:27Z</time>
</trkpt>
<trkpt lat="50.076222" lon="13.429466">
<time>2021-08-22T11:11:28Z</time>
</trkpt>
<trkpt lat="50.076252" lon="13.429491">
<time>2021-08-22T11:11:29Z</time>
</trkpt>
<trkpt lat="50.076278" lon="13.429521">
<time>2021-08-22T11:11:30Z</time>
</trkpt>
<trkpt lat="50.076308" lon="13.429554">
<time>2021-08-22T11:11:31Z</time>
</trkpt>
<trkpt lat="50.076338" lon="13.429602">
<time>2021-08-22T11:11:32Z</time>
</trkpt>
<trkpt lat="50.07638" lon="13.429645">
<time>2021-08-22T11:11:33Z</time>
</trkpt>
<trkpt lat="50.076425" lon="13.429692">
<time>2021-08-22T11:11:34Z</time>
</trkpt>
<trkpt lat="50.076455" lon="13.429742">
<time>2021-08-22T11:11:35Z</time>
</trkpt>
<trkpt lat="50.07649" lon="13.429795">
<time>2021-08-22T11:11:36Z</time>
</trkpt>
<trkpt lat="50.076518" lon="13.429848">
<time>2021-08-22T11:11:37Z</time>
</trkpt>
<trkpt lat="50.076546" lon="13.429896">
<time>2021-08-22T11:11:38Z</time>
</trkpt>
<trkpt lat="50.07657" lon="13.429925">
<time>2021-08-22T11:11:39Z</time>
</trkpt>
<trkpt lat="50.076597" lon="13.429959">
<time>2021-08-22T11:11:40Z</time>
</trkpt>
<trkpt lat="50.076629" lon="13.430002">
<time>2021-08-22T11:11:41Z</time>
</trkpt>
<trkpt lat="50.076663" lon="13.430035">
<time>2021-08-22T11:11:42Z</time>
</trkpt>
<trkpt lat="50.076687" lon="13.430069">
<time>2021-08-22T11:11:43Z</time>
</trkpt>
<trkpt lat="50.076708" lon="13.430092">
<time>2021-08-22T11:11:44Z</time>
</trkpt>
<trkpt lat="50.076729" lon="13.430103">
<time>2021-08-22T11:11:45Z</time>
</trkpt>
<trkpt lat="50.076753" lon="13.430106">
<time>2021-08-22T11:11:46Z</time>
</trkpt>
<trkpt lat="50.076793" lon="13.43011">
<time>2021-08-22T11:11:47Z</time>
</trkpt>
<trkpt lat="50.07683" lon="13.430123">
<time>2021-08-22T11:11:48Z</time>
</trkpt>
<trkpt lat="50.076858" lon="13.430144">
<time>2021-08-22T11:11:49Z</time>
</trkpt>
<trkpt lat="50.076886" lon="13.430159">
<time>2021-08-22T11:11:50Z</time>
</trkpt>
<trkpt lat="50.076919" lon="13.430183">
<time>2021-08-22T11:11:51Z</time>
</trkpt>
<trkpt lat="50.076939" lon="13.430205">
<time>2021-08-22T11:11:52Z</time>
</trkpt>
<trkpt lat="50.076971" lon="13.430227">
<time>2021-08-22T11:11:53Z</time>
</trkpt>
<trkpt lat="50.076999" lon="13.430246">
<time>2021-08-22T11:11:54Z</time>
</trkpt>
<trkpt lat="50.07702" lon="13.430271">
<time>2021-08-22T11:11:55Z</time>
</trkpt>
<trkpt lat="50.077037" lon="13.430307">
<time>2021-08-22T11:11:56Z</time>
</trkpt>
<trkpt lat="50.077055" lon="13.430341">
<time>2021-08-22T11:11:57Z</time>
</trkpt>
<trkpt lat="50.077078" lon="13.430374">
<time>2021-08-22T11:11:58Z</time>
</trkpt>
<trkpt lat="50.077101" lon="13.430405">
<time>2021-08-22T11:11:59Z</time>
</trkpt>
<trkpt lat="50.077128" lon="13.430427">
<time>2021-08-22T11:12:00Z</time>
</trkpt>
<trkpt lat="50.077148" lon="13.430449">
<time>2021-08-22T11:12:01Z</time>
</trkpt>
<trkpt lat="50.077167" lon="13.430472">
<time>2021-08-22T11:12:02Z</time>
</trkpt>
<trkpt lat="50.077187" lon="13.430498">
<time>2021-08-22T11:12:03Z</time>
</trkpt>
<trkpt lat="50.077207" lon="13.430527">
<time>2021-08-22T11:12:04Z</time>
</trkpt>
<trkpt lat="50.077238" lon="13.430551">
<time>2021-08-22T11:12:05Z</time>
</trkpt>
<trkpt lat="50.077269" lon="13.430584">
<time>2021-08-22T11:12:06Z</time>
</trkpt>
<trkpt lat="50.077298" lon="13.430615">
<time>2021-08-22T11:12:07Z</time>
</trkpt>
<trkpt lat="50.077331" lon="13.43064">
<time>2021-08-22T11:12:08Z</time>
</trkpt>
<trkpt lat="50.07736" lon="13.430665">
<time>2021-08-22T11:12:09Z</time>
</trkpt>
<trkpt lat="50.077389" lon="13.430682">
<time>2021-08-22T11:12:10Z</time>
</trkpt>
<trkpt lat="50.077425" lon="13.430696">
<time>2021-08-22T11:12:11Z</time>
</trkpt>
<trkpt lat="50.077458" lon="13.430718">
<time>2021-08-22T11:12:12Z</time>
</trkpt>
<trkpt lat="50.077487" lon="13.430739">
<time>2021-08-22T11:12:13Z</time>
</trkpt>
<trkpt lat="50.077514" lon="13.430764">
<time>2021-08-22T11:12:14Z</time>
</trkpt>
<trkpt lat="50.077537" lon="13.430799">
<time>2021-08-22T11:12:15Z</time>
</trkpt>
<trkpt lat="50.07757" lon="13.430833">
<time>2021-08-22T11:12:16Z</time>
</trkpt>
<trkpt lat="50.077601" lon="13.430863">
<time>2021-08-22T11:12:17Z</time>
</trkpt>
<trkpt lat="50.077632" lon="13.430896">
<time>2021-08-22T11:12:18Z</time>
</trkpt>
<trkpt lat="50.077663" lon="13.430923">
<time>2021-08-22T11:12:19Z</time>
</trkpt>
<trkpt lat="50.077685" lon="13.430957">
<time>2021-08-22T11:12:20Z</time>
</trkpt>
<trkpt lat="50.077711" lon="13.430983">
<time>2021-08-22T11:12:21Z</time>
</trkpt>
<trkpt lat="50.077742" lon="13.431007">
<time>2021-08-22T11:12:22Z</time>
</trkpt>
<trkpt lat="50.077766" lon="13.431039">
<time>2021-08-22T11:12:23Z</time>
</trkpt>
<trkpt lat="50.077791" lon="13.431065">
<time>2021-08-22T11:12:24Z</time>
</trkpt>
<trkpt lat="50.077815" lon="13.431085">
<time>2021-08-22T11:12:25Z</time>
</trkpt>
<trkpt lat="50.077835" lon="13.431115">
<time>2021-08-22T11:12:26Z</time>
</trkpt>
<trkpt lat="50.077856" lon="13.431151">
<time>2021-08-22T11:12:27Z</time>
</trkpt>
<trkpt lat="50.07787" lon="13.431184">
<time>2021-08-22T11:12:28Z</time>
</trkpt>
<trkpt lat="50.077883" lon="13.431217">
<time>2021-08-22T11:12:29Z</time>
</trkpt>
<trkpt lat="50.077901" lon="13.431266">
<time>2021-08-22T11:12:30Z</time>
</trkpt>
<trkpt lat="50.07792" lon="13.431316">
<time>2021-08-22T11:12:31Z</time>
</trkpt>
<trkpt lat="50.077945" lon="13.431365">
<time>2021-08-22T11:12:32Z</time>
</trkpt>
<trkpt lat="50.077967" lon="13.431421">
<time>2021-08-22T11:12:33Z</time>
</trkpt>
<trkpt lat="50.077989" lon="13.431479">
<time>2021-08-22T11:12:34Z</time>
</trkpt>
<trkpt lat="50.078013" lon="13.431526">
<time>2021-08-22T11:12:35Z</time>
</trkpt>
<trkpt lat="50.078037" lon="13.431589">
<time>2021-08-22T11:12:36Z</time>
</trkpt>
<trkpt lat="50.078058" lon="13.431645">
<time>2021-08-22T11:12:37Z</time>
</trkpt>
<trkpt lat="50.078084" lon="13.431694">
<time>2021-08-22T11:12:38Z</time>
</trkpt>
<trkpt lat="50.078111" lon="13.431744">
<time>2021-08-22T11:12:39Z</time>
</trkpt>
<trkpt lat="50.078146" lon="13.431783">
<time>2021-08-22T11:12:40Z</time>
</trkpt>
<trkpt lat="50.078176" lon="13.431826">
<time>2021-08-22T11:12:41Z</time>
</trkpt>
<trkpt lat="50.078208" lon="13.431889">
<time>2021-08-22T11:12:42Z</time>
</trkpt>
<trkpt lat="50.078234" lon="13.431952">
<time>2021-08-22T11:12:43Z</time>
</trkpt>
<trkpt lat="50.078262" lon="13.432">
<time>2021-08-22T11:12:44Z</time>
</trkpt>
<trkpt lat="50.078287" lon="13.432046">
<time>2021-08-22T11:12:45Z</time>
</trkpt>
<trkpt lat="50.078312" lon="13.432094">
<time>2021-08-22T11:12:46Z</time>
</trkpt>
<trkpt lat="50.078334" lon="13.432143">
<time>2021-08-22T11:12:47Z</time>
</trkpt>
<trkpt lat="50.078368" lon="13.432189">
<time>2021-08-22T11:12:48Z</time>
</trkpt>
<trkpt lat="50.078394" lon="13.432229">
<time>2021-08-22T11:12:49Z</time>
</trkpt>
<trkpt lat="50.078423" lon="13.432275">
<time>2021-08-22T11:12:50Z</time>
</trkpt>
<trkpt lat="50.078451" lon="13.432325">
<time>2021-08-22T11:12:51Z</time>
</trkpt>
<trkpt lat="50.078475" lon="13.432373">
<time>2021-08-22T11:12:52Z</time>
</trkpt>
<trkpt lat="50.078499" lon="13.432426">
<time>2021-08-22T11:12:53Z</time>
</trkpt>
<trkpt lat="50.078511" lon="13.432484">
<time>2021-08-22T11:12:54Z</time>
</trkpt>
<trkpt lat="50.078522" lon="13.432545">
<time>2021-08-22T11:12:55Z</time>
</trkpt>
<trkpt lat="50.078526" lon="13.43262">
<time>2021-08-22T11:12:56Z</time>
</trkpt>
<trkpt lat="50.078524" lon="13.432698">
<time>2021-08-22T11:12:57Z</time>
</trkpt>
<trkpt lat="50.078533" lon="13.432765">
<time>2021-08-22T11:12:58Z</time>
</trkpt>
<trkpt lat="50.07855" lon="13.432818">
<time>2021-08-22T11:12:59Z</time>
</trkpt>
<trkpt lat="50.078562" lon="13.432861">
<time>2021-08-22T11:13:00Z</time>
</trkpt>
<trkpt lat="50.078576" lon="13.432889">
<time>2021-08-22T11:13:01Z</time>
</trkpt>
<trkpt lat="50.078586" lon="13.432912">
<time>2021-08-22T11:13:02Z</time>
</trkpt>
<trkpt lat="50.078598" lon="13.432942">
<time>2021-08-22T11:13:03Z</time>
</trkpt>
<trkpt lat="50.078604" lon="13.432985">
<time>2021-08-22T11:13:04Z</time>
</trkpt>
<trkpt lat="50.078596" lon="13.433046">
<time>2021-08-22T11:13:05Z</time>
</trkpt>
<trkpt lat="50.078596" lon="13.433085">
<time>2021-08-22T11:13:06Z</time>
</trkpt>
<trkpt lat="50.078594" lon="13.433146">
<time>2021-08-22T11:13:07Z</time>
</trkpt>
<trkpt lat="50.078593" lon="13.433213">
<time>2021-08-22T11:13:08Z</time>
</trkpt>
<trkpt lat="50.078601" lon="13.433273">
<time>2021-08-22T11:13:09Z</time>
</trkpt>
<trkpt lat="50.078593" lon="13.433352">
<time>2021-08-22T11:13:10Z</time>
</trkpt>
<trkpt lat="50.078591" lon="13.433423">
<time>2021-08-22T11:13:11Z</time>
</trkpt>
<trkpt lat="50.078594" lon="13.433483">
<time>2021-08-22T11:13:12Z</time>
</trkpt>
<trkpt lat="50.078601" lon="13.433547">
<time>2021-08-22T11:13:13Z</time>
</trkpt>
<trkpt lat="50.07861" lon="13.433604">
<time>2021-08-22T11:13:14Z</time>
</trkpt>
<trkpt lat="50.078622" lon="13.433649">
<time>2021-08-22T11:13:15Z</time>
</trkpt>
<trkpt lat="50.078626" lon="13.433693">
<time>2021-08-22T11:13:16Z</time>
</trkpt>
<trkpt lat="50.078625" lon="13.433737">
<time>2021-08-22T11:13:17Z</time>
</trkpt>
<trkpt lat="50.078616" lon="13.433798">
<time>2021-08-22T11:13:18Z</time>
</trkpt>
<trkpt lat="50.078621" lon="13.433836">
<time>2021-08-22T11:13:19Z</time>
</trkpt>
<trkpt lat="50.078605" lon="13.433908">
<time>2021-08-22T11:13:20Z</time>
</trkpt>
<trkpt lat="50.078598" lon="13.433981">
<time>2021-08-22T11:13:21Z</time>
</trkpt>
<trkpt lat="50.078592" lon="13.434059">
<time>2021-08-22T11:13:22Z</time>
</trkpt>
<trkpt lat="50.078586" lon="13.434127">
<time>2021-08-22T11:13:23Z</time>
</trkpt>
<trkpt lat="50.078587" lon="13.43422">
<time>2021-08-22T11:13:24Z</time>
</trkpt>
<trkpt lat="50.078586" lon="13.434307">
<time>2021-08-22T11:13:25Z</time>
</trkpt>
<trkpt lat="50.078586" lon="13.43439">
<time>2021-08-22T11:13:26Z</time>
</trkpt>
<trkpt lat="50.078594" lon="13.434472">
<time>2021-08-22T11:13:27Z</time>
</trkpt>
<trkpt lat="50.07859" lon="13.43457">
<time>2021-08-22T11:13:28Z</time>
</trkpt>
<trkpt lat="50.078593" lon="13.434656">
<time>2021-08-22T11:13:29Z</time>
</trkpt>
<trkpt lat="50.078588" lon="13.434754">
<time>2021-08-22T11:13:30Z</time>
</trkpt>
<trkpt lat="50.078573" lon="13.434867">
<time>2021-08-22T11:13:31Z</time>
</trkpt>
<trkpt lat="50.078575" lon="13.434942">
<time>2021-08-22T11:13:32Z</time>
</trkpt>
<trkpt lat="50.078585" lon="13.43501">
<time>2021-08-22T11:13:33Z</time>
</trkpt>
<trkpt lat="50.078588" lon="13.435076">
<time>2021-08-22T11:13:34Z</time>
</trkpt>
<trkpt lat="50.078576" lon="13.435165">
<time>2021-08-22T11:13:35Z</time>
</trkpt>
<trkpt lat="50.078565" lon="13.43526">
<time>2021-08-22T11:13:36Z</time>
</trkpt>
<trkpt lat="50.078552" lon="13.435363">
<time>2021-08-22T11:13:37Z</time>
</trkpt>
<trkpt lat="50.078541" lon="13.43546">
<time>2021-08-22T11:13:38Z</time>
</trkpt>
<trkpt lat="50.078536" lon="13.435548">
<time>2021-08-22T11:13:39Z</time>
</trkpt>
<trkpt lat="50.078527" lon="13.435666">
<time>2021-08-22T11:13:40Z</time>
</trkpt>
<trkpt lat="50.078532" lon="13.435759">
<time>2021-08-22T11:13:41Z</time>
</trkpt>
<trkpt lat="50.078531" lon="13.435844">
<time>2021-08-22T11:13:42Z</time>
</trkpt>
<trkpt lat="50.078526" lon="13.43594">
<time>2021-08-22T11:13:43Z</time>
</trkpt>
<trkpt lat="50.078521" lon="13.436045">
<time>2021-08-22T11:13:44Z</time>
</trkpt>
<trkpt lat="50.07852" lon="13.436159">
<time>2021-08-22T11:13:45Z</time>
</trkpt>
<trkpt lat="50.078531" lon="13.436251">
<time>2021-08-22T11:13:46Z</time>
</trkpt>
<trkpt lat="50.078543" lon="13.436341">
<time>2021-08-22T11:13:47Z</time>
</trkpt>
<trkpt lat="50.078561" lon="13.436432">
<time>2021-08-22T11:13:48Z</time>
</trkpt>
<trkpt lat="50.078582" lon="13.436512">
<time>2021-08-22T11:13:49Z</time>
</trkpt>
<trkpt lat="50.078594" lon="13.436595">
<time>2021-08-22T11:13:50Z</time>
</trkpt>
<trkpt lat="50.078614" lon="13.436675">
<time>2021-08-22T11:13:51Z</time>
</trkpt>
<trkpt lat="50.078638" lon="13.436752">
<time>2021-08-22T11:13:52Z</time>
</trkpt>
<trkpt lat="50.07867" lon="13.436823">
<time>2021-08-22T11:13:53Z</time>
</trkpt>
<trkpt lat="50.078694" lon="13.436906">
<time>2021-08-22T11:13:54Z</time>
</trkpt>
<trkpt lat="50.078717" lon="13.436979">
<time>2021-08-22T11:13:55Z</time>
</trkpt>
<trkpt lat="50.078744" lon="13.437044">
<time>2021-08-22T11:13:56Z</time>
</trkpt>
<trkpt lat="50.078778" lon="13.437075">
<time>2021-08-22T11:13:57Z</time>
</trkpt>
<trkpt lat="50.078812" lon="13.437074">
<time>2021-08-22T11:13:58Z</time>
</trkpt>
<trkpt lat="50.078841" lon="13.437052">
<time>2021-08-22T11:13:59Z</time>
</trkpt>
<trkpt lat="50.078866" lon="13.437023">
<time>2021-08-22T11:14:00Z</time>
</trkpt>
<trkpt lat="50.0789" lon="13.436996">
<time>2021-08-22T11:14:01Z</time>
</trkpt>
<trkpt lat="50.078931" lon="13.43697">
<time>2021-08-22T11:14:02Z</time>
</trkpt>
<trkpt lat="50.078967" lon="13.436946">
<time>2021-08-22T11:14:03Z</time>
</trkpt>
<trkpt lat="50.079002" lon="13.436926">
<time>2021-08-22T11:14:04Z</time>
</trkpt>
<trkpt lat="50.07904" lon="13.436907">
<time>2021-08-22T11:14:05Z</time>
</trkpt>
<trkpt lat="50.079082" lon="13.436888">
<time>2021-08-22T11:14:06Z</time>
</trkpt>
<trkpt lat="50.079131" lon="13.436869">
<time>2021-08-22T11:14:07Z</time>
</trkpt>
<trkpt lat="50.07917" lon="13.436846">
<time>2021-08-22T11:14:08Z</time>
</trkpt>
<trkpt lat="50.079205" lon="13.436822">
<time>2021-08-22T11:14:09Z</time>
</trkpt>
<trkpt lat="50.079234" lon="13.436795">
<time>2021-08-22T11:14:10Z</time>
</trkpt>
<trkpt lat="50.079273" lon="13.436752">
<time>2021-08-22T11:14:11Z</time>
</trkpt>
<trkpt lat="50.079308" lon="13.436709">
<time>2021-08-22T11:14:12Z</time>
</trkpt>
<trkpt lat="50.079344" lon="13.436666">
<time>2021-08-22T11:14:13Z</time>
</trkpt>
<trkpt lat="50.079386" lon="13.436625">
<time>2021-08-22T11:14:14Z</time>
</trkpt>
<trkpt lat="50.079423" lon="13.436589">
<time>2021-08-22T11:14:15Z</time>
</trkpt>
<trkpt lat="50.079463" lon="13.436559">
<time>2021-08-22T11:14:16Z</time>
</trkpt>
<trkpt lat="50.079495" lon="13.43654">
<time>2021-08-22T11:14:17Z</time>
</trkpt>
<trkpt lat="50.079528" lon="13.436504">
<time>2021-08-22T11:14:18Z</time>
</trkpt>
<trkpt lat="50.079557" lon="13.436456">
<time>2021-08-22T11:14:19Z</time>
</trkpt>
<trkpt lat="50.079588" lon="13.436398">
<time>2021-08-22T11:14:20Z</time>
</trkpt>
<trkpt lat="50.079619" lon="13.436329">
<time>2021-08-22T11:14:21Z</time>
</trkpt>
<trkpt lat="50.079641" lon="13.436261">
<time>2021-08-22T11:14:22Z</time>
</trkpt>
<trkpt lat="50.07966" lon="13.436202">
<time>2021-08-22T11:14:23Z</time>
</trkpt>
<trkpt lat="50.079683" lon="13.436147">
<time>2021-08-22T11:14:24Z</time>
</trkpt>
<trkpt lat="50.079715" lon="13.436093">
<time>2021-08-22T11:14:25Z</time>
</trkpt>
<trkpt lat="50.079744" lon="13.436046">
<time>2021-08-22T11:14:26Z</time>
</trkpt>
<trkpt lat="50.07977" lon="13.436007">
<time>2021-08-22T11:14:27Z</time>
</trkpt>
<trkpt lat="50.079803" lon="13.435979">
<time>2021-08-22T11:14:28Z</time>
</trkpt>
<trkpt lat="50.07984" lon="13.435952">
<time>2021-08-22T11:14:29Z</time>
</trkpt>
<trkpt lat="50.079875" lon="13.435924">
<time>2021-08-22T11:14:30Z</time>
</trkpt>
<trkpt lat="50.079906" lon="13.435897">
<time>2021-08-22T11:14:31Z</time>
</trkpt>
<trkpt lat="50.079946" lon="13.435873">
<time>2021-08-22T11:14:32Z</time>
</trkpt>
<trkpt lat="50.079984" lon="13.435844">
<time>2021-08-22T11:14:33Z</time>
</trkpt>
<trkpt lat="50.080013" lon="13.435818">
<time>2021-08-22T11:14:34Z</time>
</trkpt>
<trkpt lat="50.080059" lon="13.435774">
<time>2021-08-22T11:14:35Z</time>
</trkpt>
<trkpt lat="50.080105" lon="13.435743">
<time>2021-08-22T11:14:36Z</time>
</trkpt>
<trkpt lat="50.080151" lon="13.435722">
<time>2021-08-22T11:14:37Z</time>
</trkpt>
<trkpt lat="50.080193" lon="13.435702">
<time>2021-08-22T11:14:38Z</time>
</trkpt>
<trkpt lat="50.080218" lon="13.435678">
<time>2021-08-22T11:14:39Z</time>
</trkpt>
<trkpt lat="50.080228" lon="13.435637">
<time>2021-08-22T11:14:40Z</time>
</trkpt>
<trkpt lat="50.080228" lon="13.435587">
<time>2021-08-22T11:14:41Z</time>
</trkpt>
<trkpt lat="50.08025" lon="13.435561">
<time>2021-08-22T11:14:42Z</time>
</trkpt>
<trkpt lat="50.080252" lon="13.435554">
<time>2021-08-22T11:14:43Z</time>
</trkpt>
<trkpt lat="50.080258" lon="13.435562">
<time>2021-08-22T11:14:44Z</time>
</trkpt>
<trkpt lat="50.080272" lon="13.435579">
<time>2021-08-22T11:14:45Z</time>
</trkpt>
<trkpt lat="50.080277" lon="13.435594">
<time>2021-08-22T11:14:46Z</time>
</trkpt>
<trkpt lat="50.080281" lon="13.435608">
<time>2021-08-22T11:14:47Z</time>
</trkpt>
<trkpt lat="50.080282" lon="13.435614">
<time>2021-08-22T11:14:48Z</time>
</trkpt>
<trkpt lat="50.080279" lon="13.435619">
<time>2021-08-22T11:14:49Z</time>
</trkpt>
<trkpt lat="50.080263" lon="13.435629">
<time>2021-08-22T11:14:50Z</time>
</trkpt>
<trkpt lat="50.080237" lon="13.435657">
<time>2021-08-22T11:14:51Z</time>
</trkpt>
<trkpt lat="50.080213" lon="13.435687">
<time>2021-08-22T11:14:52Z</time>
</trkpt>
<trkpt lat="50.08019" lon="13.435714">
<time>2021-08-22T11:14:53Z</time>
</trkpt>
<trkpt lat="50.080171" lon="13.435743">
<time>2021-08-22T11:14:54Z</time>
</trkpt>
<trkpt lat="50.080144" lon="13.435764">
<time>2021-08-22T11:14:55Z</time>
</trkpt>
<trkpt lat="50.080122" lon="13.43577">
<time>2021-08-22T11:14:56Z</time>
</trkpt>
<trkpt lat="50.080089" lon="13.435782">
<time>2021-08-22T11:14:57Z</time>
</trkpt>
<trkpt lat="50.080049" lon="13.435792">
<time>2021-08-22T11:14:58Z</time>
</trkpt>
<trkpt lat="50.080005" lon="13.435817">
<time>2021-08-22T11:14:59Z</time>
</trkpt>
<trkpt lat="50.079967" lon="13.435848">
<time>2021-08-22T11:15:00Z</time>
</trkpt>
<trkpt lat="50.079939" lon="13.435892">
<time>2021-08-22T11:15:01Z</time>
</trkpt>
<trkpt lat="50.079911" lon="13.435946">
<time>2021-08-22T11:15:02Z</time>
</trkpt>
<trkpt lat="50.079879" lon="13.436022">
<time>2021-08-22T11:15:03Z</time>
</trkpt>
<trkpt lat="50.079844" lon="13.4361">
<time>2021-08-22T11:15:04Z</time>
</trkpt>
<trkpt lat="50.079811" lon="13.436168">
<time>2021-08-22T11:15:05Z</time>
</trkpt>
<trkpt lat="50.079781" lon="13.436216">
<time>2021-08-22T11:15:06Z</time>
</trkpt>
<trkpt lat="50.079746" lon="13.436269">
<time>2021-08-22T11:15:07Z</time>
</trkpt>
<trkpt lat="50.079715" lon="13.436298">
<time>2021-08-22T11:15:08Z</time>
</trkpt>
<trkpt lat="50.079674" lon="13.436339">
<time>2021-08-22T11:15:09Z</time>
</trkpt>
<trkpt lat="50.079629" lon="13.43637">
<time>2021-08-22T11:15:10Z</time>
</trkpt>
<trkpt lat="50.079583" lon="13.436415">
<time>2021-08-22T11:15:11Z</time>
</trkpt>
<trkpt lat="50.079537" lon="13.436475">
<time>2021-08-22T11:15:12Z</time>
</trkpt>
<trkpt lat="50.07949" lon="13.436534">
<time>2021-08-22T11:15:13Z</time>
</trkpt>
<trkpt lat="50.079449" lon="13.436587">
<time>2021-08-22T11:15:14Z</time>
</trkpt>
<trkpt lat="50.079402" lon="13.43664">
<time>2021-08-22T11:15:15Z</time>
</trkpt>
<trkpt lat="50.079343" lon="13.436686">
<time>2021-08-22T11:15:16Z</time>
</trkpt>
<trkpt lat="50.079284" lon="13.436719">
<time>2021-08-22T11:15:17Z</time>
</trkpt>
<trkpt lat="50.079216" lon="13.436763">
<time>2021-08-22T11:15:18Z</time>
</trkpt>
<trkpt lat="50.079141" lon="13.436813">
<time>2021-08-22T11:15:19Z</time>
</trkpt>
<trkpt lat="50.079065" lon="13.436877">
<time>2021-08-22T11:15:20Z</time>
</trkpt>
<trkpt lat="50.079003" lon="13.436913">
<time>2021-08-22T11:15:21Z</time>
</trkpt>
<trkpt lat="50.078949" lon="13.436962">
<time>2021-08-22T11:15:22Z</time>
</trkpt>
<trkpt lat="50.078901" lon="13.437011">
<time>2021-08-22T11:15:23Z</time>
</trkpt>
<trkpt lat="50.078861" lon="13.437087">
<time>2021-08-22T11:15:24Z</time>
</trkpt>
<trkpt lat="50.078844" lon="13.437173">
<time>2021-08-22T11:15:25Z</time>
</trkpt>
<trkpt lat="50.078858" lon="13.43724">
<time>2021-08-22T11:15:26Z</time>
</trkpt>
<trkpt lat="50.078888" lon="13.437291">
<time>2021-08-22T11:15:27Z</time>
</trkpt>
<trkpt lat="50.078941" lon="13.437337">
<time>2021-08-22T11:15:28Z</time>
</trkpt>
<trkpt lat="50.078996" lon="13.437377">
<time>2021-08-22T11:15:29Z</time>
</trkpt>
<trkpt lat="50.079049" lon="13.437411">
<time>2021-08-22T11:15:30Z</time>
</trkpt>
<trkpt lat="50.07909" lon="13.437444">
<time>2021-08-22T11:15:31Z</time>
</trkpt>
<trkpt lat="50.079135" lon="13.437469">
<time>2021-08-22T11:15:32Z</time>
</trkpt>
<trkpt lat="50.079183" lon="13.437506">
<time>2021-08-22T11:15:33Z</time>
</trkpt>
<trkpt lat="50.079222" lon="13.437556">
<time>2021-08-22T11:15:34Z</time>
</trkpt>
<trkpt lat="50.079248" lon="13.437627">
<time>2021-08-22T11:15:35Z</time>
</trkpt>
<trkpt lat="50.079272" lon="13.437714">
<time>2021-08-22T11:15:36Z</time>
</trkpt>
<trkpt lat="50.079289" lon="13.437809">
<time>2021-08-22T11:15:37Z</time>
</trkpt>
<trkpt lat="50.079304" lon="13.437907">
<time>2021-08-22T11:15:38Z</time>
</trkpt>
<trkpt lat="50.079327" lon="13.438004">
<time>2021-08-22T11:15:39Z</time>
</trkpt>
<trkpt lat="50.079357" lon="13.438092">
<time>2021-08-22T11:15:40Z</time>
</trkpt>
<trkpt lat="50.079383" lon="13.4382">
<time>2021-08-22T11:15:41Z</time>
</trkpt>
<trkpt lat="50.079415" lon="13.438296">
<time>2021-08-22T11:15:42Z</time>
</trkpt>
<trkpt lat="50.07945" lon="13.438409">
<time>2021-08-22T11:15:43Z</time>
</trkpt>
<trkpt lat="50.079488" lon="13.43853">
<time>2021-08-22T11:15:44Z</time>
</trkpt>
<trkpt lat="50.079517" lon="13.438653">
<time>2021-08-22T11:15:45Z</time>
</trkpt>
<trkpt lat="50.079545" lon="13.438787">
<time>2021-08-22T11:15:46Z</time>
</trkpt>
<trkpt lat="50.079575" lon="13.438916">
<time>2021-08-22T11:15:47Z</time>
</trkpt>
<trkpt lat="50.079596" lon="13.43906">
<time>2021-08-22T11:15:48Z</time>
</trkpt>
<trkpt lat="50.07962" lon="13.439196">
<time>2021-08-22T11:15:49Z</time>
</trkpt>
<trkpt lat="50.079643" lon="13.439326">
<time>2021-08-22T11:15:50Z</time>
</trkpt>
<trkpt lat="50.079647" lon="13.439513">
<time>2021-08-22T11:15:51Z</time>
</trkpt>
<trkpt lat="50.079677" lon="13.439654">
<time>2021-08-22T11:15:52Z</time>
</trkpt>
<trkpt lat="50.079706" lon="13.439808">
<time>2021-08-22T11:15:53Z</time>
</trkpt>
<trkpt lat="50.079745" lon="13.439965">
<time>2021-08-22T11:15:54Z</time>
</trkpt>
<trkpt lat="50.079802" lon="13.440091">
<time>2021-08-22T11:15:55Z</time>
</trkpt>
<trkpt lat="50.079862" lon="13.440195">
<time>2021-08-22T11:15:56Z</time>
</trkpt>
<trkpt lat="50.079934" lon="13.440265">
<time>2021-08-22T11:15:57Z</time>
</trkpt>
<trkpt lat="50.080014" lon="13.440284">
<time>2021-08-22T11:15:58Z</time>
</trkpt>
<trkpt lat="50.080102" lon="13.440272">
<time>2021-08-22T11:15:59Z</time>
</trkpt>
<trkpt lat="50.080191" lon="13.440257">
<time>2021-08-22T11:16:00Z</time>
</trkpt>
<trkpt lat="50.080269" lon="13.440262">
<time>2021-08-22T11:16:01Z</time>
</trkpt>
<trkpt lat="50.080357" lon="13.440261">
<time>2021-08-22T11:16:02Z</time>
</trkpt>
<trkpt lat="50.080455" lon="13.440257">
<time>2021-08-22T11:16:03Z</time>
</trkpt>
<trkpt lat="50.080546" lon="13.440253">
<time>2021-08-22T11:16:04Z</time>
</trkpt>
<trkpt lat="50.08064" lon="13.440238">
<time>2021-08-22T11:16:05Z</time>
</trkpt>
<trkpt lat="50.080738" lon="13.440225">
<time>2021-08-22T11:16:06Z</time>
</trkpt>
<trkpt lat="50.080839" lon="13.44022">
<time>2021-08-22T11:16:07Z</time>
</trkpt>
<trkpt lat="50.080943" lon="13.440204">
<time>2021-08-22T11:16:08Z</time>
</trkpt>
<trkpt lat="50.081047" lon="13.440193">
<time>2021-08-22T11:16:09Z</time>
</trkpt>
<trkpt lat="50.081151" lon="13.440174">
<time>2021-08-22T11:16:10Z</time>
</trkpt>
<trkpt lat="50.081256" lon="13.440155">
<time>2021-08-22T11:16:11Z</time>
</trkpt>
<trkpt lat="50.081357" lon="13.440133">
<time>2021-08-22T11:16:12Z</time>
</trkpt>
<trkpt lat="50.081452" lon="13.440111">
<time>2021-08-22T11:16:13Z</time>
</trkpt>
<trkpt lat="50.081539" lon="13.440098">
<time>2021-08-22T11:16:14Z</time>
</trkpt>
<trkpt lat="50.081621" lon="13.440081">
<time>2021-08-22T11:16:15Z</time>
</trkpt>
<trkpt lat="50.081697" lon="13.44006">
<time>2021-08-22T11:16:16Z</time>
</trkpt>
<trkpt lat="50.081779" lon="13.44004">
<time>2021-08-22T11:16:17Z</time>
</trkpt>
<trkpt lat="50.081864" lon="13.440025">
<time>2021-08-22T11:16:18Z</time>
</trkpt>
<trkpt lat="50.081962" lon="13.440002">
<time>2021-08-22T11:16:19Z</time>
</trkpt>
<trkpt lat="50.082037" lon="13.439976">
<time>2021-08-22T11:16:20Z</time>
</trkpt>
<trkpt lat="50.082106" lon="13.439953">
<time>2021-08-22T11:16:21Z</time>
</trkpt>
<trkpt lat="50.082155" lon="13.439945">
<time>2021-08-22T11:16:22Z</time>
</trkpt>
<trkpt lat="50.082207" lon="13.439922">
<time>2021-08-22T11:16:23Z</time>
</trkpt>
<trkpt lat="50.082244" lon="13.439908">
<time>2021-08-22T11:16:24Z</time>
</trkpt>
<trkpt lat="50.082277" lon="13.439899">
<time>2021-08-22T11:16:25Z</time>
</trkpt>
<trkpt lat="50.082317" lon="13.439906">
<time>2021-08-22T11:16:26Z</time>
</trkpt>
<trkpt lat="50.08235" lon="13.43992">
<time>2021-08-22T11:16:27Z</time>
</trkpt>
<trkpt lat="50.082374" lon="13.439954">
<time>2021-08-22T11:16:28Z</time>
</trkpt>
<trkpt lat="50.082395" lon="13.440021">
<time>2021-08-22T11:16:29Z</time>
</trkpt>
<trkpt lat="50.082406" lon="13.440106">
<time>2021-08-22T11:16:30Z</time>
</trkpt>
<trkpt lat="50.082405" lon="13.440205">
<time>2021-08-22T11:16:31Z</time>
</trkpt>
<trkpt lat="50.082415" lon="13.440292">
<time>2021-08-22T11:16:32Z</time>
</trkpt>
<trkpt lat="50.08241" lon="13.440383">
<time>2021-08-22T11:16:33Z</time>
</trkpt>
<trkpt lat="50.082404" lon="13.440465">
<time>2021-08-22T11:16:34Z</time>
</trkpt>
<trkpt lat="50.082387" lon="13.440569">
<time>2021-08-22T11:16:35Z</time>
</trkpt>
<trkpt lat="50.082374" lon="13.440653">
<time>2021-08-22T11:16:36Z</time>
</trkpt>
<trkpt lat="50.082374" lon="13.44068">
<time>2021-08-22T11:16:37Z</time>
</trkpt>
<trkpt lat="50.082355" lon="13.440716">
<time>2021-08-22T11:16:38Z</time>
</trkpt>
<trkpt lat="50.082331" lon="13.440766">
<time>2021-08-22T11:16:39Z</time>
</trkpt>
<trkpt lat="50.082308" lon="13.440839">
<time>2021-08-22T11:16:40Z</time>
</trkpt>
<trkpt lat="50.082291" lon="13.440919">
<time>2021-08-22T11:16:41Z</time>
</trkpt>
<trkpt lat="50.082286" lon="13.440988">
<time>2021-08-22T11:16:42Z</time>
</trkpt>
<trkpt lat="50.082286" lon="13.44104">
<time>2021-08-22T11:16:43Z</time>
</trkpt>
<trkpt lat="50.082289" lon="13.441078">
<time>2021-08-22T11:16:44Z</time>
</trkpt>
<trkpt lat="50.082293" lon="13.44111">
<time>2021-08-22T11:16:45Z</time>
</trkpt>
<trkpt lat="50.082295" lon="13.441127">
<time>2021-08-22T11:16:46Z</time>
</trkpt>
<trkpt lat="50.082297" lon="13.441131">
<time>2021-08-22T11:16:47Z</time>
</trkpt>
<trkpt lat="50.082327" lon="13.441114">
<time>2021-08-22T11:16:48Z</time>
</trkpt>
<trkpt lat="50.082345" lon="13.441121">
<time>2021-08-22T11:16:49Z</time>
</trkpt>
<trkpt lat="50.082355" lon="13.44114">
<time>2021-08-22T11:16:50Z</time>
</trkpt>
<trkpt lat="50.082358" lon="13.44116">
<time>2021-08-22T11:16:51Z</time>
</trkpt>
<trkpt lat="50.082339" lon="13.441197">
<time>2021-08-22T11:16:52Z</time>
</trkpt>
<trkpt lat="50.082325" lon="13.441223">
<time>2021-08-22T11:16:53Z</time>
</trkpt>
<trkpt lat="50.082319" lon="13.441242">
<time>2021-08-22T11:16:54Z</time>
</trkpt>
<trkpt lat="50.082309" lon="13.441271">
<time>2021-08-22T11:16:55Z</time>
</trkpt>
<trkpt lat="50.082284" lon="13.441308">
<time>2021-08-22T11:16:56Z</time>
</trkpt>
<trkpt lat="50.082258" lon="13.441342">
<time>2021-08-22T11:16:57Z</time>
</trkpt>
<trkpt lat="50.082238" lon="13.441379">
<time>2021-08-22T11:16:58Z</time>
</trkpt>
<trkpt lat="50.082221" lon="13.44141">
<time>2021-08-22T11:16:59Z</time>
</trkpt>
<trkpt lat="50.082205" lon="13.441458">
<time>2021-08-22T11:17:00Z</time>
</trkpt>
<trkpt lat="50.08219" lon="13.441496">
<time>2021-08-22T11:17:01Z</time>
</trkpt>
<trkpt lat="50.082175" lon="13.441537">
<time>2021-08-22T11:17:02Z</time>
</trkpt>
<trkpt lat="50.082168" lon="13.441567">
<time>2021-08-22T11:17:03Z</time>
</trkpt>
<trkpt lat="50.082167" lon="13.441591">
<time>2021-08-22T11:17:04Z</time>
</trkpt>
<trkpt lat="50.082176" lon="13.44163">
<time>2021-08-22T11:17:05Z</time>
</trkpt>
<trkpt lat="50.082188" lon="13.441658">
<time>2021-08-22T11:17:06Z</time>
</trkpt>
<trkpt lat="50.082189" lon="13.441698">
<time>2021-08-22T11:17:07Z</time>
</trkpt>
<trkpt lat="50.082207" lon="13.441724">
<time>2021-08-22T11:17:08Z</time>
</trkpt>
<trkpt lat="50.082226" lon="13.441745">
<time>2021-08-22T11:17:09Z</time>
</trkpt>
<trkpt lat="50.082237" lon="13.441775">
<time>2021-08-22T11:17:10Z</time>
</trkpt>
<trkpt lat="50.082253" lon="13.441801">
<time>2021-08-22T11:17:11Z</time>
</trkpt>
<trkpt lat="50.082258" lon="13.441832">
<time>2021-08-22T11:17:12Z</time>
</trkpt>
<trkpt lat="50.082268" lon="13.441853">
<time>2021-08-22T11:17:13Z</time>
</trkpt>
<trkpt lat="50.082259" lon="13.441886">
<time>2021-08-22T11:17:14Z</time>
</trkpt>
<trkpt lat="50.082259" lon="13.441916">
<time>2021-08-22T11:17:15Z</time>
</trkpt>
<trkpt lat="50.082265" lon="13.441955">
<time>2021-08-22T11:17:16Z</time>
</trkpt>
<trkpt lat="50.082271" lon="13.441992">
<time>2021-08-22T11:17:17Z</time>
</trkpt>
<trkpt lat="50.082276" lon="13.442027">
<time>2021-08-22T11:17:18Z</time>
</trkpt>
<trkpt lat="50.082278" lon="13.442061">
<time>2021-08-22T11:17:19Z</time>
</trkpt>
<trkpt lat="50.082276" lon="13.442107">
<time>2021-08-22T11:17:20Z</time>
</trkpt>
<trkpt lat="50.082266" lon="13.442161">
<time>2021-08-22T11:17:21Z</time>
</trkpt>
<trkpt lat="50.08227" lon="13.442193">
<time>2021-08-22T11:17:22Z</time>
</trkpt>
<trkpt lat="50.082264" lon="13.442229">
<time>2021-08-22T11:17:23Z</time>
</trkpt>
<trkpt lat="50.082262" lon="13.442247">
<time>2021-08-22T11:17:24Z</time>
</trkpt>
<trkpt lat="50.082255" lon="13.442271">
<time>2021-08-22T11:17:25Z</time>
</trkpt>
<trkpt lat="50.082254" lon="13.442316">
<time>2021-08-22T11:17:26Z</time>
</trkpt>
<trkpt lat="50.082246" lon="13.442386">
<time>2021-08-22T11:17:27Z</time>
</trkpt>
<trkpt lat="50.082245" lon="13.442447">
<time>2021-08-22T11:17:28Z</time>
</trkpt>
<trkpt lat="50.082232" lon="13.442515">
<time>2021-08-22T11:17:29Z</time>
</trkpt>
<trkpt lat="50.08222" lon="13.442578">
<time>2021-08-22T11:17:30Z</time>
</trkpt>
<trkpt lat="50.082211" lon="13.442629">
<time>2021-08-22T11:17:31Z</time>
</trkpt>
<trkpt lat="50.082205" lon="13.442678">
<time>2021-08-22T11:17:32Z</time>
</trkpt>
<trkpt lat="50.082203" lon="13.442723">
<time>2021-08-22T11:17:33Z</time>
</trkpt>
<trkpt lat="50.082204" lon="13.442761">
<time>2021-08-22T11:17:34Z</time>
</trkpt>
<trkpt lat="50.082207" lon="13.442795">
<time>2021-08-22T11:17:35Z</time>
</trkpt>
<trkpt lat="50.082193" lon="13.442838">
<time>2021-08-22T11:17:36Z</time>
</trkpt>
<trkpt lat="50.08218" lon="13.442875">
<time>2021-08-22T11:17:37Z</time>
</trkpt>
<trkpt lat="50.082156" lon="13.442911">
<time>2021-08-22T11:17:38Z</time>
</trkpt>
<trkpt lat="50.082133" lon="13.442935">
<time>2021-08-22T11:17:39Z</time>
</trkpt>
<trkpt lat="50.082116" lon="13.442955">
<time>2021-08-22T11:17:40Z</time>
</trkpt>
<trkpt lat="50.082102" lon="13.442995">
<time>2021-08-22T11:17:41Z</time>
</trkpt>
<trkpt lat="50.082086" lon="13.443036">
<time>2021-08-22T11:17:42Z</time>
</trkpt>
<trkpt lat="50.082066" lon="13.443063">
<time>2021-08-22T11:17:43Z</time>
</trkpt>
<trkpt lat="50.082039" lon="13.443086">
<time>2021-08-22T11:17:44Z</time>
</trkpt>
<trkpt lat="50.082008" lon="13.443111">
<time>2021-08-22T11:17:45Z</time>
</trkpt>
<trkpt lat="50.081987" lon="13.443134">
<time>2021-08-22T11:17:46Z</time>
</trkpt>
<trkpt lat="50.081975" lon="13.443174">
<time>2021-08-22T11:17:47Z</time>
</trkpt>
<trkpt lat="50.081957" lon="13.443211">
<time>2021-08-22T11:17:48Z</time>
</trkpt>
<trkpt lat="50.081941" lon="13.443254">
<time>2021-08-22T11:17:49Z</time>
</trkpt>
<trkpt lat="50.081923" lon="13.443291">
<time>2021-08-22T11:17:50Z</time>
</trkpt>
<trkpt lat="50.081908" lon="13.443318">
<time>2021-08-22T11:17:51Z</time>
</trkpt>
<trkpt lat="50.081889" lon="13.443334">
<time>2021-08-22T11:17:52Z</time>
</trkpt>
<trkpt lat="50.081876" lon="13.443371">
<time>2021-08-22T11:17:53Z</time>
</trkpt>
<trkpt lat="50.081864" lon="13.4434">
<time>2021-08-22T11:17:54Z</time>
</trkpt>
<trkpt lat="50.081853" lon="13.443438">
<time>2021-08-22T11:17:55Z</time>
</trkpt>
<trkpt lat="50.081841" lon="13.443468">
<time>2021-08-22T11:17:56Z</time>
</trkpt>
<trkpt lat="50.081827" lon="13.443512">
<time>2021-08-22T11:17:57Z</time>
</trkpt>
<trkpt lat="50.081806" lon="13.443545">
<time>2021-08-22T11:17:58Z</time>
</trkpt>
<trkpt lat="50.081782" lon="13.443582">
<time>2021-08-22T11:17:59Z</time>
</trkpt>
<trkpt lat="50.081774" lon="13.443611">
<time>2021-08-22T11:18:00Z</time>
</trkpt>
<trkpt lat="50.081759" lon="13.443651">
<time>2021-08-22T11:18:01Z</time>
</trkpt>
<trkpt lat="50.081747" lon="13.443715">
<time>2021-08-22T11:18:02Z</time>
</trkpt>
<trkpt lat="50.081737" lon="13.44376">
<time>2021-08-22T11:18:03Z</time>
</trkpt>
<trkpt lat="50.081719" lon="13.443833">
<time>2021-08-22T11:18:04Z</time>
</trkpt>
<trkpt lat="50.081706" lon="13.443877">
<time>2021-08-22T11:18:05Z</time>
</trkpt>
<trkpt lat="50.08169" lon="13.443933">
<time>2021-08-22T11:18:06Z</time>
</trkpt>
<trkpt lat="50.081676" lon="13.444017">
<time>2021-08-22T11:18:07Z</time>
</trkpt>
<trkpt lat="50.081661" lon="13.444073">
<time>2021-08-22T11:18:08Z</time>
</trkpt>
<trkpt lat="50.081643" lon="13.444131">
<time>2021-08-22T11:18:09Z</time>
</trkpt>
<trkpt lat="50.081626" lon="13.444199">
<time>2021-08-22T11:18:10Z</time>
</trkpt>
<trkpt lat="50.081608" lon="13.444271">
<time>2021-08-22T11:18:11Z</time>
</trkpt>
<trkpt lat="50.081605" lon="13.44438">
<time>2021-08-22T11:18:12Z</time>
</trkpt>
<trkpt lat="50.081606" lon="13.444496">
<time>2021-08-22T11:18:13Z</time>
</trkpt>
<trkpt lat="50.081618" lon="13.444581">
<time>2021-08-22T11:18:14Z</time>
</trkpt>
<trkpt lat="50.081639" lon="13.444651">
<time>2021-08-22T11:18:15Z</time>
</trkpt>
<trkpt lat="50.081676" lon="13.444699">
<time>2021-08-22T11:18:16Z</time>
</trkpt>
<trkpt lat="50.081709" lon="13.444738">
<time>2021-08-22T11:18:17Z</time>
</trkpt>
<trkpt lat="50.081755" lon="13.444754">
<time>2021-08-22T11:18:18Z</time>
</trkpt>
<trkpt lat="50.081807" lon="13.444779">
<time>2021-08-22T11:18:19Z</time>
</trkpt>
<trkpt lat="50.081852" lon="13.444815">
<time>2021-08-22T11:18:20Z</time>
</trkpt>
<trkpt lat="50.081896" lon="13.444846">
<time>2021-08-22T11:18:21Z</time>
</trkpt>
<trkpt lat="50.081932" lon="13.444885">
<time>2021-08-22T11:18:22Z</time>
</trkpt>
<trkpt lat="50.081976" lon="13.444918">
<time>2021-08-22T11:18:23Z</time>
</trkpt>
<trkpt lat="50.082027" lon="13.444954">
<time>2021-08-22T11:18:24Z</time>
</trkpt>
<trkpt lat="50.082074" lon="13.444986">
<time>2021-08-22T11:18:25Z</time>
</trkpt>
<trkpt lat="50.08215" lon="13.445011">
<time>2021-08-22T11:18:26Z</time>
</trkpt>
<trkpt lat="50.082199" lon="13.445054">
<time>2021-08-22T11:18:27Z</time>
</trkpt>
<trkpt lat="50.08225" lon="13.445079">
<time>2021-08-22T11:18:28Z</time>
</trkpt>
<trkpt lat="50.082296" lon="13.445118">
<time>2021-08-22T11:18:29Z</time>
</trkpt>
<trkpt lat="50.082344" lon="13.445181">
<time>2021-08-22T11:18:30Z</time>
</trkpt>
<trkpt lat="50.08239" lon="13.445254">
<time>2021-08-22T11:18:31Z</time>
</trkpt>
<trkpt lat="50.082431" lon="13.445332">
<time>2021-08-22T11:18:32Z</time>
</trkpt>
<trkpt lat="50.082477" lon="13.445422">
<time>2021-08-22T11:18:33Z</time>
</trkpt>
<trkpt lat="50.082522" lon="13.445506">
<time>2021-08-22T11:18:34Z</time>
</trkpt>
<trkpt lat="50.082576" lon="13.445596">
<time>2021-08-22T11:18:35Z</time>
</trkpt>
<trkpt lat="50.082636" lon="13.445691">
<time>2021-08-22T11:18:36Z</time>
</trkpt>
<trkpt lat="50.082691" lon="13.445779">
<time>2021-08-22T11:18:37Z</time>
</trkpt>
<trkpt lat="50.082749" lon="13.445878">
<time>2021-08-22T11:18:38Z</time>
</trkpt>
<trkpt lat="50.0828" lon="13.445974">
<time>2021-08-22T11:18:39Z</time>
</trkpt>
<trkpt lat="50.08285" lon="13.446067">
<time>2021-08-22T11:18:40Z</time>
</trkpt>
<trkpt lat="50.0829" lon="13.446171">
<time>2021-08-22T11:18:41Z</time>
</trkpt>
<trkpt lat="50.08295" lon="13.446268">
<time>2021-08-22T11:18:42Z</time>
</trkpt>
<trkpt lat="50.082998" lon="13.446374">
<time>2021-08-22T11:18:43Z</time>
</trkpt>
<trkpt lat="50.083046" lon="13.446482">
<time>2021-08-22T11:18:44Z</time>
</trkpt>
<trkpt lat="50.083093" lon="13.446597">
<time>2021-08-22T11:18:45Z</time>
</trkpt>
<trkpt lat="50.083146" lon="13.446713">
<time>2021-08-22T11:18:46Z</time>
</trkpt>
<trkpt lat="50.083186" lon="13.446832">
<time>2021-08-22T11:18:47Z</time>
</trkpt>
<trkpt lat="50.083218" lon="13.44696">
<time>2021-08-22T11:18:48Z</time>
</trkpt>
<trkpt lat="50.083253" lon="13.44706">
<time>2021-08-22T11:18:49Z</time>
</trkpt>
<trkpt lat="50.083263" lon="13.447148">
<time>2021-08-22T11:18:50Z</time>
</trkpt>
<trkpt lat="50.083253" lon="13.447219">
<time>2021-08-22T11:18:51Z</time>
</trkpt>
<trkpt lat="50.083235" lon="13.447285">
<time>2021-08-22T11:18:52Z</time>
</trkpt>
<trkpt lat="50.083209" lon="13.447354">
<time>2021-08-22T11:18:53Z</time>
</trkpt>
<trkpt lat="50.083171" lon="13.447429">
<time>2021-08-22T11:18:54Z</time>
</trkpt>
<trkpt lat="50.083126" lon="13.447499">
<time>2021-08-22T11:18:55Z</time>
</trkpt>
<trkpt lat="50.083079" lon="13.447554">
<time>2021-08-22T11:18:56Z</time>
</trkpt>
<trkpt lat="50.083023" lon="13.447611">
<time>2021-08-22T11:18:57Z</time>
</trkpt>
<trkpt lat="50.082975" lon="13.44767">
<time>2021-08-22T11:18:58Z</time>
</trkpt>
<trkpt lat="50.082912" lon="13.447728">
<time>2021-08-22T11:18:59Z</time>
</trkpt>
<trkpt lat="50.082871" lon="13.447795">
<time>2021-08-22T11:19:00Z</time>
</trkpt>
<trkpt lat="50.082823" lon="13.447861">
<time>2021-08-22T11:19:01Z</time>
</trkpt>
<trkpt lat="50.082759" lon="13.447931">
<time>2021-08-22T11:19:02Z</time>
</trkpt>
<trkpt lat="50.082722" lon="13.447988">
<time>2021-08-22T11:19:03Z</time>
</trkpt>
<trkpt lat="50.08268" lon="13.44806">
<time>2021-08-22T11:19:04Z</time>
</trkpt>
<trkpt lat="50.082645" lon="13.448126">
<time>2021-08-22T11:19:05Z</time>
</trkpt>
<trkpt lat="50.082604" lon="13.448201">
<time>2021-08-22T11:19:06Z</time>
</trkpt>
<trkpt lat="50.082563" lon="13.448266">
<time>2021-08-22T11:19:07Z</time>
</trkpt>
<trkpt lat="50.082533" lon="13.448326">
<time>2021-08-22T11:19:08Z</time>
</trkpt>
<trkpt lat="50.082499" lon="13.448398">
<time>2021-08-22T11:19:09Z</time>
</trkpt>
<trkpt lat="50.082462" lon="13.44848">
<time>2021-08-22T11:19:10Z</time>
</trkpt>
<trkpt lat="50.082422" lon="13.448564">
<time>2021-08-22T11:19:11Z</time>
</trkpt>
<trkpt lat="50.082394" lon="13.448642">
<time>2021-08-22T11:19:12Z</time>
</trkpt>
<trkpt lat="50.082355" lon="13.448728">
<time>2021-08-22T11:19:13Z</time>
</trkpt>
<trkpt lat="50.082325" lon="13.448792">
<time>2021-08-22T11:19:14Z</time>
</trkpt>
<trkpt lat="50.082311" lon="13.448825">
<time>2021-08-22T11:19:15Z</time>
</trkpt>
<trkpt lat="50.082305" lon="13.44883">
<time>2021-08-22T11:19:16Z</time>
</trkpt>
<trkpt lat="50.082307" lon="13.448834">
<time>2021-08-22T11:19:17Z</time>
</trkpt>
<trkpt lat="50.082305" lon="13.448838">
<time>2021-08-22T11:19:18Z</time>
</trkpt>
<trkpt lat="50.082306" lon="13.448849">
<time>2021-08-22T11:19:19Z</time>
</trkpt>
<trkpt lat="50.082305" lon="13.448885">
<time>2021-08-22T11:19:20Z</time>
</trkpt>
<trkpt lat="50.082307" lon="13.448938">
<time>2021-08-22T11:19:21Z</time>
</trkpt>
<trkpt lat="50.082313" lon="13.448982">
<time>2021-08-22T11:19:22Z</time>
</trkpt>
<trkpt lat="50.082324" lon="13.449014">
<time>2021-08-22T11:19:23Z</time>
</trkpt>
<trkpt lat="50.08233" lon="13.449047">
<time>2021-08-22T11:19:24Z</time>
</trkpt>
<trkpt lat="50.082313" lon="13.449113">
<time>2021-08-22T11:19:25Z</time>
</trkpt>
<trkpt lat="50.082293" lon="13.44919">
<time>2021-08-22T11:19:26Z</time>
</trkpt>
<trkpt lat="50.082282" lon="13.449212">
<time>2021-08-22T11:19:27Z</time>
</trkpt>
<trkpt lat="50.082264" lon="13.449222">
<time>2021-08-22T11:19:28Z</time>
</trkpt>
<trkpt lat="50.082243" lon="13.449228">
<time>2021-08-22T11:19:29Z</time>
</trkpt>
<trkpt lat="50.082229" lon="13.449255">
<time>2021-08-22T11:19:30Z</time>
</trkpt>
<trkpt lat="50.082214" lon="13.449284">
<time>2021-08-22T11:19:31Z</time>
</trkpt>
<trkpt lat="50.082208" lon="13.449325">
<time>2021-08-22T11:19:32Z</time>
</trkpt>
<trkpt lat="50.082208" lon="13.449405">
<time>2021-08-22T11:19:33Z</time>
</trkpt>
<trkpt lat="50.082212" lon="13.449483">
<time>2021-08-22T11:19:34Z</time>
</trkpt>
<trkpt lat="50.082205" lon="13.449555">
<time>2021-08-22T11:19:35Z</time>
</trkpt>
<trkpt lat="50.082209" lon="13.449635">
<time>2021-08-22T11:19:36Z</time>
</trkpt>
<trkpt lat="50.082215" lon="13.449711">
<time>2021-08-22T11:19:37Z</time>
</trkpt>
<trkpt lat="50.082222" lon="13.449809">
<time>2021-08-22T11:19:38Z</time>
</trkpt>
<trkpt lat="50.082231" lon="13.449903">
<time>2021-08-22T11:19:39Z</time>
</trkpt>
<trkpt lat="50.082247" lon="13.449981">
<time>2021-08-22T11:19:40Z</time>
</trkpt>
<trkpt lat="50.082248" lon="13.450061">
<time>2021-08-22T11:19:41Z</time>
</trkpt>
<trkpt lat="50.082253" lon="13.450151">
<time>2021-08-22T11:19:42Z</time>
</trkpt>
<trkpt lat="50.082258" lon="13.450243">
<time>2021-08-22T11:19:43Z</time>
</trkpt>
<trkpt lat="50.082259" lon="13.450328">
<time>2021-08-22T11:19:44Z</time>
</trkpt>
<trkpt lat="50.082244" lon="13.450433">
<time>2021-08-22T11:19:45Z</time>
</trkpt>
<trkpt lat="50.082232" lon="13.450512">
<time>2021-08-22T11:19:46Z</time>
</trkpt>
<trkpt lat="50.082217" lon="13.450565">
<time>2021-08-22T11:19:47Z</time>
</trkpt>
<trkpt lat="50.082204" lon="13.450573">
<time>2021-08-22T11:19:48Z</time>
</trkpt>
<trkpt lat="50.082195" lon="13.450572">
<time>2021-08-22T11:19:49Z</time>
</trkpt>
<trkpt lat="50.082184" lon="13.450557">
<time>2021-08-22T11:19:50Z</time>
</trkpt>
<trkpt lat="50.082168" lon="13.450549">
<time>2021-08-22T11:19:51Z</time>
</trkpt>
<trkpt lat="50.082143" lon="13.450551">
<time>2021-08-22T11:19:52Z</time>
</trkpt>
<trkpt lat="50.082117" lon="13.450536">
<time>2021-08-22T11:19:53Z</time>
</trkpt>
<trkpt lat="50.082096" lon="13.450507">
<time>2021-08-22T11:19:54Z</time>
</trkpt>
<trkpt lat="50.082059" lon="13.450492">
<time>2021-08-22T11:19:55Z</time>
</trkpt>
<trkpt lat="50.082022" lon="13.450473">
<time>2021-08-22T11:19:56Z</time>
</trkpt>
<trkpt lat="50.081991" lon="13.450458">
<time>2021-08-22T11:19:57Z</time>
</trkpt>
<trkpt lat="50.081964" lon="13.450438">
<time>2021-08-22T11:19:58Z</time>
</trkpt>
<trkpt lat="50.081928" lon="13.450418">
<time>2021-08-22T11:19:59Z</time>
</trkpt>
<trkpt lat="50.081895" lon="13.450391">
<time>2021-08-22T11:20:00Z</time>
</trkpt>
<trkpt lat="50.081867" lon="13.45037">
<time>2021-08-22T11:20:01Z</time>
</trkpt>
<trkpt lat="50.081838" lon="13.450344">
<time>2021-08-22T11:20:02Z</time>
</trkpt>
<trkpt lat="50.081828" lon="13.450315">
<time>2021-08-22T11:20:03Z</time>
</trkpt>
<trkpt lat="50.081806" lon="13.450291">
<time>2021-08-22T11:20:04Z</time>
</trkpt>
<trkpt lat="50.081776" lon="13.45026">
<time>2021-08-22T11:20:05Z</time>
</trkpt>
<trkpt lat="50.081754" lon="13.450237">
<time>2021-08-22T11:20:06Z</time>
</trkpt>
<trkpt lat="50.081733" lon="13.450217">
<time>2021-08-22T11:20:07Z</time>
</trkpt>
<trkpt lat="50.081704" lon="13.450206">
<time>2021-08-22T11:20:08Z</time>
</trkpt>
<trkpt lat="50.081674" lon="13.450187">
<time>2021-08-22T11:20:09Z</time>
</trkpt>
<trkpt lat="50.081647" lon="13.450166">
<time>2021-08-22T11:20:10Z</time>
</trkpt>
<trkpt lat="50.081614" lon="13.450144">
<time>2021-08-22T11:20:11Z</time>
</trkpt>
<trkpt lat="50.081575" lon="13.45012">
<time>2021-08-22T11:20:12Z</time>
</trkpt>
<trkpt lat="50.081536" lon="13.450097">
<time>2021-08-22T11:20:13Z</time>
</trkpt>
<trkpt lat="50.081499" lon="13.450064">
<time>2021-08-22T11:20:14Z</time>
</trkpt>
<trkpt lat="50.081457" lon="13.450032">
<time>2021-08-22T11:20:15Z</time>
</trkpt>
<trkpt lat="50.081421" lon="13.450031">
<time>2021-08-22T11:20:16Z</time>
</trkpt>
<trkpt lat="50.081395" lon="13.450077">
<time>2021-08-22T11:20:17Z</time>
</trkpt>
<trkpt lat="50.081376" lon="13.450132">
<time>2021-08-22T11:20:18Z</time>
</trkpt>
<trkpt lat="50.081351" lon="13.450214">
<time>2021-08-22T11:20:19Z</time>
</trkpt>
<trkpt lat="50.081327" lon="13.450296">
<time>2021-08-22T11:20:20Z</time>
</trkpt>
<trkpt lat="50.081302" lon="13.450369">
<time>2021-08-22T11:20:21Z</time>
</trkpt>
<trkpt lat="50.081268" lon="13.450452">
<time>2021-08-22T11:20:22Z</time>
</trkpt>
<trkpt lat="50.081235" lon="13.450542">
<time>2021-08-22T11:20:23Z</time>
</trkpt>
<trkpt lat="50.081207" lon="13.450617">
<time>2021-08-22T11:20:24Z</time>
</trkpt>
<trkpt lat="50.08117" lon="13.450697">
<time>2021-08-22T11:20:25Z</time>
</trkpt>
<trkpt lat="50.081136" lon="13.450763">
<time>2021-08-22T11:20:26Z</time>
</trkpt>
<trkpt lat="50.081096" lon="13.45083">
<time>2021-08-22T11:20:27Z</time>
</trkpt>
<trkpt lat="50.081036" lon="13.450922">
<time>2021-08-22T11:20:28Z</time>
</trkpt>
<trkpt lat="50.080987" lon="13.451017">
<time>2021-08-22T11:20:29Z</time>
</trkpt>
<trkpt lat="50.080943" lon="13.451118">
<time>2021-08-22T11:20:30Z</time>
</trkpt>
<trkpt lat="50.080899" lon="13.45123">
<time>2021-08-22T11:20:31Z</time>
</trkpt>
<trkpt lat="50.080865" lon="13.451337">
<time>2021-08-22T11:20:32Z</time>
</trkpt>
<trkpt lat="50.08083" lon="13.451444">
<time>2021-08-22T11:20:33Z</time>
</trkpt>
<trkpt lat="50.080801" lon="13.45154">
<time>2021-08-22T11:20:34Z</time>
</trkpt>
<trkpt lat="50.080774" lon="13.451644">
<time>2021-08-22T11:20:35Z</time>
</trkpt>
<trkpt lat="50.080748" lon="13.451756">
<time>2021-08-22T11:20:36Z</time>
</trkpt>
<trkpt lat="50.080726" lon="13.451865">
<time>2021-08-22T11:20:37Z</time>
</trkpt>
<trkpt lat="50.080697" lon="13.451982">
<time>2021-08-22T11:20:38Z</time>
</trkpt>
<trkpt lat="50.080668" lon="13.452097">
<time>2021-08-22T11:20:39Z</time>
</trkpt>
<trkpt lat="50.080641" lon="13.452207">
<time>2021-08-22T11:20:40Z</time>
</trkpt>
<trkpt lat="50.080615" lon="13.452308">
<time>2021-08-22T11:20:41Z</time>
</trkpt>
<trkpt lat="50.080582" lon="13.452406">
<time>2021-08-22T11:20:42Z</time>
</trkpt>
<trkpt lat="50.08055" lon="13.452501">
<time>2021-08-22T11:20:43Z</time>
</trkpt>
<trkpt lat="50.080529" lon="13.452604">
<time>2021-08-22T11:20:44Z</time>
</trkpt>
<trkpt lat="50.080516" lon="13.452705">
<time>2021-08-22T11:20:45Z</time>
</trkpt>
<trkpt lat="50.080507" lon="13.452817">
<time>2021-08-22T11:20:46Z</time>
</trkpt>
<trkpt lat="50.080498" lon="13.452931">
<time>2021-08-22T11:20:47Z</time>
</trkpt>
<trkpt lat="50.080476" lon="13.453051">
<time>2021-08-22T11:20:48Z</time>
</trkpt>
<trkpt lat="50.080455" lon="13.453168">
<time>2021-08-22T11:20:49Z</time>
</trkpt>
<trkpt lat="50.080432" lon="13.453274">
<time>2021-08-22T11:20:50Z</time>
</trkpt>
<trkpt lat="50.080409" lon="13.453366">
<time>2021-08-22T11:20:51Z</time>
</trkpt>
<trkpt lat="50.080393" lon="13.453448">
<time>2021-08-22T11:20:52Z</time>
</trkpt>
<trkpt lat="50.080382" lon="13.453523">
<time>2021-08-22T11:20:53Z</time>
</trkpt>
</trkseg>
<name>antonio</name>
</trk>
</gpx>